<?xml version='1.0' encoding='UTF-8'?><gpx version="1.1" creator="JPX - https://github.com/jenetics/jpx" xmlns="http://www.topografix.com/GPX/1/1"><trk><trkseg><trkpt lat="40.6039949" lon="15.1142414"><ele>103.0</ele><time>2026-04-25T06:39:27.884Z</time></trkpt><trkpt lat="40.6040683" lon="15.1145395"><ele>103.0</ele><time>2026-04-25T06:39:32.905Z</time></trkpt><trkpt lat="40.6040861" lon="15.1146246"><ele>103.0</ele><time>2026-04-25T06:39:35.885Z</time></trkpt><trkpt lat="40.6041654" lon="15.1145815"><ele>103.0</ele><time>2026-04-25T06:39:38.849Z</time></trkpt><trkpt lat="40.6042341" lon="15.1145642"><ele>103.0</ele><time>2026-04-25T06:39:40.89Z</time></trkpt><trkpt lat="40.6044849" lon="15.1146621"><ele>103.0</ele><time>2026-04-25T06:39:42.885Z</time></trkpt><trkpt lat="40.6046086" lon="15.1147028"><ele>103.0</ele><time>2026-04-25T06:39:43.884Z</time></trkpt><trkpt lat="40.6047153" lon="15.1147199"><ele>103.2</ele><time>2026-04-25T06:39:44.885Z</time></trkpt><trkpt lat="40.6048182" lon="15.1147344"><ele>103.4</ele><time>2026-04-25T06:39:45.884Z</time></trkpt><trkpt lat="40.604923" lon="15.1147417"><ele>103.60000000000001</ele><time>2026-04-25T06:39:46.884Z</time></trkpt><trkpt lat="40.6050328" lon="15.1147516"><ele>103.80000000000001</ele><time>2026-04-25T06:39:47.884Z</time></trkpt><trkpt lat="40.605145" lon="15.1147603"><ele>104.0</ele><time>2026-04-25T06:39:48.885Z</time></trkpt><trkpt lat="40.60526" lon="15.1147689"><ele>103.5</ele><time>2026-04-25T06:39:49.884Z</time></trkpt><trkpt lat="40.6053757" lon="15.114776"><ele>103.0</ele><time>2026-04-25T06:39:50.884Z</time></trkpt><trkpt lat="40.6054946" lon="15.1147896"><ele>102.5</ele><time>2026-04-25T06:39:51.883Z</time></trkpt><trkpt lat="40.6056215" lon="15.114804"><ele>102.0</ele><time>2026-04-25T06:39:52.883Z</time></trkpt><trkpt lat="40.6057477" lon="15.1148227"><ele>102.0</ele><time>2026-04-25T06:39:53.884Z</time></trkpt><trkpt lat="40.6058757" lon="15.1148617"><ele>102.0</ele><time>2026-04-25T06:39:54.884Z</time></trkpt><trkpt lat="40.605993" lon="15.1149298"><ele>102.0</ele><time>2026-04-25T06:39:55.883Z</time></trkpt><trkpt lat="40.6061087" lon="15.1150072"><ele>102.0</ele><time>2026-04-25T06:39:56.884Z</time></trkpt><trkpt lat="40.6062303" lon="15.1150588"><ele>103.5</ele><time>2026-04-25T06:39:57.884Z</time></trkpt><trkpt lat="40.6063555" lon="15.1150754"><ele>105.0</ele><time>2026-04-25T06:39:58.883Z</time></trkpt><trkpt lat="40.6064852" lon="15.115066"><ele>106.5</ele><time>2026-04-25T06:39:59.884Z</time></trkpt><trkpt lat="40.6066106" lon="15.1150468"><ele>108.0</ele><time>2026-04-25T06:40:00.884Z</time></trkpt><trkpt lat="40.606735" lon="15.115025"><ele>108.0</ele><time>2026-04-25T06:40:01.884Z</time></trkpt><trkpt lat="40.6068583" lon="15.1150067"><ele>108.0</ele><time>2026-04-25T06:40:02.884Z</time></trkpt><trkpt lat="40.6069867" lon="15.114985"><ele>108.0</ele><time>2026-04-25T06:40:03.884Z</time></trkpt><trkpt lat="40.607115" lon="15.1149667"><ele>108.0</ele><time>2026-04-25T06:40:04.883Z</time></trkpt><trkpt lat="40.6072483" lon="15.1149433"><ele>108.5</ele><time>2026-04-25T06:40:05.883Z</time></trkpt><trkpt lat="40.6073817" lon="15.114925"><ele>109.0</ele><time>2026-04-25T06:40:06.883Z</time></trkpt><trkpt lat="40.6075183" lon="15.1149067"><ele>109.5</ele><time>2026-04-25T06:40:07.884Z</time></trkpt><trkpt lat="40.6076517" lon="15.114895"><ele>110.0</ele><time>2026-04-25T06:40:08.884Z</time></trkpt><trkpt lat="40.6077817" lon="15.114895"><ele>110.25</ele><time>2026-04-25T06:40:09.884Z</time></trkpt><trkpt lat="40.6079117" lon="15.1149083"><ele>110.5</ele><time>2026-04-25T06:40:10.884Z</time></trkpt><trkpt lat="40.6080367" lon="15.1149283"><ele>110.75</ele><time>2026-04-25T06:40:11.883Z</time></trkpt><trkpt lat="40.60816" lon="15.1149383"><ele>111.0</ele><time>2026-04-25T06:40:12.884Z</time></trkpt><trkpt lat="40.6082767" lon="15.114955"><ele>111.0</ele><time>2026-04-25T06:40:13.883Z</time></trkpt><trkpt lat="40.6083883" lon="15.114965"><ele>111.0</ele><time>2026-04-25T06:40:14.884Z</time></trkpt><trkpt lat="40.6085017" lon="15.11498"><ele>111.0</ele><time>2026-04-25T06:40:15.883Z</time></trkpt><trkpt lat="40.608615" lon="15.1149933"><ele>111.0</ele><time>2026-04-25T06:40:16.884Z</time></trkpt><trkpt lat="40.60873" lon="15.11501"><ele>111.25</ele><time>2026-04-25T06:40:17.883Z</time></trkpt><trkpt lat="40.6088467" lon="15.1150283"><ele>111.5</ele><time>2026-04-25T06:40:18.884Z</time></trkpt><trkpt lat="40.6089683" lon="15.115045"><ele>111.75</ele><time>2026-04-25T06:40:19.884Z</time></trkpt><trkpt lat="40.60909" lon="15.1150567"><ele>112.0</ele><time>2026-04-25T06:40:20.884Z</time></trkpt><trkpt lat="40.6092167" lon="15.1150733"><ele>112.0</ele><time>2026-04-25T06:40:21.884Z</time></trkpt><trkpt lat="40.6093433" lon="15.11509"><ele>112.0</ele><time>2026-04-25T06:40:22.884Z</time></trkpt><trkpt lat="40.6094717" lon="15.1151117"><ele>112.0</ele><time>2026-04-25T06:40:23.883Z</time></trkpt><trkpt lat="40.6096033" lon="15.1151267"><ele>112.0</ele><time>2026-04-25T06:40:24.884Z</time></trkpt><trkpt lat="40.60974" lon="15.1151433"><ele>112.25</ele><time>2026-04-25T06:40:25.883Z</time></trkpt><trkpt lat="40.6098733" lon="15.1151617"><ele>112.5</ele><time>2026-04-25T06:40:26.884Z</time></trkpt><trkpt lat="40.6100117" lon="15.1151733"><ele>112.75</ele><time>2026-04-25T06:40:27.884Z</time></trkpt><trkpt lat="40.6101483" lon="15.1151883"><ele>113.0</ele><time>2026-04-25T06:40:28.883Z</time></trkpt><trkpt lat="40.610285" lon="15.1152067"><ele>114.25</ele><time>2026-04-25T06:40:29.883Z</time></trkpt><trkpt lat="40.61042" lon="15.11522"><ele>115.5</ele><time>2026-04-25T06:40:30.884Z</time></trkpt><trkpt lat="40.610555" lon="15.115235"><ele>116.75</ele><time>2026-04-25T06:40:31.884Z</time></trkpt><trkpt lat="40.6106933" lon="15.1152483"><ele>118.0</ele><time>2026-04-25T06:40:32.884Z</time></trkpt><trkpt lat="40.6108333" lon="15.1152617"><ele>118.0</ele><time>2026-04-25T06:40:33.883Z</time></trkpt><trkpt lat="40.6109717" lon="15.11528"><ele>118.0</ele><time>2026-04-25T06:40:34.884Z</time></trkpt><trkpt lat="40.61111" lon="15.1153083"><ele>118.0</ele><time>2026-04-25T06:40:35.883Z</time></trkpt><trkpt lat="40.6112483" lon="15.1153333"><ele>118.0</ele><time>2026-04-25T06:40:36.884Z</time></trkpt><trkpt lat="40.6113917" lon="15.11536"><ele>118.0</ele><time>2026-04-25T06:40:37.884Z</time></trkpt><trkpt lat="40.611535" lon="15.1153767"><ele>118.0</ele><time>2026-04-25T06:40:38.884Z</time></trkpt><trkpt lat="40.6116783" lon="15.1154067"><ele>118.0</ele><time>2026-04-25T06:40:39.884Z</time></trkpt><trkpt lat="40.6118233" lon="15.1154383"><ele>118.0</ele><time>2026-04-25T06:40:40.883Z</time></trkpt><trkpt lat="40.61197" lon="15.1154533"><ele>118.25</ele><time>2026-04-25T06:40:41.884Z</time></trkpt><trkpt lat="40.6121167" lon="15.1154817"><ele>118.5</ele><time>2026-04-25T06:40:42.884Z</time></trkpt><trkpt lat="40.6122667" lon="15.11551"><ele>118.75</ele><time>2026-04-25T06:40:43.884Z</time></trkpt><trkpt lat="40.6124133" lon="15.1155317"><ele>119.0</ele><time>2026-04-25T06:40:44.884Z</time></trkpt><trkpt lat="40.6125667" lon="15.11556"><ele>119.0</ele><time>2026-04-25T06:40:45.884Z</time></trkpt><trkpt lat="40.6127183" lon="15.11559"><ele>119.0</ele><time>2026-04-25T06:40:46.884Z</time></trkpt><trkpt lat="40.6128667" lon="15.115615"><ele>119.0</ele><time>2026-04-25T06:40:47.883Z</time></trkpt><trkpt lat="40.6130167" lon="15.11564"><ele>119.5</ele><time>2026-04-25T06:40:48.883Z</time></trkpt><trkpt lat="40.6131583" lon="15.115665"><ele>120.0</ele><time>2026-04-25T06:40:49.884Z</time></trkpt><trkpt lat="40.613295" lon="15.1156933"><ele>120.5</ele><time>2026-04-25T06:40:50.884Z</time></trkpt><trkpt lat="40.6134217" lon="15.1157133"><ele>121.0</ele><time>2026-04-25T06:40:51.884Z</time></trkpt><trkpt lat="40.6135433" lon="15.1157233"><ele>121.0</ele><time>2026-04-25T06:40:52.883Z</time></trkpt><trkpt lat="40.6136567" lon="15.1157283"><ele>121.0</ele><time>2026-04-25T06:40:53.884Z</time></trkpt><trkpt lat="40.6137667" lon="15.11572"><ele>121.0</ele><time>2026-04-25T06:40:54.883Z</time></trkpt><trkpt lat="40.6138583" lon="15.115705"><ele>121.0</ele><time>2026-04-25T06:40:55.884Z</time></trkpt><trkpt lat="40.613935" lon="15.1157"><ele>121.0</ele><time>2026-04-25T06:40:56.883Z</time></trkpt><trkpt lat="40.6140467" lon="15.11573"><ele>121.00000000000001</ele><time>2026-04-25T06:40:58.883Z</time></trkpt><trkpt lat="40.61411" lon="15.115845"><ele>121.0</ele><time>2026-04-25T06:41:00.883Z</time></trkpt><trkpt lat="40.6141367" lon="15.1159383"><ele>121.0</ele><time>2026-04-25T06:41:01.883Z</time></trkpt><trkpt lat="40.6141633" lon="15.1160417"><ele>121.0</ele><time>2026-04-25T06:41:02.884Z</time></trkpt><trkpt lat="40.6141933" lon="15.11614"><ele>121.00000000000001</ele><time>2026-04-25T06:41:03.883Z</time></trkpt><trkpt lat="40.6142217" lon="15.11624"><ele>121.0</ele><time>2026-04-25T06:41:04.883Z</time></trkpt><trkpt lat="40.6142517" lon="15.1163433"><ele>121.00000000000001</ele><time>2026-04-25T06:41:05.883Z</time></trkpt><trkpt lat="40.614285" lon="15.11644"><ele>121.0</ele><time>2026-04-25T06:41:06.883Z</time></trkpt><trkpt lat="40.6143167" lon="15.11654"><ele>121.0</ele><time>2026-04-25T06:41:07.884Z</time></trkpt><trkpt lat="40.61435" lon="15.1166417"><ele>121.0</ele><time>2026-04-25T06:41:08.884Z</time></trkpt><trkpt lat="40.6143883" lon="15.11674"><ele>121.00000000000001</ele><time>2026-04-25T06:41:09.884Z</time></trkpt><trkpt lat="40.6144233" lon="15.11683"><ele>121.0</ele><time>2026-04-25T06:41:10.884Z</time></trkpt><trkpt lat="40.614455" lon="15.1169067"><ele>121.00000000000001</ele><time>2026-04-25T06:41:11.884Z</time></trkpt><trkpt lat="40.6145133" lon="15.1170517"><ele>121.0</ele><time>2026-04-25T06:41:13.884Z</time></trkpt><trkpt lat="40.61455" lon="15.117135"><ele>121.0</ele><time>2026-04-25T06:41:14.884Z</time></trkpt><trkpt lat="40.6145867" lon="15.1172267"><ele>121.0</ele><time>2026-04-25T06:41:15.883Z</time></trkpt><trkpt lat="40.614625" lon="15.1173217"><ele>121.00000000000001</ele><time>2026-04-25T06:41:16.883Z</time></trkpt><trkpt lat="40.6146617" lon="15.1174217"><ele>121.0</ele><time>2026-04-25T06:41:17.884Z</time></trkpt><trkpt lat="40.6146983" lon="15.1175217"><ele>121.00000000000001</ele><time>2026-04-25T06:41:18.884Z</time></trkpt><trkpt lat="40.614735" lon="15.1176267"><ele>121.0</ele><time>2026-04-25T06:41:19.883Z</time></trkpt><trkpt lat="40.6147733" lon="15.1177317"><ele>121.0</ele><time>2026-04-25T06:41:20.884Z</time></trkpt><trkpt lat="40.61481" lon="15.1178383"><ele>121.0</ele><time>2026-04-25T06:41:21.884Z</time></trkpt><trkpt lat="40.6148467" lon="15.1179433"><ele>121.00000000000001</ele><time>2026-04-25T06:41:22.884Z</time></trkpt><trkpt lat="40.61488" lon="15.118055"><ele>121.0</ele><time>2026-04-25T06:41:23.883Z</time></trkpt><trkpt lat="40.61491" lon="15.1181667"><ele>121.19999999999999</ele><time>2026-04-25T06:41:24.884Z</time></trkpt><trkpt lat="40.6149383" lon="15.11828"><ele>121.39999999999999</ele><time>2026-04-25T06:41:25.883Z</time></trkpt><trkpt lat="40.614965" lon="15.1183983"><ele>121.6</ele><time>2026-04-25T06:41:26.884Z</time></trkpt><trkpt lat="40.6149867" lon="15.11853"><ele>121.8</ele><time>2026-04-25T06:41:27.884Z</time></trkpt><trkpt lat="40.6150033" lon="15.1186833"><ele>122.0</ele><time>2026-04-25T06:41:28.883Z</time></trkpt><trkpt lat="40.6150183" lon="15.11885"><ele>122.0</ele><time>2026-04-25T06:41:29.883Z</time></trkpt><trkpt lat="40.61503" lon="15.1190217"><ele>122.0</ele><time>2026-04-25T06:41:30.883Z</time></trkpt><trkpt lat="40.6150533" lon="15.11918"><ele>122.0</ele><time>2026-04-25T06:41:31.884Z</time></trkpt><trkpt lat="40.6150817" lon="15.11934"><ele>122.0</ele><time>2026-04-25T06:41:32.884Z</time></trkpt><trkpt lat="40.6151167" lon="15.1195033"><ele>121.0</ele><time>2026-04-25T06:41:33.884Z</time></trkpt><trkpt lat="40.615155" lon="15.1196633"><ele>120.0</ele><time>2026-04-25T06:41:34.883Z</time></trkpt><trkpt lat="40.6152017" lon="15.119835"><ele>119.0</ele><time>2026-04-25T06:41:35.883Z</time></trkpt><trkpt lat="40.61525" lon="15.1200017"><ele>118.0</ele><time>2026-04-25T06:41:36.883Z</time></trkpt><trkpt lat="40.6152967" lon="15.1201717"><ele>119.0</ele><time>2026-04-25T06:41:37.884Z</time></trkpt><trkpt lat="40.6153433" lon="15.1203433"><ele>120.0</ele><time>2026-04-25T06:41:38.884Z</time></trkpt><trkpt lat="40.6153883" lon="15.1205167"><ele>121.0</ele><time>2026-04-25T06:41:39.883Z</time></trkpt><trkpt lat="40.6154283" lon="15.1206867"><ele>122.0</ele><time>2026-04-25T06:41:40.884Z</time></trkpt><trkpt lat="40.6154617" lon="15.1208667"><ele>122.0</ele><time>2026-04-25T06:41:41.883Z</time></trkpt><trkpt lat="40.615485" lon="15.1210483"><ele>122.0</ele><time>2026-04-25T06:41:42.884Z</time></trkpt><trkpt lat="40.6154983" lon="15.1212433"><ele>122.0</ele><time>2026-04-25T06:41:43.884Z</time></trkpt><trkpt lat="40.61552" lon="15.12144"><ele>122.0</ele><time>2026-04-25T06:41:44.883Z</time></trkpt><trkpt lat="40.6155383" lon="15.1216317"><ele>119.5</ele><time>2026-04-25T06:41:45.883Z</time></trkpt><trkpt lat="40.61554" lon="15.1218183"><ele>117.0</ele><time>2026-04-25T06:41:46.884Z</time></trkpt><trkpt lat="40.6155283" lon="15.1220267"><ele>114.5</ele><time>2026-04-25T06:41:47.883Z</time></trkpt><trkpt lat="40.6155017" lon="15.122215"><ele>112.0</ele><time>2026-04-25T06:41:48.884Z</time></trkpt><trkpt lat="40.6154617" lon="15.1224"><ele>111.75</ele><time>2026-04-25T06:41:49.884Z</time></trkpt><trkpt lat="40.6154033" lon="15.122575"><ele>111.5</ele><time>2026-04-25T06:41:50.883Z</time></trkpt><trkpt lat="40.61534" lon="15.1227483"><ele>111.25</ele><time>2026-04-25T06:41:51.884Z</time></trkpt><trkpt lat="40.6152717" lon="15.1229133"><ele>111.0</ele><time>2026-04-25T06:41:52.883Z</time></trkpt><trkpt lat="40.61519" lon="15.12307"><ele>111.0</ele><time>2026-04-25T06:41:53.883Z</time></trkpt><trkpt lat="40.615095" lon="15.12322"><ele>111.0</ele><time>2026-04-25T06:41:54.883Z</time></trkpt><trkpt lat="40.614985" lon="15.1233633"><ele>111.0</ele><time>2026-04-25T06:41:55.884Z</time></trkpt><trkpt lat="40.61487" lon="15.12351"><ele>105.66666666666667</ele><time>2026-04-25T06:41:56.884Z</time></trkpt><trkpt lat="40.6147517" lon="15.12366"><ele>100.33333333333334</ele><time>2026-04-25T06:41:57.883Z</time></trkpt><trkpt lat="40.6146433" lon="15.1238033"><ele>95.0</ele><time>2026-04-25T06:41:58.883Z</time></trkpt><trkpt lat="40.6145383" lon="15.1239483"><ele>93.75</ele><time>2026-04-25T06:41:59.884Z</time></trkpt><trkpt lat="40.6144283" lon="15.1240733"><ele>92.5</ele><time>2026-04-25T06:42:00.883Z</time></trkpt><trkpt lat="40.6143033" lon="15.1241833"><ele>91.25</ele><time>2026-04-25T06:42:01.883Z</time></trkpt><trkpt lat="40.6141667" lon="15.12427"><ele>90.0</ele><time>2026-04-25T06:42:02.883Z</time></trkpt><trkpt lat="40.6140267" lon="15.12435"><ele>90.0</ele><time>2026-04-25T06:42:03.883Z</time></trkpt><trkpt lat="40.6138883" lon="15.12444"><ele>90.0</ele><time>2026-04-25T06:42:04.883Z</time></trkpt><trkpt lat="40.6137583" lon="15.1245417"><ele>90.0</ele><time>2026-04-25T06:42:05.884Z</time></trkpt><trkpt lat="40.6136367" lon="15.1246717"><ele>88.33333333333333</ele><time>2026-04-25T06:42:06.883Z</time></trkpt><trkpt lat="40.6135233" lon="15.1248133"><ele>86.66666666666666</ele><time>2026-04-25T06:42:07.884Z</time></trkpt><trkpt lat="40.613405" lon="15.12496"><ele>85.0</ele><time>2026-04-25T06:42:08.883Z</time></trkpt><trkpt lat="40.6132867" lon="15.12509"><ele>85.0</ele><time>2026-04-25T06:42:09.884Z</time></trkpt><trkpt lat="40.6131717" lon="15.125225"><ele>85.0</ele><time>2026-04-25T06:42:10.883Z</time></trkpt><trkpt lat="40.6130633" lon="15.1253533"><ele>85.0</ele><time>2026-04-25T06:42:11.884Z</time></trkpt><trkpt lat="40.6129583" lon="15.12548"><ele>85.0</ele><time>2026-04-25T06:42:12.884Z</time></trkpt><trkpt lat="40.6128483" lon="15.125605"><ele>83.25</ele><time>2026-04-25T06:42:13.883Z</time></trkpt><trkpt lat="40.6127417" lon="15.12573"><ele>81.5</ele><time>2026-04-25T06:42:14.883Z</time></trkpt><trkpt lat="40.612625" lon="15.12584"><ele>79.75</ele><time>2026-04-25T06:42:15.884Z</time></trkpt><trkpt lat="40.6124883" lon="15.1259267"><ele>78.0</ele><time>2026-04-25T06:42:16.884Z</time></trkpt><trkpt lat="40.6123483" lon="15.125985"><ele>78.0</ele><time>2026-04-25T06:42:17.883Z</time></trkpt><trkpt lat="40.6122033" lon="15.1260217"><ele>78.0</ele><time>2026-04-25T06:42:18.884Z</time></trkpt><trkpt lat="40.6120667" lon="15.1260567"><ele>78.0</ele><time>2026-04-25T06:42:19.883Z</time></trkpt><trkpt lat="40.6119333" lon="15.1261183"><ele>78.0</ele><time>2026-04-25T06:42:20.884Z</time></trkpt><trkpt lat="40.611805" lon="15.1262017"><ele>80.66666666666667</ele><time>2026-04-25T06:42:21.883Z</time></trkpt><trkpt lat="40.6116817" lon="15.1263067"><ele>83.33333333333334</ele><time>2026-04-25T06:42:22.884Z</time></trkpt><trkpt lat="40.61155" lon="15.1264117"><ele>86.0</ele><time>2026-04-25T06:42:23.884Z</time></trkpt><trkpt lat="40.6114233" lon="15.1265167"><ele>82.25</ele><time>2026-04-25T06:42:24.884Z</time></trkpt><trkpt lat="40.6112967" lon="15.1266167"><ele>78.5</ele><time>2026-04-25T06:42:25.883Z</time></trkpt><trkpt lat="40.6111667" lon="15.1267"><ele>74.75</ele><time>2026-04-25T06:42:26.884Z</time></trkpt><trkpt lat="40.61103" lon="15.1267733"><ele>71.0</ele><time>2026-04-25T06:42:27.883Z</time></trkpt><trkpt lat="40.6108983" lon="15.1268367"><ele>71.0</ele><time>2026-04-25T06:42:28.883Z</time></trkpt><trkpt lat="40.610775" lon="15.126905"><ele>71.0</ele><time>2026-04-25T06:42:29.883Z</time></trkpt><trkpt lat="40.6106567" lon="15.1269717"><ele>71.0</ele><time>2026-04-25T06:42:30.884Z</time></trkpt><trkpt lat="40.6105467" lon="15.127045"><ele>71.0</ele><time>2026-04-25T06:42:31.883Z</time></trkpt><trkpt lat="40.6104367" lon="15.127125"><ele>71.0</ele><time>2026-04-25T06:42:32.884Z</time></trkpt><trkpt lat="40.610325" lon="15.1272033"><ele>71.0</ele><time>2026-04-25T06:42:33.883Z</time></trkpt><trkpt lat="40.6102133" lon="15.12729"><ele>71.0</ele><time>2026-04-25T06:42:34.884Z</time></trkpt><trkpt lat="40.6101017" lon="15.1273917"><ele>71.0</ele><time>2026-04-25T06:42:35.883Z</time></trkpt><trkpt lat="40.610005" lon="15.1275217"><ele>69.0</ele><time>2026-04-25T06:42:36.883Z</time></trkpt><trkpt lat="40.60992" lon="15.127665"><ele>67.0</ele><time>2026-04-25T06:42:37.884Z</time></trkpt><trkpt lat="40.6098433" lon="15.1278133"><ele>65.0</ele><time>2026-04-25T06:42:38.883Z</time></trkpt><trkpt lat="40.6097733" lon="15.12797"><ele>63.0</ele><time>2026-04-25T06:42:39.883Z</time></trkpt><trkpt lat="40.60971" lon="15.1281467"><ele>60.33333333333333</ele><time>2026-04-25T06:42:40.883Z</time></trkpt><trkpt lat="40.60965" lon="15.12833"><ele>57.666666666666664</ele><time>2026-04-25T06:42:41.884Z</time></trkpt><trkpt lat="40.6095983" lon="15.12852"><ele>55.0</ele><time>2026-04-25T06:42:42.883Z</time></trkpt><trkpt lat="40.6095517" lon="15.1287033"><ele>55.0</ele><time>2026-04-25T06:42:43.883Z</time></trkpt><trkpt lat="40.6095117" lon="15.1288833"><ele>55.0</ele><time>2026-04-25T06:42:44.883Z</time></trkpt><trkpt lat="40.609475" lon="15.129045"><ele>55.0</ele><time>2026-04-25T06:42:45.884Z</time></trkpt><trkpt lat="40.6094483" lon="15.12921"><ele>55.0</ele><time>2026-04-25T06:42:46.883Z</time></trkpt><trkpt lat="40.6094483" lon="15.1293617"><ele>55.0</ele><time>2026-04-25T06:42:47.883Z</time></trkpt><trkpt lat="40.6094767" lon="15.1294967"><ele>55.0</ele><time>2026-04-25T06:42:48.884Z</time></trkpt><trkpt lat="40.609525" lon="15.1296167"><ele>55.0</ele><time>2026-04-25T06:42:49.884Z</time></trkpt><trkpt lat="40.609575" lon="15.12972"><ele>55.0</ele><time>2026-04-25T06:42:50.884Z</time></trkpt><trkpt lat="40.6096217" lon="15.1298283"><ele>55.0</ele><time>2026-04-25T06:42:51.883Z</time></trkpt><trkpt lat="40.609645" lon="15.12995"><ele>55.33333333333333</ele><time>2026-04-25T06:42:52.884Z</time></trkpt><trkpt lat="40.6096367" lon="15.1300617"><ele>55.666666666666664</ele><time>2026-04-25T06:42:53.884Z</time></trkpt><trkpt lat="40.60961" lon="15.1301633"><ele>56.0</ele><time>2026-04-25T06:42:54.883Z</time></trkpt><trkpt lat="40.60956" lon="15.1302433"><ele>56.33333333333333</ele><time>2026-04-25T06:42:55.883Z</time></trkpt><trkpt lat="40.60949" lon="15.13029"><ele>56.666666666666664</ele><time>2026-04-25T06:42:56.883Z</time></trkpt><trkpt lat="40.6093967" lon="15.1303033"><ele>57.0</ele><time>2026-04-25T06:42:57.884Z</time></trkpt><trkpt lat="40.6092933" lon="15.1303"><ele>57.0</ele><time>2026-04-25T06:42:58.884Z</time></trkpt><trkpt lat="40.609185" lon="15.1302917"><ele>57.0</ele><time>2026-04-25T06:42:59.883Z</time></trkpt><trkpt lat="40.6090617" lon="15.13029"><ele>57.0</ele><time>2026-04-25T06:43:00.883Z</time></trkpt><trkpt lat="40.6089367" lon="15.1302867"><ele>57.0</ele><time>2026-04-25T06:43:01.884Z</time></trkpt><trkpt lat="40.60881" lon="15.1302833"><ele>57.0</ele><time>2026-04-25T06:43:02.883Z</time></trkpt><trkpt lat="40.6086867" lon="15.1302783"><ele>57.0</ele><time>2026-04-25T06:43:03.884Z</time></trkpt><trkpt lat="40.6085617" lon="15.1303033"><ele>57.0</ele><time>2026-04-25T06:43:04.884Z</time></trkpt><trkpt lat="40.6084383" lon="15.1302917"><ele>57.0</ele><time>2026-04-25T06:43:05.883Z</time></trkpt><trkpt lat="40.60831" lon="15.130295"><ele>56.75</ele><time>2026-04-25T06:43:06.884Z</time></trkpt><trkpt lat="40.6081833" lon="15.1303083"><ele>56.5</ele><time>2026-04-25T06:43:07.884Z</time></trkpt><trkpt lat="40.6080733" lon="15.1303283"><ele>56.25</ele><time>2026-04-25T06:43:08.884Z</time></trkpt><trkpt lat="40.607975" lon="15.1303717"><ele>56.0</ele><time>2026-04-25T06:43:09.884Z</time></trkpt><trkpt lat="40.6078767" lon="15.1304383"><ele>55.25</ele><time>2026-04-25T06:43:10.883Z</time></trkpt><trkpt lat="40.60778" lon="15.1305317"><ele>54.5</ele><time>2026-04-25T06:43:11.884Z</time></trkpt><trkpt lat="40.6076983" lon="15.130655"><ele>53.75</ele><time>2026-04-25T06:43:12.883Z</time></trkpt><trkpt lat="40.6076367" lon="15.130795"><ele>53.0</ele><time>2026-04-25T06:43:13.883Z</time></trkpt><trkpt lat="40.6076033" lon="15.13094"><ele>55.5</ele><time>2026-04-25T06:43:14.883Z</time></trkpt><trkpt lat="40.60759" lon="15.1310883"><ele>58.0</ele><time>2026-04-25T06:43:15.883Z</time></trkpt><trkpt lat="40.6075633" lon="15.1312367"><ele>60.5</ele><time>2026-04-25T06:43:16.884Z</time></trkpt><trkpt lat="40.6075133" lon="15.1313767"><ele>63.0</ele><time>2026-04-25T06:43:17.883Z</time></trkpt><trkpt lat="40.6074267" lon="15.1315117"><ele>66.25</ele><time>2026-04-25T06:43:18.884Z</time></trkpt><trkpt lat="40.60732" lon="15.1316333"><ele>69.5</ele><time>2026-04-25T06:43:19.884Z</time></trkpt><trkpt lat="40.607205" lon="15.1317483"><ele>72.75</ele><time>2026-04-25T06:43:20.883Z</time></trkpt><trkpt lat="40.607105" lon="15.1318517"><ele>76.0</ele><time>2026-04-25T06:43:21.884Z</time></trkpt><trkpt lat="40.60702" lon="15.1319417"><ele>76.0</ele><time>2026-04-25T06:43:22.883Z</time></trkpt><trkpt lat="40.60695" lon="15.1320367"><ele>76.0</ele><time>2026-04-25T06:43:23.884Z</time></trkpt><trkpt lat="40.6069167" lon="15.1321383"><ele>76.0</ele><time>2026-04-25T06:43:24.884Z</time></trkpt><trkpt lat="40.6069167" lon="15.1322383"><ele>76.0</ele><time>2026-04-25T06:43:25.883Z</time></trkpt><trkpt lat="40.606955" lon="15.13232"><ele>76.0</ele><time>2026-04-25T06:43:26.884Z</time></trkpt><trkpt lat="40.6070217" lon="15.1323767"><ele>76.0</ele><time>2026-04-25T06:43:27.883Z</time></trkpt><trkpt lat="40.6071067" lon="15.1323983"><ele>76.0</ele><time>2026-04-25T06:43:28.884Z</time></trkpt><trkpt lat="40.6071983" lon="15.1323967"><ele>76.0</ele><time>2026-04-25T06:43:29.883Z</time></trkpt><trkpt lat="40.6073" lon="15.1323733"><ele>76.0</ele><time>2026-04-25T06:43:30.884Z</time></trkpt><trkpt lat="40.6074133" lon="15.13232"><ele>76.0</ele><time>2026-04-25T06:43:31.884Z</time></trkpt><trkpt lat="40.6075317" lon="15.1322733"><ele>76.0</ele><time>2026-04-25T06:43:32.883Z</time></trkpt><trkpt lat="40.607655" lon="15.1322333"><ele>76.0</ele><time>2026-04-25T06:43:33.884Z</time></trkpt><trkpt lat="40.6077867" lon="15.13221"><ele>76.0</ele><time>2026-04-25T06:43:34.884Z</time></trkpt><trkpt lat="40.6079133" lon="15.1322033"><ele>76.0</ele><time>2026-04-25T06:43:35.884Z</time></trkpt><trkpt lat="40.6080317" lon="15.1322017"><ele>76.0</ele><time>2026-04-25T06:43:36.884Z</time></trkpt><trkpt lat="40.608145" lon="15.1322083"><ele>77.75</ele><time>2026-04-25T06:43:37.884Z</time></trkpt><trkpt lat="40.6082483" lon="15.1322317"><ele>79.5</ele><time>2026-04-25T06:43:38.884Z</time></trkpt><trkpt lat="40.60834" lon="15.1323"><ele>81.25</ele><time>2026-04-25T06:43:39.883Z</time></trkpt><trkpt lat="40.6084233" lon="15.1324183"><ele>83.0</ele><time>2026-04-25T06:43:40.884Z</time></trkpt><trkpt lat="40.6084883" lon="15.132555"><ele>86.5</ele><time>2026-04-25T06:43:41.884Z</time></trkpt><trkpt lat="40.6085383" lon="15.1327267"><ele>90.0</ele><time>2026-04-25T06:43:42.884Z</time></trkpt><trkpt lat="40.6085867" lon="15.1328933"><ele>93.5</ele><time>2026-04-25T06:43:43.884Z</time></trkpt><trkpt lat="40.6086317" lon="15.1330583"><ele>97.0</ele><time>2026-04-25T06:43:44.883Z</time></trkpt><trkpt lat="40.608675" lon="15.1332017"><ele>97.0</ele><time>2026-04-25T06:43:45.883Z</time></trkpt><trkpt lat="40.6087183" lon="15.1333333"><ele>97.0</ele><time>2026-04-25T06:43:46.883Z</time></trkpt><trkpt lat="40.6087783" lon="15.1334467"><ele>97.0</ele><time>2026-04-25T06:43:47.884Z</time></trkpt><trkpt lat="40.6088517" lon="15.1335433"><ele>97.0</ele><time>2026-04-25T06:43:48.883Z</time></trkpt><trkpt lat="40.608945" lon="15.1336167"><ele>97.0</ele><time>2026-04-25T06:43:49.883Z</time></trkpt><trkpt lat="40.6090567" lon="15.13367"><ele>97.0</ele><time>2026-04-25T06:43:50.884Z</time></trkpt><trkpt lat="40.609175" lon="15.1337167"><ele>97.0</ele><time>2026-04-25T06:43:51.883Z</time></trkpt><trkpt lat="40.60929" lon="15.1337633"><ele>97.0</ele><time>2026-04-25T06:43:52.883Z</time></trkpt><trkpt lat="40.60941" lon="15.133815"><ele>97.0</ele><time>2026-04-25T06:43:53.884Z</time></trkpt><trkpt lat="40.609535" lon="15.1338617"><ele>98.0</ele><time>2026-04-25T06:43:54.883Z</time></trkpt><trkpt lat="40.609665" lon="15.1338917"><ele>99.0</ele><time>2026-04-25T06:43:55.883Z</time></trkpt><trkpt lat="40.6098" lon="15.1338967"><ele>100.0</ele><time>2026-04-25T06:43:56.884Z</time></trkpt><trkpt lat="40.6099333" lon="15.133895"><ele>101.0</ele><time>2026-04-25T06:43:57.883Z</time></trkpt><trkpt lat="40.6100583" lon="15.1339067"><ele>101.0</ele><time>2026-04-25T06:43:58.884Z</time></trkpt><trkpt lat="40.6101883" lon="15.1339317"><ele>101.0</ele><time>2026-04-25T06:43:59.884Z</time></trkpt><trkpt lat="40.6103167" lon="15.1339817"><ele>101.0</ele><time>2026-04-25T06:44:00.884Z</time></trkpt><trkpt lat="40.6104367" lon="15.134065"><ele>101.0</ele><time>2026-04-25T06:44:01.884Z</time></trkpt><trkpt lat="40.6105417" lon="15.1341883"><ele>99.25</ele><time>2026-04-25T06:44:02.883Z</time></trkpt><trkpt lat="40.6106283" lon="15.1343333"><ele>97.5</ele><time>2026-04-25T06:44:03.884Z</time></trkpt><trkpt lat="40.610705" lon="15.13449"><ele>95.75</ele><time>2026-04-25T06:44:04.884Z</time></trkpt><trkpt lat="40.6107783" lon="15.1346467"><ele>94.0</ele><time>2026-04-25T06:44:05.884Z</time></trkpt><trkpt lat="40.6108567" lon="15.1348033"><ele>91.25</ele><time>2026-04-25T06:44:06.884Z</time></trkpt><trkpt lat="40.61095" lon="15.1349367"><ele>88.5</ele><time>2026-04-25T06:44:07.883Z</time></trkpt><trkpt lat="40.6110567" lon="15.1350467"><ele>85.75</ele><time>2026-04-25T06:44:08.883Z</time></trkpt><trkpt lat="40.611155" lon="15.1351483"><ele>83.0</ele><time>2026-04-25T06:44:09.884Z</time></trkpt><trkpt lat="40.611235" lon="15.1352733"><ele>82.5</ele><time>2026-04-25T06:44:10.883Z</time></trkpt><trkpt lat="40.61129" lon="15.1354333"><ele>82.0</ele><time>2026-04-25T06:44:11.884Z</time></trkpt><trkpt lat="40.6113333" lon="15.1356267"><ele>81.5</ele><time>2026-04-25T06:44:12.883Z</time></trkpt><trkpt lat="40.61139" lon="15.135825"><ele>81.0</ele><time>2026-04-25T06:44:13.884Z</time></trkpt><trkpt lat="40.6114617" lon="15.1360217"><ele>79.0</ele><time>2026-04-25T06:44:14.883Z</time></trkpt><trkpt lat="40.6115417" lon="15.136225"><ele>77.0</ele><time>2026-04-25T06:44:15.883Z</time></trkpt><trkpt lat="40.61163" lon="15.13642"><ele>75.0</ele><time>2026-04-25T06:44:16.884Z</time></trkpt><trkpt lat="40.6117" lon="15.1366233"><ele>73.0</ele><time>2026-04-25T06:44:17.883Z</time></trkpt><trkpt lat="40.6117617" lon="15.1368233"><ele>71.0</ele><time>2026-04-25T06:44:18.884Z</time></trkpt><trkpt lat="40.6118133" lon="15.1370267"><ele>69.0</ele><time>2026-04-25T06:44:19.884Z</time></trkpt><trkpt lat="40.6118633" lon="15.13721"><ele>69.0</ele><time>2026-04-25T06:44:20.884Z</time></trkpt><trkpt lat="40.611915" lon="15.137375"><ele>69.0</ele><time>2026-04-25T06:44:21.883Z</time></trkpt><trkpt lat="40.61197" lon="15.1375283"><ele>69.0</ele><time>2026-04-25T06:44:22.883Z</time></trkpt><trkpt lat="40.6120217" lon="15.13767"><ele>69.0</ele><time>2026-04-25T06:44:23.884Z</time></trkpt><trkpt lat="40.612075" lon="15.1378083"><ele>70.75</ele><time>2026-04-25T06:44:24.883Z</time></trkpt><trkpt lat="40.6121333" lon="15.1379467"><ele>72.5</ele><time>2026-04-25T06:44:25.884Z</time></trkpt><trkpt lat="40.6121867" lon="15.1380833"><ele>74.25</ele><time>2026-04-25T06:44:26.884Z</time></trkpt><trkpt lat="40.612245" lon="15.13823"><ele>76.0</ele><time>2026-04-25T06:44:27.884Z</time></trkpt><trkpt lat="40.61231" lon="15.13837"><ele>76.0</ele><time>2026-04-25T06:44:28.884Z</time></trkpt><trkpt lat="40.6123767" lon="15.1385133"><ele>76.0</ele><time>2026-04-25T06:44:29.884Z</time></trkpt><trkpt lat="40.612445" lon="15.1386633"><ele>76.0</ele><time>2026-04-25T06:44:30.883Z</time></trkpt><trkpt lat="40.61251" lon="15.1388117"><ele>76.0</ele><time>2026-04-25T06:44:31.884Z</time></trkpt><trkpt lat="40.612575" lon="15.1389617"><ele>75.0</ele><time>2026-04-25T06:44:32.883Z</time></trkpt><trkpt lat="40.6126383" lon="15.1391117"><ele>74.0</ele><time>2026-04-25T06:44:33.884Z</time></trkpt><trkpt lat="40.6127067" lon="15.1392517"><ele>73.0</ele><time>2026-04-25T06:44:34.884Z</time></trkpt><trkpt lat="40.612775" lon="15.1393917"><ele>72.0</ele><time>2026-04-25T06:44:35.883Z</time></trkpt><trkpt lat="40.6128367" lon="15.139515"><ele>74.0</ele><time>2026-04-25T06:44:36.884Z</time></trkpt><trkpt lat="40.6128883" lon="15.1396317"><ele>76.0</ele><time>2026-04-25T06:44:37.884Z</time></trkpt><trkpt lat="40.612935" lon="15.1397483"><ele>78.0</ele><time>2026-04-25T06:44:38.884Z</time></trkpt><trkpt lat="40.6129817" lon="15.139865"><ele>80.0</ele><time>2026-04-25T06:44:39.883Z</time></trkpt><trkpt lat="40.6130233" lon="15.1399767"><ele>82.0</ele><time>2026-04-25T06:44:40.884Z</time></trkpt><trkpt lat="40.6130667" lon="15.1400883"><ele>82.0</ele><time>2026-04-25T06:44:41.884Z</time></trkpt><trkpt lat="40.6131067" lon="15.1402067"><ele>82.0</ele><time>2026-04-25T06:44:42.884Z</time></trkpt><trkpt lat="40.6131483" lon="15.140325"><ele>82.0</ele><time>2026-04-25T06:44:43.884Z</time></trkpt><trkpt lat="40.6131883" lon="15.140445"><ele>82.0</ele><time>2026-04-25T06:44:44.883Z</time></trkpt><trkpt lat="40.6132267" lon="15.14057"><ele>82.0</ele><time>2026-04-25T06:44:45.883Z</time></trkpt><trkpt lat="40.6132617" lon="15.1407133"><ele>80.25</ele><time>2026-04-25T06:44:46.884Z</time></trkpt><trkpt lat="40.6133" lon="15.1408833"><ele>78.5</ele><time>2026-04-25T06:44:47.883Z</time></trkpt><trkpt lat="40.6133367" lon="15.141065"><ele>76.75</ele><time>2026-04-25T06:44:48.883Z</time></trkpt><trkpt lat="40.6133783" lon="15.1412533"><ele>75.0</ele><time>2026-04-25T06:44:49.884Z</time></trkpt><trkpt lat="40.6134283" lon="15.1414533"><ele>72.66666666666667</ele><time>2026-04-25T06:44:50.884Z</time></trkpt><trkpt lat="40.6134717" lon="15.1416567"><ele>70.33333333333334</ele><time>2026-04-25T06:44:51.883Z</time></trkpt><trkpt lat="40.61351" lon="15.141865"><ele>68.0</ele><time>2026-04-25T06:44:52.884Z</time></trkpt><trkpt lat="40.6135467" lon="15.142075"><ele>68.0</ele><time>2026-04-25T06:44:53.884Z</time></trkpt><trkpt lat="40.613585" lon="15.14228"><ele>68.0</ele><time>2026-04-25T06:44:54.884Z</time></trkpt><trkpt lat="40.61363" lon="15.1424917"><ele>68.0</ele><time>2026-04-25T06:44:55.884Z</time></trkpt><trkpt lat="40.6136733" lon="15.1426983"><ele>69.0</ele><time>2026-04-25T06:44:56.883Z</time></trkpt><trkpt lat="40.613715" lon="15.1429067"><ele>70.0</ele><time>2026-04-25T06:44:57.884Z</time></trkpt><trkpt lat="40.6137567" lon="15.1431083"><ele>71.0</ele><time>2026-04-25T06:44:58.883Z</time></trkpt><trkpt lat="40.6138" lon="15.1433067"><ele>71.0</ele><time>2026-04-25T06:44:59.884Z</time></trkpt><trkpt lat="40.6138383" lon="15.14349"><ele>71.0</ele><time>2026-04-25T06:45:00.883Z</time></trkpt><trkpt lat="40.6138767" lon="15.1436733"><ele>71.0</ele><time>2026-04-25T06:45:01.883Z</time></trkpt><trkpt lat="40.6139117" lon="15.14385"><ele>71.0</ele><time>2026-04-25T06:45:02.884Z</time></trkpt><trkpt lat="40.613945" lon="15.1440167"><ele>70.0</ele><time>2026-04-25T06:45:03.884Z</time></trkpt><trkpt lat="40.6139717" lon="15.1441917"><ele>69.0</ele><time>2026-04-25T06:45:04.883Z</time></trkpt><trkpt lat="40.61398" lon="15.1443667"><ele>68.0</ele><time>2026-04-25T06:45:05.884Z</time></trkpt><trkpt lat="40.6139683" lon="15.1445517"><ele>67.0</ele><time>2026-04-25T06:45:06.883Z</time></trkpt><trkpt lat="40.6139483" lon="15.144755"><ele>67.0</ele><time>2026-04-25T06:45:07.884Z</time></trkpt><trkpt lat="40.6139217" lon="15.144975"><ele>67.0</ele><time>2026-04-25T06:45:08.884Z</time></trkpt><trkpt lat="40.6139" lon="15.1451867"><ele>67.0</ele><time>2026-04-25T06:45:09.884Z</time></trkpt><trkpt lat="40.613875" lon="15.1454083"><ele>67.0</ele><time>2026-04-25T06:45:10.884Z</time></trkpt><trkpt lat="40.61385" lon="15.1456233"><ele>67.0</ele><time>2026-04-25T06:45:11.883Z</time></trkpt><trkpt lat="40.613825" lon="15.145835"><ele>67.0</ele><time>2026-04-25T06:45:12.884Z</time></trkpt><trkpt lat="40.6138017" lon="15.1460433"><ele>68.0</ele><time>2026-04-25T06:45:13.884Z</time></trkpt><trkpt lat="40.61378" lon="15.1462533"><ele>69.0</ele><time>2026-04-25T06:45:14.883Z</time></trkpt><trkpt lat="40.6137617" lon="15.146465"><ele>70.0</ele><time>2026-04-25T06:45:15.884Z</time></trkpt><trkpt lat="40.61374" lon="15.1466733"><ele>72.0</ele><time>2026-04-25T06:45:16.884Z</time></trkpt><trkpt lat="40.61372" lon="15.1468817"><ele>74.0</ele><time>2026-04-25T06:45:17.884Z</time></trkpt><trkpt lat="40.6136983" lon="15.1470917"><ele>76.0</ele><time>2026-04-25T06:45:18.884Z</time></trkpt><trkpt lat="40.6136817" lon="15.1473133"><ele>77.33333333333333</ele><time>2026-04-25T06:45:19.883Z</time></trkpt><trkpt lat="40.6136633" lon="15.1475417"><ele>78.66666666666667</ele><time>2026-04-25T06:45:20.884Z</time></trkpt><trkpt lat="40.6136433" lon="15.1477783"><ele>80.0</ele><time>2026-04-25T06:45:21.884Z</time></trkpt><trkpt lat="40.613635" lon="15.148025"><ele>74.66666666666667</ele><time>2026-04-25T06:45:22.884Z</time></trkpt><trkpt lat="40.613635" lon="15.148265"><ele>69.33333333333333</ele><time>2026-04-25T06:45:23.883Z</time></trkpt><trkpt lat="40.61364" lon="15.1484967"><ele>64.0</ele><time>2026-04-25T06:45:24.883Z</time></trkpt><trkpt lat="40.6136517" lon="15.1487267"><ele>68.0</ele><time>2026-04-25T06:45:25.884Z</time></trkpt><trkpt lat="40.6136633" lon="15.1489533"><ele>72.0</ele><time>2026-04-25T06:45:26.883Z</time></trkpt><trkpt lat="40.6136783" lon="15.1491767"><ele>76.0</ele><time>2026-04-25T06:45:27.883Z</time></trkpt><trkpt lat="40.6136983" lon="15.149395"><ele>76.0</ele><time>2026-04-25T06:45:28.884Z</time></trkpt><trkpt lat="40.6137233" lon="15.14961"><ele>76.0</ele><time>2026-04-25T06:45:29.883Z</time></trkpt><trkpt lat="40.61375" lon="15.1498283"><ele>76.0</ele><time>2026-04-25T06:45:30.884Z</time></trkpt><trkpt lat="40.613775" lon="15.1500467"><ele>75.66666666666666</ele><time>2026-04-25T06:45:31.883Z</time></trkpt><trkpt lat="40.613805" lon="15.1502617"><ele>75.33333333333333</ele><time>2026-04-25T06:45:32.884Z</time></trkpt><trkpt lat="40.6138367" lon="15.15048"><ele>75.0</ele><time>2026-04-25T06:45:33.884Z</time></trkpt><trkpt lat="40.6138767" lon="15.15069"><ele>75.0</ele><time>2026-04-25T06:45:34.883Z</time></trkpt><trkpt lat="40.6139217" lon="15.1508867"><ele>75.0</ele><time>2026-04-25T06:45:35.884Z</time></trkpt><trkpt lat="40.61397" lon="15.15107"><ele>75.0</ele><time>2026-04-25T06:45:36.883Z</time></trkpt><trkpt lat="40.614025" lon="15.1512367"><ele>75.0</ele><time>2026-04-25T06:45:37.884Z</time></trkpt><trkpt lat="40.6140833" lon="15.1513967"><ele>73.4</ele><time>2026-04-25T06:45:38.883Z</time></trkpt><trkpt lat="40.6141417" lon="15.1515417"><ele>71.8</ele><time>2026-04-25T06:45:39.884Z</time></trkpt><trkpt lat="40.6141933" lon="15.1516767"><ele>70.2</ele><time>2026-04-25T06:45:40.884Z</time></trkpt><trkpt lat="40.6142367" lon="15.151805"><ele>68.6</ele><time>2026-04-25T06:45:41.883Z</time></trkpt><trkpt lat="40.6142683" lon="15.1519217"><ele>67.0</ele><time>2026-04-25T06:45:42.883Z</time></trkpt><trkpt lat="40.614295" lon="15.15202"><ele>67.0</ele><time>2026-04-25T06:45:43.883Z</time></trkpt><trkpt lat="40.614315" lon="15.1521017"><ele>67.0</ele><time>2026-04-25T06:45:44.884Z</time></trkpt><trkpt lat="40.6143883" lon="15.1521817"><ele>67.0</ele><time>2026-04-25T06:45:46.884Z</time></trkpt><trkpt lat="40.6144933" lon="15.1522183"><ele>67.0</ele><time>2026-04-25T06:45:48.884Z</time></trkpt><trkpt lat="40.6145583" lon="15.1522283"><ele>67.0</ele><time>2026-04-25T06:45:49.883Z</time></trkpt><trkpt lat="40.61463" lon="15.1522333"><ele>67.0</ele><time>2026-04-25T06:45:50.884Z</time></trkpt><trkpt lat="40.6147117" lon="15.1522367"><ele>69.0</ele><time>2026-04-25T06:45:51.884Z</time></trkpt><trkpt lat="40.6148033" lon="15.1522317"><ele>71.0</ele><time>2026-04-25T06:45:52.884Z</time></trkpt><trkpt lat="40.6148867" lon="15.15223"><ele>73.0</ele><time>2026-04-25T06:45:53.884Z</time></trkpt><trkpt lat="40.614955" lon="15.1522483"><ele>75.0</ele><time>2026-04-25T06:45:54.883Z</time></trkpt><trkpt lat="40.61502" lon="15.152305"><ele>77.0</ele><time>2026-04-25T06:45:55.883Z</time></trkpt><trkpt lat="40.61509" lon="15.1523783"><ele>79.0</ele><time>2026-04-25T06:45:56.883Z</time></trkpt><trkpt lat="40.615165" lon="15.1524583"><ele>79.0</ele><time>2026-04-25T06:45:57.884Z</time></trkpt><trkpt lat="40.6152417" lon="15.1525283"><ele>79.0</ele><time>2026-04-25T06:45:58.884Z</time></trkpt><trkpt lat="40.615315" lon="15.152585"><ele>79.0</ele><time>2026-04-25T06:45:59.884Z</time></trkpt><trkpt lat="40.6153783" lon="15.15263"><ele>79.0</ele><time>2026-04-25T06:46:00.884Z</time></trkpt><trkpt lat="40.6154633" lon="15.15261"><ele>79.0</ele><time>2026-04-25T06:46:02.883Z</time></trkpt><trkpt lat="40.6154717" lon="15.152485"><ele>79.0</ele><time>2026-04-25T06:46:04.883Z</time></trkpt><trkpt lat="40.6154233" lon="15.152325"><ele>84.4</ele><time>2026-04-25T06:46:06.883Z</time></trkpt><trkpt lat="40.6154" lon="15.152245"><ele>89.80000000000001</ele><time>2026-04-25T06:46:07.883Z</time></trkpt><trkpt lat="40.6154" lon="15.15211"><ele>95.19999999999999</ele><time>2026-04-25T06:46:09.883Z</time></trkpt><trkpt lat="40.615485" lon="15.1521517"><ele>100.6</ele><time>2026-04-25T06:46:11.884Z</time></trkpt><trkpt lat="40.6155583" lon="15.152285"><ele>106.0</ele><time>2026-04-25T06:46:13.883Z</time></trkpt><trkpt lat="40.6156217" lon="15.1523983"><ele>107.00000000000001</ele><time>2026-04-25T06:46:15.884Z</time></trkpt><trkpt lat="40.6156817" lon="15.1523667"><ele>108.0</ele><time>2026-04-25T06:46:18.884Z</time></trkpt><trkpt lat="40.6156517" lon="15.1522467"><ele>109.0</ele><time>2026-04-25T06:46:20.884Z</time></trkpt><trkpt lat="40.6156217" lon="15.15217"><ele>110.0</ele><time>2026-04-25T06:46:21.884Z</time></trkpt><trkpt lat="40.615585" lon="15.1520867"><ele>111.00000000000001</ele><time>2026-04-25T06:46:22.883Z</time></trkpt><trkpt lat="40.615555" lon="15.1519917"><ele>112.0</ele><time>2026-04-25T06:46:23.884Z</time></trkpt><trkpt lat="40.6155433" lon="15.1518933"><ele>112.00000000000001</ele><time>2026-04-25T06:46:24.884Z</time></trkpt><trkpt lat="40.61554" lon="15.1517833"><ele>112.0</ele><time>2026-04-25T06:46:25.884Z</time></trkpt><trkpt lat="40.615545" lon="15.1516633"><ele>112.0</ele><time>2026-04-25T06:46:26.883Z</time></trkpt><trkpt lat="40.6155417" lon="15.15155"><ele>112.0</ele><time>2026-04-25T06:46:27.883Z</time></trkpt><trkpt lat="40.6155317" lon="15.1514367"><ele>112.00000000000001</ele><time>2026-04-25T06:46:28.883Z</time></trkpt><trkpt lat="40.6155217" lon="15.151325"><ele>112.0</ele><time>2026-04-25T06:46:29.884Z</time></trkpt><trkpt lat="40.6155217" lon="15.1512283"><ele>113.25</ele><time>2026-04-25T06:46:30.884Z</time></trkpt><trkpt lat="40.615575" lon="15.151085"><ele>114.5</ele><time>2026-04-25T06:46:32.884Z</time></trkpt><trkpt lat="40.61568" lon="15.1510117"><ele>115.75</ele><time>2026-04-25T06:46:34.884Z</time></trkpt><trkpt lat="40.6157883" lon="15.1509433"><ele>117.0</ele><time>2026-04-25T06:46:36.884Z</time></trkpt><trkpt lat="40.61586" lon="15.1508267"><ele>117.0</ele><time>2026-04-25T06:46:38.883Z</time></trkpt><trkpt lat="40.6158817" lon="15.1507467"><ele>117.00000000000001</ele><time>2026-04-25T06:46:39.884Z</time></trkpt><trkpt lat="40.615895" lon="15.1506583"><ele>117.0</ele><time>2026-04-25T06:46:40.884Z</time></trkpt><trkpt lat="40.6159183" lon="15.1505767"><ele>117.0</ele><time>2026-04-25T06:46:41.883Z</time></trkpt><trkpt lat="40.6159583" lon="15.1504983"><ele>117.00000000000001</ele><time>2026-04-25T06:46:42.883Z</time></trkpt><trkpt lat="40.61601" lon="15.1504467"><ele>117.0</ele><time>2026-04-25T06:46:43.883Z</time></trkpt><trkpt lat="40.6160667" lon="15.150405"><ele>117.0</ele><time>2026-04-25T06:46:44.883Z</time></trkpt><trkpt lat="40.616125" lon="15.15037"><ele>119.0</ele><time>2026-04-25T06:46:45.883Z</time></trkpt><trkpt lat="40.6162333" lon="15.1503033"><ele>120.99999999999999</ele><time>2026-04-25T06:46:47.884Z</time></trkpt><trkpt lat="40.6163333" lon="15.150245"><ele>122.99999999999999</ele><time>2026-04-25T06:46:49.883Z</time></trkpt><trkpt lat="40.616425" lon="15.150185"><ele>125.0</ele><time>2026-04-25T06:46:51.883Z</time></trkpt><trkpt lat="40.6165183" lon="15.150125"><ele>127.0</ele><time>2026-04-25T06:46:53.883Z</time></trkpt><trkpt lat="40.616585" lon="15.15008"><ele>127.0</ele><time>2026-04-25T06:46:54.883Z</time></trkpt><trkpt lat="40.616665" lon="15.1500267"><ele>126.99999999999999</ele><time>2026-04-25T06:46:55.883Z</time></trkpt><trkpt lat="40.6167517" lon="15.1499667"><ele>126.99999999999999</ele><time>2026-04-25T06:46:56.884Z</time></trkpt><trkpt lat="40.6168383" lon="15.1499083"><ele>127.0</ele><time>2026-04-25T06:46:57.883Z</time></trkpt><trkpt lat="40.616925" lon="15.1498517"><ele>127.0</ele><time>2026-04-25T06:46:58.883Z</time></trkpt><trkpt lat="40.6170117" lon="15.1497967"><ele>128.0</ele><time>2026-04-25T06:46:59.884Z</time></trkpt><trkpt lat="40.6171017" lon="15.1497383"><ele>129.0</ele><time>2026-04-25T06:47:00.883Z</time></trkpt><trkpt lat="40.617185" lon="15.14968"><ele>130.0</ele><time>2026-04-25T06:47:01.884Z</time></trkpt><trkpt lat="40.617275" lon="15.149625"><ele>131.0</ele><time>2026-04-25T06:47:02.884Z</time></trkpt><trkpt lat="40.617365" lon="15.1495733"><ele>132.0</ele><time>2026-04-25T06:47:03.884Z</time></trkpt><trkpt lat="40.61746" lon="15.149515"><ele>132.0</ele><time>2026-04-25T06:47:04.883Z</time></trkpt><trkpt lat="40.6175533" lon="15.1494567"><ele>132.0</ele><time>2026-04-25T06:47:05.884Z</time></trkpt><trkpt lat="40.6176467" lon="15.1493917"><ele>132.0</ele><time>2026-04-25T06:47:06.883Z</time></trkpt><trkpt lat="40.6177383" lon="15.149335"><ele>132.0</ele><time>2026-04-25T06:47:07.884Z</time></trkpt><trkpt lat="40.6178283" lon="15.1492817"><ele>132.0</ele><time>2026-04-25T06:47:08.883Z</time></trkpt><trkpt lat="40.6179117" lon="15.14922"><ele>133.0</ele><time>2026-04-25T06:47:09.883Z</time></trkpt><trkpt lat="40.6179817" lon="15.1491633"><ele>134.0</ele><time>2026-04-25T06:47:10.883Z</time></trkpt><trkpt lat="40.6180483" lon="15.14912"><ele>135.0</ele><time>2026-04-25T06:47:11.884Z</time></trkpt><trkpt lat="40.61815" lon="15.1491167"><ele>136.0</ele><time>2026-04-25T06:47:13.883Z</time></trkpt><trkpt lat="40.6182017" lon="15.1492217"><ele>137.0</ele><time>2026-04-25T06:47:15.883Z</time></trkpt><trkpt lat="40.6182167" lon="15.14931"><ele>138.0</ele><time>2026-04-25T06:47:16.884Z</time></trkpt><trkpt lat="40.618235" lon="15.1494167"><ele>138.0</ele><time>2026-04-25T06:47:17.883Z</time></trkpt><trkpt lat="40.6182667" lon="15.14953"><ele>138.0</ele><time>2026-04-25T06:47:18.884Z</time></trkpt><trkpt lat="40.6182933" lon="15.1496483"><ele>138.0</ele><time>2026-04-25T06:47:19.883Z</time></trkpt><trkpt lat="40.6183233" lon="15.1497667"><ele>138.0</ele><time>2026-04-25T06:47:20.884Z</time></trkpt><trkpt lat="40.618355" lon="15.1498867"><ele>138.0</ele><time>2026-04-25T06:47:21.884Z</time></trkpt><trkpt lat="40.6183833" lon="15.1500133"><ele>138.5</ele><time>2026-04-25T06:47:22.883Z</time></trkpt><trkpt lat="40.6184167" lon="15.1501383"><ele>139.0</ele><time>2026-04-25T06:47:23.884Z</time></trkpt><trkpt lat="40.6184467" lon="15.1502617"><ele>139.5</ele><time>2026-04-25T06:47:24.883Z</time></trkpt><trkpt lat="40.6184783" lon="15.15037"><ele>140.0</ele><time>2026-04-25T06:47:25.883Z</time></trkpt><trkpt lat="40.6185183" lon="15.1504617"><ele>140.5</ele><time>2026-04-25T06:47:26.884Z</time></trkpt><trkpt lat="40.618575" lon="15.1505133"><ele>141.0</ele><time>2026-04-25T06:47:27.884Z</time></trkpt><trkpt lat="40.6187033" lon="15.1505317"><ele>141.83333333333334</ele><time>2026-04-25T06:47:29.884Z</time></trkpt><trkpt lat="40.61878" lon="15.1505267"><ele>142.66666666666666</ele><time>2026-04-25T06:47:30.884Z</time></trkpt><trkpt lat="40.6188567" lon="15.1505267"><ele>143.5</ele><time>2026-04-25T06:47:31.884Z</time></trkpt><trkpt lat="40.61894" lon="15.1505383"><ele>144.33333333333331</ele><time>2026-04-25T06:47:32.883Z</time></trkpt><trkpt lat="40.61903" lon="15.15055"><ele>145.16666666666666</ele><time>2026-04-25T06:47:33.884Z</time></trkpt><trkpt lat="40.61913" lon="15.1505567"><ele>146.0</ele><time>2026-04-25T06:47:34.884Z</time></trkpt><trkpt lat="40.6192367" lon="15.1505667"><ele>146.0</ele><time>2026-04-25T06:47:35.883Z</time></trkpt><trkpt lat="40.6193433" lon="15.1505683"><ele>146.0</ele><time>2026-04-25T06:47:36.884Z</time></trkpt><trkpt lat="40.6194583" lon="15.150575"><ele>146.0</ele><time>2026-04-25T06:47:37.883Z</time></trkpt><trkpt lat="40.6195767" lon="15.1505783"><ele>146.0</ele><time>2026-04-25T06:47:38.884Z</time></trkpt><trkpt lat="40.6196933" lon="15.1505783"><ele>147.0</ele><time>2026-04-25T06:47:39.883Z</time></trkpt><trkpt lat="40.6198083" lon="15.1505867"><ele>148.0</ele><time>2026-04-25T06:47:40.883Z</time></trkpt><trkpt lat="40.6199167" lon="15.1505867"><ele>149.0</ele><time>2026-04-25T06:47:41.884Z</time></trkpt><trkpt lat="40.620025" lon="15.150585"><ele>150.0</ele><time>2026-04-25T06:47:42.884Z</time></trkpt><trkpt lat="40.6201233" lon="15.150575"><ele>151.0</ele><time>2026-04-25T06:47:43.884Z</time></trkpt><trkpt lat="40.6202117" lon="15.1505333"><ele>151.0</ele><time>2026-04-25T06:47:44.883Z</time></trkpt><trkpt lat="40.6202983" lon="15.1504617"><ele>151.0</ele><time>2026-04-25T06:47:45.884Z</time></trkpt><trkpt lat="40.6203717" lon="15.1503733"><ele>151.0</ele><time>2026-04-25T06:47:46.883Z</time></trkpt><trkpt lat="40.6204467" lon="15.1502733"><ele>151.0</ele><time>2026-04-25T06:47:47.884Z</time></trkpt><trkpt lat="40.6205233" lon="15.1501767"><ele>151.0</ele><time>2026-04-25T06:47:48.884Z</time></trkpt><trkpt lat="40.620605" lon="15.15008"><ele>152.0</ele><time>2026-04-25T06:47:49.884Z</time></trkpt><trkpt lat="40.6206833" lon="15.1499817"><ele>153.0</ele><time>2026-04-25T06:47:50.883Z</time></trkpt><trkpt lat="40.6207667" lon="15.1498833"><ele>154.0</ele><time>2026-04-25T06:47:51.883Z</time></trkpt><trkpt lat="40.6208517" lon="15.1497933"><ele>155.0</ele><time>2026-04-25T06:47:52.883Z</time></trkpt><trkpt lat="40.6209333" lon="15.1497033"><ele>156.0</ele><time>2026-04-25T06:47:53.884Z</time></trkpt><trkpt lat="40.6210117" lon="15.1496233"><ele>156.0</ele><time>2026-04-25T06:47:54.883Z</time></trkpt><trkpt lat="40.6210883" lon="15.14956"><ele>156.0</ele><time>2026-04-25T06:47:55.883Z</time></trkpt><trkpt lat="40.6211733" lon="15.14951"><ele>156.0</ele><time>2026-04-25T06:47:56.883Z</time></trkpt><trkpt lat="40.6212667" lon="15.14946"><ele>156.0</ele><time>2026-04-25T06:47:57.883Z</time></trkpt><trkpt lat="40.6213683" lon="15.14942"><ele>156.0</ele><time>2026-04-25T06:47:58.883Z</time></trkpt><trkpt lat="40.621475" lon="15.1493867"><ele>157.0</ele><time>2026-04-25T06:47:59.883Z</time></trkpt><trkpt lat="40.6215817" lon="15.1493483"><ele>158.0</ele><time>2026-04-25T06:48:00.883Z</time></trkpt><trkpt lat="40.6216867" lon="15.14932"><ele>159.0</ele><time>2026-04-25T06:48:01.883Z</time></trkpt><trkpt lat="40.62179" lon="15.1492867"><ele>160.0</ele><time>2026-04-25T06:48:02.883Z</time></trkpt><trkpt lat="40.621895" lon="15.149255"><ele>161.0</ele><time>2026-04-25T06:48:03.884Z</time></trkpt><trkpt lat="40.622" lon="15.1492133"><ele>162.20000000000002</ele><time>2026-04-25T06:48:04.884Z</time></trkpt><trkpt lat="40.622105" lon="15.14918"><ele>163.4</ele><time>2026-04-25T06:48:05.884Z</time></trkpt><trkpt lat="40.6222117" lon="15.149145"><ele>164.6</ele><time>2026-04-25T06:48:06.884Z</time></trkpt><trkpt lat="40.6223117" lon="15.1491117"><ele>165.8</ele><time>2026-04-25T06:48:07.883Z</time></trkpt><trkpt lat="40.622405" lon="15.149085"><ele>167.0</ele><time>2026-04-25T06:48:08.883Z</time></trkpt><trkpt lat="40.6224783" lon="15.1490633"><ele>166.83333333333331</ele><time>2026-04-25T06:48:09.884Z</time></trkpt><trkpt lat="40.6225617" lon="15.14903"><ele>166.66666666666666</ele><time>2026-04-25T06:48:11.884Z</time></trkpt><trkpt lat="40.62263" lon="15.1489383"><ele>166.5</ele><time>2026-04-25T06:48:13.883Z</time></trkpt><trkpt lat="40.6226683" lon="15.14886"><ele>166.33333333333334</ele><time>2026-04-25T06:48:14.884Z</time></trkpt><trkpt lat="40.62271" lon="15.1487667"><ele>166.16666666666669</ele><time>2026-04-25T06:48:15.884Z</time></trkpt><trkpt lat="40.6227583" lon="15.148665"><ele>166.0</ele><time>2026-04-25T06:48:16.883Z</time></trkpt><trkpt lat="40.6228083" lon="15.14856"><ele>166.60000000000002</ele><time>2026-04-25T06:48:17.884Z</time></trkpt><trkpt lat="40.6228583" lon="15.1484533"><ele>167.2</ele><time>2026-04-25T06:48:18.884Z</time></trkpt><trkpt lat="40.6229133" lon="15.148345"><ele>167.8</ele><time>2026-04-25T06:48:19.883Z</time></trkpt><trkpt lat="40.6229683" lon="15.1482333"><ele>168.39999999999998</ele><time>2026-04-25T06:48:20.883Z</time></trkpt><trkpt lat="40.623025" lon="15.1481133"><ele>169.0</ele><time>2026-04-25T06:48:21.884Z</time></trkpt><trkpt lat="40.6230817" lon="15.1479967"><ele>169.0</ele><time>2026-04-25T06:48:22.883Z</time></trkpt><trkpt lat="40.6231433" lon="15.1478783"><ele>169.0</ele><time>2026-04-25T06:48:23.883Z</time></trkpt><trkpt lat="40.623205" lon="15.14776"><ele>169.0</ele><time>2026-04-25T06:48:24.883Z</time></trkpt><trkpt lat="40.62327" lon="15.1476467"><ele>169.0</ele><time>2026-04-25T06:48:25.884Z</time></trkpt><trkpt lat="40.623335" lon="15.1475433"><ele>169.0</ele><time>2026-04-25T06:48:26.883Z</time></trkpt><trkpt lat="40.6234033" lon="15.14745"><ele>169.0</ele><time>2026-04-25T06:48:27.884Z</time></trkpt><trkpt lat="40.623475" lon="15.1473583"><ele>169.0</ele><time>2026-04-25T06:48:28.883Z</time></trkpt><trkpt lat="40.6235567" lon="15.1472633"><ele>169.0</ele><time>2026-04-25T06:48:29.884Z</time></trkpt><trkpt lat="40.6236367" lon="15.1471683"><ele>169.0</ele><time>2026-04-25T06:48:30.884Z</time></trkpt><trkpt lat="40.62372" lon="15.14708"><ele>169.0</ele><time>2026-04-25T06:48:31.883Z</time></trkpt><trkpt lat="40.6238033" lon="15.1469983"><ele>170.0</ele><time>2026-04-25T06:48:32.883Z</time></trkpt><trkpt lat="40.6238833" lon="15.1469133"><ele>171.0</ele><time>2026-04-25T06:48:33.883Z</time></trkpt><trkpt lat="40.62397" lon="15.1468233"><ele>172.0</ele><time>2026-04-25T06:48:34.883Z</time></trkpt><trkpt lat="40.6240517" lon="15.1467317"><ele>173.0</ele><time>2026-04-25T06:48:35.884Z</time></trkpt><trkpt lat="40.6241367" lon="15.14664"><ele>174.0</ele><time>2026-04-25T06:48:36.883Z</time></trkpt><trkpt lat="40.6242183" lon="15.1465483"><ele>173.79999999999998</ele><time>2026-04-25T06:48:37.884Z</time></trkpt><trkpt lat="40.6243" lon="15.1464583"><ele>173.6</ele><time>2026-04-25T06:48:38.884Z</time></trkpt><trkpt lat="40.6243817" lon="15.146365"><ele>173.4</ele><time>2026-04-25T06:48:39.883Z</time></trkpt><trkpt lat="40.6244617" lon="15.146265"><ele>173.2</ele><time>2026-04-25T06:48:40.884Z</time></trkpt><trkpt lat="40.6245417" lon="15.1461633"><ele>173.0</ele><time>2026-04-25T06:48:41.883Z</time></trkpt><trkpt lat="40.6246267" lon="15.1460633"><ele>172.75</ele><time>2026-04-25T06:48:42.884Z</time></trkpt><trkpt lat="40.62471" lon="15.1459617"><ele>172.5</ele><time>2026-04-25T06:48:43.883Z</time></trkpt><trkpt lat="40.6247967" lon="15.14586"><ele>172.25</ele><time>2026-04-25T06:48:44.883Z</time></trkpt><trkpt lat="40.6248867" lon="15.1457633"><ele>172.0</ele><time>2026-04-25T06:48:45.884Z</time></trkpt><trkpt lat="40.6249717" lon="15.1456683"><ele>172.0</ele><time>2026-04-25T06:48:46.884Z</time></trkpt><trkpt lat="40.62506" lon="15.1455733"><ele>172.0</ele><time>2026-04-25T06:48:47.883Z</time></trkpt><trkpt lat="40.625145" lon="15.1454833"><ele>172.0</ele><time>2026-04-25T06:48:48.884Z</time></trkpt><trkpt lat="40.625225" lon="15.1453833"><ele>172.0</ele><time>2026-04-25T06:48:49.883Z</time></trkpt><trkpt lat="40.6252933" lon="15.145275"><ele>172.0</ele><time>2026-04-25T06:48:50.883Z</time></trkpt><trkpt lat="40.6253517" lon="15.1451667"><ele>172.0</ele><time>2026-04-25T06:48:51.883Z</time></trkpt><trkpt lat="40.6254033" lon="15.1450517"><ele>172.0</ele><time>2026-04-25T06:48:52.883Z</time></trkpt><trkpt lat="40.6254433" lon="15.14493"><ele>172.0</ele><time>2026-04-25T06:48:53.884Z</time></trkpt><trkpt lat="40.62548" lon="15.1448"><ele>172.0</ele><time>2026-04-25T06:48:54.884Z</time></trkpt><trkpt lat="40.6255133" lon="15.1446717"><ele>172.0</ele><time>2026-04-25T06:48:55.884Z</time></trkpt><trkpt lat="40.625545" lon="15.1445333"><ele>172.0</ele><time>2026-04-25T06:48:56.883Z</time></trkpt><trkpt lat="40.62557" lon="15.144405"><ele>172.0</ele><time>2026-04-25T06:48:57.884Z</time></trkpt><trkpt lat="40.6255917" lon="15.144275"><ele>172.0</ele><time>2026-04-25T06:48:58.883Z</time></trkpt><trkpt lat="40.6256117" lon="15.1441467"><ele>172.0</ele><time>2026-04-25T06:48:59.884Z</time></trkpt><trkpt lat="40.6256317" lon="15.1440367"><ele>172.0</ele><time>2026-04-25T06:49:00.884Z</time></trkpt><trkpt lat="40.6256633" lon="15.1439333"><ele>171.33333333333334</ele><time>2026-04-25T06:49:01.883Z</time></trkpt><trkpt lat="40.6256967" lon="15.143835"><ele>170.66666666666669</ele><time>2026-04-25T06:49:02.883Z</time></trkpt><trkpt lat="40.6257283" lon="15.14374"><ele>170.0</ele><time>2026-04-25T06:49:03.884Z</time></trkpt><trkpt lat="40.6257567" lon="15.1436483"><ele>169.33333333333334</ele><time>2026-04-25T06:49:04.884Z</time></trkpt><trkpt lat="40.6257833" lon="15.14356"><ele>168.66666666666666</ele><time>2026-04-25T06:49:05.884Z</time></trkpt><trkpt lat="40.6258083" lon="15.1434567"><ele>168.0</ele><time>2026-04-25T06:49:06.883Z</time></trkpt><trkpt lat="40.6258333" lon="15.143355"><ele>168.0</ele><time>2026-04-25T06:49:07.883Z</time></trkpt><trkpt lat="40.6258633" lon="15.1432533"><ele>168.0</ele><time>2026-04-25T06:49:08.884Z</time></trkpt><trkpt lat="40.625895" lon="15.143155"><ele>168.0</ele><time>2026-04-25T06:49:09.884Z</time></trkpt><trkpt lat="40.62594" lon="15.143065"><ele>168.0</ele><time>2026-04-25T06:49:10.883Z</time></trkpt><trkpt lat="40.626005" lon="15.142995"><ele>168.0</ele><time>2026-04-25T06:49:11.884Z</time></trkpt><trkpt lat="40.626085" lon="15.1429583"><ele>168.0</ele><time>2026-04-25T06:49:12.883Z</time></trkpt><trkpt lat="40.6261733" lon="15.142925"><ele>167.5</ele><time>2026-04-25T06:49:13.884Z</time></trkpt><trkpt lat="40.626265" lon="15.1428883"><ele>167.0</ele><time>2026-04-25T06:49:14.883Z</time></trkpt><trkpt lat="40.626345" lon="15.142835"><ele>166.5</ele><time>2026-04-25T06:49:15.883Z</time></trkpt><trkpt lat="40.6264067" lon="15.1427633"><ele>166.0</ele><time>2026-04-25T06:49:16.884Z</time></trkpt><trkpt lat="40.6264433" lon="15.1426867"><ele>165.5</ele><time>2026-04-25T06:49:17.883Z</time></trkpt><trkpt lat="40.626465" lon="15.1425917"><ele>165.0</ele><time>2026-04-25T06:49:18.884Z</time></trkpt><trkpt lat="40.6264783" lon="15.142485"><ele>166.2</ele><time>2026-04-25T06:49:19.884Z</time></trkpt><trkpt lat="40.6265" lon="15.14237"><ele>167.4</ele><time>2026-04-25T06:49:20.884Z</time></trkpt><trkpt lat="40.62653" lon="15.1422633"><ele>168.60000000000002</ele><time>2026-04-25T06:49:21.884Z</time></trkpt><trkpt lat="40.6265617" lon="15.142155"><ele>169.8</ele><time>2026-04-25T06:49:22.884Z</time></trkpt><trkpt lat="40.6265983" lon="15.1420383"><ele>171.0</ele><time>2026-04-25T06:49:23.883Z</time></trkpt><trkpt lat="40.62664" lon="15.1419317"><ele>171.0</ele><time>2026-04-25T06:49:24.884Z</time></trkpt><trkpt lat="40.6266933" lon="15.1418233"><ele>171.0</ele><time>2026-04-25T06:49:25.883Z</time></trkpt><trkpt lat="40.6267533" lon="15.1417217"><ele>171.0</ele><time>2026-04-25T06:49:26.883Z</time></trkpt><trkpt lat="40.626825" lon="15.1416333"><ele>171.0</ele><time>2026-04-25T06:49:27.884Z</time></trkpt><trkpt lat="40.6269067" lon="15.1415417"><ele>171.0</ele><time>2026-04-25T06:49:28.884Z</time></trkpt><trkpt lat="40.6269917" lon="15.141445"><ele>173.75</ele><time>2026-04-25T06:49:29.884Z</time></trkpt><trkpt lat="40.62707" lon="15.1413333"><ele>176.5</ele><time>2026-04-25T06:49:30.884Z</time></trkpt><trkpt lat="40.6271483" lon="15.1412083"><ele>179.25</ele><time>2026-04-25T06:49:31.884Z</time></trkpt><trkpt lat="40.627225" lon="15.1410867"><ele>182.0</ele><time>2026-04-25T06:49:32.883Z</time></trkpt><trkpt lat="40.6272983" lon="15.1409667"><ele>182.0</ele><time>2026-04-25T06:49:33.883Z</time></trkpt><trkpt lat="40.6273667" lon="15.140845"><ele>182.0</ele><time>2026-04-25T06:49:34.884Z</time></trkpt><trkpt lat="40.6274283" lon="15.140725"><ele>182.0</ele><time>2026-04-25T06:49:35.883Z</time></trkpt><trkpt lat="40.6274917" lon="15.1405933"><ele>182.0</ele><time>2026-04-25T06:49:36.884Z</time></trkpt><trkpt lat="40.627555" lon="15.1404583"><ele>182.25</ele><time>2026-04-25T06:49:37.884Z</time></trkpt><trkpt lat="40.6276233" lon="15.1403283"><ele>182.5</ele><time>2026-04-25T06:49:38.884Z</time></trkpt><trkpt lat="40.627695" lon="15.1402067"><ele>182.75</ele><time>2026-04-25T06:49:39.884Z</time></trkpt><trkpt lat="40.62777" lon="15.14009"><ele>183.0</ele><time>2026-04-25T06:49:40.884Z</time></trkpt><trkpt lat="40.62784" lon="15.13996"><ele>184.75</ele><time>2026-04-25T06:49:41.883Z</time></trkpt><trkpt lat="40.6279133" lon="15.1398383"><ele>186.5</ele><time>2026-04-25T06:49:42.883Z</time></trkpt><trkpt lat="40.627995" lon="15.13972"><ele>188.25</ele><time>2026-04-25T06:49:43.884Z</time></trkpt><trkpt lat="40.6280817" lon="15.1396133"><ele>190.0</ele><time>2026-04-25T06:49:44.884Z</time></trkpt><trkpt lat="40.6281683" lon="15.1395117"><ele>190.0</ele><time>2026-04-25T06:49:45.883Z</time></trkpt><trkpt lat="40.6282483" lon="15.139405"><ele>190.0</ele><time>2026-04-25T06:49:46.884Z</time></trkpt><trkpt lat="40.6283283" lon="15.1393"><ele>190.0</ele><time>2026-04-25T06:49:47.883Z</time></trkpt><trkpt lat="40.6284117" lon="15.139195"><ele>190.0</ele><time>2026-04-25T06:49:48.883Z</time></trkpt><trkpt lat="40.6284967" lon="15.1390933"><ele>189.8</ele><time>2026-04-25T06:49:49.884Z</time></trkpt><trkpt lat="40.6285833" lon="15.139005"><ele>189.6</ele><time>2026-04-25T06:49:50.884Z</time></trkpt><trkpt lat="40.6286733" lon="15.138925"><ele>189.39999999999998</ele><time>2026-04-25T06:49:51.883Z</time></trkpt><trkpt lat="40.6287517" lon="15.1388567"><ele>189.2</ele><time>2026-04-25T06:49:52.884Z</time></trkpt><trkpt lat="40.6288217" lon="15.1387833"><ele>189.0</ele><time>2026-04-25T06:49:53.883Z</time></trkpt><trkpt lat="40.6288767" lon="15.1387267"><ele>189.0</ele><time>2026-04-25T06:49:54.884Z</time></trkpt><trkpt lat="40.6289133" lon="15.1386467"><ele>189.0</ele><time>2026-04-25T06:49:56.884Z</time></trkpt><trkpt lat="40.628805" lon="15.1385917"><ele>189.0</ele><time>2026-04-25T06:49:59.883Z</time></trkpt><trkpt lat="40.6287317" lon="15.1385933"><ele>189.0</ele><time>2026-04-25T06:50:00.884Z</time></trkpt><trkpt lat="40.6286467" lon="15.1385917"><ele>189.0</ele><time>2026-04-25T06:50:01.883Z</time></trkpt><trkpt lat="40.628555" lon="15.138595"><ele>189.0</ele><time>2026-04-25T06:50:02.883Z</time></trkpt><trkpt lat="40.6284667" lon="15.13861"><ele>189.0</ele><time>2026-04-25T06:50:03.883Z</time></trkpt><trkpt lat="40.628375" lon="15.1386133"><ele>189.0</ele><time>2026-04-25T06:50:04.883Z</time></trkpt><trkpt lat="40.628285" lon="15.13862"><ele>189.0</ele><time>2026-04-25T06:50:05.884Z</time></trkpt><trkpt lat="40.6281967" lon="15.1386283"><ele>189.0</ele><time>2026-04-25T06:50:06.884Z</time></trkpt><trkpt lat="40.6281083" lon="15.13863"><ele>189.0</ele><time>2026-04-25T06:50:07.883Z</time></trkpt><trkpt lat="40.6280217" lon="15.1386317"><ele>189.0</ele><time>2026-04-25T06:50:08.883Z</time></trkpt><trkpt lat="40.6279367" lon="15.138645"><ele>189.0</ele><time>2026-04-25T06:50:09.884Z</time></trkpt><trkpt lat="40.6278483" lon="15.1386583"><ele>189.0</ele><time>2026-04-25T06:50:10.882Z</time></trkpt><trkpt lat="40.6277533" lon="15.1386617"><ele>189.0</ele><time>2026-04-25T06:50:11.883Z</time></trkpt><trkpt lat="40.6276533" lon="15.1386617"><ele>189.0</ele><time>2026-04-25T06:50:12.882Z</time></trkpt><trkpt lat="40.6275517" lon="15.1386617"><ele>189.0</ele><time>2026-04-25T06:50:13.882Z</time></trkpt><trkpt lat="40.62745" lon="15.1386567"><ele>188.0</ele><time>2026-04-25T06:50:14.883Z</time></trkpt><trkpt lat="40.6273467" lon="15.138655"><ele>187.0</ele><time>2026-04-25T06:50:15.883Z</time></trkpt><trkpt lat="40.627235" lon="15.1386533"><ele>186.0</ele><time>2026-04-25T06:50:16.883Z</time></trkpt><trkpt lat="40.62713" lon="15.1386583"><ele>185.0</ele><time>2026-04-25T06:50:17.882Z</time></trkpt><trkpt lat="40.6270317" lon="15.138665"><ele>184.0</ele><time>2026-04-25T06:50:18.883Z</time></trkpt><trkpt lat="40.62693" lon="15.1386733"><ele>182.39999999999998</ele><time>2026-04-25T06:50:19.883Z</time></trkpt><trkpt lat="40.6268283" lon="15.1386917"><ele>180.8</ele><time>2026-04-25T06:50:20.883Z</time></trkpt><trkpt lat="40.6267217" lon="15.1387067"><ele>179.2</ele><time>2026-04-25T06:50:21.883Z</time></trkpt><trkpt lat="40.6266167" lon="15.1387283"><ele>177.60000000000002</ele><time>2026-04-25T06:50:22.882Z</time></trkpt><trkpt lat="40.626515" lon="15.1387483"><ele>176.0</ele><time>2026-04-25T06:50:23.883Z</time></trkpt><trkpt lat="40.626405" lon="15.1387517"><ele>176.0</ele><time>2026-04-25T06:50:24.883Z</time></trkpt><trkpt lat="40.6262883" lon="15.138745"><ele>176.0</ele><time>2026-04-25T06:50:25.882Z</time></trkpt><trkpt lat="40.6261733" lon="15.1387383"><ele>176.0</ele><time>2026-04-25T06:50:26.883Z</time></trkpt><trkpt lat="40.6260683" lon="15.1387283"><ele>176.0</ele><time>2026-04-25T06:50:27.883Z</time></trkpt><trkpt lat="40.625965" lon="15.13872"><ele>176.0</ele><time>2026-04-25T06:50:28.882Z</time></trkpt><trkpt lat="40.62586" lon="15.1387017"><ele>174.60000000000002</ele><time>2026-04-25T06:50:29.883Z</time></trkpt><trkpt lat="40.625755" lon="15.1386817"><ele>173.2</ele><time>2026-04-25T06:50:30.883Z</time></trkpt><trkpt lat="40.625645" lon="15.1386617"><ele>171.8</ele><time>2026-04-25T06:50:31.883Z</time></trkpt><trkpt lat="40.625535" lon="15.138645"><ele>170.39999999999998</ele><time>2026-04-25T06:50:32.883Z</time></trkpt><trkpt lat="40.6254217" lon="15.1386317"><ele>169.0</ele><time>2026-04-25T06:50:33.883Z</time></trkpt><trkpt lat="40.6253083" lon="15.1386183"><ele>167.79999999999998</ele><time>2026-04-25T06:50:34.882Z</time></trkpt><trkpt lat="40.6251983" lon="15.1386067"><ele>166.6</ele><time>2026-04-25T06:50:35.882Z</time></trkpt><trkpt lat="40.62509" lon="15.1386017"><ele>165.4</ele><time>2026-04-25T06:50:36.882Z</time></trkpt><trkpt lat="40.6249717" lon="15.1385983"><ele>164.2</ele><time>2026-04-25T06:50:37.883Z</time></trkpt><trkpt lat="40.6248617" lon="15.13859"><ele>163.0</ele><time>2026-04-25T06:50:38.883Z</time></trkpt><trkpt lat="40.62475" lon="15.1385683"><ele>163.0</ele><time>2026-04-25T06:50:39.883Z</time></trkpt><trkpt lat="40.6246433" lon="15.1385283"><ele>163.0</ele><time>2026-04-25T06:50:40.883Z</time></trkpt><trkpt lat="40.6245383" lon="15.13849"><ele>163.0</ele><time>2026-04-25T06:50:41.882Z</time></trkpt><trkpt lat="40.6244317" lon="15.1384517"><ele>163.0</ele><time>2026-04-25T06:50:42.883Z</time></trkpt><trkpt lat="40.624325" lon="15.1384133"><ele>163.0</ele><time>2026-04-25T06:50:43.882Z</time></trkpt><trkpt lat="40.6242183" lon="15.1383783"><ele>162.0</ele><time>2026-04-25T06:50:44.883Z</time></trkpt><trkpt lat="40.6241133" lon="15.1383433"><ele>161.0</ele><time>2026-04-25T06:50:45.882Z</time></trkpt><trkpt lat="40.624015" lon="15.138305"><ele>160.0</ele><time>2026-04-25T06:50:46.883Z</time></trkpt><trkpt lat="40.62392" lon="15.1382733"><ele>159.0</ele><time>2026-04-25T06:50:47.883Z</time></trkpt><trkpt lat="40.6238333" lon="15.1382433"><ele>158.0</ele><time>2026-04-25T06:50:48.882Z</time></trkpt><trkpt lat="40.6237567" lon="15.1382117"><ele>158.0</ele><time>2026-04-25T06:50:49.883Z</time></trkpt><trkpt lat="40.6236917" lon="15.1381933"><ele>158.0</ele><time>2026-04-25T06:50:50.883Z</time></trkpt><trkpt lat="40.6236133" lon="15.138195"><ele>158.0</ele><time>2026-04-25T06:50:52.883Z</time></trkpt><trkpt lat="40.6235617" lon="15.1382567"><ele>158.0</ele><time>2026-04-25T06:50:54.882Z</time></trkpt><trkpt lat="40.62353" lon="15.13833"><ele>158.0</ele><time>2026-04-25T06:50:57.883Z</time></trkpt><trkpt lat="40.6235067" lon="15.1384117"><ele>158.0</ele><time>2026-04-25T06:53:22.883Z</time></trkpt><trkpt lat="40.6234667" lon="15.13857"><ele>157.5</ele><time>2026-04-25T06:53:24.882Z</time></trkpt><trkpt lat="40.6234467" lon="15.1386667"><ele>157.0</ele><time>2026-04-25T06:53:25.883Z</time></trkpt><trkpt lat="40.6234267" lon="15.1387533"><ele>156.5</ele><time>2026-04-25T06:53:26.883Z</time></trkpt><trkpt lat="40.62341" lon="15.1388617"><ele>156.0</ele><time>2026-04-25T06:53:27.883Z</time></trkpt><trkpt lat="40.62339" lon="15.138975"><ele>155.5</ele><time>2026-04-25T06:53:28.882Z</time></trkpt><trkpt lat="40.6233733" lon="15.1390933"><ele>155.0</ele><time>2026-04-25T06:53:29.883Z</time></trkpt><trkpt lat="40.6233533" lon="15.1392167"><ele>155.0</ele><time>2026-04-25T06:53:30.882Z</time></trkpt><trkpt lat="40.6233267" lon="15.1393333"><ele>155.0</ele><time>2026-04-25T06:53:31.883Z</time></trkpt><trkpt lat="40.6233033" lon="15.139445"><ele>155.0</ele><time>2026-04-25T06:53:32.883Z</time></trkpt><trkpt lat="40.6232783" lon="15.1395483"><ele>155.0</ele><time>2026-04-25T06:53:33.882Z</time></trkpt><trkpt lat="40.6232567" lon="15.1396433"><ele>155.0</ele><time>2026-04-25T06:53:34.883Z</time></trkpt><trkpt lat="40.6232333" lon="15.1397283"><ele>155.0</ele><time>2026-04-25T06:53:35.882Z</time></trkpt><trkpt lat="40.6232083" lon="15.139815"><ele>154.4</ele><time>2026-04-25T06:53:36.883Z</time></trkpt><trkpt lat="40.6231883" lon="15.13991"><ele>153.8</ele><time>2026-04-25T06:53:37.882Z</time></trkpt><trkpt lat="40.62317" lon="15.139995"><ele>153.2</ele><time>2026-04-25T06:53:38.882Z</time></trkpt><trkpt lat="40.6231367" lon="15.1401417"><ele>152.6</ele><time>2026-04-25T06:53:40.883Z</time></trkpt><trkpt lat="40.6230867" lon="15.1402817"><ele>152.0</ele><time>2026-04-25T06:53:42.883Z</time></trkpt><trkpt lat="40.6230167" lon="15.140375"><ele>152.0</ele><time>2026-04-25T06:53:44.882Z</time></trkpt><trkpt lat="40.6229283" lon="15.1404633"><ele>152.0</ele><time>2026-04-25T06:53:46.882Z</time></trkpt><trkpt lat="40.6228583" lon="15.140555"><ele>152.0</ele><time>2026-04-25T06:53:48.882Z</time></trkpt><trkpt lat="40.6228267" lon="15.1406867"><ele>152.0</ele><time>2026-04-25T06:53:50.883Z</time></trkpt><trkpt lat="40.6228033" lon="15.1408333"><ele>152.0</ele><time>2026-04-25T06:53:52.883Z</time></trkpt><trkpt lat="40.6227483" lon="15.1409767"><ele>150.42857142857142</ele><time>2026-04-25T06:53:54.882Z</time></trkpt><trkpt lat="40.6227083" lon="15.14105"><ele>148.85714285714286</ele><time>2026-04-25T06:53:55.883Z</time></trkpt><trkpt lat="40.6226617" lon="15.14112"><ele>147.28571428571428</ele><time>2026-04-25T06:53:56.882Z</time></trkpt><trkpt lat="40.6226067" lon="15.1411767"><ele>145.71428571428572</ele><time>2026-04-25T06:53:57.882Z</time></trkpt><trkpt lat="40.6225433" lon="15.1412317"><ele>144.14285714285714</ele><time>2026-04-25T06:53:58.883Z</time></trkpt><trkpt lat="40.62248" lon="15.1412817"><ele>142.57142857142858</ele><time>2026-04-25T06:53:59.883Z</time></trkpt><trkpt lat="40.6224133" lon="15.141345"><ele>141.0</ele><time>2026-04-25T06:54:00.883Z</time></trkpt><trkpt lat="40.6223433" lon="15.1413983"><ele>141.0</ele><time>2026-04-25T06:54:01.883Z</time></trkpt><trkpt lat="40.62227" lon="15.141445"><ele>141.0</ele><time>2026-04-25T06:54:02.883Z</time></trkpt><trkpt lat="40.622195" lon="15.1414717"><ele>141.0</ele><time>2026-04-25T06:54:03.882Z</time></trkpt><trkpt lat="40.6221167" lon="15.1414983"><ele>141.0</ele><time>2026-04-25T06:54:04.883Z</time></trkpt><trkpt lat="40.622035" lon="15.1415233"><ele>141.0</ele><time>2026-04-25T06:54:05.883Z</time></trkpt><trkpt lat="40.621955" lon="15.1415367"><ele>141.0</ele><time>2026-04-25T06:54:06.883Z</time></trkpt><trkpt lat="40.6218833" lon="15.141555"><ele>141.66666666666666</ele><time>2026-04-25T06:54:07.883Z</time></trkpt><trkpt lat="40.6217867" lon="15.1416"><ele>142.33333333333334</ele><time>2026-04-25T06:54:09.882Z</time></trkpt><trkpt lat="40.621715" lon="15.1416933"><ele>143.0</ele><time>2026-04-25T06:54:11.883Z</time></trkpt><trkpt lat="40.6216767" lon="15.1417633"><ele>143.66666666666669</ele><time>2026-04-25T06:54:12.883Z</time></trkpt><trkpt lat="40.6216367" lon="15.1418367"><ele>144.33333333333334</ele><time>2026-04-25T06:54:13.882Z</time></trkpt><trkpt lat="40.6215833" lon="15.1419017"><ele>145.0</ele><time>2026-04-25T06:54:14.882Z</time></trkpt><trkpt lat="40.62153" lon="15.1419717"><ele>145.0</ele><time>2026-04-25T06:54:15.882Z</time></trkpt><trkpt lat="40.621475" lon="15.1420383"><ele>145.0</ele><time>2026-04-25T06:54:16.882Z</time></trkpt><trkpt lat="40.6214183" lon="15.142105"><ele>145.0</ele><time>2026-04-25T06:54:17.882Z</time></trkpt><trkpt lat="40.621365" lon="15.1421767"><ele>145.0</ele><time>2026-04-25T06:54:18.882Z</time></trkpt><trkpt lat="40.62131" lon="15.1422433"><ele>145.0</ele><time>2026-04-25T06:54:19.883Z</time></trkpt><trkpt lat="40.62125" lon="15.14231"><ele>145.0</ele><time>2026-04-25T06:54:20.882Z</time></trkpt><trkpt lat="40.6211917" lon="15.1423867"><ele>144.83333333333334</ele><time>2026-04-25T06:54:21.883Z</time></trkpt><trkpt lat="40.6211283" lon="15.1424533"><ele>144.66666666666669</ele><time>2026-04-25T06:54:22.883Z</time></trkpt><trkpt lat="40.62107" lon="15.1425183"><ele>144.5</ele><time>2026-04-25T06:54:23.882Z</time></trkpt><trkpt lat="40.6210133" lon="15.1425817"><ele>144.33333333333334</ele><time>2026-04-25T06:54:24.882Z</time></trkpt><trkpt lat="40.62096" lon="15.14265"><ele>144.16666666666666</ele><time>2026-04-25T06:54:25.883Z</time></trkpt><trkpt lat="40.6209017" lon="15.1427117"><ele>144.0</ele><time>2026-04-25T06:54:26.882Z</time></trkpt><trkpt lat="40.6208483" lon="15.14277"><ele>144.0</ele><time>2026-04-25T06:54:27.883Z</time></trkpt><trkpt lat="40.6207783" lon="15.1428283"><ele>144.0</ele><time>2026-04-25T06:54:28.882Z</time></trkpt><trkpt lat="40.6207083" lon="15.1429017"><ele>144.0</ele><time>2026-04-25T06:54:29.883Z</time></trkpt><trkpt lat="40.6206433" lon="15.1429767"><ele>144.0</ele><time>2026-04-25T06:54:30.883Z</time></trkpt><trkpt lat="40.62058" lon="15.143055"><ele>144.0</ele><time>2026-04-25T06:54:31.882Z</time></trkpt><trkpt lat="40.6205133" lon="15.1431283"><ele>144.0</ele><time>2026-04-25T06:54:32.883Z</time></trkpt><trkpt lat="40.6204467" lon="15.1432"><ele>144.16666666666666</ele><time>2026-04-25T06:54:33.882Z</time></trkpt><trkpt lat="40.62039" lon="15.1432667"><ele>144.33333333333334</ele><time>2026-04-25T06:54:34.883Z</time></trkpt><trkpt lat="40.62034" lon="15.1433317"><ele>144.5</ele><time>2026-04-25T06:54:35.883Z</time></trkpt><trkpt lat="40.6202667" lon="15.1434267"><ele>144.66666666666669</ele><time>2026-04-25T06:54:37.883Z</time></trkpt><trkpt lat="40.6202083" lon="15.1434583"><ele>144.83333333333334</ele><time>2026-04-25T06:54:39.882Z</time></trkpt><trkpt lat="40.620155" lon="15.1434067"><ele>145.0</ele><time>2026-04-25T06:54:42.882Z</time></trkpt><trkpt lat="40.6200867" lon="15.1433383"><ele>144.0</ele><time>2026-04-25T06:54:45.883Z</time></trkpt><trkpt lat="40.6199967" lon="15.1432783"><ele>143.0</ele><time>2026-04-25T06:54:47.882Z</time></trkpt><trkpt lat="40.6198733" lon="15.1431833"><ele>142.0</ele><time>2026-04-25T06:54:49.882Z</time></trkpt><trkpt lat="40.619795" lon="15.1431217"><ele>141.0</ele><time>2026-04-25T06:54:50.882Z</time></trkpt><trkpt lat="40.6197133" lon="15.1430533"><ele>140.0</ele><time>2026-04-25T06:54:51.882Z</time></trkpt><trkpt lat="40.6196383" lon="15.1429967"><ele>139.66666666666666</ele><time>2026-04-25T06:54:52.882Z</time></trkpt><trkpt lat="40.6195617" lon="15.1429583"><ele>139.33333333333331</ele><time>2026-04-25T06:54:53.882Z</time></trkpt><trkpt lat="40.6194833" lon="15.1429233"><ele>139.0</ele><time>2026-04-25T06:54:54.882Z</time></trkpt><trkpt lat="40.6194083" lon="15.142875"><ele>138.66666666666666</ele><time>2026-04-25T06:54:55.882Z</time></trkpt><trkpt lat="40.6193333" lon="15.142815"><ele>138.33333333333334</ele><time>2026-04-25T06:54:56.882Z</time></trkpt><trkpt lat="40.61926" lon="15.1427567"><ele>138.0</ele><time>2026-04-25T06:54:57.883Z</time></trkpt><trkpt lat="40.6191833" lon="15.1426917"><ele>137.5</ele><time>2026-04-25T06:54:58.883Z</time></trkpt><trkpt lat="40.6191033" lon="15.14263"><ele>137.0</ele><time>2026-04-25T06:54:59.883Z</time></trkpt><trkpt lat="40.61903" lon="15.142565"><ele>136.5</ele><time>2026-04-25T06:55:00.883Z</time></trkpt><trkpt lat="40.6189633" lon="15.142505"><ele>136.0</ele><time>2026-04-25T06:55:01.883Z</time></trkpt><trkpt lat="40.6189" lon="15.1424483"><ele>135.5</ele><time>2026-04-25T06:55:02.883Z</time></trkpt><trkpt lat="40.61884" lon="15.1423967"><ele>135.0</ele><time>2026-04-25T06:55:03.882Z</time></trkpt><trkpt lat="40.6187833" lon="15.14235"><ele>134.5</ele><time>2026-04-25T06:55:04.883Z</time></trkpt><trkpt lat="40.618675" lon="15.1422667"><ele>134.0</ele><time>2026-04-25T06:55:06.882Z</time></trkpt><trkpt lat="40.6186183" lon="15.1422267"><ele>133.5</ele><time>2026-04-25T06:55:07.882Z</time></trkpt><trkpt lat="40.6185583" lon="15.14218"><ele>133.0</ele><time>2026-04-25T06:55:08.882Z</time></trkpt><trkpt lat="40.6184967" lon="15.1421317"><ele>132.5</ele><time>2026-04-25T06:55:09.882Z</time></trkpt><trkpt lat="40.6184333" lon="15.14208"><ele>132.0</ele><time>2026-04-25T06:55:10.883Z</time></trkpt><trkpt lat="40.6183683" lon="15.14202"><ele>131.16666666666666</ele><time>2026-04-25T06:55:11.883Z</time></trkpt><trkpt lat="40.6183033" lon="15.1419683"><ele>130.33333333333334</ele><time>2026-04-25T06:55:12.882Z</time></trkpt><trkpt lat="40.618245" lon="15.1419217"><ele>129.5</ele><time>2026-04-25T06:55:13.882Z</time></trkpt><trkpt lat="40.6181817" lon="15.1418767"><ele>128.66666666666669</ele><time>2026-04-25T06:55:14.882Z</time></trkpt><trkpt lat="40.6181233" lon="15.1418317"><ele>127.83333333333334</ele><time>2026-04-25T06:55:15.883Z</time></trkpt><trkpt lat="40.61807" lon="15.1417833"><ele>127.0</ele><time>2026-04-25T06:55:16.883Z</time></trkpt><trkpt lat="40.6179633" lon="15.1416983"><ele>127.0</ele><time>2026-04-25T06:55:18.883Z</time></trkpt><trkpt lat="40.61786" lon="15.141615"><ele>126.99999999999999</ele><time>2026-04-25T06:55:20.883Z</time></trkpt><trkpt lat="40.61776" lon="15.1415217"><ele>126.99999999999999</ele><time>2026-04-25T06:55:22.882Z</time></trkpt><trkpt lat="40.6176917" lon="15.1414567"><ele>127.0</ele><time>2026-04-25T06:55:24.883Z</time></trkpt><trkpt lat="40.6176917" lon="15.141345"><ele>127.0</ele><time>2026-04-25T06:55:27.883Z</time></trkpt><trkpt lat="40.6177267" lon="15.1412667"><ele>126.6</ele><time>2026-04-25T06:55:29.883Z</time></trkpt><trkpt lat="40.617765" lon="15.1411433"><ele>126.19999999999999</ele><time>2026-04-25T06:55:31.882Z</time></trkpt><trkpt lat="40.6177933" lon="15.1410067"><ele>125.8</ele><time>2026-04-25T06:55:33.883Z</time></trkpt><trkpt lat="40.6178233" lon="15.1408417"><ele>125.4</ele><time>2026-04-25T06:55:42.882Z</time></trkpt><trkpt lat="40.617855" lon="15.140735"><ele>125.0</ele><time>2026-04-25T06:55:43.883Z</time></trkpt><trkpt lat="40.617885" lon="15.1406283"><ele>124.49999999999999</ele><time>2026-04-25T06:55:44.882Z</time></trkpt><trkpt lat="40.6179217" lon="15.14052"><ele>124.0</ele><time>2026-04-25T06:55:45.883Z</time></trkpt><trkpt lat="40.6179667" lon="15.1404283"><ele>123.5</ele><time>2026-04-25T06:55:46.883Z</time></trkpt><trkpt lat="40.6180283" lon="15.1403633"><ele>123.0</ele><time>2026-04-25T06:55:47.883Z</time></trkpt><trkpt lat="40.6180967" lon="15.140305"><ele>122.49999999999999</ele><time>2026-04-25T06:55:48.882Z</time></trkpt><trkpt lat="40.6181767" lon="15.140255"><ele>122.0</ele><time>2026-04-25T06:55:49.882Z</time></trkpt><trkpt lat="40.6182633" lon="15.1402033"><ele>122.0</ele><time>2026-04-25T06:55:50.883Z</time></trkpt><trkpt lat="40.6183517" lon="15.14015"><ele>121.99999999999999</ele><time>2026-04-25T06:55:51.883Z</time></trkpt><trkpt lat="40.6184333" lon="15.1400967"><ele>121.99999999999999</ele><time>2026-04-25T06:55:52.882Z</time></trkpt><trkpt lat="40.618515" lon="15.140035"><ele>122.0</ele><time>2026-04-25T06:55:53.883Z</time></trkpt><trkpt lat="40.6186033" lon="15.139975"><ele>122.0</ele><time>2026-04-25T06:55:54.883Z</time></trkpt><trkpt lat="40.6186883" lon="15.1399183"><ele>122.0</ele><time>2026-04-25T06:55:55.882Z</time></trkpt><trkpt lat="40.61878" lon="15.1398683"><ele>121.99999999999999</ele><time>2026-04-25T06:55:56.883Z</time></trkpt><trkpt lat="40.61887" lon="15.1398133"><ele>121.99999999999999</ele><time>2026-04-25T06:55:57.883Z</time></trkpt><trkpt lat="40.618955" lon="15.1397533"><ele>122.0</ele><time>2026-04-25T06:55:58.883Z</time></trkpt><trkpt lat="40.619035" lon="15.1396967"><ele>122.0</ele><time>2026-04-25T06:55:59.882Z</time></trkpt><trkpt lat="40.619115" lon="15.139645"><ele>121.99999999999999</ele><time>2026-04-25T06:56:00.882Z</time></trkpt><trkpt lat="40.619195" lon="15.139595"><ele>122.0</ele><time>2026-04-25T06:56:01.883Z</time></trkpt><trkpt lat="40.6192733" lon="15.1395433"><ele>122.0</ele><time>2026-04-25T06:56:02.882Z</time></trkpt><trkpt lat="40.61935" lon="15.13949"><ele>122.0</ele><time>2026-04-25T06:56:03.882Z</time></trkpt><trkpt lat="40.61943" lon="15.13944"><ele>121.99999999999999</ele><time>2026-04-25T06:56:04.883Z</time></trkpt><trkpt lat="40.6195067" lon="15.1393883"><ele>122.0</ele><time>2026-04-25T06:56:05.883Z</time></trkpt><trkpt lat="40.6195833" lon="15.1393433"><ele>122.83333333333333</ele><time>2026-04-25T06:56:06.882Z</time></trkpt><trkpt lat="40.6196483" lon="15.1393033"><ele>123.66666666666666</ele><time>2026-04-25T06:56:07.883Z</time></trkpt><trkpt lat="40.6197067" lon="15.139265"><ele>124.5</ele><time>2026-04-25T06:56:08.883Z</time></trkpt><trkpt lat="40.6197617" lon="15.1392183"><ele>125.33333333333334</ele><time>2026-04-25T06:56:09.883Z</time></trkpt><trkpt lat="40.619815" lon="15.13917"><ele>126.16666666666667</ele><time>2026-04-25T06:56:10.883Z</time></trkpt><trkpt lat="40.6198983" lon="15.13904"><ele>127.0</ele><time>2026-04-25T06:56:12.883Z</time></trkpt><trkpt lat="40.6199217" lon="15.1389517"><ele>127.66666666666667</ele><time>2026-04-25T06:56:13.882Z</time></trkpt><trkpt lat="40.6199383" lon="15.1388567"><ele>128.33333333333334</ele><time>2026-04-25T06:56:14.882Z</time></trkpt><trkpt lat="40.6199417" lon="15.1387583"><ele>129.0</ele><time>2026-04-25T06:56:15.883Z</time></trkpt><trkpt lat="40.619925" lon="15.1386517"><ele>129.66666666666666</ele><time>2026-04-25T06:56:16.882Z</time></trkpt><trkpt lat="40.6198983" lon="15.13855"><ele>130.33333333333331</ele><time>2026-04-25T06:56:17.882Z</time></trkpt><trkpt lat="40.619865" lon="15.1384417"><ele>131.0</ele><time>2026-04-25T06:56:18.883Z</time></trkpt><trkpt lat="40.6198283" lon="15.1383467"><ele>131.0</ele><time>2026-04-25T06:56:19.882Z</time></trkpt><trkpt lat="40.6197833" lon="15.1382617"><ele>131.0</ele><time>2026-04-25T06:56:20.882Z</time></trkpt><trkpt lat="40.6197317" lon="15.13821"><ele>131.0</ele><time>2026-04-25T06:56:21.883Z</time></trkpt><trkpt lat="40.6196617" lon="15.138195"><ele>131.0</ele><time>2026-04-25T06:56:22.882Z</time></trkpt><trkpt lat="40.6195817" lon="15.138185"><ele>131.0</ele><time>2026-04-25T06:56:23.883Z</time></trkpt><trkpt lat="40.6195117" lon="15.1381533"><ele>131.0</ele><time>2026-04-25T06:56:24.882Z</time></trkpt><trkpt lat="40.6194617" lon="15.1380867"><ele>131.0</ele><time>2026-04-25T06:56:25.882Z</time></trkpt><trkpt lat="40.619435" lon="15.1379983"><ele>131.16666666666666</ele><time>2026-04-25T06:56:26.883Z</time></trkpt><trkpt lat="40.61943" lon="15.1379083"><ele>131.33333333333331</ele><time>2026-04-25T06:56:27.882Z</time></trkpt><trkpt lat="40.6194417" lon="15.1378267"><ele>131.5</ele><time>2026-04-25T06:56:28.883Z</time></trkpt><trkpt lat="40.61946" lon="15.1377183"><ele>131.66666666666666</ele><time>2026-04-25T06:56:30.883Z</time></trkpt><trkpt lat="40.6194017" lon="15.1376717"><ele>131.83333333333334</ele><time>2026-04-25T06:56:33.883Z</time></trkpt><trkpt lat="40.6193333" lon="15.1376267"><ele>132.0</ele><time>2026-04-25T06:56:35.883Z</time></trkpt><trkpt lat="40.6192417" lon="15.1375617"><ele>132.0</ele><time>2026-04-25T06:56:37.883Z</time></trkpt><trkpt lat="40.6191583" lon="15.1374533"><ele>132.0</ele><time>2026-04-25T06:56:39.882Z</time></trkpt><trkpt lat="40.619115" lon="15.13739"><ele>132.0</ele><time>2026-04-25T06:56:40.883Z</time></trkpt><trkpt lat="40.61903" lon="15.1372483"><ele>132.0</ele><time>2026-04-25T06:56:42.882Z</time></trkpt><trkpt lat="40.6189867" lon="15.137155"><ele>132.0</ele><time>2026-04-25T06:56:43.883Z</time></trkpt><trkpt lat="40.6189383" lon="15.1370467"><ele>132.2</ele><time>2026-04-25T06:56:44.883Z</time></trkpt><trkpt lat="40.618895" lon="15.1369333"><ele>132.39999999999998</ele><time>2026-04-25T06:56:45.882Z</time></trkpt><trkpt lat="40.6188417" lon="15.1368167"><ele>132.60000000000002</ele><time>2026-04-25T06:56:46.882Z</time></trkpt><trkpt lat="40.6188017" lon="15.1366933"><ele>132.8</ele><time>2026-04-25T06:56:47.883Z</time></trkpt><trkpt lat="40.6187583" lon="15.1365733"><ele>133.0</ele><time>2026-04-25T06:56:48.883Z</time></trkpt><trkpt lat="40.6187217" lon="15.136465"><ele>133.0</ele><time>2026-04-25T06:56:49.883Z</time></trkpt><trkpt lat="40.6186933" lon="15.13636"><ele>133.0</ele><time>2026-04-25T06:56:50.883Z</time></trkpt><trkpt lat="40.6186717" lon="15.13626"><ele>133.0</ele><time>2026-04-25T06:56:51.883Z</time></trkpt><trkpt lat="40.6186517" lon="15.1361667"><ele>133.0</ele><time>2026-04-25T06:56:52.882Z</time></trkpt><trkpt lat="40.6186417" lon="15.1360667"><ele>133.0</ele><time>2026-04-25T06:56:53.882Z</time></trkpt><trkpt lat="40.6186367" lon="15.1359683"><ele>133.0</ele><time>2026-04-25T06:56:54.883Z</time></trkpt><trkpt lat="40.618635" lon="15.1358767"><ele>132.83333333333334</ele><time>2026-04-25T06:56:55.882Z</time></trkpt><trkpt lat="40.618645" lon="15.1357817"><ele>132.66666666666669</ele><time>2026-04-25T06:56:56.883Z</time></trkpt><trkpt lat="40.618655" lon="15.1356983"><ele>132.5</ele><time>2026-04-25T06:56:57.882Z</time></trkpt><trkpt lat="40.6186717" lon="15.135615"><ele>132.33333333333334</ele><time>2026-04-25T06:56:58.882Z</time></trkpt><trkpt lat="40.6187283" lon="15.13548"><ele>132.16666666666666</ele><time>2026-04-25T06:57:00.883Z</time></trkpt><trkpt lat="40.6187683" lon="15.135405"><ele>132.0</ele><time>2026-04-25T06:57:01.883Z</time></trkpt><trkpt lat="40.6188117" lon="15.1353267"><ele>132.0</ele><time>2026-04-25T06:57:02.882Z</time></trkpt><trkpt lat="40.6188517" lon="15.1352567"><ele>132.0</ele><time>2026-04-25T06:57:03.882Z</time></trkpt><trkpt lat="40.6188933" lon="15.1351833"><ele>132.0</ele><time>2026-04-25T06:57:04.882Z</time></trkpt><trkpt lat="40.6189317" lon="15.13511"><ele>132.0</ele><time>2026-04-25T06:57:05.883Z</time></trkpt><trkpt lat="40.6189617" lon="15.1350283"><ele>132.0</ele><time>2026-04-25T06:57:06.882Z</time></trkpt><trkpt lat="40.6189817" lon="15.13494"><ele>132.0</ele><time>2026-04-25T06:57:07.883Z</time></trkpt><trkpt lat="40.6189767" lon="15.1348483"><ele>132.0</ele><time>2026-04-25T06:57:08.883Z</time></trkpt><trkpt lat="40.61894" lon="15.1346933"><ele>131.83333333333334</ele><time>2026-04-25T06:57:10.882Z</time></trkpt><trkpt lat="40.6189233" lon="15.1345683"><ele>131.66666666666666</ele><time>2026-04-25T06:57:12.883Z</time></trkpt><trkpt lat="40.6189483" lon="15.13442"><ele>131.5</ele><time>2026-04-25T06:57:14.882Z</time></trkpt><trkpt lat="40.618965" lon="15.134335"><ele>131.33333333333331</ele><time>2026-04-25T06:57:15.882Z</time></trkpt><trkpt lat="40.6189833" lon="15.1342417"><ele>131.16666666666666</ele><time>2026-04-25T06:57:16.882Z</time></trkpt><trkpt lat="40.6190017" lon="15.1341567"><ele>131.0</ele><time>2026-04-25T06:57:17.882Z</time></trkpt><trkpt lat="40.61904" lon="15.134015"><ele>130.8</ele><time>2026-04-25T06:57:19.882Z</time></trkpt><trkpt lat="40.6190633" lon="15.1338767"><ele>130.6</ele><time>2026-04-25T06:57:21.882Z</time></trkpt><trkpt lat="40.619075" lon="15.133705"><ele>130.4</ele><time>2026-04-25T06:57:23.883Z</time></trkpt><trkpt lat="40.61909" lon="15.1336067"><ele>130.2</ele><time>2026-04-25T06:57:24.883Z</time></trkpt><trkpt lat="40.6191083" lon="15.1335033"><ele>130.0</ele><time>2026-04-25T06:57:25.882Z</time></trkpt><trkpt lat="40.619125" lon="15.133405"><ele>130.0</ele><time>2026-04-25T06:57:26.882Z</time></trkpt><trkpt lat="40.619145" lon="15.1333"><ele>130.0</ele><time>2026-04-25T06:57:27.882Z</time></trkpt><trkpt lat="40.6191733" lon="15.1331883"><ele>130.0</ele><time>2026-04-25T06:57:28.882Z</time></trkpt><trkpt lat="40.619195" lon="15.1330867"><ele>130.0</ele><time>2026-04-25T06:57:29.882Z</time></trkpt><trkpt lat="40.61922" lon="15.13298"><ele>130.0</ele><time>2026-04-25T06:57:30.882Z</time></trkpt><trkpt lat="40.6192417" lon="15.1328733"><ele>130.0</ele><time>2026-04-25T06:57:31.882Z</time></trkpt><trkpt lat="40.6192667" lon="15.132765"><ele>129.66666666666669</ele><time>2026-04-25T06:57:32.882Z</time></trkpt><trkpt lat="40.619295" lon="15.13266"><ele>129.33333333333334</ele><time>2026-04-25T06:57:33.882Z</time></trkpt><trkpt lat="40.6193217" lon="15.1325567"><ele>129.0</ele><time>2026-04-25T06:57:34.882Z</time></trkpt><trkpt lat="40.6193517" lon="15.132455"><ele>128.66666666666666</ele><time>2026-04-25T06:57:35.882Z</time></trkpt><trkpt lat="40.61938" lon="15.1323567"><ele>128.33333333333331</ele><time>2026-04-25T06:57:36.882Z</time></trkpt><trkpt lat="40.6194067" lon="15.132265"><ele>128.0</ele><time>2026-04-25T06:57:37.883Z</time></trkpt><trkpt lat="40.619435" lon="15.1321717"><ele>127.99999999999999</ele><time>2026-04-25T06:57:38.882Z</time></trkpt><trkpt lat="40.6194667" lon="15.1320767"><ele>128.0</ele><time>2026-04-25T06:57:39.883Z</time></trkpt><trkpt lat="40.6195033" lon="15.1319783"><ele>128.0</ele><time>2026-04-25T06:57:40.882Z</time></trkpt><trkpt lat="40.619545" lon="15.13188"><ele>128.0</ele><time>2026-04-25T06:57:41.882Z</time></trkpt><trkpt lat="40.6195917" lon="15.1317933"><ele>127.99999999999999</ele><time>2026-04-25T06:57:42.883Z</time></trkpt><trkpt lat="40.6196467" lon="15.1317083"><ele>128.0</ele><time>2026-04-25T06:57:43.883Z</time></trkpt><trkpt lat="40.61971" lon="15.131625"><ele>128.0</ele><time>2026-04-25T06:57:44.882Z</time></trkpt><trkpt lat="40.6197817" lon="15.1315367"><ele>128.0</ele><time>2026-04-25T06:57:45.883Z</time></trkpt><trkpt lat="40.6198483" lon="15.1314567"><ele>128.0</ele><time>2026-04-25T06:57:46.882Z</time></trkpt><trkpt lat="40.61992" lon="15.1313833"><ele>128.0</ele><time>2026-04-25T06:57:47.882Z</time></trkpt><trkpt lat="40.6199967" lon="15.1313083"><ele>128.0</ele><time>2026-04-25T06:57:48.882Z</time></trkpt><trkpt lat="40.6200767" lon="15.1312417"><ele>127.99999999999999</ele><time>2026-04-25T06:57:49.882Z</time></trkpt><trkpt lat="40.6201517" lon="15.131175"><ele>128.0</ele><time>2026-04-25T06:57:50.883Z</time></trkpt><trkpt lat="40.620225" lon="15.1311083"><ele>128.0</ele><time>2026-04-25T06:57:51.882Z</time></trkpt><trkpt lat="40.6202933" lon="15.1310433"><ele>128.0</ele><time>2026-04-25T06:57:52.883Z</time></trkpt><trkpt lat="40.6203583" lon="15.1309733"><ele>127.99999999999999</ele><time>2026-04-25T06:57:53.883Z</time></trkpt><trkpt lat="40.6204167" lon="15.130895"><ele>128.0</ele><time>2026-04-25T06:57:54.882Z</time></trkpt><trkpt lat="40.6204717" lon="15.1308117"><ele>128.33333333333331</ele><time>2026-04-25T06:57:55.883Z</time></trkpt><trkpt lat="40.62053" lon="15.130725"><ele>128.66666666666666</ele><time>2026-04-25T06:57:56.883Z</time></trkpt><trkpt lat="40.6205933" lon="15.1306367"><ele>129.0</ele><time>2026-04-25T06:57:57.883Z</time></trkpt><trkpt lat="40.6206583" lon="15.1305517"><ele>129.33333333333334</ele><time>2026-04-25T06:57:58.883Z</time></trkpt><trkpt lat="40.6207217" lon="15.1304783"><ele>129.66666666666669</ele><time>2026-04-25T06:57:59.883Z</time></trkpt><trkpt lat="40.6207833" lon="15.1304"><ele>130.0</ele><time>2026-04-25T06:58:00.883Z</time></trkpt><trkpt lat="40.6208533" lon="15.1303167"><ele>130.0</ele><time>2026-04-25T06:58:01.883Z</time></trkpt><trkpt lat="40.6209183" lon="15.1302317"><ele>130.0</ele><time>2026-04-25T06:58:02.882Z</time></trkpt><trkpt lat="40.6209833" lon="15.130145"><ele>130.0</ele><time>2026-04-25T06:58:03.882Z</time></trkpt><trkpt lat="40.621055" lon="15.1300783"><ele>130.0</ele><time>2026-04-25T06:58:04.883Z</time></trkpt><trkpt lat="40.6211333" lon="15.1300233"><ele>130.0</ele><time>2026-04-25T06:58:05.883Z</time></trkpt><trkpt lat="40.6212167" lon="15.1299667"><ele>130.0</ele><time>2026-04-25T06:58:06.883Z</time></trkpt><trkpt lat="40.6213017" lon="15.1299017"><ele>130.0</ele><time>2026-04-25T06:58:07.882Z</time></trkpt><trkpt lat="40.6213867" lon="15.1298433"><ele>130.0</ele><time>2026-04-25T06:58:08.882Z</time></trkpt><trkpt lat="40.62147" lon="15.1298067"><ele>130.0</ele><time>2026-04-25T06:58:09.883Z</time></trkpt><trkpt lat="40.6215567" lon="15.1297667"><ele>130.0</ele><time>2026-04-25T06:58:10.883Z</time></trkpt><trkpt lat="40.6216433" lon="15.12973"><ele>130.0</ele><time>2026-04-25T06:58:11.883Z</time></trkpt><trkpt lat="40.6217383" lon="15.1296933"><ele>130.0</ele><time>2026-04-25T06:58:12.882Z</time></trkpt><trkpt lat="40.621825" lon="15.1296617"><ele>130.0</ele><time>2026-04-25T06:58:13.883Z</time></trkpt><trkpt lat="40.62191" lon="15.1296283"><ele>130.0</ele><time>2026-04-25T06:58:14.883Z</time></trkpt><trkpt lat="40.6219917" lon="15.129585"><ele>130.0</ele><time>2026-04-25T06:58:15.882Z</time></trkpt><trkpt lat="40.62207" lon="15.1295383"><ele>130.66666666666669</ele><time>2026-04-25T06:58:16.883Z</time></trkpt><trkpt lat="40.62215" lon="15.1294867"><ele>131.33333333333334</ele><time>2026-04-25T06:58:17.883Z</time></trkpt><trkpt lat="40.6222283" lon="15.1294317"><ele>132.0</ele><time>2026-04-25T06:58:18.883Z</time></trkpt><trkpt lat="40.6223033" lon="15.1293633"><ele>132.66666666666666</ele><time>2026-04-25T06:58:19.882Z</time></trkpt><trkpt lat="40.6223733" lon="15.1292917"><ele>133.33333333333331</ele><time>2026-04-25T06:58:20.883Z</time></trkpt><trkpt lat="40.622435" lon="15.12921"><ele>134.0</ele><time>2026-04-25T06:58:21.883Z</time></trkpt><trkpt lat="40.6224883" lon="15.1291267"><ele>133.33333333333331</ele><time>2026-04-25T06:58:22.883Z</time></trkpt><trkpt lat="40.6225383" lon="15.1290433"><ele>132.66666666666666</ele><time>2026-04-25T06:58:23.882Z</time></trkpt><trkpt lat="40.62259" lon="15.1289583"><ele>132.0</ele><time>2026-04-25T06:58:24.883Z</time></trkpt><trkpt lat="40.6226433" lon="15.1288783"><ele>131.33333333333334</ele><time>2026-04-25T06:58:25.882Z</time></trkpt><trkpt lat="40.6226967" lon="15.1288033"><ele>130.66666666666669</ele><time>2026-04-25T06:58:26.883Z</time></trkpt><trkpt lat="40.6227483" lon="15.12874"><ele>130.0</ele><time>2026-04-25T06:58:27.883Z</time></trkpt><trkpt lat="40.6228017" lon="15.12869"><ele>130.5</ele><time>2026-04-25T06:58:28.882Z</time></trkpt><trkpt lat="40.622855" lon="15.12864"><ele>131.0</ele><time>2026-04-25T06:58:29.882Z</time></trkpt><trkpt lat="40.6229367" lon="15.1285733"><ele>131.5</ele><time>2026-04-25T06:58:31.883Z</time></trkpt><trkpt lat="40.62303" lon="15.1285317"><ele>132.0</ele><time>2026-04-25T06:58:34.883Z</time></trkpt><trkpt lat="40.6231333" lon="15.1285167"><ele>132.5</ele><time>2026-04-25T06:58:36.882Z</time></trkpt><trkpt lat="40.6231983" lon="15.1285083"><ele>133.0</ele><time>2026-04-25T06:58:37.883Z</time></trkpt><trkpt lat="40.6232683" lon="15.1284983"><ele>133.0</ele><time>2026-04-25T06:58:38.883Z</time></trkpt><trkpt lat="40.6233533" lon="15.1284867"><ele>133.0</ele><time>2026-04-25T06:58:39.882Z</time></trkpt><trkpt lat="40.62345" lon="15.12848"><ele>133.0</ele><time>2026-04-25T06:58:40.883Z</time></trkpt><trkpt lat="40.623555" lon="15.1284733"><ele>133.0</ele><time>2026-04-25T06:58:41.882Z</time></trkpt><trkpt lat="40.6236633" lon="15.1284567"><ele>133.0</ele><time>2026-04-25T06:58:42.883Z</time></trkpt><trkpt lat="40.6237683" lon="15.12843"><ele>133.4</ele><time>2026-04-25T06:58:43.883Z</time></trkpt><trkpt lat="40.6238667" lon="15.1283867"><ele>133.8</ele><time>2026-04-25T06:58:44.882Z</time></trkpt><trkpt lat="40.62397" lon="15.1283217"><ele>134.2</ele><time>2026-04-25T06:58:45.883Z</time></trkpt><trkpt lat="40.6240617" lon="15.1282483"><ele>134.6</ele><time>2026-04-25T06:58:46.882Z</time></trkpt><trkpt lat="40.62415" lon="15.128185"><ele>135.0</ele><time>2026-04-25T06:58:47.882Z</time></trkpt><trkpt lat="40.6242317" lon="15.128135"><ele>135.0</ele><time>2026-04-25T06:58:48.882Z</time></trkpt><trkpt lat="40.6243017" lon="15.1281067"><ele>135.0</ele><time>2026-04-25T06:58:49.883Z</time></trkpt><trkpt lat="40.6244217" lon="15.1280967"><ele>135.0</ele><time>2026-04-25T06:58:51.883Z</time></trkpt><trkpt lat="40.62449" lon="15.1280983"><ele>135.0</ele><time>2026-04-25T06:58:52.883Z</time></trkpt><trkpt lat="40.6245683" lon="15.1281017"><ele>135.0</ele><time>2026-04-25T06:58:53.883Z</time></trkpt><trkpt lat="40.62466" lon="15.1281067"><ele>135.0</ele><time>2026-04-25T06:58:54.882Z</time></trkpt><trkpt lat="40.624765" lon="15.1281117"><ele>135.6</ele><time>2026-04-25T06:58:55.882Z</time></trkpt><trkpt lat="40.624875" lon="15.12811"><ele>136.2</ele><time>2026-04-25T06:58:56.883Z</time></trkpt><trkpt lat="40.6249867" lon="15.1281017"><ele>136.8</ele><time>2026-04-25T06:58:57.883Z</time></trkpt><trkpt lat="40.62509" lon="15.1280817"><ele>137.4</ele><time>2026-04-25T06:58:58.882Z</time></trkpt><trkpt lat="40.62519" lon="15.1280583"><ele>138.0</ele><time>2026-04-25T06:58:59.882Z</time></trkpt><trkpt lat="40.6252817" lon="15.1280283"><ele>138.33333333333334</ele><time>2026-04-25T06:59:00.882Z</time></trkpt><trkpt lat="40.6253583" lon="15.1279767"><ele>138.66666666666666</ele><time>2026-04-25T06:59:01.882Z</time></trkpt><trkpt lat="40.62543" lon="15.1279283"><ele>139.0</ele><time>2026-04-25T06:59:02.883Z</time></trkpt><trkpt lat="40.6255033" lon="15.127885"><ele>139.33333333333331</ele><time>2026-04-25T06:59:03.882Z</time></trkpt><trkpt lat="40.62558" lon="15.12784"><ele>139.66666666666666</ele><time>2026-04-25T06:59:04.883Z</time></trkpt><trkpt lat="40.625655" lon="15.1277983"><ele>140.0</ele><time>2026-04-25T06:59:05.882Z</time></trkpt><trkpt lat="40.625735" lon="15.1277567"><ele>140.0</ele><time>2026-04-25T06:59:06.882Z</time></trkpt><trkpt lat="40.62582" lon="15.12772"><ele>140.0</ele><time>2026-04-25T06:59:07.882Z</time></trkpt><trkpt lat="40.6259083" lon="15.1276883"><ele>140.0</ele><time>2026-04-25T06:59:08.883Z</time></trkpt><trkpt lat="40.6259983" lon="15.1276617"><ele>140.0</ele><time>2026-04-25T06:59:09.883Z</time></trkpt><trkpt lat="40.6260883" lon="15.1276417"><ele>140.0</ele><time>2026-04-25T06:59:10.883Z</time></trkpt><trkpt lat="40.6261833" lon="15.1276233"><ele>141.0</ele><time>2026-04-25T06:59:11.883Z</time></trkpt><trkpt lat="40.626285" lon="15.1276117"><ele>142.0</ele><time>2026-04-25T06:59:12.883Z</time></trkpt><trkpt lat="40.6263883" lon="15.127605"><ele>143.0</ele><time>2026-04-25T06:59:13.882Z</time></trkpt><trkpt lat="40.626495" lon="15.1276033"><ele>144.0</ele><time>2026-04-25T06:59:14.882Z</time></trkpt><trkpt lat="40.6266067" lon="15.1276033"><ele>145.0</ele><time>2026-04-25T06:59:15.883Z</time></trkpt><trkpt lat="40.6267183" lon="15.1275983"><ele>145.0</ele><time>2026-04-25T06:59:16.882Z</time></trkpt><trkpt lat="40.62683" lon="15.1275817"><ele>145.0</ele><time>2026-04-25T06:59:17.883Z</time></trkpt><trkpt lat="40.626935" lon="15.12754"><ele>145.0</ele><time>2026-04-25T06:59:18.883Z</time></trkpt><trkpt lat="40.6270317" lon="15.1274667"><ele>145.0</ele><time>2026-04-25T06:59:19.882Z</time></trkpt><trkpt lat="40.6271217" lon="15.12738"><ele>145.0</ele><time>2026-04-25T06:59:20.883Z</time></trkpt><trkpt lat="40.6272" lon="15.1272733"><ele>145.4</ele><time>2026-04-25T06:59:21.882Z</time></trkpt><trkpt lat="40.6272733" lon="15.127155"><ele>145.8</ele><time>2026-04-25T06:59:22.882Z</time></trkpt><trkpt lat="40.62735" lon="15.1270583"><ele>146.2</ele><time>2026-04-25T06:59:23.883Z</time></trkpt><trkpt lat="40.6274283" lon="15.1269733"><ele>146.6</ele><time>2026-04-25T06:59:24.882Z</time></trkpt><trkpt lat="40.6275217" lon="15.1268933"><ele>147.0</ele><time>2026-04-25T06:59:25.882Z</time></trkpt><trkpt lat="40.62762" lon="15.1268183"><ele>147.0</ele><time>2026-04-25T06:59:26.882Z</time></trkpt><trkpt lat="40.6277233" lon="15.1267467"><ele>147.0</ele><time>2026-04-25T06:59:27.883Z</time></trkpt><trkpt lat="40.6278283" lon="15.12667"><ele>147.0</ele><time>2026-04-25T06:59:28.883Z</time></trkpt><trkpt lat="40.6279333" lon="15.1265917"><ele>147.0</ele><time>2026-04-25T06:59:29.883Z</time></trkpt><trkpt lat="40.628045" lon="15.1265183"><ele>146.25</ele><time>2026-04-25T06:59:30.883Z</time></trkpt><trkpt lat="40.628155" lon="15.12646"><ele>145.5</ele><time>2026-04-25T06:59:31.882Z</time></trkpt><trkpt lat="40.6282633" lon="15.1264067"><ele>144.75</ele><time>2026-04-25T06:59:32.883Z</time></trkpt><trkpt lat="40.6283717" lon="15.12636"><ele>144.0</ele><time>2026-04-25T06:59:33.883Z</time></trkpt><trkpt lat="40.6284717" lon="15.1263233"><ele>144.0</ele><time>2026-04-25T06:59:34.883Z</time></trkpt><trkpt lat="40.62858" lon="15.1263317"><ele>144.0</ele><time>2026-04-25T06:59:35.883Z</time></trkpt><trkpt lat="40.6286917" lon="15.12636"><ele>144.0</ele><time>2026-04-25T06:59:36.882Z</time></trkpt><trkpt lat="40.6288083" lon="15.1263967"><ele>144.0</ele><time>2026-04-25T06:59:37.883Z</time></trkpt><trkpt lat="40.62893" lon="15.1264283"><ele>143.75</ele><time>2026-04-25T06:59:38.883Z</time></trkpt><trkpt lat="40.6290417" lon="15.12646"><ele>143.5</ele><time>2026-04-25T06:59:39.882Z</time></trkpt><trkpt lat="40.629145" lon="15.1264967"><ele>143.25</ele><time>2026-04-25T06:59:40.883Z</time></trkpt><trkpt lat="40.6292567" lon="15.1265317"><ele>143.0</ele><time>2026-04-25T06:59:41.882Z</time></trkpt><trkpt lat="40.6293683" lon="15.1265633"><ele>145.5</ele><time>2026-04-25T06:59:42.882Z</time></trkpt><trkpt lat="40.6294883" lon="15.1265933"><ele>148.0</ele><time>2026-04-25T06:59:43.883Z</time></trkpt><trkpt lat="40.6296117" lon="15.12662"><ele>150.5</ele><time>2026-04-25T06:59:44.882Z</time></trkpt><trkpt lat="40.6297383" lon="15.12664"><ele>153.0</ele><time>2026-04-25T06:59:45.883Z</time></trkpt><trkpt lat="40.62986" lon="15.1266583"><ele>153.0</ele><time>2026-04-25T06:59:46.882Z</time></trkpt><trkpt lat="40.629975" lon="15.1266667"><ele>153.0</ele><time>2026-04-25T06:59:47.882Z</time></trkpt><trkpt lat="40.6300817" lon="15.1266617"><ele>153.0</ele><time>2026-04-25T06:59:48.883Z</time></trkpt><trkpt lat="40.6302033" lon="15.1266717"><ele>153.0</ele><time>2026-04-25T06:59:49.882Z</time></trkpt><trkpt lat="40.6303283" lon="15.126695"><ele>153.5</ele><time>2026-04-25T06:59:50.883Z</time></trkpt><trkpt lat="40.6304517" lon="15.1267183"><ele>154.0</ele><time>2026-04-25T06:59:51.883Z</time></trkpt><trkpt lat="40.6305767" lon="15.126745"><ele>154.5</ele><time>2026-04-25T06:59:52.882Z</time></trkpt><trkpt lat="40.6307017" lon="15.126765"><ele>155.0</ele><time>2026-04-25T06:59:53.882Z</time></trkpt><trkpt lat="40.6308333" lon="15.1267767"><ele>155.0</ele><time>2026-04-25T06:59:54.882Z</time></trkpt><trkpt lat="40.6309683" lon="15.1267867"><ele>155.0</ele><time>2026-04-25T06:59:55.883Z</time></trkpt><trkpt lat="40.6311067" lon="15.1267983"><ele>155.0</ele><time>2026-04-25T06:59:56.882Z</time></trkpt><trkpt lat="40.631245" lon="15.1268117"><ele>155.0</ele><time>2026-04-25T06:59:57.883Z</time></trkpt><trkpt lat="40.6313833" lon="15.12682"><ele>155.0</ele><time>2026-04-25T06:59:58.882Z</time></trkpt><trkpt lat="40.631515" lon="15.1268267"><ele>155.0</ele><time>2026-04-25T06:59:59.883Z</time></trkpt><trkpt lat="40.6316467" lon="15.12684"><ele>155.0</ele><time>2026-04-25T07:00:00.883Z</time></trkpt><trkpt lat="40.6317767" lon="15.1268483"><ele>155.0</ele><time>2026-04-25T07:00:01.883Z</time></trkpt><trkpt lat="40.631905" lon="15.126855"><ele>155.8</ele><time>2026-04-25T07:00:02.883Z</time></trkpt><trkpt lat="40.6320267" lon="15.1268517"><ele>156.6</ele><time>2026-04-25T07:00:03.882Z</time></trkpt><trkpt lat="40.63213" lon="15.1268467"><ele>157.4</ele><time>2026-04-25T07:00:04.883Z</time></trkpt><trkpt lat="40.6322183" lon="15.126835"><ele>158.2</ele><time>2026-04-25T07:00:05.883Z</time></trkpt><trkpt lat="40.6322967" lon="15.12683"><ele>159.0</ele><time>2026-04-25T07:00:06.882Z</time></trkpt><trkpt lat="40.63237" lon="15.126825"><ele>159.0</ele><time>2026-04-25T07:00:07.883Z</time></trkpt><trkpt lat="40.6324433" lon="15.1268217"><ele>159.0</ele><time>2026-04-25T07:00:08.883Z</time></trkpt><trkpt lat="40.6325217" lon="15.126815"><ele>159.0</ele><time>2026-04-25T07:00:09.882Z</time></trkpt><trkpt lat="40.632615" lon="15.1268083"><ele>159.0</ele><time>2026-04-25T07:00:10.882Z</time></trkpt><trkpt lat="40.6327183" lon="15.1267917"><ele>159.0</ele><time>2026-04-25T07:00:11.882Z</time></trkpt><trkpt lat="40.63283" lon="15.126775"><ele>159.5</ele><time>2026-04-25T07:00:12.883Z</time></trkpt><trkpt lat="40.6329467" lon="15.1267517"><ele>160.0</ele><time>2026-04-25T07:00:13.883Z</time></trkpt><trkpt lat="40.6330633" lon="15.1267317"><ele>160.5</ele><time>2026-04-25T07:00:14.882Z</time></trkpt><trkpt lat="40.6331733" lon="15.126705"><ele>161.0</ele><time>2026-04-25T07:00:15.882Z</time></trkpt><trkpt lat="40.6332867" lon="15.1266817"><ele>161.0</ele><time>2026-04-25T07:00:16.882Z</time></trkpt><trkpt lat="40.633395" lon="15.1266583"><ele>161.0</ele><time>2026-04-25T07:00:17.882Z</time></trkpt><trkpt lat="40.6335133" lon="15.126655"><ele>161.0</ele><time>2026-04-25T07:00:18.883Z</time></trkpt><trkpt lat="40.6336267" lon="15.126655"><ele>161.0</ele><time>2026-04-25T07:00:19.883Z</time></trkpt><trkpt lat="40.63374" lon="15.12667"><ele>161.75</ele><time>2026-04-25T07:00:20.883Z</time></trkpt><trkpt lat="40.6338517" lon="15.1266983"><ele>162.5</ele><time>2026-04-25T07:00:21.882Z</time></trkpt><trkpt lat="40.63397" lon="15.1267317"><ele>163.25</ele><time>2026-04-25T07:00:22.883Z</time></trkpt><trkpt lat="40.634085" lon="15.1267617"><ele>164.0</ele><time>2026-04-25T07:00:23.882Z</time></trkpt><trkpt lat="40.6341917" lon="15.1267883"><ele>164.0</ele><time>2026-04-25T07:00:24.883Z</time></trkpt><trkpt lat="40.6342883" lon="15.126805"><ele>164.0</ele><time>2026-04-25T07:00:25.883Z</time></trkpt><trkpt lat="40.6343767" lon="15.1268067"><ele>164.0</ele><time>2026-04-25T07:00:26.882Z</time></trkpt><trkpt lat="40.6344567" lon="15.1268"><ele>164.0</ele><time>2026-04-25T07:00:27.883Z</time></trkpt><trkpt lat="40.63455" lon="15.1267917"><ele>164.0</ele><time>2026-04-25T07:00:29.883Z</time></trkpt><trkpt lat="40.63456" lon="15.1268767"><ele>164.0</ele><time>2026-04-25T07:00:32.882Z</time></trkpt><trkpt lat="40.6344883" lon="15.126935"><ele>164.0</ele><time>2026-04-25T07:00:34.883Z</time></trkpt><trkpt lat="40.634395" lon="15.127015"><ele>164.0</ele><time>2026-04-25T07:00:36.883Z</time></trkpt><trkpt lat="40.6342983" lon="15.1271083"><ele>164.0</ele><time>2026-04-25T07:00:38.883Z</time></trkpt><trkpt lat="40.6342417" lon="15.1271633"><ele>164.0</ele><time>2026-04-25T07:00:39.882Z</time></trkpt><trkpt lat="40.63418" lon="15.1272217"><ele>164.0</ele><time>2026-04-25T07:00:40.882Z</time></trkpt><trkpt lat="40.6341167" lon="15.12729"><ele>164.0</ele><time>2026-04-25T07:00:41.882Z</time></trkpt><trkpt lat="40.6340567" lon="15.1273617"><ele>164.0</ele><time>2026-04-25T07:00:42.882Z</time></trkpt><trkpt lat="40.6339917" lon="15.1274367"><ele>164.0</ele><time>2026-04-25T07:00:43.883Z</time></trkpt><trkpt lat="40.6339283" lon="15.12752"><ele>164.0</ele><time>2026-04-25T07:00:44.883Z</time></trkpt><trkpt lat="40.63387" lon="15.1275967"><ele>164.0</ele><time>2026-04-25T07:00:45.882Z</time></trkpt><trkpt lat="40.633815" lon="15.1276617"><ele>164.0</ele><time>2026-04-25T07:00:46.883Z</time></trkpt><trkpt lat="40.6337283" lon="15.1277417"><ele>164.5</ele><time>2026-04-25T07:00:48.882Z</time></trkpt><trkpt lat="40.6336667" lon="15.1278017"><ele>165.0</ele><time>2026-04-25T07:00:50.882Z</time></trkpt><trkpt lat="40.6335917" lon="15.1278517"><ele>165.5</ele><time>2026-04-25T07:00:52.882Z</time></trkpt><trkpt lat="40.6334883" lon="15.1279117"><ele>166.0</ele><time>2026-04-25T07:00:54.883Z</time></trkpt><trkpt lat="40.6334217" lon="15.12795"><ele>166.5</ele><time>2026-04-25T07:00:55.883Z</time></trkpt><trkpt lat="40.6333517" lon="15.1279867"><ele>167.0</ele><time>2026-04-25T07:00:56.882Z</time></trkpt><trkpt lat="40.6332867" lon="15.1280333"><ele>167.0</ele><time>2026-04-25T07:00:57.883Z</time></trkpt><trkpt lat="40.6331783" lon="15.1280917"><ele>167.0</ele><time>2026-04-25T07:00:59.882Z</time></trkpt><trkpt lat="40.633115" lon="15.1281333"><ele>167.0</ele><time>2026-04-25T07:01:01.882Z</time></trkpt><trkpt lat="40.6331133" lon="15.1282383"><ele>167.0</ele><time>2026-04-25T07:01:04.882Z</time></trkpt><trkpt lat="40.6331567" lon="15.1283733"><ele>167.0</ele><time>2026-04-25T07:01:06.883Z</time></trkpt><trkpt lat="40.6331817" lon="15.1284633"><ele>168.0</ele><time>2026-04-25T07:01:07.882Z</time></trkpt><trkpt lat="40.633205" lon="15.1285783"><ele>169.0</ele><time>2026-04-25T07:01:08.883Z</time></trkpt><trkpt lat="40.6332333" lon="15.1287133"><ele>170.0</ele><time>2026-04-25T07:01:09.882Z</time></trkpt><trkpt lat="40.633265" lon="15.1288417"><ele>171.0</ele><time>2026-04-25T07:01:10.882Z</time></trkpt><trkpt lat="40.6333033" lon="15.1289467"><ele>172.0</ele><time>2026-04-25T07:01:11.883Z</time></trkpt><trkpt lat="40.6333317" lon="15.1290433"><ele>172.83333333333334</ele><time>2026-04-25T07:01:12.883Z</time></trkpt><trkpt lat="40.633355" lon="15.1291517"><ele>173.66666666666669</ele><time>2026-04-25T07:01:13.882Z</time></trkpt><trkpt lat="40.6333817" lon="15.129255"><ele>174.5</ele><time>2026-04-25T07:01:14.883Z</time></trkpt><trkpt lat="40.6334133" lon="15.129355"><ele>175.33333333333334</ele><time>2026-04-25T07:01:15.882Z</time></trkpt><trkpt lat="40.6334533" lon="15.1294633"><ele>176.16666666666666</ele><time>2026-04-25T07:01:16.883Z</time></trkpt><trkpt lat="40.6334967" lon="15.1295833"><ele>177.0</ele><time>2026-04-25T07:01:17.883Z</time></trkpt><trkpt lat="40.6335383" lon="15.1296917"><ele>177.0</ele><time>2026-04-25T07:01:18.882Z</time></trkpt><trkpt lat="40.633575" lon="15.1297833"><ele>177.0</ele><time>2026-04-25T07:01:19.882Z</time></trkpt><trkpt lat="40.6336017" lon="15.1298617"><ele>177.0</ele><time>2026-04-25T07:01:20.883Z</time></trkpt><trkpt lat="40.6336017" lon="15.1300267"><ele>177.0</ele><time>2026-04-25T07:01:22.882Z</time></trkpt><trkpt lat="40.6336017" lon="15.13012"><ele>177.0</ele><time>2026-04-25T07:01:23.883Z</time></trkpt><trkpt lat="40.633625" lon="15.1302017"><ele>177.0</ele><time>2026-04-25T07:01:24.882Z</time></trkpt><trkpt lat="40.63365" lon="15.1302967"><ele>177.8</ele><time>2026-04-25T07:01:25.883Z</time></trkpt><trkpt lat="40.63369" lon="15.1304233"><ele>178.6</ele><time>2026-04-25T07:01:26.882Z</time></trkpt><trkpt lat="40.6337233" lon="15.130545"><ele>179.4</ele><time>2026-04-25T07:01:27.882Z</time></trkpt><trkpt lat="40.633745" lon="15.1306583"><ele>180.20000000000002</ele><time>2026-04-25T07:01:28.882Z</time></trkpt><trkpt lat="40.633775" lon="15.13077"><ele>181.0</ele><time>2026-04-25T07:01:29.882Z</time></trkpt><trkpt lat="40.6338183" lon="15.1308833"><ele>182.20000000000002</ele><time>2026-04-25T07:01:30.883Z</time></trkpt><trkpt lat="40.6338633" lon="15.1309867"><ele>183.4</ele><time>2026-04-25T07:01:31.883Z</time></trkpt><trkpt lat="40.6339017" lon="15.1310833"><ele>184.6</ele><time>2026-04-25T07:01:32.883Z</time></trkpt><trkpt lat="40.633945" lon="15.1312"><ele>185.8</ele><time>2026-04-25T07:01:33.883Z</time></trkpt><trkpt lat="40.6339967" lon="15.13133"><ele>187.0</ele><time>2026-04-25T07:01:34.883Z</time></trkpt><trkpt lat="40.6340417" lon="15.1314383"><ele>187.0</ele><time>2026-04-25T07:01:35.883Z</time></trkpt><trkpt lat="40.6340783" lon="15.13155"><ele>187.0</ele><time>2026-04-25T07:01:36.883Z</time></trkpt><trkpt lat="40.6341083" lon="15.13165"><ele>187.0</ele><time>2026-04-25T07:01:37.882Z</time></trkpt><trkpt lat="40.6341417" lon="15.1317683"><ele>187.0</ele><time>2026-04-25T07:01:38.883Z</time></trkpt><trkpt lat="40.6341767" lon="15.13189"><ele>187.0</ele><time>2026-04-25T07:01:39.882Z</time></trkpt><trkpt lat="40.63421" lon="15.1320017"><ele>187.66666666666669</ele><time>2026-04-25T07:01:40.883Z</time></trkpt><trkpt lat="40.634235" lon="15.132105"><ele>188.33333333333334</ele><time>2026-04-25T07:01:41.883Z</time></trkpt><trkpt lat="40.6342633" lon="15.1322017"><ele>189.0</ele><time>2026-04-25T07:01:42.882Z</time></trkpt><trkpt lat="40.6342983" lon="15.1323133"><ele>189.66666666666666</ele><time>2026-04-25T07:01:43.882Z</time></trkpt><trkpt lat="40.6343267" lon="15.1324183"><ele>190.33333333333331</ele><time>2026-04-25T07:01:44.882Z</time></trkpt><trkpt lat="40.63434" lon="15.1325117"><ele>191.0</ele><time>2026-04-25T07:01:45.883Z</time></trkpt><trkpt lat="40.6343767" lon="15.1326333"><ele>191.8</ele><time>2026-04-25T07:01:47.883Z</time></trkpt><trkpt lat="40.6344067" lon="15.1327217"><ele>192.60000000000002</ele><time>2026-04-25T07:01:50.882Z</time></trkpt><trkpt lat="40.634385" lon="15.1328683"><ele>193.4</ele><time>2026-04-25T07:02:30.881Z</time></trkpt><trkpt lat="40.6343467" lon="15.1329517"><ele>194.2</ele><time>2026-04-25T07:02:31.881Z</time></trkpt><trkpt lat="40.6343417" lon="15.1330483"><ele>195.0</ele><time>2026-04-25T07:02:33.881Z</time></trkpt><trkpt lat="40.6344767" lon="15.1330783"><ele>195.6</ele><time>2026-04-25T07:02:45.881Z</time></trkpt><trkpt lat="40.6346183" lon="15.1330783"><ele>196.2</ele><time>2026-04-25T07:02:47.882Z</time></trkpt><trkpt lat="40.6347033" lon="15.1330717"><ele>196.8</ele><time>2026-04-25T07:02:48.881Z</time></trkpt><trkpt lat="40.6347917" lon="15.1330433"><ele>197.4</ele><time>2026-04-25T07:02:49.881Z</time></trkpt><trkpt lat="40.6348833" lon="15.132975"><ele>198.0</ele><time>2026-04-25T07:02:50.881Z</time></trkpt><trkpt lat="40.6349767" lon="15.1329033"><ele>198.0</ele><time>2026-04-25T07:02:51.881Z</time></trkpt><trkpt lat="40.6350617" lon="15.1328317"><ele>198.0</ele><time>2026-04-25T07:02:52.881Z</time></trkpt><trkpt lat="40.6351267" lon="15.1327717"><ele>198.0</ele><time>2026-04-25T07:02:53.882Z</time></trkpt><trkpt lat="40.6351783" lon="15.132715"><ele>198.0</ele><time>2026-04-25T07:02:54.882Z</time></trkpt><trkpt lat="40.6352383" lon="15.1326383"><ele>198.0</ele><time>2026-04-25T07:02:56.881Z</time></trkpt><trkpt lat="40.635315" lon="15.1326933"><ele>198.0</ele><time>2026-04-25T07:03:00.882Z</time></trkpt><trkpt lat="40.63538" lon="15.1328433"><ele>198.16666666666666</ele><time>2026-04-25T07:03:02.882Z</time></trkpt><trkpt lat="40.635425" lon="15.1329483"><ele>198.33333333333331</ele><time>2026-04-25T07:03:03.882Z</time></trkpt><trkpt lat="40.6354767" lon="15.1330783"><ele>198.5</ele><time>2026-04-25T07:03:04.882Z</time></trkpt><trkpt lat="40.63552" lon="15.1331933"><ele>198.66666666666666</ele><time>2026-04-25T07:03:05.882Z</time></trkpt><trkpt lat="40.6355583" lon="15.13328"><ele>198.83333333333331</ele><time>2026-04-25T07:03:06.882Z</time></trkpt><trkpt lat="40.6355933" lon="15.1333533"><ele>199.0</ele><time>2026-04-25T07:03:07.881Z</time></trkpt><trkpt lat="40.635625" lon="15.1335117"><ele>199.57142857142856</ele><time>2026-04-25T07:03:09.882Z</time></trkpt><trkpt lat="40.6356383" lon="15.133605"><ele>200.14285714285714</ele><time>2026-04-25T07:03:10.882Z</time></trkpt><trkpt lat="40.635655" lon="15.1337017"><ele>200.71428571428572</ele><time>2026-04-25T07:03:11.881Z</time></trkpt><trkpt lat="40.63567" lon="15.1337967"><ele>201.28571428571428</ele><time>2026-04-25T07:03:12.881Z</time></trkpt><trkpt lat="40.6356933" lon="15.1338783"><ele>201.85714285714286</ele><time>2026-04-25T07:03:13.882Z</time></trkpt><trkpt lat="40.6357267" lon="15.1339583"><ele>202.42857142857142</ele><time>2026-04-25T07:03:14.881Z</time></trkpt><trkpt lat="40.6357733" lon="15.134035"><ele>203.0</ele><time>2026-04-25T07:03:15.881Z</time></trkpt><trkpt lat="40.635815" lon="15.1341067"><ele>203.60000000000002</ele><time>2026-04-25T07:03:16.881Z</time></trkpt><trkpt lat="40.6358667" lon="15.1342483"><ele>204.20000000000002</ele><time>2026-04-25T07:03:18.881Z</time></trkpt><trkpt lat="40.6359" lon="15.1343533"><ele>204.8</ele><time>2026-04-25T07:03:19.882Z</time></trkpt><trkpt lat="40.6359383" lon="15.1344633"><ele>205.4</ele><time>2026-04-25T07:03:20.881Z</time></trkpt><trkpt lat="40.6359783" lon="15.1345583"><ele>206.0</ele><time>2026-04-25T07:03:21.882Z</time></trkpt><trkpt lat="40.63603" lon="15.13462"><ele>206.0</ele><time>2026-04-25T07:03:22.882Z</time></trkpt><trkpt lat="40.636105" lon="15.13466"><ele>206.0</ele><time>2026-04-25T07:03:23.881Z</time></trkpt><trkpt lat="40.636195" lon="15.13471"><ele>206.0</ele><time>2026-04-25T07:03:24.881Z</time></trkpt><trkpt lat="40.6363" lon="15.1347667"><ele>206.0</ele><time>2026-04-25T07:03:25.881Z</time></trkpt><trkpt lat="40.6363917" lon="15.1348217"><ele>206.0</ele><time>2026-04-25T07:03:26.881Z</time></trkpt><trkpt lat="40.6364733" lon="15.1348767"><ele>207.00000000000003</ele><time>2026-04-25T07:03:27.881Z</time></trkpt><trkpt lat="40.6365667" lon="15.1349233"><ele>208.0</ele><time>2026-04-25T07:03:28.881Z</time></trkpt><trkpt lat="40.63666" lon="15.1349717"><ele>209.0</ele><time>2026-04-25T07:03:29.881Z</time></trkpt><trkpt lat="40.636735" lon="15.1350117"><ele>210.0</ele><time>2026-04-25T07:03:30.882Z</time></trkpt><trkpt lat="40.636795" lon="15.1350517"><ele>211.00000000000003</ele><time>2026-04-25T07:03:31.881Z</time></trkpt><trkpt lat="40.6368517" lon="15.13511"><ele>212.0</ele><time>2026-04-25T07:03:32.881Z</time></trkpt><trkpt lat="40.636905" lon="15.1352017"><ele>212.0</ele><time>2026-04-25T07:03:33.882Z</time></trkpt><trkpt lat="40.6369633" lon="15.13531"><ele>212.0</ele><time>2026-04-25T07:03:34.881Z</time></trkpt><trkpt lat="40.63703" lon="15.13543"><ele>212.0</ele><time>2026-04-25T07:03:35.882Z</time></trkpt><trkpt lat="40.6370783" lon="15.135515"><ele>212.0</ele><time>2026-04-25T07:03:36.882Z</time></trkpt><trkpt lat="40.6371167" lon="15.1356083"><ele>212.0</ele><time>2026-04-25T07:03:38.881Z</time></trkpt><trkpt lat="40.637155" lon="15.1357317"><ele>213.39999999999998</ele><time>2026-04-25T07:04:13.881Z</time></trkpt><trkpt lat="40.6371783" lon="15.1358183"><ele>214.79999999999998</ele><time>2026-04-25T07:04:14.882Z</time></trkpt><trkpt lat="40.6372033" lon="15.1359183"><ele>216.2</ele><time>2026-04-25T07:04:15.882Z</time></trkpt><trkpt lat="40.6372383" lon="15.1360367"><ele>217.6</ele><time>2026-04-25T07:04:16.882Z</time></trkpt><trkpt lat="40.637285" lon="15.13618"><ele>219.0</ele><time>2026-04-25T07:04:17.882Z</time></trkpt><trkpt lat="40.6373217" lon="15.1363267"><ele>219.0</ele><time>2026-04-25T07:04:18.881Z</time></trkpt><trkpt lat="40.6373533" lon="15.136455"><ele>219.0</ele><time>2026-04-25T07:04:19.881Z</time></trkpt><trkpt lat="40.63738" lon="15.1365633"><ele>219.0</ele><time>2026-04-25T07:04:20.882Z</time></trkpt><trkpt lat="40.6374133" lon="15.1366683"><ele>219.0</ele><time>2026-04-25T07:04:21.882Z</time></trkpt><trkpt lat="40.6374467" lon="15.1367567"><ele>219.0</ele><time>2026-04-25T07:04:22.881Z</time></trkpt><trkpt lat="40.6374767" lon="15.1368383"><ele>219.0</ele><time>2026-04-25T07:04:23.881Z</time></trkpt><trkpt lat="40.6375217" lon="15.1369667"><ele>219.66666666666666</ele><time>2026-04-25T07:04:25.882Z</time></trkpt><trkpt lat="40.6375933" lon="15.137015"><ele>220.33333333333331</ele><time>2026-04-25T07:04:27.881Z</time></trkpt><trkpt lat="40.6376983" lon="15.13695"><ele>221.0</ele><time>2026-04-25T07:04:29.882Z</time></trkpt><trkpt lat="40.637765" lon="15.1369183"><ele>221.66666666666666</ele><time>2026-04-25T07:04:30.882Z</time></trkpt><trkpt lat="40.6378283" lon="15.13688"><ele>222.33333333333331</ele><time>2026-04-25T07:04:31.882Z</time></trkpt><trkpt lat="40.6379217" lon="15.136835"><ele>223.0</ele><time>2026-04-25T07:04:33.882Z</time></trkpt><trkpt lat="40.6379883" lon="15.1368633"><ele>223.33333333333331</ele><time>2026-04-25T07:04:35.882Z</time></trkpt><trkpt lat="40.63804" lon="15.13695"><ele>223.66666666666666</ele><time>2026-04-25T07:04:37.881Z</time></trkpt><trkpt lat="40.638075" lon="15.13703"><ele>224.0</ele><time>2026-04-25T07:04:38.882Z</time></trkpt><trkpt lat="40.6381117" lon="15.1371167"><ele>224.33333333333331</ele><time>2026-04-25T07:04:39.881Z</time></trkpt><trkpt lat="40.63815" lon="15.1371867"><ele>224.66666666666666</ele><time>2026-04-25T07:04:40.881Z</time></trkpt><trkpt lat="40.6382067" lon="15.1372267"><ele>225.0</ele><time>2026-04-25T07:04:42.882Z</time></trkpt><trkpt lat="40.63829" lon="15.1371733"><ele>225.0</ele><time>2026-04-25T07:04:54.881Z</time></trkpt><trkpt lat="40.6383717" lon="15.1371267"><ele>225.0</ele><time>2026-04-25T07:04:55.881Z</time></trkpt><trkpt lat="40.6384767" lon="15.13708"><ele>225.0</ele><time>2026-04-25T07:04:56.881Z</time></trkpt><trkpt lat="40.6385867" lon="15.13702"><ele>225.0</ele><time>2026-04-25T07:04:57.881Z</time></trkpt><trkpt lat="40.63869" lon="15.1369417"><ele>225.0</ele><time>2026-04-25T07:04:58.882Z</time></trkpt><trkpt lat="40.6387833" lon="15.13686"><ele>225.2</ele><time>2026-04-25T07:04:59.882Z</time></trkpt><trkpt lat="40.6388667" lon="15.136775"><ele>225.4</ele><time>2026-04-25T07:05:00.881Z</time></trkpt><trkpt lat="40.63895" lon="15.1366967"><ele>225.60000000000002</ele><time>2026-04-25T07:05:01.881Z</time></trkpt><trkpt lat="40.639035" lon="15.13661"><ele>225.8</ele><time>2026-04-25T07:05:02.882Z</time></trkpt><trkpt lat="40.6391117" lon="15.1365283"><ele>226.0</ele><time>2026-04-25T07:05:03.882Z</time></trkpt><trkpt lat="40.6391833" lon="15.1364567"><ele>225.33333333333331</ele><time>2026-04-25T07:05:04.881Z</time></trkpt><trkpt lat="40.63925" lon="15.1363983"><ele>224.66666666666666</ele><time>2026-04-25T07:05:05.882Z</time></trkpt><trkpt lat="40.6393133" lon="15.13635"><ele>224.0</ele><time>2026-04-25T07:05:06.882Z</time></trkpt><trkpt lat="40.6393767" lon="15.1363033"><ele>223.33333333333331</ele><time>2026-04-25T07:05:07.882Z</time></trkpt><trkpt lat="40.6394317" lon="15.1362617"><ele>222.66666666666666</ele><time>2026-04-25T07:05:08.882Z</time></trkpt><trkpt lat="40.639535" lon="15.1362233"><ele>222.0</ele><time>2026-04-25T07:05:10.882Z</time></trkpt><trkpt lat="40.63961" lon="15.1362667"><ele>222.0</ele><time>2026-04-25T07:05:13.882Z</time></trkpt><trkpt lat="40.639645" lon="15.1363517"><ele>222.0</ele><time>2026-04-25T07:05:15.882Z</time></trkpt><trkpt lat="40.6396983" lon="15.1365"><ele>222.0</ele><time>2026-04-25T07:05:17.882Z</time></trkpt><trkpt lat="40.6397267" lon="15.1365967"><ele>222.0</ele><time>2026-04-25T07:05:18.881Z</time></trkpt><trkpt lat="40.6397583" lon="15.1366933"><ele>222.0</ele><time>2026-04-25T07:05:19.881Z</time></trkpt><trkpt lat="40.6397817" lon="15.1367867"><ele>222.0</ele><time>2026-04-25T07:05:20.882Z</time></trkpt><trkpt lat="40.6398067" lon="15.1368633"><ele>223.2</ele><time>2026-04-25T07:05:21.882Z</time></trkpt><trkpt lat="40.639845" lon="15.1369633"><ele>224.39999999999998</ele><time>2026-04-25T07:05:23.882Z</time></trkpt><trkpt lat="40.639885" lon="15.137065"><ele>225.60000000000002</ele><time>2026-04-25T07:05:28.882Z</time></trkpt><trkpt lat="40.639855" lon="15.1371633"><ele>226.8</ele><time>2026-04-25T07:05:30.882Z</time></trkpt><trkpt lat="40.6397917" lon="15.1373083"><ele>228.0</ele><time>2026-04-25T07:05:32.882Z</time></trkpt><trkpt lat="40.6397567" lon="15.137395"><ele>229.2</ele><time>2026-04-25T07:05:33.882Z</time></trkpt><trkpt lat="40.63972" lon="15.1374967"><ele>230.4</ele><time>2026-04-25T07:05:34.881Z</time></trkpt><trkpt lat="40.6396867" lon="15.1376067"><ele>231.59999999999997</ele><time>2026-04-25T07:05:35.882Z</time></trkpt><trkpt lat="40.6396433" lon="15.13771"><ele>232.79999999999998</ele><time>2026-04-25T07:05:36.881Z</time></trkpt><trkpt lat="40.639595" lon="15.13781"><ele>234.0</ele><time>2026-04-25T07:05:37.882Z</time></trkpt><trkpt lat="40.6395383" lon="15.1379183"><ele>234.0</ele><time>2026-04-25T07:05:38.881Z</time></trkpt><trkpt lat="40.6394883" lon="15.138035"><ele>233.99999999999997</ele><time>2026-04-25T07:05:39.882Z</time></trkpt><trkpt lat="40.6394317" lon="15.1381567"><ele>233.99999999999997</ele><time>2026-04-25T07:05:40.881Z</time></trkpt><trkpt lat="40.639375" lon="15.1382917"><ele>234.0</ele><time>2026-04-25T07:05:41.881Z</time></trkpt><trkpt lat="40.6393167" lon="15.1384283"><ele>234.0</ele><time>2026-04-25T07:05:42.881Z</time></trkpt><trkpt lat="40.639255" lon="15.1385683"><ele>234.25</ele><time>2026-04-25T07:05:43.882Z</time></trkpt><trkpt lat="40.6391817" lon="15.1387017"><ele>234.5</ele><time>2026-04-25T07:05:44.881Z</time></trkpt><trkpt lat="40.6390933" lon="15.13883"><ele>234.75</ele><time>2026-04-25T07:05:45.881Z</time></trkpt><trkpt lat="40.639015" lon="15.1389617"><ele>235.0</ele><time>2026-04-25T07:05:46.881Z</time></trkpt><trkpt lat="40.6389383" lon="15.1390967"><ele>235.75</ele><time>2026-04-25T07:05:47.882Z</time></trkpt><trkpt lat="40.63886" lon="15.139235"><ele>236.5</ele><time>2026-04-25T07:05:48.881Z</time></trkpt><trkpt lat="40.638785" lon="15.1393717"><ele>237.25</ele><time>2026-04-25T07:05:49.882Z</time></trkpt><trkpt lat="40.6387133" lon="15.1395083"><ele>238.0</ele><time>2026-04-25T07:05:50.882Z</time></trkpt><trkpt lat="40.6386417" lon="15.1396467"><ele>238.2</ele><time>2026-04-25T07:05:51.882Z</time></trkpt><trkpt lat="40.6385683" lon="15.13977"><ele>238.4</ele><time>2026-04-25T07:05:52.882Z</time></trkpt><trkpt lat="40.6384917" lon="15.1398733"><ele>238.59999999999997</ele><time>2026-04-25T07:05:53.882Z</time></trkpt><trkpt lat="40.6384233" lon="15.139975"><ele>238.79999999999998</ele><time>2026-04-25T07:05:54.881Z</time></trkpt><trkpt lat="40.6383567" lon="15.1400733"><ele>239.0</ele><time>2026-04-25T07:05:55.881Z</time></trkpt><trkpt lat="40.6382917" lon="15.140165"><ele>239.0</ele><time>2026-04-25T07:05:56.881Z</time></trkpt><trkpt lat="40.6382267" lon="15.1402583"><ele>238.99999999999997</ele><time>2026-04-25T07:05:57.881Z</time></trkpt><trkpt lat="40.638165" lon="15.1403517"><ele>238.99999999999997</ele><time>2026-04-25T07:05:58.881Z</time></trkpt><trkpt lat="40.63811" lon="15.1404433"><ele>239.0</ele><time>2026-04-25T07:05:59.881Z</time></trkpt><trkpt lat="40.6380467" lon="15.14052"><ele>239.0</ele><time>2026-04-25T07:06:00.881Z</time></trkpt><trkpt lat="40.637975" lon="15.140595"><ele>239.0</ele><time>2026-04-25T07:06:01.882Z</time></trkpt><trkpt lat="40.63789" lon="15.1406717"><ele>238.99999999999997</ele><time>2026-04-25T07:06:02.882Z</time></trkpt><trkpt lat="40.6378033" lon="15.1407467"><ele>238.99999999999997</ele><time>2026-04-25T07:06:03.881Z</time></trkpt><trkpt lat="40.6377183" lon="15.140825"><ele>239.0</ele><time>2026-04-25T07:06:04.881Z</time></trkpt><trkpt lat="40.6376383" lon="15.140895"><ele>239.0</ele><time>2026-04-25T07:06:05.881Z</time></trkpt><trkpt lat="40.637565" lon="15.1409667"><ele>239.33333333333334</ele><time>2026-04-25T07:06:06.881Z</time></trkpt><trkpt lat="40.637495" lon="15.1410433"><ele>239.66666666666669</ele><time>2026-04-25T07:06:07.882Z</time></trkpt><trkpt lat="40.6374283" lon="15.14112"><ele>240.0</ele><time>2026-04-25T07:06:08.881Z</time></trkpt><trkpt lat="40.6373617" lon="15.1411933"><ele>240.33333333333331</ele><time>2026-04-25T07:06:09.881Z</time></trkpt><trkpt lat="40.6373067" lon="15.1412683"><ele>240.66666666666666</ele><time>2026-04-25T07:06:10.882Z</time></trkpt><trkpt lat="40.6372533" lon="15.1413317"><ele>241.0</ele><time>2026-04-25T07:06:11.881Z</time></trkpt><trkpt lat="40.637185" lon="15.141415"><ele>240.99999999999997</ele><time>2026-04-25T07:06:13.881Z</time></trkpt><trkpt lat="40.6371967" lon="15.14151"><ele>241.0</ele><time>2026-04-25T07:06:16.881Z</time></trkpt><trkpt lat="40.637265" lon="15.1416033"><ele>241.0</ele><time>2026-04-25T07:06:18.882Z</time></trkpt><trkpt lat="40.6373133" lon="15.141665"><ele>241.0</ele><time>2026-04-25T07:06:19.881Z</time></trkpt><trkpt lat="40.63737" lon="15.141725"><ele>240.99999999999997</ele><time>2026-04-25T07:06:20.882Z</time></trkpt><trkpt lat="40.6374183" lon="15.1417983"><ele>241.0</ele><time>2026-04-25T07:06:21.882Z</time></trkpt><trkpt lat="40.6374733" lon="15.1418783"><ele>241.49999999999997</ele><time>2026-04-25T07:06:22.882Z</time></trkpt><trkpt lat="40.63753" lon="15.1419683"><ele>242.0</ele><time>2026-04-25T07:06:23.881Z</time></trkpt><trkpt lat="40.6375783" lon="15.1420617"><ele>242.5</ele><time>2026-04-25T07:06:24.882Z</time></trkpt><trkpt lat="40.637615" lon="15.1421383"><ele>243.0</ele><time>2026-04-25T07:06:25.881Z</time></trkpt><trkpt lat="40.6376483" lon="15.1422133"><ele>243.49999999999997</ele><time>2026-04-25T07:06:26.882Z</time></trkpt><trkpt lat="40.6376917" lon="15.142295"><ele>244.0</ele><time>2026-04-25T07:06:27.882Z</time></trkpt><trkpt lat="40.6377433" lon="15.142385"><ele>244.39999999999998</ele><time>2026-04-25T07:06:28.881Z</time></trkpt><trkpt lat="40.6377933" lon="15.1424833"><ele>244.79999999999998</ele><time>2026-04-25T07:06:29.882Z</time></trkpt><trkpt lat="40.6378483" lon="15.1425817"><ele>245.20000000000002</ele><time>2026-04-25T07:06:30.882Z</time></trkpt><trkpt lat="40.6379133" lon="15.1426783"><ele>245.60000000000002</ele><time>2026-04-25T07:06:31.881Z</time></trkpt><trkpt lat="40.6379883" lon="15.1427767"><ele>246.0</ele><time>2026-04-25T07:06:32.881Z</time></trkpt><trkpt lat="40.6380617" lon="15.142865"><ele>247.0</ele><time>2026-04-25T07:06:33.881Z</time></trkpt><trkpt lat="40.63814" lon="15.1429583"><ele>248.00000000000003</ele><time>2026-04-25T07:06:34.881Z</time></trkpt><trkpt lat="40.6382083" lon="15.1430517"><ele>249.00000000000003</ele><time>2026-04-25T07:06:35.882Z</time></trkpt><trkpt lat="40.638275" lon="15.1431483"><ele>250.0</ele><time>2026-04-25T07:06:36.881Z</time></trkpt><trkpt lat="40.6383417" lon="15.1432517"><ele>251.0</ele><time>2026-04-25T07:06:37.881Z</time></trkpt><trkpt lat="40.638405" lon="15.143345"><ele>251.60000000000002</ele><time>2026-04-25T07:06:38.882Z</time></trkpt><trkpt lat="40.6384733" lon="15.1434233"><ele>252.20000000000002</ele><time>2026-04-25T07:06:39.882Z</time></trkpt><trkpt lat="40.6385567" lon="15.1434867"><ele>252.79999999999998</ele><time>2026-04-25T07:06:40.881Z</time></trkpt><trkpt lat="40.6386483" lon="15.1435467"><ele>253.39999999999998</ele><time>2026-04-25T07:06:41.882Z</time></trkpt><trkpt lat="40.638755" lon="15.1436233"><ele>254.0</ele><time>2026-04-25T07:06:42.881Z</time></trkpt><trkpt lat="40.6388617" lon="15.14371"><ele>254.6</ele><time>2026-04-25T07:06:43.881Z</time></trkpt><trkpt lat="40.63896" lon="15.143785"><ele>255.2</ele><time>2026-04-25T07:06:44.882Z</time></trkpt><trkpt lat="40.6390467" lon="15.1438567"><ele>255.79999999999998</ele><time>2026-04-25T07:06:45.881Z</time></trkpt><trkpt lat="40.639115" lon="15.143915"><ele>256.4</ele><time>2026-04-25T07:06:46.882Z</time></trkpt><trkpt lat="40.639175" lon="15.143965"><ele>257.0</ele><time>2026-04-25T07:06:47.882Z</time></trkpt><trkpt lat="40.639255" lon="15.1440533"><ele>257.0</ele><time>2026-04-25T07:06:49.881Z</time></trkpt><trkpt lat="40.6393317" lon="15.1440417"><ele>257.0</ele><time>2026-04-25T07:06:52.882Z</time></trkpt><trkpt lat="40.6393417" lon="15.143955"><ele>257.0</ele><time>2026-04-25T07:07:00.881Z</time></trkpt><trkpt lat="40.639415" lon="15.14381"><ele>257.0</ele><time>2026-04-25T07:07:02.881Z</time></trkpt><trkpt lat="40.6394667" lon="15.1437283"><ele>257.0</ele><time>2026-04-25T07:07:03.882Z</time></trkpt><trkpt lat="40.639525" lon="15.143635"><ele>257.0</ele><time>2026-04-25T07:07:04.881Z</time></trkpt><trkpt lat="40.639595" lon="15.1435333"><ele>257.2</ele><time>2026-04-25T07:07:05.882Z</time></trkpt><trkpt lat="40.6396733" lon="15.14343"><ele>257.4</ele><time>2026-04-25T07:07:06.881Z</time></trkpt><trkpt lat="40.6397567" lon="15.1433117"><ele>257.6</ele><time>2026-04-25T07:07:07.882Z</time></trkpt><trkpt lat="40.6398283" lon="15.1432017"><ele>257.8</ele><time>2026-04-25T07:07:08.882Z</time></trkpt><trkpt lat="40.639895" lon="15.1431017"><ele>258.0</ele><time>2026-04-25T07:07:09.881Z</time></trkpt><trkpt lat="40.6399567" lon="15.1430067"><ele>258.0</ele><time>2026-04-25T07:07:10.882Z</time></trkpt><trkpt lat="40.6400117" lon="15.142925"><ele>258.0</ele><time>2026-04-25T07:07:11.881Z</time></trkpt><trkpt lat="40.6400583" lon="15.1428617"><ele>258.0</ele><time>2026-04-25T07:07:12.882Z</time></trkpt><trkpt lat="40.6401267" lon="15.1427667"><ele>258.0</ele><time>2026-04-25T07:07:14.881Z</time></trkpt><trkpt lat="40.6402183" lon="15.1426583"><ele>258.0</ele><time>2026-04-25T07:07:16.881Z</time></trkpt><trkpt lat="40.64027" lon="15.142585"><ele>258.0</ele><time>2026-04-25T07:07:17.882Z</time></trkpt><trkpt lat="40.6403233" lon="15.142505"><ele>257.8</ele><time>2026-04-25T07:07:18.881Z</time></trkpt><trkpt lat="40.6403833" lon="15.1424167"><ele>257.6</ele><time>2026-04-25T07:07:19.882Z</time></trkpt><trkpt lat="40.640425" lon="15.1423033"><ele>257.4</ele><time>2026-04-25T07:07:20.881Z</time></trkpt><trkpt lat="40.6404617" lon="15.1421767"><ele>257.2</ele><time>2026-04-25T07:07:21.882Z</time></trkpt><trkpt lat="40.6405033" lon="15.142055"><ele>257.0</ele><time>2026-04-25T07:07:22.881Z</time></trkpt><trkpt lat="40.6405483" lon="15.1419383"><ele>257.0</ele><time>2026-04-25T07:07:23.881Z</time></trkpt><trkpt lat="40.6405983" lon="15.14183"><ele>257.0</ele><time>2026-04-25T07:07:24.882Z</time></trkpt><trkpt lat="40.640645" lon="15.14173"><ele>257.0</ele><time>2026-04-25T07:07:25.881Z</time></trkpt><trkpt lat="40.64069" lon="15.1416317"><ele>257.0</ele><time>2026-04-25T07:07:26.881Z</time></trkpt><trkpt lat="40.640735" lon="15.141545"><ele>257.0</ele><time>2026-04-25T07:07:27.882Z</time></trkpt><trkpt lat="40.6407833" lon="15.1414683"><ele>257.0</ele><time>2026-04-25T07:07:28.882Z</time></trkpt><trkpt lat="40.6408333" lon="15.14139"><ele>256.8</ele><time>2026-04-25T07:07:29.882Z</time></trkpt><trkpt lat="40.6409033" lon="15.1413083"><ele>256.6</ele><time>2026-04-25T07:07:30.881Z</time></trkpt><trkpt lat="40.64098" lon="15.1412233"><ele>256.40000000000003</ele><time>2026-04-25T07:07:31.881Z</time></trkpt><trkpt lat="40.6410583" lon="15.1411417"><ele>256.2</ele><time>2026-04-25T07:07:32.881Z</time></trkpt><trkpt lat="40.641125" lon="15.1410667"><ele>256.0</ele><time>2026-04-25T07:07:33.881Z</time></trkpt><trkpt lat="40.641185" lon="15.141005"><ele>255.99999999999997</ele><time>2026-04-25T07:07:34.881Z</time></trkpt><trkpt lat="40.641245" lon="15.1409517"><ele>256.0</ele><time>2026-04-25T07:07:35.882Z</time></trkpt><trkpt lat="40.6413083" lon="15.1409033"><ele>256.0</ele><time>2026-04-25T07:07:36.881Z</time></trkpt><trkpt lat="40.6413817" lon="15.1408533"><ele>256.0</ele><time>2026-04-25T07:07:37.882Z</time></trkpt><trkpt lat="40.641465" lon="15.140795"><ele>255.99999999999997</ele><time>2026-04-25T07:07:38.882Z</time></trkpt><trkpt lat="40.6415483" lon="15.1407467"><ele>256.0</ele><time>2026-04-25T07:07:39.882Z</time></trkpt><trkpt lat="40.6416317" lon="15.140705"><ele>255.60000000000002</ele><time>2026-04-25T07:07:40.881Z</time></trkpt><trkpt lat="40.64172" lon="15.14067"><ele>255.20000000000002</ele><time>2026-04-25T07:07:41.881Z</time></trkpt><trkpt lat="40.641815" lon="15.14064"><ele>254.79999999999998</ele><time>2026-04-25T07:07:42.881Z</time></trkpt><trkpt lat="40.641915" lon="15.1405917"><ele>254.39999999999998</ele><time>2026-04-25T07:07:43.882Z</time></trkpt><trkpt lat="40.642005" lon="15.140545"><ele>254.0</ele><time>2026-04-25T07:07:44.882Z</time></trkpt><trkpt lat="40.64208" lon="15.1405067"><ele>254.0</ele><time>2026-04-25T07:07:45.881Z</time></trkpt><trkpt lat="40.6421633" lon="15.1404733"><ele>253.99999999999997</ele><time>2026-04-25T07:07:46.882Z</time></trkpt><trkpt lat="40.642245" lon="15.14043"><ele>253.99999999999997</ele><time>2026-04-25T07:07:47.881Z</time></trkpt><trkpt lat="40.6423267" lon="15.1403733"><ele>254.0</ele><time>2026-04-25T07:07:48.881Z</time></trkpt><trkpt lat="40.6424" lon="15.1403167"><ele>254.0</ele><time>2026-04-25T07:07:49.882Z</time></trkpt><trkpt lat="40.642485" lon="15.1402433"><ele>254.00000000000003</ele><time>2026-04-25T07:07:51.881Z</time></trkpt><trkpt lat="40.6425517" lon="15.1402483"><ele>254.0</ele><time>2026-04-25T07:07:54.882Z</time></trkpt><trkpt lat="40.6425733" lon="15.1403317"><ele>254.0</ele><time>2026-04-25T07:08:04.882Z</time></trkpt><trkpt lat="40.642615" lon="15.1404367"><ele>254.0</ele><time>2026-04-25T07:08:06.882Z</time></trkpt><trkpt lat="40.6426683" lon="15.1405433"><ele>254.00000000000003</ele><time>2026-04-25T07:08:08.881Z</time></trkpt><trkpt lat="40.6427417" lon="15.1406783"><ele>254.0</ele><time>2026-04-25T07:08:10.881Z</time></trkpt><trkpt lat="40.642785" lon="15.14075"><ele>255.33333333333334</ele><time>2026-04-25T07:08:11.882Z</time></trkpt><trkpt lat="40.6428267" lon="15.140835"><ele>256.6666666666667</ele><time>2026-04-25T07:08:12.881Z</time></trkpt><trkpt lat="40.6428733" lon="15.1409267"><ele>258.0</ele><time>2026-04-25T07:08:13.882Z</time></trkpt><trkpt lat="40.6429133" lon="15.14102"><ele>259.3333333333333</ele><time>2026-04-25T07:08:14.882Z</time></trkpt><trkpt lat="40.6429517" lon="15.1410983"><ele>260.66666666666663</ele><time>2026-04-25T07:08:15.881Z</time></trkpt><trkpt lat="40.64301" lon="15.1412417"><ele>262.0</ele><time>2026-04-25T07:08:17.881Z</time></trkpt><trkpt lat="40.6430367" lon="15.1413183"><ele>262.0</ele><time>2026-04-25T07:08:18.881Z</time></trkpt><trkpt lat="40.6430667" lon="15.1413967"><ele>262.0</ele><time>2026-04-25T07:08:19.882Z</time></trkpt><trkpt lat="40.6430933" lon="15.141475"><ele>262.0</ele><time>2026-04-25T07:08:20.881Z</time></trkpt><trkpt lat="40.643125" lon="15.141555"><ele>262.0</ele><time>2026-04-25T07:08:21.881Z</time></trkpt><trkpt lat="40.6431617" lon="15.141645"><ele>262.0</ele><time>2026-04-25T07:08:22.881Z</time></trkpt><trkpt lat="40.643195" lon="15.14175"><ele>262.0</ele><time>2026-04-25T07:08:23.882Z</time></trkpt><trkpt lat="40.64323" lon="15.14185"><ele>262.0</ele><time>2026-04-25T07:08:24.882Z</time></trkpt><trkpt lat="40.643265" lon="15.141945"><ele>262.66666666666663</ele><time>2026-04-25T07:08:25.881Z</time></trkpt><trkpt lat="40.643305" lon="15.142035"><ele>263.3333333333333</ele><time>2026-04-25T07:08:26.881Z</time></trkpt><trkpt lat="40.6433483" lon="15.1421183"><ele>264.0</ele><time>2026-04-25T07:08:27.882Z</time></trkpt><trkpt lat="40.6433917" lon="15.1421983"><ele>264.6666666666667</ele><time>2026-04-25T07:08:28.882Z</time></trkpt><trkpt lat="40.6434267" lon="15.1422683"><ele>265.33333333333337</ele><time>2026-04-25T07:08:29.881Z</time></trkpt><trkpt lat="40.643485" lon="15.1423783"><ele>266.0</ele><time>2026-04-25T07:08:31.881Z</time></trkpt><trkpt lat="40.6435467" lon="15.14247"><ele>267.0</ele><time>2026-04-25T07:08:33.882Z</time></trkpt><trkpt lat="40.643605" lon="15.1425767"><ele>268.0</ele><time>2026-04-25T07:08:35.881Z</time></trkpt><trkpt lat="40.6436517" lon="15.1427217"><ele>269.0</ele><time>2026-04-25T07:08:37.881Z</time></trkpt><trkpt lat="40.643675" lon="15.1428083"><ele>270.0</ele><time>2026-04-25T07:08:38.881Z</time></trkpt><trkpt lat="40.6437017" lon="15.1428967"><ele>271.0</ele><time>2026-04-25T07:08:39.881Z</time></trkpt><trkpt lat="40.6437283" lon="15.1429733"><ele>272.0</ele><time>2026-04-25T07:08:40.882Z</time></trkpt><trkpt lat="40.6437717" lon="15.1430683"><ele>272.83333333333337</ele><time>2026-04-25T07:08:42.881Z</time></trkpt><trkpt lat="40.6438367" lon="15.1430867"><ele>273.6666666666667</ele><time>2026-04-25T07:08:44.881Z</time></trkpt><trkpt lat="40.6439167" lon="15.1430467"><ele>274.5</ele><time>2026-04-25T07:08:46.882Z</time></trkpt><trkpt lat="40.643995" lon="15.143025"><ele>275.3333333333333</ele><time>2026-04-25T07:08:48.881Z</time></trkpt><trkpt lat="40.6440633" lon="15.1430633"><ele>276.16666666666663</ele><time>2026-04-25T07:08:50.881Z</time></trkpt><trkpt lat="40.644115" lon="15.14316"><ele>277.0</ele><time>2026-04-25T07:08:52.882Z</time></trkpt><trkpt lat="40.6441917" lon="15.1432967"><ele>277.8333333333333</ele><time>2026-04-25T07:08:54.882Z</time></trkpt><trkpt lat="40.644245" lon="15.1433567"><ele>278.66666666666663</ele><time>2026-04-25T07:08:55.882Z</time></trkpt><trkpt lat="40.6443" lon="15.1434133"><ele>279.5</ele><time>2026-04-25T07:08:56.882Z</time></trkpt><trkpt lat="40.6443567" lon="15.1434583"><ele>280.3333333333333</ele><time>2026-04-25T07:08:57.881Z</time></trkpt><trkpt lat="40.6444567" lon="15.1435717"><ele>281.1666666666667</ele><time>2026-04-25T07:08:59.881Z</time></trkpt><trkpt lat="40.6445" lon="15.1436417"><ele>282.0</ele><time>2026-04-25T07:09:00.882Z</time></trkpt><trkpt lat="40.6445417" lon="15.1437183"><ele>282.42857142857144</ele><time>2026-04-25T07:09:01.881Z</time></trkpt><trkpt lat="40.6445833" lon="15.1437917"><ele>282.85714285714283</ele><time>2026-04-25T07:09:02.882Z</time></trkpt><trkpt lat="40.644625" lon="15.14387"><ele>283.2857142857143</ele><time>2026-04-25T07:09:03.882Z</time></trkpt><trkpt lat="40.6446633" lon="15.1439517"><ele>283.7142857142857</ele><time>2026-04-25T07:09:04.882Z</time></trkpt><trkpt lat="40.6447" lon="15.14404"><ele>284.14285714285717</ele><time>2026-04-25T07:09:05.882Z</time></trkpt><trkpt lat="40.6447367" lon="15.1441183"><ele>284.57142857142856</ele><time>2026-04-25T07:09:06.881Z</time></trkpt><trkpt lat="40.6447767" lon="15.144195"><ele>285.0</ele><time>2026-04-25T07:09:07.882Z</time></trkpt><trkpt lat="40.6448133" lon="15.1442833"><ele>286.0</ele><time>2026-04-25T07:09:08.882Z</time></trkpt><trkpt lat="40.6448517" lon="15.144375"><ele>287.0</ele><time>2026-04-25T07:09:09.881Z</time></trkpt><trkpt lat="40.64489" lon="15.1444633"><ele>288.0</ele><time>2026-04-25T07:09:10.881Z</time></trkpt><trkpt lat="40.6449333" lon="15.1445533"><ele>289.0</ele><time>2026-04-25T07:09:11.882Z</time></trkpt><trkpt lat="40.6449767" lon="15.1446467"><ele>290.0</ele><time>2026-04-25T07:09:12.882Z</time></trkpt><trkpt lat="40.6450283" lon="15.1447283"><ele>291.0</ele><time>2026-04-25T07:09:13.882Z</time></trkpt><trkpt lat="40.64508" lon="15.1447983"><ele>291.0</ele><time>2026-04-25T07:09:14.882Z</time></trkpt><trkpt lat="40.64512" lon="15.1448717"><ele>291.0</ele><time>2026-04-25T07:09:15.882Z</time></trkpt><trkpt lat="40.6451617" lon="15.144945"><ele>291.0</ele><time>2026-04-25T07:09:16.881Z</time></trkpt><trkpt lat="40.64521" lon="15.14502"><ele>291.0</ele><time>2026-04-25T07:09:17.882Z</time></trkpt><trkpt lat="40.64526" lon="15.1450967"><ele>291.0</ele><time>2026-04-25T07:09:18.882Z</time></trkpt><trkpt lat="40.645305" lon="15.1451733"><ele>291.0</ele><time>2026-04-25T07:09:19.882Z</time></trkpt><trkpt lat="40.64538" lon="15.1452767"><ele>292.6666666666667</ele><time>2026-04-25T07:09:21.882Z</time></trkpt><trkpt lat="40.6454267" lon="15.1453467"><ele>294.3333333333333</ele><time>2026-04-25T07:09:23.882Z</time></trkpt><trkpt lat="40.64545" lon="15.14545"><ele>296.0</ele><time>2026-04-25T07:09:25.881Z</time></trkpt><trkpt lat="40.64545" lon="15.1455583"><ele>297.66666666666663</ele><time>2026-04-25T07:09:27.882Z</time></trkpt><trkpt lat="40.645425" lon="15.145685"><ele>299.3333333333333</ele><time>2026-04-25T07:09:29.882Z</time></trkpt><trkpt lat="40.6453883" lon="15.1458117"><ele>301.0</ele><time>2026-04-25T07:09:31.882Z</time></trkpt><trkpt lat="40.6453483" lon="15.1459717"><ele>301.8333333333333</ele><time>2026-04-25T07:09:33.881Z</time></trkpt><trkpt lat="40.645315" lon="15.1461"><ele>302.66666666666663</ele><time>2026-04-25T07:09:35.881Z</time></trkpt><trkpt lat="40.6453133" lon="15.1462283"><ele>303.5</ele><time>2026-04-25T07:09:37.881Z</time></trkpt><trkpt lat="40.6453233" lon="15.1463133"><ele>304.3333333333333</ele><time>2026-04-25T07:09:38.882Z</time></trkpt><trkpt lat="40.6453483" lon="15.146415"><ele>305.1666666666667</ele><time>2026-04-25T07:09:39.881Z</time></trkpt><trkpt lat="40.645385" lon="15.1465333"><ele>306.0</ele><time>2026-04-25T07:09:40.882Z</time></trkpt><trkpt lat="40.6454183" lon="15.1466633"><ele>307.2</ele><time>2026-04-25T07:09:41.881Z</time></trkpt><trkpt lat="40.6454433" lon="15.14679"><ele>308.40000000000003</ele><time>2026-04-25T07:09:42.881Z</time></trkpt><trkpt lat="40.645465" lon="15.1469083"><ele>309.6</ele><time>2026-04-25T07:09:43.882Z</time></trkpt><trkpt lat="40.6454783" lon="15.147035"><ele>310.8</ele><time>2026-04-25T07:09:44.881Z</time></trkpt><trkpt lat="40.6454917" lon="15.1471567"><ele>312.0</ele><time>2026-04-25T07:09:45.882Z</time></trkpt><trkpt lat="40.6455067" lon="15.1472533"><ele>312.2</ele><time>2026-04-25T07:09:46.881Z</time></trkpt><trkpt lat="40.6455383" lon="15.1473833"><ele>312.4</ele><time>2026-04-25T07:09:48.882Z</time></trkpt><trkpt lat="40.6455733" lon="15.1474717"><ele>312.6</ele><time>2026-04-25T07:09:50.881Z</time></trkpt><trkpt lat="40.6456033" lon="15.1475583"><ele>312.8</ele><time>2026-04-25T07:09:54.882Z</time></trkpt><trkpt lat="40.645695" lon="15.1476117"><ele>313.0</ele><time>2026-04-25T07:09:57.881Z</time></trkpt><trkpt lat="40.6458033" lon="15.147655"><ele>313.0</ele><time>2026-04-25T07:09:59.882Z</time></trkpt><trkpt lat="40.64588" lon="15.1476833"><ele>313.0</ele><time>2026-04-25T07:10:00.881Z</time></trkpt><trkpt lat="40.6459633" lon="15.1477067"><ele>313.0</ele><time>2026-04-25T07:10:01.882Z</time></trkpt><trkpt lat="40.6460367" lon="15.14772"><ele>313.0</ele><time>2026-04-25T07:10:02.882Z</time></trkpt><trkpt lat="40.6461033" lon="15.14774"><ele>313.0</ele><time>2026-04-25T07:10:03.881Z</time></trkpt><trkpt lat="40.6461867" lon="15.1477667"><ele>313.0</ele><time>2026-04-25T07:10:04.882Z</time></trkpt><trkpt lat="40.646305" lon="15.1477867"><ele>315.66666666666663</ele><time>2026-04-25T07:10:05.882Z</time></trkpt><trkpt lat="40.646465" lon="15.1478217"><ele>318.3333333333333</ele><time>2026-04-25T07:10:06.882Z</time></trkpt><trkpt lat="40.64664" lon="15.1478517"><ele>321.0</ele><time>2026-04-25T07:10:07.882Z</time></trkpt><trkpt lat="40.6467933" lon="15.1478783"><ele>321.0</ele><time>2026-04-25T07:10:08.881Z</time></trkpt><trkpt lat="40.6469367" lon="15.14791"><ele>321.0</ele><time>2026-04-25T07:10:09.882Z</time></trkpt><trkpt lat="40.647075" lon="15.1479283"><ele>321.0</ele><time>2026-04-25T07:10:10.881Z</time></trkpt><trkpt lat="40.647225" lon="15.1479583"><ele>321.0</ele><time>2026-04-25T07:10:11.882Z</time></trkpt><trkpt lat="40.6473717" lon="15.147975"><ele>323.3333333333333</ele><time>2026-04-25T07:10:12.882Z</time></trkpt><trkpt lat="40.6475217" lon="15.14798"><ele>325.66666666666663</ele><time>2026-04-25T07:10:13.882Z</time></trkpt><trkpt lat="40.6476717" lon="15.1479867"><ele>328.0</ele><time>2026-04-25T07:10:14.882Z</time></trkpt><trkpt lat="40.6478217" lon="15.1480017"><ele>329.5</ele><time>2026-04-25T07:10:15.881Z</time></trkpt><trkpt lat="40.6479667" lon="15.1480217"><ele>331.0</ele><time>2026-04-25T07:10:16.882Z</time></trkpt><trkpt lat="40.6481067" lon="15.1480333"><ele>332.5</ele><time>2026-04-25T07:10:17.882Z</time></trkpt><trkpt lat="40.64825" lon="15.14806"><ele>334.0</ele><time>2026-04-25T07:10:18.881Z</time></trkpt><trkpt lat="40.6483867" lon="15.148105"><ele>334.0</ele><time>2026-04-25T07:10:19.882Z</time></trkpt><trkpt lat="40.6485133" lon="15.1481483"><ele>334.0</ele><time>2026-04-25T07:10:20.882Z</time></trkpt><trkpt lat="40.6486183" lon="15.1481967"><ele>334.0</ele><time>2026-04-25T07:10:21.881Z</time></trkpt><trkpt lat="40.64871" lon="15.148235"><ele>334.0</ele><time>2026-04-25T07:10:22.882Z</time></trkpt><trkpt lat="40.6487867" lon="15.1482617"><ele>334.0</ele><time>2026-04-25T07:10:23.882Z</time></trkpt><trkpt lat="40.64885" lon="15.1482883"><ele>335.5</ele><time>2026-04-25T07:10:24.882Z</time></trkpt><trkpt lat="40.6489483" lon="15.1483283"><ele>337.0</ele><time>2026-04-25T07:10:26.882Z</time></trkpt><trkpt lat="40.6490167" lon="15.1483367"><ele>338.5</ele><time>2026-04-25T07:10:28.882Z</time></trkpt><trkpt lat="40.64909" lon="15.14836"><ele>340.0</ele><time>2026-04-25T07:10:30.882Z</time></trkpt><trkpt lat="40.6491533" lon="15.1483883"><ele>341.5</ele><time>2026-04-25T07:10:31.881Z</time></trkpt><trkpt lat="40.6492317" lon="15.1484117"><ele>343.0</ele><time>2026-04-25T07:10:32.881Z</time></trkpt><trkpt lat="40.6493067" lon="15.148435"><ele>343.0</ele><time>2026-04-25T07:10:33.882Z</time></trkpt><trkpt lat="40.64937" lon="15.1484483"><ele>343.0</ele><time>2026-04-25T07:10:34.881Z</time></trkpt><trkpt lat="40.649435" lon="15.148455"><ele>343.0</ele><time>2026-04-25T07:10:35.882Z</time></trkpt><trkpt lat="40.6495017" lon="15.148475"><ele>343.0</ele><time>2026-04-25T07:10:36.882Z</time></trkpt><trkpt lat="40.6495867" lon="15.148505"><ele>343.0</ele><time>2026-04-25T07:10:37.882Z</time></trkpt><trkpt lat="40.6496917" lon="15.1485433"><ele>343.0</ele><time>2026-04-25T07:10:38.881Z</time></trkpt><trkpt lat="40.6498133" lon="15.148585"><ele>343.75</ele><time>2026-04-25T07:10:39.882Z</time></trkpt><trkpt lat="40.6499333" lon="15.1486267"><ele>344.5</ele><time>2026-04-25T07:10:40.882Z</time></trkpt><trkpt lat="40.650045" lon="15.1486817"><ele>345.25</ele><time>2026-04-25T07:10:41.882Z</time></trkpt><trkpt lat="40.6501483" lon="15.1487467"><ele>346.0</ele><time>2026-04-25T07:10:42.881Z</time></trkpt><trkpt lat="40.65023" lon="15.1488217"><ele>346.0</ele><time>2026-04-25T07:10:43.882Z</time></trkpt><trkpt lat="40.6502867" lon="15.148895"><ele>346.0</ele><time>2026-04-25T07:10:44.882Z</time></trkpt><trkpt lat="40.6503183" lon="15.1490117"><ele>346.0</ele><time>2026-04-25T07:10:46.881Z</time></trkpt><trkpt lat="40.6502833" lon="15.149085"><ele>346.0</ele><time>2026-04-25T07:10:47.881Z</time></trkpt><trkpt lat="40.65024" lon="15.149185"><ele>346.0</ele><time>2026-04-25T07:10:48.881Z</time></trkpt><trkpt lat="40.650195" lon="15.1493267"><ele>346.0</ele><time>2026-04-25T07:10:49.882Z</time></trkpt><trkpt lat="40.650165" lon="15.1494917"><ele>348.66666666666663</ele><time>2026-04-25T07:10:50.881Z</time></trkpt><trkpt lat="40.6501433" lon="15.149675"><ele>351.3333333333333</ele><time>2026-04-25T07:10:51.882Z</time></trkpt><trkpt lat="40.65012" lon="15.1498683"><ele>354.0</ele><time>2026-04-25T07:10:52.882Z</time></trkpt><trkpt lat="40.650065" lon="15.15007"><ele>355.0</ele><time>2026-04-25T07:10:53.881Z</time></trkpt><trkpt lat="40.650005" lon="15.1502783"><ele>356.0</ele><time>2026-04-25T07:10:54.881Z</time></trkpt><trkpt lat="40.6499483" lon="15.1505033"><ele>357.0</ele><time>2026-04-25T07:10:55.881Z</time></trkpt><trkpt lat="40.64989" lon="15.150745"><ele>358.3333333333333</ele><time>2026-04-25T07:10:56.882Z</time></trkpt><trkpt lat="40.6498467" lon="15.150985"><ele>359.66666666666663</ele><time>2026-04-25T07:10:57.882Z</time></trkpt><trkpt lat="40.6498117" lon="15.1512217"><ele>361.0</ele><time>2026-04-25T07:10:58.881Z</time></trkpt><trkpt lat="40.6497833" lon="15.1514617"><ele>361.3333333333333</ele><time>2026-04-25T07:10:59.882Z</time></trkpt><trkpt lat="40.6497667" lon="15.15169"><ele>361.6666666666667</ele><time>2026-04-25T07:11:00.881Z</time></trkpt><trkpt lat="40.649765" lon="15.1519117"><ele>362.0</ele><time>2026-04-25T07:11:01.882Z</time></trkpt><trkpt lat="40.649775" lon="15.1521217"><ele>362.0</ele><time>2026-04-25T07:11:02.882Z</time></trkpt><trkpt lat="40.6497917" lon="15.1523217"><ele>362.0</ele><time>2026-04-25T07:11:03.881Z</time></trkpt><trkpt lat="40.649815" lon="15.1525283"><ele>362.0</ele><time>2026-04-25T07:11:04.881Z</time></trkpt><trkpt lat="40.649845" lon="15.152735"><ele>362.33333333333337</ele><time>2026-04-25T07:11:05.882Z</time></trkpt><trkpt lat="40.6498833" lon="15.15295"><ele>362.6666666666667</ele><time>2026-04-25T07:11:06.881Z</time></trkpt><trkpt lat="40.6499117" lon="15.1531683"><ele>363.0</ele><time>2026-04-25T07:11:07.882Z</time></trkpt><trkpt lat="40.6499383" lon="15.153385"><ele>364.3333333333333</ele><time>2026-04-25T07:11:08.882Z</time></trkpt><trkpt lat="40.64995" lon="15.1536033"><ele>365.66666666666663</ele><time>2026-04-25T07:11:09.882Z</time></trkpt><trkpt lat="40.6499517" lon="15.1538367"><ele>367.0</ele><time>2026-04-25T07:11:10.882Z</time></trkpt><trkpt lat="40.6499433" lon="15.15407"><ele>367.0</ele><time>2026-04-25T07:11:11.881Z</time></trkpt><trkpt lat="40.6499467" lon="15.1543"><ele>367.0</ele><time>2026-04-25T07:11:12.881Z</time></trkpt><trkpt lat="40.6499417" lon="15.1545183"><ele>367.0</ele><time>2026-04-25T07:11:13.881Z</time></trkpt><trkpt lat="40.64994" lon="15.1547167"><ele>367.5</ele><time>2026-04-25T07:11:14.882Z</time></trkpt><trkpt lat="40.6499383" lon="15.1549083"><ele>368.0</ele><time>2026-04-25T07:11:15.882Z</time></trkpt><trkpt lat="40.649925" lon="15.1550933"><ele>368.5</ele><time>2026-04-25T07:11:16.881Z</time></trkpt><trkpt lat="40.6499167" lon="15.1552767"><ele>369.0</ele><time>2026-04-25T07:11:17.881Z</time></trkpt><trkpt lat="40.649915" lon="15.15544"><ele>369.0</ele><time>2026-04-25T07:11:18.882Z</time></trkpt><trkpt lat="40.6499133" lon="15.1556167"><ele>369.0</ele><time>2026-04-25T07:11:19.881Z</time></trkpt><trkpt lat="40.64993" lon="15.1557867"><ele>369.0</ele><time>2026-04-25T07:11:20.881Z</time></trkpt><trkpt lat="40.649955" lon="15.155955"><ele>369.0</ele><time>2026-04-25T07:11:21.882Z</time></trkpt><trkpt lat="40.6499833" lon="15.1561183"><ele>369.0</ele><time>2026-04-25T07:11:22.882Z</time></trkpt><trkpt lat="40.6500067" lon="15.156275"><ele>369.0</ele><time>2026-04-25T07:11:23.881Z</time></trkpt><trkpt lat="40.65002" lon="15.156425"><ele>369.0</ele><time>2026-04-25T07:11:24.882Z</time></trkpt><trkpt lat="40.6500167" lon="15.1565733"><ele>369.0</ele><time>2026-04-25T07:11:25.881Z</time></trkpt><trkpt lat="40.6500017" lon="15.1567333"><ele>369.5</ele><time>2026-04-25T07:11:26.881Z</time></trkpt><trkpt lat="40.64999" lon="15.1569033"><ele>370.0</ele><time>2026-04-25T07:11:27.882Z</time></trkpt><trkpt lat="40.6499833" lon="15.1570767"><ele>370.5</ele><time>2026-04-25T07:11:28.882Z</time></trkpt><trkpt lat="40.649985" lon="15.157255"><ele>371.0</ele><time>2026-04-25T07:11:29.882Z</time></trkpt><trkpt lat="40.6499933" lon="15.157445"><ele>371.25</ele><time>2026-04-25T07:11:30.882Z</time></trkpt><trkpt lat="40.64999" lon="15.1576267"><ele>371.5</ele><time>2026-04-25T07:11:31.882Z</time></trkpt><trkpt lat="40.649975" lon="15.1578183"><ele>371.75</ele><time>2026-04-25T07:11:32.881Z</time></trkpt><trkpt lat="40.6499267" lon="15.1580033"><ele>372.0</ele><time>2026-04-25T07:11:33.881Z</time></trkpt><trkpt lat="40.649855" lon="15.1581767"><ele>373.0</ele><time>2026-04-25T07:11:34.88Z</time></trkpt><trkpt lat="40.6497767" lon="15.1583333"><ele>374.0</ele><time>2026-04-25T07:11:35.881Z</time></trkpt><trkpt lat="40.649715" lon="15.1585"><ele>375.0</ele><time>2026-04-25T07:11:36.88Z</time></trkpt><trkpt lat="40.64967" lon="15.1586867"><ele>376.0</ele><time>2026-04-25T07:11:37.881Z</time></trkpt><trkpt lat="40.6496367" lon="15.1588867"><ele>377.0</ele><time>2026-04-25T07:11:38.881Z</time></trkpt><trkpt lat="40.6496117" lon="15.1591033"><ele>378.0</ele><time>2026-04-25T07:11:39.88Z</time></trkpt><trkpt lat="40.6495967" lon="15.15932"><ele>379.0</ele><time>2026-04-25T07:11:40.88Z</time></trkpt><trkpt lat="40.6495933" lon="15.1595483"><ele>379.0</ele><time>2026-04-25T07:11:41.88Z</time></trkpt><trkpt lat="40.6495967" lon="15.1597783"><ele>379.0</ele><time>2026-04-25T07:11:42.88Z</time></trkpt><trkpt lat="40.6495983" lon="15.1600117"><ele>379.0</ele><time>2026-04-25T07:11:43.881Z</time></trkpt><trkpt lat="40.6496033" lon="15.16025"><ele>379.0</ele><time>2026-04-25T07:11:44.88Z</time></trkpt><trkpt lat="40.6496083" lon="15.1604867"><ele>379.0</ele><time>2026-04-25T07:11:45.88Z</time></trkpt><trkpt lat="40.6496233" lon="15.1607217"><ele>379.0</ele><time>2026-04-25T07:11:46.88Z</time></trkpt><trkpt lat="40.649645" lon="15.16095"><ele>379.0</ele><time>2026-04-25T07:11:47.881Z</time></trkpt><trkpt lat="40.6496717" lon="15.1611683"><ele>379.0</ele><time>2026-04-25T07:11:48.881Z</time></trkpt><trkpt lat="40.64969" lon="15.1613867"><ele>379.0</ele><time>2026-04-25T07:11:49.88Z</time></trkpt><trkpt lat="40.6496967" lon="15.16161"><ele>379.0</ele><time>2026-04-25T07:11:50.88Z</time></trkpt><trkpt lat="40.6496933" lon="15.1618367"><ele>379.0</ele><time>2026-04-25T07:11:51.88Z</time></trkpt><trkpt lat="40.6496933" lon="15.1620583"><ele>379.0</ele><time>2026-04-25T07:11:52.88Z</time></trkpt><trkpt lat="40.6496933" lon="15.16229"><ele>379.3333333333333</ele><time>2026-04-25T07:11:53.881Z</time></trkpt><trkpt lat="40.649695" lon="15.1625267"><ele>379.6666666666667</ele><time>2026-04-25T07:11:54.88Z</time></trkpt><trkpt lat="40.6496883" lon="15.1627433"><ele>380.0</ele><time>2026-04-25T07:11:55.88Z</time></trkpt><trkpt lat="40.64968" lon="15.1629733"><ele>379.33333333333337</ele><time>2026-04-25T07:11:56.881Z</time></trkpt><trkpt lat="40.6496733" lon="15.1632033"><ele>378.6666666666667</ele><time>2026-04-25T07:11:57.88Z</time></trkpt><trkpt lat="40.6496717" lon="15.163435"><ele>378.0</ele><time>2026-04-25T07:11:58.881Z</time></trkpt><trkpt lat="40.649675" lon="15.16366"><ele>378.0</ele><time>2026-04-25T07:11:59.881Z</time></trkpt><trkpt lat="40.6496783" lon="15.16389"><ele>378.0</ele><time>2026-04-25T07:12:00.881Z</time></trkpt><trkpt lat="40.6496833" lon="15.16412"><ele>378.0</ele><time>2026-04-25T07:12:01.881Z</time></trkpt><trkpt lat="40.6496867" lon="15.16434"><ele>377.3333333333333</ele><time>2026-04-25T07:12:02.881Z</time></trkpt><trkpt lat="40.649695" lon="15.1645633"><ele>376.66666666666663</ele><time>2026-04-25T07:12:03.881Z</time></trkpt><trkpt lat="40.6496983" lon="15.1647883"><ele>376.0</ele><time>2026-04-25T07:12:04.88Z</time></trkpt><trkpt lat="40.649695" lon="15.1650083"><ele>376.0</ele><time>2026-04-25T07:12:05.88Z</time></trkpt><trkpt lat="40.6496867" lon="15.1652233"><ele>376.0</ele><time>2026-04-25T07:12:06.881Z</time></trkpt><trkpt lat="40.6496783" lon="15.16544"><ele>376.0</ele><time>2026-04-25T07:12:07.88Z</time></trkpt><trkpt lat="40.64966" lon="15.16566"><ele>376.0</ele><time>2026-04-25T07:12:08.881Z</time></trkpt><trkpt lat="40.6496467" lon="15.1658767"><ele>376.0</ele><time>2026-04-25T07:12:09.881Z</time></trkpt><trkpt lat="40.649635" lon="15.1661033"><ele>376.0</ele><time>2026-04-25T07:12:10.881Z</time></trkpt><trkpt lat="40.64963" lon="15.1663233"><ele>376.0</ele><time>2026-04-25T07:12:11.881Z</time></trkpt><trkpt lat="40.6496167" lon="15.1665467"><ele>376.0</ele><time>2026-04-25T07:12:12.88Z</time></trkpt><trkpt lat="40.6496133" lon="15.1667633"><ele>376.0</ele><time>2026-04-25T07:12:13.881Z</time></trkpt><trkpt lat="40.6496083" lon="15.1669667"><ele>376.0</ele><time>2026-04-25T07:12:14.881Z</time></trkpt><trkpt lat="40.6496167" lon="15.167175"><ele>376.0</ele><time>2026-04-25T07:12:15.88Z</time></trkpt><trkpt lat="40.6496433" lon="15.1673867"><ele>376.0</ele><time>2026-04-25T07:12:16.881Z</time></trkpt><trkpt lat="40.6497033" lon="15.167595"><ele>376.0</ele><time>2026-04-25T07:12:17.881Z</time></trkpt><trkpt lat="40.649785" lon="15.1677967"><ele>376.0</ele><time>2026-04-25T07:12:18.88Z</time></trkpt><trkpt lat="40.6498667" lon="15.1679783"><ele>376.0</ele><time>2026-04-25T07:12:19.88Z</time></trkpt><trkpt lat="40.6499433" lon="15.16816"><ele>376.5</ele><time>2026-04-25T07:12:20.88Z</time></trkpt><trkpt lat="40.65" lon="15.1683367"><ele>377.0</ele><time>2026-04-25T07:12:21.88Z</time></trkpt><trkpt lat="40.6500517" lon="15.1685183"><ele>377.5</ele><time>2026-04-25T07:12:22.881Z</time></trkpt><trkpt lat="40.6500967" lon="15.168695"><ele>378.0</ele><time>2026-04-25T07:12:23.88Z</time></trkpt><trkpt lat="40.650135" lon="15.168855"><ele>378.0</ele><time>2026-04-25T07:12:24.881Z</time></trkpt><trkpt lat="40.6501717" lon="15.16901"><ele>378.0</ele><time>2026-04-25T07:12:25.88Z</time></trkpt><trkpt lat="40.6501983" lon="15.1691683"><ele>378.0</ele><time>2026-04-25T07:12:26.88Z</time></trkpt><trkpt lat="40.6502217" lon="15.16933"><ele>378.0</ele><time>2026-04-25T07:12:27.88Z</time></trkpt><trkpt lat="40.6502233" lon="15.169505"><ele>378.5</ele><time>2026-04-25T07:12:28.881Z</time></trkpt><trkpt lat="40.65021" lon="15.169695"><ele>379.0</ele><time>2026-04-25T07:12:29.88Z</time></trkpt><trkpt lat="40.650195" lon="15.169895"><ele>379.5</ele><time>2026-04-25T07:12:30.881Z</time></trkpt><trkpt lat="40.6501833" lon="15.1700733"><ele>380.0</ele><time>2026-04-25T07:12:31.881Z</time></trkpt><trkpt lat="40.650175" lon="15.1702417"><ele>380.0</ele><time>2026-04-25T07:12:32.88Z</time></trkpt><trkpt lat="40.6501867" lon="15.170415"><ele>380.0</ele><time>2026-04-25T07:12:33.881Z</time></trkpt><trkpt lat="40.6502283" lon="15.1705967"><ele>380.0</ele><time>2026-04-25T07:12:34.88Z</time></trkpt><trkpt lat="40.6502983" lon="15.170785"><ele>380.0</ele><time>2026-04-25T07:12:35.881Z</time></trkpt><trkpt lat="40.6503883" lon="15.1709833"><ele>379.33333333333337</ele><time>2026-04-25T07:12:36.88Z</time></trkpt><trkpt lat="40.6504867" lon="15.171175"><ele>378.6666666666667</ele><time>2026-04-25T07:12:37.88Z</time></trkpt><trkpt lat="40.65058" lon="15.17136"><ele>378.0</ele><time>2026-04-25T07:12:38.88Z</time></trkpt><trkpt lat="40.650685" lon="15.1715333"><ele>377.3333333333333</ele><time>2026-04-25T07:12:39.881Z</time></trkpt><trkpt lat="40.650805" lon="15.1717183"><ele>376.66666666666663</ele><time>2026-04-25T07:12:40.881Z</time></trkpt><trkpt lat="40.6509283" lon="15.1718767"><ele>376.0</ele><time>2026-04-25T07:12:41.881Z</time></trkpt><trkpt lat="40.6510583" lon="15.172015"><ele>376.0</ele><time>2026-04-25T07:12:42.881Z</time></trkpt><trkpt lat="40.6511783" lon="15.172155"><ele>376.0</ele><time>2026-04-25T07:12:43.88Z</time></trkpt><trkpt lat="40.651285" lon="15.1722883"><ele>376.0</ele><time>2026-04-25T07:12:44.881Z</time></trkpt><trkpt lat="40.6513717" lon="15.1724217"><ele>376.0</ele><time>2026-04-25T07:12:45.881Z</time></trkpt><trkpt lat="40.65143" lon="15.1725667"><ele>376.0</ele><time>2026-04-25T07:12:46.88Z</time></trkpt><trkpt lat="40.6514683" lon="15.1727333"><ele>376.0</ele><time>2026-04-25T07:12:47.88Z</time></trkpt><trkpt lat="40.65149" lon="15.1729133"><ele>376.0</ele><time>2026-04-25T07:12:48.881Z</time></trkpt><trkpt lat="40.651515" lon="15.1731083"><ele>376.0</ele><time>2026-04-25T07:12:49.881Z</time></trkpt><trkpt lat="40.651555" lon="15.17331"><ele>375.0</ele><time>2026-04-25T07:12:50.881Z</time></trkpt><trkpt lat="40.65162" lon="15.1735133"><ele>374.0</ele><time>2026-04-25T07:12:51.88Z</time></trkpt><trkpt lat="40.6516967" lon="15.1737083"><ele>373.0</ele><time>2026-04-25T07:12:52.88Z</time></trkpt><trkpt lat="40.651785" lon="15.173895"><ele>375.3333333333333</ele><time>2026-04-25T07:12:53.88Z</time></trkpt><trkpt lat="40.6518733" lon="15.174075"><ele>377.6666666666667</ele><time>2026-04-25T07:12:54.881Z</time></trkpt><trkpt lat="40.6519533" lon="15.17426"><ele>380.0</ele><time>2026-04-25T07:12:55.88Z</time></trkpt><trkpt lat="40.6520267" lon="15.17444"><ele>380.0</ele><time>2026-04-25T07:12:56.881Z</time></trkpt><trkpt lat="40.6521033" lon="15.1746167"><ele>380.0</ele><time>2026-04-25T07:12:57.881Z</time></trkpt><trkpt lat="40.6521833" lon="15.174775"><ele>380.0</ele><time>2026-04-25T07:12:58.881Z</time></trkpt><trkpt lat="40.65227" lon="15.1749233"><ele>380.0</ele><time>2026-04-25T07:12:59.881Z</time></trkpt><trkpt lat="40.65235" lon="15.1750517"><ele>377.83333333333337</ele><time>2026-04-25T07:13:00.881Z</time></trkpt><trkpt lat="40.6524117" lon="15.1751483"><ele>375.6666666666667</ele><time>2026-04-25T07:13:01.881Z</time></trkpt><trkpt lat="40.652455" lon="15.1752183"><ele>373.5</ele><time>2026-04-25T07:13:02.88Z</time></trkpt><trkpt lat="40.6524967" lon="15.1752967"><ele>371.3333333333333</ele><time>2026-04-25T07:13:04.88Z</time></trkpt><trkpt lat="40.6525017" lon="15.175385"><ele>369.16666666666663</ele><time>2026-04-25T07:13:07.881Z</time></trkpt><trkpt lat="40.6525167" lon="15.1755167"><ele>367.0</ele><time>2026-04-25T07:13:09.88Z</time></trkpt><trkpt lat="40.6525467" lon="15.1756217"><ele>368.75</ele><time>2026-04-25T07:13:10.881Z</time></trkpt><trkpt lat="40.6525983" lon="15.1757533"><ele>370.5</ele><time>2026-04-25T07:13:11.88Z</time></trkpt><trkpt lat="40.65268" lon="15.1759217"><ele>372.25</ele><time>2026-04-25T07:13:12.881Z</time></trkpt><trkpt lat="40.65278" lon="15.176095"><ele>374.0</ele><time>2026-04-25T07:13:13.881Z</time></trkpt><trkpt lat="40.652905" lon="15.1762517"><ele>374.0</ele><time>2026-04-25T07:13:14.881Z</time></trkpt><trkpt lat="40.6530383" lon="15.176405"><ele>374.0</ele><time>2026-04-25T07:13:15.88Z</time></trkpt><trkpt lat="40.6531633" lon="15.176545"><ele>374.0</ele><time>2026-04-25T07:13:16.881Z</time></trkpt><trkpt lat="40.653295" lon="15.176655"><ele>374.25</ele><time>2026-04-25T07:13:17.88Z</time></trkpt><trkpt lat="40.6534133" lon="15.17677"><ele>374.5</ele><time>2026-04-25T07:13:18.881Z</time></trkpt><trkpt lat="40.653515" lon="15.1769"><ele>374.75</ele><time>2026-04-25T07:13:19.88Z</time></trkpt><trkpt lat="40.6535917" lon="15.1770633"><ele>375.0</ele><time>2026-04-25T07:13:20.88Z</time></trkpt><trkpt lat="40.6536567" lon="15.1772633"><ele>369.6666666666667</ele><time>2026-04-25T07:13:21.881Z</time></trkpt><trkpt lat="40.65373" lon="15.17749"><ele>364.33333333333337</ele><time>2026-04-25T07:13:22.881Z</time></trkpt><trkpt lat="40.65384" lon="15.1777017"><ele>359.0</ele><time>2026-04-25T07:13:23.881Z</time></trkpt><trkpt lat="40.65397" lon="15.1779083"><ele>359.0</ele><time>2026-04-25T07:13:24.881Z</time></trkpt><trkpt lat="40.6541" lon="15.1781167"><ele>359.0</ele><time>2026-04-25T07:13:25.88Z</time></trkpt><trkpt lat="40.6542217" lon="15.1783233"><ele>359.0</ele><time>2026-04-25T07:13:26.881Z</time></trkpt><trkpt lat="40.6543367" lon="15.178525"><ele>358.6666666666667</ele><time>2026-04-25T07:13:27.88Z</time></trkpt><trkpt lat="40.6544383" lon="15.1787283"><ele>358.3333333333333</ele><time>2026-04-25T07:13:28.88Z</time></trkpt><trkpt lat="40.654535" lon="15.1789317"><ele>358.0</ele><time>2026-04-25T07:13:29.881Z</time></trkpt><trkpt lat="40.65461" lon="15.1791317"><ele>356.75</ele><time>2026-04-25T07:13:30.881Z</time></trkpt><trkpt lat="40.6546683" lon="15.1793217"><ele>355.5</ele><time>2026-04-25T07:13:31.88Z</time></trkpt><trkpt lat="40.6547167" lon="15.1795017"><ele>354.25</ele><time>2026-04-25T07:13:32.881Z</time></trkpt><trkpt lat="40.654795" lon="15.1796517"><ele>353.0</ele><time>2026-04-25T07:13:33.88Z</time></trkpt><trkpt lat="40.6549" lon="15.1797783"><ele>353.75</ele><time>2026-04-25T07:13:34.88Z</time></trkpt><trkpt lat="40.6550233" lon="15.179865"><ele>354.5</ele><time>2026-04-25T07:13:35.88Z</time></trkpt><trkpt lat="40.6551567" lon="15.1799367"><ele>355.25</ele><time>2026-04-25T07:13:36.88Z</time></trkpt><trkpt lat="40.6553067" lon="15.18"><ele>356.0</ele><time>2026-04-25T07:13:37.88Z</time></trkpt><trkpt lat="40.6554683" lon="15.180075"><ele>356.0</ele><time>2026-04-25T07:13:38.881Z</time></trkpt><trkpt lat="40.6556183" lon="15.1801767"><ele>356.0</ele><time>2026-04-25T07:13:39.881Z</time></trkpt><trkpt lat="40.655755" lon="15.180265"><ele>356.0</ele><time>2026-04-25T07:13:40.881Z</time></trkpt><trkpt lat="40.655875" lon="15.180385"><ele>356.0</ele><time>2026-04-25T07:13:41.88Z</time></trkpt><trkpt lat="40.65598" lon="15.180555"><ele>356.0</ele><time>2026-04-25T07:13:42.88Z</time></trkpt><trkpt lat="40.656095" lon="15.180745"><ele>356.0</ele><time>2026-04-25T07:13:43.88Z</time></trkpt><trkpt lat="40.6562367" lon="15.1809183"><ele>354.33333333333337</ele><time>2026-04-25T07:13:44.881Z</time></trkpt><trkpt lat="40.6563867" lon="15.1810683"><ele>352.6666666666667</ele><time>2026-04-25T07:13:45.88Z</time></trkpt><trkpt lat="40.6565333" lon="15.1811933"><ele>351.0</ele><time>2026-04-25T07:13:46.881Z</time></trkpt><trkpt lat="40.6566683" lon="15.1812867"><ele>351.0</ele><time>2026-04-25T07:13:47.88Z</time></trkpt><trkpt lat="40.6567967" lon="15.181355"><ele>351.0</ele><time>2026-04-25T07:13:48.88Z</time></trkpt><trkpt lat="40.6569367" lon="15.1813667"><ele>351.0</ele><time>2026-04-25T07:13:49.881Z</time></trkpt><trkpt lat="40.657085" lon="15.1813333"><ele>351.0</ele><time>2026-04-25T07:13:50.88Z</time></trkpt><trkpt lat="40.65724" lon="15.1812583"><ele>351.3333333333333</ele><time>2026-04-25T07:13:51.881Z</time></trkpt><trkpt lat="40.6574083" lon="15.18117"><ele>351.66666666666663</ele><time>2026-04-25T07:13:52.881Z</time></trkpt><trkpt lat="40.6575683" lon="15.1811267"><ele>352.0</ele><time>2026-04-25T07:13:53.881Z</time></trkpt><trkpt lat="40.6577383" lon="15.1811217"><ele>350.3333333333333</ele><time>2026-04-25T07:13:54.881Z</time></trkpt><trkpt lat="40.6579267" lon="15.181145"><ele>348.6666666666667</ele><time>2026-04-25T07:13:55.88Z</time></trkpt><trkpt lat="40.6581183" lon="15.1811883"><ele>347.0</ele><time>2026-04-25T07:13:56.881Z</time></trkpt><trkpt lat="40.6582983" lon="15.1812383"><ele>347.0</ele><time>2026-04-25T07:13:57.88Z</time></trkpt><trkpt lat="40.6584617" lon="15.1812717"><ele>347.0</ele><time>2026-04-25T07:13:58.881Z</time></trkpt><trkpt lat="40.658605" lon="15.1812983"><ele>347.0</ele><time>2026-04-25T07:13:59.88Z</time></trkpt><trkpt lat="40.658725" lon="15.18133"><ele>347.0</ele><time>2026-04-25T07:14:00.88Z</time></trkpt><trkpt lat="40.6588483" lon="15.18137"><ele>345.25</ele><time>2026-04-25T07:14:01.88Z</time></trkpt><trkpt lat="40.6589633" lon="15.1814433"><ele>343.5</ele><time>2026-04-25T07:14:02.88Z</time></trkpt><trkpt lat="40.6590767" lon="15.18154"><ele>341.75</ele><time>2026-04-25T07:14:03.88Z</time></trkpt><trkpt lat="40.6591833" lon="15.181665"><ele>340.0</ele><time>2026-04-25T07:14:04.88Z</time></trkpt><trkpt lat="40.6592917" lon="15.1818067"><ele>341.75</ele><time>2026-04-25T07:14:05.88Z</time></trkpt><trkpt lat="40.6593967" lon="15.1819533"><ele>343.5</ele><time>2026-04-25T07:14:06.881Z</time></trkpt><trkpt lat="40.6595067" lon="15.1820883"><ele>345.25</ele><time>2026-04-25T07:14:07.88Z</time></trkpt><trkpt lat="40.6595917" lon="15.1822267"><ele>347.0</ele><time>2026-04-25T07:14:08.881Z</time></trkpt><trkpt lat="40.6596683" lon="15.1823767"><ele>347.0</ele><time>2026-04-25T07:14:09.881Z</time></trkpt><trkpt lat="40.6597267" lon="15.1825483"><ele>347.0</ele><time>2026-04-25T07:14:10.88Z</time></trkpt><trkpt lat="40.6597783" lon="15.1827333"><ele>347.0</ele><time>2026-04-25T07:14:11.881Z</time></trkpt><trkpt lat="40.65983" lon="15.1829267"><ele>347.0</ele><time>2026-04-25T07:14:12.88Z</time></trkpt><trkpt lat="40.6598833" lon="15.183105"><ele>346.20000000000005</ele><time>2026-04-25T07:14:13.88Z</time></trkpt><trkpt lat="40.6599367" lon="15.1832617"><ele>345.4</ele><time>2026-04-25T07:14:14.881Z</time></trkpt><trkpt lat="40.659975" lon="15.1834033"><ele>344.6</ele><time>2026-04-25T07:14:15.881Z</time></trkpt><trkpt lat="40.6599917" lon="15.18353"><ele>343.79999999999995</ele><time>2026-04-25T07:14:16.88Z</time></trkpt><trkpt lat="40.659985" lon="15.1836483"><ele>343.0</ele><time>2026-04-25T07:14:17.881Z</time></trkpt><trkpt lat="40.6599467" lon="15.1837533"><ele>343.0</ele><time>2026-04-25T07:14:18.88Z</time></trkpt><trkpt lat="40.6598767" lon="15.1838483"><ele>343.0</ele><time>2026-04-25T07:14:19.88Z</time></trkpt><trkpt lat="40.6597917" lon="15.1839433"><ele>343.0</ele><time>2026-04-25T07:14:20.881Z</time></trkpt><trkpt lat="40.6597167" lon="15.1840583"><ele>343.0</ele><time>2026-04-25T07:14:21.88Z</time></trkpt><trkpt lat="40.65967" lon="15.184185"><ele>343.0</ele><time>2026-04-25T07:14:22.88Z</time></trkpt><trkpt lat="40.659645" lon="15.184325"><ele>344.0</ele><time>2026-04-25T07:14:23.88Z</time></trkpt><trkpt lat="40.659635" lon="15.1844767"><ele>345.0</ele><time>2026-04-25T07:14:24.88Z</time></trkpt><trkpt lat="40.6596583" lon="15.1846233"><ele>346.0</ele><time>2026-04-25T07:14:25.881Z</time></trkpt><trkpt lat="40.6597033" lon="15.1847567"><ele>347.0</ele><time>2026-04-25T07:14:26.881Z</time></trkpt><trkpt lat="40.65975" lon="15.184885"><ele>348.0</ele><time>2026-04-25T07:14:27.881Z</time></trkpt><trkpt lat="40.659795" lon="15.1850167"><ele>349.5</ele><time>2026-04-25T07:14:28.88Z</time></trkpt><trkpt lat="40.6598283" lon="15.1851583"><ele>351.0</ele><time>2026-04-25T07:14:29.881Z</time></trkpt><trkpt lat="40.6598333" lon="15.1853133"><ele>352.5</ele><time>2026-04-25T07:14:30.88Z</time></trkpt><trkpt lat="40.6598083" lon="15.1854717"><ele>354.0</ele><time>2026-04-25T07:14:31.88Z</time></trkpt><trkpt lat="40.6597583" lon="15.18564"><ele>354.6666666666667</ele><time>2026-04-25T07:14:32.88Z</time></trkpt><trkpt lat="40.6596917" lon="15.1858333"><ele>355.33333333333337</ele><time>2026-04-25T07:14:33.88Z</time></trkpt><trkpt lat="40.659625" lon="15.1860267"><ele>356.0</ele><time>2026-04-25T07:14:34.881Z</time></trkpt><trkpt lat="40.6595617" lon="15.186225"><ele>356.0</ele><time>2026-04-25T07:14:35.88Z</time></trkpt><trkpt lat="40.6595017" lon="15.18642"><ele>356.0</ele><time>2026-04-25T07:14:36.88Z</time></trkpt><trkpt lat="40.6594483" lon="15.1866217"><ele>356.0</ele><time>2026-04-25T07:14:37.88Z</time></trkpt><trkpt lat="40.6593983" lon="15.1868133"><ele>354.33333333333337</ele><time>2026-04-25T07:14:38.88Z</time></trkpt><trkpt lat="40.659355" lon="15.1870067"><ele>352.6666666666667</ele><time>2026-04-25T07:14:39.88Z</time></trkpt><trkpt lat="40.659305" lon="15.1871933"><ele>351.0</ele><time>2026-04-25T07:14:40.881Z</time></trkpt><trkpt lat="40.6592633" lon="15.18738"><ele>351.0</ele><time>2026-04-25T07:14:41.881Z</time></trkpt><trkpt lat="40.65922" lon="15.1875617"><ele>351.0</ele><time>2026-04-25T07:14:42.88Z</time></trkpt><trkpt lat="40.6591767" lon="15.1877517"><ele>351.0</ele><time>2026-04-25T07:14:43.881Z</time></trkpt><trkpt lat="40.6591333" lon="15.1879467"><ele>351.0</ele><time>2026-04-25T07:14:44.88Z</time></trkpt><trkpt lat="40.6591067" lon="15.1881517"><ele>353.6666666666667</ele><time>2026-04-25T07:14:45.88Z</time></trkpt><trkpt lat="40.6590933" lon="15.18836"><ele>356.33333333333337</ele><time>2026-04-25T07:14:46.88Z</time></trkpt><trkpt lat="40.65909" lon="15.18858"><ele>359.0</ele><time>2026-04-25T07:14:47.881Z</time></trkpt><trkpt lat="40.6590833" lon="15.1887983"><ele>360.6666666666667</ele><time>2026-04-25T07:14:48.88Z</time></trkpt><trkpt lat="40.6590617" lon="15.1890267"><ele>362.3333333333333</ele><time>2026-04-25T07:14:49.88Z</time></trkpt><trkpt lat="40.6590167" lon="15.189235"><ele>364.0</ele><time>2026-04-25T07:14:50.881Z</time></trkpt><trkpt lat="40.6589533" lon="15.1894217"><ele>364.0</ele><time>2026-04-25T07:14:51.88Z</time></trkpt><trkpt lat="40.65887" lon="15.189595"><ele>364.0</ele><time>2026-04-25T07:14:52.88Z</time></trkpt><trkpt lat="40.65879" lon="15.1897683"><ele>364.0</ele><time>2026-04-25T07:14:53.881Z</time></trkpt><trkpt lat="40.6587267" lon="15.189945"><ele>367.0</ele><time>2026-04-25T07:14:54.881Z</time></trkpt><trkpt lat="40.6586817" lon="15.1901367"><ele>370.0</ele><time>2026-04-25T07:14:55.881Z</time></trkpt><trkpt lat="40.658655" lon="15.19035"><ele>373.0</ele><time>2026-04-25T07:14:56.881Z</time></trkpt><trkpt lat="40.6586267" lon="15.1905683"><ele>368.0</ele><time>2026-04-25T07:14:57.88Z</time></trkpt><trkpt lat="40.6585917" lon="15.19079"><ele>363.0</ele><time>2026-04-25T07:14:58.881Z</time></trkpt><trkpt lat="40.658545" lon="15.1909983"><ele>358.0</ele><time>2026-04-25T07:14:59.881Z</time></trkpt><trkpt lat="40.6585017" lon="15.19119"><ele>358.0</ele><time>2026-04-25T07:15:00.881Z</time></trkpt><trkpt lat="40.6584767" lon="15.1913767"><ele>358.0</ele><time>2026-04-25T07:15:01.88Z</time></trkpt><trkpt lat="40.6584633" lon="15.19156"><ele>358.0</ele><time>2026-04-25T07:15:02.881Z</time></trkpt><trkpt lat="40.6584617" lon="15.1917233"><ele>358.0</ele><time>2026-04-25T07:15:03.88Z</time></trkpt><trkpt lat="40.6584767" lon="15.191875"><ele>358.59999999999997</ele><time>2026-04-25T07:15:04.881Z</time></trkpt><trkpt lat="40.6584983" lon="15.19202"><ele>359.2</ele><time>2026-04-25T07:15:05.881Z</time></trkpt><trkpt lat="40.6585267" lon="15.1921517"><ele>359.8</ele><time>2026-04-25T07:15:06.881Z</time></trkpt><trkpt lat="40.6585483" lon="15.1922667"><ele>360.4</ele><time>2026-04-25T07:15:07.88Z</time></trkpt><trkpt lat="40.6585567" lon="15.1923733"><ele>361.0</ele><time>2026-04-25T07:15:08.88Z</time></trkpt><trkpt lat="40.6585533" lon="15.1924567"><ele>361.4</ele><time>2026-04-25T07:15:09.881Z</time></trkpt><trkpt lat="40.6585567" lon="15.1925533"><ele>361.8</ele><time>2026-04-25T07:15:15.881Z</time></trkpt><trkpt lat="40.65856" lon="15.192745"><ele>362.2</ele><time>2026-04-25T07:15:17.88Z</time></trkpt><trkpt lat="40.6585533" lon="15.1928833"><ele>362.59999999999997</ele><time>2026-04-25T07:15:18.88Z</time></trkpt><trkpt lat="40.65855" lon="15.1930217"><ele>363.0</ele><time>2026-04-25T07:15:19.88Z</time></trkpt><trkpt lat="40.65855" lon="15.1931567"><ele>364.6666666666667</ele><time>2026-04-25T07:15:20.881Z</time></trkpt><trkpt lat="40.658575" lon="15.1932583"><ele>366.3333333333333</ele><time>2026-04-25T07:15:21.881Z</time></trkpt><trkpt lat="40.6586233" lon="15.1933267"><ele>368.0</ele><time>2026-04-25T07:15:22.881Z</time></trkpt><trkpt lat="40.6586933" lon="15.193355"><ele>369.66666666666663</ele><time>2026-04-25T07:15:23.88Z</time></trkpt><trkpt lat="40.65877" lon="15.1933167"><ele>371.3333333333333</ele><time>2026-04-25T07:15:24.881Z</time></trkpt><trkpt lat="40.6588417" lon="15.1932067"><ele>373.0</ele><time>2026-04-25T07:15:25.88Z</time></trkpt><trkpt lat="40.658905" lon="15.193055"><ele>374.59999999999997</ele><time>2026-04-25T07:15:26.881Z</time></trkpt><trkpt lat="40.6589717" lon="15.1929033"><ele>376.2</ele><time>2026-04-25T07:15:27.88Z</time></trkpt><trkpt lat="40.6590317" lon="15.1927633"><ele>377.8</ele><time>2026-04-25T07:15:28.881Z</time></trkpt><trkpt lat="40.6590733" lon="15.1926383"><ele>379.4</ele><time>2026-04-25T07:15:29.881Z</time></trkpt><trkpt lat="40.6591" lon="15.1925433"><ele>381.0</ele><time>2026-04-25T07:15:30.881Z</time></trkpt><trkpt lat="40.6591133" lon="15.192415"><ele>380.8</ele><time>2026-04-25T07:25:34.879Z</time></trkpt><trkpt lat="40.6591583" lon="15.19227"><ele>380.6</ele><time>2026-04-25T07:25:36.88Z</time></trkpt><trkpt lat="40.6591867" lon="15.1921783"><ele>380.4</ele><time>2026-04-25T07:25:37.88Z</time></trkpt><trkpt lat="40.6592033" lon="15.1920767"><ele>380.2</ele><time>2026-04-25T07:25:38.879Z</time></trkpt><trkpt lat="40.65919" lon="15.191965"><ele>380.0</ele><time>2026-04-25T07:25:39.88Z</time></trkpt><trkpt lat="40.6591567" lon="15.1918483"><ele>380.0</ele><time>2026-04-25T07:25:40.879Z</time></trkpt><trkpt lat="40.6591033" lon="15.1917483"><ele>380.0</ele><time>2026-04-25T07:25:41.879Z</time></trkpt><trkpt lat="40.659055" lon="15.1916617"><ele>380.0</ele><time>2026-04-25T07:25:42.88Z</time></trkpt><trkpt lat="40.659025" lon="15.1915817"><ele>380.0</ele><time>2026-04-25T07:25:43.88Z</time></trkpt><trkpt lat="40.65902" lon="15.19149"><ele>380.0</ele><time>2026-04-25T07:25:44.88Z</time></trkpt><trkpt lat="40.6590483" lon="15.1914033"><ele>380.0</ele><time>2026-04-25T07:25:45.88Z</time></trkpt><trkpt lat="40.6591583" lon="15.1913717"><ele>380.0</ele><time>2026-04-25T07:25:47.88Z</time></trkpt><trkpt lat="40.659225" lon="15.1914167"><ele>380.0</ele><time>2026-04-25T07:25:48.88Z</time></trkpt><trkpt lat="40.659295" lon="15.1914883"><ele>380.0</ele><time>2026-04-25T07:25:49.879Z</time></trkpt><trkpt lat="40.65937" lon="15.1915717"><ele>380.0</ele><time>2026-04-25T07:25:50.88Z</time></trkpt><trkpt lat="40.6594517" lon="15.1916567"><ele>380.0</ele><time>2026-04-25T07:25:51.88Z</time></trkpt><trkpt lat="40.6595383" lon="15.1917433"><ele>383.0</ele><time>2026-04-25T07:25:52.879Z</time></trkpt><trkpt lat="40.6596267" lon="15.19183"><ele>386.0</ele><time>2026-04-25T07:25:53.879Z</time></trkpt><trkpt lat="40.6597017" lon="15.191915"><ele>389.0</ele><time>2026-04-25T07:25:54.88Z</time></trkpt><trkpt lat="40.6597733" lon="15.1919917"><ele>392.0</ele><time>2026-04-25T07:25:55.88Z</time></trkpt><trkpt lat="40.65984" lon="15.1920433"><ele>395.0</ele><time>2026-04-25T07:25:56.879Z</time></trkpt><trkpt lat="40.6599183" lon="15.1920533"><ele>394.99999999999994</ele><time>2026-04-25T07:25:57.879Z</time></trkpt><trkpt lat="40.6599883" lon="15.1920167"><ele>395.0</ele><time>2026-04-25T07:25:58.88Z</time></trkpt><trkpt lat="40.66004" lon="15.1919433"><ele>395.0</ele><time>2026-04-25T07:25:59.88Z</time></trkpt><trkpt lat="40.6600583" lon="15.1918517"><ele>395.0</ele><time>2026-04-25T07:26:00.879Z</time></trkpt><trkpt lat="40.6600617" lon="15.1917433"><ele>394.99999999999994</ele><time>2026-04-25T07:26:01.879Z</time></trkpt><trkpt lat="40.66007" lon="15.1916117"><ele>395.0</ele><time>2026-04-25T07:26:02.88Z</time></trkpt><trkpt lat="40.6600867" lon="15.1914483"><ele>395.4</ele><time>2026-04-25T07:26:03.88Z</time></trkpt><trkpt lat="40.6600983" lon="15.1912883"><ele>395.8</ele><time>2026-04-25T07:26:04.88Z</time></trkpt><trkpt lat="40.6601217" lon="15.19116"><ele>396.20000000000005</ele><time>2026-04-25T07:26:05.88Z</time></trkpt><trkpt lat="40.6601667" lon="15.1910733"><ele>396.6</ele><time>2026-04-25T07:26:06.88Z</time></trkpt><trkpt lat="40.66028" lon="15.19107"><ele>397.0</ele><time>2026-04-25T07:26:08.879Z</time></trkpt><trkpt lat="40.6603483" lon="15.1912333"><ele>399.25</ele><time>2026-04-25T07:26:10.879Z</time></trkpt><trkpt lat="40.6603833" lon="15.1913517"><ele>401.5</ele><time>2026-04-25T07:26:11.88Z</time></trkpt><trkpt lat="40.6604267" lon="15.19149"><ele>403.75</ele><time>2026-04-25T07:26:12.879Z</time></trkpt><trkpt lat="40.6604817" lon="15.1916333"><ele>406.0</ele><time>2026-04-25T07:26:13.88Z</time></trkpt><trkpt lat="40.6605667" lon="15.1917467"><ele>406.4</ele><time>2026-04-25T07:26:14.88Z</time></trkpt><trkpt lat="40.6606683" lon="15.1918233"><ele>406.8</ele><time>2026-04-25T07:26:15.879Z</time></trkpt><trkpt lat="40.6607783" lon="15.19189"><ele>407.2</ele><time>2026-04-25T07:26:16.879Z</time></trkpt><trkpt lat="40.6608833" lon="15.1919433"><ele>407.59999999999997</ele><time>2026-04-25T07:26:17.88Z</time></trkpt><trkpt lat="40.6609717" lon="15.1919917"><ele>408.0</ele><time>2026-04-25T07:26:18.879Z</time></trkpt><trkpt lat="40.66105" lon="15.1920183"><ele>408.0</ele><time>2026-04-25T07:26:19.879Z</time></trkpt><trkpt lat="40.6611483" lon="15.1919383"><ele>408.0</ele><time>2026-04-25T07:26:21.88Z</time></trkpt><trkpt lat="40.66114" lon="15.1918433"><ele>408.0</ele><time>2026-04-25T07:26:22.879Z</time></trkpt><trkpt lat="40.661105" lon="15.1917433"><ele>408.0</ele><time>2026-04-25T07:26:23.88Z</time></trkpt><trkpt lat="40.66105" lon="15.1916633"><ele>408.0</ele><time>2026-04-25T07:26:24.88Z</time></trkpt><trkpt lat="40.6610067" lon="15.1915867"><ele>408.0</ele><time>2026-04-25T07:26:25.88Z</time></trkpt><trkpt lat="40.6609917" lon="15.1915"><ele>407.6666666666667</ele><time>2026-04-25T07:26:26.88Z</time></trkpt><trkpt lat="40.6610133" lon="15.191415"><ele>407.33333333333337</ele><time>2026-04-25T07:26:27.88Z</time></trkpt><trkpt lat="40.6610817" lon="15.1913767"><ele>407.0</ele><time>2026-04-25T07:26:28.879Z</time></trkpt><trkpt lat="40.6611667" lon="15.19137"><ele>406.6666666666667</ele><time>2026-04-25T07:26:29.879Z</time></trkpt><trkpt lat="40.6612683" lon="15.1913767"><ele>406.33333333333337</ele><time>2026-04-25T07:26:30.879Z</time></trkpt><trkpt lat="40.6613733" lon="15.1913933"><ele>406.0</ele><time>2026-04-25T07:26:31.879Z</time></trkpt><trkpt lat="40.6614733" lon="15.1914067"><ele>407.4</ele><time>2026-04-25T07:26:32.88Z</time></trkpt><trkpt lat="40.6615717" lon="15.1914"><ele>408.8</ele><time>2026-04-25T07:26:33.879Z</time></trkpt><trkpt lat="40.6616767" lon="15.1913883"><ele>410.2</ele><time>2026-04-25T07:26:34.88Z</time></trkpt><trkpt lat="40.66178" lon="15.1913567"><ele>411.59999999999997</ele><time>2026-04-25T07:26:35.88Z</time></trkpt><trkpt lat="40.661885" lon="15.1913"><ele>413.0</ele><time>2026-04-25T07:26:36.879Z</time></trkpt><trkpt lat="40.6619967" lon="15.19123"><ele>414.5</ele><time>2026-04-25T07:26:37.879Z</time></trkpt><trkpt lat="40.66211" lon="15.191145"><ele>416.0</ele><time>2026-04-25T07:26:38.88Z</time></trkpt><trkpt lat="40.6622233" lon="15.19105"><ele>417.5</ele><time>2026-04-25T07:26:39.879Z</time></trkpt><trkpt lat="40.662335" lon="15.1909383"><ele>419.0</ele><time>2026-04-25T07:26:40.879Z</time></trkpt><trkpt lat="40.6624517" lon="15.19082"><ele>419.0</ele><time>2026-04-25T07:26:41.879Z</time></trkpt><trkpt lat="40.662565" lon="15.1907017"><ele>419.0</ele><time>2026-04-25T07:26:42.879Z</time></trkpt><trkpt lat="40.6626717" lon="15.1905667"><ele>419.0</ele><time>2026-04-25T07:26:43.879Z</time></trkpt><trkpt lat="40.6627683" lon="15.19042"><ele>419.0</ele><time>2026-04-25T07:26:44.879Z</time></trkpt><trkpt lat="40.6628533" lon="15.1902583"><ele>421.0</ele><time>2026-04-25T07:26:45.879Z</time></trkpt><trkpt lat="40.662935" lon="15.1900867"><ele>423.0</ele><time>2026-04-25T07:26:46.88Z</time></trkpt><trkpt lat="40.6630167" lon="15.1899033"><ele>425.0</ele><time>2026-04-25T07:26:47.879Z</time></trkpt><trkpt lat="40.6631033" lon="15.18972"><ele>426.0</ele><time>2026-04-25T07:26:48.88Z</time></trkpt><trkpt lat="40.6631833" lon="15.1895367"><ele>427.0</ele><time>2026-04-25T07:26:49.879Z</time></trkpt><trkpt lat="40.663265" lon="15.1893467"><ele>428.0</ele><time>2026-04-25T07:26:50.879Z</time></trkpt><trkpt lat="40.6633567" lon="15.189165"><ele>427.66666666666663</ele><time>2026-04-25T07:26:51.88Z</time></trkpt><trkpt lat="40.66346" lon="15.1889967"><ele>427.33333333333337</ele><time>2026-04-25T07:26:52.88Z</time></trkpt><trkpt lat="40.66357" lon="15.1888367"><ele>427.0</ele><time>2026-04-25T07:26:53.88Z</time></trkpt><trkpt lat="40.663685" lon="15.1886817"><ele>428.33333333333337</ele><time>2026-04-25T07:26:54.88Z</time></trkpt><trkpt lat="40.6638083" lon="15.188525"><ele>429.66666666666663</ele><time>2026-04-25T07:26:55.879Z</time></trkpt><trkpt lat="40.6639317" lon="15.1883667"><ele>431.0</ele><time>2026-04-25T07:26:56.879Z</time></trkpt><trkpt lat="40.6640483" lon="15.1881933"><ele>431.66666666666663</ele><time>2026-04-25T07:26:57.88Z</time></trkpt><trkpt lat="40.6641383" lon="15.1879983"><ele>432.33333333333337</ele><time>2026-04-25T07:26:58.88Z</time></trkpt><trkpt lat="40.6642183" lon="15.1877883"><ele>433.0</ele><time>2026-04-25T07:26:59.88Z</time></trkpt><trkpt lat="40.6643" lon="15.187575"><ele>433.0</ele><time>2026-04-25T07:27:00.879Z</time></trkpt><trkpt lat="40.6643767" lon="15.1873633"><ele>433.0</ele><time>2026-04-25T07:27:01.88Z</time></trkpt><trkpt lat="40.6644633" lon="15.1871583"><ele>433.0</ele><time>2026-04-25T07:27:02.879Z</time></trkpt><trkpt lat="40.664545" lon="15.1869567"><ele>436.6666666666667</ele><time>2026-04-25T07:27:03.88Z</time></trkpt><trkpt lat="40.6646267" lon="15.186755"><ele>440.33333333333337</ele><time>2026-04-25T07:27:04.879Z</time></trkpt><trkpt lat="40.664705" lon="15.1865483"><ele>444.0</ele><time>2026-04-25T07:27:05.879Z</time></trkpt><trkpt lat="40.66478" lon="15.1863433"><ele>445.0</ele><time>2026-04-25T07:27:06.88Z</time></trkpt><trkpt lat="40.664845" lon="15.186145"><ele>446.0</ele><time>2026-04-25T07:27:07.879Z</time></trkpt><trkpt lat="40.6649267" lon="15.18597"><ele>447.0</ele><time>2026-04-25T07:27:08.879Z</time></trkpt><trkpt lat="40.665035" lon="15.1858133"><ele>447.0</ele><time>2026-04-25T07:27:09.88Z</time></trkpt><trkpt lat="40.6651617" lon="15.18568"><ele>447.0</ele><time>2026-04-25T07:27:10.879Z</time></trkpt><trkpt lat="40.6652983" lon="15.18555"><ele>447.0</ele><time>2026-04-25T07:27:11.88Z</time></trkpt><trkpt lat="40.6654417" lon="15.1854183"><ele>448.0</ele><time>2026-04-25T07:27:12.88Z</time></trkpt><trkpt lat="40.6655833" lon="15.18528"><ele>449.0</ele><time>2026-04-25T07:27:13.879Z</time></trkpt><trkpt lat="40.6657267" lon="15.1851483"><ele>450.0</ele><time>2026-04-25T07:27:14.88Z</time></trkpt><trkpt lat="40.665865" lon="15.1850333"><ele>450.0</ele><time>2026-04-25T07:27:15.879Z</time></trkpt><trkpt lat="40.6659933" lon="15.1849217"><ele>450.0</ele><time>2026-04-25T07:27:16.879Z</time></trkpt><trkpt lat="40.6661133" lon="15.1848183"><ele>450.0</ele><time>2026-04-25T07:27:17.879Z</time></trkpt><trkpt lat="40.6662217" lon="15.184745"><ele>450.0</ele><time>2026-04-25T07:27:18.88Z</time></trkpt><trkpt lat="40.66634" lon="15.1847117"><ele>449.5</ele><time>2026-04-25T07:27:19.88Z</time></trkpt><trkpt lat="40.66646" lon="15.18473"><ele>449.0</ele><time>2026-04-25T07:27:20.878Z</time></trkpt><trkpt lat="40.666585" lon="15.18478"><ele>448.5</ele><time>2026-04-25T07:27:21.879Z</time></trkpt><trkpt lat="40.6667183" lon="15.1848333"><ele>448.0</ele><time>2026-04-25T07:27:22.879Z</time></trkpt><trkpt lat="40.6668567" lon="15.1848667"><ele>447.75</ele><time>2026-04-25T07:27:23.879Z</time></trkpt><trkpt lat="40.6669983" lon="15.1848917"><ele>447.5</ele><time>2026-04-25T07:27:24.878Z</time></trkpt><trkpt lat="40.6671333" lon="15.1849083"><ele>447.25</ele><time>2026-04-25T07:27:25.878Z</time></trkpt><trkpt lat="40.6672667" lon="15.184925"><ele>447.0</ele><time>2026-04-25T07:27:26.878Z</time></trkpt><trkpt lat="40.6674017" lon="15.184935"><ele>447.0</ele><time>2026-04-25T07:27:27.879Z</time></trkpt><trkpt lat="40.667535" lon="15.1849367"><ele>447.0</ele><time>2026-04-25T07:27:28.878Z</time></trkpt><trkpt lat="40.6676683" lon="15.1849383"><ele>447.0</ele><time>2026-04-25T07:27:29.879Z</time></trkpt><trkpt lat="40.6678" lon="15.184935"><ele>447.0</ele><time>2026-04-25T07:27:30.879Z</time></trkpt><trkpt lat="40.6679333" lon="15.1849433"><ele>447.5</ele><time>2026-04-25T07:27:31.878Z</time></trkpt><trkpt lat="40.6680717" lon="15.1849683"><ele>448.0</ele><time>2026-04-25T07:27:32.879Z</time></trkpt><trkpt lat="40.66821" lon="15.185005"><ele>448.5</ele><time>2026-04-25T07:27:33.878Z</time></trkpt><trkpt lat="40.6683483" lon="15.1850417"><ele>449.0</ele><time>2026-04-25T07:27:34.878Z</time></trkpt><trkpt lat="40.66849" lon="15.1850683"><ele>449.0</ele><time>2026-04-25T07:27:35.878Z</time></trkpt><trkpt lat="40.6686317" lon="15.1850933"><ele>449.0</ele><time>2026-04-25T07:27:36.879Z</time></trkpt><trkpt lat="40.6687733" lon="15.18514"><ele>449.0</ele><time>2026-04-25T07:27:37.879Z</time></trkpt><trkpt lat="40.6689167" lon="15.185215"><ele>449.0</ele><time>2026-04-25T07:27:38.878Z</time></trkpt><trkpt lat="40.669065" lon="15.1852867"><ele>449.0</ele><time>2026-04-25T07:27:39.879Z</time></trkpt><trkpt lat="40.6692117" lon="15.1853567"><ele>449.0</ele><time>2026-04-25T07:27:40.878Z</time></trkpt><trkpt lat="40.669345" lon="15.1854067"><ele>449.0</ele><time>2026-04-25T07:27:41.878Z</time></trkpt><trkpt lat="40.6694633" lon="15.1854583"><ele>449.0</ele><time>2026-04-25T07:27:42.879Z</time></trkpt><trkpt lat="40.66955" lon="15.18552"><ele>450.0</ele><time>2026-04-25T07:27:43.878Z</time></trkpt><trkpt lat="40.6696117" lon="15.1856017"><ele>451.0</ele><time>2026-04-25T07:27:44.878Z</time></trkpt><trkpt lat="40.6696433" lon="15.185715"><ele>452.0</ele><time>2026-04-25T07:27:45.878Z</time></trkpt><trkpt lat="40.66966" lon="15.1858583"><ele>453.0</ele><time>2026-04-25T07:27:46.878Z</time></trkpt><trkpt lat="40.6696767" lon="15.1860217"><ele>454.0</ele><time>2026-04-25T07:27:47.878Z</time></trkpt><trkpt lat="40.6696983" lon="15.186195"><ele>454.0</ele><time>2026-04-25T07:27:48.878Z</time></trkpt><trkpt lat="40.6697233" lon="15.1863683"><ele>454.0</ele><time>2026-04-25T07:27:49.878Z</time></trkpt><trkpt lat="40.6697383" lon="15.1865483"><ele>454.0</ele><time>2026-04-25T07:27:50.879Z</time></trkpt><trkpt lat="40.6697533" lon="15.1867167"><ele>454.0</ele><time>2026-04-25T07:27:51.878Z</time></trkpt><trkpt lat="40.6697517" lon="15.1868883"><ele>454.25</ele><time>2026-04-25T07:27:52.878Z</time></trkpt><trkpt lat="40.6697283" lon="15.1870617"><ele>454.5</ele><time>2026-04-25T07:27:53.879Z</time></trkpt><trkpt lat="40.6696833" lon="15.1872417"><ele>454.75</ele><time>2026-04-25T07:27:54.879Z</time></trkpt><trkpt lat="40.6696333" lon="15.187415"><ele>455.0</ele><time>2026-04-25T07:27:55.879Z</time></trkpt><trkpt lat="40.6695967" lon="15.1876017"><ele>455.0</ele><time>2026-04-25T07:27:56.879Z</time></trkpt><trkpt lat="40.66958" lon="15.1877933"><ele>455.0</ele><time>2026-04-25T07:27:57.878Z</time></trkpt><trkpt lat="40.6695833" lon="15.1879967"><ele>455.0</ele><time>2026-04-25T07:27:58.879Z</time></trkpt><trkpt lat="40.6695867" lon="15.18821"><ele>455.0</ele><time>2026-04-25T07:27:59.879Z</time></trkpt><trkpt lat="40.66959" lon="15.1884133"><ele>455.0</ele><time>2026-04-25T07:28:00.879Z</time></trkpt><trkpt lat="40.6695917" lon="15.18862"><ele>455.0</ele><time>2026-04-25T07:28:01.879Z</time></trkpt><trkpt lat="40.6695867" lon="15.1888283"><ele>454.3333333333333</ele><time>2026-04-25T07:28:02.879Z</time></trkpt><trkpt lat="40.669575" lon="15.1890267"><ele>453.66666666666663</ele><time>2026-04-25T07:28:03.878Z</time></trkpt><trkpt lat="40.6695433" lon="15.1892317"><ele>453.0</ele><time>2026-04-25T07:28:04.878Z</time></trkpt><trkpt lat="40.6695167" lon="15.18943"><ele>453.0</ele><time>2026-04-25T07:28:05.879Z</time></trkpt><trkpt lat="40.6694867" lon="15.1896133"><ele>453.0</ele><time>2026-04-25T07:28:06.878Z</time></trkpt><trkpt lat="40.669445" lon="15.1897767"><ele>453.0</ele><time>2026-04-25T07:28:07.879Z</time></trkpt><trkpt lat="40.669415" lon="15.1899217"><ele>453.0</ele><time>2026-04-25T07:28:08.878Z</time></trkpt><trkpt lat="40.66941" lon="15.1900617"><ele>451.0</ele><time>2026-04-25T07:28:09.878Z</time></trkpt><trkpt lat="40.6694417" lon="15.190195"><ele>449.0</ele><time>2026-04-25T07:28:10.879Z</time></trkpt><trkpt lat="40.6695083" lon="15.1903067"><ele>447.0</ele><time>2026-04-25T07:28:11.879Z</time></trkpt><trkpt lat="40.6696083" lon="15.1903917"><ele>445.0</ele><time>2026-04-25T07:28:12.878Z</time></trkpt><trkpt lat="40.6697217" lon="15.1904333"><ele>445.0</ele><time>2026-04-25T07:28:13.879Z</time></trkpt><trkpt lat="40.6698467" lon="15.1904717"><ele>445.0</ele><time>2026-04-25T07:28:14.878Z</time></trkpt><trkpt lat="40.6699817" lon="15.1905"><ele>445.0</ele><time>2026-04-25T07:28:15.878Z</time></trkpt><trkpt lat="40.670125" lon="15.1905217"><ele>445.0</ele><time>2026-04-25T07:28:16.879Z</time></trkpt><trkpt lat="40.6702667" lon="15.190555"><ele>444.5</ele><time>2026-04-25T07:28:17.879Z</time></trkpt><trkpt lat="40.6704117" lon="15.1905867"><ele>444.0</ele><time>2026-04-25T07:28:18.878Z</time></trkpt><trkpt lat="40.670555" lon="15.1905933"><ele>443.5</ele><time>2026-04-25T07:28:19.878Z</time></trkpt><trkpt lat="40.670705" lon="15.1905833"><ele>443.0</ele><time>2026-04-25T07:28:20.879Z</time></trkpt><trkpt lat="40.67085" lon="15.19054"><ele>443.0</ele><time>2026-04-25T07:28:21.878Z</time></trkpt><trkpt lat="40.6709817" lon="15.1904733"><ele>443.0</ele><time>2026-04-25T07:28:22.879Z</time></trkpt><trkpt lat="40.6711067" lon="15.1903983"><ele>443.0</ele><time>2026-04-25T07:28:23.878Z</time></trkpt><trkpt lat="40.6712167" lon="15.19029"><ele>443.0</ele><time>2026-04-25T07:28:24.879Z</time></trkpt><trkpt lat="40.6713233" lon="15.19015"><ele>443.0</ele><time>2026-04-25T07:28:25.878Z</time></trkpt><trkpt lat="40.6714217" lon="15.1900033"><ele>443.0</ele><time>2026-04-25T07:28:26.878Z</time></trkpt><trkpt lat="40.67152" lon="15.1898817"><ele>443.0</ele><time>2026-04-25T07:28:27.879Z</time></trkpt><trkpt lat="40.6716117" lon="15.1898067"><ele>443.0</ele><time>2026-04-25T07:28:28.878Z</time></trkpt><trkpt lat="40.671705" lon="15.189775"><ele>443.0</ele><time>2026-04-25T07:28:29.879Z</time></trkpt><trkpt lat="40.6717967" lon="15.1897933"><ele>442.99999999999994</ele><time>2026-04-25T07:28:30.879Z</time></trkpt><trkpt lat="40.67189" lon="15.1898567"><ele>442.99999999999994</ele><time>2026-04-25T07:28:31.878Z</time></trkpt><trkpt lat="40.6719683" lon="15.1899667"><ele>443.0</ele><time>2026-04-25T07:28:32.879Z</time></trkpt><trkpt lat="40.6720483" lon="15.1900883"><ele>443.0</ele><time>2026-04-25T07:28:33.879Z</time></trkpt><trkpt lat="40.6721183" lon="15.19022"><ele>441.0</ele><time>2026-04-25T07:28:34.878Z</time></trkpt><trkpt lat="40.67219" lon="15.1903367"><ele>438.99999999999994</ele><time>2026-04-25T07:28:35.878Z</time></trkpt><trkpt lat="40.6722717" lon="15.190435"><ele>436.99999999999994</ele><time>2026-04-25T07:28:36.879Z</time></trkpt><trkpt lat="40.6723617" lon="15.1904867"><ele>435.0</ele><time>2026-04-25T07:28:37.879Z</time></trkpt><trkpt lat="40.6724583" lon="15.19048"><ele>433.0</ele><time>2026-04-25T07:28:38.879Z</time></trkpt><trkpt lat="40.672545" lon="15.1904183"><ele>433.0</ele><time>2026-04-25T07:28:39.878Z</time></trkpt><trkpt lat="40.6726317" lon="15.1903167"><ele>433.0</ele><time>2026-04-25T07:28:40.879Z</time></trkpt><trkpt lat="40.6727133" lon="15.1901933"><ele>433.0</ele><time>2026-04-25T07:28:41.878Z</time></trkpt><trkpt lat="40.6727967" lon="15.19008"><ele>433.0</ele><time>2026-04-25T07:28:42.878Z</time></trkpt><trkpt lat="40.6728967" lon="15.189995"><ele>431.25</ele><time>2026-04-25T07:28:43.879Z</time></trkpt><trkpt lat="40.6730083" lon="15.1899517"><ele>429.5</ele><time>2026-04-25T07:28:44.879Z</time></trkpt><trkpt lat="40.6731317" lon="15.1899283"><ele>427.75</ele><time>2026-04-25T07:28:45.879Z</time></trkpt><trkpt lat="40.673255" lon="15.1899367"><ele>426.0</ele><time>2026-04-25T07:28:46.879Z</time></trkpt><trkpt lat="40.6733733" lon="15.189975"><ele>426.0</ele><time>2026-04-25T07:28:47.879Z</time></trkpt><trkpt lat="40.6734917" lon="15.1900317"><ele>426.0</ele><time>2026-04-25T07:28:48.879Z</time></trkpt><trkpt lat="40.6736067" lon="15.1901167"><ele>426.0</ele><time>2026-04-25T07:28:49.879Z</time></trkpt><trkpt lat="40.6737283" lon="15.1902133"><ele>426.0</ele><time>2026-04-25T07:28:50.879Z</time></trkpt><trkpt lat="40.6738533" lon="15.190305"><ele>426.5</ele><time>2026-04-25T07:28:51.878Z</time></trkpt><trkpt lat="40.6739767" lon="15.190385"><ele>427.0</ele><time>2026-04-25T07:28:52.879Z</time></trkpt><trkpt lat="40.674105" lon="15.1904517"><ele>427.5</ele><time>2026-04-25T07:28:53.879Z</time></trkpt><trkpt lat="40.6742433" lon="15.19049"><ele>428.0</ele><time>2026-04-25T07:28:54.878Z</time></trkpt><trkpt lat="40.6743817" lon="15.1905067"><ele>425.5</ele><time>2026-04-25T07:28:55.878Z</time></trkpt><trkpt lat="40.6745217" lon="15.1904917"><ele>423.0</ele><time>2026-04-25T07:28:56.879Z</time></trkpt><trkpt lat="40.6746533" lon="15.1904417"><ele>420.5</ele><time>2026-04-25T07:28:57.879Z</time></trkpt><trkpt lat="40.6747817" lon="15.19036"><ele>418.0</ele><time>2026-04-25T07:28:58.879Z</time></trkpt><trkpt lat="40.67491" lon="15.1902533"><ele>418.0</ele><time>2026-04-25T07:28:59.879Z</time></trkpt><trkpt lat="40.6750383" lon="15.1901317"><ele>418.0</ele><time>2026-04-25T07:29:00.879Z</time></trkpt><trkpt lat="40.67515" lon="15.1899967"><ele>418.0</ele><time>2026-04-25T07:29:01.879Z</time></trkpt><trkpt lat="40.6752433" lon="15.1898533"><ele>417.75</ele><time>2026-04-25T07:29:02.878Z</time></trkpt><trkpt lat="40.6753267" lon="15.1897067"><ele>417.5</ele><time>2026-04-25T07:29:03.879Z</time></trkpt><trkpt lat="40.6754167" lon="15.1895667"><ele>417.25</ele><time>2026-04-25T07:29:04.879Z</time></trkpt><trkpt lat="40.6755167" lon="15.189445"><ele>417.0</ele><time>2026-04-25T07:29:05.878Z</time></trkpt><trkpt lat="40.6756267" lon="15.1893383"><ele>417.0</ele><time>2026-04-25T07:29:06.878Z</time></trkpt><trkpt lat="40.67572" lon="15.1892483"><ele>417.0</ele><time>2026-04-25T07:29:07.879Z</time></trkpt><trkpt lat="40.675815" lon="15.1891883"><ele>417.0</ele><time>2026-04-25T07:29:08.878Z</time></trkpt><trkpt lat="40.6759233" lon="15.1891583"><ele>417.0</ele><time>2026-04-25T07:29:09.878Z</time></trkpt><trkpt lat="40.6760333" lon="15.18917"><ele>417.0</ele><time>2026-04-25T07:29:10.879Z</time></trkpt><trkpt lat="40.6761367" lon="15.1892367"><ele>418.25</ele><time>2026-04-25T07:29:11.878Z</time></trkpt><trkpt lat="40.67623" lon="15.1893467"><ele>419.5</ele><time>2026-04-25T07:29:12.879Z</time></trkpt><trkpt lat="40.6763167" lon="15.1894733"><ele>420.75</ele><time>2026-04-25T07:29:13.879Z</time></trkpt><trkpt lat="40.6764017" lon="15.1896067"><ele>422.0</ele><time>2026-04-25T07:29:14.879Z</time></trkpt><trkpt lat="40.6764867" lon="15.189725"><ele>420.40000000000003</ele><time>2026-04-25T07:29:15.878Z</time></trkpt><trkpt lat="40.67656" lon="15.1898433"><ele>418.8</ele><time>2026-04-25T07:29:16.879Z</time></trkpt><trkpt lat="40.6766283" lon="15.1899533"><ele>417.2</ele><time>2026-04-25T07:29:17.879Z</time></trkpt><trkpt lat="40.6766783" lon="15.1900683"><ele>415.6</ele><time>2026-04-25T07:29:18.879Z</time></trkpt><trkpt lat="40.676705" lon="15.1902067"><ele>414.0</ele><time>2026-04-25T07:29:19.878Z</time></trkpt><trkpt lat="40.6767033" lon="15.1903517"><ele>414.0</ele><time>2026-04-25T07:29:20.878Z</time></trkpt><trkpt lat="40.6766767" lon="15.190505"><ele>414.0</ele><time>2026-04-25T07:29:21.879Z</time></trkpt><trkpt lat="40.6766533" lon="15.19067"><ele>414.0</ele><time>2026-04-25T07:29:22.878Z</time></trkpt><trkpt lat="40.6766333" lon="15.1908267"><ele>414.0</ele><time>2026-04-25T07:29:23.878Z</time></trkpt><trkpt lat="40.6766117" lon="15.19098"><ele>412.6</ele><time>2026-04-25T07:29:24.879Z</time></trkpt><trkpt lat="40.6765867" lon="15.1911233"><ele>411.2</ele><time>2026-04-25T07:29:25.878Z</time></trkpt><trkpt lat="40.6765633" lon="15.1912567"><ele>409.8</ele><time>2026-04-25T07:29:26.878Z</time></trkpt><trkpt lat="40.67655" lon="15.1913767"><ele>408.40000000000003</ele><time>2026-04-25T07:29:27.878Z</time></trkpt><trkpt lat="40.6765517" lon="15.19148"><ele>407.0</ele><time>2026-04-25T07:29:28.878Z</time></trkpt><trkpt lat="40.6765817" lon="15.1915783"><ele>406.49999999999994</ele><time>2026-04-25T07:29:29.879Z</time></trkpt><trkpt lat="40.676645" lon="15.1916583"><ele>406.0</ele><time>2026-04-25T07:29:30.879Z</time></trkpt><trkpt lat="40.6767317" lon="15.1917133"><ele>405.5</ele><time>2026-04-25T07:29:31.879Z</time></trkpt><trkpt lat="40.6768217" lon="15.1917283"><ele>405.0</ele><time>2026-04-25T07:29:32.878Z</time></trkpt><trkpt lat="40.67691" lon="15.1917183"><ele>404.49999999999994</ele><time>2026-04-25T07:29:33.878Z</time></trkpt><trkpt lat="40.676985" lon="15.19171"><ele>404.0</ele><time>2026-04-25T07:29:34.879Z</time></trkpt><trkpt lat="40.6771" lon="15.1917733"><ele>404.0</ele><time>2026-04-25T07:29:36.878Z</time></trkpt><trkpt lat="40.6771417" lon="15.19185"><ele>404.0</ele><time>2026-04-25T07:29:37.879Z</time></trkpt><trkpt lat="40.67717" lon="15.1919683"><ele>404.0</ele><time>2026-04-25T07:29:38.879Z</time></trkpt><trkpt lat="40.6771833" lon="15.192105"><ele>404.0</ele><time>2026-04-25T07:29:39.878Z</time></trkpt><trkpt lat="40.6771983" lon="15.1922417"><ele>404.0</ele><time>2026-04-25T07:29:40.879Z</time></trkpt><trkpt lat="40.6772217" lon="15.192385"><ele>403.25</ele><time>2026-04-25T07:29:41.878Z</time></trkpt><trkpt lat="40.677245" lon="15.1925267"><ele>402.5</ele><time>2026-04-25T07:29:42.879Z</time></trkpt><trkpt lat="40.67727" lon="15.1926767"><ele>401.75</ele><time>2026-04-25T07:29:43.879Z</time></trkpt><trkpt lat="40.67729" lon="15.1928283"><ele>401.0</ele><time>2026-04-25T07:29:44.879Z</time></trkpt><trkpt lat="40.6773183" lon="15.19298"><ele>401.0</ele><time>2026-04-25T07:29:45.879Z</time></trkpt><trkpt lat="40.6773633" lon="15.193115"><ele>401.0</ele><time>2026-04-25T07:29:46.878Z</time></trkpt><trkpt lat="40.67743" lon="15.19323"><ele>401.0</ele><time>2026-04-25T07:29:47.878Z</time></trkpt><trkpt lat="40.677515" lon="15.1933317"><ele>401.0</ele><time>2026-04-25T07:29:48.878Z</time></trkpt><trkpt lat="40.6776117" lon="15.1934167"><ele>400.0</ele><time>2026-04-25T07:29:49.878Z</time></trkpt><trkpt lat="40.67771" lon="15.193495"><ele>399.0</ele><time>2026-04-25T07:29:50.878Z</time></trkpt><trkpt lat="40.6778083" lon="15.1935783"><ele>398.0</ele><time>2026-04-25T07:29:51.879Z</time></trkpt><trkpt lat="40.677905" lon="15.19366"><ele>397.0</ele><time>2026-04-25T07:29:52.879Z</time></trkpt><trkpt lat="40.6780067" lon="15.1937317"><ele>397.0</ele><time>2026-04-25T07:29:53.878Z</time></trkpt><trkpt lat="40.678105" lon="15.1938083"><ele>397.0</ele><time>2026-04-25T07:29:54.879Z</time></trkpt><trkpt lat="40.6782017" lon="15.193895"><ele>397.0</ele><time>2026-04-25T07:29:55.878Z</time></trkpt><trkpt lat="40.6782767" lon="15.1940083"><ele>397.0</ele><time>2026-04-25T07:29:56.878Z</time></trkpt><trkpt lat="40.678335" lon="15.194145"><ele>394.25</ele><time>2026-04-25T07:29:57.879Z</time></trkpt><trkpt lat="40.67838" lon="15.1943017"><ele>391.5</ele><time>2026-04-25T07:29:58.879Z</time></trkpt><trkpt lat="40.6784183" lon="15.1944617"><ele>388.75</ele><time>2026-04-25T07:29:59.878Z</time></trkpt><trkpt lat="40.678455" lon="15.1946217"><ele>386.0</ele><time>2026-04-25T07:30:00.878Z</time></trkpt><trkpt lat="40.6784867" lon="15.1947867"><ele>384.5</ele><time>2026-04-25T07:30:01.878Z</time></trkpt><trkpt lat="40.6785067" lon="15.1949567"><ele>383.0</ele><time>2026-04-25T07:30:02.878Z</time></trkpt><trkpt lat="40.6785183" lon="15.195125"><ele>381.5</ele><time>2026-04-25T07:30:03.879Z</time></trkpt><trkpt lat="40.67851" lon="15.1952933"><ele>380.0</ele><time>2026-04-25T07:30:04.878Z</time></trkpt><trkpt lat="40.67849" lon="15.1954583"><ele>380.0</ele><time>2026-04-25T07:30:05.879Z</time></trkpt><trkpt lat="40.6784567" lon="15.19562"><ele>380.0</ele><time>2026-04-25T07:30:06.878Z</time></trkpt><trkpt lat="40.67842" lon="15.19578"><ele>380.0</ele><time>2026-04-25T07:30:07.878Z</time></trkpt><trkpt lat="40.6783917" lon="15.1959367"><ele>380.0</ele><time>2026-04-25T07:30:08.878Z</time></trkpt><trkpt lat="40.67836" lon="15.19609"><ele>378.75</ele><time>2026-04-25T07:30:09.878Z</time></trkpt><trkpt lat="40.6783233" lon="15.1962483"><ele>377.5</ele><time>2026-04-25T07:30:10.878Z</time></trkpt><trkpt lat="40.6782833" lon="15.1964117"><ele>376.25</ele><time>2026-04-25T07:30:11.878Z</time></trkpt><trkpt lat="40.6782433" lon="15.1965783"><ele>375.0</ele><time>2026-04-25T07:30:12.879Z</time></trkpt><trkpt lat="40.6781917" lon="15.1967467"><ele>374.5</ele><time>2026-04-25T07:30:13.879Z</time></trkpt><trkpt lat="40.678145" lon="15.1969167"><ele>374.0</ele><time>2026-04-25T07:30:14.879Z</time></trkpt><trkpt lat="40.6780983" lon="15.1970817"><ele>373.5</ele><time>2026-04-25T07:30:15.878Z</time></trkpt><trkpt lat="40.6780567" lon="15.1972433"><ele>373.0</ele><time>2026-04-25T07:30:16.878Z</time></trkpt><trkpt lat="40.6780267" lon="15.1974033"><ele>372.0</ele><time>2026-04-25T07:30:17.879Z</time></trkpt><trkpt lat="40.67802" lon="15.1975633"><ele>371.0</ele><time>2026-04-25T07:30:18.878Z</time></trkpt><trkpt lat="40.6780233" lon="15.1977267"><ele>370.0</ele><time>2026-04-25T07:30:19.879Z</time></trkpt><trkpt lat="40.6780317" lon="15.1979017"><ele>369.0</ele><time>2026-04-25T07:30:20.879Z</time></trkpt><trkpt lat="40.6780433" lon="15.1980683"><ele>369.0</ele><time>2026-04-25T07:30:21.878Z</time></trkpt><trkpt lat="40.6780583" lon="15.19824"><ele>369.0</ele><time>2026-04-25T07:30:22.878Z</time></trkpt><trkpt lat="40.6780783" lon="15.1984183"><ele>369.0</ele><time>2026-04-25T07:30:23.878Z</time></trkpt><trkpt lat="40.6781067" lon="15.1985917"><ele>369.0</ele><time>2026-04-25T07:30:24.878Z</time></trkpt><trkpt lat="40.6781367" lon="15.1987667"><ele>369.0</ele><time>2026-04-25T07:30:25.878Z</time></trkpt><trkpt lat="40.6781667" lon="15.1989433"><ele>369.0</ele><time>2026-04-25T07:30:26.878Z</time></trkpt><trkpt lat="40.678195" lon="15.19911"><ele>369.0</ele><time>2026-04-25T07:30:27.878Z</time></trkpt><trkpt lat="40.6782283" lon="15.199275"><ele>369.0</ele><time>2026-04-25T07:30:28.878Z</time></trkpt><trkpt lat="40.6782783" lon="15.1994167"><ele>368.5</ele><time>2026-04-25T07:30:29.878Z</time></trkpt><trkpt lat="40.6783467" lon="15.199545"><ele>368.0</ele><time>2026-04-25T07:30:30.879Z</time></trkpt><trkpt lat="40.678435" lon="15.1996567"><ele>367.5</ele><time>2026-04-25T07:30:31.879Z</time></trkpt><trkpt lat="40.6785467" lon="15.1997417"><ele>367.0</ele><time>2026-04-25T07:30:32.879Z</time></trkpt><trkpt lat="40.678665" lon="15.1998183"><ele>365.75</ele><time>2026-04-25T07:30:33.878Z</time></trkpt><trkpt lat="40.6787833" lon="15.19989"><ele>364.5</ele><time>2026-04-25T07:30:34.878Z</time></trkpt><trkpt lat="40.678905" lon="15.1999617"><ele>363.25</ele><time>2026-04-25T07:30:35.879Z</time></trkpt><trkpt lat="40.6790167" lon="15.2000317"><ele>362.0</ele><time>2026-04-25T07:30:36.879Z</time></trkpt><trkpt lat="40.6791183" lon="15.200125"><ele>362.0</ele><time>2026-04-25T07:30:37.879Z</time></trkpt><trkpt lat="40.6792083" lon="15.200245"><ele>362.0</ele><time>2026-04-25T07:30:38.878Z</time></trkpt><trkpt lat="40.6792767" lon="15.20038"><ele>362.0</ele><time>2026-04-25T07:30:39.878Z</time></trkpt><trkpt lat="40.6793417" lon="15.20053"><ele>362.0</ele><time>2026-04-25T07:30:40.879Z</time></trkpt><trkpt lat="40.6794083" lon="15.20069"><ele>362.25</ele><time>2026-04-25T07:30:41.879Z</time></trkpt><trkpt lat="40.6794733" lon="15.2008467"><ele>362.5</ele><time>2026-04-25T07:30:42.878Z</time></trkpt><trkpt lat="40.679535" lon="15.2010017"><ele>362.75</ele><time>2026-04-25T07:30:43.878Z</time></trkpt><trkpt lat="40.6795917" lon="15.2011667"><ele>363.0</ele><time>2026-04-25T07:30:44.879Z</time></trkpt><trkpt lat="40.6796517" lon="15.2013233"><ele>363.0</ele><time>2026-04-25T07:30:45.878Z</time></trkpt><trkpt lat="40.6797067" lon="15.2014733"><ele>363.0</ele><time>2026-04-25T07:30:46.878Z</time></trkpt><trkpt lat="40.6797683" lon="15.20163"><ele>363.0</ele><time>2026-04-25T07:30:47.879Z</time></trkpt><trkpt lat="40.6798267" lon="15.201785"><ele>363.0</ele><time>2026-04-25T07:30:48.879Z</time></trkpt><trkpt lat="40.6798833" lon="15.2019433"><ele>361.5</ele><time>2026-04-25T07:30:49.878Z</time></trkpt><trkpt lat="40.67994" lon="15.2021083"><ele>360.0</ele><time>2026-04-25T07:30:50.879Z</time></trkpt><trkpt lat="40.67999" lon="15.2022733"><ele>358.5</ele><time>2026-04-25T07:30:51.879Z</time></trkpt><trkpt lat="40.6800383" lon="15.20243"><ele>357.0</ele><time>2026-04-25T07:30:52.879Z</time></trkpt><trkpt lat="40.6800933" lon="15.2025767"><ele>355.8</ele><time>2026-04-25T07:30:53.879Z</time></trkpt><trkpt lat="40.68015" lon="15.2027167"><ele>354.6</ele><time>2026-04-25T07:30:54.878Z</time></trkpt><trkpt lat="40.6802017" lon="15.2028383"><ele>353.40000000000003</ele><time>2026-04-25T07:30:55.878Z</time></trkpt><trkpt lat="40.6802667" lon="15.2029333"><ele>352.20000000000005</ele><time>2026-04-25T07:30:56.878Z</time></trkpt><trkpt lat="40.6803383" lon="15.2029983"><ele>351.0</ele><time>2026-04-25T07:30:57.879Z</time></trkpt><trkpt lat="40.68039" lon="15.20305"><ele>350.8</ele><time>2026-04-25T07:30:58.878Z</time></trkpt><trkpt lat="40.6804233" lon="15.2031517"><ele>350.6</ele><time>2026-04-25T07:31:00.879Z</time></trkpt><trkpt lat="40.6803567" lon="15.203295"><ele>350.4</ele><time>2026-04-25T07:31:02.878Z</time></trkpt><trkpt lat="40.6803133" lon="15.20339"><ele>350.2</ele><time>2026-04-25T07:31:03.879Z</time></trkpt><trkpt lat="40.6802633" lon="15.203485"><ele>350.0</ele><time>2026-04-25T07:31:04.879Z</time></trkpt><trkpt lat="40.680215" lon="15.2035917"><ele>347.75</ele><time>2026-04-25T07:31:05.879Z</time></trkpt><trkpt lat="40.6801617" lon="15.2037217"><ele>345.5</ele><time>2026-04-25T07:31:06.879Z</time></trkpt><trkpt lat="40.680125" lon="15.2038783"><ele>343.25</ele><time>2026-04-25T07:31:07.878Z</time></trkpt><trkpt lat="40.6801067" lon="15.20403"><ele>341.0</ele><time>2026-04-25T07:31:08.879Z</time></trkpt><trkpt lat="40.680085" lon="15.2041767"><ele>339.6</ele><time>2026-04-25T07:31:09.879Z</time></trkpt><trkpt lat="40.6800483" lon="15.2043133"><ele>338.20000000000005</ele><time>2026-04-25T07:31:10.879Z</time></trkpt><trkpt lat="40.68001" lon="15.20445"><ele>336.79999999999995</ele><time>2026-04-25T07:31:11.878Z</time></trkpt><trkpt lat="40.679975" lon="15.20459"><ele>335.4</ele><time>2026-04-25T07:31:12.878Z</time></trkpt><trkpt lat="40.6799317" lon="15.2047217"><ele>334.0</ele><time>2026-04-25T07:31:13.878Z</time></trkpt><trkpt lat="40.6798917" lon="15.2048617"><ele>332.2</ele><time>2026-04-25T07:31:14.879Z</time></trkpt><trkpt lat="40.679845" lon="15.2049933"><ele>330.4</ele><time>2026-04-25T07:31:15.879Z</time></trkpt><trkpt lat="40.6797917" lon="15.2051383"><ele>328.6</ele><time>2026-04-25T07:31:16.879Z</time></trkpt><trkpt lat="40.6797417" lon="15.205275"><ele>326.8</ele><time>2026-04-25T07:31:17.878Z</time></trkpt><trkpt lat="40.6796967" lon="15.20539"><ele>325.0</ele><time>2026-04-25T07:31:18.879Z</time></trkpt><trkpt lat="40.6796367" lon="15.2055"><ele>325.0</ele><time>2026-04-25T07:31:19.879Z</time></trkpt><trkpt lat="40.6795683" lon="15.2056017"><ele>325.0</ele><time>2026-04-25T07:31:20.878Z</time></trkpt><trkpt lat="40.6794983" lon="15.2057"><ele>325.0</ele><time>2026-04-25T07:31:21.878Z</time></trkpt><trkpt lat="40.67944" lon="15.2058033"><ele>325.0</ele><time>2026-04-25T07:31:22.879Z</time></trkpt><trkpt lat="40.6793817" lon="15.2059233"><ele>325.0</ele><time>2026-04-25T07:31:23.879Z</time></trkpt><trkpt lat="40.6793367" lon="15.2060467"><ele>322.66666666666663</ele><time>2026-04-25T07:31:24.879Z</time></trkpt><trkpt lat="40.6792867" lon="15.2061567"><ele>320.3333333333333</ele><time>2026-04-25T07:31:25.878Z</time></trkpt><trkpt lat="40.6792267" lon="15.206245"><ele>318.0</ele><time>2026-04-25T07:31:26.878Z</time></trkpt><trkpt lat="40.6791833" lon="15.2063083"><ele>315.6666666666667</ele><time>2026-04-25T07:31:27.878Z</time></trkpt><trkpt lat="40.679135" lon="15.206405"><ele>313.33333333333337</ele><time>2026-04-25T07:31:29.879Z</time></trkpt><trkpt lat="40.67918" lon="15.2064767"><ele>311.0</ele><time>2026-04-25T07:31:39.879Z</time></trkpt><trkpt lat="40.6792767" lon="15.206555"><ele>309.8</ele><time>2026-04-25T07:31:41.879Z</time></trkpt><trkpt lat="40.6793483" lon="15.2066083"><ele>308.6</ele><time>2026-04-25T07:31:42.879Z</time></trkpt><trkpt lat="40.679425" lon="15.20666"><ele>307.4</ele><time>2026-04-25T07:31:43.879Z</time></trkpt><trkpt lat="40.67951" lon="15.2067283"><ele>306.2</ele><time>2026-04-25T07:31:44.878Z</time></trkpt><trkpt lat="40.6796" lon="15.2068183"><ele>305.0</ele><time>2026-04-25T07:31:45.879Z</time></trkpt><trkpt lat="40.67967" lon="15.206905"><ele>305.0</ele><time>2026-04-25T07:31:46.878Z</time></trkpt><trkpt lat="40.6797317" lon="15.2069817"><ele>305.0</ele><time>2026-04-25T07:31:47.879Z</time></trkpt><trkpt lat="40.67978" lon="15.2070467"><ele>305.0</ele><time>2026-04-25T07:31:48.879Z</time></trkpt><trkpt lat="40.67983" lon="15.2071033"><ele>305.0</ele><time>2026-04-25T07:31:49.878Z</time></trkpt><trkpt lat="40.6798833" lon="15.2071533"><ele>305.0</ele><time>2026-04-25T07:31:50.879Z</time></trkpt><trkpt lat="40.6799967" lon="15.2072333"><ele>305.0</ele><time>2026-04-25T07:31:52.879Z</time></trkpt><trkpt lat="40.6800617" lon="15.2072617"><ele>305.0</ele><time>2026-04-25T07:31:53.879Z</time></trkpt><trkpt lat="40.680175" lon="15.2073117"><ele>305.0</ele><time>2026-04-25T07:31:55.879Z</time></trkpt><trkpt lat="40.68027" lon="15.207375"><ele>305.0</ele><time>2026-04-25T07:31:57.879Z</time></trkpt><trkpt lat="40.6803417" lon="15.2074783"><ele>305.0</ele><time>2026-04-25T07:31:59.878Z</time></trkpt><trkpt lat="40.68042" lon="15.2075733"><ele>305.0</ele><time>2026-04-25T07:32:01.879Z</time></trkpt><trkpt lat="40.6805083" lon="15.2076483"><ele>303.6</ele><time>2026-04-25T07:32:03.879Z</time></trkpt><trkpt lat="40.6805767" lon="15.2077533"><ele>302.2</ele><time>2026-04-25T07:32:05.878Z</time></trkpt><trkpt lat="40.6805933" lon="15.2078617"><ele>300.8</ele><time>2026-04-25T07:32:07.878Z</time></trkpt><trkpt lat="40.6805683" lon="15.2079717"><ele>299.4</ele><time>2026-04-25T07:32:09.878Z</time></trkpt><trkpt lat="40.6805767" lon="15.2080867"><ele>298.0</ele><time>2026-04-25T07:32:11.879Z</time></trkpt><trkpt lat="40.6806217" lon="15.2081917"><ele>296.6</ele><time>2026-04-25T07:32:13.878Z</time></trkpt><trkpt lat="40.6807483" lon="15.2083733"><ele>295.20000000000005</ele><time>2026-04-25T07:32:16.878Z</time></trkpt><trkpt lat="40.680805" lon="15.2084317"><ele>293.8</ele><time>2026-04-25T07:32:17.879Z</time></trkpt><trkpt lat="40.6808667" lon="15.2084817"><ele>292.40000000000003</ele><time>2026-04-25T07:32:18.878Z</time></trkpt><trkpt lat="40.6809417" lon="15.2085317"><ele>291.0</ele><time>2026-04-25T07:32:19.878Z</time></trkpt><trkpt lat="40.6810217" lon="15.208575"><ele>291.0</ele><time>2026-04-25T07:32:20.879Z</time></trkpt><trkpt lat="40.68109" lon="15.208615"><ele>291.0</ele><time>2026-04-25T07:32:21.879Z</time></trkpt><trkpt lat="40.681165" lon="15.2086767"><ele>291.0</ele><time>2026-04-25T07:32:23.879Z</time></trkpt><trkpt lat="40.6812033" lon="15.2087867"><ele>291.0</ele><time>2026-04-25T07:32:25.878Z</time></trkpt><trkpt lat="40.6812083" lon="15.20887"><ele>291.0</ele><time>2026-04-25T07:32:26.878Z</time></trkpt><trkpt lat="40.6812033" lon="15.20896"><ele>291.0</ele><time>2026-04-25T07:32:27.879Z</time></trkpt><trkpt lat="40.6812033" lon="15.2090533"><ele>290.6</ele><time>2026-04-25T07:32:28.878Z</time></trkpt><trkpt lat="40.6812083" lon="15.2091467"><ele>290.20000000000005</ele><time>2026-04-25T07:32:29.879Z</time></trkpt><trkpt lat="40.681245" lon="15.2092883"><ele>289.79999999999995</ele><time>2026-04-25T07:32:31.878Z</time></trkpt><trkpt lat="40.681285" lon="15.209395"><ele>289.4</ele><time>2026-04-25T07:32:33.879Z</time></trkpt><trkpt lat="40.681305" lon="15.2095317"><ele>289.0</ele><time>2026-04-25T07:32:35.879Z</time></trkpt><trkpt lat="40.681365" lon="15.2096683"><ele>289.0</ele><time>2026-04-25T07:32:37.879Z</time></trkpt><trkpt lat="40.6814783" lon="15.2097533"><ele>289.0</ele><time>2026-04-25T07:32:39.879Z</time></trkpt><trkpt lat="40.6815383" lon="15.2097817"><ele>289.0</ele><time>2026-04-25T07:32:40.879Z</time></trkpt><trkpt lat="40.6816017" lon="15.2097967"><ele>289.0</ele><time>2026-04-25T07:32:41.878Z</time></trkpt><trkpt lat="40.6816667" lon="15.2097983"><ele>289.0</ele><time>2026-04-25T07:32:42.879Z</time></trkpt><trkpt lat="40.6817333" lon="15.2097983"><ele>289.0</ele><time>2026-04-25T07:32:43.879Z</time></trkpt><trkpt lat="40.6818083" lon="15.2098033"><ele>289.0</ele><time>2026-04-25T07:32:44.878Z</time></trkpt><trkpt lat="40.6818767" lon="15.2098233"><ele>289.0</ele><time>2026-04-25T07:32:45.878Z</time></trkpt><trkpt lat="40.68194" lon="15.2098633"><ele>289.0</ele><time>2026-04-25T07:32:46.879Z</time></trkpt><trkpt lat="40.682" lon="15.20989"><ele>289.0</ele><time>2026-04-25T07:32:47.878Z</time></trkpt><trkpt lat="40.682115" lon="15.2098967"><ele>289.0</ele><time>2026-04-25T07:32:49.878Z</time></trkpt><trkpt lat="40.6822217" lon="15.209895"><ele>289.0</ele><time>2026-04-25T07:32:51.879Z</time></trkpt><trkpt lat="40.6823183" lon="15.2099617"><ele>288.4</ele><time>2026-04-25T07:32:53.878Z</time></trkpt><trkpt lat="40.68238" lon="15.210055"><ele>287.79999999999995</ele><time>2026-04-25T07:32:55.878Z</time></trkpt><trkpt lat="40.6824317" lon="15.2101783"><ele>287.20000000000005</ele><time>2026-04-25T07:32:58.879Z</time></trkpt><trkpt lat="40.6824867" lon="15.2102317"><ele>286.6</ele><time>2026-04-25T07:33:00.879Z</time></trkpt><trkpt lat="40.6825883" lon="15.2102383"><ele>286.0</ele><time>2026-04-25T07:33:03.879Z</time></trkpt><trkpt lat="40.6827017" lon="15.2102117"><ele>287.6</ele><time>2026-04-25T07:33:05.878Z</time></trkpt><trkpt lat="40.6828" lon="15.2102233"><ele>289.20000000000005</ele><time>2026-04-25T07:33:07.878Z</time></trkpt><trkpt lat="40.6828783" lon="15.210285"><ele>290.79999999999995</ele><time>2026-04-25T07:33:09.878Z</time></trkpt><trkpt lat="40.682925" lon="15.210345"><ele>292.4</ele><time>2026-04-25T07:33:10.879Z</time></trkpt><trkpt lat="40.6829983" lon="15.2104267"><ele>294.0</ele><time>2026-04-25T07:33:11.878Z</time></trkpt><trkpt lat="40.6830883" lon="15.2104967"><ele>294.0</ele><time>2026-04-25T07:33:12.879Z</time></trkpt><trkpt lat="40.683175" lon="15.2105567"><ele>294.0</ele><time>2026-04-25T07:33:13.879Z</time></trkpt><trkpt lat="40.6832617" lon="15.2106117"><ele>294.0</ele><time>2026-04-25T07:33:14.878Z</time></trkpt><trkpt lat="40.683355" lon="15.210675"><ele>294.0</ele><time>2026-04-25T07:33:15.878Z</time></trkpt><trkpt lat="40.6834417" lon="15.2107533"><ele>294.0</ele><time>2026-04-25T07:33:16.879Z</time></trkpt><trkpt lat="40.6835183" lon="15.2108433"><ele>293.4</ele><time>2026-04-25T07:33:17.878Z</time></trkpt><trkpt lat="40.6835867" lon="15.2109583"><ele>292.79999999999995</ele><time>2026-04-25T07:33:18.879Z</time></trkpt><trkpt lat="40.683645" lon="15.2110817"><ele>292.20000000000005</ele><time>2026-04-25T07:33:19.879Z</time></trkpt><trkpt lat="40.683695" lon="15.21119"><ele>291.6</ele><time>2026-04-25T07:33:20.879Z</time></trkpt><trkpt lat="40.6837433" lon="15.2112767"><ele>291.0</ele><time>2026-04-25T07:33:21.879Z</time></trkpt><trkpt lat="40.6838017" lon="15.2113617"><ele>293.75</ele><time>2026-04-25T07:33:22.878Z</time></trkpt><trkpt lat="40.6838917" lon="15.2114433"><ele>296.5</ele><time>2026-04-25T07:33:23.878Z</time></trkpt><trkpt lat="40.68401" lon="15.2115283"><ele>299.25</ele><time>2026-04-25T07:33:24.879Z</time></trkpt><trkpt lat="40.6841517" lon="15.2116017"><ele>302.0</ele><time>2026-04-25T07:33:25.879Z</time></trkpt><trkpt lat="40.6842767" lon="15.2116917"><ele>302.0</ele><time>2026-04-25T07:33:26.878Z</time></trkpt><trkpt lat="40.6843883" lon="15.2118267"><ele>302.0</ele><time>2026-04-25T07:33:27.878Z</time></trkpt><trkpt lat="40.6845017" lon="15.21199"><ele>302.0</ele><time>2026-04-25T07:33:28.879Z</time></trkpt><trkpt lat="40.6846167" lon="15.212155"><ele>306.33333333333337</ele><time>2026-04-25T07:33:29.879Z</time></trkpt><trkpt lat="40.684745" lon="15.2123017"><ele>310.6666666666667</ele><time>2026-04-25T07:33:30.878Z</time></trkpt><trkpt lat="40.68486" lon="15.212425"><ele>315.0</ele><time>2026-04-25T07:33:31.878Z</time></trkpt><trkpt lat="40.68495" lon="15.2125633"><ele>315.0</ele><time>2026-04-25T07:33:32.879Z</time></trkpt><trkpt lat="40.685025" lon="15.2127083"><ele>315.0</ele><time>2026-04-25T07:33:33.879Z</time></trkpt><trkpt lat="40.6851" lon="15.2128583"><ele>315.0</ele><time>2026-04-25T07:33:34.878Z</time></trkpt><trkpt lat="40.6851667" lon="15.2130067"><ele>315.0</ele><time>2026-04-25T07:33:35.879Z</time></trkpt><trkpt lat="40.68523" lon="15.2131617"><ele>319.25</ele><time>2026-04-25T07:33:36.879Z</time></trkpt><trkpt lat="40.6852883" lon="15.21331"><ele>323.5</ele><time>2026-04-25T07:33:37.879Z</time></trkpt><trkpt lat="40.6853467" lon="15.2134583"><ele>327.75</ele><time>2026-04-25T07:33:38.879Z</time></trkpt><trkpt lat="40.6853983" lon="15.2135917"><ele>332.0</ele><time>2026-04-25T07:33:39.878Z</time></trkpt><trkpt lat="40.6854517" lon="15.2137017"><ele>332.0</ele><time>2026-04-25T07:33:40.879Z</time></trkpt><trkpt lat="40.6855033" lon="15.213795"><ele>332.0</ele><time>2026-04-25T07:33:41.879Z</time></trkpt><trkpt lat="40.6855733" lon="15.2138667"><ele>332.0</ele><time>2026-04-25T07:33:42.879Z</time></trkpt><trkpt lat="40.68566" lon="15.2139117"><ele>332.0</ele><time>2026-04-25T07:33:43.879Z</time></trkpt><trkpt lat="40.6857567" lon="15.2139417"><ele>332.0</ele><time>2026-04-25T07:33:44.879Z</time></trkpt><trkpt lat="40.685855" lon="15.2139617"><ele>332.0</ele><time>2026-04-25T07:33:45.878Z</time></trkpt><trkpt lat="40.6859817" lon="15.2139883"><ele>332.0</ele><time>2026-04-25T07:33:46.879Z</time></trkpt><trkpt lat="40.68614" lon="15.21402"><ele>332.0</ele><time>2026-04-25T07:33:47.879Z</time></trkpt><trkpt lat="40.6862733" lon="15.2140567"><ele>332.0</ele><time>2026-04-25T07:33:48.878Z</time></trkpt><trkpt lat="40.68636" lon="15.2140867"><ele>333.6666666666667</ele><time>2026-04-25T07:33:49.878Z</time></trkpt><trkpt lat="40.6864283" lon="15.2141083"><ele>335.33333333333337</ele><time>2026-04-25T07:33:51.879Z</time></trkpt><trkpt lat="40.6864817" lon="15.2139733"><ele>337.0</ele><time>2026-04-25T07:33:59.878Z</time></trkpt><trkpt lat="40.68649" lon="15.213885"><ele>338.6666666666667</ele><time>2026-04-25T07:34:00.878Z</time></trkpt><trkpt lat="40.6865183" lon="15.213795"><ele>340.3333333333333</ele><time>2026-04-25T07:34:01.879Z</time></trkpt><trkpt lat="40.6865667" lon="15.2137233"><ele>342.0</ele><time>2026-04-25T07:34:02.878Z</time></trkpt><trkpt lat="40.68663" lon="15.2136633"><ele>342.0</ele><time>2026-04-25T07:34:03.878Z</time></trkpt><trkpt lat="40.6867" lon="15.2136067"><ele>342.0</ele><time>2026-04-25T07:34:04.878Z</time></trkpt><trkpt lat="40.6867717" lon="15.2135533"><ele>342.0</ele><time>2026-04-25T07:34:05.879Z</time></trkpt><trkpt lat="40.68685" lon="15.2135033"><ele>342.0</ele><time>2026-04-25T07:34:06.879Z</time></trkpt><trkpt lat="40.6869233" lon="15.21344"><ele>342.0</ele><time>2026-04-25T07:34:07.879Z</time></trkpt><trkpt lat="40.6869967" lon="15.2133667"><ele>342.0</ele><time>2026-04-25T07:34:08.879Z</time></trkpt><trkpt lat="40.687065" lon="15.2132867"><ele>342.20000000000005</ele><time>2026-04-25T07:34:09.879Z</time></trkpt><trkpt lat="40.687125" lon="15.213185"><ele>342.4</ele><time>2026-04-25T07:34:10.878Z</time></trkpt><trkpt lat="40.687175" lon="15.2130683"><ele>342.6</ele><time>2026-04-25T07:34:11.879Z</time></trkpt><trkpt lat="40.6872267" lon="15.2129517"><ele>342.79999999999995</ele><time>2026-04-25T07:34:12.879Z</time></trkpt><trkpt lat="40.6872767" lon="15.212835"><ele>343.0</ele><time>2026-04-25T07:34:13.879Z</time></trkpt><trkpt lat="40.6873283" lon="15.2127233"><ele>343.0</ele><time>2026-04-25T07:34:14.878Z</time></trkpt><trkpt lat="40.6873783" lon="15.212625"><ele>343.0</ele><time>2026-04-25T07:34:15.878Z</time></trkpt><trkpt lat="40.68743" lon="15.2125417"><ele>343.0</ele><time>2026-04-25T07:34:16.879Z</time></trkpt><trkpt lat="40.687485" lon="15.2124733"><ele>343.0</ele><time>2026-04-25T07:34:17.879Z</time></trkpt><trkpt lat="40.6875433" lon="15.2124"><ele>343.0</ele><time>2026-04-25T07:34:18.879Z</time></trkpt><trkpt lat="40.6876033" lon="15.21232"><ele>343.0</ele><time>2026-04-25T07:34:19.879Z</time></trkpt><trkpt lat="40.6876517" lon="15.2122167"><ele>343.59999999999997</ele><time>2026-04-25T07:34:20.879Z</time></trkpt><trkpt lat="40.6876767" lon="15.2120867"><ele>344.2</ele><time>2026-04-25T07:34:21.879Z</time></trkpt><trkpt lat="40.6876817" lon="15.2119367"><ele>344.8</ele><time>2026-04-25T07:34:22.878Z</time></trkpt><trkpt lat="40.6877067" lon="15.2118017"><ele>345.4</ele><time>2026-04-25T07:34:23.879Z</time></trkpt><trkpt lat="40.6877617" lon="15.21168"><ele>346.0</ele><time>2026-04-25T07:34:24.878Z</time></trkpt><trkpt lat="40.68781" lon="15.2115583"><ele>349.20000000000005</ele><time>2026-04-25T07:34:25.879Z</time></trkpt><trkpt lat="40.6878583" lon="15.2114333"><ele>352.40000000000003</ele><time>2026-04-25T07:34:26.879Z</time></trkpt><trkpt lat="40.6878933" lon="15.2113017"><ele>355.6</ele><time>2026-04-25T07:34:27.879Z</time></trkpt><trkpt lat="40.6879117" lon="15.2111717"><ele>358.8</ele><time>2026-04-25T07:34:28.879Z</time></trkpt><trkpt lat="40.687915" lon="15.2110333"><ele>362.0</ele><time>2026-04-25T07:34:29.878Z</time></trkpt><trkpt lat="40.68792" lon="15.2109017"><ele>362.0</ele><time>2026-04-25T07:34:30.878Z</time></trkpt><trkpt lat="40.6879383" lon="15.2107767"><ele>362.0</ele><time>2026-04-25T07:34:31.879Z</time></trkpt><trkpt lat="40.687955" lon="15.2106567"><ele>362.0</ele><time>2026-04-25T07:34:32.878Z</time></trkpt><trkpt lat="40.687975" lon="15.2105517"><ele>362.0</ele><time>2026-04-25T07:34:33.879Z</time></trkpt><trkpt lat="40.6880117" lon="15.210445"><ele>362.0</ele><time>2026-04-25T07:34:34.879Z</time></trkpt><trkpt lat="40.6880617" lon="15.2103483"><ele>362.0</ele><time>2026-04-25T07:34:35.879Z</time></trkpt><trkpt lat="40.6881167" lon="15.2102433"><ele>363.20000000000005</ele><time>2026-04-25T07:34:36.878Z</time></trkpt><trkpt lat="40.6881783" lon="15.210135"><ele>364.4</ele><time>2026-04-25T07:34:37.879Z</time></trkpt><trkpt lat="40.6882433" lon="15.21002"><ele>365.6</ele><time>2026-04-25T07:34:38.879Z</time></trkpt><trkpt lat="40.6883033" lon="15.2099017"><ele>366.79999999999995</ele><time>2026-04-25T07:34:39.878Z</time></trkpt><trkpt lat="40.6883583" lon="15.209785"><ele>368.0</ele><time>2026-04-25T07:34:40.878Z</time></trkpt><trkpt lat="40.6884117" lon="15.2096633"><ele>370.0</ele><time>2026-04-25T07:34:41.879Z</time></trkpt><trkpt lat="40.6884567" lon="15.209545"><ele>372.0</ele><time>2026-04-25T07:34:42.879Z</time></trkpt><trkpt lat="40.68849" lon="15.2094383"><ele>374.0</ele><time>2026-04-25T07:34:43.878Z</time></trkpt><trkpt lat="40.6885017" lon="15.209325"><ele>376.0</ele><time>2026-04-25T07:34:44.879Z</time></trkpt><trkpt lat="40.6885017" lon="15.2092017"><ele>378.0</ele><time>2026-04-25T07:34:45.879Z</time></trkpt><trkpt lat="40.6884983" lon="15.2090717"><ele>380.2</ele><time>2026-04-25T07:34:46.878Z</time></trkpt><trkpt lat="40.6885033" lon="15.2089367"><ele>382.4</ele><time>2026-04-25T07:34:47.879Z</time></trkpt><trkpt lat="40.68852" lon="15.2088"><ele>384.59999999999997</ele><time>2026-04-25T07:34:48.878Z</time></trkpt><trkpt lat="40.6885433" lon="15.2086583"><ele>386.79999999999995</ele><time>2026-04-25T07:34:49.879Z</time></trkpt><trkpt lat="40.688575" lon="15.2085167"><ele>389.0</ele><time>2026-04-25T07:34:50.879Z</time></trkpt><trkpt lat="40.6886167" lon="15.208375"><ele>389.75</ele><time>2026-04-25T07:34:51.878Z</time></trkpt><trkpt lat="40.6886667" lon="15.2082317"><ele>390.5</ele><time>2026-04-25T07:34:52.879Z</time></trkpt><trkpt lat="40.6887033" lon="15.208085"><ele>391.25</ele><time>2026-04-25T07:34:53.879Z</time></trkpt><trkpt lat="40.6887367" lon="15.2079333"><ele>392.0</ele><time>2026-04-25T07:34:54.878Z</time></trkpt><trkpt lat="40.6887683" lon="15.2078"><ele>393.3333333333333</ele><time>2026-04-25T07:34:55.878Z</time></trkpt><trkpt lat="40.6887983" lon="15.2076833"><ele>394.66666666666663</ele><time>2026-04-25T07:34:56.879Z</time></trkpt><trkpt lat="40.6888183" lon="15.2075883"><ele>396.0</ele><time>2026-04-25T07:34:57.879Z</time></trkpt><trkpt lat="40.6888433" lon="15.2075033"><ele>397.33333333333337</ele><time>2026-04-25T07:34:58.879Z</time></trkpt><trkpt lat="40.6888667" lon="15.2074133"><ele>398.6666666666667</ele><time>2026-04-25T07:34:59.878Z</time></trkpt><trkpt lat="40.6888883" lon="15.2073183"><ele>400.0</ele><time>2026-04-25T07:35:00.879Z</time></trkpt><trkpt lat="40.68891" lon="15.207215"><ele>400.6</ele><time>2026-04-25T07:35:01.879Z</time></trkpt><trkpt lat="40.6889267" lon="15.2070967"><ele>401.2</ele><time>2026-04-25T07:35:02.879Z</time></trkpt><trkpt lat="40.6889433" lon="15.20696"><ele>401.79999999999995</ele><time>2026-04-25T07:35:03.879Z</time></trkpt><trkpt lat="40.6889533" lon="15.20681"><ele>402.4</ele><time>2026-04-25T07:35:04.878Z</time></trkpt><trkpt lat="40.68896" lon="15.2066433"><ele>403.0</ele><time>2026-04-25T07:35:05.879Z</time></trkpt><trkpt lat="40.6889667" lon="15.2064683"><ele>405.0</ele><time>2026-04-25T07:35:06.878Z</time></trkpt><trkpt lat="40.6889767" lon="15.2062883"><ele>407.0</ele><time>2026-04-25T07:35:07.878Z</time></trkpt><trkpt lat="40.68899" lon="15.2060983"><ele>409.0</ele><time>2026-04-25T07:35:08.878Z</time></trkpt><trkpt lat="40.688995" lon="15.2059183"><ele>411.0</ele><time>2026-04-25T07:35:09.878Z</time></trkpt><trkpt lat="40.6890033" lon="15.20575"><ele>412.0</ele><time>2026-04-25T07:35:10.878Z</time></trkpt><trkpt lat="40.688995" lon="15.2055883"><ele>413.0</ele><time>2026-04-25T07:35:11.879Z</time></trkpt><trkpt lat="40.68896" lon="15.2054233"><ele>414.0</ele><time>2026-04-25T07:35:12.878Z</time></trkpt><trkpt lat="40.6889133" lon="15.205265"><ele>415.0</ele><time>2026-04-25T07:35:13.878Z</time></trkpt><trkpt lat="40.6888817" lon="15.2051033"><ele>415.0</ele><time>2026-04-25T07:35:14.879Z</time></trkpt><trkpt lat="40.68888" lon="15.204925"><ele>415.0</ele><time>2026-04-25T07:35:15.878Z</time></trkpt><trkpt lat="40.6888983" lon="15.2047433"><ele>415.0</ele><time>2026-04-25T07:35:16.878Z</time></trkpt><trkpt lat="40.68893" lon="15.204555"><ele>415.0</ele><time>2026-04-25T07:35:17.878Z</time></trkpt><trkpt lat="40.6889817" lon="15.2043717"><ele>416.0</ele><time>2026-04-25T07:35:18.879Z</time></trkpt><trkpt lat="40.6890467" lon="15.2042017"><ele>417.0</ele><time>2026-04-25T07:35:19.879Z</time></trkpt><trkpt lat="40.6891" lon="15.2040167"><ele>418.0</ele><time>2026-04-25T07:35:20.878Z</time></trkpt><trkpt lat="40.68915" lon="15.20381"><ele>420.0</ele><time>2026-04-25T07:35:21.879Z</time></trkpt><trkpt lat="40.6892167" lon="15.2036067"><ele>422.0</ele><time>2026-04-25T07:35:22.878Z</time></trkpt><trkpt lat="40.6892833" lon="15.2034183"><ele>424.0</ele><time>2026-04-25T07:35:23.879Z</time></trkpt><trkpt lat="40.6893317" lon="15.2032317"><ele>424.75</ele><time>2026-04-25T07:35:24.878Z</time></trkpt><trkpt lat="40.689365" lon="15.2030583"><ele>425.5</ele><time>2026-04-25T07:35:25.879Z</time></trkpt><trkpt lat="40.6894017" lon="15.2029133"><ele>426.25</ele><time>2026-04-25T07:35:26.879Z</time></trkpt><trkpt lat="40.6894183" lon="15.2027733"><ele>427.0</ele><time>2026-04-25T07:35:27.879Z</time></trkpt><trkpt lat="40.6894017" lon="15.2026283"><ele>427.0</ele><time>2026-04-25T07:35:28.879Z</time></trkpt><trkpt lat="40.6893683" lon="15.2024717"><ele>427.0</ele><time>2026-04-25T07:35:29.878Z</time></trkpt><trkpt lat="40.6893383" lon="15.2023033"><ele>427.0</ele><time>2026-04-25T07:35:30.878Z</time></trkpt><trkpt lat="40.68932" lon="15.2021183"><ele>427.0</ele><time>2026-04-25T07:35:31.879Z</time></trkpt><trkpt lat="40.6893233" lon="15.2019417"><ele>427.8</ele><time>2026-04-25T07:35:32.878Z</time></trkpt><trkpt lat="40.6893167" lon="15.2017717"><ele>428.6</ele><time>2026-04-25T07:35:33.878Z</time></trkpt><trkpt lat="40.6892983" lon="15.2016167"><ele>429.40000000000003</ele><time>2026-04-25T07:35:34.879Z</time></trkpt><trkpt lat="40.689285" lon="15.2014817"><ele>430.20000000000005</ele><time>2026-04-25T07:35:35.878Z</time></trkpt><trkpt lat="40.6892917" lon="15.2013633"><ele>431.0</ele><time>2026-04-25T07:35:36.878Z</time></trkpt><trkpt lat="40.6893233" lon="15.2012467"><ele>433.0</ele><time>2026-04-25T07:35:37.878Z</time></trkpt><trkpt lat="40.6893883" lon="15.201145"><ele>435.0</ele><time>2026-04-25T07:35:38.878Z</time></trkpt><trkpt lat="40.689475" lon="15.20108"><ele>437.0</ele><time>2026-04-25T07:35:39.878Z</time></trkpt><trkpt lat="40.689575" lon="15.2010467"><ele>439.0</ele><time>2026-04-25T07:35:40.877Z</time></trkpt><trkpt lat="40.6896933" lon="15.2010267"><ele>441.0</ele><time>2026-04-25T07:35:41.878Z</time></trkpt><trkpt lat="40.6898017" lon="15.20101"><ele>441.0</ele><time>2026-04-25T07:35:42.877Z</time></trkpt><trkpt lat="40.6898917" lon="15.2009817"><ele>441.0</ele><time>2026-04-25T07:35:43.877Z</time></trkpt><trkpt lat="40.6899617" lon="15.2009367"><ele>441.0</ele><time>2026-04-25T07:35:44.878Z</time></trkpt><trkpt lat="40.6900133" lon="15.2008767"><ele>441.0</ele><time>2026-04-25T07:35:45.877Z</time></trkpt><trkpt lat="40.6900283" lon="15.200745"><ele>441.0</ele><time>2026-04-25T07:35:47.878Z</time></trkpt><trkpt lat="40.6899283" lon="15.200645"><ele>443.0</ele><time>2026-04-25T07:35:49.878Z</time></trkpt><trkpt lat="40.6898567" lon="15.20059"><ele>445.0</ele><time>2026-04-25T07:35:50.878Z</time></trkpt><trkpt lat="40.6897833" lon="15.2005083"><ele>447.0</ele><time>2026-04-25T07:35:51.877Z</time></trkpt><trkpt lat="40.689685" lon="15.20043"><ele>449.0</ele><time>2026-04-25T07:35:52.878Z</time></trkpt><trkpt lat="40.68958" lon="15.20036"><ele>451.0</ele><time>2026-04-25T07:35:53.878Z</time></trkpt><trkpt lat="40.6894783" lon="15.2002983"><ele>451.4</ele><time>2026-04-25T07:35:54.877Z</time></trkpt><trkpt lat="40.6893933" lon="15.2002417"><ele>451.8</ele><time>2026-04-25T07:35:55.877Z</time></trkpt><trkpt lat="40.6893283" lon="15.200145"><ele>452.19999999999993</ele><time>2026-04-25T07:35:56.878Z</time></trkpt><trkpt lat="40.68929" lon="15.2000267"><ele>452.59999999999997</ele><time>2026-04-25T07:35:57.878Z</time></trkpt><trkpt lat="40.6892767" lon="15.199895"><ele>453.0</ele><time>2026-04-25T07:35:58.878Z</time></trkpt><trkpt lat="40.6892867" lon="15.19976"><ele>454.25</ele><time>2026-04-25T07:35:59.877Z</time></trkpt><trkpt lat="40.68932" lon="15.199615"><ele>455.5</ele><time>2026-04-25T07:36:00.878Z</time></trkpt><trkpt lat="40.6893617" lon="15.1994667"><ele>456.75</ele><time>2026-04-25T07:36:01.878Z</time></trkpt><trkpt lat="40.689395" lon="15.1993033"><ele>458.0</ele><time>2026-04-25T07:36:02.877Z</time></trkpt><trkpt lat="40.6894183" lon="15.1991317"><ele>460.25</ele><time>2026-04-25T07:36:03.877Z</time></trkpt><trkpt lat="40.6894417" lon="15.1989583"><ele>462.5</ele><time>2026-04-25T07:36:04.878Z</time></trkpt><trkpt lat="40.6894567" lon="15.1987767"><ele>464.75</ele><time>2026-04-25T07:36:05.877Z</time></trkpt><trkpt lat="40.689475" lon="15.1986133"><ele>467.0</ele><time>2026-04-25T07:36:06.878Z</time></trkpt><trkpt lat="40.6894983" lon="15.1984483"><ele>467.0</ele><time>2026-04-25T07:36:07.877Z</time></trkpt><trkpt lat="40.6895333" lon="15.19829"><ele>467.0</ele><time>2026-04-25T07:36:08.877Z</time></trkpt><trkpt lat="40.6895767" lon="15.198125"><ele>467.0</ele><time>2026-04-25T07:36:09.878Z</time></trkpt><trkpt lat="40.6896333" lon="15.1979667"><ele>467.0</ele><time>2026-04-25T07:36:10.877Z</time></trkpt><trkpt lat="40.6897017" lon="15.197825"><ele>469.25</ele><time>2026-04-25T07:36:11.877Z</time></trkpt><trkpt lat="40.6897717" lon="15.1976817"><ele>471.5</ele><time>2026-04-25T07:36:12.877Z</time></trkpt><trkpt lat="40.6898467" lon="15.1975467"><ele>473.75</ele><time>2026-04-25T07:36:13.878Z</time></trkpt><trkpt lat="40.6899217" lon="15.197425"><ele>476.0</ele><time>2026-04-25T07:36:14.878Z</time></trkpt><trkpt lat="40.690005" lon="15.1973183"><ele>477.66666666666663</ele><time>2026-04-25T07:36:15.878Z</time></trkpt><trkpt lat="40.6900817" lon="15.1972483"><ele>479.3333333333333</ele><time>2026-04-25T07:36:16.878Z</time></trkpt><trkpt lat="40.6901683" lon="15.19718"><ele>481.0</ele><time>2026-04-25T07:36:18.877Z</time></trkpt><trkpt lat="40.69025" lon="15.197145"><ele>482.66666666666663</ele><time>2026-04-25T07:36:20.878Z</time></trkpt><trkpt lat="40.6903133" lon="15.19714"><ele>484.3333333333333</ele><time>2026-04-25T07:36:21.878Z</time></trkpt><trkpt lat="40.6903817" lon="15.1971283"><ele>486.0</ele><time>2026-04-25T07:36:22.877Z</time></trkpt><trkpt lat="40.6904767" lon="15.197035"><ele>486.5</ele><time>2026-04-25T07:36:24.877Z</time></trkpt><trkpt lat="40.6904667" lon="15.1968867"><ele>487.0</ele><time>2026-04-25T07:36:26.877Z</time></trkpt><trkpt lat="40.69041" lon="15.196825"><ele>487.5</ele><time>2026-04-25T07:36:27.877Z</time></trkpt><trkpt lat="40.6903567" lon="15.196765"><ele>488.0</ele><time>2026-04-25T07:36:28.877Z</time></trkpt><trkpt lat="40.6903183" lon="15.1966817"><ele>488.5</ele><time>2026-04-25T07:36:29.878Z</time></trkpt><trkpt lat="40.690305" lon="15.1965667"><ele>489.0</ele><time>2026-04-25T07:36:30.877Z</time></trkpt><trkpt lat="40.6903133" lon="15.19642"><ele>491.6</ele><time>2026-04-25T07:36:31.877Z</time></trkpt><trkpt lat="40.69033" lon="15.1962683"><ele>494.2</ele><time>2026-04-25T07:36:32.878Z</time></trkpt><trkpt lat="40.69034" lon="15.19612"><ele>496.80000000000007</ele><time>2026-04-25T07:36:33.877Z</time></trkpt><trkpt lat="40.6903483" lon="15.19598"><ele>499.40000000000003</ele><time>2026-04-25T07:36:34.878Z</time></trkpt><trkpt lat="40.6903617" lon="15.195835"><ele>502.0</ele><time>2026-04-25T07:36:35.878Z</time></trkpt><trkpt lat="40.6903833" lon="15.1956933"><ele>504.0</ele><time>2026-04-25T07:36:36.877Z</time></trkpt><trkpt lat="40.6904117" lon="15.1955483"><ele>506.0</ele><time>2026-04-25T07:36:37.877Z</time></trkpt><trkpt lat="40.6904517" lon="15.1954067"><ele>508.0</ele><time>2026-04-25T07:36:38.878Z</time></trkpt><trkpt lat="40.6904983" lon="15.1952517"><ele>510.0</ele><time>2026-04-25T07:36:39.877Z</time></trkpt><trkpt lat="40.6905433" lon="15.19508"><ele>510.0</ele><time>2026-04-25T07:36:40.878Z</time></trkpt><trkpt lat="40.6905933" lon="15.19492"><ele>510.0</ele><time>2026-04-25T07:36:41.878Z</time></trkpt><trkpt lat="40.69064" lon="15.1947667"><ele>510.0</ele><time>2026-04-25T07:36:42.877Z</time></trkpt><trkpt lat="40.6906767" lon="15.194635"><ele>510.0</ele><time>2026-04-25T07:36:43.878Z</time></trkpt><trkpt lat="40.6907017" lon="15.1944967"><ele>511.0</ele><time>2026-04-25T07:36:44.877Z</time></trkpt><trkpt lat="40.69071" lon="15.194345"><ele>512.0</ele><time>2026-04-25T07:36:45.877Z</time></trkpt><trkpt lat="40.6907033" lon="15.19419"><ele>513.0</ele><time>2026-04-25T07:36:46.878Z</time></trkpt><trkpt lat="40.6906833" lon="15.19403"><ele>514.0</ele><time>2026-04-25T07:36:47.877Z</time></trkpt><trkpt lat="40.6906767" lon="15.1938617"><ele>517.0</ele><time>2026-04-25T07:36:48.877Z</time></trkpt><trkpt lat="40.6906883" lon="15.1936933"><ele>520.0</ele><time>2026-04-25T07:36:49.877Z</time></trkpt><trkpt lat="40.69071" lon="15.19354"><ele>523.0</ele><time>2026-04-25T07:36:50.878Z</time></trkpt><trkpt lat="40.69074" lon="15.19338"><ele>526.0</ele><time>2026-04-25T07:36:51.877Z</time></trkpt><trkpt lat="40.6907633" lon="15.19323"><ele>527.5</ele><time>2026-04-25T07:36:52.878Z</time></trkpt><trkpt lat="40.6907717" lon="15.1930683"><ele>529.0</ele><time>2026-04-25T07:36:53.878Z</time></trkpt><trkpt lat="40.6907617" lon="15.192905"><ele>530.5</ele><time>2026-04-25T07:36:54.877Z</time></trkpt><trkpt lat="40.6907333" lon="15.1927433"><ele>532.0</ele><time>2026-04-25T07:36:55.878Z</time></trkpt><trkpt lat="40.6906967" lon="15.1925767"><ele>532.0</ele><time>2026-04-25T07:36:56.878Z</time></trkpt><trkpt lat="40.690655" lon="15.19241"><ele>532.0</ele><time>2026-04-25T07:36:57.878Z</time></trkpt><trkpt lat="40.69061" lon="15.1922567"><ele>532.0</ele><time>2026-04-25T07:36:58.877Z</time></trkpt><trkpt lat="40.6905617" lon="15.1921117"><ele>532.0</ele><time>2026-04-25T07:36:59.878Z</time></trkpt><trkpt lat="40.6905133" lon="15.1919617"><ele>533.75</ele><time>2026-04-25T07:37:00.877Z</time></trkpt><trkpt lat="40.6904433" lon="15.1918183"><ele>535.5</ele><time>2026-04-25T07:37:01.877Z</time></trkpt><trkpt lat="40.6903617" lon="15.19168"><ele>537.25</ele><time>2026-04-25T07:37:02.878Z</time></trkpt><trkpt lat="40.6902983" lon="15.191535"><ele>539.0</ele><time>2026-04-25T07:37:03.878Z</time></trkpt><trkpt lat="40.6902517" lon="15.1913767"><ele>540.0</ele><time>2026-04-25T07:37:04.878Z</time></trkpt><trkpt lat="40.6902217" lon="15.191195"><ele>541.0</ele><time>2026-04-25T07:37:05.877Z</time></trkpt><trkpt lat="40.6902017" lon="15.1910033"><ele>542.0</ele><time>2026-04-25T07:37:06.877Z</time></trkpt><trkpt lat="40.6901733" lon="15.19081"><ele>543.0</ele><time>2026-04-25T07:37:07.877Z</time></trkpt><trkpt lat="40.6901467" lon="15.1906267"><ele>544.5</ele><time>2026-04-25T07:37:08.878Z</time></trkpt><trkpt lat="40.69013" lon="15.190445"><ele>546.0</ele><time>2026-04-25T07:37:09.878Z</time></trkpt><trkpt lat="40.69014" lon="15.19026"><ele>547.5</ele><time>2026-04-25T07:37:10.878Z</time></trkpt><trkpt lat="40.6901583" lon="15.1900767"><ele>549.0</ele><time>2026-04-25T07:37:11.877Z</time></trkpt><trkpt lat="40.6901783" lon="15.1899083"><ele>551.0</ele><time>2026-04-25T07:37:12.878Z</time></trkpt><trkpt lat="40.6901983" lon="15.1897617"><ele>553.0</ele><time>2026-04-25T07:37:13.877Z</time></trkpt><trkpt lat="40.6902333" lon="15.1896283"><ele>555.0</ele><time>2026-04-25T07:37:14.878Z</time></trkpt><trkpt lat="40.6902867" lon="15.189505"><ele>557.0</ele><time>2026-04-25T07:37:15.877Z</time></trkpt><trkpt lat="40.690355" lon="15.1893967"><ele>559.0</ele><time>2026-04-25T07:37:16.878Z</time></trkpt><trkpt lat="40.6904283" lon="15.1893"><ele>559.5</ele><time>2026-04-25T07:37:17.878Z</time></trkpt><trkpt lat="40.6904933" lon="15.1892"><ele>560.0</ele><time>2026-04-25T07:37:18.877Z</time></trkpt><trkpt lat="40.6905317" lon="15.1891033"><ele>560.5</ele><time>2026-04-25T07:37:19.878Z</time></trkpt><trkpt lat="40.6905333" lon="15.189"><ele>561.0</ele><time>2026-04-25T07:37:20.878Z</time></trkpt><trkpt lat="40.6905167" lon="15.18889"><ele>561.5</ele><time>2026-04-25T07:37:21.878Z</time></trkpt><trkpt lat="40.6905033" lon="15.1887633"><ele>562.0</ele><time>2026-04-25T07:37:22.878Z</time></trkpt><trkpt lat="40.6905067" lon="15.1886267"><ele>565.0</ele><time>2026-04-25T07:37:23.877Z</time></trkpt><trkpt lat="40.6905383" lon="15.1884833"><ele>568.0</ele><time>2026-04-25T07:37:24.877Z</time></trkpt><trkpt lat="40.6905717" lon="15.188335"><ele>571.0</ele><time>2026-04-25T07:37:25.877Z</time></trkpt><trkpt lat="40.6906167" lon="15.188185"><ele>574.0</ele><time>2026-04-25T07:37:26.878Z</time></trkpt><trkpt lat="40.6906683" lon="15.1880317"><ele>575.5</ele><time>2026-04-25T07:37:27.877Z</time></trkpt><trkpt lat="40.69072" lon="15.187885"><ele>577.0</ele><time>2026-04-25T07:37:28.878Z</time></trkpt><trkpt lat="40.6907817" lon="15.1877417"><ele>578.5</ele><time>2026-04-25T07:37:29.877Z</time></trkpt><trkpt lat="40.6908433" lon="15.1875967"><ele>580.0</ele><time>2026-04-25T07:37:30.878Z</time></trkpt><trkpt lat="40.690895" lon="15.187465"><ele>581.0</ele><time>2026-04-25T07:37:31.878Z</time></trkpt><trkpt lat="40.6909333" lon="15.18733"><ele>582.0</ele><time>2026-04-25T07:37:32.878Z</time></trkpt><trkpt lat="40.6909633" lon="15.187185"><ele>583.0</ele><time>2026-04-25T07:37:33.878Z</time></trkpt><trkpt lat="40.69098" lon="15.187045"><ele>584.0</ele><time>2026-04-25T07:37:34.878Z</time></trkpt><trkpt lat="40.690995" lon="15.1869033"><ele>585.0</ele><time>2026-04-25T07:37:35.878Z</time></trkpt><trkpt lat="40.6910133" lon="15.1867633"><ele>585.0</ele><time>2026-04-25T07:37:36.878Z</time></trkpt><trkpt lat="40.691015" lon="15.18662"><ele>585.0</ele><time>2026-04-25T07:37:37.878Z</time></trkpt><trkpt lat="40.691005" lon="15.1864717"><ele>585.0</ele><time>2026-04-25T07:37:38.877Z</time></trkpt><trkpt lat="40.6909883" lon="15.1863317"><ele>585.0</ele><time>2026-04-25T07:37:39.877Z</time></trkpt><trkpt lat="40.690955" lon="15.18619"><ele>585.0</ele><time>2026-04-25T07:37:40.878Z</time></trkpt><trkpt lat="40.69092" lon="15.1860533"><ele>586.2</ele><time>2026-04-25T07:37:41.878Z</time></trkpt><trkpt lat="40.6908833" lon="15.1859283"><ele>587.4</ele><time>2026-04-25T07:37:42.878Z</time></trkpt><trkpt lat="40.6908417" lon="15.1858067"><ele>588.6</ele><time>2026-04-25T07:37:43.877Z</time></trkpt><trkpt lat="40.69079" lon="15.185685"><ele>589.8</ele><time>2026-04-25T07:37:44.878Z</time></trkpt><trkpt lat="40.6907217" lon="15.1855733"><ele>591.0</ele><time>2026-04-25T07:37:45.878Z</time></trkpt><trkpt lat="40.6906417" lon="15.1854767"><ele>593.0</ele><time>2026-04-25T07:37:46.878Z</time></trkpt><trkpt lat="40.69056" lon="15.1853917"><ele>595.0</ele><time>2026-04-25T07:37:47.878Z</time></trkpt><trkpt lat="40.6904783" lon="15.185315"><ele>597.0</ele><time>2026-04-25T07:37:48.878Z</time></trkpt><trkpt lat="40.6904067" lon="15.1852217"><ele>599.0</ele><time>2026-04-25T07:37:49.878Z</time></trkpt><trkpt lat="40.69034" lon="15.1851283"><ele>601.0</ele><time>2026-04-25T07:37:50.878Z</time></trkpt><trkpt lat="40.690275" lon="15.185035"><ele>603.0</ele><time>2026-04-25T07:37:51.878Z</time></trkpt><trkpt lat="40.6902017" lon="15.1849433"><ele>605.0</ele><time>2026-04-25T07:37:52.878Z</time></trkpt><trkpt lat="40.6901233" lon="15.1848583"><ele>607.0</ele><time>2026-04-25T07:37:53.878Z</time></trkpt><trkpt lat="40.6900483" lon="15.184765"><ele>609.0</ele><time>2026-04-25T07:37:54.877Z</time></trkpt><trkpt lat="40.6899833" lon="15.18466"><ele>611.0</ele><time>2026-04-25T07:37:55.878Z</time></trkpt><trkpt lat="40.6899433" lon="15.184555"><ele>613.0</ele><time>2026-04-25T07:37:56.877Z</time></trkpt><trkpt lat="40.6899183" lon="15.184445"><ele>615.0</ele><time>2026-04-25T07:37:57.878Z</time></trkpt><trkpt lat="40.6899017" lon="15.1843283"><ele>617.0</ele><time>2026-04-25T07:37:58.878Z</time></trkpt><trkpt lat="40.689875" lon="15.1842133"><ele>619.0</ele><time>2026-04-25T07:37:59.877Z</time></trkpt><trkpt lat="40.68985" lon="15.1840867"><ele>621.0</ele><time>2026-04-25T07:38:00.878Z</time></trkpt><trkpt lat="40.6898233" lon="15.18396"><ele>622.8</ele><time>2026-04-25T07:38:01.877Z</time></trkpt><trkpt lat="40.6897933" lon="15.183835"><ele>624.6</ele><time>2026-04-25T07:38:02.877Z</time></trkpt><trkpt lat="40.68977" lon="15.1837017"><ele>626.4</ele><time>2026-04-25T07:38:03.878Z</time></trkpt><trkpt lat="40.6897533" lon="15.18357"><ele>628.2</ele><time>2026-04-25T07:38:04.877Z</time></trkpt><trkpt lat="40.689745" lon="15.1834383"><ele>630.0</ele><time>2026-04-25T07:38:05.877Z</time></trkpt><trkpt lat="40.6897467" lon="15.183305"><ele>632.4</ele><time>2026-04-25T07:38:06.877Z</time></trkpt><trkpt lat="40.689755" lon="15.183165"><ele>634.8</ele><time>2026-04-25T07:38:07.878Z</time></trkpt><trkpt lat="40.6897683" lon="15.1830233"><ele>637.2</ele><time>2026-04-25T07:38:08.877Z</time></trkpt><trkpt lat="40.6897817" lon="15.1828867"><ele>639.6</ele><time>2026-04-25T07:38:09.877Z</time></trkpt><trkpt lat="40.6898017" lon="15.1827467"><ele>642.0</ele><time>2026-04-25T07:38:10.877Z</time></trkpt><trkpt lat="40.6898417" lon="15.182605"><ele>642.0</ele><time>2026-04-25T07:38:11.878Z</time></trkpt><trkpt lat="40.6898767" lon="15.1824633"><ele>642.0</ele><time>2026-04-25T07:38:12.878Z</time></trkpt><trkpt lat="40.6899183" lon="15.1823233"><ele>642.0</ele><time>2026-04-25T07:38:13.878Z</time></trkpt><trkpt lat="40.6899517" lon="15.1821717"><ele>642.0</ele><time>2026-04-25T07:38:14.877Z</time></trkpt><trkpt lat="40.68998" lon="15.1820217"><ele>644.5</ele><time>2026-04-25T07:38:15.878Z</time></trkpt><trkpt lat="40.6899983" lon="15.1818633"><ele>647.0</ele><time>2026-04-25T07:38:16.877Z</time></trkpt><trkpt lat="40.6900083" lon="15.1817083"><ele>649.5</ele><time>2026-04-25T07:38:17.878Z</time></trkpt><trkpt lat="40.6900233" lon="15.1815567"><ele>652.0</ele><time>2026-04-25T07:38:18.877Z</time></trkpt><trkpt lat="40.69005" lon="15.1814167"><ele>653.2</ele><time>2026-04-25T07:38:19.877Z</time></trkpt><trkpt lat="40.690085" lon="15.181285"><ele>654.4000000000001</ele><time>2026-04-25T07:38:20.878Z</time></trkpt><trkpt lat="40.6901267" lon="15.1811617"><ele>655.5999999999999</ele><time>2026-04-25T07:38:21.877Z</time></trkpt><trkpt lat="40.69017" lon="15.181035"><ele>656.8</ele><time>2026-04-25T07:38:22.878Z</time></trkpt><trkpt lat="40.6902083" lon="15.1809117"><ele>658.0</ele><time>2026-04-25T07:38:23.877Z</time></trkpt><trkpt lat="40.690235" lon="15.1807867"><ele>657.8</ele><time>2026-04-25T07:38:24.878Z</time></trkpt><trkpt lat="40.6902467" lon="15.1806517"><ele>657.5999999999999</ele><time>2026-04-25T07:38:25.878Z</time></trkpt><trkpt lat="40.69025" lon="15.1805067"><ele>657.4000000000001</ele><time>2026-04-25T07:38:26.878Z</time></trkpt><trkpt lat="40.6902567" lon="15.1803617"><ele>657.2</ele><time>2026-04-25T07:38:27.877Z</time></trkpt><trkpt lat="40.6902667" lon="15.1802083"><ele>657.0</ele><time>2026-04-25T07:38:28.877Z</time></trkpt><trkpt lat="40.690275" lon="15.1800633"><ele>657.0</ele><time>2026-04-25T07:38:29.877Z</time></trkpt><trkpt lat="40.6903033" lon="15.1799083"><ele>657.0</ele><time>2026-04-25T07:38:30.877Z</time></trkpt><trkpt lat="40.6903283" lon="15.179765"><ele>657.0</ele><time>2026-04-25T07:38:31.877Z</time></trkpt><trkpt lat="40.690345" lon="15.1796267"><ele>657.0</ele><time>2026-04-25T07:38:32.877Z</time></trkpt><trkpt lat="40.6903667" lon="15.179485"><ele>657.0</ele><time>2026-04-25T07:38:33.878Z</time></trkpt><trkpt lat="40.690385" lon="15.1793467"><ele>658.8333333333334</ele><time>2026-04-25T07:38:34.877Z</time></trkpt><trkpt lat="40.69041" lon="15.17921"><ele>660.6666666666666</ele><time>2026-04-25T07:38:35.878Z</time></trkpt><trkpt lat="40.69042" lon="15.179085"><ele>662.5</ele><time>2026-04-25T07:38:36.877Z</time></trkpt><trkpt lat="40.690425" lon="15.1789683"><ele>664.3333333333333</ele><time>2026-04-25T07:38:37.878Z</time></trkpt><trkpt lat="40.6904367" lon="15.178865"><ele>666.1666666666666</ele><time>2026-04-25T07:38:38.877Z</time></trkpt><trkpt lat="40.6904667" lon="15.1787717"><ele>668.0</ele><time>2026-04-25T07:38:39.877Z</time></trkpt><trkpt lat="40.69051" lon="15.1786933"><ele>671.5</ele><time>2026-04-25T07:38:40.878Z</time></trkpt><trkpt lat="40.690575" lon="15.17865"><ele>675.0</ele><time>2026-04-25T07:38:41.878Z</time></trkpt><trkpt lat="40.690655" lon="15.1786417"><ele>678.5</ele><time>2026-04-25T07:38:42.877Z</time></trkpt><trkpt lat="40.69074" lon="15.1786517"><ele>682.0</ele><time>2026-04-25T07:38:43.878Z</time></trkpt><trkpt lat="40.69083" lon="15.17866"><ele>685.5</ele><time>2026-04-25T07:38:44.877Z</time></trkpt><trkpt lat="40.6909067" lon="15.1786583"><ele>689.0</ele><time>2026-04-25T07:38:45.878Z</time></trkpt><trkpt lat="40.6910133" lon="15.17861"><ele>689.0</ele><time>2026-04-25T07:38:47.877Z</time></trkpt><trkpt lat="40.6910067" lon="15.178485"><ele>689.0</ele><time>2026-04-25T07:38:49.877Z</time></trkpt><trkpt lat="40.6909617" lon="15.1784183"><ele>689.0</ele><time>2026-04-25T07:38:50.878Z</time></trkpt><trkpt lat="40.690905" lon="15.178355"><ele>689.0</ele><time>2026-04-25T07:38:51.877Z</time></trkpt><trkpt lat="40.6908483" lon="15.1782933"><ele>689.0</ele><time>2026-04-25T07:38:52.878Z</time></trkpt><trkpt lat="40.6907983" lon="15.1782267"><ele>689.0</ele><time>2026-04-25T07:38:53.878Z</time></trkpt><trkpt lat="40.6907583" lon="15.1781533"><ele>691.5</ele><time>2026-04-25T07:38:54.877Z</time></trkpt><trkpt lat="40.69073" lon="15.1780717"><ele>694.0</ele><time>2026-04-25T07:38:55.878Z</time></trkpt><trkpt lat="40.6907067" lon="15.177975"><ele>696.5</ele><time>2026-04-25T07:38:56.878Z</time></trkpt><trkpt lat="40.6907033" lon="15.17787"><ele>699.0</ele><time>2026-04-25T07:38:57.877Z</time></trkpt><trkpt lat="40.690705" lon="15.177755"><ele>701.5</ele><time>2026-04-25T07:38:58.878Z</time></trkpt><trkpt lat="40.6907083" lon="15.1776317"><ele>704.0</ele><time>2026-04-25T07:38:59.877Z</time></trkpt><trkpt lat="40.6907183" lon="15.1775183"><ele>704.0</ele><time>2026-04-25T07:39:00.878Z</time></trkpt><trkpt lat="40.6907417" lon="15.17741"><ele>704.0</ele><time>2026-04-25T07:39:01.877Z</time></trkpt><trkpt lat="40.6907667" lon="15.1773233"><ele>704.0</ele><time>2026-04-25T07:39:02.877Z</time></trkpt><trkpt lat="40.690835" lon="15.1772267"><ele>704.0</ele><time>2026-04-25T07:39:04.877Z</time></trkpt><trkpt lat="40.6909217" lon="15.1772183"><ele>704.0</ele><time>2026-04-25T07:39:06.878Z</time></trkpt><trkpt lat="40.6909633" lon="15.1773233"><ele>704.0</ele><time>2026-04-25T07:39:08.878Z</time></trkpt><trkpt lat="40.6909883" lon="15.17749"><ele>704.0</ele><time>2026-04-25T07:39:10.877Z</time></trkpt><trkpt lat="40.6910017" lon="15.1775833"><ele>704.0</ele><time>2026-04-25T07:39:11.877Z</time></trkpt><trkpt lat="40.69102" lon="15.1776733"><ele>704.0</ele><time>2026-04-25T07:39:12.877Z</time></trkpt><trkpt lat="40.6910617" lon="15.1777583"><ele>704.0</ele><time>2026-04-25T07:39:13.878Z</time></trkpt><trkpt lat="40.691125" lon="15.1778233"><ele>704.0</ele><time>2026-04-25T07:39:14.877Z</time></trkpt><trkpt lat="40.6912033" lon="15.1778733"><ele>704.0</ele><time>2026-04-25T07:39:15.877Z</time></trkpt><trkpt lat="40.6912883" lon="15.1778983"><ele>708.8000000000001</ele><time>2026-04-25T07:39:16.877Z</time></trkpt><trkpt lat="40.6913783" lon="15.1779067"><ele>713.6</ele><time>2026-04-25T07:39:17.878Z</time></trkpt><trkpt lat="40.6914883" lon="15.1778333"><ele>718.4</ele><time>2026-04-25T07:39:19.878Z</time></trkpt><trkpt lat="40.6915283" lon="15.1777"><ele>723.2</ele><time>2026-04-25T07:39:21.877Z</time></trkpt><trkpt lat="40.6915367" lon="15.1775417"><ele>728.0</ele><time>2026-04-25T07:39:23.877Z</time></trkpt><trkpt lat="40.6915417" lon="15.1774567"><ele>728.0</ele><time>2026-04-25T07:39:24.877Z</time></trkpt><trkpt lat="40.691545" lon="15.1773667"><ele>728.0</ele><time>2026-04-25T07:39:25.877Z</time></trkpt><trkpt lat="40.6915583" lon="15.177275"><ele>728.0</ele><time>2026-04-25T07:39:26.877Z</time></trkpt><trkpt lat="40.6915867" lon="15.1771867"><ele>728.0</ele><time>2026-04-25T07:39:27.877Z</time></trkpt><trkpt lat="40.6916333" lon="15.1770967"><ele>728.0</ele><time>2026-04-25T07:39:28.878Z</time></trkpt><trkpt lat="40.6916833" lon="15.177005"><ele>728.0</ele><time>2026-04-25T07:39:29.877Z</time></trkpt><trkpt lat="40.6917467" lon="15.1769033"><ele>730.1666666666666</ele><time>2026-04-25T07:39:30.877Z</time></trkpt><trkpt lat="40.6918033" lon="15.1768217"><ele>732.3333333333333</ele><time>2026-04-25T07:39:31.877Z</time></trkpt><trkpt lat="40.691865" lon="15.1767483"><ele>734.5</ele><time>2026-04-25T07:39:32.878Z</time></trkpt><trkpt lat="40.69193" lon="15.1766983"><ele>736.6666666666666</ele><time>2026-04-25T07:39:33.877Z</time></trkpt><trkpt lat="40.691995" lon="15.1766667"><ele>738.8333333333334</ele><time>2026-04-25T07:39:34.877Z</time></trkpt><trkpt lat="40.6921067" lon="15.176655"><ele>741.0</ele><time>2026-04-25T07:39:36.878Z</time></trkpt><trkpt lat="40.69217" lon="15.1766667"><ele>744.6666666666666</ele><time>2026-04-25T07:39:37.878Z</time></trkpt><trkpt lat="40.692235" lon="15.176685"><ele>748.3333333333334</ele><time>2026-04-25T07:39:38.877Z</time></trkpt><trkpt lat="40.6923067" lon="15.1767083"><ele>752.0</ele><time>2026-04-25T07:39:39.878Z</time></trkpt><trkpt lat="40.692375" lon="15.176735"><ele>755.6666666666667</ele><time>2026-04-25T07:39:40.877Z</time></trkpt><trkpt lat="40.6924417" lon="15.1767633"><ele>759.3333333333334</ele><time>2026-04-25T07:39:41.877Z</time></trkpt><trkpt lat="40.6924967" lon="15.176805"><ele>763.0</ele><time>2026-04-25T07:39:42.877Z</time></trkpt><trkpt lat="40.692575" lon="15.1768983"><ele>763.0</ele><time>2026-04-25T07:39:44.877Z</time></trkpt><trkpt lat="40.692615" lon="15.1770217"><ele>763.0</ele><time>2026-04-25T07:39:46.878Z</time></trkpt><trkpt lat="40.69262" lon="15.1771083"><ele>763.0</ele><time>2026-04-25T07:39:47.877Z</time></trkpt><trkpt lat="40.692615" lon="15.17721"><ele>763.0</ele><time>2026-04-25T07:39:48.878Z</time></trkpt><trkpt lat="40.6926083" lon="15.1773233"><ele>763.0</ele><time>2026-04-25T07:39:49.877Z</time></trkpt><trkpt lat="40.69262" lon="15.1774333"><ele>763.0</ele><time>2026-04-25T07:39:50.878Z</time></trkpt><trkpt lat="40.69266" lon="15.177525"><ele>761.5</ele><time>2026-04-25T07:39:51.877Z</time></trkpt><trkpt lat="40.6927067" lon="15.1776017"><ele>760.0</ele><time>2026-04-25T07:39:52.877Z</time></trkpt><trkpt lat="40.692765" lon="15.1776683"><ele>758.5</ele><time>2026-04-25T07:39:53.878Z</time></trkpt><trkpt lat="40.6928317" lon="15.1777317"><ele>757.0</ele><time>2026-04-25T07:39:54.877Z</time></trkpt><trkpt lat="40.69291" lon="15.177795"><ele>755.5</ele><time>2026-04-25T07:39:55.878Z</time></trkpt><trkpt lat="40.6929883" lon="15.1778567"><ele>754.0</ele><time>2026-04-25T07:39:56.877Z</time></trkpt><trkpt lat="40.6930683" lon="15.1779117"><ele>758.6</ele><time>2026-04-25T07:39:57.878Z</time></trkpt><trkpt lat="40.693145" lon="15.177965"><ele>763.2</ele><time>2026-04-25T07:39:58.877Z</time></trkpt><trkpt lat="40.6932383" lon="15.178005"><ele>767.8000000000001</ele><time>2026-04-25T07:39:59.877Z</time></trkpt><trkpt lat="40.6933317" lon="15.178025"><ele>772.4000000000001</ele><time>2026-04-25T07:40:00.878Z</time></trkpt><trkpt lat="40.69343" lon="15.1780317"><ele>777.0</ele><time>2026-04-25T07:40:01.877Z</time></trkpt><trkpt lat="40.6935333" lon="15.1780417"><ele>781.0</ele><time>2026-04-25T07:40:02.878Z</time></trkpt><trkpt lat="40.6936367" lon="15.178045"><ele>785.0</ele><time>2026-04-25T07:40:03.878Z</time></trkpt><trkpt lat="40.6937367" lon="15.1780467"><ele>789.0</ele><time>2026-04-25T07:40:04.878Z</time></trkpt><trkpt lat="40.6938367" lon="15.17805"><ele>793.0</ele><time>2026-04-25T07:40:05.877Z</time></trkpt><trkpt lat="40.6939383" lon="15.17804"><ele>797.0</ele><time>2026-04-25T07:40:06.877Z</time></trkpt><trkpt lat="40.6940367" lon="15.1780033"><ele>797.0</ele><time>2026-04-25T07:40:07.878Z</time></trkpt><trkpt lat="40.6941317" lon="15.177945"><ele>797.0</ele><time>2026-04-25T07:40:08.877Z</time></trkpt><trkpt lat="40.6942333" lon="15.1778617"><ele>797.0</ele><time>2026-04-25T07:40:09.878Z</time></trkpt><trkpt lat="40.6943333" lon="15.1777867"><ele>797.0</ele><time>2026-04-25T07:40:10.877Z</time></trkpt><trkpt lat="40.69443" lon="15.1777383"><ele>797.0</ele><time>2026-04-25T07:40:11.877Z</time></trkpt><trkpt lat="40.6945133" lon="15.1777083"><ele>800.8</ele><time>2026-04-25T07:40:12.878Z</time></trkpt><trkpt lat="40.6946033" lon="15.177695"><ele>804.6</ele><time>2026-04-25T07:40:13.878Z</time></trkpt><trkpt lat="40.6947017" lon="15.177675"><ele>808.4</ele><time>2026-04-25T07:40:14.877Z</time></trkpt><trkpt lat="40.6947933" lon="15.1776683"><ele>812.1999999999999</ele><time>2026-04-25T07:40:15.877Z</time></trkpt><trkpt lat="40.6948933" lon="15.1776667"><ele>816.0</ele><time>2026-04-25T07:40:16.878Z</time></trkpt><trkpt lat="40.6949933" lon="15.177685"><ele>816.0</ele><time>2026-04-25T07:40:17.878Z</time></trkpt><trkpt lat="40.6950967" lon="15.1777217"><ele>816.0</ele><time>2026-04-25T07:40:18.877Z</time></trkpt><trkpt lat="40.69521" lon="15.1777567"><ele>816.0</ele><time>2026-04-25T07:40:19.878Z</time></trkpt><trkpt lat="40.6953233" lon="15.1777867"><ele>816.0</ele><time>2026-04-25T07:40:20.878Z</time></trkpt><trkpt lat="40.695445" lon="15.1778133"><ele>820.5</ele><time>2026-04-25T07:40:21.878Z</time></trkpt><trkpt lat="40.6955567" lon="15.1778333"><ele>825.0</ele><time>2026-04-25T07:40:22.877Z</time></trkpt><trkpt lat="40.6956667" lon="15.1778533"><ele>829.5</ele><time>2026-04-25T07:40:23.877Z</time></trkpt><trkpt lat="40.69578" lon="15.17786"><ele>834.0</ele><time>2026-04-25T07:40:24.878Z</time></trkpt><trkpt lat="40.6958933" lon="15.177865"><ele>834.0</ele><time>2026-04-25T07:40:25.877Z</time></trkpt><trkpt lat="40.696005" lon="15.1778533"><ele>834.0</ele><time>2026-04-25T07:40:26.877Z</time></trkpt><trkpt lat="40.6961217" lon="15.1778383"><ele>834.0</ele><time>2026-04-25T07:40:27.877Z</time></trkpt><trkpt lat="40.6962433" lon="15.1778183"><ele>834.0</ele><time>2026-04-25T07:40:28.878Z</time></trkpt><trkpt lat="40.69636" lon="15.1777817"><ele>833.8000000000001</ele><time>2026-04-25T07:40:29.878Z</time></trkpt><trkpt lat="40.6964717" lon="15.177725"><ele>833.6</ele><time>2026-04-25T07:40:30.877Z</time></trkpt><trkpt lat="40.6965683" lon="15.1776533"><ele>833.4</ele><time>2026-04-25T07:40:31.878Z</time></trkpt><trkpt lat="40.6966517" lon="15.17756"><ele>833.2</ele><time>2026-04-25T07:40:32.878Z</time></trkpt><trkpt lat="40.6967217" lon="15.177465"><ele>833.0</ele><time>2026-04-25T07:40:33.877Z</time></trkpt><trkpt lat="40.6967867" lon="15.1773783"><ele>842.5999999999999</ele><time>2026-04-25T07:40:34.878Z</time></trkpt><trkpt lat="40.6968533" lon="15.1773167"><ele>852.1999999999999</ele><time>2026-04-25T07:40:35.878Z</time></trkpt><trkpt lat="40.696935" lon="15.1772783"><ele>861.8</ele><time>2026-04-25T07:40:36.878Z</time></trkpt><trkpt lat="40.6970283" lon="15.1772483"><ele>871.4</ele><time>2026-04-25T07:40:37.877Z</time></trkpt><trkpt lat="40.6971383" lon="15.1772267"><ele>881.0</ele><time>2026-04-25T07:40:38.878Z</time></trkpt><trkpt lat="40.697245" lon="15.17721"><ele>883.8</ele><time>2026-04-25T07:40:39.877Z</time></trkpt><trkpt lat="40.697355" lon="15.1772083"><ele>886.5999999999999</ele><time>2026-04-25T07:40:40.877Z</time></trkpt><trkpt lat="40.6974717" lon="15.1772217"><ele>889.4</ele><time>2026-04-25T07:40:41.878Z</time></trkpt><trkpt lat="40.6975767" lon="15.1772317"><ele>892.2</ele><time>2026-04-25T07:40:42.878Z</time></trkpt><trkpt lat="40.6976567" lon="15.1772583"><ele>895.0</ele><time>2026-04-25T07:40:43.877Z</time></trkpt><trkpt lat="40.697755" lon="15.1773317"><ele>889.7142857142857</ele><time>2026-04-25T07:40:45.878Z</time></trkpt><trkpt lat="40.6977967" lon="15.1773967"><ele>884.4285714285714</ele><time>2026-04-25T07:40:46.878Z</time></trkpt><trkpt lat="40.697855" lon="15.1774667"><ele>879.1428571428571</ele><time>2026-04-25T07:40:47.878Z</time></trkpt><trkpt lat="40.6979133" lon="15.1775317"><ele>873.8571428571429</ele><time>2026-04-25T07:40:48.877Z</time></trkpt><trkpt lat="40.6979867" lon="15.1775717"><ele>868.5714285714287</ele><time>2026-04-25T07:40:49.877Z</time></trkpt><trkpt lat="40.6980583" lon="15.1775983"><ele>863.2857142857143</ele><time>2026-04-25T07:40:50.877Z</time></trkpt><trkpt lat="40.6981283" lon="15.1776083"><ele>858.0</ele><time>2026-04-25T07:40:51.877Z</time></trkpt><trkpt lat="40.698245" lon="15.1776333"><ele>858.0</ele><time>2026-04-25T07:40:53.877Z</time></trkpt><trkpt lat="40.698355" lon="15.1776633"><ele>858.0</ele><time>2026-04-25T07:40:55.877Z</time></trkpt><trkpt lat="40.6984783" lon="15.1777"><ele>858.0</ele><time>2026-04-25T07:40:57.877Z</time></trkpt><trkpt lat="40.698545" lon="15.17771"><ele>858.0</ele><time>2026-04-25T07:40:58.878Z</time></trkpt><trkpt lat="40.698615" lon="15.177715"><ele>858.0</ele><time>2026-04-25T07:40:59.877Z</time></trkpt><trkpt lat="40.6987" lon="15.177705"><ele>859.1666666666666</ele><time>2026-04-25T07:41:00.877Z</time></trkpt><trkpt lat="40.6987783" lon="15.1777"><ele>860.3333333333333</ele><time>2026-04-25T07:41:01.877Z</time></trkpt><trkpt lat="40.6988533" lon="15.1776917"><ele>861.5</ele><time>2026-04-25T07:41:02.878Z</time></trkpt><trkpt lat="40.6989233" lon="15.17768"><ele>862.6666666666666</ele><time>2026-04-25T07:41:03.877Z</time></trkpt><trkpt lat="40.69899" lon="15.1776733"><ele>863.8333333333333</ele><time>2026-04-25T07:41:04.877Z</time></trkpt><trkpt lat="40.6990567" lon="15.1776933"><ele>865.0</ele><time>2026-04-25T07:41:05.877Z</time></trkpt><trkpt lat="40.69916" lon="15.177745"><ele>865.0</ele><time>2026-04-25T07:41:07.877Z</time></trkpt><trkpt lat="40.699255" lon="15.1778367"><ele>865.0</ele><time>2026-04-25T07:41:09.878Z</time></trkpt><trkpt lat="40.6993483" lon="15.177935"><ele>865.0</ele><time>2026-04-25T07:41:11.877Z</time></trkpt><trkpt lat="40.69943" lon="15.17804"><ele>865.0</ele><time>2026-04-25T07:41:13.878Z</time></trkpt><trkpt lat="40.6994783" lon="15.178095"><ele>865.0</ele><time>2026-04-25T07:41:14.877Z</time></trkpt><trkpt lat="40.6995283" lon="15.1781467"><ele>864.9999999999999</ele><time>2026-04-25T07:41:15.877Z</time></trkpt><trkpt lat="40.6996417" lon="15.1782267"><ele>865.0</ele><time>2026-04-25T07:41:17.877Z</time></trkpt><trkpt lat="40.6997017" lon="15.178265"><ele>865.0</ele><time>2026-04-25T07:41:18.878Z</time></trkpt><trkpt lat="40.6997667" lon="15.178305"><ele>865.0</ele><time>2026-04-25T07:41:19.877Z</time></trkpt><trkpt lat="40.699825" lon="15.1783533"><ele>864.9999999999999</ele><time>2026-04-25T07:41:20.878Z</time></trkpt><trkpt lat="40.69988" lon="15.178405"><ele>865.0</ele><time>2026-04-25T07:41:21.877Z</time></trkpt><trkpt lat="40.6999717" lon="15.178505"><ele>865.0</ele><time>2026-04-25T07:41:23.877Z</time></trkpt><trkpt lat="40.7000417" lon="15.178615"><ele>865.0</ele><time>2026-04-25T07:41:25.877Z</time></trkpt><trkpt lat="40.70005" lon="15.17874"><ele>865.0</ele><time>2026-04-25T07:41:27.877Z</time></trkpt><trkpt lat="40.70008" lon="15.17886"><ele>865.0</ele><time>2026-04-25T07:41:29.878Z</time></trkpt><trkpt lat="40.7001467" lon="15.1789317"><ele>865.0</ele><time>2026-04-25T07:41:31.878Z</time></trkpt><trkpt lat="40.7002183" lon="15.1788917"><ele>866.6666666666666</ele><time>2026-04-25T07:41:33.877Z</time></trkpt><trkpt lat="40.7002883" lon="15.178795"><ele>868.3333333333333</ele><time>2026-04-25T07:41:35.878Z</time></trkpt><trkpt lat="40.7003383" lon="15.17872"><ele>870.0</ele><time>2026-04-25T07:41:37.878Z</time></trkpt><trkpt lat="40.7004017" lon="15.1786667"><ele>871.6666666666667</ele><time>2026-04-25T07:41:39.877Z</time></trkpt><trkpt lat="40.7004717" lon="15.178615"><ele>873.3333333333334</ele><time>2026-04-25T07:41:41.877Z</time></trkpt><trkpt lat="40.70046" lon="15.178525"><ele>875.0</ele><time>2026-04-25T07:41:44.878Z</time></trkpt><trkpt lat="40.7003717" lon="15.178575"><ele>875.0000000000001</ele><time>2026-04-25T08:21:03.869Z</time></trkpt><trkpt lat="40.700325" lon="15.1786917"><ele>875.0</ele><time>2026-04-25T08:21:05.869Z</time></trkpt><trkpt lat="40.7002683" lon="15.1788083"><ele>875.0</ele><time>2026-04-25T08:21:07.868Z</time></trkpt><trkpt lat="40.7002033" lon="15.1788867"><ele>875.0</ele><time>2026-04-25T08:21:09.868Z</time></trkpt><trkpt lat="40.7001233" lon="15.1788867"><ele>875.0000000000001</ele><time>2026-04-25T08:21:12.869Z</time></trkpt><trkpt lat="40.7000883" lon="15.1788167"><ele>875.0</ele><time>2026-04-25T08:21:14.868Z</time></trkpt><trkpt lat="40.7000817" lon="15.1787117"><ele>873.5714285714286</ele><time>2026-04-25T08:21:17.869Z</time></trkpt><trkpt lat="40.7000767" lon="15.178585"><ele>872.1428571428571</ele><time>2026-04-25T08:21:20.868Z</time></trkpt><trkpt lat="40.7000283" lon="15.1785167"><ele>870.7142857142858</ele><time>2026-04-25T08:21:22.868Z</time></trkpt><trkpt lat="40.6999667" lon="15.1784417"><ele>869.2857142857142</ele><time>2026-04-25T08:21:24.868Z</time></trkpt><trkpt lat="40.69992" lon="15.178385"><ele>867.8571428571429</ele><time>2026-04-25T08:21:25.869Z</time></trkpt><trkpt lat="40.699865" lon="15.1783367"><ele>866.4285714285714</ele><time>2026-04-25T08:21:26.868Z</time></trkpt><trkpt lat="40.69981" lon="15.1782933"><ele>865.0</ele><time>2026-04-25T08:21:27.869Z</time></trkpt><trkpt lat="40.699745" lon="15.1782583"><ele>864.9999999999999</ele><time>2026-04-25T08:21:28.868Z</time></trkpt><trkpt lat="40.6996817" lon="15.17822"><ele>865.0</ele><time>2026-04-25T08:21:29.869Z</time></trkpt><trkpt lat="40.6996083" lon="15.17818"><ele>865.0</ele><time>2026-04-25T08:21:30.869Z</time></trkpt><trkpt lat="40.6995333" lon="15.1781267"><ele>865.0</ele><time>2026-04-25T08:21:31.868Z</time></trkpt><trkpt lat="40.6994733" lon="15.17807"><ele>864.9999999999999</ele><time>2026-04-25T08:21:32.869Z</time></trkpt><trkpt lat="40.699375" lon="15.1779633"><ele>865.0</ele><time>2026-04-25T08:21:34.869Z</time></trkpt><trkpt lat="40.6993183" lon="15.177915"><ele>864.9999999999999</ele><time>2026-04-25T08:21:35.868Z</time></trkpt><trkpt lat="40.6992567" lon="15.17788"><ele>865.0</ele><time>2026-04-25T08:21:36.868Z</time></trkpt><trkpt lat="40.6991833" lon="15.177825"><ele>865.0</ele><time>2026-04-25T08:21:37.869Z</time></trkpt><trkpt lat="40.69911" lon="15.1777733"><ele>865.0</ele><time>2026-04-25T08:21:38.868Z</time></trkpt><trkpt lat="40.6990333" lon="15.1777283"><ele>864.9999999999999</ele><time>2026-04-25T08:21:39.869Z</time></trkpt><trkpt lat="40.698955" lon="15.1776967"><ele>865.0</ele><time>2026-04-25T08:21:40.869Z</time></trkpt><trkpt lat="40.6988817" lon="15.177685"><ele>864.9999999999999</ele><time>2026-04-25T08:21:41.869Z</time></trkpt><trkpt lat="40.6987967" lon="15.1776833"><ele>865.0</ele><time>2026-04-25T08:21:42.869Z</time></trkpt><trkpt lat="40.6987133" lon="15.1776967"><ele>865.0</ele><time>2026-04-25T08:21:43.868Z</time></trkpt><trkpt lat="40.6986367" lon="15.177695"><ele>865.0</ele><time>2026-04-25T08:21:44.868Z</time></trkpt><trkpt lat="40.69856" lon="15.1776867"><ele>864.9999999999999</ele><time>2026-04-25T08:21:45.868Z</time></trkpt><trkpt lat="40.6984783" lon="15.1776733"><ele>865.0</ele><time>2026-04-25T08:21:46.868Z</time></trkpt><trkpt lat="40.6983817" lon="15.1776567"><ele>863.6</ele><time>2026-04-25T08:21:47.868Z</time></trkpt><trkpt lat="40.6982783" lon="15.1776383"><ele>862.2</ele><time>2026-04-25T08:21:48.869Z</time></trkpt><trkpt lat="40.6981733" lon="15.1776083"><ele>860.8</ele><time>2026-04-25T08:21:49.869Z</time></trkpt><trkpt lat="40.698065" lon="15.177585"><ele>859.4</ele><time>2026-04-25T08:21:50.868Z</time></trkpt><trkpt lat="40.6979717" lon="15.1775533"><ele>858.0</ele><time>2026-04-25T08:21:51.869Z</time></trkpt><trkpt lat="40.6978967" lon="15.177525"><ele>858.0</ele><time>2026-04-25T08:21:52.868Z</time></trkpt><trkpt lat="40.6978317" lon="15.1774683"><ele>858.0</ele><time>2026-04-25T08:21:53.869Z</time></trkpt><trkpt lat="40.6977833" lon="15.1773967"><ele>858.0</ele><time>2026-04-25T08:21:54.868Z</time></trkpt><trkpt lat="40.6977333" lon="15.17732"><ele>858.0</ele><time>2026-04-25T08:21:55.868Z</time></trkpt><trkpt lat="40.6976683" lon="15.177265"><ele>858.0</ele><time>2026-04-25T08:21:56.869Z</time></trkpt><trkpt lat="40.6975933" lon="15.17723"><ele>858.0</ele><time>2026-04-25T08:21:57.868Z</time></trkpt><trkpt lat="40.697505" lon="15.1772083"><ele>865.4</ele><time>2026-04-25T08:21:58.868Z</time></trkpt><trkpt lat="40.6974067" lon="15.17719"><ele>872.8</ele><time>2026-04-25T08:21:59.869Z</time></trkpt><trkpt lat="40.6973" lon="15.1771867"><ele>880.2</ele><time>2026-04-25T08:22:00.868Z</time></trkpt><trkpt lat="40.6971967" lon="15.1771883"><ele>887.6</ele><time>2026-04-25T08:22:01.868Z</time></trkpt><trkpt lat="40.6970983" lon="15.1771983"><ele>895.0</ele><time>2026-04-25T08:22:02.868Z</time></trkpt><trkpt lat="40.6970033" lon="15.1772167"><ele>895.0</ele><time>2026-04-25T08:22:03.869Z</time></trkpt><trkpt lat="40.69692" lon="15.1772333"><ele>895.0</ele><time>2026-04-25T08:22:04.868Z</time></trkpt><trkpt lat="40.696845" lon="15.1772667"><ele>895.0</ele><time>2026-04-25T08:22:05.868Z</time></trkpt><trkpt lat="40.69678" lon="15.17731"><ele>895.0</ele><time>2026-04-25T08:22:06.869Z</time></trkpt><trkpt lat="40.6967283" lon="15.1773633"><ele>895.0</ele><time>2026-04-25T08:22:07.868Z</time></trkpt><trkpt lat="40.6966883" lon="15.1774317"><ele>895.0</ele><time>2026-04-25T08:22:08.869Z</time></trkpt><trkpt lat="40.6966383" lon="15.1774967"><ele>895.0</ele><time>2026-04-25T08:22:09.868Z</time></trkpt><trkpt lat="40.6965917" lon="15.17757"><ele>884.6666666666666</ele><time>2026-04-25T08:22:10.869Z</time></trkpt><trkpt lat="40.6965283" lon="15.1776317"><ele>874.3333333333333</ele><time>2026-04-25T08:22:11.868Z</time></trkpt><trkpt lat="40.6964533" lon="15.1776833"><ele>864.0</ele><time>2026-04-25T08:22:12.869Z</time></trkpt><trkpt lat="40.69637" lon="15.1777317"><ele>853.6666666666667</ele><time>2026-04-25T08:22:13.869Z</time></trkpt><trkpt lat="40.6962817" lon="15.1777667"><ele>843.3333333333334</ele><time>2026-04-25T08:22:14.869Z</time></trkpt><trkpt lat="40.6961867" lon="15.1777967"><ele>833.0</ele><time>2026-04-25T08:22:15.868Z</time></trkpt><trkpt lat="40.69609" lon="15.1778183"><ele>833.2</ele><time>2026-04-25T08:22:16.869Z</time></trkpt><trkpt lat="40.69599" lon="15.1778383"><ele>833.4</ele><time>2026-04-25T08:22:17.869Z</time></trkpt><trkpt lat="40.6958883" lon="15.1778583"><ele>833.6</ele><time>2026-04-25T08:22:18.869Z</time></trkpt><trkpt lat="40.6957883" lon="15.1778667"><ele>833.8000000000001</ele><time>2026-04-25T08:22:19.868Z</time></trkpt><trkpt lat="40.6956883" lon="15.1778583"><ele>834.0</ele><time>2026-04-25T08:22:20.868Z</time></trkpt><trkpt lat="40.6955833" lon="15.1778517"><ele>834.0</ele><time>2026-04-25T08:22:21.868Z</time></trkpt><trkpt lat="40.6954917" lon="15.1778417"><ele>834.0</ele><time>2026-04-25T08:22:22.868Z</time></trkpt><trkpt lat="40.6954067" lon="15.1778317"><ele>834.0</ele><time>2026-04-25T08:22:23.868Z</time></trkpt><trkpt lat="40.6953433" lon="15.177815"><ele>834.0</ele><time>2026-04-25T08:22:24.868Z</time></trkpt><trkpt lat="40.6952333" lon="15.177795"><ele>834.0</ele><time>2026-04-25T08:22:26.869Z</time></trkpt><trkpt lat="40.6951117" lon="15.1777733"><ele>831.0</ele><time>2026-04-25T08:22:28.868Z</time></trkpt><trkpt lat="40.6950467" lon="15.17776"><ele>828.0</ele><time>2026-04-25T08:22:29.868Z</time></trkpt><trkpt lat="40.6949817" lon="15.177735"><ele>825.0</ele><time>2026-04-25T08:22:30.869Z</time></trkpt><trkpt lat="40.6949217" lon="15.1777083"><ele>822.0</ele><time>2026-04-25T08:22:31.869Z</time></trkpt><trkpt lat="40.6947983" lon="15.17768"><ele>819.0</ele><time>2026-04-25T08:22:33.868Z</time></trkpt><trkpt lat="40.6947333" lon="15.1776717"><ele>816.0</ele><time>2026-04-25T08:22:34.868Z</time></trkpt><trkpt lat="40.6946633" lon="15.1776733"><ele>816.0</ele><time>2026-04-25T08:22:35.868Z</time></trkpt><trkpt lat="40.694585" lon="15.1776833"><ele>816.0</ele><time>2026-04-25T08:22:36.869Z</time></trkpt><trkpt lat="40.69451" lon="15.1777083"><ele>816.0</ele><time>2026-04-25T08:22:37.868Z</time></trkpt><trkpt lat="40.694435" lon="15.1777367"><ele>816.0</ele><time>2026-04-25T08:22:38.869Z</time></trkpt><trkpt lat="40.6943583" lon="15.177765"><ele>816.0</ele><time>2026-04-25T08:22:39.869Z</time></trkpt><trkpt lat="40.694285" lon="15.1778"><ele>816.0</ele><time>2026-04-25T08:22:40.868Z</time></trkpt><trkpt lat="40.694215" lon="15.1778467"><ele>812.1999999999999</ele><time>2026-04-25T08:22:41.869Z</time></trkpt><trkpt lat="40.6941383" lon="15.177905"><ele>808.4</ele><time>2026-04-25T08:22:42.868Z</time></trkpt><trkpt lat="40.694055" lon="15.1779567"><ele>804.6</ele><time>2026-04-25T08:22:43.869Z</time></trkpt><trkpt lat="40.6939733" lon="15.178005"><ele>800.8</ele><time>2026-04-25T08:22:44.868Z</time></trkpt><trkpt lat="40.6938883" lon="15.1780233"><ele>797.0</ele><time>2026-04-25T08:22:45.869Z</time></trkpt><trkpt lat="40.693795" lon="15.1780317"><ele>797.0</ele><time>2026-04-25T08:22:46.869Z</time></trkpt><trkpt lat="40.6936983" lon="15.1780383"><ele>797.0</ele><time>2026-04-25T08:22:47.869Z</time></trkpt><trkpt lat="40.6935967" lon="15.1780383"><ele>797.0</ele><time>2026-04-25T08:22:48.868Z</time></trkpt><trkpt lat="40.6935" lon="15.17803"><ele>797.0</ele><time>2026-04-25T08:22:49.869Z</time></trkpt><trkpt lat="40.6934" lon="15.17802"><ele>797.0</ele><time>2026-04-25T08:22:50.869Z</time></trkpt><trkpt lat="40.6932967" lon="15.1780117"><ele>793.0</ele><time>2026-04-25T08:22:51.869Z</time></trkpt><trkpt lat="40.693185" lon="15.1779883"><ele>789.0</ele><time>2026-04-25T08:22:52.868Z</time></trkpt><trkpt lat="40.6930883" lon="15.177935"><ele>785.0</ele><time>2026-04-25T08:22:53.868Z</time></trkpt><trkpt lat="40.6929933" lon="15.177875"><ele>781.0</ele><time>2026-04-25T08:22:54.869Z</time></trkpt><trkpt lat="40.6929" lon="15.1778033"><ele>777.0</ele><time>2026-04-25T08:22:55.869Z</time></trkpt><trkpt lat="40.6928183" lon="15.1777283"><ele>775.0</ele><time>2026-04-25T08:22:56.868Z</time></trkpt><trkpt lat="40.6927467" lon="15.177655"><ele>773.0</ele><time>2026-04-25T08:22:57.868Z</time></trkpt><trkpt lat="40.6926933" lon="15.177585"><ele>771.0</ele><time>2026-04-25T08:22:58.869Z</time></trkpt><trkpt lat="40.69265" lon="15.1775133"><ele>769.0</ele><time>2026-04-25T08:22:59.868Z</time></trkpt><trkpt lat="40.69263" lon="15.1774333"><ele>767.0</ele><time>2026-04-25T08:23:00.868Z</time></trkpt><trkpt lat="40.692625" lon="15.1773383"><ele>765.0</ele><time>2026-04-25T08:23:01.868Z</time></trkpt><trkpt lat="40.6926267" lon="15.1772433"><ele>763.0</ele><time>2026-04-25T08:23:02.868Z</time></trkpt><trkpt lat="40.6926183" lon="15.1771433"><ele>763.0</ele><time>2026-04-25T08:23:03.869Z</time></trkpt><trkpt lat="40.6926" lon="15.1770533"><ele>763.0</ele><time>2026-04-25T08:23:04.869Z</time></trkpt><trkpt lat="40.6925767" lon="15.1769667"><ele>763.0</ele><time>2026-04-25T08:23:05.869Z</time></trkpt><trkpt lat="40.6925467" lon="15.17689"><ele>763.0</ele><time>2026-04-25T08:23:06.868Z</time></trkpt><trkpt lat="40.6925" lon="15.1768183"><ele>763.0</ele><time>2026-04-25T08:23:07.869Z</time></trkpt><trkpt lat="40.6924417" lon="15.1767683"><ele>763.0</ele><time>2026-04-25T08:23:08.868Z</time></trkpt><trkpt lat="40.6923683" lon="15.176735"><ele>763.0</ele><time>2026-04-25T08:23:09.868Z</time></trkpt><trkpt lat="40.6922917" lon="15.1767067"><ele>763.0</ele><time>2026-04-25T08:23:10.868Z</time></trkpt><trkpt lat="40.6922133" lon="15.17668"><ele>763.0</ele><time>2026-04-25T08:23:11.869Z</time></trkpt><trkpt lat="40.6921333" lon="15.17666"><ele>763.0</ele><time>2026-04-25T08:23:12.868Z</time></trkpt><trkpt lat="40.692055" lon="15.1766683"><ele>763.0</ele><time>2026-04-25T08:23:13.869Z</time></trkpt><trkpt lat="40.691975" lon="15.176685"><ele>763.0</ele><time>2026-04-25T08:23:14.869Z</time></trkpt><trkpt lat="40.6919017" lon="15.1767233"><ele>763.0</ele><time>2026-04-25T08:23:15.868Z</time></trkpt><trkpt lat="40.6918283" lon="15.1767717"><ele>759.3333333333334</ele><time>2026-04-25T08:23:16.868Z</time></trkpt><trkpt lat="40.6917733" lon="15.17683"><ele>755.6666666666667</ele><time>2026-04-25T08:23:17.868Z</time></trkpt><trkpt lat="40.6917233" lon="15.1769017"><ele>752.0</ele><time>2026-04-25T08:23:18.868Z</time></trkpt><trkpt lat="40.6916717" lon="15.1769783"><ele>748.3333333333334</ele><time>2026-04-25T08:23:19.869Z</time></trkpt><trkpt lat="40.691615" lon="15.1770717"><ele>744.6666666666666</ele><time>2026-04-25T08:23:20.869Z</time></trkpt><trkpt lat="40.6915683" lon="15.17717"><ele>741.0</ele><time>2026-04-25T08:23:21.868Z</time></trkpt><trkpt lat="40.6915317" lon="15.1772667"><ele>738.8333333333334</ele><time>2026-04-25T08:23:22.869Z</time></trkpt><trkpt lat="40.6915183" lon="15.1773783"><ele>736.6666666666666</ele><time>2026-04-25T08:23:23.868Z</time></trkpt><trkpt lat="40.6915167" lon="15.1775"><ele>734.5</ele><time>2026-04-25T08:23:24.868Z</time></trkpt><trkpt lat="40.69151" lon="15.1776167"><ele>732.3333333333333</ele><time>2026-04-25T08:23:25.869Z</time></trkpt><trkpt lat="40.6915" lon="15.1777117"><ele>730.1666666666666</ele><time>2026-04-25T08:23:26.869Z</time></trkpt><trkpt lat="40.691485" lon="15.1777967"><ele>728.0</ele><time>2026-04-25T08:23:27.869Z</time></trkpt><trkpt lat="40.6914167" lon="15.1779133"><ele>728.0</ele><time>2026-04-25T08:23:29.869Z</time></trkpt><trkpt lat="40.6912967" lon="15.1779133"><ele>728.0</ele><time>2026-04-25T08:23:31.869Z</time></trkpt><trkpt lat="40.6912233" lon="15.1778783"><ele>728.0</ele><time>2026-04-25T08:23:32.868Z</time></trkpt><trkpt lat="40.6911533" lon="15.1778233"><ele>728.0</ele><time>2026-04-25T08:23:33.869Z</time></trkpt><trkpt lat="40.6910833" lon="15.1777467"><ele>728.0</ele><time>2026-04-25T08:23:34.868Z</time></trkpt><trkpt lat="40.691035" lon="15.1776517"><ele>725.3333333333333</ele><time>2026-04-25T08:23:35.869Z</time></trkpt><trkpt lat="40.6909983" lon="15.177545"><ele>722.6666666666666</ele><time>2026-04-25T08:23:36.868Z</time></trkpt><trkpt lat="40.69097" lon="15.1774483"><ele>720.0</ele><time>2026-04-25T08:23:37.868Z</time></trkpt><trkpt lat="40.690945" lon="15.1773683"><ele>717.3333333333334</ele><time>2026-04-25T08:23:38.869Z</time></trkpt><trkpt lat="40.6908867" lon="15.1772583"><ele>714.6666666666667</ele><time>2026-04-25T08:23:40.869Z</time></trkpt><trkpt lat="40.6908083" lon="15.17726"><ele>712.0</ele><time>2026-04-25T08:23:42.869Z</time></trkpt><trkpt lat="40.6907317" lon="15.1774033"><ele>710.6666666666667</ele><time>2026-04-25T08:23:44.869Z</time></trkpt><trkpt lat="40.690705" lon="15.1775033"><ele>709.3333333333334</ele><time>2026-04-25T08:23:45.869Z</time></trkpt><trkpt lat="40.6906867" lon="15.1776167"><ele>708.0</ele><time>2026-04-25T08:23:46.868Z</time></trkpt><trkpt lat="40.6906783" lon="15.1777383"><ele>706.6666666666666</ele><time>2026-04-25T08:23:47.868Z</time></trkpt><trkpt lat="40.690685" lon="15.1778567"><ele>705.3333333333333</ele><time>2026-04-25T08:23:48.868Z</time></trkpt><trkpt lat="40.6906933" lon="15.1779717"><ele>704.0</ele><time>2026-04-25T08:23:49.869Z</time></trkpt><trkpt lat="40.6907067" lon="15.1780733"><ele>704.0</ele><time>2026-04-25T08:23:50.868Z</time></trkpt><trkpt lat="40.6907467" lon="15.1781767"><ele>704.0</ele><time>2026-04-25T08:23:51.868Z</time></trkpt><trkpt lat="40.6908017" lon="15.1782633"><ele>704.0</ele><time>2026-04-25T08:23:52.868Z</time></trkpt><trkpt lat="40.6908567" lon="15.1783433"><ele>704.0</ele><time>2026-04-25T08:23:53.868Z</time></trkpt><trkpt lat="40.69091" lon="15.1784167"><ele>704.0</ele><time>2026-04-25T08:23:54.869Z</time></trkpt><trkpt lat="40.6909717" lon="15.1785333"><ele>704.0</ele><time>2026-04-25T08:23:56.868Z</time></trkpt><trkpt lat="40.690965" lon="15.1786183"><ele>701.0</ele><time>2026-04-25T08:23:58.868Z</time></trkpt><trkpt lat="40.6908767" lon="15.1786717"><ele>698.0</ele><time>2026-04-25T08:24:00.869Z</time></trkpt><trkpt lat="40.69075" lon="15.1786533"><ele>695.0</ele><time>2026-04-25T08:24:02.869Z</time></trkpt><trkpt lat="40.6906817" lon="15.17864"><ele>692.0</ele><time>2026-04-25T08:24:03.868Z</time></trkpt><trkpt lat="40.6906133" lon="15.1786383"><ele>689.0</ele><time>2026-04-25T08:24:04.868Z</time></trkpt><trkpt lat="40.6905" lon="15.1786883"><ele>689.0</ele><time>2026-04-25T08:24:06.869Z</time></trkpt><trkpt lat="40.6904467" lon="15.1788233"><ele>689.0</ele><time>2026-04-25T08:24:08.868Z</time></trkpt><trkpt lat="40.690435" lon="15.17892"><ele>689.0</ele><time>2026-04-25T08:24:09.868Z</time></trkpt><trkpt lat="40.690425" lon="15.1790267"><ele>689.0</ele><time>2026-04-25T08:24:10.869Z</time></trkpt><trkpt lat="40.69041" lon="15.17914"><ele>689.0</ele><time>2026-04-25T08:24:11.868Z</time></trkpt><trkpt lat="40.6903883" lon="15.1792517"><ele>689.0</ele><time>2026-04-25T08:24:12.869Z</time></trkpt><trkpt lat="40.6903667" lon="15.1793633"><ele>684.8000000000001</ele><time>2026-04-25T08:24:13.869Z</time></trkpt><trkpt lat="40.69035" lon="15.1794783"><ele>680.6</ele><time>2026-04-25T08:24:14.868Z</time></trkpt><trkpt lat="40.69033" lon="15.1795983"><ele>676.4</ele><time>2026-04-25T08:24:15.868Z</time></trkpt><trkpt lat="40.690315" lon="15.17972"><ele>672.2</ele><time>2026-04-25T08:24:16.868Z</time></trkpt><trkpt lat="40.6902967" lon="15.1798367"><ele>668.0</ele><time>2026-04-25T08:24:17.869Z</time></trkpt><trkpt lat="40.6902783" lon="15.179945"><ele>667.0</ele><time>2026-04-25T08:24:18.869Z</time></trkpt><trkpt lat="40.6902583" lon="15.1800517"><ele>666.0</ele><time>2026-04-25T08:24:19.869Z</time></trkpt><trkpt lat="40.6902517" lon="15.1801517"><ele>665.0</ele><time>2026-04-25T08:24:20.868Z</time></trkpt><trkpt lat="40.6902433" lon="15.1802467"><ele>664.0</ele><time>2026-04-25T08:24:21.868Z</time></trkpt><trkpt lat="40.6902367" lon="15.1803417"><ele>663.0</ele><time>2026-04-25T08:24:22.869Z</time></trkpt><trkpt lat="40.6902367" lon="15.1804483"><ele>662.0</ele><time>2026-04-25T08:24:23.868Z</time></trkpt><trkpt lat="40.690235" lon="15.1805483"><ele>662.0</ele><time>2026-04-25T08:24:24.868Z</time></trkpt><trkpt lat="40.6902283" lon="15.1806483"><ele>662.0</ele><time>2026-04-25T08:24:25.868Z</time></trkpt><trkpt lat="40.69022" lon="15.1807483"><ele>662.0</ele><time>2026-04-25T08:24:26.868Z</time></trkpt><trkpt lat="40.690205" lon="15.180835"><ele>662.0</ele><time>2026-04-25T08:24:27.869Z</time></trkpt><trkpt lat="40.6901783" lon="15.180935"><ele>662.0</ele><time>2026-04-25T08:24:28.869Z</time></trkpt><trkpt lat="40.6901467" lon="15.1810383"><ele>662.0</ele><time>2026-04-25T08:24:29.868Z</time></trkpt><trkpt lat="40.6901117" lon="15.1811467"><ele>661.3333333333333</ele><time>2026-04-25T08:24:30.868Z</time></trkpt><trkpt lat="40.690075" lon="15.18125"><ele>660.6666666666666</ele><time>2026-04-25T08:24:31.868Z</time></trkpt><trkpt lat="40.69004" lon="15.18135"><ele>660.0</ele><time>2026-04-25T08:24:32.868Z</time></trkpt><trkpt lat="40.690015" lon="15.181455"><ele>659.3333333333334</ele><time>2026-04-25T08:24:33.868Z</time></trkpt><trkpt lat="40.6899983" lon="15.1815733"><ele>658.6666666666667</ele><time>2026-04-25T08:24:34.868Z</time></trkpt><trkpt lat="40.68999" lon="15.1816967"><ele>658.0</ele><time>2026-04-25T08:24:35.868Z</time></trkpt><trkpt lat="40.6899833" lon="15.1818217"><ele>656.8</ele><time>2026-04-25T08:24:36.868Z</time></trkpt><trkpt lat="40.6899683" lon="15.1819517"><ele>655.5999999999999</ele><time>2026-04-25T08:24:37.867Z</time></trkpt><trkpt lat="40.6899483" lon="15.1820783"><ele>654.4000000000001</ele><time>2026-04-25T08:24:38.867Z</time></trkpt><trkpt lat="40.6899167" lon="15.18221"><ele>653.2</ele><time>2026-04-25T08:24:39.867Z</time></trkpt><trkpt lat="40.68988" lon="15.1823433"><ele>652.0</ele><time>2026-04-25T08:24:40.867Z</time></trkpt><trkpt lat="40.6898433" lon="15.1824817"><ele>649.5</ele><time>2026-04-25T08:24:41.867Z</time></trkpt><trkpt lat="40.6898133" lon="15.1826283"><ele>647.0</ele><time>2026-04-25T08:24:42.867Z</time></trkpt><trkpt lat="40.6897983" lon="15.1827767"><ele>644.5</ele><time>2026-04-25T08:24:43.868Z</time></trkpt><trkpt lat="40.6897783" lon="15.18292"><ele>642.0</ele><time>2026-04-25T08:24:44.867Z</time></trkpt><trkpt lat="40.6897617" lon="15.1830667"><ele>639.0</ele><time>2026-04-25T08:24:45.868Z</time></trkpt><trkpt lat="40.689745" lon="15.1832333"><ele>636.0</ele><time>2026-04-25T08:24:46.867Z</time></trkpt><trkpt lat="40.6897483" lon="15.1834067"><ele>633.0</ele><time>2026-04-25T08:24:47.868Z</time></trkpt><trkpt lat="40.6897633" lon="15.1835733"><ele>630.0</ele><time>2026-04-25T08:24:48.867Z</time></trkpt><trkpt lat="40.6897867" lon="15.18374"><ele>630.0</ele><time>2026-04-25T08:24:49.867Z</time></trkpt><trkpt lat="40.6898217" lon="15.1839"><ele>630.0</ele><time>2026-04-25T08:24:50.868Z</time></trkpt><trkpt lat="40.689855" lon="15.18405"><ele>630.0</ele><time>2026-04-25T08:24:51.867Z</time></trkpt><trkpt lat="40.6898783" lon="15.18419"><ele>630.0</ele><time>2026-04-25T08:24:52.867Z</time></trkpt><trkpt lat="40.6899017" lon="15.1843117"><ele>630.0</ele><time>2026-04-25T08:24:53.867Z</time></trkpt><trkpt lat="40.6899233" lon="15.1844183"><ele>628.5</ele><time>2026-04-25T08:24:54.868Z</time></trkpt><trkpt lat="40.6899383" lon="15.1845083"><ele>627.0</ele><time>2026-04-25T08:24:55.867Z</time></trkpt><trkpt lat="40.6899633" lon="15.184595"><ele>625.5</ele><time>2026-04-25T08:24:56.867Z</time></trkpt><trkpt lat="40.6899983" lon="15.1846833"><ele>624.0</ele><time>2026-04-25T08:24:57.867Z</time></trkpt><trkpt lat="40.69005" lon="15.1847683"><ele>622.5</ele><time>2026-04-25T08:24:58.868Z</time></trkpt><trkpt lat="40.6901117" lon="15.18485"><ele>621.0</ele><time>2026-04-25T08:24:59.867Z</time></trkpt><trkpt lat="40.69018" lon="15.1849183"><ele>619.0</ele><time>2026-04-25T08:25:00.867Z</time></trkpt><trkpt lat="40.6902433" lon="15.184985"><ele>617.0</ele><time>2026-04-25T08:25:01.868Z</time></trkpt><trkpt lat="40.690305" lon="15.1850633"><ele>615.0</ele><time>2026-04-25T08:25:02.868Z</time></trkpt><trkpt lat="40.6903717" lon="15.1851467"><ele>613.0</ele><time>2026-04-25T08:25:03.868Z</time></trkpt><trkpt lat="40.6904433" lon="15.1852267"><ele>611.0</ele><time>2026-04-25T08:25:04.868Z</time></trkpt><trkpt lat="40.69052" lon="15.18531"><ele>609.0</ele><time>2026-04-25T08:25:05.867Z</time></trkpt><trkpt lat="40.6905967" lon="15.1853967"><ele>607.0</ele><time>2026-04-25T08:25:06.868Z</time></trkpt><trkpt lat="40.6906717" lon="15.185485"><ele>605.0</ele><time>2026-04-25T08:25:07.868Z</time></trkpt><trkpt lat="40.69074" lon="15.1855867"><ele>603.0</ele><time>2026-04-25T08:25:08.868Z</time></trkpt><trkpt lat="40.6908" lon="15.185705"><ele>601.0</ele><time>2026-04-25T08:25:09.868Z</time></trkpt><trkpt lat="40.69085" lon="15.1858333"><ele>599.0</ele><time>2026-04-25T08:25:10.868Z</time></trkpt><trkpt lat="40.6908933" lon="15.1859633"><ele>597.0</ele><time>2026-04-25T08:25:11.868Z</time></trkpt><trkpt lat="40.69094" lon="15.1860933"><ele>595.0</ele><time>2026-04-25T08:25:12.868Z</time></trkpt><trkpt lat="40.6909717" lon="15.1862117"><ele>593.0</ele><time>2026-04-25T08:25:13.867Z</time></trkpt><trkpt lat="40.691" lon="15.1863"><ele>591.0</ele><time>2026-04-25T08:25:14.868Z</time></trkpt><trkpt lat="40.6910567" lon="15.1864033"><ele>589.6</ele><time>2026-04-25T08:25:16.868Z</time></trkpt><trkpt lat="40.69118" lon="15.1864033"><ele>588.2</ele><time>2026-04-25T08:25:18.868Z</time></trkpt><trkpt lat="40.69126" lon="15.1864"><ele>586.8</ele><time>2026-04-25T08:25:19.867Z</time></trkpt><trkpt lat="40.6913567" lon="15.1864117"><ele>585.4</ele><time>2026-04-25T08:25:20.868Z</time></trkpt><trkpt lat="40.691465" lon="15.1864467"><ele>584.0</ele><time>2026-04-25T08:25:21.868Z</time></trkpt><trkpt lat="40.691565" lon="15.186495"><ele>582.4</ele><time>2026-04-25T08:25:22.868Z</time></trkpt><trkpt lat="40.6916617" lon="15.1865383"><ele>580.8</ele><time>2026-04-25T08:25:23.867Z</time></trkpt><trkpt lat="40.6917567" lon="15.1865733"><ele>579.2</ele><time>2026-04-25T08:25:24.868Z</time></trkpt><trkpt lat="40.6918633" lon="15.1865917"><ele>577.6</ele><time>2026-04-25T08:25:25.868Z</time></trkpt><trkpt lat="40.6919717" lon="15.1865833"><ele>576.0</ele><time>2026-04-25T08:25:26.868Z</time></trkpt><trkpt lat="40.6920733" lon="15.1865717"><ele>576.0</ele><time>2026-04-25T08:25:27.868Z</time></trkpt><trkpt lat="40.6921717" lon="15.186575"><ele>576.0</ele><time>2026-04-25T08:25:28.868Z</time></trkpt><trkpt lat="40.692265" lon="15.1866083"><ele>576.0</ele><time>2026-04-25T08:25:29.868Z</time></trkpt><trkpt lat="40.6923517" lon="15.1866517"><ele>576.0</ele><time>2026-04-25T08:25:30.868Z</time></trkpt><trkpt lat="40.6924283" lon="15.1867167"><ele>576.0</ele><time>2026-04-25T08:25:31.868Z</time></trkpt><trkpt lat="40.6925" lon="15.1867933"><ele>576.0</ele><time>2026-04-25T08:25:32.868Z</time></trkpt><trkpt lat="40.6925567" lon="15.1868567"><ele>576.0</ele><time>2026-04-25T08:25:33.868Z</time></trkpt><trkpt lat="40.6926167" lon="15.186895"><ele>576.0</ele><time>2026-04-25T08:25:34.868Z</time></trkpt><trkpt lat="40.69273" lon="15.1868833"><ele>576.0</ele><time>2026-04-25T08:25:36.868Z</time></trkpt><trkpt lat="40.6928517" lon="15.18686"><ele>576.0</ele><time>2026-04-25T08:25:38.867Z</time></trkpt><trkpt lat="40.6929217" lon="15.1868867"><ele>575.5</ele><time>2026-04-25T08:25:39.868Z</time></trkpt><trkpt lat="40.6929967" lon="15.1869333"><ele>575.0</ele><time>2026-04-25T08:25:40.868Z</time></trkpt><trkpt lat="40.693065" lon="15.1869933"><ele>574.5</ele><time>2026-04-25T08:25:41.868Z</time></trkpt><trkpt lat="40.6931283" lon="15.1870783"><ele>574.0</ele><time>2026-04-25T08:25:42.868Z</time></trkpt><trkpt lat="40.6931833" lon="15.1871683"><ele>573.5</ele><time>2026-04-25T08:25:43.868Z</time></trkpt><trkpt lat="40.6932333" lon="15.1872417"><ele>573.0</ele><time>2026-04-25T08:25:44.868Z</time></trkpt><trkpt lat="40.69329" lon="15.1872867"><ele>573.0</ele><time>2026-04-25T08:25:45.867Z</time></trkpt><trkpt lat="40.69336" lon="15.187305"><ele>573.0</ele><time>2026-04-25T08:25:46.868Z</time></trkpt><trkpt lat="40.6934383" lon="15.187315"><ele>573.0</ele><time>2026-04-25T08:25:47.868Z</time></trkpt><trkpt lat="40.6935233" lon="15.1873267"><ele>573.0</ele><time>2026-04-25T08:25:48.867Z</time></trkpt><trkpt lat="40.6936017" lon="15.1873533"><ele>573.0</ele><time>2026-04-25T08:25:49.867Z</time></trkpt><trkpt lat="40.6936683" lon="15.1874"><ele>573.0</ele><time>2026-04-25T08:25:50.868Z</time></trkpt><trkpt lat="40.693725" lon="15.1874667"><ele>577.0</ele><time>2026-04-25T08:25:51.868Z</time></trkpt><trkpt lat="40.6937733" lon="15.1875383"><ele>581.0</ele><time>2026-04-25T08:25:52.868Z</time></trkpt><trkpt lat="40.6938117" lon="15.18762"><ele>585.0</ele><time>2026-04-25T08:25:53.867Z</time></trkpt><trkpt lat="40.6938733" lon="15.1877517"><ele>589.0</ele><time>2026-04-25T08:25:55.867Z</time></trkpt><trkpt lat="40.6939517" lon="15.1878817"><ele>593.0</ele><time>2026-04-25T08:25:57.868Z</time></trkpt><trkpt lat="40.6939933" lon="15.18795"><ele>593.0</ele><time>2026-04-25T08:25:58.868Z</time></trkpt><trkpt lat="40.69403" lon="15.1880283"><ele>593.0</ele><time>2026-04-25T08:25:59.868Z</time></trkpt><trkpt lat="40.6940733" lon="15.1880917"><ele>593.0</ele><time>2026-04-25T08:26:00.868Z</time></trkpt><trkpt lat="40.694165" lon="15.1881983"><ele>593.0</ele><time>2026-04-25T08:26:02.867Z</time></trkpt><trkpt lat="40.6942783" lon="15.1882983"><ele>593.0</ele><time>2026-04-25T08:26:04.868Z</time></trkpt><trkpt lat="40.6943417" lon="15.1883683"><ele>590.7142857142857</ele><time>2026-04-25T08:26:05.868Z</time></trkpt><trkpt lat="40.6943983" lon="15.1884333"><ele>588.4285714285714</ele><time>2026-04-25T08:26:06.867Z</time></trkpt><trkpt lat="40.6944517" lon="15.1885"><ele>586.1428571428571</ele><time>2026-04-25T08:26:07.867Z</time></trkpt><trkpt lat="40.69449" lon="15.1885717"><ele>583.8571428571429</ele><time>2026-04-25T08:26:08.867Z</time></trkpt><trkpt lat="40.6945233" lon="15.1886467"><ele>581.5714285714286</ele><time>2026-04-25T08:26:09.868Z</time></trkpt><trkpt lat="40.6945483" lon="15.1887333"><ele>579.2857142857142</ele><time>2026-04-25T08:26:10.868Z</time></trkpt><trkpt lat="40.6945667" lon="15.1888267"><ele>577.0</ele><time>2026-04-25T08:26:11.868Z</time></trkpt><trkpt lat="40.6945667" lon="15.1889267"><ele>580.8000000000001</ele><time>2026-04-25T08:26:12.868Z</time></trkpt><trkpt lat="40.6945633" lon="15.1890383"><ele>584.6</ele><time>2026-04-25T08:26:13.867Z</time></trkpt><trkpt lat="40.6945733" lon="15.1891583"><ele>588.4000000000001</ele><time>2026-04-25T08:26:14.868Z</time></trkpt><trkpt lat="40.69461" lon="15.1892817"><ele>592.2</ele><time>2026-04-25T08:26:15.868Z</time></trkpt><trkpt lat="40.694655" lon="15.1894067"><ele>596.0</ele><time>2026-04-25T08:26:16.868Z</time></trkpt><trkpt lat="40.6947033" lon="15.189525"><ele>596.0</ele><time>2026-04-25T08:26:17.867Z</time></trkpt><trkpt lat="40.6947433" lon="15.189645"><ele>596.0</ele><time>2026-04-25T08:26:18.868Z</time></trkpt><trkpt lat="40.6947767" lon="15.1897683"><ele>596.0</ele><time>2026-04-25T08:26:19.867Z</time></trkpt><trkpt lat="40.6948283" lon="15.1898717"><ele>596.0</ele><time>2026-04-25T08:26:20.867Z</time></trkpt><trkpt lat="40.6948967" lon="15.1899567"><ele>596.0</ele><time>2026-04-25T08:26:21.867Z</time></trkpt><trkpt lat="40.6949833" lon="15.190035"><ele>600.6</ele><time>2026-04-25T08:26:22.867Z</time></trkpt><trkpt lat="40.6950633" lon="15.1901233"><ele>605.2</ele><time>2026-04-25T08:26:23.868Z</time></trkpt><trkpt lat="40.69513" lon="15.1902217"><ele>609.8</ele><time>2026-04-25T08:26:24.867Z</time></trkpt><trkpt lat="40.695185" lon="15.1903233"><ele>614.4</ele><time>2026-04-25T08:26:25.867Z</time></trkpt><trkpt lat="40.6952267" lon="15.1904317"><ele>619.0</ele><time>2026-04-25T08:26:26.867Z</time></trkpt><trkpt lat="40.69527" lon="15.1905383"><ele>619.0</ele><time>2026-04-25T08:26:27.868Z</time></trkpt><trkpt lat="40.695315" lon="15.1906433"><ele>619.0</ele><time>2026-04-25T08:26:28.867Z</time></trkpt><trkpt lat="40.695355" lon="15.1907533"><ele>619.0</ele><time>2026-04-25T08:26:29.867Z</time></trkpt><trkpt lat="40.6954" lon="15.1908667"><ele>619.0</ele><time>2026-04-25T08:26:30.868Z</time></trkpt><trkpt lat="40.69546" lon="15.19096"><ele>619.0</ele><time>2026-04-25T08:26:31.867Z</time></trkpt><trkpt lat="40.6955367" lon="15.19105"><ele>611.8</ele><time>2026-04-25T08:26:32.868Z</time></trkpt><trkpt lat="40.6956217" lon="15.1911367"><ele>604.5999999999999</ele><time>2026-04-25T08:26:33.867Z</time></trkpt><trkpt lat="40.6957" lon="15.19122"><ele>597.4</ele><time>2026-04-25T08:26:34.867Z</time></trkpt><trkpt lat="40.69578" lon="15.1913083"><ele>590.1999999999999</ele><time>2026-04-25T08:26:35.868Z</time></trkpt><trkpt lat="40.69585" lon="15.1914033"><ele>583.0</ele><time>2026-04-25T08:26:36.868Z</time></trkpt><trkpt lat="40.69591" lon="15.19149"><ele>585.1666666666667</ele><time>2026-04-25T08:26:37.868Z</time></trkpt><trkpt lat="40.69596" lon="15.191565"><ele>587.3333333333334</ele><time>2026-04-25T08:26:38.868Z</time></trkpt><trkpt lat="40.6959933" lon="15.1916383"><ele>589.5</ele><time>2026-04-25T08:26:39.867Z</time></trkpt><trkpt lat="40.6960533" lon="15.1917983"><ele>591.6666666666666</ele><time>2026-04-25T08:26:41.868Z</time></trkpt><trkpt lat="40.6960833" lon="15.1918817"><ele>593.8333333333333</ele><time>2026-04-25T08:26:42.867Z</time></trkpt><trkpt lat="40.69612" lon="15.191965"><ele>596.0</ele><time>2026-04-25T08:26:43.867Z</time></trkpt><trkpt lat="40.6961633" lon="15.1920483"><ele>596.0</ele><time>2026-04-25T08:26:44.867Z</time></trkpt><trkpt lat="40.6962183" lon="15.1921317"><ele>596.0</ele><time>2026-04-25T08:26:45.868Z</time></trkpt><trkpt lat="40.6962833" lon="15.1921933"><ele>596.0</ele><time>2026-04-25T08:26:46.868Z</time></trkpt><trkpt lat="40.6963483" lon="15.1922383"><ele>596.0</ele><time>2026-04-25T08:26:47.867Z</time></trkpt><trkpt lat="40.6964267" lon="15.1922717"><ele>596.0</ele><time>2026-04-25T08:26:48.868Z</time></trkpt><trkpt lat="40.6965167" lon="15.1923183"><ele>596.0</ele><time>2026-04-25T08:26:49.867Z</time></trkpt><trkpt lat="40.6966183" lon="15.192385"><ele>595.0</ele><time>2026-04-25T08:26:50.867Z</time></trkpt><trkpt lat="40.6967033" lon="15.1925017"><ele>594.0</ele><time>2026-04-25T08:26:51.867Z</time></trkpt><trkpt lat="40.6967833" lon="15.1926133"><ele>593.0</ele><time>2026-04-25T08:26:52.868Z</time></trkpt><trkpt lat="40.696855" lon="15.1927133"><ele>592.0</ele><time>2026-04-25T08:26:53.868Z</time></trkpt><trkpt lat="40.69692" lon="15.1928133"><ele>591.0</ele><time>2026-04-25T08:26:54.867Z</time></trkpt><trkpt lat="40.6969767" lon="15.1929083"><ele>591.0</ele><time>2026-04-25T08:26:55.867Z</time></trkpt><trkpt lat="40.697015" lon="15.192995"><ele>591.0</ele><time>2026-04-25T08:26:56.868Z</time></trkpt><trkpt lat="40.6970783" lon="15.1931"><ele>591.0</ele><time>2026-04-25T08:26:58.868Z</time></trkpt><trkpt lat="40.6970967" lon="15.19318"><ele>591.0</ele><time>2026-04-25T08:28:51.868Z</time></trkpt><trkpt lat="40.6971767" lon="15.1932567"><ele>591.0</ele><time>2026-04-25T08:28:54.868Z</time></trkpt><trkpt lat="40.6972633" lon="15.1933317"><ele>591.0</ele><time>2026-04-25T08:28:56.867Z</time></trkpt><trkpt lat="40.69732" lon="15.19337"><ele>586.8333333333334</ele><time>2026-04-25T08:28:57.868Z</time></trkpt><trkpt lat="40.6973817" lon="15.19341"><ele>582.6666666666666</ele><time>2026-04-25T08:28:58.867Z</time></trkpt><trkpt lat="40.6974517" lon="15.1934467"><ele>578.5</ele><time>2026-04-25T08:28:59.868Z</time></trkpt><trkpt lat="40.6975267" lon="15.1934833"><ele>574.3333333333333</ele><time>2026-04-25T08:29:00.868Z</time></trkpt><trkpt lat="40.6976017" lon="15.1935133"><ele>570.1666666666666</ele><time>2026-04-25T08:29:01.867Z</time></trkpt><trkpt lat="40.69768" lon="15.19355"><ele>566.0</ele><time>2026-04-25T08:29:02.868Z</time></trkpt><trkpt lat="40.69776" lon="15.19359"><ele>566.0</ele><time>2026-04-25T08:29:03.868Z</time></trkpt><trkpt lat="40.69783" lon="15.193635"><ele>566.0</ele><time>2026-04-25T08:29:04.867Z</time></trkpt><trkpt lat="40.69791" lon="15.1936783"><ele>566.0</ele><time>2026-04-25T08:29:05.868Z</time></trkpt><trkpt lat="40.6979917" lon="15.19372"><ele>566.0</ele><time>2026-04-25T08:29:06.868Z</time></trkpt><trkpt lat="40.69807" lon="15.1937533"><ele>566.0</ele><time>2026-04-25T08:29:07.868Z</time></trkpt><trkpt lat="40.6981417" lon="15.1937817"><ele>566.0</ele><time>2026-04-25T08:29:08.867Z</time></trkpt><trkpt lat="40.69822" lon="15.193795"><ele>566.0</ele><time>2026-04-25T08:29:09.867Z</time></trkpt><trkpt lat="40.69829" lon="15.1937933"><ele>566.0</ele><time>2026-04-25T08:29:10.868Z</time></trkpt><trkpt lat="40.698355" lon="15.1937967"><ele>566.0</ele><time>2026-04-25T08:29:11.868Z</time></trkpt><trkpt lat="40.69847" lon="15.193785"><ele>566.0</ele><time>2026-04-25T08:29:13.867Z</time></trkpt><trkpt lat="40.6986017" lon="15.1937983"><ele>566.0</ele><time>2026-04-25T08:29:15.867Z</time></trkpt><trkpt lat="40.6986733" lon="15.1938117"><ele>564.1428571428571</ele><time>2026-04-25T08:29:16.867Z</time></trkpt><trkpt lat="40.6987417" lon="15.1938367"><ele>562.2857142857143</ele><time>2026-04-25T08:29:17.867Z</time></trkpt><trkpt lat="40.6988067" lon="15.19388"><ele>560.4285714285714</ele><time>2026-04-25T08:29:18.867Z</time></trkpt><trkpt lat="40.6988583" lon="15.1939283"><ele>558.5714285714286</ele><time>2026-04-25T08:29:19.868Z</time></trkpt><trkpt lat="40.6989067" lon="15.19399"><ele>556.7142857142858</ele><time>2026-04-25T08:29:20.868Z</time></trkpt><trkpt lat="40.6989467" lon="15.194055"><ele>554.8571428571429</ele><time>2026-04-25T08:29:21.867Z</time></trkpt><trkpt lat="40.699" lon="15.1941667"><ele>553.0</ele><time>2026-04-25T08:29:23.868Z</time></trkpt><trkpt lat="40.6990683" lon="15.1942217"><ele>553.0</ele><time>2026-04-25T08:29:25.868Z</time></trkpt><trkpt lat="40.699185" lon="15.194235"><ele>553.0</ele><time>2026-04-25T08:29:27.867Z</time></trkpt><trkpt lat="40.6992583" lon="15.194235"><ele>553.0</ele><time>2026-04-25T08:29:28.868Z</time></trkpt><trkpt lat="40.6993383" lon="15.1942283"><ele>553.0</ele><time>2026-04-25T08:29:29.868Z</time></trkpt><trkpt lat="40.69943" lon="15.1942217"><ele>553.0</ele><time>2026-04-25T08:29:30.867Z</time></trkpt><trkpt lat="40.699515" lon="15.1942167"><ele>553.0</ele><time>2026-04-25T08:29:31.868Z</time></trkpt><trkpt lat="40.699595" lon="15.1942083"><ele>552.8333333333334</ele><time>2026-04-25T08:29:32.867Z</time></trkpt><trkpt lat="40.6996683" lon="15.1941867"><ele>552.6666666666667</ele><time>2026-04-25T08:29:33.868Z</time></trkpt><trkpt lat="40.6997467" lon="15.1941683"><ele>552.5</ele><time>2026-04-25T08:29:34.868Z</time></trkpt><trkpt lat="40.6998217" lon="15.19415"><ele>552.3333333333334</ele><time>2026-04-25T08:29:35.868Z</time></trkpt><trkpt lat="40.6999017" lon="15.19413"><ele>552.1666666666666</ele><time>2026-04-25T08:29:36.868Z</time></trkpt><trkpt lat="40.6999733" lon="15.1941"><ele>552.0</ele><time>2026-04-25T08:29:37.868Z</time></trkpt><trkpt lat="40.7000467" lon="15.1940683"><ele>552.0</ele><time>2026-04-25T08:29:38.868Z</time></trkpt><trkpt lat="40.7001117" lon="15.19404"><ele>552.0</ele><time>2026-04-25T08:29:39.868Z</time></trkpt><trkpt lat="40.700175" lon="15.1939967"><ele>552.0</ele><time>2026-04-25T08:29:40.868Z</time></trkpt><trkpt lat="40.70024" lon="15.1939533"><ele>552.0</ele><time>2026-04-25T08:29:41.868Z</time></trkpt><trkpt lat="40.7003083" lon="15.193925"><ele>552.0</ele><time>2026-04-25T08:29:42.867Z</time></trkpt><trkpt lat="40.7004283" lon="15.1939067"><ele>552.0</ele><time>2026-04-25T08:29:44.867Z</time></trkpt><trkpt lat="40.7005267" lon="15.19395"><ele>551.3333333333334</ele><time>2026-04-25T08:29:46.868Z</time></trkpt><trkpt lat="40.7005983" lon="15.1940333"><ele>550.6666666666666</ele><time>2026-04-25T08:29:48.867Z</time></trkpt><trkpt lat="40.700655" lon="15.194105"><ele>550.0</ele><time>2026-04-25T08:29:50.868Z</time></trkpt><trkpt lat="40.7007117" lon="15.1941783"><ele>549.3333333333333</ele><time>2026-04-25T08:29:52.867Z</time></trkpt><trkpt lat="40.7007483" lon="15.19427"><ele>548.6666666666666</ele><time>2026-04-25T08:29:54.868Z</time></trkpt><trkpt lat="40.7007683" lon="15.1943817"><ele>548.0</ele><time>2026-04-25T08:29:56.868Z</time></trkpt><trkpt lat="40.7008" lon="15.19446"><ele>548.0</ele><time>2026-04-25T08:29:58.868Z</time></trkpt><trkpt lat="40.7008567" lon="15.1945017"><ele>548.0</ele><time>2026-04-25T08:30:07.867Z</time></trkpt><trkpt lat="40.7009217" lon="15.1945667"><ele>548.0</ele><time>2026-04-25T08:30:09.868Z</time></trkpt><trkpt lat="40.7009933" lon="15.19466"><ele>548.0</ele><time>2026-04-25T08:30:11.867Z</time></trkpt><trkpt lat="40.7010817" lon="15.1947883"><ele>548.0</ele><time>2026-04-25T08:30:13.867Z</time></trkpt><trkpt lat="40.70113" lon="15.194865"><ele>545.1666666666666</ele><time>2026-04-25T08:30:14.867Z</time></trkpt><trkpt lat="40.7011867" lon="15.1949367"><ele>542.3333333333333</ele><time>2026-04-25T08:30:15.867Z</time></trkpt><trkpt lat="40.7012467" lon="15.1950017"><ele>539.5</ele><time>2026-04-25T08:30:16.868Z</time></trkpt><trkpt lat="40.7013067" lon="15.1950617"><ele>536.6666666666666</ele><time>2026-04-25T08:30:17.867Z</time></trkpt><trkpt lat="40.70136" lon="15.1951233"><ele>533.8333333333334</ele><time>2026-04-25T08:30:18.868Z</time></trkpt><trkpt lat="40.7014233" lon="15.19518"><ele>531.0</ele><time>2026-04-25T08:30:19.867Z</time></trkpt><trkpt lat="40.70148" lon="15.1952367"><ele>531.0</ele><time>2026-04-25T08:30:20.868Z</time></trkpt><trkpt lat="40.70153" lon="15.1952883"><ele>531.0</ele><time>2026-04-25T08:30:21.868Z</time></trkpt><trkpt lat="40.701615" lon="15.1953683"><ele>531.0</ele><time>2026-04-25T08:30:23.867Z</time></trkpt><trkpt lat="40.7016783" lon="15.1954383"><ele>531.0</ele><time>2026-04-25T08:30:25.867Z</time></trkpt><trkpt lat="40.7017067" lon="15.1955383"><ele>531.0</ele><time>2026-04-25T08:30:27.868Z</time></trkpt><trkpt lat="40.7017017" lon="15.195675"><ele>531.0</ele><time>2026-04-25T08:30:29.868Z</time></trkpt><trkpt lat="40.7016817" lon="15.1958267"><ele>528.0</ele><time>2026-04-25T08:30:31.867Z</time></trkpt><trkpt lat="40.7016467" lon="15.19599"><ele>525.0</ele><time>2026-04-25T08:30:33.867Z</time></trkpt><trkpt lat="40.7016267" lon="15.1960733"><ele>522.0</ele><time>2026-04-25T08:30:34.867Z</time></trkpt><trkpt lat="40.7016083" lon="15.196165"><ele>519.0</ele><time>2026-04-25T08:30:35.868Z</time></trkpt><trkpt lat="40.7015833" lon="15.1962567"><ele>516.0</ele><time>2026-04-25T08:30:36.867Z</time></trkpt><trkpt lat="40.7015617" lon="15.1963417"><ele>513.0</ele><time>2026-04-25T08:30:37.868Z</time></trkpt><trkpt lat="40.7015317" lon="15.1964733"><ele>509.79999999999995</ele><time>2026-04-25T08:30:39.868Z</time></trkpt><trkpt lat="40.70151" lon="15.196605"><ele>506.59999999999997</ele><time>2026-04-25T08:30:41.867Z</time></trkpt><trkpt lat="40.7014783" lon="15.1967517"><ele>503.40000000000003</ele><time>2026-04-25T08:30:43.868Z</time></trkpt><trkpt lat="40.70145" lon="15.1969033"><ele>500.20000000000005</ele><time>2026-04-25T08:30:45.867Z</time></trkpt><trkpt lat="40.7014567" lon="15.1970467"><ele>497.0</ele><time>2026-04-25T08:30:47.867Z</time></trkpt><trkpt lat="40.7014567" lon="15.19721"><ele>495.16666666666663</ele><time>2026-04-25T08:30:49.867Z</time></trkpt><trkpt lat="40.70146" lon="15.1973617"><ele>493.3333333333333</ele><time>2026-04-25T08:30:51.867Z</time></trkpt><trkpt lat="40.70148" lon="15.1974483"><ele>491.5</ele><time>2026-04-25T08:30:52.867Z</time></trkpt><trkpt lat="40.70151" lon="15.197535"><ele>489.66666666666663</ele><time>2026-04-25T08:30:53.868Z</time></trkpt><trkpt lat="40.701545" lon="15.1976117"><ele>487.8333333333333</ele><time>2026-04-25T08:30:54.867Z</time></trkpt><trkpt lat="40.7015767" lon="15.197695"><ele>486.0</ele><time>2026-04-25T08:30:55.868Z</time></trkpt><trkpt lat="40.7016017" lon="15.1977867"><ele>486.0</ele><time>2026-04-25T08:30:56.868Z</time></trkpt><trkpt lat="40.7016233" lon="15.19788"><ele>486.0</ele><time>2026-04-25T08:30:57.868Z</time></trkpt><trkpt lat="40.7016667" lon="15.1979767"><ele>486.0</ele><time>2026-04-25T08:30:58.868Z</time></trkpt><trkpt lat="40.701715" lon="15.198085"><ele>486.0</ele><time>2026-04-25T08:30:59.868Z</time></trkpt><trkpt lat="40.7017633" lon="15.198195"><ele>486.0</ele><time>2026-04-25T08:31:00.867Z</time></trkpt><trkpt lat="40.7018083" lon="15.1983083"><ele>486.0</ele><time>2026-04-25T08:31:01.868Z</time></trkpt><trkpt lat="40.7018517" lon="15.1984167"><ele>484.6666666666667</ele><time>2026-04-25T08:31:02.868Z</time></trkpt><trkpt lat="40.7018933" lon="15.19852"><ele>483.33333333333337</ele><time>2026-04-25T08:31:03.868Z</time></trkpt><trkpt lat="40.7019417" lon="15.1986133"><ele>482.0</ele><time>2026-04-25T08:31:04.867Z</time></trkpt><trkpt lat="40.7019883" lon="15.1987017"><ele>480.6666666666667</ele><time>2026-04-25T08:31:05.866Z</time></trkpt><trkpt lat="40.7020317" lon="15.1987833"><ele>479.33333333333337</ele><time>2026-04-25T08:31:06.867Z</time></trkpt><trkpt lat="40.7020683" lon="15.1988633"><ele>478.0</ele><time>2026-04-25T08:31:07.867Z</time></trkpt><trkpt lat="40.70209" lon="15.1989433"><ele>476.00000000000006</ele><time>2026-04-25T08:31:08.866Z</time></trkpt><trkpt lat="40.7021083" lon="15.1990383"><ele>474.0</ele><time>2026-04-25T08:31:09.866Z</time></trkpt><trkpt lat="40.7021267" lon="15.1991383"><ele>472.0</ele><time>2026-04-25T08:31:10.867Z</time></trkpt><trkpt lat="40.70214" lon="15.1992433"><ele>470.0</ele><time>2026-04-25T08:31:11.866Z</time></trkpt><trkpt lat="40.70217" lon="15.199355"><ele>468.00000000000006</ele><time>2026-04-25T08:31:12.866Z</time></trkpt><trkpt lat="40.7021917" lon="15.1994583"><ele>466.0</ele><time>2026-04-25T08:31:13.867Z</time></trkpt><trkpt lat="40.70221" lon="15.1995683"><ele>466.0</ele><time>2026-04-25T08:31:14.866Z</time></trkpt><trkpt lat="40.7022317" lon="15.1996917"><ele>466.0</ele><time>2026-04-25T08:31:15.866Z</time></trkpt><trkpt lat="40.7022567" lon="15.1998183"><ele>466.0</ele><time>2026-04-25T08:31:16.867Z</time></trkpt><trkpt lat="40.7022733" lon="15.1999433"><ele>466.0</ele><time>2026-04-25T08:31:17.867Z</time></trkpt><trkpt lat="40.7023" lon="15.200065"><ele>466.0</ele><time>2026-04-25T08:31:18.867Z</time></trkpt><trkpt lat="40.7023317" lon="15.2001783"><ele>464.42857142857144</ele><time>2026-04-25T08:31:19.867Z</time></trkpt><trkpt lat="40.7023533" lon="15.2002833"><ele>462.85714285714283</ele><time>2026-04-25T08:31:20.866Z</time></trkpt><trkpt lat="40.7023667" lon="15.20039"><ele>461.2857142857143</ele><time>2026-04-25T08:31:21.866Z</time></trkpt><trkpt lat="40.702375" lon="15.2004917"><ele>459.7142857142857</ele><time>2026-04-25T08:31:22.867Z</time></trkpt><trkpt lat="40.70238" lon="15.2005833"><ele>458.1428571428571</ele><time>2026-04-25T08:31:23.867Z</time></trkpt><trkpt lat="40.7023817" lon="15.20067"><ele>456.57142857142856</ele><time>2026-04-25T08:31:24.866Z</time></trkpt><trkpt lat="40.7023667" lon="15.200755"><ele>455.0</ele><time>2026-04-25T08:31:25.867Z</time></trkpt><trkpt lat="40.702345" lon="15.200835"><ele>453.49999999999994</ele><time>2026-04-25T08:31:26.866Z</time></trkpt><trkpt lat="40.7023233" lon="15.2009217"><ele>452.0</ele><time>2026-04-25T08:31:27.867Z</time></trkpt><trkpt lat="40.7022967" lon="15.2010167"><ele>450.5</ele><time>2026-04-25T08:31:28.866Z</time></trkpt><trkpt lat="40.70228" lon="15.20112"><ele>449.0</ele><time>2026-04-25T08:31:29.866Z</time></trkpt><trkpt lat="40.70228" lon="15.20123"><ele>447.49999999999994</ele><time>2026-04-25T08:31:30.866Z</time></trkpt><trkpt lat="40.70229" lon="15.2013433"><ele>446.0</ele><time>2026-04-25T08:31:31.867Z</time></trkpt><trkpt lat="40.7023017" lon="15.2014583"><ele>444.16666666666663</ele><time>2026-04-25T08:31:32.866Z</time></trkpt><trkpt lat="40.702315" lon="15.201565"><ele>442.3333333333333</ele><time>2026-04-25T08:31:33.866Z</time></trkpt><trkpt lat="40.702335" lon="15.2016633"><ele>440.5</ele><time>2026-04-25T08:31:34.866Z</time></trkpt><trkpt lat="40.7023617" lon="15.2017533"><ele>438.66666666666663</ele><time>2026-04-25T08:31:35.866Z</time></trkpt><trkpt lat="40.7023817" lon="15.20185"><ele>436.8333333333333</ele><time>2026-04-25T08:31:36.866Z</time></trkpt><trkpt lat="40.7024017" lon="15.2019333"><ele>435.0</ele><time>2026-04-25T08:31:37.866Z</time></trkpt><trkpt lat="40.7024317" lon="15.20209"><ele>435.0</ele><time>2026-04-25T08:31:39.867Z</time></trkpt><trkpt lat="40.7024267" lon="15.2022633"><ele>435.0</ele><time>2026-04-25T08:31:41.867Z</time></trkpt><trkpt lat="40.7024283" lon="15.2023833"><ele>435.0</ele><time>2026-04-25T08:31:42.867Z</time></trkpt><trkpt lat="40.7024417" lon="15.202515"><ele>435.0</ele><time>2026-04-25T08:31:43.867Z</time></trkpt><trkpt lat="40.7024633" lon="15.202645"><ele>435.0</ele><time>2026-04-25T08:31:44.866Z</time></trkpt><trkpt lat="40.7024917" lon="15.2027683"><ele>433.2</ele><time>2026-04-25T08:31:45.866Z</time></trkpt><trkpt lat="40.7025183" lon="15.2029033"><ele>431.4</ele><time>2026-04-25T08:31:46.867Z</time></trkpt><trkpt lat="40.7025433" lon="15.203035"><ele>429.6</ele><time>2026-04-25T08:31:47.866Z</time></trkpt><trkpt lat="40.7025717" lon="15.2031767"><ele>427.8</ele><time>2026-04-25T08:31:48.867Z</time></trkpt><trkpt lat="40.7025917" lon="15.203315"><ele>426.0</ele><time>2026-04-25T08:31:49.866Z</time></trkpt><trkpt lat="40.70262" lon="15.203455"><ele>423.8</ele><time>2026-04-25T08:31:50.867Z</time></trkpt><trkpt lat="40.7026533" lon="15.2036"><ele>421.6</ele><time>2026-04-25T08:31:51.867Z</time></trkpt><trkpt lat="40.7026833" lon="15.20373"><ele>419.4</ele><time>2026-04-25T08:31:52.866Z</time></trkpt><trkpt lat="40.70271" lon="15.2038417"><ele>417.2</ele><time>2026-04-25T08:31:53.866Z</time></trkpt><trkpt lat="40.7027333" lon="15.2039383"><ele>415.0</ele><time>2026-04-25T08:31:54.866Z</time></trkpt><trkpt lat="40.7027417" lon="15.204025"><ele>413.33333333333337</ele><time>2026-04-25T08:31:55.867Z</time></trkpt><trkpt lat="40.7026867" lon="15.2041233"><ele>411.6666666666667</ele><time>2026-04-25T08:31:57.866Z</time></trkpt><trkpt lat="40.70262" lon="15.204145"><ele>410.0</ele><time>2026-04-25T08:31:58.866Z</time></trkpt><trkpt lat="40.7025317" lon="15.204145"><ele>408.33333333333337</ele><time>2026-04-25T08:31:59.867Z</time></trkpt><trkpt lat="40.70244" lon="15.204135"><ele>406.6666666666667</ele><time>2026-04-25T08:32:00.866Z</time></trkpt><trkpt lat="40.70235" lon="15.20413"><ele>405.0</ele><time>2026-04-25T08:32:01.867Z</time></trkpt><trkpt lat="40.7022667" lon="15.2041267"><ele>405.0</ele><time>2026-04-25T08:32:02.866Z</time></trkpt><trkpt lat="40.70219" lon="15.2041317"><ele>405.0</ele><time>2026-04-25T08:32:03.866Z</time></trkpt><trkpt lat="40.70212" lon="15.204145"><ele>405.0</ele><time>2026-04-25T08:32:04.866Z</time></trkpt><trkpt lat="40.7020533" lon="15.2041583"><ele>405.0</ele><time>2026-04-25T08:32:05.867Z</time></trkpt><trkpt lat="40.70199" lon="15.2041817"><ele>405.0</ele><time>2026-04-25T08:32:06.866Z</time></trkpt><trkpt lat="40.7019283" lon="15.2042033"><ele>405.0</ele><time>2026-04-25T08:32:07.866Z</time></trkpt><trkpt lat="40.7018183" lon="15.2042367"><ele>404.6</ele><time>2026-04-25T08:32:09.867Z</time></trkpt><trkpt lat="40.7017283" lon="15.204285"><ele>404.2</ele><time>2026-04-25T08:32:11.867Z</time></trkpt><trkpt lat="40.7016483" lon="15.20434"><ele>403.79999999999995</ele><time>2026-04-25T08:32:13.867Z</time></trkpt><trkpt lat="40.7015683" lon="15.2043833"><ele>403.4</ele><time>2026-04-25T08:32:15.866Z</time></trkpt><trkpt lat="40.7014767" lon="15.204415"><ele>403.0</ele><time>2026-04-25T08:32:17.867Z</time></trkpt><trkpt lat="40.701385" lon="15.20443"><ele>403.0</ele><time>2026-04-25T08:32:19.867Z</time></trkpt><trkpt lat="40.7013133" lon="15.2044433"><ele>403.0</ele><time>2026-04-25T08:32:21.867Z</time></trkpt><trkpt lat="40.7012267" lon="15.2044833"><ele>403.0</ele><time>2026-04-25T08:32:23.866Z</time></trkpt><trkpt lat="40.7011217" lon="15.2045617"><ele>403.0</ele><time>2026-04-25T08:32:25.867Z</time></trkpt><trkpt lat="40.7010617" lon="15.2045967"><ele>403.0</ele><time>2026-04-25T08:32:26.867Z</time></trkpt><trkpt lat="40.7009483" lon="15.204635"><ele>402.0</ele><time>2026-04-25T08:32:28.867Z</time></trkpt><trkpt lat="40.7008617" lon="15.2046767"><ele>401.0</ele><time>2026-04-25T08:32:30.867Z</time></trkpt><trkpt lat="40.7007783" lon="15.2047117"><ele>400.0</ele><time>2026-04-25T08:32:32.867Z</time></trkpt><trkpt lat="40.700685" lon="15.20475"><ele>399.0</ele><time>2026-04-25T08:32:34.866Z</time></trkpt><trkpt lat="40.700575" lon="15.2047883"><ele>398.0</ele><time>2026-04-25T08:32:36.866Z</time></trkpt><trkpt lat="40.700475" lon="15.204815"><ele>396.59999999999997</ele><time>2026-04-25T08:32:38.867Z</time></trkpt><trkpt lat="40.7003933" lon="15.2048517"><ele>395.2</ele><time>2026-04-25T08:32:40.866Z</time></trkpt><trkpt lat="40.700315" lon="15.204905"><ele>393.8</ele><time>2026-04-25T08:32:42.867Z</time></trkpt><trkpt lat="40.7002283" lon="15.204975"><ele>392.4</ele><time>2026-04-25T08:32:44.867Z</time></trkpt><trkpt lat="40.7001317" lon="15.2050633"><ele>391.0</ele><time>2026-04-25T08:32:46.867Z</time></trkpt><trkpt lat="40.7000383" lon="15.2051517"><ele>391.0</ele><time>2026-04-25T08:32:48.866Z</time></trkpt><trkpt lat="40.699955" lon="15.2052417"><ele>391.0</ele><time>2026-04-25T08:32:50.866Z</time></trkpt><trkpt lat="40.6998817" lon="15.2053383"><ele>391.0</ele><time>2026-04-25T08:32:52.867Z</time></trkpt><trkpt lat="40.6998117" lon="15.20543"><ele>391.0</ele><time>2026-04-25T08:32:54.867Z</time></trkpt><trkpt lat="40.6997533" lon="15.2055033"><ele>391.0</ele><time>2026-04-25T08:32:56.866Z</time></trkpt><trkpt lat="40.699695" lon="15.2055833"><ele>391.00000000000006</ele><time>2026-04-25T08:32:58.867Z</time></trkpt><trkpt lat="40.699635" lon="15.2056533"><ele>391.0</ele><time>2026-04-25T08:33:00.866Z</time></trkpt><trkpt lat="40.69955" lon="15.2057383"><ele>391.0</ele><time>2026-04-25T08:33:02.867Z</time></trkpt><trkpt lat="40.6994883" lon="15.2057917"><ele>391.0</ele><time>2026-04-25T08:33:03.867Z</time></trkpt><trkpt lat="40.699425" lon="15.205845"><ele>391.00000000000006</ele><time>2026-04-25T08:33:04.867Z</time></trkpt><trkpt lat="40.6993717" lon="15.2058917"><ele>391.0</ele><time>2026-04-25T08:33:05.866Z</time></trkpt><trkpt lat="40.6993133" lon="15.20594"><ele>389.8</ele><time>2026-04-25T08:33:06.867Z</time></trkpt><trkpt lat="40.69924" lon="15.2059983"><ele>388.6</ele><time>2026-04-25T08:33:07.866Z</time></trkpt><trkpt lat="40.6991517" lon="15.206075"><ele>387.4</ele><time>2026-04-25T08:33:08.867Z</time></trkpt><trkpt lat="40.6990583" lon="15.2061617"><ele>386.2</ele><time>2026-04-25T08:33:09.866Z</time></trkpt><trkpt lat="40.69897" lon="15.2062633"><ele>385.0</ele><time>2026-04-25T08:33:10.866Z</time></trkpt><trkpt lat="40.698885" lon="15.2063617"><ele>385.0</ele><time>2026-04-25T08:33:11.867Z</time></trkpt><trkpt lat="40.698795" lon="15.2064617"><ele>385.0</ele><time>2026-04-25T08:33:12.867Z</time></trkpt><trkpt lat="40.698685" lon="15.2065517"><ele>385.0</ele><time>2026-04-25T08:33:13.867Z</time></trkpt><trkpt lat="40.69857" lon="15.206625"><ele>385.0</ele><time>2026-04-25T08:33:14.867Z</time></trkpt><trkpt lat="40.6984467" lon="15.2066867"><ele>382.0</ele><time>2026-04-25T08:33:15.866Z</time></trkpt><trkpt lat="40.6983083" lon="15.206755"><ele>379.0</ele><time>2026-04-25T08:33:16.866Z</time></trkpt><trkpt lat="40.6981717" lon="15.2068133"><ele>376.0</ele><time>2026-04-25T08:33:17.866Z</time></trkpt><trkpt lat="40.69805" lon="15.2068633"><ele>373.0</ele><time>2026-04-25T08:33:18.866Z</time></trkpt><trkpt lat="40.6979517" lon="15.2068983"><ele>373.0</ele><time>2026-04-25T08:33:19.867Z</time></trkpt><trkpt lat="40.6978567" lon="15.2069"><ele>373.0</ele><time>2026-04-25T08:33:20.867Z</time></trkpt><trkpt lat="40.6977717" lon="15.2068667"><ele>373.0</ele><time>2026-04-25T08:33:21.866Z</time></trkpt><trkpt lat="40.6976867" lon="15.2068"><ele>373.0</ele><time>2026-04-25T08:33:22.866Z</time></trkpt><trkpt lat="40.6975917" lon="15.20671"><ele>373.0</ele><time>2026-04-25T08:33:23.867Z</time></trkpt><trkpt lat="40.697475" lon="15.2065933"><ele>374.25</ele><time>2026-04-25T08:33:24.867Z</time></trkpt><trkpt lat="40.69735" lon="15.206475"><ele>375.5</ele><time>2026-04-25T08:33:25.866Z</time></trkpt><trkpt lat="40.6972283" lon="15.2063617"><ele>376.75</ele><time>2026-04-25T08:33:26.867Z</time></trkpt><trkpt lat="40.6971183" lon="15.2062583"><ele>378.0</ele><time>2026-04-25T08:33:27.867Z</time></trkpt><trkpt lat="40.6970133" lon="15.206175"><ele>376.25</ele><time>2026-04-25T08:33:28.867Z</time></trkpt><trkpt lat="40.6969017" lon="15.2061033"><ele>374.5</ele><time>2026-04-25T08:33:29.866Z</time></trkpt><trkpt lat="40.696795" lon="15.2060567"><ele>372.75</ele><time>2026-04-25T08:33:30.867Z</time></trkpt><trkpt lat="40.6966733" lon="15.206025"><ele>371.0</ele><time>2026-04-25T08:33:31.867Z</time></trkpt><trkpt lat="40.6965367" lon="15.2059933"><ele>371.0</ele><time>2026-04-25T08:33:32.867Z</time></trkpt><trkpt lat="40.6963833" lon="15.2059667"><ele>371.0</ele><time>2026-04-25T08:33:33.867Z</time></trkpt><trkpt lat="40.6962383" lon="15.2059433"><ele>371.0</ele><time>2026-04-25T08:33:34.866Z</time></trkpt><trkpt lat="40.69611" lon="15.2059183"><ele>371.0</ele><time>2026-04-25T08:33:35.867Z</time></trkpt><trkpt lat="40.69599" lon="15.2058817"><ele>370.20000000000005</ele><time>2026-04-25T08:33:36.867Z</time></trkpt><trkpt lat="40.69588" lon="15.20582"><ele>369.40000000000003</ele><time>2026-04-25T08:33:37.867Z</time></trkpt><trkpt lat="40.6957833" lon="15.2057383"><ele>368.6</ele><time>2026-04-25T08:33:38.867Z</time></trkpt><trkpt lat="40.6957167" lon="15.2056483"><ele>367.8</ele><time>2026-04-25T08:33:39.867Z</time></trkpt><trkpt lat="40.69566" lon="15.2055483"><ele>367.0</ele><time>2026-04-25T08:33:40.866Z</time></trkpt><trkpt lat="40.6956167" lon="15.205415"><ele>369.6</ele><time>2026-04-25T08:33:41.866Z</time></trkpt><trkpt lat="40.69558" lon="15.2052717"><ele>372.20000000000005</ele><time>2026-04-25T08:33:42.867Z</time></trkpt><trkpt lat="40.6955683" lon="15.2051267"><ele>374.8</ele><time>2026-04-25T08:33:43.866Z</time></trkpt><trkpt lat="40.695565" lon="15.2049917"><ele>377.4</ele><time>2026-04-25T08:33:44.867Z</time></trkpt><trkpt lat="40.695595" lon="15.20486"><ele>380.0</ele><time>2026-04-25T08:33:45.866Z</time></trkpt><trkpt lat="40.6956417" lon="15.2047383"><ele>382.0</ele><time>2026-04-25T08:33:46.867Z</time></trkpt><trkpt lat="40.6956933" lon="15.2046083"><ele>384.0</ele><time>2026-04-25T08:33:47.866Z</time></trkpt><trkpt lat="40.6957567" lon="15.2044983"><ele>386.0</ele><time>2026-04-25T08:33:48.866Z</time></trkpt><trkpt lat="40.6958183" lon="15.2044017"><ele>388.0</ele><time>2026-04-25T08:33:49.866Z</time></trkpt><trkpt lat="40.6958617" lon="15.2043267"><ele>390.0</ele><time>2026-04-25T08:33:50.866Z</time></trkpt><trkpt lat="40.695875" lon="15.2042"><ele>390.0</ele><time>2026-04-25T08:33:52.867Z</time></trkpt><trkpt lat="40.6957967" lon="15.2041367"><ele>390.0</ele><time>2026-04-25T08:33:54.866Z</time></trkpt><trkpt lat="40.6957283" lon="15.2041133"><ele>390.0</ele><time>2026-04-25T08:33:55.866Z</time></trkpt><trkpt lat="40.69563" lon="15.2040833"><ele>390.0</ele><time>2026-04-25T08:33:56.867Z</time></trkpt><trkpt lat="40.6955217" lon="15.20405"><ele>390.0</ele><time>2026-04-25T08:33:57.866Z</time></trkpt><trkpt lat="40.695395" lon="15.204005"><ele>391.0</ele><time>2026-04-25T08:33:58.866Z</time></trkpt><trkpt lat="40.6952733" lon="15.2039567"><ele>392.0</ele><time>2026-04-25T08:33:59.867Z</time></trkpt><trkpt lat="40.6951567" lon="15.2039133"><ele>393.0</ele><time>2026-04-25T08:34:00.867Z</time></trkpt><trkpt lat="40.6950433" lon="15.20386"><ele>394.0</ele><time>2026-04-25T08:34:01.867Z</time></trkpt><trkpt lat="40.6949383" lon="15.203825"><ele>394.0</ele><time>2026-04-25T08:34:02.867Z</time></trkpt><trkpt lat="40.69481" lon="15.2038133"><ele>394.0</ele><time>2026-04-25T08:34:03.866Z</time></trkpt><trkpt lat="40.69468" lon="15.2038267"><ele>394.0</ele><time>2026-04-25T08:34:04.866Z</time></trkpt><trkpt lat="40.6945567" lon="15.2038533"><ele>394.0</ele><time>2026-04-25T08:34:05.867Z</time></trkpt><trkpt lat="40.694445" lon="15.2038967"><ele>392.25</ele><time>2026-04-25T08:34:06.867Z</time></trkpt><trkpt lat="40.6943517" lon="15.203985"><ele>390.5</ele><time>2026-04-25T08:34:07.866Z</time></trkpt><trkpt lat="40.694265" lon="15.2041017"><ele>388.75</ele><time>2026-04-25T08:34:08.867Z</time></trkpt><trkpt lat="40.69419" lon="15.204225"><ele>387.0</ele><time>2026-04-25T08:34:09.866Z</time></trkpt><trkpt lat="40.6941117" lon="15.2043467"><ele>385.5</ele><time>2026-04-25T08:34:10.867Z</time></trkpt><trkpt lat="40.6940167" lon="15.2044583"><ele>384.0</ele><time>2026-04-25T08:34:11.867Z</time></trkpt><trkpt lat="40.6939" lon="15.20456"><ele>382.5</ele><time>2026-04-25T08:34:12.867Z</time></trkpt><trkpt lat="40.6937783" lon="15.2046483"><ele>381.0</ele><time>2026-04-25T08:34:13.867Z</time></trkpt><trkpt lat="40.6936683" lon="15.2047217"><ele>380.8</ele><time>2026-04-25T08:34:14.867Z</time></trkpt><trkpt lat="40.6935783" lon="15.2047783"><ele>380.6</ele><time>2026-04-25T08:34:15.866Z</time></trkpt><trkpt lat="40.6934967" lon="15.2048033"><ele>380.4</ele><time>2026-04-25T08:34:16.867Z</time></trkpt><trkpt lat="40.693405" lon="15.2047967"><ele>380.2</ele><time>2026-04-25T08:34:17.866Z</time></trkpt><trkpt lat="40.6932983" lon="15.2047617"><ele>380.0</ele><time>2026-04-25T08:34:18.867Z</time></trkpt><trkpt lat="40.693175" lon="15.2047067"><ele>380.0</ele><time>2026-04-25T08:34:19.866Z</time></trkpt><trkpt lat="40.6930367" lon="15.20465"><ele>380.0</ele><time>2026-04-25T08:34:20.866Z</time></trkpt><trkpt lat="40.69291" lon="15.2046083"><ele>380.0</ele><time>2026-04-25T08:34:21.867Z</time></trkpt><trkpt lat="40.6927833" lon="15.204585"><ele>380.0</ele><time>2026-04-25T08:34:22.866Z</time></trkpt><trkpt lat="40.6926583" lon="15.2045817"><ele>379.4</ele><time>2026-04-25T08:34:23.866Z</time></trkpt><trkpt lat="40.69253" lon="15.2046117"><ele>378.8</ele><time>2026-04-25T08:34:24.867Z</time></trkpt><trkpt lat="40.6924167" lon="15.204675"><ele>378.20000000000005</ele><time>2026-04-25T08:34:25.866Z</time></trkpt><trkpt lat="40.6923333" lon="15.204745"><ele>377.6</ele><time>2026-04-25T08:34:26.866Z</time></trkpt><trkpt lat="40.692285" lon="15.2048233"><ele>377.0</ele><time>2026-04-25T08:34:27.866Z</time></trkpt><trkpt lat="40.6922517" lon="15.204935"><ele>375.40000000000003</ele><time>2026-04-25T08:34:28.867Z</time></trkpt><trkpt lat="40.6922267" lon="15.20508"><ele>373.8</ele><time>2026-04-25T08:34:29.867Z</time></trkpt><trkpt lat="40.6922017" lon="15.2052433"><ele>372.2</ele><time>2026-04-25T08:34:30.866Z</time></trkpt><trkpt lat="40.69217" lon="15.2053783"><ele>370.6</ele><time>2026-04-25T08:34:31.866Z</time></trkpt><trkpt lat="40.6921133" lon="15.2054867"><ele>369.0</ele><time>2026-04-25T08:34:32.867Z</time></trkpt><trkpt lat="40.6920367" lon="15.20557"><ele>369.0</ele><time>2026-04-25T08:34:33.866Z</time></trkpt><trkpt lat="40.6919417" lon="15.2056367"><ele>369.0</ele><time>2026-04-25T08:34:34.867Z</time></trkpt><trkpt lat="40.6918433" lon="15.2056667"><ele>369.0</ele><time>2026-04-25T08:34:35.866Z</time></trkpt><trkpt lat="40.6917517" lon="15.2057"><ele>369.0</ele><time>2026-04-25T08:34:36.866Z</time></trkpt><trkpt lat="40.6916633" lon="15.2057733"><ele>369.0</ele><time>2026-04-25T08:34:37.867Z</time></trkpt><trkpt lat="40.6915783" lon="15.205885"><ele>369.75</ele><time>2026-04-25T08:34:38.866Z</time></trkpt><trkpt lat="40.69148" lon="15.206005"><ele>370.5</ele><time>2026-04-25T08:34:39.866Z</time></trkpt><trkpt lat="40.6913733" lon="15.2061083"><ele>371.25</ele><time>2026-04-25T08:34:40.866Z</time></trkpt><trkpt lat="40.6912617" lon="15.2062033"><ele>372.0</ele><time>2026-04-25T08:34:41.866Z</time></trkpt><trkpt lat="40.69117" lon="15.2062983"><ele>372.0</ele><time>2026-04-25T08:34:42.866Z</time></trkpt><trkpt lat="40.6910967" lon="15.20639"><ele>372.0</ele><time>2026-04-25T08:34:43.867Z</time></trkpt><trkpt lat="40.691035" lon="15.2064883"><ele>372.0</ele><time>2026-04-25T08:34:44.867Z</time></trkpt><trkpt lat="40.6909983" lon="15.2066067"><ele>372.0</ele><time>2026-04-25T08:34:45.866Z</time></trkpt><trkpt lat="40.69099" lon="15.2067317"><ele>372.0</ele><time>2026-04-25T08:34:46.867Z</time></trkpt><trkpt lat="40.690985" lon="15.2068617"><ele>374.0</ele><time>2026-04-25T08:34:47.866Z</time></trkpt><trkpt lat="40.690975" lon="15.206995"><ele>376.0</ele><time>2026-04-25T08:34:48.866Z</time></trkpt><trkpt lat="40.69096" lon="15.20713"><ele>378.0</ele><time>2026-04-25T08:34:49.867Z</time></trkpt><trkpt lat="40.6909417" lon="15.2072633"><ele>380.0</ele><time>2026-04-25T08:34:50.866Z</time></trkpt><trkpt lat="40.69092" lon="15.2073917"><ele>382.0</ele><time>2026-04-25T08:34:51.867Z</time></trkpt><trkpt lat="40.69089" lon="15.2075033"><ele>382.0</ele><time>2026-04-25T08:34:52.867Z</time></trkpt><trkpt lat="40.6908433" lon="15.20761"><ele>382.0</ele><time>2026-04-25T08:34:53.866Z</time></trkpt><trkpt lat="40.6907783" lon="15.2077017"><ele>382.0</ele><time>2026-04-25T08:34:54.867Z</time></trkpt><trkpt lat="40.6906867" lon="15.2077867"><ele>382.0</ele><time>2026-04-25T08:34:55.867Z</time></trkpt><trkpt lat="40.690585" lon="15.2078767"><ele>382.0</ele><time>2026-04-25T08:34:56.866Z</time></trkpt><trkpt lat="40.6904933" lon="15.2079517"><ele>382.0</ele><time>2026-04-25T08:34:57.867Z</time></trkpt><trkpt lat="40.6904133" lon="15.2080033"><ele>382.0</ele><time>2026-04-25T08:34:58.867Z</time></trkpt><trkpt lat="40.6903233" lon="15.208045"><ele>382.0</ele><time>2026-04-25T08:35:00.866Z</time></trkpt><trkpt lat="40.6902567" lon="15.2080217"><ele>382.0</ele><time>2026-04-25T08:35:02.866Z</time></trkpt><trkpt lat="40.69015" lon="15.20797"><ele>382.0</ele><time>2026-04-25T08:35:04.866Z</time></trkpt><trkpt lat="40.690075" lon="15.207935"><ele>382.0</ele><time>2026-04-25T08:35:06.866Z</time></trkpt><trkpt lat="40.6900067" lon="15.2079283"><ele>383.0</ele><time>2026-04-25T08:35:08.867Z</time></trkpt><trkpt lat="40.6899233" lon="15.2079483"><ele>384.0</ele><time>2026-04-25T08:35:10.866Z</time></trkpt><trkpt lat="40.689815" lon="15.208015"><ele>385.0</ele><time>2026-04-25T08:35:12.867Z</time></trkpt><trkpt lat="40.6897483" lon="15.2080783"><ele>386.0</ele><time>2026-04-25T08:35:13.867Z</time></trkpt><trkpt lat="40.6896717" lon="15.2081633"><ele>387.0</ele><time>2026-04-25T08:35:14.866Z</time></trkpt><trkpt lat="40.6895883" lon="15.208265"><ele>387.0</ele><time>2026-04-25T08:35:15.866Z</time></trkpt><trkpt lat="40.6894983" lon="15.2083783"><ele>387.0</ele><time>2026-04-25T08:35:16.867Z</time></trkpt><trkpt lat="40.6894017" lon="15.2084917"><ele>387.0</ele><time>2026-04-25T08:35:17.866Z</time></trkpt><trkpt lat="40.6893083" lon="15.2085967"><ele>387.0</ele><time>2026-04-25T08:35:18.866Z</time></trkpt><trkpt lat="40.6892167" lon="15.20869"><ele>388.25</ele><time>2026-04-25T08:35:19.866Z</time></trkpt><trkpt lat="40.6891283" lon="15.2087867"><ele>389.5</ele><time>2026-04-25T08:35:20.867Z</time></trkpt><trkpt lat="40.6890433" lon="15.20888"><ele>390.75</ele><time>2026-04-25T08:35:21.867Z</time></trkpt><trkpt lat="40.6889417" lon="15.2089567"><ele>392.0</ele><time>2026-04-25T08:35:22.867Z</time></trkpt><trkpt lat="40.68884" lon="15.2090083"><ele>389.8</ele><time>2026-04-25T08:35:23.867Z</time></trkpt><trkpt lat="40.6887367" lon="15.20905"><ele>387.6</ele><time>2026-04-25T08:35:24.866Z</time></trkpt><trkpt lat="40.6886533" lon="15.2090983"><ele>385.40000000000003</ele><time>2026-04-25T08:35:25.866Z</time></trkpt><trkpt lat="40.68859" lon="15.20916"><ele>383.20000000000005</ele><time>2026-04-25T08:35:26.866Z</time></trkpt><trkpt lat="40.6885333" lon="15.2092517"><ele>381.0</ele><time>2026-04-25T08:35:27.866Z</time></trkpt><trkpt lat="40.6884917" lon="15.20938"><ele>380.25</ele><time>2026-04-25T08:35:28.867Z</time></trkpt><trkpt lat="40.6884567" lon="15.209535"><ele>379.5</ele><time>2026-04-25T08:35:29.867Z</time></trkpt><trkpt lat="40.6884067" lon="15.20968"><ele>378.75</ele><time>2026-04-25T08:35:30.867Z</time></trkpt><trkpt lat="40.6883367" lon="15.2098233"><ele>378.0</ele><time>2026-04-25T08:35:31.867Z</time></trkpt><trkpt lat="40.68826" lon="15.2099617"><ele>375.5</ele><time>2026-04-25T08:35:32.866Z</time></trkpt><trkpt lat="40.688185" lon="15.210105"><ele>373.0</ele><time>2026-04-25T08:35:33.866Z</time></trkpt><trkpt lat="40.688105" lon="15.2102483"><ele>370.5</ele><time>2026-04-25T08:35:34.866Z</time></trkpt><trkpt lat="40.68803" lon="15.2103767"><ele>368.0</ele><time>2026-04-25T08:35:35.866Z</time></trkpt><trkpt lat="40.687975" lon="15.2105017"><ele>368.0</ele><time>2026-04-25T08:35:36.866Z</time></trkpt><trkpt lat="40.6879483" lon="15.210635"><ele>368.0</ele><time>2026-04-25T08:35:37.867Z</time></trkpt><trkpt lat="40.6879367" lon="15.2107633"><ele>368.0</ele><time>2026-04-25T08:35:38.866Z</time></trkpt><trkpt lat="40.68793" lon="15.2108933"><ele>368.0</ele><time>2026-04-25T08:35:39.866Z</time></trkpt><trkpt lat="40.6879233" lon="15.211025"><ele>368.0</ele><time>2026-04-25T08:35:40.866Z</time></trkpt><trkpt lat="40.687915" lon="15.2111467"><ele>366.79999999999995</ele><time>2026-04-25T08:35:41.867Z</time></trkpt><trkpt lat="40.6878933" lon="15.2112733"><ele>365.6</ele><time>2026-04-25T08:35:42.867Z</time></trkpt><trkpt lat="40.6878583" lon="15.211395"><ele>364.4</ele><time>2026-04-25T08:35:43.866Z</time></trkpt><trkpt lat="40.6878117" lon="15.2115067"><ele>363.20000000000005</ele><time>2026-04-25T08:35:44.866Z</time></trkpt><trkpt lat="40.68776" lon="15.2116233"><ele>362.0</ele><time>2026-04-25T08:35:45.866Z</time></trkpt><trkpt lat="40.68771" lon="15.211745"><ele>358.8</ele><time>2026-04-25T08:35:46.867Z</time></trkpt><trkpt lat="40.6876783" lon="15.2118817"><ele>355.6</ele><time>2026-04-25T08:35:47.866Z</time></trkpt><trkpt lat="40.687665" lon="15.2120083"><ele>352.40000000000003</ele><time>2026-04-25T08:35:48.866Z</time></trkpt><trkpt lat="40.6876483" lon="15.212125"><ele>349.20000000000005</ele><time>2026-04-25T08:35:49.867Z</time></trkpt><trkpt lat="40.6876233" lon="15.212235"><ele>346.0</ele><time>2026-04-25T08:35:50.866Z</time></trkpt><trkpt lat="40.6875867" lon="15.2123233"><ele>345.5</ele><time>2026-04-25T08:35:51.866Z</time></trkpt><trkpt lat="40.6875167" lon="15.212395"><ele>345.0</ele><time>2026-04-25T08:35:52.866Z</time></trkpt><trkpt lat="40.6874617" lon="15.21245"><ele>344.5</ele><time>2026-04-25T08:35:53.867Z</time></trkpt><trkpt lat="40.6874083" lon="15.2124983"><ele>344.0</ele><time>2026-04-25T08:35:55.866Z</time></trkpt><trkpt lat="40.687365" lon="15.2125933"><ele>343.5</ele><time>2026-04-25T08:35:57.867Z</time></trkpt><trkpt lat="40.6873183" lon="15.2126883"><ele>343.0</ele><time>2026-04-25T08:35:58.866Z</time></trkpt><trkpt lat="40.6872717" lon="15.2128183"><ele>343.0</ele><time>2026-04-25T08:35:59.866Z</time></trkpt><trkpt lat="40.6872133" lon="15.2129633"><ele>343.0</ele><time>2026-04-25T08:36:00.866Z</time></trkpt><trkpt lat="40.6871433" lon="15.2131167"><ele>343.0</ele><time>2026-04-25T08:36:01.866Z</time></trkpt><trkpt lat="40.6870517" lon="15.2132667"><ele>343.0</ele><time>2026-04-25T08:36:02.866Z</time></trkpt><trkpt lat="40.6869383" lon="15.2133883"><ele>342.75</ele><time>2026-04-25T08:36:03.866Z</time></trkpt><trkpt lat="40.6868017" lon="15.2134933"><ele>342.5</ele><time>2026-04-25T08:36:04.866Z</time></trkpt><trkpt lat="40.6866767" lon="15.213585"><ele>342.25</ele><time>2026-04-25T08:36:05.866Z</time></trkpt><trkpt lat="40.6865733" lon="15.2136783"><ele>342.0</ele><time>2026-04-25T08:36:06.866Z</time></trkpt><trkpt lat="40.6865" lon="15.2137867"><ele>342.0</ele><time>2026-04-25T08:36:07.867Z</time></trkpt><trkpt lat="40.6864583" lon="15.213915"><ele>342.0</ele><time>2026-04-25T08:36:08.866Z</time></trkpt><trkpt lat="40.6864483" lon="15.2140683"><ele>342.0</ele><time>2026-04-25T08:36:09.866Z</time></trkpt><trkpt lat="40.6864567" lon="15.2142567"><ele>342.0</ele><time>2026-04-25T08:36:10.867Z</time></trkpt><trkpt lat="40.6864683" lon="15.2144567"><ele>342.6666666666667</ele><time>2026-04-25T08:36:11.867Z</time></trkpt><trkpt lat="40.6864867" lon="15.2146633"><ele>343.33333333333337</ele><time>2026-04-25T08:36:12.866Z</time></trkpt><trkpt lat="40.686505" lon="15.2148717"><ele>344.0</ele><time>2026-04-25T08:36:13.866Z</time></trkpt><trkpt lat="40.6865183" lon="15.2150783"><ele>344.33333333333337</ele><time>2026-04-25T08:36:14.866Z</time></trkpt><trkpt lat="40.6865167" lon="15.2152917"><ele>344.6666666666667</ele><time>2026-04-25T08:36:15.867Z</time></trkpt><trkpt lat="40.686485" lon="15.2154983"><ele>345.0</ele><time>2026-04-25T08:36:16.866Z</time></trkpt><trkpt lat="40.6864383" lon="15.2157017"><ele>345.0</ele><time>2026-04-25T08:36:17.867Z</time></trkpt><trkpt lat="40.6863933" lon="15.2159167"><ele>345.0</ele><time>2026-04-25T08:36:18.866Z</time></trkpt><trkpt lat="40.6863483" lon="15.2161467"><ele>345.0</ele><time>2026-04-25T08:36:19.867Z</time></trkpt><trkpt lat="40.6863117" lon="15.2163917"><ele>345.6666666666667</ele><time>2026-04-25T08:36:20.867Z</time></trkpt><trkpt lat="40.686275" lon="15.216645"><ele>346.33333333333337</ele><time>2026-04-25T08:36:21.867Z</time></trkpt><trkpt lat="40.6862567" lon="15.216885"><ele>347.0</ele><time>2026-04-25T08:36:22.867Z</time></trkpt><trkpt lat="40.68625" lon="15.2171133"><ele>347.6666666666667</ele><time>2026-04-25T08:36:23.867Z</time></trkpt><trkpt lat="40.6862517" lon="15.217325"><ele>348.3333333333333</ele><time>2026-04-25T08:36:24.867Z</time></trkpt><trkpt lat="40.6862517" lon="15.2175367"><ele>349.0</ele><time>2026-04-25T08:36:25.866Z</time></trkpt><trkpt lat="40.6862583" lon="15.217755"><ele>349.0</ele><time>2026-04-25T08:36:26.866Z</time></trkpt><trkpt lat="40.68628" lon="15.2179767"><ele>349.0</ele><time>2026-04-25T08:36:27.866Z</time></trkpt><trkpt lat="40.68632" lon="15.2182017"><ele>349.0</ele><time>2026-04-25T08:36:28.867Z</time></trkpt><trkpt lat="40.6863617" lon="15.2184217"><ele>347.66666666666663</ele><time>2026-04-25T08:36:29.866Z</time></trkpt><trkpt lat="40.6863967" lon="15.2186367"><ele>346.3333333333333</ele><time>2026-04-25T08:36:30.867Z</time></trkpt><trkpt lat="40.6864217" lon="15.218845"><ele>345.0</ele><time>2026-04-25T08:36:31.866Z</time></trkpt><trkpt lat="40.6864183" lon="15.219055"><ele>344.6666666666667</ele><time>2026-04-25T08:36:32.866Z</time></trkpt><trkpt lat="40.6863833" lon="15.2192717"><ele>344.33333333333337</ele><time>2026-04-25T08:36:33.867Z</time></trkpt><trkpt lat="40.6863183" lon="15.21949"><ele>344.0</ele><time>2026-04-25T08:36:34.867Z</time></trkpt><trkpt lat="40.68623" lon="15.219695"><ele>344.6666666666667</ele><time>2026-04-25T08:36:35.866Z</time></trkpt><trkpt lat="40.68615" lon="15.2198883"><ele>345.3333333333333</ele><time>2026-04-25T08:36:36.866Z</time></trkpt><trkpt lat="40.6861017" lon="15.220075"><ele>346.0</ele><time>2026-04-25T08:36:37.867Z</time></trkpt><trkpt lat="40.6860817" lon="15.220265"><ele>346.0</ele><time>2026-04-25T08:36:38.866Z</time></trkpt><trkpt lat="40.6860917" lon="15.2204617"><ele>346.0</ele><time>2026-04-25T08:36:39.866Z</time></trkpt><trkpt lat="40.6861283" lon="15.2206633"><ele>346.0</ele><time>2026-04-25T08:36:40.866Z</time></trkpt><trkpt lat="40.68617" lon="15.2208717"><ele>348.66666666666663</ele><time>2026-04-25T08:36:41.866Z</time></trkpt><trkpt lat="40.6862083" lon="15.2210817"><ele>351.3333333333333</ele><time>2026-04-25T08:36:42.866Z</time></trkpt><trkpt lat="40.68624" lon="15.2212833"><ele>354.0</ele><time>2026-04-25T08:36:43.867Z</time></trkpt><trkpt lat="40.6862717" lon="15.2214717"><ele>355.25</ele><time>2026-04-25T08:36:44.866Z</time></trkpt><trkpt lat="40.6862917" lon="15.22164"><ele>356.5</ele><time>2026-04-25T08:36:45.866Z</time></trkpt><trkpt lat="40.6863067" lon="15.2217933"><ele>357.75</ele><time>2026-04-25T08:36:46.867Z</time></trkpt><trkpt lat="40.6863067" lon="15.2219433"><ele>359.0</ele><time>2026-04-25T08:36:47.866Z</time></trkpt><trkpt lat="40.68629" lon="15.2220983"><ele>359.0</ele><time>2026-04-25T08:36:48.867Z</time></trkpt><trkpt lat="40.6862683" lon="15.222255"><ele>359.0</ele><time>2026-04-25T08:36:49.866Z</time></trkpt><trkpt lat="40.6862417" lon="15.2224133"><ele>359.0</ele><time>2026-04-25T08:36:50.866Z</time></trkpt><trkpt lat="40.6862067" lon="15.2225767"><ele>359.0</ele><time>2026-04-25T08:36:51.867Z</time></trkpt><trkpt lat="40.6861683" lon="15.2227483"><ele>359.5</ele><time>2026-04-25T08:36:52.867Z</time></trkpt><trkpt lat="40.68615" lon="15.222935"><ele>360.0</ele><time>2026-04-25T08:36:53.866Z</time></trkpt><trkpt lat="40.6861533" lon="15.2231283"><ele>360.5</ele><time>2026-04-25T08:36:54.866Z</time></trkpt><trkpt lat="40.686185" lon="15.2233217"><ele>361.0</ele><time>2026-04-25T08:36:55.867Z</time></trkpt><trkpt lat="40.6862417" lon="15.2234967"><ele>362.25</ele><time>2026-04-25T08:36:56.866Z</time></trkpt><trkpt lat="40.686315" lon="15.2236517"><ele>363.5</ele><time>2026-04-25T08:36:57.867Z</time></trkpt><trkpt lat="40.686385" lon="15.2238167"><ele>364.75</ele><time>2026-04-25T08:36:58.866Z</time></trkpt><trkpt lat="40.6864317" lon="15.224005"><ele>366.0</ele><time>2026-04-25T08:36:59.867Z</time></trkpt><trkpt lat="40.6864633" lon="15.224215"><ele>368.6666666666667</ele><time>2026-04-25T08:37:00.867Z</time></trkpt><trkpt lat="40.6864817" lon="15.2244383"><ele>371.33333333333337</ele><time>2026-04-25T08:37:01.867Z</time></trkpt><trkpt lat="40.6865117" lon="15.224655"><ele>374.0</ele><time>2026-04-25T08:37:02.867Z</time></trkpt><trkpt lat="40.6865583" lon="15.2248517"><ele>375.5</ele><time>2026-04-25T08:37:03.867Z</time></trkpt><trkpt lat="40.68663" lon="15.22502"><ele>377.0</ele><time>2026-04-25T08:37:04.867Z</time></trkpt><trkpt lat="40.6867183" lon="15.2251667"><ele>378.5</ele><time>2026-04-25T08:37:05.866Z</time></trkpt><trkpt lat="40.6868133" lon="15.225295"><ele>380.0</ele><time>2026-04-25T08:37:06.867Z</time></trkpt><trkpt lat="40.6868867" lon="15.2254267"><ele>378.75</ele><time>2026-04-25T08:37:07.867Z</time></trkpt><trkpt lat="40.6869517" lon="15.2255717"><ele>377.5</ele><time>2026-04-25T08:37:08.867Z</time></trkpt><trkpt lat="40.6869967" lon="15.2257417"><ele>376.25</ele><time>2026-04-25T08:37:09.867Z</time></trkpt><trkpt lat="40.6870383" lon="15.225935"><ele>375.0</ele><time>2026-04-25T08:37:10.867Z</time></trkpt><trkpt lat="40.6870867" lon="15.2261317"><ele>375.0</ele><time>2026-04-25T08:37:11.866Z</time></trkpt><trkpt lat="40.6871383" lon="15.22632"><ele>375.0</ele><time>2026-04-25T08:37:12.867Z</time></trkpt><trkpt lat="40.68719" lon="15.22649"><ele>375.0</ele><time>2026-04-25T08:37:13.867Z</time></trkpt><trkpt lat="40.687255" lon="15.2266367"><ele>375.0</ele><time>2026-04-25T08:37:14.867Z</time></trkpt><trkpt lat="40.6873283" lon="15.2267567"><ele>376.2</ele><time>2026-04-25T08:37:15.866Z</time></trkpt><trkpt lat="40.68739" lon="15.2268567"><ele>377.4</ele><time>2026-04-25T08:37:16.867Z</time></trkpt><trkpt lat="40.6874583" lon="15.2269583"><ele>378.6</ele><time>2026-04-25T08:37:18.867Z</time></trkpt><trkpt lat="40.6874483" lon="15.2270517"><ele>379.8</ele><time>2026-04-25T08:37:21.866Z</time></trkpt><trkpt lat="40.687345" lon="15.2271183"><ele>381.0</ele><time>2026-04-25T08:37:23.867Z</time></trkpt><trkpt lat="40.687275" lon="15.22713"><ele>381.0</ele><time>2026-04-25T08:37:24.866Z</time></trkpt><trkpt lat="40.6872" lon="15.2271317"><ele>381.0</ele><time>2026-04-25T08:37:25.866Z</time></trkpt><trkpt lat="40.6871283" lon="15.227135"><ele>381.0</ele><time>2026-04-25T08:37:26.866Z</time></trkpt><trkpt lat="40.687055" lon="15.2271433"><ele>381.0</ele><time>2026-04-25T08:37:27.867Z</time></trkpt><trkpt lat="40.6869767" lon="15.2271383"><ele>381.0</ele><time>2026-04-25T08:37:28.866Z</time></trkpt><trkpt lat="40.6868933" lon="15.2271217"><ele>381.0</ele><time>2026-04-25T08:37:29.867Z</time></trkpt><trkpt lat="40.6868067" lon="15.2271017"><ele>383.20000000000005</ele><time>2026-04-25T08:37:30.866Z</time></trkpt><trkpt lat="40.6867133" lon="15.2270733"><ele>385.40000000000003</ele><time>2026-04-25T08:37:31.867Z</time></trkpt><trkpt lat="40.6866017" lon="15.2270333"><ele>387.6</ele><time>2026-04-25T08:37:32.867Z</time></trkpt><trkpt lat="40.6864917" lon="15.2269933"><ele>389.8</ele><time>2026-04-25T08:37:33.866Z</time></trkpt><trkpt lat="40.6863783" lon="15.226945"><ele>392.0</ele><time>2026-04-25T08:37:34.866Z</time></trkpt><trkpt lat="40.6862667" lon="15.2269067"><ele>391.99999999999994</ele><time>2026-04-25T08:37:35.867Z</time></trkpt><trkpt lat="40.68616" lon="15.226875"><ele>392.0</ele><time>2026-04-25T08:37:36.867Z</time></trkpt><trkpt lat="40.68607" lon="15.2268383"><ele>392.0</ele><time>2026-04-25T08:37:37.866Z</time></trkpt><trkpt lat="40.6859933" lon="15.226805"><ele>392.0</ele><time>2026-04-25T08:37:38.866Z</time></trkpt><trkpt lat="40.685925" lon="15.2267767"><ele>391.99999999999994</ele><time>2026-04-25T08:37:39.866Z</time></trkpt><trkpt lat="40.6858583" lon="15.2267717"><ele>392.0</ele><time>2026-04-25T08:37:40.867Z</time></trkpt><trkpt lat="40.6857867" lon="15.22681"><ele>394.20000000000005</ele><time>2026-04-25T08:37:41.867Z</time></trkpt><trkpt lat="40.6857117" lon="15.2268767"><ele>396.4</ele><time>2026-04-25T08:37:42.867Z</time></trkpt><trkpt lat="40.6856283" lon="15.2269533"><ele>398.6</ele><time>2026-04-25T08:37:43.866Z</time></trkpt><trkpt lat="40.685535" lon="15.2270333"><ele>400.79999999999995</ele><time>2026-04-25T08:37:44.866Z</time></trkpt><trkpt lat="40.685425" lon="15.227105"><ele>403.0</ele><time>2026-04-25T08:37:45.867Z</time></trkpt><trkpt lat="40.685315" lon="15.22719"><ele>402.75</ele><time>2026-04-25T08:37:46.867Z</time></trkpt><trkpt lat="40.68521" lon="15.2272967"><ele>402.5</ele><time>2026-04-25T08:37:47.866Z</time></trkpt><trkpt lat="40.68511" lon="15.2274183"><ele>402.25</ele><time>2026-04-25T08:37:48.867Z</time></trkpt><trkpt lat="40.685015" lon="15.2275567"><ele>402.0</ele><time>2026-04-25T08:37:49.866Z</time></trkpt><trkpt lat="40.6849167" lon="15.2277017"><ele>402.33333333333337</ele><time>2026-04-25T08:37:50.867Z</time></trkpt><trkpt lat="40.6848333" lon="15.2278667"><ele>402.6666666666667</ele><time>2026-04-25T08:37:51.867Z</time></trkpt><trkpt lat="40.684745" lon="15.228035"><ele>403.0</ele><time>2026-04-25T08:37:52.866Z</time></trkpt><trkpt lat="40.6846533" lon="15.2282067"><ele>403.0</ele><time>2026-04-25T08:37:53.866Z</time></trkpt><trkpt lat="40.684575" lon="15.2283817"><ele>403.0</ele><time>2026-04-25T08:37:54.867Z</time></trkpt><trkpt lat="40.6845083" lon="15.2285517"><ele>403.0</ele><time>2026-04-25T08:37:55.867Z</time></trkpt><trkpt lat="40.6844517" lon="15.2287217"><ele>403.0</ele><time>2026-04-25T08:37:56.866Z</time></trkpt><trkpt lat="40.6844117" lon="15.2289017"><ele>405.25</ele><time>2026-04-25T08:37:57.866Z</time></trkpt><trkpt lat="40.68438" lon="15.2290817"><ele>407.5</ele><time>2026-04-25T08:37:58.867Z</time></trkpt><trkpt lat="40.68435" lon="15.2292483"><ele>409.75</ele><time>2026-04-25T08:37:59.866Z</time></trkpt><trkpt lat="40.6843217" lon="15.2294067"><ele>412.0</ele><time>2026-04-25T08:38:00.866Z</time></trkpt><trkpt lat="40.684295" lon="15.2295617"><ele>412.0</ele><time>2026-04-25T08:38:01.867Z</time></trkpt><trkpt lat="40.6842817" lon="15.2297133"><ele>412.0</ele><time>2026-04-25T08:38:02.866Z</time></trkpt><trkpt lat="40.6842817" lon="15.22986"><ele>412.0</ele><time>2026-04-25T08:38:03.866Z</time></trkpt><trkpt lat="40.6842667" lon="15.2300033"><ele>412.0</ele><time>2026-04-25T08:38:04.867Z</time></trkpt><trkpt lat="40.6842317" lon="15.23013"><ele>412.0</ele><time>2026-04-25T08:38:05.867Z</time></trkpt><trkpt lat="40.6841783" lon="15.2302383"><ele>411.6</ele><time>2026-04-25T08:38:06.867Z</time></trkpt><trkpt lat="40.6841183" lon="15.2303317"><ele>411.20000000000005</ele><time>2026-04-25T08:38:07.866Z</time></trkpt><trkpt lat="40.6840467" lon="15.2304033"><ele>410.8</ele><time>2026-04-25T08:38:08.867Z</time></trkpt><trkpt lat="40.6839517" lon="15.2304667"><ele>410.4</ele><time>2026-04-25T08:38:09.866Z</time></trkpt><trkpt lat="40.68387" lon="15.230515"><ele>410.0</ele><time>2026-04-25T08:38:10.866Z</time></trkpt><trkpt lat="40.683785" lon="15.23058"><ele>408.75</ele><time>2026-04-25T08:38:11.866Z</time></trkpt><trkpt lat="40.683695" lon="15.23065"><ele>407.5</ele><time>2026-04-25T08:38:12.866Z</time></trkpt><trkpt lat="40.6836033" lon="15.2307333"><ele>406.25</ele><time>2026-04-25T08:38:13.867Z</time></trkpt><trkpt lat="40.6834983" lon="15.2308117"><ele>405.0</ele><time>2026-04-25T08:38:14.866Z</time></trkpt><trkpt lat="40.6833933" lon="15.2308917"><ele>403.6666666666667</ele><time>2026-04-25T08:38:15.866Z</time></trkpt><trkpt lat="40.6833017" lon="15.230985"><ele>402.33333333333337</ele><time>2026-04-25T08:38:16.865Z</time></trkpt><trkpt lat="40.6832217" lon="15.23107"><ele>401.0</ele><time>2026-04-25T08:38:17.865Z</time></trkpt><trkpt lat="40.6831583" lon="15.231145"><ele>399.6666666666667</ele><time>2026-04-25T08:38:18.865Z</time></trkpt><trkpt lat="40.6831" lon="15.2312067"><ele>398.33333333333337</ele><time>2026-04-25T08:38:19.866Z</time></trkpt><trkpt lat="40.6830467" lon="15.2312533"><ele>397.0</ele><time>2026-04-25T08:38:20.866Z</time></trkpt><trkpt lat="40.6829567" lon="15.2312733"><ele>397.0</ele><time>2026-04-25T08:38:22.866Z</time></trkpt><trkpt lat="40.6828833" lon="15.2312417"><ele>397.0</ele><time>2026-04-25T08:38:23.865Z</time></trkpt><trkpt lat="40.6827883" lon="15.2311917"><ele>397.0</ele><time>2026-04-25T08:38:24.865Z</time></trkpt><trkpt lat="40.68268" lon="15.2311533"><ele>397.0</ele><time>2026-04-25T08:38:25.865Z</time></trkpt><trkpt lat="40.682565" lon="15.2311233"><ele>397.0</ele><time>2026-04-25T08:38:26.865Z</time></trkpt><trkpt lat="40.682435" lon="15.2311067"><ele>393.75</ele><time>2026-04-25T08:38:27.865Z</time></trkpt><trkpt lat="40.6823017" lon="15.2310933"><ele>390.5</ele><time>2026-04-25T08:38:28.866Z</time></trkpt><trkpt lat="40.6821667" lon="15.2310883"><ele>387.25</ele><time>2026-04-25T08:38:29.866Z</time></trkpt><trkpt lat="40.6820333" lon="15.2311017"><ele>384.0</ele><time>2026-04-25T08:38:30.865Z</time></trkpt><trkpt lat="40.6818967" lon="15.2311333"><ele>380.75</ele><time>2026-04-25T08:38:31.865Z</time></trkpt><trkpt lat="40.68176" lon="15.2311717"><ele>377.5</ele><time>2026-04-25T08:38:32.865Z</time></trkpt><trkpt lat="40.6816283" lon="15.23123"><ele>374.25</ele><time>2026-04-25T08:38:33.866Z</time></trkpt><trkpt lat="40.6815" lon="15.2313"><ele>371.0</ele><time>2026-04-25T08:38:34.866Z</time></trkpt><trkpt lat="40.6813883" lon="15.23137"><ele>371.0</ele><time>2026-04-25T08:38:35.866Z</time></trkpt><trkpt lat="40.6813033" lon="15.2314283"><ele>371.0</ele><time>2026-04-25T08:38:36.865Z</time></trkpt><trkpt lat="40.68124" lon="15.23147"><ele>371.0</ele><time>2026-04-25T08:38:37.866Z</time></trkpt><trkpt lat="40.6811467" lon="15.2315317"><ele>371.0</ele><time>2026-04-25T08:38:39.866Z</time></trkpt><trkpt lat="40.6810733" lon="15.2316017"><ele>371.0</ele><time>2026-04-25T08:38:41.865Z</time></trkpt><trkpt lat="40.6810017" lon="15.23165"><ele>371.0</ele><time>2026-04-25T08:38:44.866Z</time></trkpt><trkpt lat="40.68094" lon="15.2316717"><ele>368.5</ele><time>2026-04-25T08:38:56.866Z</time></trkpt><trkpt lat="40.6808533" lon="15.2317167"><ele>366.0</ele><time>2026-04-25T08:38:58.866Z</time></trkpt><trkpt lat="40.6807917" lon="15.231735"><ele>363.5</ele><time>2026-04-25T08:38:59.866Z</time></trkpt><trkpt lat="40.6807183" lon="15.23177"><ele>361.0</ele><time>2026-04-25T08:39:00.866Z</time></trkpt><trkpt lat="40.6806367" lon="15.2318233"><ele>358.5</ele><time>2026-04-25T08:39:01.866Z</time></trkpt><trkpt lat="40.680545" lon="15.2318967"><ele>356.0</ele><time>2026-04-25T08:39:02.865Z</time></trkpt><trkpt lat="40.6804517" lon="15.2319883"><ele>356.0</ele><time>2026-04-25T08:39:03.866Z</time></trkpt><trkpt lat="40.6803567" lon="15.2320833"><ele>356.0</ele><time>2026-04-25T08:39:04.865Z</time></trkpt><trkpt lat="40.6802517" lon="15.2321833"><ele>356.0</ele><time>2026-04-25T08:39:05.865Z</time></trkpt><trkpt lat="40.6801433" lon="15.2322917"><ele>356.0</ele><time>2026-04-25T08:39:06.866Z</time></trkpt><trkpt lat="40.6800467" lon="15.2324133"><ele>350.75</ele><time>2026-04-25T08:39:07.866Z</time></trkpt><trkpt lat="40.6799517" lon="15.2325367"><ele>345.5</ele><time>2026-04-25T08:39:08.866Z</time></trkpt><trkpt lat="40.679865" lon="15.2326417"><ele>340.25</ele><time>2026-04-25T08:39:09.866Z</time></trkpt><trkpt lat="40.67979" lon="15.2327367"><ele>335.0</ele><time>2026-04-25T08:39:10.865Z</time></trkpt><trkpt lat="40.6797283" lon="15.2328333"><ele>335.0</ele><time>2026-04-25T08:39:11.865Z</time></trkpt><trkpt lat="40.6796767" lon="15.2329483"><ele>335.0</ele><time>2026-04-25T08:39:12.866Z</time></trkpt><trkpt lat="40.6796283" lon="15.2330783"><ele>335.0</ele><time>2026-04-25T08:39:13.866Z</time></trkpt><trkpt lat="40.6795817" lon="15.2332117"><ele>335.0</ele><time>2026-04-25T08:39:14.866Z</time></trkpt><trkpt lat="40.6795333" lon="15.2333483"><ele>335.0</ele><time>2026-04-25T08:39:15.866Z</time></trkpt><trkpt lat="40.6794883" lon="15.2334933"><ele>332.25</ele><time>2026-04-25T08:39:16.865Z</time></trkpt><trkpt lat="40.6794433" lon="15.2336417"><ele>329.5</ele><time>2026-04-25T08:39:17.866Z</time></trkpt><trkpt lat="40.6793933" lon="15.23379"><ele>326.75</ele><time>2026-04-25T08:39:18.866Z</time></trkpt><trkpt lat="40.679345" lon="15.233935"><ele>324.0</ele><time>2026-04-25T08:39:19.866Z</time></trkpt><trkpt lat="40.6793017" lon="15.2340767"><ele>319.5</ele><time>2026-04-25T08:39:20.866Z</time></trkpt><trkpt lat="40.679255" lon="15.2342167"><ele>315.0</ele><time>2026-04-25T08:39:21.865Z</time></trkpt><trkpt lat="40.6791967" lon="15.234355"><ele>310.5</ele><time>2026-04-25T08:39:22.866Z</time></trkpt><trkpt lat="40.679125" lon="15.2345"><ele>306.0</ele><time>2026-04-25T08:39:23.865Z</time></trkpt><trkpt lat="40.6790583" lon="15.2346467"><ele>306.0</ele><time>2026-04-25T08:39:24.865Z</time></trkpt><trkpt lat="40.679" lon="15.2347967"><ele>306.0</ele><time>2026-04-25T08:39:25.866Z</time></trkpt><trkpt lat="40.678945" lon="15.2349383"><ele>306.0</ele><time>2026-04-25T08:39:26.866Z</time></trkpt><trkpt lat="40.6788967" lon="15.2350767"><ele>306.0</ele><time>2026-04-25T08:39:27.865Z</time></trkpt><trkpt lat="40.6788433" lon="15.2352067"><ele>304.40000000000003</ele><time>2026-04-25T08:39:28.865Z</time></trkpt><trkpt lat="40.6787633" lon="15.2353233"><ele>302.8</ele><time>2026-04-25T08:39:29.865Z</time></trkpt><trkpt lat="40.6786767" lon="15.235425"><ele>301.20000000000005</ele><time>2026-04-25T08:39:30.866Z</time></trkpt><trkpt lat="40.678595" lon="15.2355183"><ele>299.6</ele><time>2026-04-25T08:39:31.866Z</time></trkpt><trkpt lat="40.678525" lon="15.2355967"><ele>298.0</ele><time>2026-04-25T08:39:32.865Z</time></trkpt><trkpt lat="40.6784467" lon="15.2356533"><ele>297.8</ele><time>2026-04-25T08:39:33.865Z</time></trkpt><trkpt lat="40.6783583" lon="15.2356717"><ele>297.6</ele><time>2026-04-25T08:39:34.865Z</time></trkpt><trkpt lat="40.6782583" lon="15.23565"><ele>297.4</ele><time>2026-04-25T08:39:35.866Z</time></trkpt><trkpt lat="40.6781533" lon="15.2356233"><ele>297.2</ele><time>2026-04-25T08:39:36.866Z</time></trkpt><trkpt lat="40.678035" lon="15.2356183"><ele>297.0</ele><time>2026-04-25T08:39:37.865Z</time></trkpt><trkpt lat="40.677905" lon="15.2356433"><ele>295.25</ele><time>2026-04-25T08:39:38.866Z</time></trkpt><trkpt lat="40.6777767" lon="15.2356833"><ele>293.5</ele><time>2026-04-25T08:39:39.865Z</time></trkpt><trkpt lat="40.67767" lon="15.2357233"><ele>291.75</ele><time>2026-04-25T08:39:40.866Z</time></trkpt><trkpt lat="40.6775767" lon="15.2357767"><ele>290.0</ele><time>2026-04-25T08:39:41.866Z</time></trkpt><trkpt lat="40.6774867" lon="15.2358583"><ele>286.5</ele><time>2026-04-25T08:39:42.866Z</time></trkpt><trkpt lat="40.6773917" lon="15.2359517"><ele>283.0</ele><time>2026-04-25T08:39:43.865Z</time></trkpt><trkpt lat="40.6772817" lon="15.2360283"><ele>279.5</ele><time>2026-04-25T08:39:44.866Z</time></trkpt><trkpt lat="40.6771583" lon="15.2360633"><ele>276.0</ele><time>2026-04-25T08:39:45.865Z</time></trkpt><trkpt lat="40.677035" lon="15.2360717"><ele>272.75</ele><time>2026-04-25T08:39:46.866Z</time></trkpt><trkpt lat="40.6769083" lon="15.2360567"><ele>269.5</ele><time>2026-04-25T08:39:47.866Z</time></trkpt><trkpt lat="40.6767883" lon="15.2360267"><ele>266.25</ele><time>2026-04-25T08:39:48.866Z</time></trkpt><trkpt lat="40.6766717" lon="15.2359983"><ele>263.0</ele><time>2026-04-25T08:39:49.865Z</time></trkpt><trkpt lat="40.6765783" lon="15.2359733"><ele>263.0</ele><time>2026-04-25T08:39:50.865Z</time></trkpt><trkpt lat="40.676485" lon="15.23596"><ele>263.0</ele><time>2026-04-25T08:39:51.865Z</time></trkpt><trkpt lat="40.676395" lon="15.2359533"><ele>263.0</ele><time>2026-04-25T08:39:52.865Z</time></trkpt><trkpt lat="40.6763033" lon="15.235945"><ele>263.0</ele><time>2026-04-25T08:39:53.865Z</time></trkpt><trkpt lat="40.6762117" lon="15.2359217"><ele>263.0</ele><time>2026-04-25T08:39:54.865Z</time></trkpt><trkpt lat="40.676115" lon="15.235895"><ele>260.8</ele><time>2026-04-25T08:39:55.866Z</time></trkpt><trkpt lat="40.6760233" lon="15.2358633"><ele>258.6</ele><time>2026-04-25T08:39:56.865Z</time></trkpt><trkpt lat="40.6759333" lon="15.235835"><ele>256.4</ele><time>2026-04-25T08:39:57.865Z</time></trkpt><trkpt lat="40.67584" lon="15.2358183"><ele>254.2</ele><time>2026-04-25T08:39:58.865Z</time></trkpt><trkpt lat="40.6757467" lon="15.23581"><ele>252.0</ele><time>2026-04-25T08:39:59.865Z</time></trkpt><trkpt lat="40.6756617" lon="15.2358167"><ele>252.0</ele><time>2026-04-25T08:40:00.866Z</time></trkpt><trkpt lat="40.67558" lon="15.2358367"><ele>252.0</ele><time>2026-04-25T08:40:01.866Z</time></trkpt><trkpt lat="40.6754983" lon="15.23587"><ele>252.0</ele><time>2026-04-25T08:40:02.866Z</time></trkpt><trkpt lat="40.6754267" lon="15.2359033"><ele>252.0</ele><time>2026-04-25T08:40:03.866Z</time></trkpt><trkpt lat="40.675365" lon="15.2359333"><ele>252.0</ele><time>2026-04-25T08:40:04.866Z</time></trkpt><trkpt lat="40.6752433" lon="15.2359917"><ele>252.0</ele><time>2026-04-25T08:40:06.866Z</time></trkpt><trkpt lat="40.6751267" lon="15.2360317"><ele>249.39999999999998</ele><time>2026-04-25T08:40:08.866Z</time></trkpt><trkpt lat="40.6750167" lon="15.236075"><ele>246.79999999999998</ele><time>2026-04-25T08:40:10.865Z</time></trkpt><trkpt lat="40.6749067" lon="15.2361167"><ele>244.2</ele><time>2026-04-25T08:40:12.865Z</time></trkpt><trkpt lat="40.6748033" lon="15.2361467"><ele>241.6</ele><time>2026-04-25T08:40:14.865Z</time></trkpt><trkpt lat="40.67472" lon="15.236185"><ele>239.0</ele><time>2026-04-25T08:40:16.866Z</time></trkpt><trkpt lat="40.6746367" lon="15.2362183"><ele>239.0</ele><time>2026-04-25T08:40:18.866Z</time></trkpt><trkpt lat="40.6745483" lon="15.2362833"><ele>238.99999999999997</ele><time>2026-04-25T08:40:20.866Z</time></trkpt><trkpt lat="40.674495" lon="15.2363417"><ele>238.99999999999997</ele><time>2026-04-25T08:40:21.865Z</time></trkpt><trkpt lat="40.6744267" lon="15.2364183"><ele>239.0</ele><time>2026-04-25T08:40:22.866Z</time></trkpt><trkpt lat="40.6743483" lon="15.2365183"><ele>239.0</ele><time>2026-04-25T08:40:23.866Z</time></trkpt><trkpt lat="40.6742633" lon="15.2366283"><ele>235.25</ele><time>2026-04-25T08:40:24.866Z</time></trkpt><trkpt lat="40.6741833" lon="15.236755"><ele>231.5</ele><time>2026-04-25T08:40:25.865Z</time></trkpt><trkpt lat="40.6741017" lon="15.2368933"><ele>227.75</ele><time>2026-04-25T08:40:26.866Z</time></trkpt><trkpt lat="40.6740232" lon="15.2370406"><ele>224.0</ele><time>2026-04-25T08:40:27.866Z</time></trkpt><trkpt lat="40.6739482" lon="15.2371902"><ele>223.5</ele><time>2026-04-25T08:40:28.866Z</time></trkpt><trkpt lat="40.6738747" lon="15.2373262"><ele>223.0</ele><time>2026-04-25T08:40:29.866Z</time></trkpt><trkpt lat="40.673793" lon="15.237442"><ele>222.5</ele><time>2026-04-25T08:40:30.865Z</time></trkpt><trkpt lat="40.6736987" lon="15.2375512"><ele>222.0</ele><time>2026-04-25T08:40:31.866Z</time></trkpt><trkpt lat="40.6736015" lon="15.2376637"><ele>220.0</ele><time>2026-04-25T08:40:32.865Z</time></trkpt><trkpt lat="40.6735121" lon="15.2377934"><ele>218.0</ele><time>2026-04-25T08:40:33.865Z</time></trkpt><trkpt lat="40.6734365" lon="15.2379344"><ele>216.0</ele><time>2026-04-25T08:40:34.866Z</time></trkpt><trkpt lat="40.6733694" lon="15.2380683"><ele>214.0</ele><time>2026-04-25T08:40:35.865Z</time></trkpt><trkpt lat="40.6733023" lon="15.2381986"><ele>213.0</ele><time>2026-04-25T08:40:36.866Z</time></trkpt><trkpt lat="40.6732361" lon="15.2383242"><ele>212.0</ele><time>2026-04-25T08:40:37.866Z</time></trkpt><trkpt lat="40.6731659" lon="15.2384402"><ele>211.0</ele><time>2026-04-25T08:40:38.866Z</time></trkpt><trkpt lat="40.6730923" lon="15.238552"><ele>210.0</ele><time>2026-04-25T08:40:39.865Z</time></trkpt><trkpt lat="40.673022" lon="15.2386642"><ele>210.0</ele><time>2026-04-25T08:40:40.866Z</time></trkpt><trkpt lat="40.6729601" lon="15.2387761"><ele>210.0</ele><time>2026-04-25T08:40:41.865Z</time></trkpt><trkpt lat="40.6729069" lon="15.2388877"><ele>210.0</ele><time>2026-04-25T08:40:42.866Z</time></trkpt><trkpt lat="40.6728731" lon="15.2389958"><ele>210.0</ele><time>2026-04-25T08:40:43.865Z</time></trkpt><trkpt lat="40.6728374" lon="15.239091"><ele>210.0</ele><time>2026-04-25T08:40:44.865Z</time></trkpt><trkpt lat="40.6727781" lon="15.2391607"><ele>207.2</ele><time>2026-04-25T08:40:45.865Z</time></trkpt><trkpt lat="40.6727016" lon="15.2392095"><ele>204.4</ele><time>2026-04-25T08:40:46.866Z</time></trkpt><trkpt lat="40.672618" lon="15.239256"><ele>201.60000000000002</ele><time>2026-04-25T08:40:47.865Z</time></trkpt><trkpt lat="40.6725325" lon="15.2393078"><ele>198.8</ele><time>2026-04-25T08:40:48.865Z</time></trkpt><trkpt lat="40.6724418" lon="15.2393623"><ele>196.0</ele><time>2026-04-25T08:40:49.866Z</time></trkpt><trkpt lat="40.6723547" lon="15.2394175"><ele>196.0</ele><time>2026-04-25T08:40:50.866Z</time></trkpt><trkpt lat="40.672269" lon="15.2394785"><ele>196.0</ele><time>2026-04-25T08:40:51.866Z</time></trkpt><trkpt lat="40.672189" lon="15.2395458"><ele>196.0</ele><time>2026-04-25T08:40:52.865Z</time></trkpt><trkpt lat="40.6721157" lon="15.2396185"><ele>196.0</ele><time>2026-04-25T08:40:53.866Z</time></trkpt><trkpt lat="40.6720441" lon="15.2397052"><ele>196.0</ele><time>2026-04-25T08:40:54.865Z</time></trkpt><trkpt lat="40.6719821" lon="15.2398057"><ele>192.60000000000002</ele><time>2026-04-25T08:40:55.865Z</time></trkpt><trkpt lat="40.6719362" lon="15.2399243"><ele>189.2</ele><time>2026-04-25T08:40:56.865Z</time></trkpt><trkpt lat="40.6719037" lon="15.2400593"><ele>185.8</ele><time>2026-04-25T08:40:57.865Z</time></trkpt><trkpt lat="40.6718754" lon="15.2402089"><ele>182.39999999999998</ele><time>2026-04-25T08:40:58.866Z</time></trkpt><trkpt lat="40.6718468" lon="15.2403667"><ele>179.0</ele><time>2026-04-25T08:40:59.866Z</time></trkpt><trkpt lat="40.6718159" lon="15.2405115"><ele>178.2</ele><time>2026-04-25T08:41:00.865Z</time></trkpt><trkpt lat="40.6717776" lon="15.2406464"><ele>177.39999999999998</ele><time>2026-04-25T08:41:01.865Z</time></trkpt><trkpt lat="40.6717422" lon="15.240776"><ele>176.6</ele><time>2026-04-25T08:41:02.865Z</time></trkpt><trkpt lat="40.671703" lon="15.2409052"><ele>175.8</ele><time>2026-04-25T08:41:03.865Z</time></trkpt><trkpt lat="40.6716604" lon="15.2410307"><ele>175.0</ele><time>2026-04-25T08:41:04.865Z</time></trkpt><trkpt lat="40.6716217" lon="15.2411567"><ele>175.0</ele><time>2026-04-25T08:41:05.866Z</time></trkpt><trkpt lat="40.671589" lon="15.2412752"><ele>175.0</ele><time>2026-04-25T08:41:06.866Z</time></trkpt><trkpt lat="40.6715623" lon="15.241379"><ele>175.0</ele><time>2026-04-25T08:41:07.865Z</time></trkpt><trkpt lat="40.6715555" lon="15.2414855"><ele>175.0</ele><time>2026-04-25T08:41:08.865Z</time></trkpt><trkpt lat="40.6715717" lon="15.2416015"><ele>175.0</ele><time>2026-04-25T08:41:09.866Z</time></trkpt><trkpt lat="40.6716145" lon="15.241737"><ele>173.75</ele><time>2026-04-25T08:41:10.866Z</time></trkpt><trkpt lat="40.6716728" lon="15.2418924"><ele>172.5</ele><time>2026-04-25T08:41:11.865Z</time></trkpt><trkpt lat="40.6717335" lon="15.2420579"><ele>171.25</ele><time>2026-04-25T08:41:12.866Z</time></trkpt><trkpt lat="40.6717731" lon="15.2422032"><ele>170.0</ele><time>2026-04-25T08:41:13.866Z</time></trkpt><trkpt lat="40.6718116" lon="15.2423133"><ele>169.83333333333331</ele><time>2026-04-25T08:41:14.866Z</time></trkpt><trkpt lat="40.6718551" lon="15.2423988"><ele>169.66666666666666</ele><time>2026-04-25T08:41:15.865Z</time></trkpt><trkpt lat="40.6719032" lon="15.2424626"><ele>169.5</ele><time>2026-04-25T08:41:16.866Z</time></trkpt><trkpt lat="40.671974" lon="15.2425052"><ele>169.33333333333334</ele><time>2026-04-25T08:41:17.866Z</time></trkpt><trkpt lat="40.6720646" lon="15.2425411"><ele>169.16666666666669</ele><time>2026-04-25T08:41:18.865Z</time></trkpt><trkpt lat="40.6721723" lon="15.2425944"><ele>169.0</ele><time>2026-04-25T08:41:19.865Z</time></trkpt><trkpt lat="40.6722796" lon="15.2426655"><ele>169.0</ele><time>2026-04-25T08:41:20.865Z</time></trkpt><trkpt lat="40.6723825" lon="15.2427492"><ele>169.0</ele><time>2026-04-25T08:41:21.866Z</time></trkpt><trkpt lat="40.6724782" lon="15.2428312"><ele>169.0</ele><time>2026-04-25T08:41:22.865Z</time></trkpt><trkpt lat="40.672567" lon="15.2428968"><ele>169.0</ele><time>2026-04-25T08:41:23.865Z</time></trkpt><trkpt lat="40.6726551" lon="15.2429404"><ele>169.0</ele><time>2026-04-25T08:41:24.866Z</time></trkpt><trkpt lat="40.6727397" lon="15.2429955"><ele>168.83333333333334</ele><time>2026-04-25T08:41:25.866Z</time></trkpt><trkpt lat="40.6728085" lon="15.2430713"><ele>168.66666666666669</ele><time>2026-04-25T08:41:26.866Z</time></trkpt><trkpt lat="40.6728674" lon="15.243157"><ele>168.5</ele><time>2026-04-25T08:41:27.865Z</time></trkpt><trkpt lat="40.6729263" lon="15.2432265"><ele>168.33333333333334</ele><time>2026-04-25T08:41:28.865Z</time></trkpt><trkpt lat="40.6729943" lon="15.2432663"><ele>168.16666666666666</ele><time>2026-04-25T08:41:29.865Z</time></trkpt><trkpt lat="40.673067" lon="15.2432741"><ele>168.0</ele><time>2026-04-25T08:41:30.865Z</time></trkpt><trkpt lat="40.6731396" lon="15.2432565"><ele>168.0</ele><time>2026-04-25T08:41:31.865Z</time></trkpt><trkpt lat="40.6732102" lon="15.243203"><ele>168.0</ele><time>2026-04-25T08:41:32.866Z</time></trkpt><trkpt lat="40.6732785" lon="15.2431231"><ele>168.0</ele><time>2026-04-25T08:41:33.865Z</time></trkpt><trkpt lat="40.6733366" lon="15.2430188"><ele>168.0</ele><time>2026-04-25T08:41:34.866Z</time></trkpt><trkpt lat="40.6733918" lon="15.2429264"><ele>168.0</ele><time>2026-04-25T08:41:35.866Z</time></trkpt><trkpt lat="40.6734581" lon="15.2428607"><ele>168.0</ele><time>2026-04-25T08:41:36.865Z</time></trkpt><trkpt lat="40.6735285" lon="15.242831"><ele>169.85714285714286</ele><time>2026-04-25T08:41:37.866Z</time></trkpt><trkpt lat="40.6736039" lon="15.2428286"><ele>171.71428571428572</ele><time>2026-04-25T08:41:38.866Z</time></trkpt><trkpt lat="40.6736797" lon="15.2428495"><ele>173.57142857142856</ele><time>2026-04-25T08:41:39.865Z</time></trkpt><trkpt lat="40.6737524" lon="15.2428847"><ele>175.42857142857144</ele><time>2026-04-25T08:41:40.865Z</time></trkpt><trkpt lat="40.6738228" lon="15.242926"><ele>177.28571428571428</ele><time>2026-04-25T08:41:41.865Z</time></trkpt><trkpt lat="40.6738795" lon="15.2429768"><ele>179.14285714285714</ele><time>2026-04-25T08:41:42.866Z</time></trkpt><trkpt lat="40.6739306" lon="15.2430265"><ele>181.0</ele><time>2026-04-25T08:41:43.865Z</time></trkpt><trkpt lat="40.6740142" lon="15.2430988"><ele>179.20000000000002</ele><time>2026-04-25T08:41:45.866Z</time></trkpt><trkpt lat="40.6741197" lon="15.243164"><ele>177.4</ele><time>2026-04-25T08:41:47.866Z</time></trkpt><trkpt lat="40.6741964" lon="15.2432043"><ele>175.6</ele><time>2026-04-25T08:41:48.865Z</time></trkpt><trkpt lat="40.6742827" lon="15.2432486"><ele>173.8</ele><time>2026-04-25T08:41:49.866Z</time></trkpt><trkpt lat="40.674392" lon="15.2432942"><ele>172.0</ele><time>2026-04-25T08:41:50.865Z</time></trkpt><trkpt lat="40.6745258" lon="15.2433367"><ele>172.0</ele><time>2026-04-25T08:41:51.865Z</time></trkpt><trkpt lat="40.6746903" lon="15.2433878"><ele>172.0</ele><time>2026-04-25T08:41:52.866Z</time></trkpt><trkpt lat="40.6748702" lon="15.2434568"><ele>172.0</ele><time>2026-04-25T08:41:53.866Z</time></trkpt><trkpt lat="40.6750458" lon="15.2435174"><ele>172.0</ele><time>2026-04-25T08:41:54.865Z</time></trkpt><trkpt lat="40.6752104" lon="15.2435788"><ele>172.0</ele><time>2026-04-25T08:41:55.866Z</time></trkpt><trkpt lat="40.6753605" lon="15.2436331"><ele>172.0</ele><time>2026-04-25T08:41:56.865Z</time></trkpt><trkpt lat="40.6754878" lon="15.2436768"><ele>173.6</ele><time>2026-04-25T08:41:57.865Z</time></trkpt><trkpt lat="40.6755965" lon="15.2437116"><ele>175.2</ele><time>2026-04-25T08:41:58.865Z</time></trkpt><trkpt lat="40.6756851" lon="15.2437416"><ele>176.8</ele><time>2026-04-25T08:41:59.866Z</time></trkpt><trkpt lat="40.6757552" lon="15.2437631"><ele>178.4</ele><time>2026-04-25T08:42:00.866Z</time></trkpt><trkpt lat="40.6758329" lon="15.2438114"><ele>180.0</ele><time>2026-04-25T08:42:02.866Z</time></trkpt><trkpt lat="40.67583" lon="15.243945"><ele>173.75</ele><time>2026-04-25T08:42:05.866Z</time></trkpt><trkpt lat="40.67578" lon="15.2440317"><ele>167.5</ele><time>2026-04-25T08:42:06.865Z</time></trkpt><trkpt lat="40.6756967" lon="15.2441517"><ele>161.25</ele><time>2026-04-25T08:42:07.866Z</time></trkpt><trkpt lat="40.6755917" lon="15.2443167"><ele>155.0</ele><time>2026-04-25T08:42:08.866Z</time></trkpt><trkpt lat="40.6754967" lon="15.2445017"><ele>155.0</ele><time>2026-04-25T08:42:09.866Z</time></trkpt><trkpt lat="40.6754117" lon="15.2447083"><ele>155.0</ele><time>2026-04-25T08:42:10.865Z</time></trkpt><trkpt lat="40.6753433" lon="15.2449283"><ele>155.0</ele><time>2026-04-25T08:42:11.865Z</time></trkpt><trkpt lat="40.6752817" lon="15.24515"><ele>152.0</ele><time>2026-04-25T08:42:12.865Z</time></trkpt><trkpt lat="40.67522" lon="15.2453567"><ele>149.0</ele><time>2026-04-25T08:42:13.866Z</time></trkpt><trkpt lat="40.6751567" lon="15.2455667"><ele>146.0</ele><time>2026-04-25T08:42:14.865Z</time></trkpt><trkpt lat="40.6750983" lon="15.2457683"><ele>143.33333333333331</ele><time>2026-04-25T08:42:15.865Z</time></trkpt><trkpt lat="40.6750483" lon="15.245965"><ele>140.66666666666666</ele><time>2026-04-25T08:42:16.865Z</time></trkpt><trkpt lat="40.6750033" lon="15.246155"><ele>138.0</ele><time>2026-04-25T08:42:17.866Z</time></trkpt><trkpt lat="40.674955" lon="15.2463483"><ele>138.25</ele><time>2026-04-25T08:42:18.866Z</time></trkpt><trkpt lat="40.674905" lon="15.2465333"><ele>138.5</ele><time>2026-04-25T08:42:19.865Z</time></trkpt><trkpt lat="40.67486" lon="15.2466917"><ele>138.75</ele><time>2026-04-25T08:42:20.866Z</time></trkpt><trkpt lat="40.6748267" lon="15.2468283"><ele>139.0</ele><time>2026-04-25T08:42:21.866Z</time></trkpt><trkpt lat="40.6748033" lon="15.24694"><ele>139.0</ele><time>2026-04-25T08:42:22.866Z</time></trkpt><trkpt lat="40.6747667" lon="15.2470683"><ele>139.0</ele><time>2026-04-25T08:42:24.865Z</time></trkpt><trkpt lat="40.6747417" lon="15.2471617"><ele>139.0</ele><time>2026-04-25T08:42:26.866Z</time></trkpt><trkpt lat="40.6747217" lon="15.2472483"><ele>139.0</ele><time>2026-04-25T08:42:27.865Z</time></trkpt><trkpt lat="40.67469" lon="15.2473883"><ele>139.0</ele><time>2026-04-25T08:42:28.866Z</time></trkpt><trkpt lat="40.6746517" lon="15.2475833"><ele>142.5</ele><time>2026-04-25T08:42:29.866Z</time></trkpt><trkpt lat="40.6745783" lon="15.2478733"><ele>146.0</ele><time>2026-04-25T08:42:30.866Z</time></trkpt><trkpt lat="40.674495" lon="15.2482017"><ele>146.66666666666666</ele><time>2026-04-25T08:42:31.866Z</time></trkpt><trkpt lat="40.674415" lon="15.2485017"><ele>147.33333333333334</ele><time>2026-04-25T08:42:32.866Z</time></trkpt><trkpt lat="40.67434" lon="15.248745"><ele>148.0</ele><time>2026-04-25T08:42:33.866Z</time></trkpt><trkpt lat="40.6742683" lon="15.2489467"><ele>148.8</ele><time>2026-04-25T08:42:34.866Z</time></trkpt><trkpt lat="40.674225" lon="15.249095"><ele>149.60000000000002</ele><time>2026-04-25T08:42:35.866Z</time></trkpt><trkpt lat="40.6742" lon="15.2491983"><ele>150.39999999999998</ele><time>2026-04-25T08:42:36.865Z</time></trkpt><trkpt lat="40.674175" lon="15.2492917"><ele>151.2</ele><time>2026-04-25T08:42:38.865Z</time></trkpt><trkpt lat="40.67422" lon="15.249425"><ele>152.0</ele><time>2026-04-25T08:42:41.866Z</time></trkpt><trkpt lat="40.6742917" lon="15.2495017"><ele>152.0</ele><time>2026-04-25T08:42:42.865Z</time></trkpt><trkpt lat="40.67441" lon="15.2495983"><ele>152.0</ele><time>2026-04-25T08:42:43.865Z</time></trkpt><trkpt lat="40.67456" lon="15.249725"><ele>152.0</ele><time>2026-04-25T08:42:44.865Z</time></trkpt><trkpt lat="40.67472" lon="15.2498617"><ele>154.0</ele><time>2026-04-25T08:42:45.865Z</time></trkpt><trkpt lat="40.6748583" lon="15.24999"><ele>156.0</ele><time>2026-04-25T08:42:46.865Z</time></trkpt><trkpt lat="40.674985" lon="15.2501167"><ele>158.0</ele><time>2026-04-25T08:42:47.866Z</time></trkpt><trkpt lat="40.6750867" lon="15.2502367"><ele>158.0</ele><time>2026-04-25T08:42:48.865Z</time></trkpt><trkpt lat="40.6751583" lon="15.2503567"><ele>158.0</ele><time>2026-04-25T08:42:49.865Z</time></trkpt><trkpt lat="40.6751917" lon="15.250475"><ele>158.0</ele><time>2026-04-25T08:42:50.865Z</time></trkpt><trkpt lat="40.6751883" lon="15.2505917"><ele>158.0</ele><time>2026-04-25T08:42:51.866Z</time></trkpt><trkpt lat="40.67515" lon="15.250695"><ele>158.0</ele><time>2026-04-25T08:42:52.865Z</time></trkpt><trkpt lat="40.675085" lon="15.250775"><ele>159.16666666666666</ele><time>2026-04-25T08:42:53.865Z</time></trkpt><trkpt lat="40.6750033" lon="15.2508333"><ele>160.33333333333331</ele><time>2026-04-25T08:42:54.865Z</time></trkpt><trkpt lat="40.6749183" lon="15.25086"><ele>161.5</ele><time>2026-04-25T08:42:55.866Z</time></trkpt><trkpt lat="40.67484" lon="15.2508567"><ele>162.66666666666666</ele><time>2026-04-25T08:42:56.866Z</time></trkpt><trkpt lat="40.67477" lon="15.2508383"><ele>163.83333333333334</ele><time>2026-04-25T08:42:57.865Z</time></trkpt><trkpt lat="40.674655" lon="15.2507983"><ele>165.0</ele><time>2026-04-25T08:42:59.866Z</time></trkpt><trkpt lat="40.674595" lon="15.2507717"><ele>165.0</ele><time>2026-04-25T08:43:00.866Z</time></trkpt><trkpt lat="40.6745217" lon="15.2507467"><ele>165.0</ele><time>2026-04-25T08:43:01.866Z</time></trkpt><trkpt lat="40.6744233" lon="15.2507233"><ele>165.0</ele><time>2026-04-25T08:43:02.865Z</time></trkpt><trkpt lat="40.6743083" lon="15.2507083"><ele>165.0</ele><time>2026-04-25T08:43:03.865Z</time></trkpt><trkpt lat="40.6741717" lon="15.2507367"><ele>165.0</ele><time>2026-04-25T08:43:04.865Z</time></trkpt><trkpt lat="40.6740333" lon="15.2508167"><ele>166.66666666666666</ele><time>2026-04-25T08:43:05.866Z</time></trkpt><trkpt lat="40.6738983" lon="15.25094"><ele>168.33333333333331</ele><time>2026-04-25T08:43:06.865Z</time></trkpt><trkpt lat="40.6737683" lon="15.25107"><ele>170.0</ele><time>2026-04-25T08:43:07.866Z</time></trkpt><trkpt lat="40.6736283" lon="15.2511633"><ele>169.5</ele><time>2026-04-25T08:43:08.865Z</time></trkpt><trkpt lat="40.6735017" lon="15.2512083"><ele>169.0</ele><time>2026-04-25T08:43:09.866Z</time></trkpt><trkpt lat="40.67339" lon="15.2512217"><ele>168.5</ele><time>2026-04-25T08:43:10.866Z</time></trkpt><trkpt lat="40.6732667" lon="15.2511433"><ele>168.0</ele><time>2026-04-25T08:43:11.866Z</time></trkpt><trkpt lat="40.6731483" lon="15.25106"><ele>168.0</ele><time>2026-04-25T08:43:12.866Z</time></trkpt><trkpt lat="40.6730517" lon="15.2509983"><ele>168.0</ele><time>2026-04-25T08:43:13.865Z</time></trkpt><trkpt lat="40.6729783" lon="15.2509483"><ele>168.0</ele><time>2026-04-25T08:43:14.865Z</time></trkpt><trkpt lat="40.6728917" lon="15.25091"><ele>168.0</ele><time>2026-04-25T08:43:16.866Z</time></trkpt><trkpt lat="40.6728367" lon="15.2509633"><ele>168.0</ele><time>2026-04-25T08:43:18.866Z</time></trkpt><trkpt lat="40.672775" lon="15.251105"><ele>169.4</ele><time>2026-04-25T08:43:20.866Z</time></trkpt><trkpt lat="40.672745" lon="15.2511967"><ele>170.8</ele><time>2026-04-25T08:43:21.865Z</time></trkpt><trkpt lat="40.67272" lon="15.251295"><ele>172.2</ele><time>2026-04-25T08:43:22.865Z</time></trkpt><trkpt lat="40.6726917" lon="15.2514233"><ele>173.6</ele><time>2026-04-25T08:43:23.866Z</time></trkpt><trkpt lat="40.6726517" lon="15.2516167"><ele>175.0</ele><time>2026-04-25T08:43:24.866Z</time></trkpt><trkpt lat="40.672595" lon="15.25186"><ele>177.33333333333334</ele><time>2026-04-25T08:43:25.865Z</time></trkpt><trkpt lat="40.6725483" lon="15.2520867"><ele>179.66666666666666</ele><time>2026-04-25T08:43:26.865Z</time></trkpt><trkpt lat="40.67251" lon="15.2522933"><ele>182.0</ele><time>2026-04-25T08:43:27.866Z</time></trkpt><trkpt lat="40.6724933" lon="15.252485"><ele>185.25</ele><time>2026-04-25T08:43:28.866Z</time></trkpt><trkpt lat="40.672485" lon="15.2526683"><ele>188.5</ele><time>2026-04-25T08:43:29.865Z</time></trkpt><trkpt lat="40.6724833" lon="15.2528483"><ele>191.75</ele><time>2026-04-25T08:43:30.865Z</time></trkpt><trkpt lat="40.672495" lon="15.2530033"><ele>195.0</ele><time>2026-04-25T08:43:31.866Z</time></trkpt><trkpt lat="40.6725367" lon="15.2531383"><ele>197.0</ele><time>2026-04-25T08:43:32.865Z</time></trkpt><trkpt lat="40.6725967" lon="15.2532633"><ele>199.0</ele><time>2026-04-25T08:43:33.866Z</time></trkpt><trkpt lat="40.67266" lon="15.2533717"><ele>201.0</ele><time>2026-04-25T08:43:34.866Z</time></trkpt><trkpt lat="40.672705" lon="15.2534667"><ele>203.0</ele><time>2026-04-25T08:43:35.865Z</time></trkpt><trkpt lat="40.672735" lon="15.2535517"><ele>205.0</ele><time>2026-04-25T08:43:36.865Z</time></trkpt><trkpt lat="40.67277" lon="15.253705"><ele>205.0</ele><time>2026-04-25T08:43:38.866Z</time></trkpt><trkpt lat="40.6727817" lon="15.2537867"><ele>205.0</ele><time>2026-04-25T08:43:39.866Z</time></trkpt><trkpt lat="40.6728017" lon="15.253935"><ele>205.0</ele><time>2026-04-25T08:43:41.866Z</time></trkpt><trkpt lat="40.6728217" lon="15.2540633"><ele>205.0</ele><time>2026-04-25T08:43:43.865Z</time></trkpt><trkpt lat="40.67285" lon="15.2542433"><ele>205.0</ele><time>2026-04-25T08:43:45.866Z</time></trkpt><trkpt lat="40.672875" lon="15.2543783"><ele>207.75</ele><time>2026-04-25T08:43:46.866Z</time></trkpt><trkpt lat="40.67291" lon="15.2545433"><ele>210.5</ele><time>2026-04-25T08:43:47.865Z</time></trkpt><trkpt lat="40.6729217" lon="15.2547017"><ele>213.25</ele><time>2026-04-25T08:43:48.866Z</time></trkpt><trkpt lat="40.6728983" lon="15.2548667"><ele>216.0</ele><time>2026-04-25T08:43:49.866Z</time></trkpt><trkpt lat="40.6728533" lon="15.2550483"><ele>217.75</ele><time>2026-04-25T08:43:50.865Z</time></trkpt><trkpt lat="40.6728267" lon="15.2552183"><ele>219.5</ele><time>2026-04-25T08:43:51.865Z</time></trkpt><trkpt lat="40.672835" lon="15.2553933"><ele>221.25</ele><time>2026-04-25T08:43:52.865Z</time></trkpt><trkpt lat="40.672865" lon="15.25558"><ele>223.0</ele><time>2026-04-25T08:43:53.866Z</time></trkpt><trkpt lat="40.6729133" lon="15.2557767"><ele>224.75</ele><time>2026-04-25T08:43:54.865Z</time></trkpt><trkpt lat="40.6729617" lon="15.25596"><ele>226.5</ele><time>2026-04-25T08:43:55.866Z</time></trkpt><trkpt lat="40.6729883" lon="15.256125"><ele>228.25</ele><time>2026-04-25T08:43:56.866Z</time></trkpt><trkpt lat="40.6729883" lon="15.2562767"><ele>230.0</ele><time>2026-04-25T08:43:57.865Z</time></trkpt><trkpt lat="40.672955" lon="15.25642"><ele>231.25</ele><time>2026-04-25T08:43:58.866Z</time></trkpt><trkpt lat="40.6728817" lon="15.2565667"><ele>232.5</ele><time>2026-04-25T08:43:59.866Z</time></trkpt><trkpt lat="40.6727917" lon="15.256725"><ele>233.75</ele><time>2026-04-25T08:44:00.865Z</time></trkpt><trkpt lat="40.6727183" lon="15.25691"><ele>235.0</ele><time>2026-04-25T08:44:01.865Z</time></trkpt><trkpt lat="40.6726733" lon="15.2571367"><ele>240.0</ele><time>2026-04-25T08:44:02.866Z</time></trkpt><trkpt lat="40.67265" lon="15.2573767"><ele>245.0</ele><time>2026-04-25T08:44:03.866Z</time></trkpt><trkpt lat="40.6726333" lon="15.2576283"><ele>250.0</ele><time>2026-04-25T08:44:04.865Z</time></trkpt><trkpt lat="40.6726083" lon="15.2578917"><ele>251.0</ele><time>2026-04-25T08:44:05.866Z</time></trkpt><trkpt lat="40.672575" lon="15.258165"><ele>252.0</ele><time>2026-04-25T08:44:06.865Z</time></trkpt><trkpt lat="40.6725283" lon="15.2584433"><ele>253.0</ele><time>2026-04-25T08:44:07.865Z</time></trkpt><trkpt lat="40.67247" lon="15.2587083"><ele>253.0</ele><time>2026-04-25T08:44:08.866Z</time></trkpt><trkpt lat="40.6724067" lon="15.2589367"><ele>253.0</ele><time>2026-04-25T08:44:09.865Z</time></trkpt><trkpt lat="40.67234" lon="15.2591417"><ele>253.0</ele><time>2026-04-25T08:44:10.866Z</time></trkpt><trkpt lat="40.6722683" lon="15.2593083"><ele>255.5</ele><time>2026-04-25T08:44:11.866Z</time></trkpt><trkpt lat="40.67219" lon="15.2594633"><ele>258.0</ele><time>2026-04-25T08:44:12.865Z</time></trkpt><trkpt lat="40.6721083" lon="15.2596133"><ele>260.5</ele><time>2026-04-25T08:44:13.866Z</time></trkpt><trkpt lat="40.672025" lon="15.2597617"><ele>263.0</ele><time>2026-04-25T08:44:14.865Z</time></trkpt><trkpt lat="40.67195" lon="15.2599367"><ele>265.75</ele><time>2026-04-25T08:44:15.866Z</time></trkpt><trkpt lat="40.6718883" lon="15.2601033"><ele>268.5</ele><time>2026-04-25T08:44:16.866Z</time></trkpt><trkpt lat="40.6718267" lon="15.260265"><ele>271.25</ele><time>2026-04-25T08:44:17.866Z</time></trkpt><trkpt lat="40.6717567" lon="15.260405"><ele>274.0</ele><time>2026-04-25T08:44:18.865Z</time></trkpt><trkpt lat="40.6716767" lon="15.2605317"><ele>275.25</ele><time>2026-04-25T08:44:19.865Z</time></trkpt><trkpt lat="40.6715983" lon="15.2606583"><ele>276.5</ele><time>2026-04-25T08:44:20.866Z</time></trkpt><trkpt lat="40.6715217" lon="15.2607867"><ele>277.75</ele><time>2026-04-25T08:44:21.866Z</time></trkpt><trkpt lat="40.6714517" lon="15.2609183"><ele>279.0</ele><time>2026-04-25T08:44:22.866Z</time></trkpt><trkpt lat="40.6713917" lon="15.2610467"><ele>279.0</ele><time>2026-04-25T08:44:23.866Z</time></trkpt><trkpt lat="40.6713383" lon="15.261175"><ele>279.0</ele><time>2026-04-25T08:44:24.866Z</time></trkpt><trkpt lat="40.67128" lon="15.2613067"><ele>279.0</ele><time>2026-04-25T08:44:25.866Z</time></trkpt><trkpt lat="40.6712117" lon="15.2614217"><ele>279.0</ele><time>2026-04-25T08:44:26.866Z</time></trkpt><trkpt lat="40.6711367" lon="15.261535"><ele>283.0</ele><time>2026-04-25T08:44:27.865Z</time></trkpt><trkpt lat="40.6710533" lon="15.2616433"><ele>287.0</ele><time>2026-04-25T08:44:28.865Z</time></trkpt><trkpt lat="40.67097" lon="15.2617617"><ele>291.0</ele><time>2026-04-25T08:44:29.865Z</time></trkpt><trkpt lat="40.6708867" lon="15.2618667"><ele>295.0</ele><time>2026-04-25T08:44:30.865Z</time></trkpt><trkpt lat="40.6708033" lon="15.2619683"><ele>295.0</ele><time>2026-04-25T08:44:31.865Z</time></trkpt><trkpt lat="40.6707133" lon="15.2620533"><ele>295.0</ele><time>2026-04-25T08:44:32.865Z</time></trkpt><trkpt lat="40.6706317" lon="15.262135"><ele>295.0</ele><time>2026-04-25T08:44:33.865Z</time></trkpt><trkpt lat="40.67055" lon="15.2622067"><ele>295.0</ele><time>2026-04-25T08:44:34.866Z</time></trkpt><trkpt lat="40.6704617" lon="15.2622733"><ele>295.0</ele><time>2026-04-25T08:44:35.866Z</time></trkpt><trkpt lat="40.6703683" lon="15.262325"><ele>295.5714285714286</ele><time>2026-04-25T08:44:36.866Z</time></trkpt><trkpt lat="40.6702833" lon="15.26236"><ele>296.14285714285717</ele><time>2026-04-25T08:44:37.866Z</time></trkpt><trkpt lat="40.6702067" lon="15.2623867"><ele>296.7142857142857</ele><time>2026-04-25T08:44:38.866Z</time></trkpt><trkpt lat="40.6701433" lon="15.2624233"><ele>297.28571428571433</ele><time>2026-04-25T08:44:39.866Z</time></trkpt><trkpt lat="40.6700883" lon="15.26248"><ele>297.8571428571429</ele><time>2026-04-25T08:44:40.866Z</time></trkpt><trkpt lat="40.6700467" lon="15.2625517"><ele>298.42857142857144</ele><time>2026-04-25T08:44:41.865Z</time></trkpt><trkpt lat="40.67002" lon="15.2626317"><ele>299.0</ele><time>2026-04-25T08:44:42.865Z</time></trkpt><trkpt lat="40.670005" lon="15.2627267"><ele>300.33333333333337</ele><time>2026-04-25T08:44:43.866Z</time></trkpt><trkpt lat="40.67" lon="15.2628417"><ele>301.6666666666667</ele><time>2026-04-25T08:44:44.866Z</time></trkpt><trkpt lat="40.67001" lon="15.2629583"><ele>303.0</ele><time>2026-04-25T08:44:45.866Z</time></trkpt><trkpt lat="40.670025" lon="15.263075"><ele>304.3333333333333</ele><time>2026-04-25T08:44:46.866Z</time></trkpt><trkpt lat="40.6700483" lon="15.26319"><ele>305.66666666666663</ele><time>2026-04-25T08:44:47.865Z</time></trkpt><trkpt lat="40.6700667" lon="15.2633083"><ele>307.0</ele><time>2026-04-25T08:44:48.866Z</time></trkpt><trkpt lat="40.670075" lon="15.263425"><ele>307.0</ele><time>2026-04-25T08:44:49.866Z</time></trkpt><trkpt lat="40.6700733" lon="15.263545"><ele>307.0</ele><time>2026-04-25T08:44:50.866Z</time></trkpt><trkpt lat="40.6700683" lon="15.263685"><ele>307.0</ele><time>2026-04-25T08:44:51.865Z</time></trkpt><trkpt lat="40.6700617" lon="15.2638267"><ele>307.0</ele><time>2026-04-25T08:44:52.866Z</time></trkpt><trkpt lat="40.6700533" lon="15.2639717"><ele>307.0</ele><time>2026-04-25T08:44:53.865Z</time></trkpt><trkpt lat="40.6700367" lon="15.2641233"><ele>308.25</ele><time>2026-04-25T08:44:54.865Z</time></trkpt><trkpt lat="40.6700167" lon="15.2643017"><ele>309.5</ele><time>2026-04-25T08:44:55.865Z</time></trkpt><trkpt lat="40.6699933" lon="15.2644967"><ele>310.75</ele><time>2026-04-25T08:44:56.865Z</time></trkpt><trkpt lat="40.66998" lon="15.2646733"><ele>312.0</ele><time>2026-04-25T08:44:57.865Z</time></trkpt><trkpt lat="40.6699617" lon="15.26483"><ele>314.0</ele><time>2026-04-25T08:44:58.866Z</time></trkpt><trkpt lat="40.66995" lon="15.264955"><ele>316.0</ele><time>2026-04-25T08:44:59.865Z</time></trkpt><trkpt lat="40.6699367" lon="15.2650517"><ele>318.0</ele><time>2026-04-25T08:45:00.866Z</time></trkpt><trkpt lat="40.6699283" lon="15.2651533"><ele>320.0</ele><time>2026-04-25T08:45:02.866Z</time></trkpt><trkpt lat="40.6699583" lon="15.26526"><ele>322.0</ele><time>2026-04-25T08:45:05.866Z</time></trkpt><trkpt lat="40.67004" lon="15.2653867"><ele>322.0</ele><time>2026-04-25T08:45:07.866Z</time></trkpt><trkpt lat="40.6700967" lon="15.2654617"><ele>322.0</ele><time>2026-04-25T08:45:08.866Z</time></trkpt><trkpt lat="40.6701467" lon="15.2655533"><ele>322.0</ele><time>2026-04-25T08:45:09.866Z</time></trkpt><trkpt lat="40.6701767" lon="15.26566"><ele>322.0</ele><time>2026-04-25T08:45:10.866Z</time></trkpt><trkpt lat="40.670195" lon="15.2657767"><ele>322.0</ele><time>2026-04-25T08:45:11.866Z</time></trkpt><trkpt lat="40.6702083" lon="15.2659"><ele>322.0</ele><time>2026-04-25T08:45:12.866Z</time></trkpt><trkpt lat="40.6702183" lon="15.2660133"><ele>322.14285714285717</ele><time>2026-04-25T08:45:13.866Z</time></trkpt><trkpt lat="40.6702267" lon="15.2661083"><ele>322.2857142857143</ele><time>2026-04-25T08:45:14.865Z</time></trkpt><trkpt lat="40.6702283" lon="15.266195"><ele>322.42857142857144</ele><time>2026-04-25T08:45:17.866Z</time></trkpt><trkpt lat="40.6702233" lon="15.2662833"><ele>322.57142857142856</ele><time>2026-04-25T08:45:19.866Z</time></trkpt><trkpt lat="40.6702133" lon="15.2663683"><ele>322.7142857142857</ele><time>2026-04-25T08:45:20.866Z</time></trkpt><trkpt lat="40.670185" lon="15.2664467"><ele>322.8571428571429</ele><time>2026-04-25T08:45:21.866Z</time></trkpt><trkpt lat="40.6701467" lon="15.2665267"><ele>323.0</ele><time>2026-04-25T08:45:22.866Z</time></trkpt><trkpt lat="40.67009" lon="15.2665867"><ele>320.0</ele><time>2026-04-25T08:45:23.865Z</time></trkpt><trkpt lat="40.67" lon="15.2666283"><ele>317.0</ele><time>2026-04-25T08:45:24.865Z</time></trkpt><trkpt lat="40.6698817" lon="15.2666483"><ele>314.0</ele><time>2026-04-25T08:45:25.865Z</time></trkpt><trkpt lat="40.6697633" lon="15.266685"><ele>311.0</ele><time>2026-04-25T08:45:26.866Z</time></trkpt><trkpt lat="40.66965" lon="15.2667583"><ele>311.0</ele><time>2026-04-25T08:45:27.866Z</time></trkpt><trkpt lat="40.66955" lon="15.2668667"><ele>311.0</ele><time>2026-04-25T08:45:28.865Z</time></trkpt><trkpt lat="40.6694617" lon="15.2669967"><ele>311.0</ele><time>2026-04-25T08:45:29.865Z</time></trkpt><trkpt lat="40.6693617" lon="15.26713"><ele>311.0</ele><time>2026-04-25T08:45:30.866Z</time></trkpt><trkpt lat="40.66927" lon="15.267255"><ele>308.25</ele><time>2026-04-25T08:45:31.866Z</time></trkpt><trkpt lat="40.6692017" lon="15.2674183"><ele>305.5</ele><time>2026-04-25T08:45:32.866Z</time></trkpt><trkpt lat="40.669155" lon="15.267605"><ele>302.75</ele><time>2026-04-25T08:45:33.865Z</time></trkpt><trkpt lat="40.6691033" lon="15.2677733"><ele>300.0</ele><time>2026-04-25T08:45:34.866Z</time></trkpt><trkpt lat="40.6690683" lon="15.267945"><ele>297.5</ele><time>2026-04-25T08:45:35.865Z</time></trkpt><trkpt lat="40.66905" lon="15.2681333"><ele>295.0</ele><time>2026-04-25T08:45:36.866Z</time></trkpt><trkpt lat="40.6690317" lon="15.2683033"><ele>292.5</ele><time>2026-04-25T08:45:37.866Z</time></trkpt><trkpt lat="40.6690067" lon="15.2684667"><ele>290.0</ele><time>2026-04-25T08:45:38.866Z</time></trkpt><trkpt lat="40.6689783" lon="15.2686217"><ele>290.0</ele><time>2026-04-25T08:45:39.865Z</time></trkpt><trkpt lat="40.668945" lon="15.26877"><ele>290.0</ele><time>2026-04-25T08:45:40.865Z</time></trkpt><trkpt lat="40.66891" lon="15.2689283"><ele>290.0</ele><time>2026-04-25T08:45:41.866Z</time></trkpt><trkpt lat="40.66887" lon="15.2690883"><ele>290.0</ele><time>2026-04-25T08:45:42.866Z</time></trkpt><trkpt lat="40.6688417" lon="15.26925"><ele>287.25</ele><time>2026-04-25T08:45:43.865Z</time></trkpt><trkpt lat="40.6688083" lon="15.269415"><ele>284.5</ele><time>2026-04-25T08:45:44.866Z</time></trkpt><trkpt lat="40.6687733" lon="15.2695783"><ele>281.75</ele><time>2026-04-25T08:45:45.865Z</time></trkpt><trkpt lat="40.6687383" lon="15.269735"><ele>279.0</ele><time>2026-04-25T08:45:46.865Z</time></trkpt><trkpt lat="40.6687167" lon="15.2698917"><ele>277.5</ele><time>2026-04-25T08:45:47.866Z</time></trkpt><trkpt lat="40.66869" lon="15.2700517"><ele>276.0</ele><time>2026-04-25T08:45:48.865Z</time></trkpt><trkpt lat="40.6686633" lon="15.2702083"><ele>274.5</ele><time>2026-04-25T08:45:49.866Z</time></trkpt><trkpt lat="40.6686283" lon="15.2703667"><ele>273.0</ele><time>2026-04-25T08:45:50.866Z</time></trkpt><trkpt lat="40.6685733" lon="15.27051"><ele>271.75</ele><time>2026-04-25T08:45:51.865Z</time></trkpt><trkpt lat="40.6685283" lon="15.2706683"><ele>270.5</ele><time>2026-04-25T08:45:52.866Z</time></trkpt><trkpt lat="40.6685083" lon="15.2708333"><ele>269.25</ele><time>2026-04-25T08:45:53.866Z</time></trkpt><trkpt lat="40.66849" lon="15.2710017"><ele>268.0</ele><time>2026-04-25T08:45:54.866Z</time></trkpt><trkpt lat="40.66848" lon="15.2711667"><ele>268.0</ele><time>2026-04-25T08:45:55.866Z</time></trkpt><trkpt lat="40.6684833" lon="15.2713167"><ele>268.0</ele><time>2026-04-25T08:45:56.865Z</time></trkpt><trkpt lat="40.668495" lon="15.2714767"><ele>268.0</ele><time>2026-04-25T08:45:57.865Z</time></trkpt><trkpt lat="40.6685" lon="15.271635"><ele>268.0</ele><time>2026-04-25T08:45:58.865Z</time></trkpt><trkpt lat="40.6684967" lon="15.271795"><ele>267.0</ele><time>2026-04-25T08:45:59.865Z</time></trkpt><trkpt lat="40.66848" lon="15.2719533"><ele>266.0</ele><time>2026-04-25T08:46:00.865Z</time></trkpt><trkpt lat="40.6684617" lon="15.272085"><ele>265.0</ele><time>2026-04-25T08:46:01.866Z</time></trkpt><trkpt lat="40.668465" lon="15.272215"><ele>264.0</ele><time>2026-04-25T08:46:02.866Z</time></trkpt><trkpt lat="40.6684633" lon="15.272335"><ele>263.0</ele><time>2026-04-25T08:46:03.866Z</time></trkpt><trkpt lat="40.66846" lon="15.272445"><ele>261.0</ele><time>2026-04-25T08:46:04.866Z</time></trkpt><trkpt lat="40.6684417" lon="15.2725567"><ele>259.0</ele><time>2026-04-25T08:46:05.866Z</time></trkpt><trkpt lat="40.6683983" lon="15.272665"><ele>257.0</ele><time>2026-04-25T08:46:06.866Z</time></trkpt><trkpt lat="40.6683383" lon="15.2727667"><ele>255.0</ele><time>2026-04-25T08:46:07.866Z</time></trkpt><trkpt lat="40.66827" lon="15.2728867"><ele>253.0</ele><time>2026-04-25T08:46:08.866Z</time></trkpt><trkpt lat="40.6681967" lon="15.27301"><ele>249.0</ele><time>2026-04-25T08:46:09.866Z</time></trkpt><trkpt lat="40.6681367" lon="15.2731383"><ele>245.0</ele><time>2026-04-25T08:46:10.866Z</time></trkpt><trkpt lat="40.6681033" lon="15.2732917"><ele>241.0</ele><time>2026-04-25T08:46:11.865Z</time></trkpt><trkpt lat="40.6680917" lon="15.27347"><ele>237.0</ele><time>2026-04-25T08:46:12.865Z</time></trkpt><trkpt lat="40.6681017" lon="15.2736817"><ele>237.0</ele><time>2026-04-25T08:46:13.866Z</time></trkpt><trkpt lat="40.6681217" lon="15.2739083"><ele>237.0</ele><time>2026-04-25T08:46:14.865Z</time></trkpt><trkpt lat="40.6681483" lon="15.2741317"><ele>237.0</ele><time>2026-04-25T08:46:15.866Z</time></trkpt><trkpt lat="40.66818" lon="15.2743533"><ele>233.66666666666669</ele><time>2026-04-25T08:46:16.866Z</time></trkpt><trkpt lat="40.6682017" lon="15.2745633"><ele>230.33333333333334</ele><time>2026-04-25T08:46:17.865Z</time></trkpt><trkpt lat="40.66821" lon="15.2747683"><ele>227.0</ele><time>2026-04-25T08:46:18.866Z</time></trkpt><trkpt lat="40.6682017" lon="15.274965"><ele>225.66666666666669</ele><time>2026-04-25T08:46:19.865Z</time></trkpt><trkpt lat="40.66817" lon="15.2751633"><ele>224.33333333333331</ele><time>2026-04-25T08:46:20.865Z</time></trkpt><trkpt lat="40.66812" lon="15.27535"><ele>223.0</ele><time>2026-04-25T08:46:21.866Z</time></trkpt><trkpt lat="40.6680433" lon="15.2755367"><ele>224.0</ele><time>2026-04-25T08:46:22.865Z</time></trkpt><trkpt lat="40.667945" lon="15.2757033"><ele>225.0</ele><time>2026-04-25T08:46:23.866Z</time></trkpt><trkpt lat="40.6678267" lon="15.2758517"><ele>226.0</ele><time>2026-04-25T08:46:24.865Z</time></trkpt><trkpt lat="40.6677167" lon="15.275975"><ele>226.5</ele><time>2026-04-25T08:46:25.866Z</time></trkpt><trkpt lat="40.6676417" lon="15.2761067"><ele>227.0</ele><time>2026-04-25T08:46:26.865Z</time></trkpt><trkpt lat="40.66757" lon="15.2762583"><ele>227.5</ele><time>2026-04-25T08:46:27.866Z</time></trkpt><trkpt lat="40.667515" lon="15.27641"><ele>228.0</ele><time>2026-04-25T08:46:28.865Z</time></trkpt><trkpt lat="40.667465" lon="15.276555"><ele>230.60000000000002</ele><time>2026-04-25T08:46:29.865Z</time></trkpt><trkpt lat="40.6674267" lon="15.27668"><ele>233.20000000000002</ele><time>2026-04-25T08:46:30.866Z</time></trkpt><trkpt lat="40.6673917" lon="15.2767933"><ele>235.8</ele><time>2026-04-25T08:46:31.866Z</time></trkpt><trkpt lat="40.6673767" lon="15.2769083"><ele>238.4</ele><time>2026-04-25T08:46:32.866Z</time></trkpt><trkpt lat="40.66738" lon="15.27703"><ele>241.0</ele><time>2026-04-25T08:46:33.866Z</time></trkpt><trkpt lat="40.6674133" lon="15.2771467"><ele>241.0</ele><time>2026-04-25T08:46:34.866Z</time></trkpt><trkpt lat="40.6674617" lon="15.277265"><ele>241.00000000000003</ele><time>2026-04-25T08:46:35.866Z</time></trkpt><trkpt lat="40.6675283" lon="15.2773817"><ele>241.00000000000003</ele><time>2026-04-25T08:46:36.865Z</time></trkpt><trkpt lat="40.6675983" lon="15.2774983"><ele>241.0</ele><time>2026-04-25T08:46:37.865Z</time></trkpt><trkpt lat="40.6676583" lon="15.2776183"><ele>241.0</ele><time>2026-04-25T08:46:38.865Z</time></trkpt><trkpt lat="40.6677183" lon="15.277735"><ele>241.4</ele><time>2026-04-25T08:46:39.865Z</time></trkpt><trkpt lat="40.6677833" lon="15.2778433"><ele>241.8</ele><time>2026-04-25T08:46:40.865Z</time></trkpt><trkpt lat="40.6678433" lon="15.2779517"><ele>242.20000000000002</ele><time>2026-04-25T08:46:41.866Z</time></trkpt><trkpt lat="40.667895" lon="15.278055"><ele>242.60000000000002</ele><time>2026-04-25T08:46:42.866Z</time></trkpt><trkpt lat="40.6679317" lon="15.278175"><ele>243.0</ele><time>2026-04-25T08:46:43.866Z</time></trkpt><trkpt lat="40.6679567" lon="15.2782967"><ele>245.0</ele><time>2026-04-25T08:46:44.865Z</time></trkpt><trkpt lat="40.6679683" lon="15.2784317"><ele>247.0</ele><time>2026-04-25T08:46:45.866Z</time></trkpt><trkpt lat="40.667985" lon="15.278555"><ele>249.0</ele><time>2026-04-25T08:46:46.865Z</time></trkpt><trkpt lat="40.668005" lon="15.2786783"><ele>251.0</ele><time>2026-04-25T08:46:47.866Z</time></trkpt><trkpt lat="40.6680283" lon="15.2787983"><ele>253.0</ele><time>2026-04-25T08:46:48.866Z</time></trkpt><trkpt lat="40.66806" lon="15.2789233"><ele>256.0</ele><time>2026-04-25T08:46:49.865Z</time></trkpt><trkpt lat="40.6681017" lon="15.2790467"><ele>259.0</ele><time>2026-04-25T08:46:50.866Z</time></trkpt><trkpt lat="40.668155" lon="15.2791617"><ele>262.0</ele><time>2026-04-25T08:46:51.866Z</time></trkpt><trkpt lat="40.6682083" lon="15.2792767"><ele>265.0</ele><time>2026-04-25T08:46:52.866Z</time></trkpt><trkpt lat="40.668255" lon="15.27939"><ele>268.0</ele><time>2026-04-25T08:46:53.866Z</time></trkpt><trkpt lat="40.668285" lon="15.279505"><ele>268.0</ele><time>2026-04-25T08:46:54.866Z</time></trkpt><trkpt lat="40.6682967" lon="15.2796167"><ele>268.0</ele><time>2026-04-25T08:46:55.865Z</time></trkpt><trkpt lat="40.6682783" lon="15.2797333"><ele>268.0</ele><time>2026-04-25T08:46:56.865Z</time></trkpt><trkpt lat="40.6682367" lon="15.2798467"><ele>268.0</ele><time>2026-04-25T08:46:57.866Z</time></trkpt><trkpt lat="40.66819" lon="15.2799617"><ele>268.0</ele><time>2026-04-25T08:46:58.865Z</time></trkpt><trkpt lat="40.6681367" lon="15.2800867"><ele>269.6</ele><time>2026-04-25T08:46:59.866Z</time></trkpt><trkpt lat="40.66808" lon="15.2802083"><ele>271.20000000000005</ele><time>2026-04-25T08:47:00.866Z</time></trkpt><trkpt lat="40.66802" lon="15.28031"><ele>272.8</ele><time>2026-04-25T08:47:01.865Z</time></trkpt><trkpt lat="40.6679517" lon="15.2804"><ele>274.40000000000003</ele><time>2026-04-25T08:47:02.866Z</time></trkpt><trkpt lat="40.6678933" lon="15.2804983"><ele>276.0</ele><time>2026-04-25T08:47:03.865Z</time></trkpt><trkpt lat="40.667855" lon="15.280605"><ele>276.2</ele><time>2026-04-25T08:47:04.866Z</time></trkpt><trkpt lat="40.6678367" lon="15.280735"><ele>276.40000000000003</ele><time>2026-04-25T08:47:05.865Z</time></trkpt><trkpt lat="40.6678217" lon="15.28087"><ele>276.6</ele><time>2026-04-25T08:47:06.865Z</time></trkpt><trkpt lat="40.667815" lon="15.281015"><ele>276.8</ele><time>2026-04-25T08:47:07.865Z</time></trkpt><trkpt lat="40.6678117" lon="15.281165"><ele>277.0</ele><time>2026-04-25T08:47:08.865Z</time></trkpt><trkpt lat="40.6678133" lon="15.2813167"><ele>278.25</ele><time>2026-04-25T08:47:09.866Z</time></trkpt><trkpt lat="40.6678217" lon="15.2814767"><ele>279.5</ele><time>2026-04-25T08:47:10.866Z</time></trkpt><trkpt lat="40.667855" lon="15.2816283"><ele>280.75</ele><time>2026-04-25T08:47:11.865Z</time></trkpt><trkpt lat="40.6679" lon="15.2817733"><ele>282.0</ele><time>2026-04-25T08:47:12.865Z</time></trkpt><trkpt lat="40.6679267" lon="15.28191"><ele>282.0</ele><time>2026-04-25T08:47:13.865Z</time></trkpt><trkpt lat="40.6679333" lon="15.2820183"><ele>282.0</ele><time>2026-04-25T08:47:14.866Z</time></trkpt><trkpt lat="40.66792" lon="15.2821033"><ele>282.0</ele><time>2026-04-25T08:47:15.865Z</time></trkpt><trkpt lat="40.6678767" lon="15.282165"><ele>282.0</ele><time>2026-04-25T08:47:16.865Z</time></trkpt><trkpt lat="40.6677983" lon="15.2822133"><ele>282.0</ele><time>2026-04-25T08:47:17.865Z</time></trkpt><trkpt lat="40.6676967" lon="15.2822433"><ele>282.0</ele><time>2026-04-25T08:47:18.866Z</time></trkpt><trkpt lat="40.667595" lon="15.2822883"><ele>285.5</ele><time>2026-04-25T08:47:19.865Z</time></trkpt><trkpt lat="40.6674883" lon="15.2823633"><ele>289.0</ele><time>2026-04-25T08:47:20.865Z</time></trkpt><trkpt lat="40.6673917" lon="15.28244"><ele>292.5</ele><time>2026-04-25T08:47:21.866Z</time></trkpt><trkpt lat="40.6672883" lon="15.282515"><ele>296.0</ele><time>2026-04-25T08:47:22.865Z</time></trkpt><trkpt lat="40.6671867" lon="15.2825817"><ele>296.0</ele><time>2026-04-25T08:47:23.865Z</time></trkpt><trkpt lat="40.6670917" lon="15.2826583"><ele>296.0</ele><time>2026-04-25T08:47:24.865Z</time></trkpt><trkpt lat="40.6670033" lon="15.282745"><ele>296.0</ele><time>2026-04-25T08:47:25.865Z</time></trkpt><trkpt lat="40.6669217" lon="15.282835"><ele>296.0</ele><time>2026-04-25T08:47:26.866Z</time></trkpt><trkpt lat="40.66683" lon="15.2829217"><ele>296.0</ele><time>2026-04-25T08:47:27.866Z</time></trkpt><trkpt lat="40.6667317" lon="15.2829933"><ele>298.2</ele><time>2026-04-25T08:47:28.865Z</time></trkpt><trkpt lat="40.666625" lon="15.2830383"><ele>300.40000000000003</ele><time>2026-04-25T08:47:29.866Z</time></trkpt><trkpt lat="40.66652" lon="15.283085"><ele>302.6</ele><time>2026-04-25T08:47:30.866Z</time></trkpt><trkpt lat="40.6664233" lon="15.283135"><ele>304.8</ele><time>2026-04-25T08:47:31.865Z</time></trkpt><trkpt lat="40.6663233" lon="15.2831983"><ele>307.0</ele><time>2026-04-25T08:47:32.866Z</time></trkpt><trkpt lat="40.66624" lon="15.283285"><ele>308.2</ele><time>2026-04-25T08:47:33.865Z</time></trkpt><trkpt lat="40.6661783" lon="15.2833917"><ele>309.4</ele><time>2026-04-25T08:47:34.865Z</time></trkpt><trkpt lat="40.6661433" lon="15.28351"><ele>310.6</ele><time>2026-04-25T08:47:35.865Z</time></trkpt><trkpt lat="40.666125" lon="15.2836467"><ele>311.8</ele><time>2026-04-25T08:47:36.865Z</time></trkpt><trkpt lat="40.666115" lon="15.2838"><ele>313.0</ele><time>2026-04-25T08:47:37.865Z</time></trkpt><trkpt lat="40.6661033" lon="15.2839483"><ele>315.3333333333333</ele><time>2026-04-25T08:47:38.865Z</time></trkpt><trkpt lat="40.6660833" lon="15.284095"><ele>317.66666666666663</ele><time>2026-04-25T08:47:39.866Z</time></trkpt><trkpt lat="40.6660633" lon="15.2842233"><ele>320.0</ele><time>2026-04-25T08:47:40.865Z</time></trkpt><trkpt lat="40.6660383" lon="15.2843233"><ele>322.3333333333333</ele><time>2026-04-25T08:47:41.865Z</time></trkpt><trkpt lat="40.6660117" lon="15.2844183"><ele>324.6666666666667</ele><time>2026-04-25T08:47:43.865Z</time></trkpt><trkpt lat="40.666025" lon="15.2845183"><ele>327.0</ele><time>2026-04-25T08:47:46.865Z</time></trkpt><trkpt lat="40.6660917" lon="15.2846333"><ele>326.3333333333333</ele><time>2026-04-25T08:47:48.864Z</time></trkpt><trkpt lat="40.6661367" lon="15.2847083"><ele>325.6666666666667</ele><time>2026-04-25T08:47:49.865Z</time></trkpt><trkpt lat="40.666185" lon="15.2848017"><ele>325.0</ele><time>2026-04-25T08:47:50.864Z</time></trkpt><trkpt lat="40.6662283" lon="15.2849"><ele>324.33333333333337</ele><time>2026-04-25T08:47:51.865Z</time></trkpt><trkpt lat="40.6662667" lon="15.2849867"><ele>323.6666666666667</ele><time>2026-04-25T08:47:52.864Z</time></trkpt><trkpt lat="40.6663083" lon="15.28507"><ele>323.0</ele><time>2026-04-25T08:47:54.865Z</time></trkpt><trkpt lat="40.6663917" lon="15.2851517"><ele>324.79999999999995</ele><time>2026-04-25T08:50:09.865Z</time></trkpt><trkpt lat="40.66646" lon="15.2852"><ele>326.6</ele><time>2026-04-25T08:50:10.864Z</time></trkpt><trkpt lat="40.6665383" lon="15.2852517"><ele>328.4</ele><time>2026-04-25T08:50:11.864Z</time></trkpt><trkpt lat="40.6666233" lon="15.2853117"><ele>330.20000000000005</ele><time>2026-04-25T08:50:12.865Z</time></trkpt><trkpt lat="40.6667117" lon="15.2853783"><ele>332.0</ele><time>2026-04-25T08:50:13.865Z</time></trkpt><trkpt lat="40.6667983" lon="15.2854533"><ele>332.0</ele><time>2026-04-25T08:50:14.865Z</time></trkpt><trkpt lat="40.66688" lon="15.2855367"><ele>332.0</ele><time>2026-04-25T08:50:15.865Z</time></trkpt><trkpt lat="40.6669233" lon="15.2856467"><ele>332.0</ele><time>2026-04-25T08:50:16.865Z</time></trkpt><trkpt lat="40.6669333" lon="15.2857767"><ele>332.0</ele><time>2026-04-25T08:50:17.865Z</time></trkpt><trkpt lat="40.6669067" lon="15.2859117"><ele>332.0</ele><time>2026-04-25T08:50:18.865Z</time></trkpt><trkpt lat="40.66687" lon="15.2860433"><ele>334.75</ele><time>2026-04-25T08:50:19.865Z</time></trkpt><trkpt lat="40.6668283" lon="15.2861767"><ele>337.5</ele><time>2026-04-25T08:50:20.865Z</time></trkpt><trkpt lat="40.6667867" lon="15.2863167"><ele>340.25</ele><time>2026-04-25T08:50:21.864Z</time></trkpt><trkpt lat="40.6667483" lon="15.2864683"><ele>343.0</ele><time>2026-04-25T08:50:22.864Z</time></trkpt><trkpt lat="40.666715" lon="15.2866183"><ele>345.0</ele><time>2026-04-25T08:50:23.865Z</time></trkpt><trkpt lat="40.66668" lon="15.2867733"><ele>347.0</ele><time>2026-04-25T08:50:24.865Z</time></trkpt><trkpt lat="40.6666417" lon="15.2869217"><ele>349.0</ele><time>2026-04-25T08:50:25.864Z</time></trkpt><trkpt lat="40.6666" lon="15.2870683"><ele>351.0</ele><time>2026-04-25T08:50:26.865Z</time></trkpt><trkpt lat="40.666555" lon="15.2872167"><ele>353.0</ele><time>2026-04-25T08:50:27.865Z</time></trkpt><trkpt lat="40.6665033" lon="15.28736"><ele>355.0</ele><time>2026-04-25T08:50:28.864Z</time></trkpt><trkpt lat="40.6664467" lon="15.287495"><ele>357.0</ele><time>2026-04-25T08:50:29.865Z</time></trkpt><trkpt lat="40.6663817" lon="15.287625"><ele>359.0</ele><time>2026-04-25T08:50:30.865Z</time></trkpt><trkpt lat="40.6663167" lon="15.287735"><ele>359.0</ele><time>2026-04-25T08:50:31.865Z</time></trkpt><trkpt lat="40.6662483" lon="15.2878317"><ele>359.0</ele><time>2026-04-25T08:50:32.865Z</time></trkpt><trkpt lat="40.6662" lon="15.287945"><ele>359.0</ele><time>2026-04-25T08:50:33.865Z</time></trkpt><trkpt lat="40.6661867" lon="15.2880633"><ele>359.0</ele><time>2026-04-25T08:50:34.865Z</time></trkpt><trkpt lat="40.666215" lon="15.2881767"><ele>359.0</ele><time>2026-04-25T08:50:35.864Z</time></trkpt><trkpt lat="40.6662667" lon="15.2882867"><ele>361.25</ele><time>2026-04-25T08:50:36.865Z</time></trkpt><trkpt lat="40.6663367" lon="15.2884033"><ele>363.5</ele><time>2026-04-25T08:50:37.864Z</time></trkpt><trkpt lat="40.666415" lon="15.288525"><ele>365.75</ele><time>2026-04-25T08:50:38.865Z</time></trkpt><trkpt lat="40.6664983" lon="15.2886517"><ele>368.0</ele><time>2026-04-25T08:50:39.865Z</time></trkpt><trkpt lat="40.6665633" lon="15.2887883"><ele>371.25</ele><time>2026-04-25T08:50:40.865Z</time></trkpt><trkpt lat="40.6666267" lon="15.2889333"><ele>374.5</ele><time>2026-04-25T08:50:41.864Z</time></trkpt><trkpt lat="40.66669" lon="15.28908"><ele>377.75</ele><time>2026-04-25T08:50:42.864Z</time></trkpt><trkpt lat="40.666755" lon="15.2892217"><ele>381.0</ele><time>2026-04-25T08:50:43.864Z</time></trkpt><trkpt lat="40.666835" lon="15.2893583"><ele>381.0</ele><time>2026-04-25T08:50:44.864Z</time></trkpt><trkpt lat="40.6669083" lon="15.28949"><ele>381.0</ele><time>2026-04-25T08:50:45.864Z</time></trkpt><trkpt lat="40.6669767" lon="15.2896283"><ele>381.0</ele><time>2026-04-25T08:50:46.864Z</time></trkpt><trkpt lat="40.6670467" lon="15.289765"><ele>381.0</ele><time>2026-04-25T08:50:47.865Z</time></trkpt><trkpt lat="40.6671167" lon="15.2898967"><ele>379.0</ele><time>2026-04-25T08:50:48.865Z</time></trkpt><trkpt lat="40.6671783" lon="15.29003"><ele>377.0</ele><time>2026-04-25T08:50:49.865Z</time></trkpt><trkpt lat="40.6672183" lon="15.2901733"><ele>375.0</ele><time>2026-04-25T08:50:50.865Z</time></trkpt><trkpt lat="40.6672267" lon="15.2903183"><ele>373.0</ele><time>2026-04-25T08:50:51.865Z</time></trkpt><trkpt lat="40.6672117" lon="15.2904667"><ele>375.25</ele><time>2026-04-25T08:50:52.865Z</time></trkpt><trkpt lat="40.6671917" lon="15.2906133"><ele>377.5</ele><time>2026-04-25T08:50:53.865Z</time></trkpt><trkpt lat="40.6671783" lon="15.2907633"><ele>379.75</ele><time>2026-04-25T08:50:54.865Z</time></trkpt><trkpt lat="40.6671633" lon="15.2909183"><ele>382.0</ele><time>2026-04-25T08:50:55.864Z</time></trkpt><trkpt lat="40.667125" lon="15.29106"><ele>382.0</ele><time>2026-04-25T08:50:56.865Z</time></trkpt><trkpt lat="40.6670683" lon="15.2912033"><ele>382.0</ele><time>2026-04-25T08:50:57.864Z</time></trkpt><trkpt lat="40.6670067" lon="15.291355"><ele>382.0</ele><time>2026-04-25T08:50:58.864Z</time></trkpt><trkpt lat="40.66695" lon="15.2915067"><ele>382.0</ele><time>2026-04-25T08:50:59.865Z</time></trkpt><trkpt lat="40.6669033" lon="15.2916683"><ele>386.5</ele><time>2026-04-25T08:51:00.864Z</time></trkpt><trkpt lat="40.66686" lon="15.2918383"><ele>391.0</ele><time>2026-04-25T08:51:01.865Z</time></trkpt><trkpt lat="40.6668183" lon="15.2919917"><ele>395.5</ele><time>2026-04-25T08:51:02.865Z</time></trkpt><trkpt lat="40.6667733" lon="15.2921467"><ele>400.0</ele><time>2026-04-25T08:51:03.865Z</time></trkpt><trkpt lat="40.6667083" lon="15.2922883"><ele>401.75</ele><time>2026-04-25T08:51:04.865Z</time></trkpt><trkpt lat="40.6666367" lon="15.2924083"><ele>403.5</ele><time>2026-04-25T08:51:05.865Z</time></trkpt><trkpt lat="40.66654" lon="15.292505"><ele>405.25</ele><time>2026-04-25T08:51:06.864Z</time></trkpt><trkpt lat="40.66643" lon="15.2925817"><ele>407.0</ele><time>2026-04-25T08:51:07.865Z</time></trkpt><trkpt lat="40.6663133" lon="15.2926483"><ele>407.0</ele><time>2026-04-25T08:51:08.865Z</time></trkpt><trkpt lat="40.66619" lon="15.2927333"><ele>407.0</ele><time>2026-04-25T08:51:09.865Z</time></trkpt><trkpt lat="40.6660733" lon="15.2928433"><ele>407.0</ele><time>2026-04-25T08:51:10.865Z</time></trkpt><trkpt lat="40.6659867" lon="15.2929783"><ele>407.0</ele><time>2026-04-25T08:51:11.865Z</time></trkpt><trkpt lat="40.66591" lon="15.29312"><ele>413.0</ele><time>2026-04-25T08:51:12.865Z</time></trkpt><trkpt lat="40.6658333" lon="15.2932667"><ele>419.0</ele><time>2026-04-25T08:51:13.865Z</time></trkpt><trkpt lat="40.6657633" lon="15.2934167"><ele>425.0</ele><time>2026-04-25T08:51:14.864Z</time></trkpt><trkpt lat="40.665695" lon="15.2935817"><ele>431.0</ele><time>2026-04-25T08:51:15.865Z</time></trkpt><trkpt lat="40.6656233" lon="15.293745"><ele>431.0</ele><time>2026-04-25T08:51:16.865Z</time></trkpt><trkpt lat="40.6655583" lon="15.29389"><ele>431.0</ele><time>2026-04-25T08:51:17.865Z</time></trkpt><trkpt lat="40.665475" lon="15.29401"><ele>431.0</ele><time>2026-04-25T08:51:18.864Z</time></trkpt><trkpt lat="40.6654033" lon="15.2941317"><ele>431.0</ele><time>2026-04-25T08:51:19.865Z</time></trkpt><trkpt lat="40.6653133" lon="15.2942417"><ele>437.5</ele><time>2026-04-25T08:51:20.865Z</time></trkpt><trkpt lat="40.6652267" lon="15.294355"><ele>444.0</ele><time>2026-04-25T08:51:21.865Z</time></trkpt><trkpt lat="40.6651367" lon="15.29448"><ele>450.5</ele><time>2026-04-25T08:51:22.864Z</time></trkpt><trkpt lat="40.6650483" lon="15.2946133"><ele>457.0</ele><time>2026-04-25T08:51:23.864Z</time></trkpt><trkpt lat="40.6649517" lon="15.294745"><ele>452.25</ele><time>2026-04-25T08:51:24.864Z</time></trkpt><trkpt lat="40.664855" lon="15.2948733"><ele>447.5</ele><time>2026-04-25T08:51:25.864Z</time></trkpt><trkpt lat="40.6647567" lon="15.2949817"><ele>442.75</ele><time>2026-04-25T08:51:26.864Z</time></trkpt><trkpt lat="40.6646583" lon="15.295065"><ele>438.0</ele><time>2026-04-25T08:51:27.864Z</time></trkpt><trkpt lat="40.6645567" lon="15.2951217"><ele>438.0</ele><time>2026-04-25T08:51:28.864Z</time></trkpt><trkpt lat="40.6644567" lon="15.2951383"><ele>438.0</ele><time>2026-04-25T08:51:29.864Z</time></trkpt><trkpt lat="40.66436" lon="15.2951433"><ele>438.0</ele><time>2026-04-25T08:51:30.865Z</time></trkpt><trkpt lat="40.6642667" lon="15.2951433"><ele>438.0</ele><time>2026-04-25T08:51:31.864Z</time></trkpt><trkpt lat="40.6641933" lon="15.2951417"><ele>438.0</ele><time>2026-04-25T08:51:32.865Z</time></trkpt><trkpt lat="40.6641117" lon="15.29514"><ele>438.0</ele><time>2026-04-25T08:51:34.864Z</time></trkpt><trkpt lat="40.6640817" lon="15.2952417"><ele>437.8333333333333</ele><time>2026-04-25T08:51:37.864Z</time></trkpt><trkpt lat="40.6641133" lon="15.2954017"><ele>437.66666666666663</ele><time>2026-04-25T08:51:39.865Z</time></trkpt><trkpt lat="40.6641083" lon="15.2954983"><ele>437.5</ele><time>2026-04-25T08:51:40.865Z</time></trkpt><trkpt lat="40.6640917" lon="15.2955917"><ele>437.3333333333333</ele><time>2026-04-25T08:51:41.864Z</time></trkpt><trkpt lat="40.6640667" lon="15.29567"><ele>437.16666666666663</ele><time>2026-04-25T08:51:42.864Z</time></trkpt><trkpt lat="40.664005" lon="15.2957783"><ele>437.0</ele><time>2026-04-25T08:51:44.865Z</time></trkpt><trkpt lat="40.66396" lon="15.2958417"><ele>436.99999999999994</ele><time>2026-04-25T08:51:46.865Z</time></trkpt><trkpt lat="40.66392" lon="15.2959083"><ele>437.0</ele><time>2026-04-25T08:51:48.865Z</time></trkpt><trkpt lat="40.663965" lon="15.29601"><ele>437.0</ele><time>2026-04-25T08:51:51.865Z</time></trkpt><trkpt lat="40.6640683" lon="15.2960567"><ele>437.0</ele><time>2026-04-25T08:51:53.864Z</time></trkpt><trkpt lat="40.6641317" lon="15.296085"><ele>436.99999999999994</ele><time>2026-04-25T08:51:54.864Z</time></trkpt><trkpt lat="40.6642017" lon="15.2961283"><ele>437.0</ele><time>2026-04-25T08:51:55.864Z</time></trkpt><trkpt lat="40.66428" lon="15.296175"><ele>437.0</ele><time>2026-04-25T08:51:56.865Z</time></trkpt><trkpt lat="40.6643733" lon="15.2962267"><ele>437.0</ele><time>2026-04-25T08:51:57.864Z</time></trkpt><trkpt lat="40.6644817" lon="15.2962733"><ele>437.0</ele><time>2026-04-25T08:51:58.865Z</time></trkpt><trkpt lat="40.66459" lon="15.2963417"><ele>437.0</ele><time>2026-04-25T08:51:59.864Z</time></trkpt><trkpt lat="40.6647083" lon="15.296425"><ele>435.75</ele><time>2026-04-25T08:52:00.864Z</time></trkpt><trkpt lat="40.6648233" lon="15.296525"><ele>434.5</ele><time>2026-04-25T08:52:01.864Z</time></trkpt><trkpt lat="40.6649317" lon="15.2966483"><ele>433.25</ele><time>2026-04-25T08:52:02.864Z</time></trkpt><trkpt lat="40.665045" lon="15.2967867"><ele>432.0</ele><time>2026-04-25T08:52:03.865Z</time></trkpt><trkpt lat="40.6651633" lon="15.29694"><ele>432.0</ele><time>2026-04-25T08:52:04.865Z</time></trkpt><trkpt lat="40.6652733" lon="15.2971"><ele>432.0</ele><time>2026-04-25T08:52:05.864Z</time></trkpt><trkpt lat="40.66539" lon="15.2972533"><ele>432.0</ele><time>2026-04-25T08:52:06.865Z</time></trkpt><trkpt lat="40.6655083" lon="15.2974033"><ele>430.0</ele><time>2026-04-25T08:52:07.864Z</time></trkpt><trkpt lat="40.665625" lon="15.2975467"><ele>428.0</ele><time>2026-04-25T08:52:08.865Z</time></trkpt><trkpt lat="40.6657283" lon="15.2976683"><ele>426.0</ele><time>2026-04-25T08:52:09.865Z</time></trkpt><trkpt lat="40.66584" lon="15.2977683"><ele>424.0</ele><time>2026-04-25T08:52:10.865Z</time></trkpt><trkpt lat="40.665955" lon="15.2978483"><ele>424.0</ele><time>2026-04-25T08:52:11.864Z</time></trkpt><trkpt lat="40.6660867" lon="15.29792"><ele>424.0</ele><time>2026-04-25T08:52:12.864Z</time></trkpt><trkpt lat="40.6662333" lon="15.298"><ele>424.0</ele><time>2026-04-25T08:52:13.864Z</time></trkpt><trkpt lat="40.6663683" lon="15.29806"><ele>424.0</ele><time>2026-04-25T08:52:14.864Z</time></trkpt><trkpt lat="40.6665167" lon="15.298135"><ele>423.33333333333337</ele><time>2026-04-25T08:52:15.864Z</time></trkpt><trkpt lat="40.6666667" lon="15.2982017"><ele>422.66666666666663</ele><time>2026-04-25T08:52:16.865Z</time></trkpt><trkpt lat="40.66683" lon="15.2982817"><ele>422.0</ele><time>2026-04-25T08:52:17.864Z</time></trkpt><trkpt lat="40.6669883" lon="15.2983733"><ele>422.0</ele><time>2026-04-25T08:52:18.865Z</time></trkpt><trkpt lat="40.66715" lon="15.298475"><ele>422.0</ele><time>2026-04-25T08:52:19.865Z</time></trkpt><trkpt lat="40.6673117" lon="15.2986"><ele>422.0</ele><time>2026-04-25T08:52:20.865Z</time></trkpt><trkpt lat="40.6674817" lon="15.2987267"><ele>422.0</ele><time>2026-04-25T08:52:21.865Z</time></trkpt><trkpt lat="40.66764" lon="15.2988467"><ele>422.0</ele><time>2026-04-25T08:52:22.864Z</time></trkpt><trkpt lat="40.6677817" lon="15.2989617"><ele>422.0</ele><time>2026-04-25T08:52:23.865Z</time></trkpt><trkpt lat="40.66792" lon="15.2990767"><ele>424.66666666666663</ele><time>2026-04-25T08:52:24.865Z</time></trkpt><trkpt lat="40.66804" lon="15.2991883"><ele>427.33333333333337</ele><time>2026-04-25T08:52:25.865Z</time></trkpt><trkpt lat="40.668155" lon="15.2993183"><ele>430.0</ele><time>2026-04-25T08:52:26.864Z</time></trkpt><trkpt lat="40.6682583" lon="15.2994683"><ele>430.0</ele><time>2026-04-25T08:52:27.865Z</time></trkpt><trkpt lat="40.66836" lon="15.2996283"><ele>430.0</ele><time>2026-04-25T08:52:28.864Z</time></trkpt><trkpt lat="40.6684533" lon="15.2997967"><ele>430.0</ele><time>2026-04-25T08:52:29.864Z</time></trkpt><trkpt lat="40.6685267" lon="15.2999717"><ele>427.0</ele><time>2026-04-25T08:52:30.864Z</time></trkpt><trkpt lat="40.66859" lon="15.300165"><ele>424.0</ele><time>2026-04-25T08:52:31.864Z</time></trkpt><trkpt lat="40.6686333" lon="15.30036"><ele>421.0</ele><time>2026-04-25T08:52:32.864Z</time></trkpt><trkpt lat="40.6686633" lon="15.3005567"><ele>424.0</ele><time>2026-04-25T08:52:33.864Z</time></trkpt><trkpt lat="40.6686833" lon="15.30075"><ele>427.0</ele><time>2026-04-25T08:52:34.864Z</time></trkpt><trkpt lat="40.6687133" lon="15.30093"><ele>430.0</ele><time>2026-04-25T08:52:35.865Z</time></trkpt><trkpt lat="40.66876" lon="15.3010983"><ele>433.0</ele><time>2026-04-25T08:52:36.864Z</time></trkpt><trkpt lat="40.66883" lon="15.301235"><ele>433.0</ele><time>2026-04-25T08:52:37.865Z</time></trkpt><trkpt lat="40.6689267" lon="15.3013333"><ele>433.0</ele><time>2026-04-25T08:52:38.865Z</time></trkpt><trkpt lat="40.6690517" lon="15.301435"><ele>433.0</ele><time>2026-04-25T08:52:39.864Z</time></trkpt><trkpt lat="40.66918" lon="15.3015433"><ele>433.0</ele><time>2026-04-25T08:52:40.865Z</time></trkpt><trkpt lat="40.66931" lon="15.301655"><ele>434.6666666666667</ele><time>2026-04-25T08:52:41.865Z</time></trkpt><trkpt lat="40.6694533" lon="15.3017533"><ele>436.33333333333337</ele><time>2026-04-25T08:52:42.865Z</time></trkpt><trkpt lat="40.6695983" lon="15.3018633"><ele>438.0</ele><time>2026-04-25T08:52:43.865Z</time></trkpt><trkpt lat="40.6697467" lon="15.3019817"><ele>438.0</ele><time>2026-04-25T08:52:44.865Z</time></trkpt><trkpt lat="40.6698867" lon="15.3021117"><ele>438.0</ele><time>2026-04-25T08:52:45.864Z</time></trkpt><trkpt lat="40.670015" lon="15.3022617"><ele>438.0</ele><time>2026-04-25T08:52:46.865Z</time></trkpt><trkpt lat="40.6701383" lon="15.3024167"><ele>440.0</ele><time>2026-04-25T08:52:47.865Z</time></trkpt><trkpt lat="40.670265" lon="15.3025667"><ele>442.0</ele><time>2026-04-25T08:52:48.864Z</time></trkpt><trkpt lat="40.6703817" lon="15.3027117"><ele>444.0</ele><time>2026-04-25T08:52:49.864Z</time></trkpt><trkpt lat="40.6704983" lon="15.302845"><ele>444.0</ele><time>2026-04-25T08:52:50.865Z</time></trkpt><trkpt lat="40.6706167" lon="15.3029617"><ele>444.0</ele><time>2026-04-25T08:52:51.864Z</time></trkpt><trkpt lat="40.6707533" lon="15.30306"><ele>444.0</ele><time>2026-04-25T08:52:52.865Z</time></trkpt><trkpt lat="40.6709033" lon="15.3031433"><ele>448.66666666666663</ele><time>2026-04-25T08:52:53.865Z</time></trkpt><trkpt lat="40.6710633" lon="15.3032317"><ele>453.3333333333333</ele><time>2026-04-25T08:52:54.864Z</time></trkpt><trkpt lat="40.6712383" lon="15.3033267"><ele>458.0</ele><time>2026-04-25T08:52:55.865Z</time></trkpt><trkpt lat="40.6714183" lon="15.3034333"><ele>458.0</ele><time>2026-04-25T08:52:56.865Z</time></trkpt><trkpt lat="40.67159" lon="15.30353"><ele>458.0</ele><time>2026-04-25T08:52:57.865Z</time></trkpt><trkpt lat="40.6717467" lon="15.3036183"><ele>458.0</ele><time>2026-04-25T08:52:58.864Z</time></trkpt><trkpt lat="40.6718967" lon="15.3037"><ele>459.0</ele><time>2026-04-25T08:52:59.865Z</time></trkpt><trkpt lat="40.6720333" lon="15.3037733"><ele>460.0</ele><time>2026-04-25T08:53:00.864Z</time></trkpt><trkpt lat="40.67216" lon="15.30385"><ele>461.0</ele><time>2026-04-25T08:53:01.864Z</time></trkpt><trkpt lat="40.672285" lon="15.3039267"><ele>462.0</ele><time>2026-04-25T08:53:02.864Z</time></trkpt><trkpt lat="40.6724167" lon="15.304"><ele>462.75</ele><time>2026-04-25T08:53:03.864Z</time></trkpt><trkpt lat="40.67254" lon="15.3040717"><ele>463.5</ele><time>2026-04-25T08:53:04.865Z</time></trkpt><trkpt lat="40.6726383" lon="15.3041533"><ele>464.25</ele><time>2026-04-25T08:53:05.864Z</time></trkpt><trkpt lat="40.6727183" lon="15.30426"><ele>465.0</ele><time>2026-04-25T08:53:06.865Z</time></trkpt><trkpt lat="40.6727867" lon="15.30439"><ele>463.5</ele><time>2026-04-25T08:53:07.865Z</time></trkpt><trkpt lat="40.6728333" lon="15.3045317"><ele>462.0</ele><time>2026-04-25T08:53:08.865Z</time></trkpt><trkpt lat="40.6728583" lon="15.3046867"><ele>460.5</ele><time>2026-04-25T08:53:09.865Z</time></trkpt><trkpt lat="40.6728717" lon="15.3048533"><ele>459.0</ele><time>2026-04-25T08:53:10.864Z</time></trkpt><trkpt lat="40.6728567" lon="15.3050333"><ele>459.0</ele><time>2026-04-25T08:53:11.864Z</time></trkpt><trkpt lat="40.6728317" lon="15.3052217"><ele>459.0</ele><time>2026-04-25T08:53:12.864Z</time></trkpt><trkpt lat="40.67279" lon="15.305415"><ele>459.0</ele><time>2026-04-25T08:53:13.864Z</time></trkpt><trkpt lat="40.6727417" lon="15.3056067"><ele>461.25</ele><time>2026-04-25T08:53:14.865Z</time></trkpt><trkpt lat="40.672695" lon="15.3057867"><ele>463.5</ele><time>2026-04-25T08:53:15.864Z</time></trkpt><trkpt lat="40.6726467" lon="15.3059533"><ele>465.75</ele><time>2026-04-25T08:53:16.865Z</time></trkpt><trkpt lat="40.6726033" lon="15.3061117"><ele>468.0</ele><time>2026-04-25T08:53:17.865Z</time></trkpt><trkpt lat="40.6725667" lon="15.306255"><ele>468.0</ele><time>2026-04-25T08:53:18.864Z</time></trkpt><trkpt lat="40.67255" lon="15.306395"><ele>467.99999999999994</ele><time>2026-04-25T08:53:19.865Z</time></trkpt><trkpt lat="40.672565" lon="15.3065283"><ele>467.99999999999994</ele><time>2026-04-25T08:53:20.865Z</time></trkpt><trkpt lat="40.672615" lon="15.306645"><ele>468.0</ele><time>2026-04-25T08:53:21.864Z</time></trkpt><trkpt lat="40.6726817" lon="15.3067433"><ele>468.0</ele><time>2026-04-25T08:53:22.864Z</time></trkpt><trkpt lat="40.67275" lon="15.3068433"><ele>464.5</ele><time>2026-04-25T08:53:23.865Z</time></trkpt><trkpt lat="40.6728267" lon="15.3069383"><ele>461.0</ele><time>2026-04-25T08:53:24.865Z</time></trkpt><trkpt lat="40.6729317" lon="15.3070217"><ele>457.5</ele><time>2026-04-25T08:53:25.864Z</time></trkpt><trkpt lat="40.6730517" lon="15.3071067"><ele>454.0</ele><time>2026-04-25T08:53:26.864Z</time></trkpt><trkpt lat="40.6732" lon="15.3071767"><ele>454.0</ele><time>2026-04-25T08:53:27.865Z</time></trkpt><trkpt lat="40.6733383" lon="15.3072417"><ele>454.0</ele><time>2026-04-25T08:53:28.865Z</time></trkpt><trkpt lat="40.6734867" lon="15.3072983"><ele>454.0</ele><time>2026-04-25T08:53:29.864Z</time></trkpt><trkpt lat="40.673625" lon="15.3073533"><ele>454.0</ele><time>2026-04-25T08:53:30.864Z</time></trkpt><trkpt lat="40.67375" lon="15.3074117"><ele>452.79999999999995</ele><time>2026-04-25T08:53:31.864Z</time></trkpt><trkpt lat="40.6738533" lon="15.307485"><ele>451.59999999999997</ele><time>2026-04-25T08:53:32.865Z</time></trkpt><trkpt lat="40.6739283" lon="15.3075733"><ele>450.4</ele><time>2026-04-25T08:53:33.864Z</time></trkpt><trkpt lat="40.6739617" lon="15.3076867"><ele>449.2</ele><time>2026-04-25T08:53:34.864Z</time></trkpt><trkpt lat="40.6739717" lon="15.3078083"><ele>448.0</ele><time>2026-04-25T08:53:35.865Z</time></trkpt><trkpt lat="40.6739483" lon="15.3079367"><ele>448.0</ele><time>2026-04-25T08:53:36.864Z</time></trkpt><trkpt lat="40.673895" lon="15.3080667"><ele>447.99999999999994</ele><time>2026-04-25T08:53:37.865Z</time></trkpt><trkpt lat="40.6738367" lon="15.3081933"><ele>447.99999999999994</ele><time>2026-04-25T08:53:38.864Z</time></trkpt><trkpt lat="40.6738" lon="15.3083117"><ele>448.0</ele><time>2026-04-25T08:53:39.864Z</time></trkpt><trkpt lat="40.6738017" lon="15.3084317"><ele>448.0</ele><time>2026-04-25T08:53:40.865Z</time></trkpt><trkpt lat="40.6738433" lon="15.3085383"><ele>448.2</ele><time>2026-04-25T08:53:41.864Z</time></trkpt><trkpt lat="40.6739167" lon="15.308615"><ele>448.4</ele><time>2026-04-25T08:53:42.864Z</time></trkpt><trkpt lat="40.6739983" lon="15.3086533"><ele>448.59999999999997</ele><time>2026-04-25T08:53:43.865Z</time></trkpt><trkpt lat="40.6741133" lon="15.30865"><ele>448.79999999999995</ele><time>2026-04-25T08:53:44.865Z</time></trkpt><trkpt lat="40.6742317" lon="15.308645"><ele>449.0</ele><time>2026-04-25T08:53:45.864Z</time></trkpt><trkpt lat="40.674345" lon="15.3086583"><ele>446.75</ele><time>2026-04-25T08:53:46.864Z</time></trkpt><trkpt lat="40.674455" lon="15.3087183"><ele>444.5</ele><time>2026-04-25T08:53:47.864Z</time></trkpt><trkpt lat="40.67456" lon="15.3088167"><ele>442.25</ele><time>2026-04-25T08:53:48.865Z</time></trkpt><trkpt lat="40.6746633" lon="15.3089217"><ele>440.0</ele><time>2026-04-25T08:53:49.865Z</time></trkpt><trkpt lat="40.674755" lon="15.3090267"><ele>440.0</ele><time>2026-04-25T08:53:50.865Z</time></trkpt><trkpt lat="40.67483" lon="15.3091433"><ele>440.0</ele><time>2026-04-25T08:53:51.864Z</time></trkpt><trkpt lat="40.6748833" lon="15.3092783"><ele>440.0</ele><time>2026-04-25T08:53:52.864Z</time></trkpt><trkpt lat="40.674915" lon="15.309435"><ele>440.0</ele><time>2026-04-25T08:53:53.864Z</time></trkpt><trkpt lat="40.674925" lon="15.3096"><ele>440.25</ele><time>2026-04-25T08:53:54.865Z</time></trkpt><trkpt lat="40.674935" lon="15.3097717"><ele>440.5</ele><time>2026-04-25T08:53:55.864Z</time></trkpt><trkpt lat="40.6749467" lon="15.30994"><ele>440.75</ele><time>2026-04-25T08:53:56.864Z</time></trkpt><trkpt lat="40.6749633" lon="15.3101083"><ele>441.0</ele><time>2026-04-25T08:53:57.864Z</time></trkpt><trkpt lat="40.6749833" lon="15.31027"><ele>441.0</ele><time>2026-04-25T08:53:58.864Z</time></trkpt><trkpt lat="40.675005" lon="15.310435"><ele>441.0</ele><time>2026-04-25T08:53:59.864Z</time></trkpt><trkpt lat="40.6750283" lon="15.3105933"><ele>441.0</ele><time>2026-04-25T08:54:00.864Z</time></trkpt><trkpt lat="40.6750417" lon="15.310745"><ele>441.0</ele><time>2026-04-25T08:54:01.864Z</time></trkpt><trkpt lat="40.6750417" lon="15.3108767"><ele>440.4</ele><time>2026-04-25T08:54:02.865Z</time></trkpt><trkpt lat="40.6750317" lon="15.3109883"><ele>439.8</ele><time>2026-04-25T08:54:03.865Z</time></trkpt><trkpt lat="40.67503" lon="15.3110717"><ele>439.19999999999993</ele><time>2026-04-25T08:54:04.864Z</time></trkpt><trkpt lat="40.6750733" lon="15.3111833"><ele>438.59999999999997</ele><time>2026-04-25T08:54:06.864Z</time></trkpt><trkpt lat="40.67521" lon="15.31121"><ele>438.0</ele><time>2026-04-25T08:54:08.865Z</time></trkpt><trkpt lat="40.6753083" lon="15.3111983"><ele>437.0</ele><time>2026-04-25T08:54:09.864Z</time></trkpt><trkpt lat="40.675425" lon="15.3111867"><ele>436.0</ele><time>2026-04-25T08:54:10.865Z</time></trkpt><trkpt lat="40.6755667" lon="15.3111733"><ele>435.0</ele><time>2026-04-25T08:54:11.865Z</time></trkpt><trkpt lat="40.6757217" lon="15.3111617"><ele>434.0</ele><time>2026-04-25T08:54:12.865Z</time></trkpt><trkpt lat="40.6758917" lon="15.3111517"><ele>434.0</ele><time>2026-04-25T08:54:13.865Z</time></trkpt><trkpt lat="40.6760767" lon="15.311135"><ele>434.0</ele><time>2026-04-25T08:54:14.865Z</time></trkpt><trkpt lat="40.6762733" lon="15.31113"><ele>434.0</ele><time>2026-04-25T08:54:15.864Z</time></trkpt><trkpt lat="40.6764767" lon="15.3111167"><ele>436.0</ele><time>2026-04-25T08:54:16.864Z</time></trkpt><trkpt lat="40.6766733" lon="15.311095"><ele>438.0</ele><time>2026-04-25T08:54:17.864Z</time></trkpt><trkpt lat="40.6768583" lon="15.311075"><ele>440.0</ele><time>2026-04-25T08:54:18.865Z</time></trkpt><trkpt lat="40.677035" lon="15.311055"><ele>441.3333333333333</ele><time>2026-04-25T08:54:19.864Z</time></trkpt><trkpt lat="40.6771933" lon="15.31104"><ele>442.66666666666663</ele><time>2026-04-25T08:54:20.864Z</time></trkpt><trkpt lat="40.67735" lon="15.31103"><ele>444.0</ele><time>2026-04-25T08:54:21.865Z</time></trkpt><trkpt lat="40.67752" lon="15.3110133"><ele>444.0</ele><time>2026-04-25T08:54:22.864Z</time></trkpt><trkpt lat="40.6776767" lon="15.311"><ele>444.0</ele><time>2026-04-25T08:54:23.865Z</time></trkpt><trkpt lat="40.677835" lon="15.3109933"><ele>444.0</ele><time>2026-04-25T08:54:24.864Z</time></trkpt><trkpt lat="40.67799" lon="15.3109833"><ele>445.0</ele><time>2026-04-25T08:54:25.864Z</time></trkpt><trkpt lat="40.67815" lon="15.3109733"><ele>446.0</ele><time>2026-04-25T08:54:26.864Z</time></trkpt><trkpt lat="40.6783067" lon="15.3109533"><ele>447.0</ele><time>2026-04-25T08:54:27.865Z</time></trkpt><trkpt lat="40.6784617" lon="15.31094"><ele>448.25</ele><time>2026-04-25T08:54:28.865Z</time></trkpt><trkpt lat="40.678615" lon="15.3109217"><ele>449.5</ele><time>2026-04-25T08:54:29.864Z</time></trkpt><trkpt lat="40.6787533" lon="15.3109133"><ele>450.75</ele><time>2026-04-25T08:54:30.865Z</time></trkpt><trkpt lat="40.6788783" lon="15.3109033"><ele>452.0</ele><time>2026-04-25T08:54:31.865Z</time></trkpt><trkpt lat="40.6789817" lon="15.3109083"><ele>451.99999999999994</ele><time>2026-04-25T08:54:32.864Z</time></trkpt><trkpt lat="40.6790517" lon="15.3109067"><ele>452.0</ele><time>2026-04-25T08:54:33.864Z</time></trkpt><trkpt lat="40.679135" lon="15.3108983"><ele>452.0</ele><time>2026-04-25T08:54:35.864Z</time></trkpt><trkpt lat="40.6791717" lon="15.31079"><ele>452.0</ele><time>2026-04-25T08:54:38.864Z</time></trkpt><trkpt lat="40.67917" lon="15.310705"><ele>451.99999999999994</ele><time>2026-04-25T08:54:39.865Z</time></trkpt><trkpt lat="40.679155" lon="15.3105967"><ele>452.0</ele><time>2026-04-25T08:54:40.865Z</time></trkpt><trkpt lat="40.6791317" lon="15.310455"><ele>452.75</ele><time>2026-04-25T08:54:41.865Z</time></trkpt><trkpt lat="40.6791067" lon="15.310295"><ele>453.5</ele><time>2026-04-25T08:54:42.865Z</time></trkpt><trkpt lat="40.6790783" lon="15.3101317"><ele>454.25</ele><time>2026-04-25T08:54:43.865Z</time></trkpt><trkpt lat="40.6790467" lon="15.309955"><ele>455.0</ele><time>2026-04-25T08:54:44.864Z</time></trkpt><trkpt lat="40.6790167" lon="15.3097733"><ele>455.5</ele><time>2026-04-25T08:54:45.865Z</time></trkpt><trkpt lat="40.678985" lon="15.3095983"><ele>456.0</ele><time>2026-04-25T08:54:46.865Z</time></trkpt><trkpt lat="40.6789567" lon="15.3094217"><ele>456.5</ele><time>2026-04-25T08:54:47.864Z</time></trkpt><trkpt lat="40.67893" lon="15.3092433"><ele>457.0</ele><time>2026-04-25T08:54:48.865Z</time></trkpt><trkpt lat="40.67892" lon="15.309075"><ele>457.0</ele><time>2026-04-25T08:54:49.864Z</time></trkpt><trkpt lat="40.6789283" lon="15.3089"><ele>457.0</ele><time>2026-04-25T08:54:50.864Z</time></trkpt><trkpt lat="40.6789567" lon="15.30873"><ele>457.0</ele><time>2026-04-25T08:54:51.864Z</time></trkpt><trkpt lat="40.678985" lon="15.3085417"><ele>457.0</ele><time>2026-04-25T08:54:52.864Z</time></trkpt><trkpt lat="40.67902" lon="15.308345"><ele>457.0</ele><time>2026-04-25T08:54:53.864Z</time></trkpt><trkpt lat="40.679055" lon="15.3081417"><ele>457.0</ele><time>2026-04-25T08:54:54.864Z</time></trkpt><trkpt lat="40.67909" lon="15.30793"><ele>457.0</ele><time>2026-04-25T08:54:55.864Z</time></trkpt><trkpt lat="40.67913" lon="15.3077067"><ele>456.6666666666667</ele><time>2026-04-25T08:54:56.865Z</time></trkpt><trkpt lat="40.6791617" lon="15.3074717"><ele>456.33333333333337</ele><time>2026-04-25T08:54:57.865Z</time></trkpt><trkpt lat="40.6791833" lon="15.3072367"><ele>456.0</ele><time>2026-04-25T08:54:58.864Z</time></trkpt><trkpt lat="40.6792033" lon="15.3070117"><ele>455.33333333333337</ele><time>2026-04-25T08:54:59.864Z</time></trkpt><trkpt lat="40.679225" lon="15.3067883"><ele>454.6666666666667</ele><time>2026-04-25T08:55:00.864Z</time></trkpt><trkpt lat="40.6792567" lon="15.3065633"><ele>454.0</ele><time>2026-04-25T08:55:01.865Z</time></trkpt><trkpt lat="40.6793017" lon="15.3063583"><ele>454.33333333333337</ele><time>2026-04-25T08:55:02.864Z</time></trkpt><trkpt lat="40.67936" lon="15.3061667"><ele>454.66666666666663</ele><time>2026-04-25T08:55:03.864Z</time></trkpt><trkpt lat="40.6794233" lon="15.3059783"><ele>455.0</ele><time>2026-04-25T08:55:04.864Z</time></trkpt><trkpt lat="40.67949" lon="15.30579"><ele>455.0</ele><time>2026-04-25T08:55:05.864Z</time></trkpt><trkpt lat="40.67956" lon="15.30561"><ele>455.0</ele><time>2026-04-25T08:55:06.864Z</time></trkpt><trkpt lat="40.6796317" lon="15.3054333"><ele>455.0</ele><time>2026-04-25T08:55:07.864Z</time></trkpt><trkpt lat="40.6797033" lon="15.30526"><ele>453.66666666666663</ele><time>2026-04-25T08:55:08.864Z</time></trkpt><trkpt lat="40.6797733" lon="15.30508"><ele>452.33333333333337</ele><time>2026-04-25T08:55:09.864Z</time></trkpt><trkpt lat="40.6798433" lon="15.3048933"><ele>451.0</ele><time>2026-04-25T08:55:10.864Z</time></trkpt><trkpt lat="40.6799183" lon="15.3047017"><ele>450.0</ele><time>2026-04-25T08:55:11.865Z</time></trkpt><trkpt lat="40.68" lon="15.30452"><ele>449.0</ele><time>2026-04-25T08:55:12.864Z</time></trkpt><trkpt lat="40.680075" lon="15.30436"><ele>448.0</ele><time>2026-04-25T08:55:13.864Z</time></trkpt><trkpt lat="40.6801617" lon="15.3042017"><ele>448.0</ele><time>2026-04-25T08:55:14.865Z</time></trkpt><trkpt lat="40.68025" lon="15.30405"><ele>448.0</ele><time>2026-04-25T08:55:15.864Z</time></trkpt><trkpt lat="40.6803383" lon="15.3038883"><ele>448.0</ele><time>2026-04-25T08:55:16.865Z</time></trkpt><trkpt lat="40.68043" lon="15.3037283"><ele>448.0</ele><time>2026-04-25T08:55:17.864Z</time></trkpt><trkpt lat="40.68053" lon="15.3035617"><ele>446.25</ele><time>2026-04-25T08:55:18.864Z</time></trkpt><trkpt lat="40.6806233" lon="15.3034083"><ele>444.5</ele><time>2026-04-25T08:55:19.864Z</time></trkpt><trkpt lat="40.6807083" lon="15.303255"><ele>442.75</ele><time>2026-04-25T08:55:20.865Z</time></trkpt><trkpt lat="40.6807833" lon="15.3030883"><ele>441.0</ele><time>2026-04-25T08:55:21.864Z</time></trkpt><trkpt lat="40.68084" lon="15.3029033"><ele>439.66666666666663</ele><time>2026-04-25T08:55:22.865Z</time></trkpt><trkpt lat="40.6808817" lon="15.3027033"><ele>438.3333333333333</ele><time>2026-04-25T08:55:23.865Z</time></trkpt><trkpt lat="40.6809117" lon="15.302485"><ele>437.0</ele><time>2026-04-25T08:55:24.864Z</time></trkpt><trkpt lat="40.68094" lon="15.3022617"><ele>434.66666666666663</ele><time>2026-04-25T08:55:25.864Z</time></trkpt><trkpt lat="40.680975" lon="15.3020367"><ele>432.33333333333337</ele><time>2026-04-25T08:55:26.864Z</time></trkpt><trkpt lat="40.681005" lon="15.3018083"><ele>430.0</ele><time>2026-04-25T08:55:27.865Z</time></trkpt><trkpt lat="40.6810417" lon="15.3015833"><ele>428.6666666666667</ele><time>2026-04-25T08:55:28.864Z</time></trkpt><trkpt lat="40.6810683" lon="15.3013667"><ele>427.33333333333337</ele><time>2026-04-25T08:55:29.865Z</time></trkpt><trkpt lat="40.68109" lon="15.3011567"><ele>426.0</ele><time>2026-04-25T08:55:30.865Z</time></trkpt><trkpt lat="40.6811167" lon="15.3009467"><ele>423.33333333333337</ele><time>2026-04-25T08:55:31.865Z</time></trkpt><trkpt lat="40.6811417" lon="15.30074"><ele>420.6666666666667</ele><time>2026-04-25T08:55:32.864Z</time></trkpt><trkpt lat="40.6811583" lon="15.300535"><ele>418.0</ele><time>2026-04-25T08:55:33.865Z</time></trkpt><trkpt lat="40.6811667" lon="15.3003283"><ele>417.6666666666667</ele><time>2026-04-25T08:55:34.864Z</time></trkpt><trkpt lat="40.6811583" lon="15.3001233"><ele>417.33333333333337</ele><time>2026-04-25T08:55:35.864Z</time></trkpt><trkpt lat="40.68114" lon="15.2999267"><ele>417.0</ele><time>2026-04-25T08:55:36.865Z</time></trkpt><trkpt lat="40.6811117" lon="15.2997383"><ele>416.6</ele><time>2026-04-25T08:55:37.865Z</time></trkpt><trkpt lat="40.6810933" lon="15.2995717"><ele>416.20000000000005</ele><time>2026-04-25T08:55:38.865Z</time></trkpt><trkpt lat="40.6810833" lon="15.2994317"><ele>415.8</ele><time>2026-04-25T08:55:39.864Z</time></trkpt><trkpt lat="40.681075" lon="15.2993167"><ele>415.4</ele><time>2026-04-25T08:55:40.864Z</time></trkpt><trkpt lat="40.6810667" lon="15.29923"><ele>415.0</ele><time>2026-04-25T08:55:41.865Z</time></trkpt><trkpt lat="40.6810333" lon="15.299145"><ele>415.0</ele><time>2026-04-25T08:55:43.865Z</time></trkpt><trkpt lat="40.68096" lon="15.2991283"><ele>415.0</ele><time>2026-04-25T08:55:45.865Z</time></trkpt><trkpt lat="40.680815" lon="15.2991533"><ele>415.0</ele><time>2026-04-25T08:55:47.864Z</time></trkpt><trkpt lat="40.6807133" lon="15.299175"><ele>415.0</ele><time>2026-04-25T08:55:48.864Z</time></trkpt><trkpt lat="40.6806033" lon="15.2992183"><ele>415.0</ele><time>2026-04-25T08:55:49.865Z</time></trkpt><trkpt lat="40.6804933" lon="15.29928"><ele>415.0</ele><time>2026-04-25T08:55:50.864Z</time></trkpt><trkpt lat="40.6803783" lon="15.2993583"><ele>415.0</ele><time>2026-04-25T08:55:51.865Z</time></trkpt><trkpt lat="40.680255" lon="15.299425"><ele>415.0</ele><time>2026-04-25T08:55:52.865Z</time></trkpt><trkpt lat="40.68013" lon="15.29948"><ele>415.0</ele><time>2026-04-25T08:55:53.864Z</time></trkpt><trkpt lat="40.6800067" lon="15.2995117"><ele>414.75</ele><time>2026-04-25T08:55:54.864Z</time></trkpt><trkpt lat="40.67988" lon="15.29953"><ele>414.5</ele><time>2026-04-25T08:55:55.864Z</time></trkpt><trkpt lat="40.679755" lon="15.2995333"><ele>414.25</ele><time>2026-04-25T08:55:56.864Z</time></trkpt><trkpt lat="40.6796317" lon="15.29953"><ele>414.0</ele><time>2026-04-25T08:55:57.865Z</time></trkpt><trkpt lat="40.6795017" lon="15.2995433"><ele>413.33333333333337</ele><time>2026-04-25T08:55:58.864Z</time></trkpt><trkpt lat="40.6793667" lon="15.2995883"><ele>412.6666666666667</ele><time>2026-04-25T08:55:59.864Z</time></trkpt><trkpt lat="40.6792233" lon="15.2996617"><ele>412.0</ele><time>2026-04-25T08:56:00.865Z</time></trkpt><trkpt lat="40.67907" lon="15.2997333"><ele>412.75</ele><time>2026-04-25T08:56:01.864Z</time></trkpt><trkpt lat="40.6789233" lon="15.2998067"><ele>413.5</ele><time>2026-04-25T08:56:02.865Z</time></trkpt><trkpt lat="40.6787833" lon="15.2998633"><ele>414.25</ele><time>2026-04-25T08:56:03.864Z</time></trkpt><trkpt lat="40.6786567" lon="15.2999117"><ele>415.0</ele><time>2026-04-25T08:56:04.864Z</time></trkpt><trkpt lat="40.6785417" lon="15.29995"><ele>415.00000000000006</ele><time>2026-04-25T08:56:05.864Z</time></trkpt><trkpt lat="40.6784383" lon="15.2999683"><ele>415.0</ele><time>2026-04-25T08:56:06.864Z</time></trkpt><trkpt lat="40.6783483" lon="15.2999683"><ele>415.0</ele><time>2026-04-25T08:56:07.864Z</time></trkpt><trkpt lat="40.6782583" lon="15.2999533"><ele>415.0</ele><time>2026-04-25T08:56:08.865Z</time></trkpt><trkpt lat="40.6781883" lon="15.2999283"><ele>415.00000000000006</ele><time>2026-04-25T08:56:09.865Z</time></trkpt><trkpt lat="40.6781267" lon="15.29987"><ele>415.0</ele><time>2026-04-25T08:56:10.864Z</time></trkpt><trkpt lat="40.6780583" lon="15.299775"><ele>413.5</ele><time>2026-04-25T08:56:11.865Z</time></trkpt><trkpt lat="40.677975" lon="15.2996483"><ele>412.0</ele><time>2026-04-25T08:56:12.865Z</time></trkpt><trkpt lat="40.677885" lon="15.2995083"><ele>410.5</ele><time>2026-04-25T08:56:13.864Z</time></trkpt><trkpt lat="40.6777933" lon="15.2993717"><ele>409.0</ele><time>2026-04-25T08:56:14.865Z</time></trkpt><trkpt lat="40.677705" lon="15.2992333"><ele>408.75</ele><time>2026-04-25T08:56:15.864Z</time></trkpt><trkpt lat="40.67764" lon="15.29908"><ele>408.5</ele><time>2026-04-25T08:56:16.864Z</time></trkpt><trkpt lat="40.6775817" lon="15.2989"><ele>408.25</ele><time>2026-04-25T08:56:17.865Z</time></trkpt><trkpt lat="40.67753" lon="15.29872"><ele>408.0</ele><time>2026-04-25T08:56:18.865Z</time></trkpt><trkpt lat="40.677485" lon="15.29854"><ele>407.25</ele><time>2026-04-25T08:56:19.865Z</time></trkpt><trkpt lat="40.677455" lon="15.29837"><ele>406.5</ele><time>2026-04-25T08:56:20.864Z</time></trkpt><trkpt lat="40.6774217" lon="15.2982017"><ele>405.75</ele><time>2026-04-25T08:56:21.864Z</time></trkpt><trkpt lat="40.6773817" lon="15.2980467"><ele>405.0</ele><time>2026-04-25T08:56:22.864Z</time></trkpt><trkpt lat="40.677325" lon="15.2979067"><ele>404.0</ele><time>2026-04-25T08:56:23.864Z</time></trkpt><trkpt lat="40.6772617" lon="15.2977783"><ele>403.0</ele><time>2026-04-25T08:56:24.864Z</time></trkpt><trkpt lat="40.67719" lon="15.2976567"><ele>402.0</ele><time>2026-04-25T08:56:25.865Z</time></trkpt><trkpt lat="40.6771133" lon="15.297555"><ele>401.0</ele><time>2026-04-25T08:56:26.864Z</time></trkpt><trkpt lat="40.677045" lon="15.2974633"><ele>400.0</ele><time>2026-04-25T08:56:27.865Z</time></trkpt><trkpt lat="40.677" lon="15.2973633"><ele>398.8</ele><time>2026-04-25T08:56:28.865Z</time></trkpt><trkpt lat="40.6769833" lon="15.29725"><ele>397.6</ele><time>2026-04-25T08:56:29.865Z</time></trkpt><trkpt lat="40.6769983" lon="15.2971283"><ele>396.4</ele><time>2026-04-25T08:56:30.865Z</time></trkpt><trkpt lat="40.6770417" lon="15.2970017"><ele>395.2</ele><time>2026-04-25T08:56:31.865Z</time></trkpt><trkpt lat="40.6771" lon="15.2968783"><ele>394.0</ele><time>2026-04-25T08:56:32.864Z</time></trkpt><trkpt lat="40.67717" lon="15.2967417"><ele>394.0</ele><time>2026-04-25T08:56:33.865Z</time></trkpt><trkpt lat="40.6772483" lon="15.2965933"><ele>394.0</ele><time>2026-04-25T08:56:34.865Z</time></trkpt><trkpt lat="40.6773317" lon="15.2964283"><ele>394.0</ele><time>2026-04-25T08:56:35.864Z</time></trkpt><trkpt lat="40.6774283" lon="15.2962567"><ele>394.33333333333337</ele><time>2026-04-25T08:56:36.865Z</time></trkpt><trkpt lat="40.677535" lon="15.296085"><ele>394.66666666666663</ele><time>2026-04-25T08:56:37.864Z</time></trkpt><trkpt lat="40.677655" lon="15.295925"><ele>395.0</ele><time>2026-04-25T08:56:38.865Z</time></trkpt><trkpt lat="40.6777733" lon="15.2957817"><ele>395.5</ele><time>2026-04-25T08:56:39.865Z</time></trkpt><trkpt lat="40.6778817" lon="15.2956467"><ele>396.0</ele><time>2026-04-25T08:56:40.864Z</time></trkpt><trkpt lat="40.6779733" lon="15.2955133"><ele>396.5</ele><time>2026-04-25T08:56:41.865Z</time></trkpt><trkpt lat="40.6780617" lon="15.2953783"><ele>397.0</ele><time>2026-04-25T08:56:42.865Z</time></trkpt><trkpt lat="40.6781383" lon="15.295235"><ele>397.25</ele><time>2026-04-25T08:56:43.864Z</time></trkpt><trkpt lat="40.6782083" lon="15.2950767"><ele>397.5</ele><time>2026-04-25T08:56:44.864Z</time></trkpt><trkpt lat="40.6782683" lon="15.2949067"><ele>397.75</ele><time>2026-04-25T08:56:45.865Z</time></trkpt><trkpt lat="40.6783167" lon="15.2947283"><ele>398.0</ele><time>2026-04-25T08:56:46.864Z</time></trkpt><trkpt lat="40.6783633" lon="15.2945467"><ele>398.0</ele><time>2026-04-25T08:56:47.865Z</time></trkpt><trkpt lat="40.6784167" lon="15.2943667"><ele>398.0</ele><time>2026-04-25T08:56:48.865Z</time></trkpt><trkpt lat="40.678475" lon="15.2941967"><ele>398.0</ele><time>2026-04-25T08:56:49.864Z</time></trkpt><trkpt lat="40.6785383" lon="15.29403"><ele>398.0</ele><time>2026-04-25T08:56:50.864Z</time></trkpt><trkpt lat="40.6786017" lon="15.2938683"><ele>398.5</ele><time>2026-04-25T08:56:51.865Z</time></trkpt><trkpt lat="40.6786733" lon="15.2937217"><ele>399.0</ele><time>2026-04-25T08:56:52.865Z</time></trkpt><trkpt lat="40.67874" lon="15.2936"><ele>399.5</ele><time>2026-04-25T08:56:53.864Z</time></trkpt><trkpt lat="40.6787983" lon="15.2934917"><ele>400.0</ele><time>2026-04-25T08:56:54.865Z</time></trkpt><trkpt lat="40.6788633" lon="15.2933833"><ele>400.0</ele><time>2026-04-25T08:56:55.865Z</time></trkpt><trkpt lat="40.6789167" lon="15.29329"><ele>400.0</ele><time>2026-04-25T08:56:56.864Z</time></trkpt><trkpt lat="40.67897" lon="15.2931933"><ele>400.0</ele><time>2026-04-25T08:56:57.865Z</time></trkpt><trkpt lat="40.6790233" lon="15.2931017"><ele>400.0</ele><time>2026-04-25T08:56:58.865Z</time></trkpt><trkpt lat="40.679075" lon="15.293"><ele>400.0</ele><time>2026-04-25T08:56:59.865Z</time></trkpt><trkpt lat="40.6791267" lon="15.2928983"><ele>400.4</ele><time>2026-04-25T08:57:00.865Z</time></trkpt><trkpt lat="40.6791767" lon="15.2927967"><ele>400.8</ele><time>2026-04-25T08:57:01.865Z</time></trkpt><trkpt lat="40.6792283" lon="15.2926833"><ele>401.20000000000005</ele><time>2026-04-25T08:57:02.865Z</time></trkpt><trkpt lat="40.679285" lon="15.2925767"><ele>401.6</ele><time>2026-04-25T08:57:03.864Z</time></trkpt><trkpt lat="40.6793417" lon="15.2924817"><ele>402.0</ele><time>2026-04-25T08:57:04.865Z</time></trkpt><trkpt lat="40.6793983" lon="15.29239"><ele>401.6666666666667</ele><time>2026-04-25T08:57:05.864Z</time></trkpt><trkpt lat="40.6794483" lon="15.292305"><ele>401.33333333333337</ele><time>2026-04-25T08:57:06.865Z</time></trkpt><trkpt lat="40.6794967" lon="15.2922267"><ele>401.0</ele><time>2026-04-25T08:57:07.865Z</time></trkpt><trkpt lat="40.679535" lon="15.2921567"><ele>400.6666666666667</ele><time>2026-04-25T08:57:08.865Z</time></trkpt><trkpt lat="40.6795883" lon="15.2920517"><ele>400.33333333333337</ele><time>2026-04-25T08:57:10.865Z</time></trkpt><trkpt lat="40.679625" lon="15.2919667"><ele>400.0</ele><time>2026-04-25T08:57:13.864Z</time></trkpt><trkpt lat="40.6795567" lon="15.29192"><ele>400.0</ele><time>2026-04-25T08:57:16.864Z</time></trkpt><trkpt lat="40.67948" lon="15.2920833"><ele>400.0</ele><time>2026-04-25T08:57:18.864Z</time></trkpt><trkpt lat="40.6794217" lon="15.2922133"><ele>400.0</ele><time>2026-04-25T08:57:19.864Z</time></trkpt><trkpt lat="40.679345" lon="15.292365"><ele>400.0</ele><time>2026-04-25T08:57:20.864Z</time></trkpt><trkpt lat="40.67926" lon="15.2925117"><ele>400.5</ele><time>2026-04-25T08:57:21.865Z</time></trkpt><trkpt lat="40.6791783" lon="15.2926483"><ele>401.0</ele><time>2026-04-25T08:57:22.865Z</time></trkpt><trkpt lat="40.6791067" lon="15.2927717"><ele>401.5</ele><time>2026-04-25T08:57:23.865Z</time></trkpt><trkpt lat="40.6790417" lon="15.2928883"><ele>402.0</ele><time>2026-04-25T08:57:24.864Z</time></trkpt><trkpt lat="40.6789817" lon="15.2930033"><ele>401.6</ele><time>2026-04-25T08:57:25.864Z</time></trkpt><trkpt lat="40.6789267" lon="15.293115"><ele>401.20000000000005</ele><time>2026-04-25T08:57:26.864Z</time></trkpt><trkpt lat="40.6788683" lon="15.2932267"><ele>400.8</ele><time>2026-04-25T08:57:27.864Z</time></trkpt><trkpt lat="40.6788033" lon="15.2933317"><ele>400.4</ele><time>2026-04-25T08:57:28.865Z</time></trkpt><trkpt lat="40.6787433" lon="15.29344"><ele>400.0</ele><time>2026-04-25T08:57:29.865Z</time></trkpt><trkpt lat="40.678685" lon="15.2935467"><ele>400.0</ele><time>2026-04-25T08:57:30.864Z</time></trkpt><trkpt lat="40.67863" lon="15.2936633"><ele>400.0</ele><time>2026-04-25T08:57:31.864Z</time></trkpt><trkpt lat="40.6785783" lon="15.2937833"><ele>400.0</ele><time>2026-04-25T08:57:32.864Z</time></trkpt><trkpt lat="40.6785333" lon="15.293895"><ele>400.0</ele><time>2026-04-25T08:57:33.865Z</time></trkpt><trkpt lat="40.6784917" lon="15.2939967"><ele>400.0</ele><time>2026-04-25T08:57:34.864Z</time></trkpt><trkpt lat="40.678455" lon="15.294085"><ele>399.6666666666667</ele><time>2026-04-25T08:57:35.865Z</time></trkpt><trkpt lat="40.6784267" lon="15.29416"><ele>399.33333333333337</ele><time>2026-04-25T08:57:36.865Z</time></trkpt><trkpt lat="40.6783933" lon="15.29424"><ele>399.0</ele><time>2026-04-25T08:57:38.865Z</time></trkpt><trkpt lat="40.6783467" lon="15.2943567"><ele>398.66666666666663</ele><time>2026-04-25T09:02:19.864Z</time></trkpt><trkpt lat="40.6783283" lon="15.2944433"><ele>398.3333333333333</ele><time>2026-04-25T09:02:20.863Z</time></trkpt><trkpt lat="40.6783067" lon="15.2945383"><ele>398.0</ele><time>2026-04-25T09:02:21.864Z</time></trkpt><trkpt lat="40.678285" lon="15.2946367"><ele>397.99999999999994</ele><time>2026-04-25T09:02:22.863Z</time></trkpt><trkpt lat="40.6782567" lon="15.2947417"><ele>398.0</ele><time>2026-04-25T09:02:23.864Z</time></trkpt><trkpt lat="40.6782267" lon="15.29485"><ele>398.0</ele><time>2026-04-25T09:02:24.864Z</time></trkpt><trkpt lat="40.6781983" lon="15.2949617"><ele>398.0</ele><time>2026-04-25T09:02:25.864Z</time></trkpt><trkpt lat="40.6781683" lon="15.2950717"><ele>397.99999999999994</ele><time>2026-04-25T09:02:26.863Z</time></trkpt><trkpt lat="40.6781283" lon="15.2951817"><ele>398.0</ele><time>2026-04-25T09:02:27.863Z</time></trkpt><trkpt lat="40.678075" lon="15.29529"><ele>398.2</ele><time>2026-04-25T09:02:28.863Z</time></trkpt><trkpt lat="40.67801" lon="15.295395"><ele>398.4</ele><time>2026-04-25T09:02:29.864Z</time></trkpt><trkpt lat="40.6779417" lon="15.2955017"><ele>398.59999999999997</ele><time>2026-04-25T09:02:30.864Z</time></trkpt><trkpt lat="40.6778633" lon="15.2955967"><ele>398.79999999999995</ele><time>2026-04-25T09:02:31.863Z</time></trkpt><trkpt lat="40.6777833" lon="15.295695"><ele>399.0</ele><time>2026-04-25T09:02:32.864Z</time></trkpt><trkpt lat="40.6777" lon="15.2957933"><ele>398.0</ele><time>2026-04-25T09:02:33.864Z</time></trkpt><trkpt lat="40.6776167" lon="15.2959033"><ele>397.0</ele><time>2026-04-25T09:02:34.863Z</time></trkpt><trkpt lat="40.677535" lon="15.2960183"><ele>396.0</ele><time>2026-04-25T09:02:35.863Z</time></trkpt><trkpt lat="40.6774483" lon="15.2961433"><ele>395.0</ele><time>2026-04-25T09:02:36.864Z</time></trkpt><trkpt lat="40.67737" lon="15.29627"><ele>395.0</ele><time>2026-04-25T09:02:37.864Z</time></trkpt><trkpt lat="40.6772983" lon="15.2964017"><ele>395.0</ele><time>2026-04-25T09:02:38.864Z</time></trkpt><trkpt lat="40.6772333" lon="15.2965367"><ele>395.0</ele><time>2026-04-25T09:02:39.863Z</time></trkpt><trkpt lat="40.6771617" lon="15.2966683"><ele>395.0</ele><time>2026-04-25T09:02:40.864Z</time></trkpt><trkpt lat="40.6771033" lon="15.2968033"><ele>394.8</ele><time>2026-04-25T09:02:41.864Z</time></trkpt><trkpt lat="40.6770417" lon="15.29694"><ele>394.6</ele><time>2026-04-25T09:02:42.863Z</time></trkpt><trkpt lat="40.67699" lon="15.2970817"><ele>394.4</ele><time>2026-04-25T09:02:43.863Z</time></trkpt><trkpt lat="40.6769567" lon="15.2972167"><ele>394.2</ele><time>2026-04-25T09:02:44.864Z</time></trkpt><trkpt lat="40.6769617" lon="15.2973367"><ele>394.0</ele><time>2026-04-25T09:02:45.863Z</time></trkpt><trkpt lat="40.6770017" lon="15.2974433"><ele>395.2</ele><time>2026-04-25T09:02:46.863Z</time></trkpt><trkpt lat="40.6770617" lon="15.297535"><ele>396.4</ele><time>2026-04-25T09:02:47.863Z</time></trkpt><trkpt lat="40.6771333" lon="15.2976233"><ele>397.6</ele><time>2026-04-25T09:02:48.864Z</time></trkpt><trkpt lat="40.6772083" lon="15.2977283"><ele>398.8</ele><time>2026-04-25T09:02:49.863Z</time></trkpt><trkpt lat="40.67727" lon="15.2978483"><ele>400.0</ele><time>2026-04-25T09:02:50.863Z</time></trkpt><trkpt lat="40.6773183" lon="15.297975"><ele>401.0</ele><time>2026-04-25T09:02:51.864Z</time></trkpt><trkpt lat="40.6773567" lon="15.2981133"><ele>402.0</ele><time>2026-04-25T09:02:52.864Z</time></trkpt><trkpt lat="40.6773867" lon="15.2982517"><ele>403.0</ele><time>2026-04-25T09:02:53.863Z</time></trkpt><trkpt lat="40.6774183" lon="15.2983967"><ele>404.0</ele><time>2026-04-25T09:02:54.863Z</time></trkpt><trkpt lat="40.6774567" lon="15.2985383"><ele>405.0</ele><time>2026-04-25T09:02:55.864Z</time></trkpt><trkpt lat="40.6774883" lon="15.298685"><ele>405.0</ele><time>2026-04-25T09:02:56.864Z</time></trkpt><trkpt lat="40.677525" lon="15.298835"><ele>405.0</ele><time>2026-04-25T09:02:57.864Z</time></trkpt><trkpt lat="40.6775733" lon="15.2989867"><ele>405.0</ele><time>2026-04-25T09:02:58.863Z</time></trkpt><trkpt lat="40.677635" lon="15.2991417"><ele>405.0</ele><time>2026-04-25T09:02:59.863Z</time></trkpt><trkpt lat="40.677715" lon="15.2992883"><ele>406.0</ele><time>2026-04-25T09:03:00.864Z</time></trkpt><trkpt lat="40.6778067" lon="15.299425"><ele>407.0</ele><time>2026-04-25T09:03:01.863Z</time></trkpt><trkpt lat="40.6779" lon="15.2995567"><ele>408.0</ele><time>2026-04-25T09:03:02.864Z</time></trkpt><trkpt lat="40.6779867" lon="15.29968"><ele>409.0</ele><time>2026-04-25T09:03:03.863Z</time></trkpt><trkpt lat="40.67807" lon="15.299795"><ele>410.2</ele><time>2026-04-25T09:03:04.864Z</time></trkpt><trkpt lat="40.6781567" lon="15.29988"><ele>411.4</ele><time>2026-04-25T09:03:05.863Z</time></trkpt><trkpt lat="40.678245" lon="15.299945"><ele>412.6</ele><time>2026-04-25T09:03:06.863Z</time></trkpt><trkpt lat="40.6783383" lon="15.2999833"><ele>413.8</ele><time>2026-04-25T09:03:07.863Z</time></trkpt><trkpt lat="40.6784267" lon="15.2999867"><ele>415.0</ele><time>2026-04-25T09:03:08.863Z</time></trkpt><trkpt lat="40.6785267" lon="15.2999767"><ele>416.0</ele><time>2026-04-25T09:03:09.864Z</time></trkpt><trkpt lat="40.678635" lon="15.299935"><ele>417.0</ele><time>2026-04-25T09:03:10.864Z</time></trkpt><trkpt lat="40.678745" lon="15.29988"><ele>418.0</ele><time>2026-04-25T09:03:11.864Z</time></trkpt><trkpt lat="40.6788667" lon="15.299815"><ele>419.0</ele><time>2026-04-25T09:03:12.863Z</time></trkpt><trkpt lat="40.6789933" lon="15.29976"><ele>417.75</ele><time>2026-04-25T09:03:13.863Z</time></trkpt><trkpt lat="40.679125" lon="15.299695"><ele>416.5</ele><time>2026-04-25T09:03:14.863Z</time></trkpt><trkpt lat="40.6792533" lon="15.2996367"><ele>415.25</ele><time>2026-04-25T09:03:15.864Z</time></trkpt><trkpt lat="40.6793767" lon="15.2995817"><ele>414.0</ele><time>2026-04-25T09:03:16.864Z</time></trkpt><trkpt lat="40.6795033" lon="15.2995417"><ele>414.0</ele><time>2026-04-25T09:03:17.863Z</time></trkpt><trkpt lat="40.679625" lon="15.29952"><ele>414.0</ele><time>2026-04-25T09:03:18.864Z</time></trkpt><trkpt lat="40.67975" lon="15.2995133"><ele>414.0</ele><time>2026-04-25T09:03:19.863Z</time></trkpt><trkpt lat="40.6798783" lon="15.2995067"><ele>414.0</ele><time>2026-04-25T09:03:20.863Z</time></trkpt><trkpt lat="40.6800067" lon="15.2995033"><ele>414.0</ele><time>2026-04-25T09:03:21.864Z</time></trkpt><trkpt lat="40.68013" lon="15.299475"><ele>414.0</ele><time>2026-04-25T09:03:22.863Z</time></trkpt><trkpt lat="40.6802567" lon="15.2994217"><ele>414.0</ele><time>2026-04-25T09:03:23.863Z</time></trkpt><trkpt lat="40.680375" lon="15.2993533"><ele>414.0</ele><time>2026-04-25T09:03:24.863Z</time></trkpt><trkpt lat="40.68049" lon="15.299275"><ele>414.2</ele><time>2026-04-25T09:03:25.864Z</time></trkpt><trkpt lat="40.6806033" lon="15.2992217"><ele>414.4</ele><time>2026-04-25T09:03:26.863Z</time></trkpt><trkpt lat="40.68071" lon="15.29919"><ele>414.6</ele><time>2026-04-25T09:03:27.864Z</time></trkpt><trkpt lat="40.680805" lon="15.2991817"><ele>414.8</ele><time>2026-04-25T09:03:28.864Z</time></trkpt><trkpt lat="40.6808883" lon="15.299175"><ele>415.0</ele><time>2026-04-25T09:03:29.864Z</time></trkpt><trkpt lat="40.6809783" lon="15.2991683"><ele>415.00000000000006</ele><time>2026-04-25T09:03:31.863Z</time></trkpt><trkpt lat="40.6810317" lon="15.2992283"><ele>415.0</ele><time>2026-04-25T09:03:34.864Z</time></trkpt><trkpt lat="40.68105" lon="15.2993683"><ele>415.0</ele><time>2026-04-25T09:03:36.864Z</time></trkpt><trkpt lat="40.6810567" lon="15.2994717"><ele>415.0</ele><time>2026-04-25T09:03:37.864Z</time></trkpt><trkpt lat="40.6810667" lon="15.2995933"><ele>415.00000000000006</ele><time>2026-04-25T09:03:38.863Z</time></trkpt><trkpt lat="40.6810833" lon="15.2997167"><ele>415.0</ele><time>2026-04-25T09:03:39.863Z</time></trkpt><trkpt lat="40.6810967" lon="15.29985"><ele>415.5</ele><time>2026-04-25T09:03:40.863Z</time></trkpt><trkpt lat="40.6811133" lon="15.2999983"><ele>416.0</ele><time>2026-04-25T09:03:41.863Z</time></trkpt><trkpt lat="40.6811283" lon="15.3001433"><ele>416.5</ele><time>2026-04-25T09:03:42.864Z</time></trkpt><trkpt lat="40.6811333" lon="15.3003"><ele>417.0</ele><time>2026-04-25T09:03:43.863Z</time></trkpt><trkpt lat="40.6811233" lon="15.3004733"><ele>417.25</ele><time>2026-04-25T09:03:44.864Z</time></trkpt><trkpt lat="40.68111" lon="15.3006533"><ele>417.5</ele><time>2026-04-25T09:03:45.864Z</time></trkpt><trkpt lat="40.68109" lon="15.3008483"><ele>417.75</ele><time>2026-04-25T09:03:46.864Z</time></trkpt><trkpt lat="40.6810633" lon="15.301055"><ele>418.0</ele><time>2026-04-25T09:03:47.864Z</time></trkpt><trkpt lat="40.6810317" lon="15.301265"><ele>422.0</ele><time>2026-04-25T09:03:48.864Z</time></trkpt><trkpt lat="40.6810067" lon="15.3014883"><ele>426.0</ele><time>2026-04-25T09:03:49.863Z</time></trkpt><trkpt lat="40.6809867" lon="15.3017033"><ele>430.0</ele><time>2026-04-25T09:03:50.864Z</time></trkpt><trkpt lat="40.680955" lon="15.3019267"><ele>430.0</ele><time>2026-04-25T09:03:51.863Z</time></trkpt><trkpt lat="40.6809267" lon="15.3021467"><ele>430.0</ele><time>2026-04-25T09:03:52.864Z</time></trkpt><trkpt lat="40.6808967" lon="15.302365"><ele>430.0</ele><time>2026-04-25T09:03:53.863Z</time></trkpt><trkpt lat="40.6808683" lon="15.3025817"><ele>432.33333333333337</ele><time>2026-04-25T09:03:54.863Z</time></trkpt><trkpt lat="40.6808383" lon="15.302795"><ele>434.66666666666663</ele><time>2026-04-25T09:03:55.864Z</time></trkpt><trkpt lat="40.68079" lon="15.3029767"><ele>437.0</ele><time>2026-04-25T09:03:56.864Z</time></trkpt><trkpt lat="40.680725" lon="15.3031417"><ele>438.3333333333333</ele><time>2026-04-25T09:03:57.863Z</time></trkpt><trkpt lat="40.6806417" lon="15.3033"><ele>439.66666666666663</ele><time>2026-04-25T09:03:58.864Z</time></trkpt><trkpt lat="40.68054" lon="15.303475"><ele>441.0</ele><time>2026-04-25T09:03:59.863Z</time></trkpt><trkpt lat="40.6804417" lon="15.3036483"><ele>441.0</ele><time>2026-04-25T09:04:00.864Z</time></trkpt><trkpt lat="40.6803383" lon="15.3038183"><ele>441.0</ele><time>2026-04-25T09:04:01.864Z</time></trkpt><trkpt lat="40.6802533" lon="15.3039783"><ele>441.0</ele><time>2026-04-25T09:04:02.864Z</time></trkpt><trkpt lat="40.6801583" lon="15.304155"><ele>443.33333333333337</ele><time>2026-04-25T09:04:03.863Z</time></trkpt><trkpt lat="40.6800733" lon="15.304335"><ele>445.6666666666667</ele><time>2026-04-25T09:04:04.864Z</time></trkpt><trkpt lat="40.6799883" lon="15.304515"><ele>448.0</ele><time>2026-04-25T09:04:05.863Z</time></trkpt><trkpt lat="40.679895" lon="15.3047"><ele>449.0</ele><time>2026-04-25T09:04:06.863Z</time></trkpt><trkpt lat="40.6798083" lon="15.30489"><ele>450.0</ele><time>2026-04-25T09:04:07.863Z</time></trkpt><trkpt lat="40.67972" lon="15.3050833"><ele>451.0</ele><time>2026-04-25T09:04:08.864Z</time></trkpt><trkpt lat="40.67964" lon="15.30528"><ele>451.0</ele><time>2026-04-25T09:04:09.863Z</time></trkpt><trkpt lat="40.6795567" lon="15.3054683"><ele>451.0</ele><time>2026-04-25T09:04:10.864Z</time></trkpt><trkpt lat="40.6794833" lon="15.3056617"><ele>451.0</ele><time>2026-04-25T09:04:11.863Z</time></trkpt><trkpt lat="40.6794167" lon="15.3058517"><ele>451.33333333333337</ele><time>2026-04-25T09:04:12.864Z</time></trkpt><trkpt lat="40.6793533" lon="15.3060417"><ele>451.66666666666663</ele><time>2026-04-25T09:04:13.864Z</time></trkpt><trkpt lat="40.679295" lon="15.3062417"><ele>452.0</ele><time>2026-04-25T09:04:14.863Z</time></trkpt><trkpt lat="40.6792467" lon="15.3064467"><ele>452.66666666666663</ele><time>2026-04-25T09:04:15.864Z</time></trkpt><trkpt lat="40.679205" lon="15.3066517"><ele>453.33333333333337</ele><time>2026-04-25T09:04:16.864Z</time></trkpt><trkpt lat="40.679175" lon="15.3068683"><ele>454.0</ele><time>2026-04-25T09:04:17.863Z</time></trkpt><trkpt lat="40.679155" lon="15.3070783"><ele>454.6666666666667</ele><time>2026-04-25T09:04:18.864Z</time></trkpt><trkpt lat="40.6791317" lon="15.3072783"><ele>455.33333333333337</ele><time>2026-04-25T09:04:19.864Z</time></trkpt><trkpt lat="40.679115" lon="15.3074817"><ele>456.0</ele><time>2026-04-25T09:04:20.864Z</time></trkpt><trkpt lat="40.679095" lon="15.3076767"><ele>456.0</ele><time>2026-04-25T09:04:21.863Z</time></trkpt><trkpt lat="40.679065" lon="15.3078717"><ele>456.0</ele><time>2026-04-25T09:04:22.864Z</time></trkpt><trkpt lat="40.679025" lon="15.3080633"><ele>456.0</ele><time>2026-04-25T09:04:23.863Z</time></trkpt><trkpt lat="40.678995" lon="15.3082483"><ele>456.0</ele><time>2026-04-25T09:04:24.864Z</time></trkpt><trkpt lat="40.6789583" lon="15.3084367"><ele>456.25</ele><time>2026-04-25T09:04:25.863Z</time></trkpt><trkpt lat="40.6789167" lon="15.3086217"><ele>456.5</ele><time>2026-04-25T09:04:26.863Z</time></trkpt><trkpt lat="40.678885" lon="15.3088083"><ele>456.75</ele><time>2026-04-25T09:04:27.864Z</time></trkpt><trkpt lat="40.6788667" lon="15.3089883"><ele>457.0</ele><time>2026-04-25T09:04:28.864Z</time></trkpt><trkpt lat="40.6788717" lon="15.309175"><ele>457.0</ele><time>2026-04-25T09:04:29.864Z</time></trkpt><trkpt lat="40.6788917" lon="15.3093633"><ele>457.0</ele><time>2026-04-25T09:04:30.864Z</time></trkpt><trkpt lat="40.6789217" lon="15.30955"><ele>457.0</ele><time>2026-04-25T09:04:31.863Z</time></trkpt><trkpt lat="40.6789533" lon="15.3097433"><ele>457.0</ele><time>2026-04-25T09:04:32.864Z</time></trkpt><trkpt lat="40.6789933" lon="15.3099317"><ele>456.5</ele><time>2026-04-25T09:04:33.864Z</time></trkpt><trkpt lat="40.679035" lon="15.3101117"><ele>456.0</ele><time>2026-04-25T09:04:34.863Z</time></trkpt><trkpt lat="40.67906" lon="15.3102967"><ele>455.5</ele><time>2026-04-25T09:04:35.864Z</time></trkpt><trkpt lat="40.6790917" lon="15.3104683"><ele>455.0</ele><time>2026-04-25T09:04:36.864Z</time></trkpt><trkpt lat="40.67911" lon="15.3106367"><ele>454.25</ele><time>2026-04-25T09:04:37.863Z</time></trkpt><trkpt lat="40.6791233" lon="15.3107933"><ele>453.5</ele><time>2026-04-25T09:04:38.864Z</time></trkpt><trkpt lat="40.6791417" lon="15.3109467"><ele>452.75</ele><time>2026-04-25T09:04:39.863Z</time></trkpt><trkpt lat="40.6791683" lon="15.3111083"><ele>452.0</ele><time>2026-04-25T09:04:40.864Z</time></trkpt><trkpt lat="40.6791917" lon="15.3112733"><ele>451.0</ele><time>2026-04-25T09:04:41.864Z</time></trkpt><trkpt lat="40.67922" lon="15.311445"><ele>450.0</ele><time>2026-04-25T09:04:42.863Z</time></trkpt><trkpt lat="40.6792567" lon="15.3116183"><ele>449.0</ele><time>2026-04-25T09:04:43.864Z</time></trkpt><trkpt lat="40.6793017" lon="15.3117967"><ele>448.0</ele><time>2026-04-25T09:04:44.864Z</time></trkpt><trkpt lat="40.6793583" lon="15.311965"><ele>448.0</ele><time>2026-04-25T09:04:45.864Z</time></trkpt><trkpt lat="40.6794217" lon="15.31213"><ele>448.0</ele><time>2026-04-25T09:04:46.864Z</time></trkpt><trkpt lat="40.6794917" lon="15.31229"><ele>448.0</ele><time>2026-04-25T09:04:47.864Z</time></trkpt><trkpt lat="40.6795567" lon="15.3124383"><ele>448.0</ele><time>2026-04-25T09:04:48.864Z</time></trkpt><trkpt lat="40.6796133" lon="15.312575"><ele>449.0</ele><time>2026-04-25T09:04:49.863Z</time></trkpt><trkpt lat="40.679665" lon="15.3127067"><ele>450.0</ele><time>2026-04-25T09:04:50.864Z</time></trkpt><trkpt lat="40.6797167" lon="15.3128383"><ele>451.0</ele><time>2026-04-25T09:04:51.863Z</time></trkpt><trkpt lat="40.6797733" lon="15.31297"><ele>452.0</ele><time>2026-04-25T09:04:52.863Z</time></trkpt><trkpt lat="40.6798317" lon="15.3131033"><ele>452.0</ele><time>2026-04-25T09:04:53.864Z</time></trkpt><trkpt lat="40.6798917" lon="15.3132333"><ele>452.0</ele><time>2026-04-25T09:04:54.863Z</time></trkpt><trkpt lat="40.6799533" lon="15.313375"><ele>452.0</ele><time>2026-04-25T09:04:55.864Z</time></trkpt><trkpt lat="40.6800183" lon="15.3135167"><ele>452.0</ele><time>2026-04-25T09:04:56.864Z</time></trkpt><trkpt lat="40.680075" lon="15.31367"><ele>452.0</ele><time>2026-04-25T09:04:57.863Z</time></trkpt><trkpt lat="40.6801333" lon="15.3138283"><ele>452.0</ele><time>2026-04-25T09:04:58.863Z</time></trkpt><trkpt lat="40.6801983" lon="15.31398"><ele>452.0</ele><time>2026-04-25T09:04:59.864Z</time></trkpt><trkpt lat="40.6802617" lon="15.3141383"><ele>452.0</ele><time>2026-04-25T09:05:00.863Z</time></trkpt><trkpt lat="40.6803183" lon="15.31429"><ele>456.0</ele><time>2026-04-25T09:05:01.864Z</time></trkpt><trkpt lat="40.6803633" lon="15.314435"><ele>460.0</ele><time>2026-04-25T09:05:02.864Z</time></trkpt><trkpt lat="40.6804017" lon="15.31458"><ele>464.0</ele><time>2026-04-25T09:05:03.863Z</time></trkpt><trkpt lat="40.6804133" lon="15.314735"><ele>468.0</ele><time>2026-04-25T09:05:04.864Z</time></trkpt><trkpt lat="40.680395" lon="15.3148833"><ele>469.75</ele><time>2026-04-25T09:05:05.863Z</time></trkpt><trkpt lat="40.680345" lon="15.3150383"><ele>471.5</ele><time>2026-04-25T09:05:06.864Z</time></trkpt><trkpt lat="40.68028" lon="15.3151783"><ele>473.25</ele><time>2026-04-25T09:05:07.863Z</time></trkpt><trkpt lat="40.6801967" lon="15.3153183"><ele>475.0</ele><time>2026-04-25T09:05:08.863Z</time></trkpt><trkpt lat="40.680105" lon="15.315465"><ele>471.25</ele><time>2026-04-25T09:05:09.863Z</time></trkpt><trkpt lat="40.6800067" lon="15.3156133"><ele>467.5</ele><time>2026-04-25T09:05:10.863Z</time></trkpt><trkpt lat="40.6799083" lon="15.3157667"><ele>463.75</ele><time>2026-04-25T09:05:11.864Z</time></trkpt><trkpt lat="40.679815" lon="15.3159167"><ele>460.0</ele><time>2026-04-25T09:05:12.864Z</time></trkpt><trkpt lat="40.67972" lon="15.3160683"><ele>460.0</ele><time>2026-04-25T09:05:13.863Z</time></trkpt><trkpt lat="40.6796383" lon="15.3162217"><ele>460.0</ele><time>2026-04-25T09:05:14.863Z</time></trkpt><trkpt lat="40.67956" lon="15.3163833"><ele>460.0</ele><time>2026-04-25T09:05:15.863Z</time></trkpt><trkpt lat="40.6794817" lon="15.3165433"><ele>460.0</ele><time>2026-04-25T09:05:16.864Z</time></trkpt><trkpt lat="40.6794117" lon="15.31671"><ele>458.75</ele><time>2026-04-25T09:05:17.863Z</time></trkpt><trkpt lat="40.679345" lon="15.3168817"><ele>457.5</ele><time>2026-04-25T09:05:18.864Z</time></trkpt><trkpt lat="40.6792833" lon="15.3170517"><ele>456.25</ele><time>2026-04-25T09:05:19.864Z</time></trkpt><trkpt lat="40.67923" lon="15.3172367"><ele>455.0</ele><time>2026-04-25T09:05:20.864Z</time></trkpt><trkpt lat="40.6791833" lon="15.3174283"><ele>455.0</ele><time>2026-04-25T09:05:21.863Z</time></trkpt><trkpt lat="40.67914" lon="15.31762"><ele>455.0</ele><time>2026-04-25T09:05:22.863Z</time></trkpt><trkpt lat="40.6790883" lon="15.3178167"><ele>455.0</ele><time>2026-04-25T09:05:23.863Z</time></trkpt><trkpt lat="40.6790383" lon="15.31801"><ele>457.0</ele><time>2026-04-25T09:05:24.864Z</time></trkpt><trkpt lat="40.6789833" lon="15.3182083"><ele>459.0</ele><time>2026-04-25T09:05:25.864Z</time></trkpt><trkpt lat="40.6789283" lon="15.318405"><ele>461.0</ele><time>2026-04-25T09:05:26.864Z</time></trkpt><trkpt lat="40.6788683" lon="15.3186017"><ele>461.0</ele><time>2026-04-25T09:05:27.864Z</time></trkpt><trkpt lat="40.6788017" lon="15.3187867"><ele>461.0</ele><time>2026-04-25T09:05:28.864Z</time></trkpt><trkpt lat="40.6787167" lon="15.318965"><ele>461.0</ele><time>2026-04-25T09:05:29.863Z</time></trkpt><trkpt lat="40.6786133" lon="15.31912"><ele>456.3333333333333</ele><time>2026-04-25T09:05:30.863Z</time></trkpt><trkpt lat="40.67848" lon="15.3192317"><ele>451.66666666666663</ele><time>2026-04-25T09:05:31.864Z</time></trkpt><trkpt lat="40.6783267" lon="15.3193067"><ele>447.0</ele><time>2026-04-25T09:05:32.863Z</time></trkpt><trkpt lat="40.678165" lon="15.3193767"><ele>447.0</ele><time>2026-04-25T09:05:33.864Z</time></trkpt><trkpt lat="40.678" lon="15.3194417"><ele>447.0</ele><time>2026-04-25T09:05:34.863Z</time></trkpt><trkpt lat="40.67784" lon="15.3195083"><ele>447.0</ele><time>2026-04-25T09:05:35.864Z</time></trkpt><trkpt lat="40.6776917" lon="15.3195717"><ele>445.5</ele><time>2026-04-25T09:05:36.863Z</time></trkpt><trkpt lat="40.67756" lon="15.319645"><ele>444.0</ele><time>2026-04-25T09:05:37.863Z</time></trkpt><trkpt lat="40.67743" lon="15.3197317"><ele>442.5</ele><time>2026-04-25T09:05:38.863Z</time></trkpt><trkpt lat="40.6772983" lon="15.3198283"><ele>441.0</ele><time>2026-04-25T09:05:39.863Z</time></trkpt><trkpt lat="40.6771733" lon="15.3199267"><ele>441.33333333333337</ele><time>2026-04-25T09:05:40.863Z</time></trkpt><trkpt lat="40.6770433" lon="15.3200183"><ele>441.6666666666667</ele><time>2026-04-25T09:05:41.864Z</time></trkpt><trkpt lat="40.676915" lon="15.3201167"><ele>442.0</ele><time>2026-04-25T09:05:42.864Z</time></trkpt><trkpt lat="40.6767783" lon="15.3202217"><ele>442.0</ele><time>2026-04-25T09:05:43.863Z</time></trkpt><trkpt lat="40.676635" lon="15.32032"><ele>442.0</ele><time>2026-04-25T09:05:44.864Z</time></trkpt><trkpt lat="40.6764867" lon="15.3204083"><ele>442.0</ele><time>2026-04-25T09:05:45.864Z</time></trkpt><trkpt lat="40.6763133" lon="15.3204733"><ele>442.0</ele><time>2026-04-25T09:05:46.863Z</time></trkpt><trkpt lat="40.6761367" lon="15.3205283"><ele>442.0</ele><time>2026-04-25T09:05:47.864Z</time></trkpt><trkpt lat="40.675975" lon="15.3205833"><ele>442.0</ele><time>2026-04-25T09:05:48.863Z</time></trkpt><trkpt lat="40.6758333" lon="15.320635"><ele>442.0</ele><time>2026-04-25T09:05:49.863Z</time></trkpt><trkpt lat="40.67571" lon="15.320705"><ele>442.0</ele><time>2026-04-25T09:05:50.863Z</time></trkpt><trkpt lat="40.6756" lon="15.32081"><ele>442.0</ele><time>2026-04-25T09:05:51.863Z</time></trkpt><trkpt lat="40.6755" lon="15.320935"><ele>442.0</ele><time>2026-04-25T09:05:52.864Z</time></trkpt><trkpt lat="40.67542" lon="15.32107"><ele>442.0</ele><time>2026-04-25T09:05:53.863Z</time></trkpt><trkpt lat="40.6753483" lon="15.3212083"><ele>442.0</ele><time>2026-04-25T09:05:54.864Z</time></trkpt><trkpt lat="40.67528" lon="15.3213533"><ele>442.0</ele><time>2026-04-25T09:05:55.863Z</time></trkpt><trkpt lat="40.67522" lon="15.3215033"><ele>442.0</ele><time>2026-04-25T09:05:56.864Z</time></trkpt><trkpt lat="40.67516" lon="15.3216633"><ele>441.75</ele><time>2026-04-25T09:05:57.863Z</time></trkpt><trkpt lat="40.6751083" lon="15.3218333"><ele>441.5</ele><time>2026-04-25T09:05:58.864Z</time></trkpt><trkpt lat="40.6750617" lon="15.3220117"><ele>441.25</ele><time>2026-04-25T09:05:59.863Z</time></trkpt><trkpt lat="40.6750267" lon="15.3221933"><ele>441.0</ele><time>2026-04-25T09:06:00.863Z</time></trkpt><trkpt lat="40.6749817" lon="15.3223733"><ele>441.0</ele><time>2026-04-25T09:06:01.863Z</time></trkpt><trkpt lat="40.6749383" lon="15.3225483"><ele>441.0</ele><time>2026-04-25T09:06:02.863Z</time></trkpt><trkpt lat="40.674895" lon="15.3227133"><ele>441.0</ele><time>2026-04-25T09:06:03.863Z</time></trkpt><trkpt lat="40.6748617" lon="15.322855"><ele>441.0</ele><time>2026-04-25T09:06:04.863Z</time></trkpt><trkpt lat="40.6748267" lon="15.322955"><ele>441.0</ele><time>2026-04-25T09:06:05.864Z</time></trkpt><trkpt lat="40.6747883" lon="15.3230367"><ele>441.0</ele><time>2026-04-25T09:06:06.863Z</time></trkpt><trkpt lat="40.6747483" lon="15.32311"><ele>441.0</ele><time>2026-04-25T09:06:07.863Z</time></trkpt><trkpt lat="40.67471" lon="15.32324"><ele>441.0</ele><time>2026-04-25T09:06:09.863Z</time></trkpt><trkpt lat="40.674675" lon="15.3233533"><ele>441.0</ele><time>2026-04-25T09:09:55.863Z</time></trkpt><trkpt lat="40.6746133" lon="15.323425"><ele>441.0</ele><time>2026-04-25T09:09:58.863Z</time></trkpt><trkpt lat="40.6745883" lon="15.3235367"><ele>441.3333333333333</ele><time>2026-04-25T09:10:01.862Z</time></trkpt><trkpt lat="40.6746483" lon="15.3236033"><ele>441.66666666666663</ele><time>2026-04-25T09:10:04.863Z</time></trkpt><trkpt lat="40.6747217" lon="15.3235367"><ele>442.0</ele><time>2026-04-25T09:10:07.862Z</time></trkpt><trkpt lat="40.6747483" lon="15.323445"><ele>442.3333333333333</ele><time>2026-04-25T09:10:09.863Z</time></trkpt><trkpt lat="40.674765" lon="15.323345"><ele>442.66666666666663</ele><time>2026-04-25T09:10:11.862Z</time></trkpt><trkpt lat="40.6747833" lon="15.3232383"><ele>443.0</ele><time>2026-04-25T09:10:13.863Z</time></trkpt><trkpt lat="40.6748067" lon="15.323135"><ele>442.59999999999997</ele><time>2026-04-25T09:10:15.862Z</time></trkpt><trkpt lat="40.6748367" lon="15.32302"><ele>442.19999999999993</ele><time>2026-04-25T09:10:17.862Z</time></trkpt><trkpt lat="40.67487" lon="15.3229"><ele>441.8</ele><time>2026-04-25T09:10:19.863Z</time></trkpt><trkpt lat="40.6749" lon="15.3227833"><ele>441.4</ele><time>2026-04-25T09:10:21.862Z</time></trkpt><trkpt lat="40.6749333" lon="15.3226617"><ele>441.0</ele><time>2026-04-25T09:10:23.863Z</time></trkpt><trkpt lat="40.67497" lon="15.322525"><ele>441.0</ele><time>2026-04-25T09:10:25.862Z</time></trkpt><trkpt lat="40.675005" lon="15.3223867"><ele>441.0</ele><time>2026-04-25T09:10:27.862Z</time></trkpt><trkpt lat="40.6750417" lon="15.322245"><ele>441.0</ele><time>2026-04-25T09:10:29.862Z</time></trkpt><trkpt lat="40.6750867" lon="15.3220967"><ele>441.0</ele><time>2026-04-25T09:10:31.862Z</time></trkpt><trkpt lat="40.675105" lon="15.3220167"><ele>441.0</ele><time>2026-04-25T09:10:32.863Z</time></trkpt><trkpt lat="40.6751233" lon="15.3219367"><ele>441.14285714285717</ele><time>2026-04-25T09:10:33.862Z</time></trkpt><trkpt lat="40.6751467" lon="15.3218567"><ele>441.2857142857143</ele><time>2026-04-25T09:10:34.862Z</time></trkpt><trkpt lat="40.67517" lon="15.3217767"><ele>441.42857142857144</ele><time>2026-04-25T09:10:35.863Z</time></trkpt><trkpt lat="40.6752" lon="15.3217"><ele>441.57142857142856</ele><time>2026-04-25T09:10:36.862Z</time></trkpt><trkpt lat="40.6752283" lon="15.32162"><ele>441.7142857142857</ele><time>2026-04-25T09:10:37.863Z</time></trkpt><trkpt lat="40.6752583" lon="15.3215467"><ele>441.8571428571429</ele><time>2026-04-25T09:10:38.863Z</time></trkpt><trkpt lat="40.6752883" lon="15.3214733"><ele>442.0</ele><time>2026-04-25T09:10:39.862Z</time></trkpt><trkpt lat="40.6753233" lon="15.3213917"><ele>442.00000000000006</ele><time>2026-04-25T09:10:40.862Z</time></trkpt><trkpt lat="40.67536" lon="15.3213117"><ele>442.0</ele><time>2026-04-25T09:10:41.863Z</time></trkpt><trkpt lat="40.6753983" lon="15.3212417"><ele>442.0</ele><time>2026-04-25T09:10:42.862Z</time></trkpt><trkpt lat="40.6754333" lon="15.3211683"><ele>442.0</ele><time>2026-04-25T09:10:43.863Z</time></trkpt><trkpt lat="40.6754667" lon="15.3210967"><ele>442.0</ele><time>2026-04-25T09:10:44.862Z</time></trkpt><trkpt lat="40.675505" lon="15.321025"><ele>442.00000000000006</ele><time>2026-04-25T09:10:45.863Z</time></trkpt><trkpt lat="40.6755417" lon="15.320955"><ele>442.0</ele><time>2026-04-25T09:10:46.862Z</time></trkpt><trkpt lat="40.6756233" lon="15.320835"><ele>442.0</ele><time>2026-04-25T09:10:48.862Z</time></trkpt><trkpt lat="40.6757317" lon="15.3207367"><ele>442.00000000000006</ele><time>2026-04-25T09:10:50.863Z</time></trkpt><trkpt lat="40.675805" lon="15.3206917"><ele>442.00000000000006</ele><time>2026-04-25T09:10:51.863Z</time></trkpt><trkpt lat="40.6758933" lon="15.3206567"><ele>442.0</ele><time>2026-04-25T09:10:52.862Z</time></trkpt><trkpt lat="40.675995" lon="15.32062"><ele>442.0</ele><time>2026-04-25T09:10:53.862Z</time></trkpt><trkpt lat="40.6761017" lon="15.32058"><ele>442.0</ele><time>2026-04-25T09:10:54.863Z</time></trkpt><trkpt lat="40.6762083" lon="15.3205417"><ele>442.0</ele><time>2026-04-25T09:10:55.863Z</time></trkpt><trkpt lat="40.67632" lon="15.3205017"><ele>442.0</ele><time>2026-04-25T09:10:56.862Z</time></trkpt><trkpt lat="40.6764317" lon="15.3204633"><ele>442.0</ele><time>2026-04-25T09:10:57.863Z</time></trkpt><trkpt lat="40.6765383" lon="15.3204183"><ele>442.0</ele><time>2026-04-25T09:10:58.863Z</time></trkpt><trkpt lat="40.6766433" lon="15.3203717"><ele>442.00000000000006</ele><time>2026-04-25T09:10:59.863Z</time></trkpt><trkpt lat="40.6767367" lon="15.32031"><ele>442.00000000000006</ele><time>2026-04-25T09:11:00.863Z</time></trkpt><trkpt lat="40.6768233" lon="15.32025"><ele>442.0</ele><time>2026-04-25T09:11:01.863Z</time></trkpt><trkpt lat="40.676905" lon="15.32019"><ele>442.0</ele><time>2026-04-25T09:11:02.862Z</time></trkpt><trkpt lat="40.67698" lon="15.3201267"><ele>444.00000000000006</ele><time>2026-04-25T09:11:03.863Z</time></trkpt><trkpt lat="40.6770483" lon="15.320075"><ele>446.0</ele><time>2026-04-25T09:11:04.863Z</time></trkpt><trkpt lat="40.6771067" lon="15.3200267"><ele>448.0</ele><time>2026-04-25T09:11:05.863Z</time></trkpt><trkpt lat="40.6772" lon="15.3199517"><ele>450.0</ele><time>2026-04-25T09:11:07.862Z</time></trkpt><trkpt lat="40.677175" lon="15.3198667"><ele>452.00000000000006</ele><time>2026-04-25T09:11:10.863Z</time></trkpt><trkpt lat="40.6770733" lon="15.319895"><ele>454.0</ele><time>2026-04-25T09:11:12.862Z</time></trkpt><trkpt lat="40.6769917" lon="15.319935"><ele>451.6</ele><time>2026-04-25T09:11:13.862Z</time></trkpt><trkpt lat="40.6768867" lon="15.3199883"><ele>449.2</ele><time>2026-04-25T09:11:14.863Z</time></trkpt><trkpt lat="40.67678" lon="15.320035"><ele>446.80000000000007</ele><time>2026-04-25T09:11:15.863Z</time></trkpt><trkpt lat="40.67668" lon="15.3200783"><ele>444.40000000000003</ele><time>2026-04-25T09:11:16.863Z</time></trkpt><trkpt lat="40.676605" lon="15.32011"><ele>442.0</ele><time>2026-04-25T09:11:17.862Z</time></trkpt><trkpt lat="40.6765033" lon="15.3201233"><ele>442.00000000000006</ele><time>2026-04-25T09:11:19.862Z</time></trkpt><trkpt lat="40.6765083" lon="15.3200033"><ele>442.0</ele><time>2026-04-25T09:11:22.863Z</time></trkpt><trkpt lat="40.6765483" lon="15.319935"><ele>442.0</ele><time>2026-04-25T09:11:23.862Z</time></trkpt><trkpt lat="40.6765967" lon="15.3198567"><ele>442.0</ele><time>2026-04-25T09:11:24.862Z</time></trkpt><trkpt lat="40.6766417" lon="15.319775"><ele>442.00000000000006</ele><time>2026-04-25T09:11:25.862Z</time></trkpt><trkpt lat="40.6766783" lon="15.319705"><ele>442.0</ele><time>2026-04-25T09:11:26.863Z</time></trkpt><trkpt lat="40.67676" lon="15.3195717"><ele>441.83333333333337</ele><time>2026-04-25T09:11:28.862Z</time></trkpt><trkpt lat="40.6768183" lon="15.3195033"><ele>441.6666666666667</ele><time>2026-04-25T09:11:29.863Z</time></trkpt><trkpt lat="40.67688" lon="15.3194217"><ele>441.5</ele><time>2026-04-25T09:11:30.863Z</time></trkpt><trkpt lat="40.676945" lon="15.3193317"><ele>441.33333333333337</ele><time>2026-04-25T09:11:31.862Z</time></trkpt><trkpt lat="40.6770067" lon="15.3192517"><ele>441.1666666666667</ele><time>2026-04-25T09:11:32.863Z</time></trkpt><trkpt lat="40.677065" lon="15.3191817"><ele>441.0</ele><time>2026-04-25T09:11:33.862Z</time></trkpt><trkpt lat="40.6771233" lon="15.31912"><ele>441.0</ele><time>2026-04-25T09:11:34.862Z</time></trkpt><trkpt lat="40.6771867" lon="15.3190583"><ele>441.0</ele><time>2026-04-25T09:11:35.863Z</time></trkpt><trkpt lat="40.6772533" lon="15.3189983"><ele>441.0</ele><time>2026-04-25T09:11:36.862Z</time></trkpt><trkpt lat="40.6773233" lon="15.3189417"><ele>441.0</ele><time>2026-04-25T09:11:37.862Z</time></trkpt><trkpt lat="40.677405" lon="15.31889"><ele>441.0</ele><time>2026-04-25T09:11:38.862Z</time></trkpt><trkpt lat="40.67749" lon="15.31885"><ele>441.0</ele><time>2026-04-25T09:11:39.862Z</time></trkpt><trkpt lat="40.6775667" lon="15.31882"><ele>440.3333333333333</ele><time>2026-04-25T09:11:40.863Z</time></trkpt><trkpt lat="40.677645" lon="15.3187917"><ele>439.66666666666663</ele><time>2026-04-25T09:11:41.863Z</time></trkpt><trkpt lat="40.6777267" lon="15.3187717"><ele>439.0</ele><time>2026-04-25T09:11:42.862Z</time></trkpt><trkpt lat="40.677805" lon="15.318755"><ele>438.3333333333333</ele><time>2026-04-25T09:11:43.863Z</time></trkpt><trkpt lat="40.677895" lon="15.3187283"><ele>437.66666666666663</ele><time>2026-04-25T09:11:44.863Z</time></trkpt><trkpt lat="40.6779833" lon="15.318705"><ele>437.0</ele><time>2026-04-25T09:11:45.863Z</time></trkpt><trkpt lat="40.6780667" lon="15.318665"><ele>436.99999999999994</ele><time>2026-04-25T09:11:46.863Z</time></trkpt><trkpt lat="40.6781467" lon="15.3186317"><ele>437.0</ele><time>2026-04-25T09:11:47.863Z</time></trkpt><trkpt lat="40.6782183" lon="15.318595"><ele>437.0</ele><time>2026-04-25T09:11:48.862Z</time></trkpt><trkpt lat="40.67828" lon="15.3185667"><ele>437.0</ele><time>2026-04-25T09:11:49.863Z</time></trkpt><trkpt lat="40.6783633" lon="15.3185183"><ele>436.99999999999994</ele><time>2026-04-25T09:11:51.862Z</time></trkpt><trkpt lat="40.6784267" lon="15.31846"><ele>437.0</ele><time>2026-04-25T09:11:54.862Z</time></trkpt><trkpt lat="40.67835" lon="15.3184333"><ele>436.99999999999994</ele><time>2026-04-25T09:11:57.863Z</time></trkpt><trkpt lat="40.67828" lon="15.3185117"><ele>437.0</ele><time>2026-04-25T09:11:59.862Z</time></trkpt><trkpt lat="40.6781783" lon="15.3185983"><ele>437.0</ele><time>2026-04-25T09:12:01.862Z</time></trkpt><trkpt lat="40.678115" lon="15.3186417"><ele>437.0</ele><time>2026-04-25T09:12:02.863Z</time></trkpt><trkpt lat="40.678045" lon="15.31867"><ele>436.99999999999994</ele><time>2026-04-25T09:12:03.863Z</time></trkpt><trkpt lat="40.6779683" lon="15.3186983"><ele>437.0</ele><time>2026-04-25T09:12:04.863Z</time></trkpt><trkpt lat="40.6778833" lon="15.3187167"><ele>436.99999999999994</ele><time>2026-04-25T09:12:05.862Z</time></trkpt><trkpt lat="40.6777967" lon="15.3187317"><ele>437.0</ele><time>2026-04-25T09:12:06.862Z</time></trkpt><trkpt lat="40.6777083" lon="15.3187567"><ele>437.0</ele><time>2026-04-25T09:12:07.863Z</time></trkpt><trkpt lat="40.677625" lon="15.318775"><ele>437.0</ele><time>2026-04-25T09:12:08.862Z</time></trkpt><trkpt lat="40.67754" lon="15.3188033"><ele>436.99999999999994</ele><time>2026-04-25T09:12:09.862Z</time></trkpt><trkpt lat="40.6774633" lon="15.3188383"><ele>437.0</ele><time>2026-04-25T09:12:10.863Z</time></trkpt><trkpt lat="40.6773583" lon="15.31889"><ele>437.66666666666663</ele><time>2026-04-25T09:12:12.862Z</time></trkpt><trkpt lat="40.67729" lon="15.3189333"><ele>438.3333333333333</ele><time>2026-04-25T09:12:14.863Z</time></trkpt><trkpt lat="40.6771967" lon="15.319005"><ele>439.0</ele><time>2026-04-25T09:12:16.862Z</time></trkpt><trkpt lat="40.6771417" lon="15.3190583"><ele>439.66666666666663</ele><time>2026-04-25T09:12:17.863Z</time></trkpt><trkpt lat="40.6770817" lon="15.319125"><ele>440.3333333333333</ele><time>2026-04-25T09:12:18.863Z</time></trkpt><trkpt lat="40.6770167" lon="15.3192067"><ele>441.0</ele><time>2026-04-25T09:12:19.862Z</time></trkpt><trkpt lat="40.6769483" lon="15.3193"><ele>439.6666666666667</ele><time>2026-04-25T09:12:20.863Z</time></trkpt><trkpt lat="40.6768783" lon="15.3193983"><ele>438.33333333333337</ele><time>2026-04-25T09:12:21.863Z</time></trkpt><trkpt lat="40.676815" lon="15.3194933"><ele>437.0</ele><time>2026-04-25T09:12:22.863Z</time></trkpt><trkpt lat="40.6767617" lon="15.3195783"><ele>435.6666666666667</ele><time>2026-04-25T09:12:23.862Z</time></trkpt><trkpt lat="40.6767167" lon="15.3196467"><ele>434.33333333333337</ele><time>2026-04-25T09:12:24.863Z</time></trkpt><trkpt lat="40.6766383" lon="15.3196983"><ele>433.0</ele><time>2026-04-25T09:12:26.863Z</time></trkpt><trkpt lat="40.67657" lon="15.31961"><ele>433.00000000000006</ele><time>2026-04-25T09:12:29.862Z</time></trkpt><trkpt lat="40.6764967" lon="15.3195133"><ele>433.0</ele><time>2026-04-25T09:12:31.862Z</time></trkpt><trkpt lat="40.6764017" lon="15.319395"><ele>433.0</ele><time>2026-04-25T09:12:33.862Z</time></trkpt><trkpt lat="40.676355" lon="15.3193333"><ele>433.0</ele><time>2026-04-25T09:12:34.863Z</time></trkpt><trkpt lat="40.6763067" lon="15.3192683"><ele>433.00000000000006</ele><time>2026-04-25T09:12:35.862Z</time></trkpt><trkpt lat="40.6762583" lon="15.3191917"><ele>433.0</ele><time>2026-04-25T09:12:36.862Z</time></trkpt><trkpt lat="40.6762067" lon="15.31911"><ele>433.00000000000006</ele><time>2026-04-25T09:12:37.862Z</time></trkpt><trkpt lat="40.67616" lon="15.31902"><ele>433.0</ele><time>2026-04-25T09:12:38.863Z</time></trkpt><trkpt lat="40.676115" lon="15.3189283"><ele>433.0</ele><time>2026-04-25T09:12:39.863Z</time></trkpt><trkpt lat="40.6760717" lon="15.3188417"><ele>433.0</ele><time>2026-04-25T09:12:40.863Z</time></trkpt><trkpt lat="40.6760217" lon="15.318745"><ele>433.00000000000006</ele><time>2026-04-25T09:12:41.863Z</time></trkpt><trkpt lat="40.6759617" lon="15.318625"><ele>433.0</ele><time>2026-04-25T09:12:42.863Z</time></trkpt><trkpt lat="40.6758967" lon="15.318505"><ele>432.2</ele><time>2026-04-25T09:12:43.863Z</time></trkpt><trkpt lat="40.675835" lon="15.3183783"><ele>431.4</ele><time>2026-04-25T09:12:44.863Z</time></trkpt><trkpt lat="40.6757717" lon="15.318255"><ele>430.59999999999997</ele><time>2026-04-25T09:12:45.862Z</time></trkpt><trkpt lat="40.6757133" lon="15.3181483"><ele>429.79999999999995</ele><time>2026-04-25T09:12:46.863Z</time></trkpt><trkpt lat="40.6756633" lon="15.3180433"><ele>429.0</ele><time>2026-04-25T09:12:47.862Z</time></trkpt><trkpt lat="40.6756067" lon="15.3179283"><ele>428.8333333333333</ele><time>2026-04-25T09:12:48.862Z</time></trkpt><trkpt lat="40.675555" lon="15.3178267"><ele>428.66666666666663</ele><time>2026-04-25T09:12:49.862Z</time></trkpt><trkpt lat="40.67552" lon="15.317755"><ele>428.5</ele><time>2026-04-25T09:12:50.862Z</time></trkpt><trkpt lat="40.6754767" lon="15.3176667"><ele>428.3333333333333</ele><time>2026-04-25T09:12:52.862Z</time></trkpt><trkpt lat="40.6754367" lon="15.3175883"><ele>428.16666666666663</ele><time>2026-04-25T09:12:54.863Z</time></trkpt><trkpt lat="40.67538" lon="15.3174733"><ele>428.0</ele><time>2026-04-25T09:12:56.863Z</time></trkpt><trkpt lat="40.6753417" lon="15.3174067"><ele>428.0</ele><time>2026-04-25T09:12:57.862Z</time></trkpt><trkpt lat="40.6752867" lon="15.3173283"><ele>427.99999999999994</ele><time>2026-04-25T09:12:59.862Z</time></trkpt><trkpt lat="40.67522" lon="15.3173867"><ele>427.99999999999994</ele><time>2026-04-25T09:13:04.862Z</time></trkpt><trkpt lat="40.6751767" lon="15.3175333"><ele>428.0</ele><time>2026-04-25T09:13:28.862Z</time></trkpt><trkpt lat="40.67514" lon="15.3176333"><ele>428.0</ele><time>2026-04-25T09:13:29.863Z</time></trkpt><trkpt lat="40.6750917" lon="15.317755"><ele>428.0</ele><time>2026-04-25T09:13:30.863Z</time></trkpt><trkpt lat="40.6750383" lon="15.31789"><ele>428.0</ele><time>2026-04-25T09:13:31.863Z</time></trkpt><trkpt lat="40.6749817" lon="15.3180283"><ele>428.0</ele><time>2026-04-25T09:13:32.862Z</time></trkpt><trkpt lat="40.674925" lon="15.3181683"><ele>428.0</ele><time>2026-04-25T09:13:33.863Z</time></trkpt><trkpt lat="40.6748683" lon="15.3183133"><ele>428.2</ele><time>2026-04-25T09:13:34.862Z</time></trkpt><trkpt lat="40.6748133" lon="15.31845"><ele>428.4</ele><time>2026-04-25T09:13:35.862Z</time></trkpt><trkpt lat="40.674755" lon="15.3185733"><ele>428.59999999999997</ele><time>2026-04-25T09:13:36.862Z</time></trkpt><trkpt lat="40.674705" lon="15.318695"><ele>428.79999999999995</ele><time>2026-04-25T09:13:37.862Z</time></trkpt><trkpt lat="40.674655" lon="15.31882"><ele>429.0</ele><time>2026-04-25T09:13:38.862Z</time></trkpt><trkpt lat="40.6746083" lon="15.3189467"><ele>429.2</ele><time>2026-04-25T09:13:39.862Z</time></trkpt><trkpt lat="40.674565" lon="15.319065"><ele>429.4</ele><time>2026-04-25T09:13:40.862Z</time></trkpt><trkpt lat="40.6745167" lon="15.3191783"><ele>429.6</ele><time>2026-04-25T09:13:41.862Z</time></trkpt><trkpt lat="40.6744683" lon="15.3193017"><ele>429.8</ele><time>2026-04-25T09:13:42.863Z</time></trkpt><trkpt lat="40.6744133" lon="15.3194517"><ele>430.0</ele><time>2026-04-25T09:13:43.863Z</time></trkpt><trkpt lat="40.674355" lon="15.319605"><ele>430.2</ele><time>2026-04-25T09:13:44.862Z</time></trkpt><trkpt lat="40.6742983" lon="15.3197433"><ele>430.4</ele><time>2026-04-25T09:13:45.863Z</time></trkpt><trkpt lat="40.6742417" lon="15.31988"><ele>430.6</ele><time>2026-04-25T09:13:46.862Z</time></trkpt><trkpt lat="40.6741967" lon="15.3200017"><ele>430.8</ele><time>2026-04-25T09:13:47.862Z</time></trkpt><trkpt lat="40.6741617" lon="15.320095"><ele>431.0</ele><time>2026-04-25T09:13:48.862Z</time></trkpt><trkpt lat="40.6741083" lon="15.3202217"><ele>430.99999999999994</ele><time>2026-04-25T09:13:50.863Z</time></trkpt><trkpt lat="40.6740783" lon="15.3202983"><ele>431.0</ele><time>2026-04-25T09:13:51.862Z</time></trkpt><trkpt lat="40.6740433" lon="15.3203933"><ele>431.0</ele><time>2026-04-25T09:13:52.862Z</time></trkpt><trkpt lat="40.67401" lon="15.3204817"><ele>431.0</ele><time>2026-04-25T09:13:53.862Z</time></trkpt><trkpt lat="40.6739633" lon="15.32062"><ele>430.99999999999994</ele><time>2026-04-25T09:13:55.863Z</time></trkpt><trkpt lat="40.673915" lon="15.3207483"><ele>431.0</ele><time>2026-04-25T09:13:57.862Z</time></trkpt><trkpt lat="40.6738783" lon="15.3208667"><ele>430.8333333333333</ele><time>2026-04-25T09:13:59.862Z</time></trkpt><trkpt lat="40.67384" lon="15.320965"><ele>430.66666666666663</ele><time>2026-04-25T09:14:01.863Z</time></trkpt><trkpt lat="40.6737983" lon="15.3210733"><ele>430.5</ele><time>2026-04-25T09:14:03.863Z</time></trkpt><trkpt lat="40.6737333" lon="15.321205"><ele>430.33333333333337</ele><time>2026-04-25T09:14:05.862Z</time></trkpt><trkpt lat="40.6736983" lon="15.32128"><ele>430.1666666666667</ele><time>2026-04-25T09:14:06.863Z</time></trkpt><trkpt lat="40.6736583" lon="15.32136"><ele>430.0</ele><time>2026-04-25T09:14:07.862Z</time></trkpt><trkpt lat="40.6736117" lon="15.3214417"><ele>429.83333333333337</ele><time>2026-04-25T09:14:08.862Z</time></trkpt><trkpt lat="40.6735633" lon="15.3215233"><ele>429.6666666666667</ele><time>2026-04-25T09:14:09.862Z</time></trkpt><trkpt lat="40.6735117" lon="15.321595"><ele>429.5</ele><time>2026-04-25T09:14:10.863Z</time></trkpt><trkpt lat="40.6734617" lon="15.32166"><ele>429.33333333333337</ele><time>2026-04-25T09:14:11.863Z</time></trkpt><trkpt lat="40.673405" lon="15.3217233"><ele>429.1666666666667</ele><time>2026-04-25T09:14:12.862Z</time></trkpt><trkpt lat="40.6733433" lon="15.3217883"><ele>429.0</ele><time>2026-04-25T09:14:13.863Z</time></trkpt><trkpt lat="40.6732817" lon="15.321855"><ele>429.0</ele><time>2026-04-25T09:14:14.863Z</time></trkpt><trkpt lat="40.67322" lon="15.3219283"><ele>429.0</ele><time>2026-04-25T09:14:15.862Z</time></trkpt><trkpt lat="40.67315" lon="15.3220133"><ele>429.0</ele><time>2026-04-25T09:14:16.862Z</time></trkpt><trkpt lat="40.67308" lon="15.3220917"><ele>429.0</ele><time>2026-04-25T09:14:17.862Z</time></trkpt><trkpt lat="40.673015" lon="15.3221683"><ele>429.0</ele><time>2026-04-25T09:14:18.863Z</time></trkpt><trkpt lat="40.6729517" lon="15.32225"><ele>429.0</ele><time>2026-04-25T09:14:19.863Z</time></trkpt><trkpt lat="40.6728883" lon="15.3223267"><ele>429.5</ele><time>2026-04-25T09:14:20.862Z</time></trkpt><trkpt lat="40.6728317" lon="15.322395"><ele>430.0</ele><time>2026-04-25T09:14:21.862Z</time></trkpt><trkpt lat="40.6727717" lon="15.32246"><ele>430.5</ele><time>2026-04-25T09:14:22.862Z</time></trkpt><trkpt lat="40.6727183" lon="15.3225233"><ele>431.0</ele><time>2026-04-25T09:14:23.863Z</time></trkpt><trkpt lat="40.672625" lon="15.322635"><ele>431.5</ele><time>2026-04-25T09:14:25.863Z</time></trkpt><trkpt lat="40.6725767" lon="15.3226917"><ele>432.0</ele><time>2026-04-25T09:14:26.862Z</time></trkpt><trkpt lat="40.6724867" lon="15.322805"><ele>432.0</ele><time>2026-04-25T09:14:28.862Z</time></trkpt><trkpt lat="40.6724" lon="15.3229083"><ele>432.00000000000006</ele><time>2026-04-25T09:14:30.863Z</time></trkpt><trkpt lat="40.6723267" lon="15.3229867"><ele>432.00000000000006</ele><time>2026-04-25T09:14:32.862Z</time></trkpt><trkpt lat="40.6722333" lon="15.323085"><ele>432.0</ele><time>2026-04-25T09:14:34.863Z</time></trkpt><trkpt lat="40.672175" lon="15.3231433"><ele>432.0</ele><time>2026-04-25T09:14:35.862Z</time></trkpt><trkpt lat="40.6721183" lon="15.32321"><ele>431.8333333333333</ele><time>2026-04-25T09:14:36.863Z</time></trkpt><trkpt lat="40.672065" lon="15.3232717"><ele>431.66666666666663</ele><time>2026-04-25T09:14:37.863Z</time></trkpt><trkpt lat="40.6719767" lon="15.3233683"><ele>431.5</ele><time>2026-04-25T09:14:39.863Z</time></trkpt><trkpt lat="40.67192" lon="15.3234283"><ele>431.3333333333333</ele><time>2026-04-25T09:14:41.862Z</time></trkpt><trkpt lat="40.6718667" lon="15.3234783"><ele>431.16666666666663</ele><time>2026-04-25T09:18:55.862Z</time></trkpt><trkpt lat="40.671785" lon="15.3235917"><ele>431.0</ele><time>2026-04-25T09:26:58.861Z</time></trkpt><trkpt lat="40.67174" lon="15.3236517"><ele>430.99999999999994</ele><time>2026-04-25T09:27:00.86Z</time></trkpt><trkpt lat="40.6716767" lon="15.323715"><ele>431.0</ele><time>2026-04-25T09:27:02.861Z</time></trkpt><trkpt lat="40.6716067" lon="15.3237817"><ele>431.0</ele><time>2026-04-25T09:27:04.861Z</time></trkpt><trkpt lat="40.6715367" lon="15.32385"><ele>431.0</ele><time>2026-04-25T09:27:06.86Z</time></trkpt><trkpt lat="40.6714667" lon="15.32392"><ele>430.99999999999994</ele><time>2026-04-25T09:27:08.861Z</time></trkpt><trkpt lat="40.671405" lon="15.3239633"><ele>431.0</ele><time>2026-04-25T09:27:10.86Z</time></trkpt><trkpt lat="40.671345" lon="15.3240117"><ele>430.99999999999994</ele><time>2026-04-25T09:27:13.86Z</time></trkpt><trkpt lat="40.6712867" lon="15.324075"><ele>431.0</ele><time>2026-04-25T09:27:16.861Z</time></trkpt><trkpt lat="40.671235" lon="15.3241333"><ele>431.0</ele><time>2026-04-25T09:27:18.86Z</time></trkpt><trkpt lat="40.6711683" lon="15.3242117"><ele>431.0</ele><time>2026-04-25T09:27:20.86Z</time></trkpt><trkpt lat="40.6711033" lon="15.3242783"><ele>430.99999999999994</ele><time>2026-04-25T09:27:22.86Z</time></trkpt><trkpt lat="40.6710333" lon="15.3243483"><ele>431.0</ele><time>2026-04-25T09:27:24.861Z</time></trkpt><trkpt lat="40.67098" lon="15.324405"><ele>430.99999999999994</ele><time>2026-04-25T09:27:26.86Z</time></trkpt><trkpt lat="40.6709317" lon="15.32447"><ele>431.0</ele><time>2026-04-25T09:27:28.86Z</time></trkpt><trkpt lat="40.6708917" lon="15.3245767"><ele>431.0</ele><time>2026-04-25T09:27:31.861Z</time></trkpt><trkpt lat="40.6708717" lon="15.324675"><ele>431.0</ele><time>2026-04-25T09:27:34.86Z</time></trkpt><trkpt lat="40.6708517" lon="15.3247817"><ele>430.99999999999994</ele><time>2026-04-25T09:27:36.861Z</time></trkpt><trkpt lat="40.67084" lon="15.3249067"><ele>431.0</ele><time>2026-04-25T09:27:38.861Z</time></trkpt><trkpt lat="40.6708267" lon="15.3250317"><ele>431.0</ele><time>2026-04-25T09:27:40.86Z</time></trkpt><trkpt lat="40.670825" lon="15.325135"><ele>431.0</ele><time>2026-04-25T09:27:42.861Z</time></trkpt><trkpt lat="40.6708133" lon="15.3252317"><ele>431.0</ele><time>2026-04-25T09:27:44.861Z</time></trkpt><trkpt lat="40.6708033" lon="15.325355"><ele>431.0</ele><time>2026-04-25T09:27:46.861Z</time></trkpt><trkpt lat="40.67079" lon="15.3254933"><ele>431.0</ele><time>2026-04-25T09:27:48.861Z</time></trkpt><trkpt lat="40.67078" lon="15.325635"><ele>430.8</ele><time>2026-04-25T09:27:50.861Z</time></trkpt><trkpt lat="40.6707767" lon="15.32577"><ele>430.6</ele><time>2026-04-25T09:27:52.861Z</time></trkpt><trkpt lat="40.6707717" lon="15.3259233"><ele>430.4</ele><time>2026-04-25T09:27:54.861Z</time></trkpt><trkpt lat="40.67077" lon="15.3260067"><ele>430.2</ele><time>2026-04-25T09:27:55.861Z</time></trkpt><trkpt lat="40.6707783" lon="15.3261683"><ele>430.0</ele><time>2026-04-25T09:27:57.86Z</time></trkpt><trkpt lat="40.67077" lon="15.326325"><ele>430.00000000000006</ele><time>2026-04-25T09:27:59.86Z</time></trkpt><trkpt lat="40.6707667" lon="15.3264283"><ele>430.0</ele><time>2026-04-25T09:28:01.861Z</time></trkpt><trkpt lat="40.670695" lon="15.3264217"><ele>430.0</ele><time>2026-04-25T09:28:04.86Z</time></trkpt><trkpt lat="40.670635" lon="15.32633"><ele>430.0</ele><time>2026-04-25T09:28:10.86Z</time></trkpt><trkpt lat="40.6705517" lon="15.3262417"><ele>430.00000000000006</ele><time>2026-04-25T09:28:12.86Z</time></trkpt><trkpt lat="40.6705" lon="15.3261917"><ele>430.0</ele><time>2026-04-25T09:28:13.861Z</time></trkpt><trkpt lat="40.670445" lon="15.3261317"><ele>430.0</ele><time>2026-04-25T09:28:14.861Z</time></trkpt><trkpt lat="40.6703883" lon="15.3260683"><ele>430.0</ele><time>2026-04-25T09:28:15.861Z</time></trkpt><trkpt lat="40.6703233" lon="15.3259933"><ele>430.0</ele><time>2026-04-25T09:28:16.86Z</time></trkpt><trkpt lat="40.6702533" lon="15.32591"><ele>430.0</ele><time>2026-04-25T09:28:17.86Z</time></trkpt><trkpt lat="40.67016" lon="15.3258067"><ele>430.0</ele><time>2026-04-25T09:28:18.861Z</time></trkpt><trkpt lat="40.670065" lon="15.3257067"><ele>430.1666666666667</ele><time>2026-04-25T09:28:19.86Z</time></trkpt><trkpt lat="40.67" lon="15.32563"><ele>430.33333333333337</ele><time>2026-04-25T09:28:20.86Z</time></trkpt><trkpt lat="40.6699517" lon="15.32557"><ele>430.5</ele><time>2026-04-25T09:28:21.86Z</time></trkpt><trkpt lat="40.6698817" lon="15.3255317"><ele>430.66666666666663</ele><time>2026-04-25T09:28:23.861Z</time></trkpt><trkpt lat="40.6698483" lon="15.325605"><ele>430.8333333333333</ele><time>2026-04-25T09:28:50.859Z</time></trkpt><trkpt lat="40.6698167" lon="15.325685"><ele>431.0</ele><time>2026-04-25T09:28:51.859Z</time></trkpt><trkpt lat="40.669765" lon="15.3258"><ele>431.0</ele><time>2026-04-25T09:28:52.859Z</time></trkpt><trkpt lat="40.6697033" lon="15.3259417"><ele>431.0</ele><time>2026-04-25T09:28:53.86Z</time></trkpt><trkpt lat="40.6696417" lon="15.3260733"><ele>431.0</ele><time>2026-04-25T09:28:54.86Z</time></trkpt><trkpt lat="40.6695933" lon="15.326185"><ele>431.0</ele><time>2026-04-25T09:28:55.86Z</time></trkpt><trkpt lat="40.6695467" lon="15.32628"><ele>431.0</ele><time>2026-04-25T09:28:56.859Z</time></trkpt><trkpt lat="40.6694983" lon="15.3263767"><ele>430.8333333333333</ele><time>2026-04-25T09:28:57.859Z</time></trkpt><trkpt lat="40.66946" lon="15.326475"><ele>430.66666666666663</ele><time>2026-04-25T09:28:58.859Z</time></trkpt><trkpt lat="40.6694183" lon="15.326565"><ele>430.5</ele><time>2026-04-25T09:28:59.86Z</time></trkpt><trkpt lat="40.6693783" lon="15.326665"><ele>430.33333333333337</ele><time>2026-04-25T09:29:00.86Z</time></trkpt><trkpt lat="40.66934" lon="15.3267583"><ele>430.1666666666667</ele><time>2026-04-25T09:29:01.86Z</time></trkpt><trkpt lat="40.6693017" lon="15.3268533"><ele>430.0</ele><time>2026-04-25T09:29:02.859Z</time></trkpt><trkpt lat="40.6692633" lon="15.3269417"><ele>430.1666666666667</ele><time>2026-04-25T09:29:03.86Z</time></trkpt><trkpt lat="40.6692283" lon="15.32703"><ele>430.33333333333337</ele><time>2026-04-25T09:29:04.86Z</time></trkpt><trkpt lat="40.6691883" lon="15.3271183"><ele>430.5</ele><time>2026-04-25T09:29:05.859Z</time></trkpt><trkpt lat="40.669145" lon="15.3272167"><ele>430.66666666666663</ele><time>2026-04-25T09:29:06.86Z</time></trkpt><trkpt lat="40.6691" lon="15.3273167"><ele>430.8333333333333</ele><time>2026-04-25T09:29:07.86Z</time></trkpt><trkpt lat="40.6690567" lon="15.3274217"><ele>431.0</ele><time>2026-04-25T09:29:08.859Z</time></trkpt><trkpt lat="40.6690117" lon="15.3275267"><ele>430.99999999999994</ele><time>2026-04-25T09:29:09.86Z</time></trkpt><trkpt lat="40.668965" lon="15.3276333"><ele>431.0</ele><time>2026-04-25T09:29:10.859Z</time></trkpt><trkpt lat="40.66892" lon="15.32774"><ele>431.0</ele><time>2026-04-25T09:29:11.859Z</time></trkpt><trkpt lat="40.6688783" lon="15.327835"><ele>431.0</ele><time>2026-04-25T09:29:12.859Z</time></trkpt><trkpt lat="40.6688417" lon="15.3279283"><ele>430.99999999999994</ele><time>2026-04-25T09:29:13.86Z</time></trkpt><trkpt lat="40.6687983" lon="15.32803"><ele>431.0</ele><time>2026-04-25T09:29:14.86Z</time></trkpt><trkpt lat="40.66875" lon="15.3281417"><ele>431.0</ele><time>2026-04-25T09:29:15.86Z</time></trkpt><trkpt lat="40.668705" lon="15.3282483"><ele>431.0</ele><time>2026-04-25T09:29:16.859Z</time></trkpt><trkpt lat="40.6686567" lon="15.3283617"><ele>431.0</ele><time>2026-04-25T09:29:17.859Z</time></trkpt><trkpt lat="40.66861" lon="15.32847"><ele>431.0</ele><time>2026-04-25T09:29:18.859Z</time></trkpt><trkpt lat="40.668565" lon="15.3285717"><ele>431.0</ele><time>2026-04-25T09:29:19.859Z</time></trkpt><trkpt lat="40.6685217" lon="15.3286767"><ele>430.99999999999994</ele><time>2026-04-25T09:29:20.859Z</time></trkpt><trkpt lat="40.66848" lon="15.3287783"><ele>431.0</ele><time>2026-04-25T09:29:21.859Z</time></trkpt><trkpt lat="40.6684383" lon="15.3288717"><ele>431.0</ele><time>2026-04-25T09:29:22.86Z</time></trkpt><trkpt lat="40.6683933" lon="15.3289733"><ele>431.0</ele><time>2026-04-25T09:29:23.86Z</time></trkpt><trkpt lat="40.6683433" lon="15.329075"><ele>430.99999999999994</ele><time>2026-04-25T09:29:24.859Z</time></trkpt><trkpt lat="40.668295" lon="15.32918"><ele>431.0</ele><time>2026-04-25T09:29:25.86Z</time></trkpt><trkpt lat="40.668245" lon="15.32929"><ele>431.0</ele><time>2026-04-25T09:29:26.859Z</time></trkpt><trkpt lat="40.6681967" lon="15.3294017"><ele>431.0</ele><time>2026-04-25T09:29:27.86Z</time></trkpt><trkpt lat="40.66815" lon="15.3295167"><ele>431.0</ele><time>2026-04-25T09:29:28.86Z</time></trkpt><trkpt lat="40.6681067" lon="15.3296217"><ele>431.0</ele><time>2026-04-25T09:29:29.86Z</time></trkpt><trkpt lat="40.668065" lon="15.3297233"><ele>431.0</ele><time>2026-04-25T09:29:30.86Z</time></trkpt><trkpt lat="40.6680233" lon="15.3298267"><ele>431.16666666666663</ele><time>2026-04-25T09:29:31.859Z</time></trkpt><trkpt lat="40.6679817" lon="15.3299283"><ele>431.3333333333333</ele><time>2026-04-25T09:29:32.859Z</time></trkpt><trkpt lat="40.6679467" lon="15.330025"><ele>431.5</ele><time>2026-04-25T09:29:33.86Z</time></trkpt><trkpt lat="40.667915" lon="15.33012"><ele>431.66666666666663</ele><time>2026-04-25T09:29:34.859Z</time></trkpt><trkpt lat="40.66788" lon="15.33021"><ele>431.8333333333333</ele><time>2026-04-25T09:29:35.859Z</time></trkpt><trkpt lat="40.667845" lon="15.330305"><ele>432.0</ele><time>2026-04-25T09:29:36.859Z</time></trkpt><trkpt lat="40.6677983" lon="15.330425"><ele>432.0</ele><time>2026-04-25T09:29:37.859Z</time></trkpt><trkpt lat="40.667745" lon="15.3305383"><ele>432.0</ele><time>2026-04-25T09:29:38.86Z</time></trkpt><trkpt lat="40.6677" lon="15.33064"><ele>432.0</ele><time>2026-04-25T09:29:39.86Z</time></trkpt><trkpt lat="40.6676567" lon="15.3307367"><ele>432.0</ele><time>2026-04-25T09:29:40.859Z</time></trkpt><trkpt lat="40.6676183" lon="15.3308283"><ele>432.0</ele><time>2026-04-25T09:29:41.86Z</time></trkpt><trkpt lat="40.6675833" lon="15.3309133"><ele>432.0</ele><time>2026-04-25T09:29:42.859Z</time></trkpt><trkpt lat="40.6675533" lon="15.3309867"><ele>432.0</ele><time>2026-04-25T09:29:43.859Z</time></trkpt><trkpt lat="40.6675217" lon="15.3310617"><ele>432.00000000000006</ele><time>2026-04-25T09:29:44.86Z</time></trkpt><trkpt lat="40.667475" lon="15.3311717"><ele>432.00000000000006</ele><time>2026-04-25T09:29:45.86Z</time></trkpt><trkpt lat="40.6674167" lon="15.3312933"><ele>432.0</ele><time>2026-04-25T09:29:46.859Z</time></trkpt><trkpt lat="40.6673617" lon="15.331415"><ele>432.0</ele><time>2026-04-25T09:29:47.859Z</time></trkpt><trkpt lat="40.6673083" lon="15.331535"><ele>432.0</ele><time>2026-04-25T09:29:48.859Z</time></trkpt><trkpt lat="40.667255" lon="15.3316533"><ele>432.00000000000006</ele><time>2026-04-25T09:29:49.86Z</time></trkpt><trkpt lat="40.6672083" lon="15.3317667"><ele>432.00000000000006</ele><time>2026-04-25T09:29:50.859Z</time></trkpt><trkpt lat="40.667165" lon="15.3318683"><ele>432.0</ele><time>2026-04-25T09:29:51.859Z</time></trkpt><trkpt lat="40.6671183" lon="15.3319733"><ele>432.0</ele><time>2026-04-25T09:29:52.859Z</time></trkpt><trkpt lat="40.6670717" lon="15.33208"><ele>432.0</ele><time>2026-04-25T09:29:53.86Z</time></trkpt><trkpt lat="40.66702" lon="15.332185"><ele>432.00000000000006</ele><time>2026-04-25T09:29:54.86Z</time></trkpt><trkpt lat="40.6669683" lon="15.3322883"><ele>432.00000000000006</ele><time>2026-04-25T09:29:55.86Z</time></trkpt><trkpt lat="40.6669233" lon="15.3323933"><ele>432.0</ele><time>2026-04-25T09:29:56.86Z</time></trkpt><trkpt lat="40.66688" lon="15.3324983"><ele>432.0</ele><time>2026-04-25T09:29:57.859Z</time></trkpt><trkpt lat="40.6668317" lon="15.332605"><ele>432.0</ele><time>2026-04-25T09:29:58.859Z</time></trkpt><trkpt lat="40.6667883" lon="15.3327033"><ele>432.00000000000006</ele><time>2026-04-25T09:29:59.859Z</time></trkpt><trkpt lat="40.66674" lon="15.3328117"><ele>432.00000000000006</ele><time>2026-04-25T09:30:00.859Z</time></trkpt><trkpt lat="40.6666917" lon="15.33292"><ele>432.0</ele><time>2026-04-25T09:30:01.86Z</time></trkpt><trkpt lat="40.6666417" lon="15.3330267"><ele>432.0</ele><time>2026-04-25T09:30:02.86Z</time></trkpt><trkpt lat="40.6665917" lon="15.3331283"><ele>432.0</ele><time>2026-04-25T09:30:03.86Z</time></trkpt><trkpt lat="40.6665483" lon="15.3332267"><ele>432.0</ele><time>2026-04-25T09:30:04.86Z</time></trkpt><trkpt lat="40.6665067" lon="15.3333267"><ele>432.0</ele><time>2026-04-25T09:30:05.86Z</time></trkpt><trkpt lat="40.666465" lon="15.333425"><ele>432.0</ele><time>2026-04-25T09:30:06.86Z</time></trkpt><trkpt lat="40.6664233" lon="15.33352"><ele>432.0</ele><time>2026-04-25T09:30:07.86Z</time></trkpt><trkpt lat="40.6663767" lon="15.333615"><ele>432.0</ele><time>2026-04-25T09:30:08.86Z</time></trkpt><trkpt lat="40.6663333" lon="15.3337067"><ele>432.0</ele><time>2026-04-25T09:30:09.86Z</time></trkpt><trkpt lat="40.6662967" lon="15.3338"><ele>432.0</ele><time>2026-04-25T09:30:10.859Z</time></trkpt><trkpt lat="40.6662567" lon="15.3338917"><ele>432.0</ele><time>2026-04-25T09:30:11.86Z</time></trkpt><trkpt lat="40.6662167" lon="15.33398"><ele>432.0</ele><time>2026-04-25T09:30:12.86Z</time></trkpt><trkpt lat="40.66618" lon="15.334065"><ele>432.0</ele><time>2026-04-25T09:30:13.86Z</time></trkpt><trkpt lat="40.6661417" lon="15.33416"><ele>432.0</ele><time>2026-04-25T09:30:14.86Z</time></trkpt><trkpt lat="40.6660917" lon="15.3342733"><ele>432.0</ele><time>2026-04-25T09:30:15.86Z</time></trkpt><trkpt lat="40.6660433" lon="15.3343917"><ele>432.00000000000006</ele><time>2026-04-25T09:30:16.86Z</time></trkpt><trkpt lat="40.66599" lon="15.3345067"><ele>432.00000000000006</ele><time>2026-04-25T09:30:17.86Z</time></trkpt><trkpt lat="40.6659417" lon="15.33461"><ele>432.0</ele><time>2026-04-25T09:30:18.86Z</time></trkpt><trkpt lat="40.665895" lon="15.3347117"><ele>432.0</ele><time>2026-04-25T09:30:19.859Z</time></trkpt><trkpt lat="40.6658517" lon="15.3348117"><ele>432.0</ele><time>2026-04-25T09:30:20.86Z</time></trkpt><trkpt lat="40.6658083" lon="15.3349183"><ele>432.00000000000006</ele><time>2026-04-25T09:30:21.859Z</time></trkpt><trkpt lat="40.6657583" lon="15.33503"><ele>432.00000000000006</ele><time>2026-04-25T09:30:22.859Z</time></trkpt><trkpt lat="40.6657033" lon="15.3351483"><ele>432.0</ele><time>2026-04-25T09:30:23.86Z</time></trkpt><trkpt lat="40.6656617" lon="15.33526"><ele>432.0</ele><time>2026-04-25T09:30:24.86Z</time></trkpt><trkpt lat="40.6656233" lon="15.3353517"><ele>432.0</ele><time>2026-04-25T09:30:25.859Z</time></trkpt><trkpt lat="40.6655867" lon="15.335435"><ele>432.0</ele><time>2026-04-25T09:30:26.86Z</time></trkpt><trkpt lat="40.6655467" lon="15.33553"><ele>432.0</ele><time>2026-04-25T09:30:27.86Z</time></trkpt><trkpt lat="40.6655017" lon="15.3356317"><ele>432.0</ele><time>2026-04-25T09:30:28.86Z</time></trkpt><trkpt lat="40.6654517" lon="15.335735"><ele>432.0</ele><time>2026-04-25T09:30:29.859Z</time></trkpt><trkpt lat="40.6654067" lon="15.3358383"><ele>432.0</ele><time>2026-04-25T09:30:30.859Z</time></trkpt><trkpt lat="40.66536" lon="15.3359417"><ele>432.0</ele><time>2026-04-25T09:30:31.86Z</time></trkpt><trkpt lat="40.6653167" lon="15.3360467"><ele>432.0</ele><time>2026-04-25T09:30:32.86Z</time></trkpt><trkpt lat="40.6652767" lon="15.336145"><ele>432.0</ele><time>2026-04-25T09:30:33.859Z</time></trkpt><trkpt lat="40.66524" lon="15.3362417"><ele>432.0</ele><time>2026-04-25T09:30:34.86Z</time></trkpt><trkpt lat="40.6651983" lon="15.3363433"><ele>432.0</ele><time>2026-04-25T09:30:35.859Z</time></trkpt><trkpt lat="40.6651567" lon="15.3364517"><ele>432.0</ele><time>2026-04-25T09:30:36.86Z</time></trkpt><trkpt lat="40.66511" lon="15.3365667"><ele>432.1666666666667</ele><time>2026-04-25T09:30:37.859Z</time></trkpt><trkpt lat="40.665065" lon="15.3366767"><ele>432.33333333333337</ele><time>2026-04-25T09:30:38.859Z</time></trkpt><trkpt lat="40.6650233" lon="15.3367767"><ele>432.5</ele><time>2026-04-25T09:30:39.859Z</time></trkpt><trkpt lat="40.6649833" lon="15.3368767"><ele>432.6666666666667</ele><time>2026-04-25T09:30:40.86Z</time></trkpt><trkpt lat="40.664945" lon="15.3369667"><ele>432.83333333333337</ele><time>2026-04-25T09:30:41.859Z</time></trkpt><trkpt lat="40.66491" lon="15.3370433"><ele>433.0</ele><time>2026-04-25T09:30:42.86Z</time></trkpt><trkpt lat="40.6648433" lon="15.3371867"><ele>432.83333333333337</ele><time>2026-04-25T09:30:44.859Z</time></trkpt><trkpt lat="40.664785" lon="15.337315"><ele>432.6666666666667</ele><time>2026-04-25T09:30:46.859Z</time></trkpt><trkpt lat="40.6647567" lon="15.3373967"><ele>432.5</ele><time>2026-04-25T09:30:48.859Z</time></trkpt><trkpt lat="40.6647117" lon="15.337455"><ele>432.33333333333337</ele><time>2026-04-25T09:30:51.86Z</time></trkpt><trkpt lat="40.6646417" lon="15.3374717"><ele>432.1666666666667</ele><time>2026-04-25T09:30:54.86Z</time></trkpt><trkpt lat="40.6645617" lon="15.337475"><ele>432.0</ele><time>2026-04-25T09:30:57.859Z</time></trkpt><trkpt lat="40.6644833" lon="15.3374817"><ele>432.20000000000005</ele><time>2026-04-25T09:31:00.859Z</time></trkpt><trkpt lat="40.664375" lon="15.3374783"><ele>432.40000000000003</ele><time>2026-04-25T09:31:02.86Z</time></trkpt><trkpt lat="40.6642967" lon="15.3374767"><ele>432.59999999999997</ele><time>2026-04-25T09:31:03.859Z</time></trkpt><trkpt lat="40.6642083" lon="15.33747"><ele>432.79999999999995</ele><time>2026-04-25T09:31:04.859Z</time></trkpt><trkpt lat="40.6641" lon="15.33747"><ele>433.0</ele><time>2026-04-25T09:31:05.86Z</time></trkpt><trkpt lat="40.66398" lon="15.3374783"><ele>433.0</ele><time>2026-04-25T09:31:06.86Z</time></trkpt><trkpt lat="40.6638633" lon="15.3374917"><ele>433.0</ele><time>2026-04-25T09:31:07.86Z</time></trkpt><trkpt lat="40.663735" lon="15.337505"><ele>433.0</ele><time>2026-04-25T09:31:08.86Z</time></trkpt><trkpt lat="40.6636083" lon="15.3375217"><ele>433.0</ele><time>2026-04-25T09:31:09.86Z</time></trkpt><trkpt lat="40.6634867" lon="15.3375333"><ele>433.0</ele><time>2026-04-25T09:31:10.859Z</time></trkpt><trkpt lat="40.6633667" lon="15.3375383"><ele>433.0</ele><time>2026-04-25T09:31:11.859Z</time></trkpt><trkpt lat="40.6632483" lon="15.3375483"><ele>433.0</ele><time>2026-04-25T09:31:12.86Z</time></trkpt><trkpt lat="40.6631333" lon="15.3375517"><ele>433.0</ele><time>2026-04-25T09:31:13.86Z</time></trkpt><trkpt lat="40.663025" lon="15.3375533"><ele>433.0</ele><time>2026-04-25T09:31:14.86Z</time></trkpt><trkpt lat="40.6629217" lon="15.3375517"><ele>432.99999999999994</ele><time>2026-04-25T09:31:15.859Z</time></trkpt><trkpt lat="40.6628183" lon="15.3375567"><ele>432.99999999999994</ele><time>2026-04-25T09:31:16.86Z</time></trkpt><trkpt lat="40.6627133" lon="15.3375633"><ele>433.0</ele><time>2026-04-25T09:31:17.86Z</time></trkpt><trkpt lat="40.6626183" lon="15.3375717"><ele>433.0</ele><time>2026-04-25T09:31:18.86Z</time></trkpt><trkpt lat="40.6625383" lon="15.3375817"><ele>433.00000000000006</ele><time>2026-04-25T09:31:19.859Z</time></trkpt><trkpt lat="40.6624617" lon="15.33759"><ele>433.0</ele><time>2026-04-25T09:31:20.859Z</time></trkpt><trkpt lat="40.662385" lon="15.33759"><ele>433.0</ele><time>2026-04-25T09:31:21.86Z</time></trkpt><trkpt lat="40.6623067" lon="15.3375783"><ele>433.0</ele><time>2026-04-25T09:31:22.86Z</time></trkpt><trkpt lat="40.66223" lon="15.3375633"><ele>433.00000000000006</ele><time>2026-04-25T09:31:23.859Z</time></trkpt><trkpt lat="40.6621517" lon="15.33755"><ele>433.0</ele><time>2026-04-25T09:31:24.859Z</time></trkpt><trkpt lat="40.66207" lon="15.3375467"><ele>433.00000000000006</ele><time>2026-04-25T09:31:25.859Z</time></trkpt><trkpt lat="40.6619867" lon="15.33755"><ele>433.0</ele><time>2026-04-25T09:31:26.859Z</time></trkpt><trkpt lat="40.6619083" lon="15.3375583"><ele>433.0</ele><time>2026-04-25T09:31:27.859Z</time></trkpt><trkpt lat="40.6618233" lon="15.337565"><ele>433.0</ele><time>2026-04-25T09:31:28.86Z</time></trkpt><trkpt lat="40.6617317" lon="15.337585"><ele>433.00000000000006</ele><time>2026-04-25T09:31:29.86Z</time></trkpt><trkpt lat="40.6616533" lon="15.3376017"><ele>433.0</ele><time>2026-04-25T09:31:30.86Z</time></trkpt><trkpt lat="40.66159" lon="15.3376267"><ele>433.33333333333337</ele><time>2026-04-25T09:31:31.859Z</time></trkpt><trkpt lat="40.6614967" lon="15.337695"><ele>433.6666666666667</ele><time>2026-04-25T09:31:33.86Z</time></trkpt><trkpt lat="40.6614433" lon="15.33775"><ele>434.0</ele><time>2026-04-25T09:31:34.86Z</time></trkpt><trkpt lat="40.6613883" lon="15.3378117"><ele>434.33333333333337</ele><time>2026-04-25T09:31:35.86Z</time></trkpt><trkpt lat="40.66133" lon="15.3378733"><ele>434.6666666666667</ele><time>2026-04-25T09:31:36.859Z</time></trkpt><trkpt lat="40.66128" lon="15.3379367"><ele>435.0</ele><time>2026-04-25T09:31:37.859Z</time></trkpt><trkpt lat="40.6612333" lon="15.3380017"><ele>435.0</ele><time>2026-04-25T09:31:38.86Z</time></trkpt><trkpt lat="40.6611767" lon="15.3380783"><ele>435.0</ele><time>2026-04-25T09:31:39.859Z</time></trkpt><trkpt lat="40.6611133" lon="15.3381667"><ele>435.0</ele><time>2026-04-25T09:31:40.86Z</time></trkpt><trkpt lat="40.66105" lon="15.338265"><ele>435.0</ele><time>2026-04-25T09:31:41.86Z</time></trkpt><trkpt lat="40.6609883" lon="15.3383583"><ele>435.0</ele><time>2026-04-25T09:31:42.86Z</time></trkpt><trkpt lat="40.6609333" lon="15.33844"><ele>435.0</ele><time>2026-04-25T09:31:43.859Z</time></trkpt><trkpt lat="40.6608817" lon="15.3385267"><ele>435.1666666666667</ele><time>2026-04-25T09:31:44.86Z</time></trkpt><trkpt lat="40.660825" lon="15.3386167"><ele>435.33333333333337</ele><time>2026-04-25T09:31:45.859Z</time></trkpt><trkpt lat="40.6607667" lon="15.3387033"><ele>435.5</ele><time>2026-04-25T09:31:46.86Z</time></trkpt><trkpt lat="40.6607133" lon="15.3387833"><ele>435.6666666666667</ele><time>2026-04-25T09:31:47.859Z</time></trkpt><trkpt lat="40.6606633" lon="15.338855"><ele>435.83333333333337</ele><time>2026-04-25T09:31:48.86Z</time></trkpt><trkpt lat="40.6606133" lon="15.3389167"><ele>436.0</ele><time>2026-04-25T09:31:49.86Z</time></trkpt><trkpt lat="40.6605683" lon="15.3389783"><ele>436.00000000000006</ele><time>2026-04-25T09:31:50.86Z</time></trkpt><trkpt lat="40.6605233" lon="15.3390383"><ele>436.0</ele><time>2026-04-25T09:31:51.86Z</time></trkpt><trkpt lat="40.6604767" lon="15.3391067"><ele>436.0</ele><time>2026-04-25T09:31:52.859Z</time></trkpt><trkpt lat="40.6604283" lon="15.33919"><ele>436.0</ele><time>2026-04-25T09:31:53.859Z</time></trkpt><trkpt lat="40.66038" lon="15.3392833"><ele>436.00000000000006</ele><time>2026-04-25T09:31:54.86Z</time></trkpt><trkpt lat="40.66033" lon="15.3393717"><ele>436.0</ele><time>2026-04-25T09:31:55.859Z</time></trkpt><trkpt lat="40.6602817" lon="15.339465"><ele>436.00000000000006</ele><time>2026-04-25T09:31:56.86Z</time></trkpt><trkpt lat="40.6602333" lon="15.339555"><ele>436.0</ele><time>2026-04-25T09:31:57.859Z</time></trkpt><trkpt lat="40.6601817" lon="15.339645"><ele>436.0</ele><time>2026-04-25T09:31:58.86Z</time></trkpt><trkpt lat="40.6601233" lon="15.33974"><ele>436.0</ele><time>2026-04-25T09:31:59.86Z</time></trkpt><trkpt lat="40.6600733" lon="15.3398367"><ele>436.00000000000006</ele><time>2026-04-25T09:32:00.86Z</time></trkpt><trkpt lat="40.6600333" lon="15.3399267"><ele>436.0</ele><time>2026-04-25T09:32:01.859Z</time></trkpt><trkpt lat="40.6599883" lon="15.340015"><ele>436.1666666666667</ele><time>2026-04-25T09:32:02.86Z</time></trkpt><trkpt lat="40.6599467" lon="15.34011"><ele>436.33333333333337</ele><time>2026-04-25T09:32:03.86Z</time></trkpt><trkpt lat="40.6599133" lon="15.3402067"><ele>436.5</ele><time>2026-04-25T09:32:04.859Z</time></trkpt><trkpt lat="40.6598917" lon="15.3402867"><ele>436.66666666666663</ele><time>2026-04-25T09:32:05.86Z</time></trkpt><trkpt lat="40.6598267" lon="15.3404217"><ele>436.8333333333333</ele><time>2026-04-25T09:32:07.86Z</time></trkpt><trkpt lat="40.6597767" lon="15.34049"><ele>437.0</ele><time>2026-04-25T09:32:08.86Z</time></trkpt><trkpt lat="40.6597033" lon="15.3405733"><ele>437.20000000000005</ele><time>2026-04-25T09:32:09.859Z</time></trkpt><trkpt lat="40.6596083" lon="15.3406567"><ele>437.40000000000003</ele><time>2026-04-25T09:32:10.86Z</time></trkpt><trkpt lat="40.6595083" lon="15.3407433"><ele>437.59999999999997</ele><time>2026-04-25T09:32:11.859Z</time></trkpt><trkpt lat="40.6594217" lon="15.34082"><ele>437.79999999999995</ele><time>2026-04-25T09:32:12.859Z</time></trkpt><trkpt lat="40.659345" lon="15.3408983"><ele>438.0</ele><time>2026-04-25T09:32:13.86Z</time></trkpt><trkpt lat="40.659275" lon="15.3409683"><ele>438.0</ele><time>2026-04-25T09:32:14.86Z</time></trkpt><trkpt lat="40.6591967" lon="15.341025"><ele>437.99999999999994</ele><time>2026-04-25T09:32:15.859Z</time></trkpt><trkpt lat="40.65911" lon="15.341085"><ele>437.99999999999994</ele><time>2026-04-25T09:32:16.859Z</time></trkpt><trkpt lat="40.65903" lon="15.3411467"><ele>438.0</ele><time>2026-04-25T09:32:17.86Z</time></trkpt><trkpt lat="40.6589483" lon="15.3411983"><ele>438.0</ele><time>2026-04-25T09:32:18.859Z</time></trkpt><trkpt lat="40.6588683" lon="15.3412467"><ele>438.0</ele><time>2026-04-25T09:32:19.859Z</time></trkpt><trkpt lat="40.6588067" lon="15.3412817"><ele>438.0</ele><time>2026-04-25T09:32:20.86Z</time></trkpt><trkpt lat="40.6587017" lon="15.3413383"><ele>438.0</ele><time>2026-04-25T09:32:22.859Z</time></trkpt><trkpt lat="40.658635" lon="15.3413733"><ele>438.0</ele><time>2026-04-25T09:32:24.859Z</time></trkpt><trkpt lat="40.6585783" lon="15.34143"><ele>438.0</ele><time>2026-04-25T09:32:26.859Z</time></trkpt><trkpt lat="40.658505" lon="15.3414633"><ele>438.0</ele><time>2026-04-25T09:32:28.859Z</time></trkpt><trkpt lat="40.6584383" lon="15.3414583"><ele>438.3333333333333</ele><time>2026-04-25T09:32:29.86Z</time></trkpt><trkpt lat="40.6583683" lon="15.341435"><ele>438.66666666666663</ele><time>2026-04-25T09:32:30.86Z</time></trkpt><trkpt lat="40.65827" lon="15.34136"><ele>439.0</ele><time>2026-04-25T09:32:32.859Z</time></trkpt><trkpt lat="40.658225" lon="15.3413"><ele>439.3333333333333</ele><time>2026-04-25T09:32:33.86Z</time></trkpt><trkpt lat="40.6581983" lon="15.341215"><ele>439.66666666666663</ele><time>2026-04-25T09:32:34.86Z</time></trkpt><trkpt lat="40.6581833" lon="15.3411267"><ele>440.0</ele><time>2026-04-25T09:32:35.859Z</time></trkpt><trkpt lat="40.6581717" lon="15.341035"><ele>439.99999999999994</ele><time>2026-04-25T09:32:36.86Z</time></trkpt><trkpt lat="40.65817" lon="15.3409367"><ele>440.0</ele><time>2026-04-25T09:32:37.86Z</time></trkpt><trkpt lat="40.6581767" lon="15.3408483"><ele>440.0</ele><time>2026-04-25T09:32:38.86Z</time></trkpt><trkpt lat="40.6581917" lon="15.3407517"><ele>440.0</ele><time>2026-04-25T09:32:39.86Z</time></trkpt><trkpt lat="40.6582033" lon="15.34066"><ele>440.0</ele><time>2026-04-25T09:32:40.86Z</time></trkpt><trkpt lat="40.6582167" lon="15.3405617"><ele>439.99999999999994</ele><time>2026-04-25T09:32:41.86Z</time></trkpt><trkpt lat="40.658235" lon="15.34047"><ele>440.0</ele><time>2026-04-25T09:32:42.86Z</time></trkpt><trkpt lat="40.65825" lon="15.340375"><ele>439.66666666666663</ele><time>2026-04-25T09:32:43.859Z</time></trkpt><trkpt lat="40.6582667" lon="15.3402767"><ele>439.3333333333333</ele><time>2026-04-25T09:32:44.86Z</time></trkpt><trkpt lat="40.65828" lon="15.3401783"><ele>439.0</ele><time>2026-04-25T09:32:45.859Z</time></trkpt><trkpt lat="40.6582917" lon="15.34009"><ele>438.66666666666663</ele><time>2026-04-25T09:32:46.86Z</time></trkpt><trkpt lat="40.6583133" lon="15.3400067"><ele>438.3333333333333</ele><time>2026-04-25T09:32:47.86Z</time></trkpt><trkpt lat="40.6583517" lon="15.3399283"><ele>438.0</ele><time>2026-04-25T09:32:48.859Z</time></trkpt><trkpt lat="40.6584133" lon="15.3398383"><ele>438.0</ele><time>2026-04-25T09:32:49.859Z</time></trkpt><trkpt lat="40.6584617" lon="15.339745"><ele>437.99999999999994</ele><time>2026-04-25T09:32:50.859Z</time></trkpt><trkpt lat="40.6585067" lon="15.3396583"><ele>437.99999999999994</ele><time>2026-04-25T09:32:51.859Z</time></trkpt><trkpt lat="40.6585583" lon="15.3395533"><ele>438.0</ele><time>2026-04-25T09:32:52.86Z</time></trkpt><trkpt lat="40.658625" lon="15.33942"><ele>438.0</ele><time>2026-04-25T09:32:53.859Z</time></trkpt><trkpt lat="40.6586833" lon="15.3392917"><ele>438.0</ele><time>2026-04-25T09:32:54.86Z</time></trkpt><trkpt lat="40.6587383" lon="15.33918"><ele>437.99999999999994</ele><time>2026-04-25T09:32:55.86Z</time></trkpt><trkpt lat="40.65879" lon="15.3390833"><ele>437.99999999999994</ele><time>2026-04-25T09:32:56.859Z</time></trkpt><trkpt lat="40.6588367" lon="15.33898"><ele>438.0</ele><time>2026-04-25T09:32:57.86Z</time></trkpt><trkpt lat="40.6588833" lon="15.33886"><ele>438.0</ele><time>2026-04-25T09:32:58.859Z</time></trkpt><trkpt lat="40.6589233" lon="15.3387283"><ele>437.79999999999995</ele><time>2026-04-25T09:32:59.86Z</time></trkpt><trkpt lat="40.658965" lon="15.3386"><ele>437.59999999999997</ele><time>2026-04-25T09:33:00.86Z</time></trkpt><trkpt lat="40.6590083" lon="15.3384817"><ele>437.40000000000003</ele><time>2026-04-25T09:33:01.86Z</time></trkpt><trkpt lat="40.65904" lon="15.3383633"><ele>437.20000000000005</ele><time>2026-04-25T09:33:02.86Z</time></trkpt><trkpt lat="40.6590667" lon="15.3382617"><ele>437.0</ele><time>2026-04-25T09:33:03.859Z</time></trkpt><trkpt lat="40.6590883" lon="15.3381667"><ele>436.99999999999994</ele><time>2026-04-25T09:33:04.86Z</time></trkpt><trkpt lat="40.65911" lon="15.3380733"><ele>437.0</ele><time>2026-04-25T09:33:05.86Z</time></trkpt><trkpt lat="40.659135" lon="15.33798"><ele>437.0</ele><time>2026-04-25T09:33:06.859Z</time></trkpt><trkpt lat="40.6591567" lon="15.337885"><ele>437.0</ele><time>2026-04-25T09:33:07.86Z</time></trkpt><trkpt lat="40.65918" lon="15.3377967"><ele>436.99999999999994</ele><time>2026-04-25T09:33:08.859Z</time></trkpt><trkpt lat="40.6592067" lon="15.3377033"><ele>437.0</ele><time>2026-04-25T09:33:09.859Z</time></trkpt><trkpt lat="40.6592367" lon="15.3376033"><ele>436.8333333333333</ele><time>2026-04-25T09:33:10.859Z</time></trkpt><trkpt lat="40.6592683" lon="15.3374917"><ele>436.66666666666663</ele><time>2026-04-25T09:33:11.86Z</time></trkpt><trkpt lat="40.6593" lon="15.3373867"><ele>436.5</ele><time>2026-04-25T09:33:12.859Z</time></trkpt><trkpt lat="40.6593267" lon="15.3372933"><ele>436.33333333333337</ele><time>2026-04-25T09:33:13.859Z</time></trkpt><trkpt lat="40.6593533" lon="15.3372083"><ele>436.1666666666667</ele><time>2026-04-25T09:33:14.859Z</time></trkpt><trkpt lat="40.6593833" lon="15.3371283"><ele>436.0</ele><time>2026-04-25T09:33:15.859Z</time></trkpt><trkpt lat="40.65942" lon="15.337055"><ele>435.83333333333337</ele><time>2026-04-25T09:33:16.86Z</time></trkpt><trkpt lat="40.65946" lon="15.3369817"><ele>435.6666666666667</ele><time>2026-04-25T09:33:17.86Z</time></trkpt><trkpt lat="40.659505" lon="15.3369083"><ele>435.5</ele><time>2026-04-25T09:33:18.859Z</time></trkpt><trkpt lat="40.6595517" lon="15.3368283"><ele>435.33333333333337</ele><time>2026-04-25T09:33:19.86Z</time></trkpt><trkpt lat="40.659615" lon="15.3367233"><ele>435.1666666666667</ele><time>2026-04-25T09:33:20.859Z</time></trkpt><trkpt lat="40.65968" lon="15.336605"><ele>435.0</ele><time>2026-04-25T09:33:21.86Z</time></trkpt><trkpt lat="40.65974" lon="15.33648"><ele>435.2</ele><time>2026-04-25T09:33:22.859Z</time></trkpt><trkpt lat="40.6598033" lon="15.3363667"><ele>435.4</ele><time>2026-04-25T09:33:23.859Z</time></trkpt><trkpt lat="40.6598717" lon="15.336245"><ele>435.6</ele><time>2026-04-25T09:33:24.859Z</time></trkpt><trkpt lat="40.6599417" lon="15.3361333"><ele>435.8</ele><time>2026-04-25T09:33:25.86Z</time></trkpt><trkpt lat="40.66002" lon="15.3360183"><ele>436.0</ele><time>2026-04-25T09:33:26.86Z</time></trkpt><trkpt lat="40.66009" lon="15.3359117"><ele>436.0</ele><time>2026-04-25T09:33:27.859Z</time></trkpt><trkpt lat="40.6601567" lon="15.3358033"><ele>436.0</ele><time>2026-04-25T09:33:28.859Z</time></trkpt><trkpt lat="40.6602133" lon="15.3357067"><ele>436.0</ele><time>2026-04-25T09:33:29.86Z</time></trkpt><trkpt lat="40.66027" lon="15.3356183"><ele>436.0</ele><time>2026-04-25T09:33:30.859Z</time></trkpt><trkpt lat="40.6603283" lon="15.335525"><ele>436.0</ele><time>2026-04-25T09:33:31.86Z</time></trkpt><trkpt lat="40.6603983" lon="15.33542"><ele>435.8</ele><time>2026-04-25T09:33:32.86Z</time></trkpt><trkpt lat="40.6604767" lon="15.335305"><ele>435.6</ele><time>2026-04-25T09:33:33.859Z</time></trkpt><trkpt lat="40.6605533" lon="15.33519"><ele>435.4</ele><time>2026-04-25T09:33:34.86Z</time></trkpt><trkpt lat="40.6606183" lon="15.3350833"><ele>435.2</ele><time>2026-04-25T09:33:35.86Z</time></trkpt><trkpt lat="40.6606783" lon="15.33498"><ele>435.0</ele><time>2026-04-25T09:33:36.86Z</time></trkpt><trkpt lat="40.6607467" lon="15.334885"><ele>435.0</ele><time>2026-04-25T09:33:37.859Z</time></trkpt><trkpt lat="40.6608217" lon="15.3347883"><ele>435.0</ele><time>2026-04-25T09:33:38.859Z</time></trkpt><trkpt lat="40.660885" lon="15.3347167"><ele>435.0</ele><time>2026-04-25T09:33:39.859Z</time></trkpt><trkpt lat="40.6609467" lon="15.3346433"><ele>435.0</ele><time>2026-04-25T09:33:40.859Z</time></trkpt><trkpt lat="40.661005" lon="15.3345817"><ele>435.0</ele><time>2026-04-25T09:33:41.86Z</time></trkpt><trkpt lat="40.66106" lon="15.334525"><ele>435.0</ele><time>2026-04-25T09:33:42.859Z</time></trkpt><trkpt lat="40.6611067" lon="15.3344633"><ele>434.8</ele><time>2026-04-25T09:33:43.86Z</time></trkpt><trkpt lat="40.6611817" lon="15.3343533"><ele>434.6</ele><time>2026-04-25T09:33:45.859Z</time></trkpt><trkpt lat="40.6612317" lon="15.3342617"><ele>434.4</ele><time>2026-04-25T09:33:47.859Z</time></trkpt><trkpt lat="40.6613033" lon="15.3341117"><ele>434.2</ele><time>2026-04-25T09:33:49.859Z</time></trkpt><trkpt lat="40.6613483" lon="15.3340233"><ele>434.0</ele><time>2026-04-25T09:33:50.859Z</time></trkpt><trkpt lat="40.6614017" lon="15.33393"><ele>433.66666666666663</ele><time>2026-04-25T09:33:51.86Z</time></trkpt><trkpt lat="40.6614533" lon="15.3338533"><ele>433.3333333333333</ele><time>2026-04-25T09:33:52.859Z</time></trkpt><trkpt lat="40.6615017" lon="15.33379"><ele>433.0</ele><time>2026-04-25T09:33:53.86Z</time></trkpt><trkpt lat="40.6615617" lon="15.3336983"><ele>432.66666666666663</ele><time>2026-04-25T09:33:55.86Z</time></trkpt><trkpt lat="40.661545" lon="15.3335883"><ele>432.3333333333333</ele><time>2026-04-25T09:33:58.859Z</time></trkpt><trkpt lat="40.6614833" lon="15.33352"><ele>432.0</ele><time>2026-04-25T09:34:10.858Z</time></trkpt><trkpt lat="40.6614317" lon="15.3334717"><ele>432.0</ele><time>2026-04-25T09:34:11.858Z</time></trkpt><trkpt lat="40.6613733" lon="15.333415"><ele>432.00000000000006</ele><time>2026-04-25T09:34:12.859Z</time></trkpt><trkpt lat="40.6612733" lon="15.3333283"><ele>432.00000000000006</ele><time>2026-04-25T09:34:14.858Z</time></trkpt><trkpt lat="40.6611733" lon="15.3332417"><ele>432.0</ele><time>2026-04-25T09:34:16.859Z</time></trkpt><trkpt lat="40.6610867" lon="15.3331633"><ele>432.0</ele><time>2026-04-25T09:34:18.859Z</time></trkpt><trkpt lat="40.6610067" lon="15.3330783"><ele>432.0</ele><time>2026-04-25T09:34:20.858Z</time></trkpt><trkpt lat="40.66092" lon="15.33298"><ele>432.00000000000006</ele><time>2026-04-25T09:34:22.858Z</time></trkpt><trkpt lat="40.6608217" lon="15.332885"><ele>432.00000000000006</ele><time>2026-04-25T09:34:24.858Z</time></trkpt><trkpt lat="40.6607117" lon="15.3328217"><ele>432.0</ele><time>2026-04-25T09:34:26.858Z</time></trkpt><trkpt lat="40.66065" lon="15.3327983"><ele>432.0</ele><time>2026-04-25T09:34:27.859Z</time></trkpt><trkpt lat="40.6605867" lon="15.33278"><ele>432.0</ele><time>2026-04-25T09:34:28.858Z</time></trkpt><trkpt lat="40.660525" lon="15.332755"><ele>432.00000000000006</ele><time>2026-04-25T09:34:29.859Z</time></trkpt><trkpt lat="40.6604067" lon="15.33271"><ele>432.00000000000006</ele><time>2026-04-25T09:34:31.858Z</time></trkpt><trkpt lat="40.6602917" lon="15.3326583"><ele>432.0</ele><time>2026-04-25T09:34:33.859Z</time></trkpt><trkpt lat="40.6602167" lon="15.3326233"><ele>432.0</ele><time>2026-04-25T09:34:35.858Z</time></trkpt><trkpt lat="40.66013" lon="15.33256"><ele>432.0</ele><time>2026-04-25T09:34:38.859Z</time></trkpt><trkpt lat="40.66007" lon="15.3324667"><ele>432.0</ele><time>2026-04-25T09:34:40.858Z</time></trkpt><trkpt lat="40.6600283" lon="15.3323883"><ele>432.0</ele><time>2026-04-25T09:34:42.859Z</time></trkpt><trkpt lat="40.6599867" lon="15.3323133"><ele>432.0</ele><time>2026-04-25T09:34:44.859Z</time></trkpt><trkpt lat="40.65993" lon="15.3322483"><ele>432.0</ele><time>2026-04-25T09:34:46.859Z</time></trkpt><trkpt lat="40.6598467" lon="15.33218"><ele>432.0</ele><time>2026-04-25T09:34:48.859Z</time></trkpt><trkpt lat="40.659765" lon="15.33213"><ele>432.0</ele><time>2026-04-25T09:34:50.859Z</time></trkpt><trkpt lat="40.65968" lon="15.3320967"><ele>432.0</ele><time>2026-04-25T09:34:53.858Z</time></trkpt><trkpt lat="40.6596133" lon="15.3320483"><ele>432.0</ele><time>2026-04-25T09:34:55.859Z</time></trkpt><trkpt lat="40.6595033" lon="15.3319867"><ele>432.0</ele><time>2026-04-25T09:34:57.859Z</time></trkpt><trkpt lat="40.6594317" lon="15.331945"><ele>432.0</ele><time>2026-04-25T09:34:58.859Z</time></trkpt><trkpt lat="40.65936" lon="15.3319"><ele>432.0</ele><time>2026-04-25T09:34:59.858Z</time></trkpt><trkpt lat="40.659295" lon="15.3318617"><ele>431.8333333333333</ele><time>2026-04-25T09:35:00.859Z</time></trkpt><trkpt lat="40.6592383" lon="15.331825"><ele>431.66666666666663</ele><time>2026-04-25T09:35:01.859Z</time></trkpt><trkpt lat="40.65913" lon="15.3317383"><ele>431.5</ele><time>2026-04-25T09:35:03.858Z</time></trkpt><trkpt lat="40.6590717" lon="15.3316817"><ele>431.3333333333333</ele><time>2026-04-25T09:35:04.858Z</time></trkpt><trkpt lat="40.659015" lon="15.331625"><ele>431.16666666666663</ele><time>2026-04-25T09:35:05.858Z</time></trkpt><trkpt lat="40.65896" lon="15.3315683"><ele>431.0</ele><time>2026-04-25T09:35:06.859Z</time></trkpt><trkpt lat="40.6588983" lon="15.3315067"><ele>430.99999999999994</ele><time>2026-04-25T09:35:07.858Z</time></trkpt><trkpt lat="40.6588333" lon="15.3314417"><ele>431.0</ele><time>2026-04-25T09:35:08.859Z</time></trkpt><trkpt lat="40.658755" lon="15.3313767"><ele>431.0</ele><time>2026-04-25T09:35:10.858Z</time></trkpt><trkpt lat="40.658735" lon="15.33129"><ele>431.0</ele><time>2026-04-25T09:35:13.859Z</time></trkpt><trkpt lat="40.6587833" lon="15.3311983"><ele>430.99999999999994</ele><time>2026-04-25T09:35:15.859Z</time></trkpt><trkpt lat="40.6588233" lon="15.3311217"><ele>431.0</ele><time>2026-04-25T09:35:16.859Z</time></trkpt><trkpt lat="40.658875" lon="15.33103"><ele>431.0</ele><time>2026-04-25T09:35:17.858Z</time></trkpt><trkpt lat="40.6589183" lon="15.330925"><ele>431.0</ele><time>2026-04-25T09:35:18.859Z</time></trkpt><trkpt lat="40.6589633" lon="15.3308183"><ele>431.0</ele><time>2026-04-25T09:35:19.859Z</time></trkpt><trkpt lat="40.65901" lon="15.3307167"><ele>431.0</ele><time>2026-04-25T09:35:20.859Z</time></trkpt><trkpt lat="40.6590583" lon="15.3306083"><ele>431.0</ele><time>2026-04-25T09:35:21.859Z</time></trkpt><trkpt lat="40.659105" lon="15.3305067"><ele>430.99999999999994</ele><time>2026-04-25T09:35:22.858Z</time></trkpt><trkpt lat="40.6591367" lon="15.330425"><ele>431.0</ele><time>2026-04-25T09:35:23.858Z</time></trkpt><trkpt lat="40.6591733" lon="15.33033"><ele>431.0</ele><time>2026-04-25T09:35:25.858Z</time></trkpt><trkpt lat="40.6592083" lon="15.3302367"><ele>431.0</ele><time>2026-04-25T09:35:27.859Z</time></trkpt><trkpt lat="40.6592633" lon="15.3301183"><ele>430.99999999999994</ele><time>2026-04-25T09:35:29.859Z</time></trkpt><trkpt lat="40.6593083" lon="15.329995"><ele>431.0</ele><time>2026-04-25T09:35:31.858Z</time></trkpt><trkpt lat="40.6593483" lon="15.3298383"><ele>431.0</ele><time>2026-04-25T09:35:33.858Z</time></trkpt><trkpt lat="40.6593733" lon="15.329755"><ele>431.0</ele><time>2026-04-25T09:35:34.859Z</time></trkpt><trkpt lat="40.6594033" lon="15.3296717"><ele>431.0</ele><time>2026-04-25T09:35:35.858Z</time></trkpt><trkpt lat="40.6594367" lon="15.329585"><ele>431.0</ele><time>2026-04-25T09:35:36.859Z</time></trkpt><trkpt lat="40.659475" lon="15.3294983"><ele>431.0</ele><time>2026-04-25T09:35:37.859Z</time></trkpt><trkpt lat="40.6595167" lon="15.3294117"><ele>431.0</ele><time>2026-04-25T09:35:38.859Z</time></trkpt><trkpt lat="40.65956" lon="15.329325"><ele>431.0</ele><time>2026-04-25T09:35:39.858Z</time></trkpt><trkpt lat="40.659605" lon="15.3292367"><ele>431.0</ele><time>2026-04-25T09:35:40.859Z</time></trkpt><trkpt lat="40.6596467" lon="15.3291467"><ele>431.0</ele><time>2026-04-25T09:35:41.858Z</time></trkpt><trkpt lat="40.6596883" lon="15.32906"><ele>431.0</ele><time>2026-04-25T09:35:42.859Z</time></trkpt><trkpt lat="40.659725" lon="15.3289833"><ele>431.0</ele><time>2026-04-25T09:35:43.858Z</time></trkpt><trkpt lat="40.6597917" lon="15.328855"><ele>431.0</ele><time>2026-04-25T09:35:45.858Z</time></trkpt><trkpt lat="40.6598683" lon="15.32874"><ele>431.16666666666663</ele><time>2026-04-25T09:35:47.858Z</time></trkpt><trkpt lat="40.6599233" lon="15.3286567"><ele>431.3333333333333</ele><time>2026-04-25T09:35:48.859Z</time></trkpt><trkpt lat="40.6599783" lon="15.3285683"><ele>431.5</ele><time>2026-04-25T09:35:49.859Z</time></trkpt><trkpt lat="40.6600217" lon="15.328485"><ele>431.66666666666663</ele><time>2026-04-25T09:35:50.859Z</time></trkpt><trkpt lat="40.6600617" lon="15.3284"><ele>431.8333333333333</ele><time>2026-04-25T09:35:51.858Z</time></trkpt><trkpt lat="40.660105" lon="15.328295"><ele>432.0</ele><time>2026-04-25T09:35:52.858Z</time></trkpt><trkpt lat="40.6601567" lon="15.3281667"><ele>432.1666666666667</ele><time>2026-04-25T09:35:53.858Z</time></trkpt><trkpt lat="40.6602133" lon="15.3280333"><ele>432.33333333333337</ele><time>2026-04-25T09:35:54.858Z</time></trkpt><trkpt lat="40.660255" lon="15.3279267"><ele>432.5</ele><time>2026-04-25T09:35:55.858Z</time></trkpt><trkpt lat="40.66029" lon="15.3278467"><ele>432.6666666666667</ele><time>2026-04-25T09:35:56.858Z</time></trkpt><trkpt lat="40.660325" lon="15.3277633"><ele>432.83333333333337</ele><time>2026-04-25T09:35:57.858Z</time></trkpt><trkpt lat="40.6603783" lon="15.3276767"><ele>433.0</ele><time>2026-04-25T09:35:58.858Z</time></trkpt><trkpt lat="40.6604467" lon="15.32758"><ele>433.0</ele><time>2026-04-25T09:35:59.858Z</time></trkpt><trkpt lat="40.660525" lon="15.327475"><ele>432.99999999999994</ele><time>2026-04-25T09:36:00.859Z</time></trkpt><trkpt lat="40.6605983" lon="15.327385"><ele>432.99999999999994</ele><time>2026-04-25T09:36:01.859Z</time></trkpt><trkpt lat="40.6606583" lon="15.3273017"><ele>433.0</ele><time>2026-04-25T09:36:02.858Z</time></trkpt><trkpt lat="40.6607083" lon="15.3271933"><ele>433.0</ele><time>2026-04-25T09:36:03.858Z</time></trkpt><trkpt lat="40.660765" lon="15.3270483"><ele>433.0</ele><time>2026-04-25T09:36:04.859Z</time></trkpt><trkpt lat="40.66083" lon="15.3268933"><ele>432.99999999999994</ele><time>2026-04-25T09:36:05.858Z</time></trkpt><trkpt lat="40.6608883" lon="15.3267567"><ele>432.99999999999994</ele><time>2026-04-25T09:36:06.858Z</time></trkpt><trkpt lat="40.660935" lon="15.3266367"><ele>433.0</ele><time>2026-04-25T09:36:07.859Z</time></trkpt><trkpt lat="40.66097" lon="15.3265367"><ele>433.0</ele><time>2026-04-25T09:36:08.859Z</time></trkpt><trkpt lat="40.661" lon="15.3264467"><ele>433.00000000000006</ele><time>2026-04-25T09:36:09.858Z</time></trkpt><trkpt lat="40.661025" lon="15.3263617"><ele>433.0</ele><time>2026-04-25T09:36:10.858Z</time></trkpt><trkpt lat="40.6610433" lon="15.326275"><ele>433.0</ele><time>2026-04-25T09:36:11.859Z</time></trkpt><trkpt lat="40.6610583" lon="15.3261767"><ele>433.0</ele><time>2026-04-25T09:36:12.858Z</time></trkpt><trkpt lat="40.6610783" lon="15.3260633"><ele>433.00000000000006</ele><time>2026-04-25T09:36:13.859Z</time></trkpt><trkpt lat="40.6611167" lon="15.32594"><ele>433.0</ele><time>2026-04-25T09:36:14.858Z</time></trkpt><trkpt lat="40.6611733" lon="15.3257967"><ele>433.0</ele><time>2026-04-25T09:36:15.858Z</time></trkpt><trkpt lat="40.6612333" lon="15.32566"><ele>433.0</ele><time>2026-04-25T09:36:16.859Z</time></trkpt><trkpt lat="40.6612967" lon="15.32553"><ele>433.0</ele><time>2026-04-25T09:36:17.858Z</time></trkpt><trkpt lat="40.6613633" lon="15.3253983"><ele>433.0</ele><time>2026-04-25T09:36:18.859Z</time></trkpt><trkpt lat="40.66143" lon="15.3252833"><ele>433.2</ele><time>2026-04-25T09:36:19.858Z</time></trkpt><trkpt lat="40.66149" lon="15.3251717"><ele>433.4</ele><time>2026-04-25T09:36:20.859Z</time></trkpt><trkpt lat="40.6615533" lon="15.325055"><ele>433.59999999999997</ele><time>2026-04-25T09:36:21.859Z</time></trkpt><trkpt lat="40.6616133" lon="15.3249533"><ele>433.79999999999995</ele><time>2026-04-25T09:36:22.859Z</time></trkpt><trkpt lat="40.6616633" lon="15.3248533"><ele>434.0</ele><time>2026-04-25T09:36:23.859Z</time></trkpt><trkpt lat="40.661705" lon="15.3247533"><ele>434.2</ele><time>2026-04-25T09:36:24.859Z</time></trkpt><trkpt lat="40.6617467" lon="15.3246367"><ele>434.4</ele><time>2026-04-25T09:36:25.858Z</time></trkpt><trkpt lat="40.66179" lon="15.3244917"><ele>434.6</ele><time>2026-04-25T09:36:26.858Z</time></trkpt><trkpt lat="40.661835" lon="15.3243433"><ele>434.8</ele><time>2026-04-25T09:36:27.858Z</time></trkpt><trkpt lat="40.66188" lon="15.3242083"><ele>435.0</ele><time>2026-04-25T09:36:28.859Z</time></trkpt><trkpt lat="40.6619217" lon="15.3240867"><ele>435.0</ele><time>2026-04-25T09:36:29.859Z</time></trkpt><trkpt lat="40.6619633" lon="15.3239683"><ele>435.0</ele><time>2026-04-25T09:36:30.859Z</time></trkpt><trkpt lat="40.662015" lon="15.3238467"><ele>435.0</ele><time>2026-04-25T09:36:31.859Z</time></trkpt><trkpt lat="40.6620767" lon="15.3237217"><ele>435.0</ele><time>2026-04-25T09:36:32.858Z</time></trkpt><trkpt lat="40.6621333" lon="15.3236083"><ele>435.0</ele><time>2026-04-25T09:36:33.858Z</time></trkpt><trkpt lat="40.662175" lon="15.3235033"><ele>435.0</ele><time>2026-04-25T09:36:34.859Z</time></trkpt><trkpt lat="40.6622" lon="15.3233883"><ele>435.0</ele><time>2026-04-25T09:36:35.858Z</time></trkpt><trkpt lat="40.6622233" lon="15.323275"><ele>435.0</ele><time>2026-04-25T09:36:36.859Z</time></trkpt><trkpt lat="40.6622383" lon="15.323175"><ele>435.0</ele><time>2026-04-25T09:36:37.859Z</time></trkpt><trkpt lat="40.6622583" lon="15.3230817"><ele>435.0</ele><time>2026-04-25T09:36:38.858Z</time></trkpt><trkpt lat="40.662285" lon="15.3229933"><ele>435.0</ele><time>2026-04-25T09:36:39.858Z</time></trkpt><trkpt lat="40.66233" lon="15.32284"><ele>435.4</ele><time>2026-04-25T09:36:41.858Z</time></trkpt><trkpt lat="40.66237" lon="15.322705"><ele>435.8</ele><time>2026-04-25T09:36:43.858Z</time></trkpt><trkpt lat="40.662405" lon="15.3226067"><ele>436.20000000000005</ele><time>2026-04-25T09:36:45.859Z</time></trkpt><trkpt lat="40.6624" lon="15.3225133"><ele>436.6</ele><time>2026-04-25T09:37:12.859Z</time></trkpt><trkpt lat="40.6622917" lon="15.322515"><ele>437.0</ele><time>2026-04-25T09:37:14.859Z</time></trkpt><trkpt lat="40.66221" lon="15.322515"><ele>437.0</ele><time>2026-04-25T09:37:15.859Z</time></trkpt><trkpt lat="40.66212" lon="15.3225133"><ele>437.00000000000006</ele><time>2026-04-25T09:37:16.859Z</time></trkpt><trkpt lat="40.662025" lon="15.32252"><ele>437.00000000000006</ele><time>2026-04-25T09:37:17.859Z</time></trkpt><trkpt lat="40.6619217" lon="15.32253"><ele>437.0</ele><time>2026-04-25T09:37:18.858Z</time></trkpt><trkpt lat="40.66181" lon="15.3225417"><ele>437.0</ele><time>2026-04-25T09:37:19.858Z</time></trkpt><trkpt lat="40.6616867" lon="15.3225633"><ele>437.0</ele><time>2026-04-25T09:37:20.859Z</time></trkpt><trkpt lat="40.661555" lon="15.3225867"><ele>437.0</ele><time>2026-04-25T09:37:21.858Z</time></trkpt><trkpt lat="40.661425" lon="15.3226083"><ele>437.0</ele><time>2026-04-25T09:37:22.858Z</time></trkpt><trkpt lat="40.6613" lon="15.32263"><ele>437.0</ele><time>2026-04-25T09:37:23.859Z</time></trkpt><trkpt lat="40.6611767" lon="15.3226517"><ele>437.5</ele><time>2026-04-25T09:37:24.859Z</time></trkpt><trkpt lat="40.661055" lon="15.3226733"><ele>438.0</ele><time>2026-04-25T09:37:25.859Z</time></trkpt><trkpt lat="40.660935" lon="15.3226917"><ele>438.5</ele><time>2026-04-25T09:37:26.859Z</time></trkpt><trkpt lat="40.6608133" lon="15.32271"><ele>439.0</ele><time>2026-04-25T09:37:27.859Z</time></trkpt><trkpt lat="40.6606933" lon="15.32273"><ele>439.0</ele><time>2026-04-25T09:37:28.858Z</time></trkpt><trkpt lat="40.6605633" lon="15.3227533"><ele>439.0</ele><time>2026-04-25T09:37:29.858Z</time></trkpt><trkpt lat="40.660435" lon="15.32279"><ele>439.0</ele><time>2026-04-25T09:37:30.859Z</time></trkpt><trkpt lat="40.6603067" lon="15.3228333"><ele>439.0</ele><time>2026-04-25T09:37:31.859Z</time></trkpt><trkpt lat="40.6601733" lon="15.3228833"><ele>439.25</ele><time>2026-04-25T09:37:32.859Z</time></trkpt><trkpt lat="40.6600383" lon="15.32293"><ele>439.5</ele><time>2026-04-25T09:37:33.858Z</time></trkpt><trkpt lat="40.6599017" lon="15.3229617"><ele>439.75</ele><time>2026-04-25T09:37:34.858Z</time></trkpt><trkpt lat="40.6597633" lon="15.3229883"><ele>440.0</ele><time>2026-04-25T09:37:35.858Z</time></trkpt><trkpt lat="40.6596233" lon="15.32302"><ele>440.0</ele><time>2026-04-25T09:37:36.859Z</time></trkpt><trkpt lat="40.6594883" lon="15.3230533"><ele>440.0</ele><time>2026-04-25T09:37:37.859Z</time></trkpt><trkpt lat="40.6593667" lon="15.323085"><ele>440.0</ele><time>2026-04-25T09:37:38.859Z</time></trkpt><trkpt lat="40.6592617" lon="15.3231183"><ele>440.0</ele><time>2026-04-25T09:37:39.859Z</time></trkpt><trkpt lat="40.6591733" lon="15.3231617"><ele>439.8</ele><time>2026-04-25T09:37:40.858Z</time></trkpt><trkpt lat="40.6591017" lon="15.3231983"><ele>439.6</ele><time>2026-04-25T09:37:41.859Z</time></trkpt><trkpt lat="40.6590033" lon="15.3232083"><ele>439.4</ele><time>2026-04-25T09:37:43.859Z</time></trkpt><trkpt lat="40.658935" lon="15.3231017"><ele>439.2</ele><time>2026-04-25T09:37:45.858Z</time></trkpt><trkpt lat="40.6588983" lon="15.3230033"><ele>439.0</ele><time>2026-04-25T09:37:46.858Z</time></trkpt><trkpt lat="40.6588617" lon="15.3228817"><ele>439.0</ele><time>2026-04-25T09:37:47.859Z</time></trkpt><trkpt lat="40.65882" lon="15.3227483"><ele>439.0</ele><time>2026-04-25T09:37:48.858Z</time></trkpt><trkpt lat="40.658775" lon="15.322625"><ele>439.0</ele><time>2026-04-25T09:37:49.858Z</time></trkpt><trkpt lat="40.6587267" lon="15.32253"><ele>439.0</ele><time>2026-04-25T09:37:50.858Z</time></trkpt><trkpt lat="40.6586667" lon="15.3224683"><ele>439.0</ele><time>2026-04-25T09:37:51.859Z</time></trkpt><trkpt lat="40.6585917" lon="15.322445"><ele>440.0</ele><time>2026-04-25T09:37:52.858Z</time></trkpt><trkpt lat="40.6585033" lon="15.3224633"><ele>441.0</ele><time>2026-04-25T09:37:53.858Z</time></trkpt><trkpt lat="40.6584017" lon="15.3224983"><ele>442.0</ele><time>2026-04-25T09:37:54.859Z</time></trkpt><trkpt lat="40.6582933" lon="15.3225317"><ele>443.0</ele><time>2026-04-25T09:37:55.859Z</time></trkpt><trkpt lat="40.6581717" lon="15.3225483"><ele>444.0</ele><time>2026-04-25T09:37:56.859Z</time></trkpt><trkpt lat="40.6580467" lon="15.32255"><ele>444.0</ele><time>2026-04-25T09:37:57.859Z</time></trkpt><trkpt lat="40.657915" lon="15.3225417"><ele>444.0</ele><time>2026-04-25T09:37:58.858Z</time></trkpt><trkpt lat="40.6577883" lon="15.3225233"><ele>444.0</ele><time>2026-04-25T09:37:59.859Z</time></trkpt><trkpt lat="40.6576667" lon="15.3225017"><ele>444.0</ele><time>2026-04-25T09:38:00.859Z</time></trkpt><trkpt lat="40.65755" lon="15.32248"><ele>445.0</ele><time>2026-04-25T09:38:01.859Z</time></trkpt><trkpt lat="40.6574483" lon="15.3224483"><ele>446.0</ele><time>2026-04-25T09:38:02.859Z</time></trkpt><trkpt lat="40.6573633" lon="15.3224217"><ele>447.0</ele><time>2026-04-25T09:38:03.858Z</time></trkpt><trkpt lat="40.6572867" lon="15.3224"><ele>448.0</ele><time>2026-04-25T09:38:04.859Z</time></trkpt><trkpt lat="40.6572133" lon="15.3223833"><ele>449.0</ele><time>2026-04-25T09:38:05.859Z</time></trkpt><trkpt lat="40.65715" lon="15.3223683"><ele>450.0</ele><time>2026-04-25T09:38:06.858Z</time></trkpt><trkpt lat="40.6570833" lon="15.322365"><ele>450.0</ele><time>2026-04-25T09:38:07.859Z</time></trkpt><trkpt lat="40.6570017" lon="15.3223733"><ele>450.0</ele><time>2026-04-25T09:38:08.859Z</time></trkpt><trkpt lat="40.656895" lon="15.32241"><ele>450.0</ele><time>2026-04-25T09:38:09.858Z</time></trkpt><trkpt lat="40.6567617" lon="15.3224817"><ele>450.0</ele><time>2026-04-25T09:38:10.858Z</time></trkpt><trkpt lat="40.6566283" lon="15.3225483"><ele>452.2</ele><time>2026-04-25T09:38:11.859Z</time></trkpt><trkpt lat="40.6565133" lon="15.322595"><ele>454.4</ele><time>2026-04-25T09:38:12.858Z</time></trkpt><trkpt lat="40.6564217" lon="15.32262"><ele>456.6</ele><time>2026-04-25T09:38:13.858Z</time></trkpt><trkpt lat="40.656345" lon="15.3226317"><ele>458.8</ele><time>2026-04-25T09:38:14.858Z</time></trkpt><trkpt lat="40.6562767" lon="15.3226383"><ele>461.0</ele><time>2026-04-25T09:38:15.858Z</time></trkpt><trkpt lat="40.6561567" lon="15.3226617"><ele>463.6</ele><time>2026-04-25T09:38:17.859Z</time></trkpt><trkpt lat="40.656045" lon="15.3227"><ele>466.20000000000005</ele><time>2026-04-25T09:38:19.858Z</time></trkpt><trkpt lat="40.6559717" lon="15.3227333"><ele>468.79999999999995</ele><time>2026-04-25T09:38:20.858Z</time></trkpt><trkpt lat="40.6558883" lon="15.32279"><ele>471.4</ele><time>2026-04-25T09:38:21.859Z</time></trkpt><trkpt lat="40.6557867" lon="15.3228817"><ele>474.0</ele><time>2026-04-25T09:38:22.859Z</time></trkpt><trkpt lat="40.6556667" lon="15.3229967"><ele>470.33333333333337</ele><time>2026-04-25T09:38:23.859Z</time></trkpt><trkpt lat="40.6555317" lon="15.3231167"><ele>466.6666666666667</ele><time>2026-04-25T09:38:24.858Z</time></trkpt><trkpt lat="40.6553967" lon="15.3232133"><ele>463.0</ele><time>2026-04-25T09:38:25.858Z</time></trkpt><trkpt lat="40.6552533" lon="15.323325"><ele>468.75</ele><time>2026-04-25T09:38:26.858Z</time></trkpt><trkpt lat="40.655125" lon="15.3234417"><ele>474.5</ele><time>2026-04-25T09:38:27.859Z</time></trkpt><trkpt lat="40.6550017" lon="15.32356"><ele>480.25</ele><time>2026-04-25T09:38:28.858Z</time></trkpt><trkpt lat="40.65489" lon="15.323665"><ele>486.0</ele><time>2026-04-25T09:38:29.858Z</time></trkpt><trkpt lat="40.6547833" lon="15.3237467"><ele>486.0</ele><time>2026-04-25T09:38:30.858Z</time></trkpt><trkpt lat="40.6546717" lon="15.323815"><ele>486.0</ele><time>2026-04-25T09:38:31.858Z</time></trkpt><trkpt lat="40.65456" lon="15.3238533"><ele>486.0</ele><time>2026-04-25T09:38:32.858Z</time></trkpt><trkpt lat="40.6544533" lon="15.3238817"><ele>486.0</ele><time>2026-04-25T09:38:33.858Z</time></trkpt><trkpt lat="40.6543533" lon="15.3239017"><ele>486.0</ele><time>2026-04-25T09:38:34.858Z</time></trkpt><trkpt lat="40.6542533" lon="15.3239233"><ele>487.0</ele><time>2026-04-25T09:38:35.858Z</time></trkpt><trkpt lat="40.6541683" lon="15.3239417"><ele>488.0</ele><time>2026-04-25T09:38:36.858Z</time></trkpt><trkpt lat="40.6540983" lon="15.3239517"><ele>489.0</ele><time>2026-04-25T09:38:37.858Z</time></trkpt><trkpt lat="40.6539933" lon="15.323975"><ele>490.0</ele><time>2026-04-25T09:38:39.859Z</time></trkpt><trkpt lat="40.6539133" lon="15.3239833"><ele>491.0</ele><time>2026-04-25T09:38:41.858Z</time></trkpt><trkpt lat="40.65385" lon="15.3239567"><ele>492.0</ele><time>2026-04-25T09:38:43.858Z</time></trkpt><trkpt lat="40.65379" lon="15.32392"><ele>492.0</ele><time>2026-04-25T09:38:46.859Z</time></trkpt><trkpt lat="40.653725" lon="15.3239183"><ele>492.0</ele><time>2026-04-25T09:38:48.858Z</time></trkpt><trkpt lat="40.6536483" lon="15.323905"><ele>492.0</ele><time>2026-04-25T09:38:50.858Z</time></trkpt><trkpt lat="40.6535767" lon="15.323895"><ele>492.0</ele><time>2026-04-25T09:38:52.859Z</time></trkpt><trkpt lat="40.6535" lon="15.3238883"><ele>492.0</ele><time>2026-04-25T09:38:54.858Z</time></trkpt><trkpt lat="40.6534283" lon="15.3239067"><ele>492.0</ele><time>2026-04-25T09:38:56.858Z</time></trkpt><trkpt lat="40.6533533" lon="15.3239633"><ele>494.20000000000005</ele><time>2026-04-25T09:38:58.858Z</time></trkpt><trkpt lat="40.6532733" lon="15.3240483"><ele>496.40000000000003</ele><time>2026-04-25T09:39:00.858Z</time></trkpt><trkpt lat="40.6531967" lon="15.3241183"><ele>498.59999999999997</ele><time>2026-04-25T09:39:02.859Z</time></trkpt><trkpt lat="40.65312" lon="15.3242083"><ele>500.79999999999995</ele><time>2026-04-25T09:39:04.858Z</time></trkpt><trkpt lat="40.6530467" lon="15.324315"><ele>503.0</ele><time>2026-04-25T09:39:06.859Z</time></trkpt><trkpt lat="40.6530083" lon="15.3243817"><ele>503.0</ele><time>2026-04-25T09:39:07.859Z</time></trkpt><trkpt lat="40.6529717" lon="15.3244617"><ele>503.00000000000006</ele><time>2026-04-25T09:39:08.858Z</time></trkpt><trkpt lat="40.6529417" lon="15.3245483"><ele>503.0</ele><time>2026-04-25T09:39:09.858Z</time></trkpt><trkpt lat="40.6529183" lon="15.3246283"><ele>503.0</ele><time>2026-04-25T09:39:10.859Z</time></trkpt><trkpt lat="40.6528883" lon="15.3247067"><ele>503.00000000000006</ele><time>2026-04-25T09:39:11.859Z</time></trkpt><trkpt lat="40.6528533" lon="15.3247767"><ele>503.0</ele><time>2026-04-25T09:39:12.859Z</time></trkpt><trkpt lat="40.652815" lon="15.3248433"><ele>503.0</ele><time>2026-04-25T09:39:13.859Z</time></trkpt><trkpt lat="40.65276" lon="15.3249283"><ele>503.8333333333333</ele><time>2026-04-25T09:39:15.859Z</time></trkpt><trkpt lat="40.6527083" lon="15.3249967"><ele>504.66666666666663</ele><time>2026-04-25T09:39:18.859Z</time></trkpt><trkpt lat="40.6526417" lon="15.3250667"><ele>505.5</ele><time>2026-04-25T09:39:20.859Z</time></trkpt><trkpt lat="40.652555" lon="15.3251733"><ele>506.33333333333337</ele><time>2026-04-25T09:39:22.859Z</time></trkpt><trkpt lat="40.65251" lon="15.3252317"><ele>507.1666666666667</ele><time>2026-04-25T09:39:23.858Z</time></trkpt><trkpt lat="40.6524583" lon="15.3253"><ele>508.0</ele><time>2026-04-25T09:39:24.858Z</time></trkpt><trkpt lat="40.652405" lon="15.32537"><ele>508.0</ele><time>2026-04-25T09:39:25.858Z</time></trkpt><trkpt lat="40.6523533" lon="15.3254467"><ele>507.99999999999994</ele><time>2026-04-25T09:39:26.859Z</time></trkpt><trkpt lat="40.6523083" lon="15.3255417"><ele>507.99999999999994</ele><time>2026-04-25T09:39:27.858Z</time></trkpt><trkpt lat="40.6522717" lon="15.3256567"><ele>508.0</ele><time>2026-04-25T09:39:28.858Z</time></trkpt><trkpt lat="40.6522317" lon="15.3257717"><ele>508.0</ele><time>2026-04-25T09:39:29.858Z</time></trkpt><trkpt lat="40.6521817" lon="15.325885"><ele>507.25</ele><time>2026-04-25T09:39:30.858Z</time></trkpt><trkpt lat="40.652115" lon="15.3259883"><ele>506.5</ele><time>2026-04-25T09:39:31.859Z</time></trkpt><trkpt lat="40.6520183" lon="15.3260833"><ele>505.75</ele><time>2026-04-25T09:39:32.859Z</time></trkpt><trkpt lat="40.6519183" lon="15.3261817"><ele>505.0</ele><time>2026-04-25T09:39:33.859Z</time></trkpt><trkpt lat="40.6518083" lon="15.3262767"><ele>505.0</ele><time>2026-04-25T09:39:34.859Z</time></trkpt><trkpt lat="40.65169" lon="15.3263733"><ele>505.0</ele><time>2026-04-25T09:39:35.859Z</time></trkpt><trkpt lat="40.6515617" lon="15.3264767"><ele>505.0</ele><time>2026-04-25T09:39:36.858Z</time></trkpt><trkpt lat="40.6514383" lon="15.3265917"><ele>505.0</ele><time>2026-04-25T09:39:37.858Z</time></trkpt><trkpt lat="40.6513283" lon="15.3267167"><ele>504.75</ele><time>2026-04-25T09:39:38.859Z</time></trkpt><trkpt lat="40.6512267" lon="15.326845"><ele>504.5</ele><time>2026-04-25T09:39:39.858Z</time></trkpt><trkpt lat="40.6511283" lon="15.3269717"><ele>504.25</ele><time>2026-04-25T09:39:40.859Z</time></trkpt><trkpt lat="40.6510317" lon="15.3271"><ele>504.0</ele><time>2026-04-25T09:39:41.858Z</time></trkpt><trkpt lat="40.6509367" lon="15.32723"><ele>503.0</ele><time>2026-04-25T09:39:42.858Z</time></trkpt><trkpt lat="40.650845" lon="15.3273517"><ele>502.0</ele><time>2026-04-25T09:39:43.859Z</time></trkpt><trkpt lat="40.6507617" lon="15.3274683"><ele>501.0</ele><time>2026-04-25T09:39:44.858Z</time></trkpt><trkpt lat="40.6506833" lon="15.32757"><ele>500.0</ele><time>2026-04-25T09:39:45.858Z</time></trkpt><trkpt lat="40.6506067" lon="15.3276733"><ele>500.0</ele><time>2026-04-25T09:39:46.858Z</time></trkpt><trkpt lat="40.6505317" lon="15.3277733"><ele>500.0</ele><time>2026-04-25T09:39:47.858Z</time></trkpt><trkpt lat="40.6504583" lon="15.32787"><ele>500.0</ele><time>2026-04-25T09:39:48.859Z</time></trkpt><trkpt lat="40.65039" lon="15.3279583"><ele>500.0</ele><time>2026-04-25T09:39:49.858Z</time></trkpt><trkpt lat="40.6503133" lon="15.32805"><ele>500.0</ele><time>2026-04-25T09:39:50.859Z</time></trkpt><trkpt lat="40.6502367" lon="15.3281333"><ele>499.8333333333333</ele><time>2026-04-25T09:39:51.859Z</time></trkpt><trkpt lat="40.6501617" lon="15.3282117"><ele>499.66666666666663</ele><time>2026-04-25T09:39:52.858Z</time></trkpt><trkpt lat="40.6500933" lon="15.3282717"><ele>499.5</ele><time>2026-04-25T09:39:53.858Z</time></trkpt><trkpt lat="40.65004" lon="15.328325"><ele>499.33333333333337</ele><time>2026-04-25T09:39:54.859Z</time></trkpt><trkpt lat="40.6500033" lon="15.328455"><ele>499.1666666666667</ele><time>2026-04-25T09:39:56.859Z</time></trkpt><trkpt lat="40.6499967" lon="15.32856"><ele>499.0</ele><time>2026-04-25T09:39:57.859Z</time></trkpt><trkpt lat="40.6499917" lon="15.3286883"><ele>499.0</ele><time>2026-04-25T09:39:58.859Z</time></trkpt><trkpt lat="40.64999" lon="15.3288217"><ele>499.0</ele><time>2026-04-25T09:39:59.859Z</time></trkpt><trkpt lat="40.6499933" lon="15.3289617"><ele>499.0</ele><time>2026-04-25T09:40:00.859Z</time></trkpt><trkpt lat="40.6499983" lon="15.3291017"><ele>499.0</ele><time>2026-04-25T09:40:01.858Z</time></trkpt><trkpt lat="40.6499983" lon="15.329255"><ele>499.0</ele><time>2026-04-25T09:40:02.857Z</time></trkpt><trkpt lat="40.649995" lon="15.3294167"><ele>497.5</ele><time>2026-04-25T09:40:03.857Z</time></trkpt><trkpt lat="40.6499933" lon="15.329585"><ele>496.0</ele><time>2026-04-25T09:40:04.858Z</time></trkpt><trkpt lat="40.6499917" lon="15.3297617"><ele>494.5</ele><time>2026-04-25T09:40:05.857Z</time></trkpt><trkpt lat="40.6499867" lon="15.3299433"><ele>493.0</ele><time>2026-04-25T09:40:06.857Z</time></trkpt><trkpt lat="40.6499917" lon="15.3301317"><ele>491.0</ele><time>2026-04-25T09:40:07.858Z</time></trkpt><trkpt lat="40.6499933" lon="15.33032"><ele>489.0</ele><time>2026-04-25T09:40:08.857Z</time></trkpt><trkpt lat="40.6500017" lon="15.330505"><ele>487.0</ele><time>2026-04-25T09:40:09.857Z</time></trkpt><trkpt lat="40.6500233" lon="15.330685"><ele>485.0</ele><time>2026-04-25T09:40:10.857Z</time></trkpt><trkpt lat="40.65006" lon="15.3308617"><ele>483.75</ele><time>2026-04-25T09:40:11.857Z</time></trkpt><trkpt lat="40.6500983" lon="15.33104"><ele>482.5</ele><time>2026-04-25T09:40:12.858Z</time></trkpt><trkpt lat="40.6501383" lon="15.3312133"><ele>481.25</ele><time>2026-04-25T09:40:13.858Z</time></trkpt><trkpt lat="40.6501767" lon="15.3313783"><ele>480.0</ele><time>2026-04-25T09:40:14.857Z</time></trkpt><trkpt lat="40.650205" lon="15.331515"><ele>479.4</ele><time>2026-04-25T09:40:15.857Z</time></trkpt><trkpt lat="40.650225" lon="15.3316233"><ele>478.8</ele><time>2026-04-25T09:40:16.858Z</time></trkpt><trkpt lat="40.6502517" lon="15.33177"><ele>478.20000000000005</ele><time>2026-04-25T09:40:18.857Z</time></trkpt><trkpt lat="40.6502683" lon="15.3318567"><ele>477.6</ele><time>2026-04-25T09:40:19.857Z</time></trkpt><trkpt lat="40.6503" lon="15.3319733"><ele>477.0</ele><time>2026-04-25T09:40:20.857Z</time></trkpt><trkpt lat="40.6503217" lon="15.3321067"><ele>476.5</ele><time>2026-04-25T09:40:21.858Z</time></trkpt><trkpt lat="40.6503133" lon="15.33226"><ele>476.0</ele><time>2026-04-25T09:40:22.857Z</time></trkpt><trkpt lat="40.65029" lon="15.332435"><ele>475.5</ele><time>2026-04-25T09:40:23.858Z</time></trkpt><trkpt lat="40.6502717" lon="15.3326017"><ele>475.0</ele><time>2026-04-25T09:40:24.858Z</time></trkpt><trkpt lat="40.650255" lon="15.332785"><ele>472.6666666666667</ele><time>2026-04-25T09:40:25.858Z</time></trkpt><trkpt lat="40.6502117" lon="15.332975"><ele>470.33333333333337</ele><time>2026-04-25T09:40:26.858Z</time></trkpt><trkpt lat="40.6501533" lon="15.3331767"><ele>468.0</ele><time>2026-04-25T09:40:27.858Z</time></trkpt><trkpt lat="40.6500817" lon="15.3333767"><ele>467.25</ele><time>2026-04-25T09:40:28.858Z</time></trkpt><trkpt lat="40.6500167" lon="15.3335617"><ele>466.5</ele><time>2026-04-25T09:40:29.857Z</time></trkpt><trkpt lat="40.6499567" lon="15.3337383"><ele>465.75</ele><time>2026-04-25T09:40:30.857Z</time></trkpt><trkpt lat="40.6499033" lon="15.3339017"><ele>465.0</ele><time>2026-04-25T09:40:31.857Z</time></trkpt><trkpt lat="40.6498567" lon="15.33406"><ele>464.75</ele><time>2026-04-25T09:40:32.858Z</time></trkpt><trkpt lat="40.6498217" lon="15.334215"><ele>464.5</ele><time>2026-04-25T09:40:33.857Z</time></trkpt><trkpt lat="40.649785" lon="15.3343733"><ele>464.25</ele><time>2026-04-25T09:40:34.857Z</time></trkpt><trkpt lat="40.6497483" lon="15.3345417"><ele>464.0</ele><time>2026-04-25T09:40:35.858Z</time></trkpt><trkpt lat="40.6497233" lon="15.3347117"><ele>462.75</ele><time>2026-04-25T09:40:36.858Z</time></trkpt><trkpt lat="40.649715" lon="15.33488"><ele>461.5</ele><time>2026-04-25T09:40:37.858Z</time></trkpt><trkpt lat="40.6497133" lon="15.335045"><ele>460.25</ele><time>2026-04-25T09:40:38.858Z</time></trkpt><trkpt lat="40.6497067" lon="15.3352217"><ele>459.0</ele><time>2026-04-25T09:40:39.858Z</time></trkpt><trkpt lat="40.6497033" lon="15.3354083"><ele>458.66666666666663</ele><time>2026-04-25T09:40:40.858Z</time></trkpt><trkpt lat="40.6497117" lon="15.3356033"><ele>458.3333333333333</ele><time>2026-04-25T09:40:41.858Z</time></trkpt><trkpt lat="40.6497267" lon="15.3358"><ele>458.0</ele><time>2026-04-25T09:40:42.858Z</time></trkpt><trkpt lat="40.6497567" lon="15.3360033"><ele>458.0</ele><time>2026-04-25T09:40:43.857Z</time></trkpt><trkpt lat="40.649785" lon="15.3361967"><ele>458.0</ele><time>2026-04-25T09:40:44.858Z</time></trkpt><trkpt lat="40.6497983" lon="15.336375"><ele>458.0</ele><time>2026-04-25T09:40:45.858Z</time></trkpt><trkpt lat="40.649785" lon="15.3365367"><ele>458.0</ele><time>2026-04-25T09:40:46.857Z</time></trkpt><trkpt lat="40.6497417" lon="15.3366917"><ele>460.0</ele><time>2026-04-25T09:40:47.858Z</time></trkpt><trkpt lat="40.64969" lon="15.3368467"><ele>462.0</ele><time>2026-04-25T09:40:48.857Z</time></trkpt><trkpt lat="40.649635" lon="15.3370067"><ele>464.0</ele><time>2026-04-25T09:40:49.858Z</time></trkpt><trkpt lat="40.6495683" lon="15.3371817"><ele>466.0</ele><time>2026-04-25T09:40:50.858Z</time></trkpt><trkpt lat="40.6495017" lon="15.3373683"><ele>462.75</ele><time>2026-04-25T09:40:51.858Z</time></trkpt><trkpt lat="40.64944" lon="15.3375467"><ele>459.5</ele><time>2026-04-25T09:40:52.858Z</time></trkpt><trkpt lat="40.6493833" lon="15.337715"><ele>456.25</ele><time>2026-04-25T09:40:53.858Z</time></trkpt><trkpt lat="40.6493167" lon="15.3378767"><ele>453.0</ele><time>2026-04-25T09:40:54.858Z</time></trkpt><trkpt lat="40.6492483" lon="15.33805"><ele>455.0</ele><time>2026-04-25T09:40:55.858Z</time></trkpt><trkpt lat="40.6491967" lon="15.3382133"><ele>457.0</ele><time>2026-04-25T09:40:56.857Z</time></trkpt><trkpt lat="40.6491767" lon="15.3383683"><ele>459.0</ele><time>2026-04-25T09:40:57.857Z</time></trkpt><trkpt lat="40.6491817" lon="15.3385267"><ele>461.0</ele><time>2026-04-25T09:40:58.857Z</time></trkpt><trkpt lat="40.6491933" lon="15.3386733"><ele>461.0</ele><time>2026-04-25T09:40:59.858Z</time></trkpt><trkpt lat="40.6491967" lon="15.3388067"><ele>461.0</ele><time>2026-04-25T09:41:00.857Z</time></trkpt><trkpt lat="40.6492083" lon="15.3389417"><ele>461.0</ele><time>2026-04-25T09:41:01.858Z</time></trkpt><trkpt lat="40.64923" lon="15.3390733"><ele>461.0</ele><time>2026-04-25T09:41:02.858Z</time></trkpt><trkpt lat="40.64928" lon="15.3392083"><ele>461.0</ele><time>2026-04-25T09:41:03.857Z</time></trkpt><trkpt lat="40.6493533" lon="15.3393517"><ele>460.75</ele><time>2026-04-25T09:41:04.858Z</time></trkpt><trkpt lat="40.649435" lon="15.3394933"><ele>460.5</ele><time>2026-04-25T09:41:05.857Z</time></trkpt><trkpt lat="40.6494983" lon="15.3396467"><ele>460.25</ele><time>2026-04-25T09:41:06.858Z</time></trkpt><trkpt lat="40.649535" lon="15.3398067"><ele>460.0</ele><time>2026-04-25T09:41:07.858Z</time></trkpt><trkpt lat="40.6495583" lon="15.33996"><ele>458.8</ele><time>2026-04-25T09:41:08.858Z</time></trkpt><trkpt lat="40.649575" lon="15.3401167"><ele>457.6</ele><time>2026-04-25T09:41:09.857Z</time></trkpt><trkpt lat="40.6495817" lon="15.3402633"><ele>456.4</ele><time>2026-04-25T09:41:10.858Z</time></trkpt><trkpt lat="40.64958" lon="15.3404067"><ele>455.2</ele><time>2026-04-25T09:41:11.857Z</time></trkpt><trkpt lat="40.6495767" lon="15.3405317"><ele>454.0</ele><time>2026-04-25T09:41:12.858Z</time></trkpt><trkpt lat="40.6495667" lon="15.3406433"><ele>454.00000000000006</ele><time>2026-04-25T09:41:13.857Z</time></trkpt><trkpt lat="40.6495433" lon="15.34073"><ele>454.0</ele><time>2026-04-25T09:41:14.857Z</time></trkpt><trkpt lat="40.6494717" lon="15.340845"><ele>454.0</ele><time>2026-04-25T09:41:16.858Z</time></trkpt><trkpt lat="40.649415" lon="15.3409"><ele>454.0</ele><time>2026-04-25T09:41:17.857Z</time></trkpt><trkpt lat="40.6493417" lon="15.3409533"><ele>454.00000000000006</ele><time>2026-04-25T09:41:18.857Z</time></trkpt><trkpt lat="40.6492733" lon="15.3410067"><ele>454.0</ele><time>2026-04-25T09:41:19.857Z</time></trkpt><trkpt lat="40.649205" lon="15.3410517"><ele>453.6</ele><time>2026-04-25T09:41:20.858Z</time></trkpt><trkpt lat="40.6491367" lon="15.341115"><ele>453.2</ele><time>2026-04-25T09:41:21.857Z</time></trkpt><trkpt lat="40.64907" lon="15.3411917"><ele>452.80000000000007</ele><time>2026-04-25T09:41:22.857Z</time></trkpt><trkpt lat="40.6490033" lon="15.3412883"><ele>452.40000000000003</ele><time>2026-04-25T09:41:23.857Z</time></trkpt><trkpt lat="40.6489433" lon="15.341395"><ele>452.0</ele><time>2026-04-25T09:41:24.857Z</time></trkpt><trkpt lat="40.6488833" lon="15.34152"><ele>453.0</ele><time>2026-04-25T09:41:25.858Z</time></trkpt><trkpt lat="40.648825" lon="15.341645"><ele>454.0</ele><time>2026-04-25T09:41:26.858Z</time></trkpt><trkpt lat="40.6487633" lon="15.34178"><ele>455.0</ele><time>2026-04-25T09:41:27.858Z</time></trkpt><trkpt lat="40.6486983" lon="15.341915"><ele>456.0</ele><time>2026-04-25T09:41:28.857Z</time></trkpt><trkpt lat="40.6486317" lon="15.3420483"><ele>454.5</ele><time>2026-04-25T09:41:29.858Z</time></trkpt><trkpt lat="40.6485667" lon="15.3421733"><ele>453.0</ele><time>2026-04-25T09:41:30.858Z</time></trkpt><trkpt lat="40.6485017" lon="15.342305"><ele>451.5</ele><time>2026-04-25T09:41:31.857Z</time></trkpt><trkpt lat="40.648435" lon="15.3424333"><ele>450.0</ele><time>2026-04-25T09:41:32.858Z</time></trkpt><trkpt lat="40.648375" lon="15.3425683"><ele>450.0</ele><time>2026-04-25T09:41:33.857Z</time></trkpt><trkpt lat="40.6483233" lon="15.3427167"><ele>450.0</ele><time>2026-04-25T09:41:34.857Z</time></trkpt><trkpt lat="40.648285" lon="15.3428867"><ele>450.0</ele><time>2026-04-25T09:41:35.857Z</time></trkpt><trkpt lat="40.6482583" lon="15.3430633"><ele>450.0</ele><time>2026-04-25T09:41:36.858Z</time></trkpt><trkpt lat="40.64824" lon="15.3432417"><ele>449.75</ele><time>2026-04-25T09:41:37.857Z</time></trkpt><trkpt lat="40.64824" lon="15.3434233"><ele>449.5</ele><time>2026-04-25T09:41:38.857Z</time></trkpt><trkpt lat="40.6482517" lon="15.3436"><ele>449.25</ele><time>2026-04-25T09:41:39.857Z</time></trkpt><trkpt lat="40.648265" lon="15.3437667"><ele>449.0</ele><time>2026-04-25T09:41:40.857Z</time></trkpt><trkpt lat="40.648275" lon="15.3439283"><ele>449.0</ele><time>2026-04-25T09:41:41.857Z</time></trkpt><trkpt lat="40.648255" lon="15.34408"><ele>449.0</ele><time>2026-04-25T09:41:42.857Z</time></trkpt><trkpt lat="40.6482017" lon="15.3442017"><ele>449.0</ele><time>2026-04-25T09:41:43.857Z</time></trkpt><trkpt lat="40.64812" lon="15.3443267"><ele>449.0</ele><time>2026-04-25T09:41:44.858Z</time></trkpt><trkpt lat="40.6480217" lon="15.3444633"><ele>449.0</ele><time>2026-04-25T09:41:45.858Z</time></trkpt><trkpt lat="40.6479133" lon="15.3446117"><ele>449.0</ele><time>2026-04-25T09:41:46.857Z</time></trkpt><trkpt lat="40.647805" lon="15.344765"><ele>449.0</ele><time>2026-04-25T09:41:47.857Z</time></trkpt><trkpt lat="40.647695" lon="15.3449083"><ele>451.0</ele><time>2026-04-25T09:41:48.857Z</time></trkpt><trkpt lat="40.6475883" lon="15.3450617"><ele>453.0</ele><time>2026-04-25T09:41:49.858Z</time></trkpt><trkpt lat="40.6474917" lon="15.3452283"><ele>455.0</ele><time>2026-04-25T09:41:50.857Z</time></trkpt><trkpt lat="40.6474183" lon="15.345405"><ele>456.0</ele><time>2026-04-25T09:41:51.858Z</time></trkpt><trkpt lat="40.6473667" lon="15.3455817"><ele>457.0</ele><time>2026-04-25T09:41:52.857Z</time></trkpt><trkpt lat="40.6473467" lon="15.3457217"><ele>458.0</ele><time>2026-04-25T09:41:53.858Z</time></trkpt><trkpt lat="40.6473483" lon="15.345835"><ele>459.0</ele><time>2026-04-25T09:41:54.858Z</time></trkpt><trkpt lat="40.6473567" lon="15.3459367"><ele>460.0</ele><time>2026-04-25T09:41:55.857Z</time></trkpt><trkpt lat="40.6473667" lon="15.34602"><ele>460.0</ele><time>2026-04-25T09:41:56.858Z</time></trkpt><trkpt lat="40.647375" lon="15.3461683"><ele>460.0</ele><time>2026-04-25T09:41:58.858Z</time></trkpt><trkpt lat="40.64735" lon="15.34635"><ele>460.0</ele><time>2026-04-25T09:42:00.858Z</time></trkpt><trkpt lat="40.647335" lon="15.3464833"><ele>460.0</ele><time>2026-04-25T09:42:01.858Z</time></trkpt><trkpt lat="40.6473367" lon="15.34663"><ele>462.5</ele><time>2026-04-25T09:42:02.858Z</time></trkpt><trkpt lat="40.6473467" lon="15.3467733"><ele>465.0</ele><time>2026-04-25T09:42:03.858Z</time></trkpt><trkpt lat="40.647365" lon="15.34693"><ele>467.5</ele><time>2026-04-25T09:42:04.857Z</time></trkpt><trkpt lat="40.64737" lon="15.3470817"><ele>470.0</ele><time>2026-04-25T09:42:05.857Z</time></trkpt><trkpt lat="40.6473567" lon="15.3472333"><ele>471.25</ele><time>2026-04-25T09:42:06.858Z</time></trkpt><trkpt lat="40.647335" lon="15.3473933"><ele>472.5</ele><time>2026-04-25T09:42:07.858Z</time></trkpt><trkpt lat="40.6473083" lon="15.3475683"><ele>473.75</ele><time>2026-04-25T09:42:08.858Z</time></trkpt><trkpt lat="40.6472817" lon="15.3477633"><ele>475.0</ele><time>2026-04-25T09:42:09.858Z</time></trkpt><trkpt lat="40.647265" lon="15.347955"><ele>474.6666666666667</ele><time>2026-04-25T09:42:10.858Z</time></trkpt><trkpt lat="40.6472483" lon="15.3481567"><ele>474.33333333333337</ele><time>2026-04-25T09:42:11.857Z</time></trkpt><trkpt lat="40.64722" lon="15.348355"><ele>474.0</ele><time>2026-04-25T09:42:12.858Z</time></trkpt><trkpt lat="40.6471833" lon="15.3485533"><ele>474.0</ele><time>2026-04-25T09:42:13.858Z</time></trkpt><trkpt lat="40.6471417" lon="15.3487517"><ele>474.0</ele><time>2026-04-25T09:42:14.858Z</time></trkpt><trkpt lat="40.6471033" lon="15.3489483"><ele>474.0</ele><time>2026-04-25T09:42:15.857Z</time></trkpt><trkpt lat="40.6470683" lon="15.349145"><ele>473.75</ele><time>2026-04-25T09:42:16.858Z</time></trkpt><trkpt lat="40.64704" lon="15.3493433"><ele>473.5</ele><time>2026-04-25T09:42:17.858Z</time></trkpt><trkpt lat="40.64702" lon="15.34954"><ele>473.25</ele><time>2026-04-25T09:42:18.857Z</time></trkpt><trkpt lat="40.6470083" lon="15.34973"><ele>473.0</ele><time>2026-04-25T09:42:19.858Z</time></trkpt><trkpt lat="40.647" lon="15.3499183"><ele>473.5</ele><time>2026-04-25T09:42:20.858Z</time></trkpt><trkpt lat="40.646995" lon="15.3501117"><ele>474.0</ele><time>2026-04-25T09:42:21.857Z</time></trkpt><trkpt lat="40.6469917" lon="15.3502983"><ele>474.5</ele><time>2026-04-25T09:42:22.858Z</time></trkpt><trkpt lat="40.64699" lon="15.3504817"><ele>475.0</ele><time>2026-04-25T09:42:23.858Z</time></trkpt><trkpt lat="40.6469783" lon="15.3506633"><ele>475.0</ele><time>2026-04-25T09:42:24.857Z</time></trkpt><trkpt lat="40.6469733" lon="15.350855"><ele>475.0</ele><time>2026-04-25T09:42:25.857Z</time></trkpt><trkpt lat="40.6469733" lon="15.35105"><ele>475.0</ele><time>2026-04-25T09:42:26.858Z</time></trkpt><trkpt lat="40.6469717" lon="15.3512417"><ele>475.0</ele><time>2026-04-25T09:42:27.858Z</time></trkpt><trkpt lat="40.646965" lon="15.3514333"><ele>474.25</ele><time>2026-04-25T09:42:28.857Z</time></trkpt><trkpt lat="40.646965" lon="15.35162"><ele>473.5</ele><time>2026-04-25T09:42:29.858Z</time></trkpt><trkpt lat="40.6469717" lon="15.351795"><ele>472.75</ele><time>2026-04-25T09:42:30.858Z</time></trkpt><trkpt lat="40.6469767" lon="15.3519717"><ele>472.0</ele><time>2026-04-25T09:42:31.858Z</time></trkpt><trkpt lat="40.6469667" lon="15.352145"><ele>472.0</ele><time>2026-04-25T09:42:32.857Z</time></trkpt><trkpt lat="40.6469617" lon="15.35231"><ele>472.0</ele><time>2026-04-25T09:42:33.857Z</time></trkpt><trkpt lat="40.6469517" lon="15.3524783"><ele>472.0</ele><time>2026-04-25T09:42:34.858Z</time></trkpt><trkpt lat="40.646955" lon="15.3526383"><ele>472.0</ele><time>2026-04-25T09:42:35.858Z</time></trkpt><trkpt lat="40.6469783" lon="15.3527967"><ele>472.0</ele><time>2026-04-25T09:42:36.857Z</time></trkpt><trkpt lat="40.647015" lon="15.3529683"><ele>472.0</ele><time>2026-04-25T09:42:37.857Z</time></trkpt><trkpt lat="40.64705" lon="15.3531433"><ele>472.0</ele><time>2026-04-25T09:42:38.858Z</time></trkpt><trkpt lat="40.647085" lon="15.3533083"><ele>472.0</ele><time>2026-04-25T09:42:39.858Z</time></trkpt><trkpt lat="40.647115" lon="15.3534517"><ele>471.40000000000003</ele><time>2026-04-25T09:42:40.857Z</time></trkpt><trkpt lat="40.64712" lon="15.3535883"><ele>470.80000000000007</ele><time>2026-04-25T09:42:41.857Z</time></trkpt><trkpt lat="40.6471133" lon="15.353725"><ele>470.2</ele><time>2026-04-25T09:42:42.858Z</time></trkpt><trkpt lat="40.6470683" lon="15.3538583"><ele>469.6</ele><time>2026-04-25T09:42:43.858Z</time></trkpt><trkpt lat="40.647005" lon="15.3539867"><ele>469.0</ele><time>2026-04-25T09:42:44.857Z</time></trkpt><trkpt lat="40.64695" lon="15.3541217"><ele>468.75</ele><time>2026-04-25T09:42:45.858Z</time></trkpt><trkpt lat="40.6469117" lon="15.354245"><ele>468.5</ele><time>2026-04-25T09:42:46.857Z</time></trkpt><trkpt lat="40.6469133" lon="15.3543867"><ele>468.25</ele><time>2026-04-25T09:42:47.858Z</time></trkpt><trkpt lat="40.6469417" lon="15.354535"><ele>468.0</ele><time>2026-04-25T09:42:48.857Z</time></trkpt><trkpt lat="40.6469767" lon="15.354695"><ele>468.5</ele><time>2026-04-25T09:42:49.858Z</time></trkpt><trkpt lat="40.6470017" lon="15.3548533"><ele>469.0</ele><time>2026-04-25T09:42:50.858Z</time></trkpt><trkpt lat="40.64702" lon="15.3550117"><ele>469.5</ele><time>2026-04-25T09:42:51.858Z</time></trkpt><trkpt lat="40.6470317" lon="15.3551767"><ele>470.0</ele><time>2026-04-25T09:42:52.858Z</time></trkpt><trkpt lat="40.6470417" lon="15.3553483"><ele>470.0</ele><time>2026-04-25T09:42:53.858Z</time></trkpt><trkpt lat="40.647055" lon="15.3555117"><ele>470.0</ele><time>2026-04-25T09:42:54.858Z</time></trkpt><trkpt lat="40.647075" lon="15.3556733"><ele>470.0</ele><time>2026-04-25T09:42:55.858Z</time></trkpt><trkpt lat="40.6470783" lon="15.3558333"><ele>470.0</ele><time>2026-04-25T09:42:56.857Z</time></trkpt><trkpt lat="40.647075" lon="15.3559933"><ele>470.0</ele><time>2026-04-25T09:42:57.857Z</time></trkpt><trkpt lat="40.647065" lon="15.3561567"><ele>470.0</ele><time>2026-04-25T09:42:58.857Z</time></trkpt><trkpt lat="40.647055" lon="15.356335"><ele>470.0</ele><time>2026-04-25T09:42:59.858Z</time></trkpt><trkpt lat="40.6470483" lon="15.3565167"><ele>470.0</ele><time>2026-04-25T09:43:00.857Z</time></trkpt><trkpt lat="40.6470417" lon="15.3567033"><ele>470.0</ele><time>2026-04-25T09:43:01.858Z</time></trkpt><trkpt lat="40.6470433" lon="15.35689"><ele>470.0</ele><time>2026-04-25T09:43:02.857Z</time></trkpt><trkpt lat="40.6470467" lon="15.35707"><ele>470.0</ele><time>2026-04-25T09:43:03.857Z</time></trkpt><trkpt lat="40.6470183" lon="15.3572267"><ele>470.0</ele><time>2026-04-25T09:43:04.857Z</time></trkpt><trkpt lat="40.6469733" lon="15.3573767"><ele>471.0</ele><time>2026-04-25T09:43:05.858Z</time></trkpt><trkpt lat="40.6469017" lon="15.35753"><ele>472.0</ele><time>2026-04-25T09:43:06.858Z</time></trkpt><trkpt lat="40.6468233" lon="15.3576783"><ele>473.0</ele><time>2026-04-25T09:43:07.858Z</time></trkpt><trkpt lat="40.64674" lon="15.35783"><ele>474.0</ele><time>2026-04-25T09:43:08.858Z</time></trkpt><trkpt lat="40.646655" lon="15.3579783"><ele>474.25</ele><time>2026-04-25T09:43:09.857Z</time></trkpt><trkpt lat="40.646575" lon="15.358125"><ele>474.5</ele><time>2026-04-25T09:43:10.858Z</time></trkpt><trkpt lat="40.646495" lon="15.358275"><ele>474.75</ele><time>2026-04-25T09:43:11.857Z</time></trkpt><trkpt lat="40.6464267" lon="15.35843"><ele>475.0</ele><time>2026-04-25T09:43:12.858Z</time></trkpt><trkpt lat="40.64636" lon="15.3585967"><ele>475.0</ele><time>2026-04-25T09:43:13.857Z</time></trkpt><trkpt lat="40.646305" lon="15.358765"><ele>475.0</ele><time>2026-04-25T09:43:14.858Z</time></trkpt><trkpt lat="40.646255" lon="15.358925"><ele>475.0</ele><time>2026-04-25T09:43:15.858Z</time></trkpt><trkpt lat="40.6462133" lon="15.359085"><ele>475.0</ele><time>2026-04-25T09:43:16.857Z</time></trkpt><trkpt lat="40.6461717" lon="15.3592483"><ele>475.0</ele><time>2026-04-25T09:43:17.857Z</time></trkpt><trkpt lat="40.6461217" lon="15.35941"><ele>475.0</ele><time>2026-04-25T09:43:18.857Z</time></trkpt><trkpt lat="40.6460567" lon="15.3595617"><ele>475.0</ele><time>2026-04-25T09:43:19.858Z</time></trkpt><trkpt lat="40.6459617" lon="15.3597"><ele>475.0</ele><time>2026-04-25T09:43:20.857Z</time></trkpt><trkpt lat="40.6458583" lon="15.35983"><ele>475.0</ele><time>2026-04-25T09:43:21.857Z</time></trkpt><trkpt lat="40.64575" lon="15.3599517"><ele>475.0</ele><time>2026-04-25T09:43:22.858Z</time></trkpt><trkpt lat="40.6456467" lon="15.360065"><ele>475.0</ele><time>2026-04-25T09:43:23.857Z</time></trkpt><trkpt lat="40.6455417" lon="15.3601767"><ele>475.0</ele><time>2026-04-25T09:43:24.858Z</time></trkpt><trkpt lat="40.6454533" lon="15.3602967"><ele>475.0</ele><time>2026-04-25T09:43:25.857Z</time></trkpt><trkpt lat="40.64538" lon="15.3604367"><ele>475.0</ele><time>2026-04-25T09:43:26.858Z</time></trkpt><trkpt lat="40.6453317" lon="15.3606033"><ele>475.0</ele><time>2026-04-25T09:43:27.858Z</time></trkpt><trkpt lat="40.645285" lon="15.360775"><ele>475.0</ele><time>2026-04-25T09:43:28.858Z</time></trkpt><trkpt lat="40.64524" lon="15.36095"><ele>474.33333333333337</ele><time>2026-04-25T09:43:29.858Z</time></trkpt><trkpt lat="40.64519" lon="15.36113"><ele>473.66666666666663</ele><time>2026-04-25T09:43:30.858Z</time></trkpt><trkpt lat="40.6451333" lon="15.3613183"><ele>473.0</ele><time>2026-04-25T09:43:31.858Z</time></trkpt><trkpt lat="40.6450717" lon="15.3615183"><ele>473.0</ele><time>2026-04-25T09:43:32.857Z</time></trkpt><trkpt lat="40.6450017" lon="15.3617167"><ele>473.0</ele><time>2026-04-25T09:43:33.858Z</time></trkpt><trkpt lat="40.644935" lon="15.3619217"><ele>473.0</ele><time>2026-04-25T09:43:34.857Z</time></trkpt><trkpt lat="40.6448733" lon="15.36213"><ele>472.66666666666663</ele><time>2026-04-25T09:43:35.857Z</time></trkpt><trkpt lat="40.644825" lon="15.3623417"><ele>472.33333333333337</ele><time>2026-04-25T09:43:36.857Z</time></trkpt><trkpt lat="40.64478" lon="15.36254"><ele>472.0</ele><time>2026-04-25T09:43:37.858Z</time></trkpt><trkpt lat="40.644715" lon="15.3627217"><ele>472.0</ele><time>2026-04-25T09:43:38.857Z</time></trkpt><trkpt lat="40.64464" lon="15.36288"><ele>472.0</ele><time>2026-04-25T09:43:39.857Z</time></trkpt><trkpt lat="40.6445433" lon="15.363025"><ele>472.0</ele><time>2026-04-25T09:43:40.858Z</time></trkpt><trkpt lat="40.6444467" lon="15.363175"><ele>472.0</ele><time>2026-04-25T09:43:41.857Z</time></trkpt><trkpt lat="40.6443483" lon="15.3633417"><ele>474.0</ele><time>2026-04-25T09:43:42.858Z</time></trkpt><trkpt lat="40.6442567" lon="15.36352"><ele>476.0</ele><time>2026-04-25T09:43:43.858Z</time></trkpt><trkpt lat="40.6441667" lon="15.3636867"><ele>478.0</ele><time>2026-04-25T09:43:44.857Z</time></trkpt><trkpt lat="40.64409" lon="15.3638333"><ele>477.5</ele><time>2026-04-25T09:43:45.858Z</time></trkpt><trkpt lat="40.644025" lon="15.3639817"><ele>477.0</ele><time>2026-04-25T09:43:46.858Z</time></trkpt><trkpt lat="40.64398" lon="15.36414"><ele>476.5</ele><time>2026-04-25T09:43:47.857Z</time></trkpt><trkpt lat="40.64395" lon="15.3643083"><ele>476.0</ele><time>2026-04-25T09:43:48.857Z</time></trkpt><trkpt lat="40.6439283" lon="15.364475"><ele>476.0</ele><time>2026-04-25T09:43:49.857Z</time></trkpt><trkpt lat="40.6438917" lon="15.3646367"><ele>476.0</ele><time>2026-04-25T09:43:50.858Z</time></trkpt><trkpt lat="40.6438333" lon="15.3647833"><ele>476.0</ele><time>2026-04-25T09:43:51.857Z</time></trkpt><trkpt lat="40.6437517" lon="15.3649133"><ele>476.0</ele><time>2026-04-25T09:43:52.857Z</time></trkpt><trkpt lat="40.643655" lon="15.3650383"><ele>476.5</ele><time>2026-04-25T09:43:53.857Z</time></trkpt><trkpt lat="40.643565" lon="15.3651683"><ele>477.0</ele><time>2026-04-25T09:43:54.858Z</time></trkpt><trkpt lat="40.643485" lon="15.36532"><ele>477.5</ele><time>2026-04-25T09:43:55.857Z</time></trkpt><trkpt lat="40.643415" lon="15.3654883"><ele>478.0</ele><time>2026-04-25T09:43:56.858Z</time></trkpt><trkpt lat="40.64334" lon="15.3656517"><ele>478.33333333333337</ele><time>2026-04-25T09:43:57.858Z</time></trkpt><trkpt lat="40.64326" lon="15.3658283"><ele>478.66666666666663</ele><time>2026-04-25T09:43:58.857Z</time></trkpt><trkpt lat="40.6431933" lon="15.366005"><ele>479.0</ele><time>2026-04-25T09:43:59.857Z</time></trkpt><trkpt lat="40.6431383" lon="15.3662033"><ele>478.3333333333333</ele><time>2026-04-25T09:44:00.858Z</time></trkpt><trkpt lat="40.6430917" lon="15.36641"><ele>477.66666666666663</ele><time>2026-04-25T09:44:01.857Z</time></trkpt><trkpt lat="40.64304" lon="15.366605"><ele>477.0</ele><time>2026-04-25T09:44:02.857Z</time></trkpt><trkpt lat="40.6429783" lon="15.366805"><ele>477.0</ele><time>2026-04-25T09:44:03.858Z</time></trkpt><trkpt lat="40.64291" lon="15.367005"><ele>477.0</ele><time>2026-04-25T09:44:04.857Z</time></trkpt><trkpt lat="40.64286" lon="15.3672"><ele>477.0</ele><time>2026-04-25T09:44:05.857Z</time></trkpt><trkpt lat="40.6428067" lon="15.3673917"><ele>479.0</ele><time>2026-04-25T09:44:06.857Z</time></trkpt><trkpt lat="40.6427633" lon="15.3675917"><ele>481.0</ele><time>2026-04-25T09:44:07.857Z</time></trkpt><trkpt lat="40.6427517" lon="15.3677967"><ele>483.0</ele><time>2026-04-25T09:44:08.857Z</time></trkpt><trkpt lat="40.6427617" lon="15.3679883"><ele>482.25</ele><time>2026-04-25T09:44:09.858Z</time></trkpt><trkpt lat="40.6428033" lon="15.368175"><ele>481.5</ele><time>2026-04-25T09:44:10.858Z</time></trkpt><trkpt lat="40.642865" lon="15.3683433"><ele>480.75</ele><time>2026-04-25T09:44:11.858Z</time></trkpt><trkpt lat="40.6429233" lon="15.3684933"><ele>480.0</ele><time>2026-04-25T09:44:12.858Z</time></trkpt><trkpt lat="40.64296" lon="15.3686283"><ele>480.0</ele><time>2026-04-25T09:44:13.857Z</time></trkpt><trkpt lat="40.6429617" lon="15.368755"><ele>480.0</ele><time>2026-04-25T09:44:14.858Z</time></trkpt><trkpt lat="40.6429417" lon="15.3688617"><ele>480.0</ele><time>2026-04-25T09:44:15.858Z</time></trkpt><trkpt lat="40.6429117" lon="15.3689433"><ele>480.0</ele><time>2026-04-25T09:44:16.857Z</time></trkpt><trkpt lat="40.6428183" lon="15.3690517"><ele>480.0</ele><time>2026-04-25T09:44:18.857Z</time></trkpt><trkpt lat="40.6427533" lon="15.3690933"><ele>480.0</ele><time>2026-04-25T09:44:19.858Z</time></trkpt><trkpt lat="40.64268" lon="15.3691417"><ele>481.2</ele><time>2026-04-25T09:44:20.858Z</time></trkpt><trkpt lat="40.6426017" lon="15.3691967"><ele>482.4</ele><time>2026-04-25T09:44:21.857Z</time></trkpt><trkpt lat="40.6425167" lon="15.3692583"><ele>483.6</ele><time>2026-04-25T09:44:22.858Z</time></trkpt><trkpt lat="40.6424267" lon="15.36933"><ele>484.8</ele><time>2026-04-25T09:44:23.857Z</time></trkpt><trkpt lat="40.64233" lon="15.369415"><ele>486.0</ele><time>2026-04-25T09:44:24.858Z</time></trkpt><trkpt lat="40.64223" lon="15.3694983"><ele>486.0</ele><time>2026-04-25T09:44:25.858Z</time></trkpt><trkpt lat="40.642125" lon="15.3695867"><ele>486.0</ele><time>2026-04-25T09:44:26.858Z</time></trkpt><trkpt lat="40.6420167" lon="15.3696833"><ele>486.0</ele><time>2026-04-25T09:44:27.858Z</time></trkpt><trkpt lat="40.6419017" lon="15.369785"><ele>486.0</ele><time>2026-04-25T09:44:28.857Z</time></trkpt><trkpt lat="40.641785" lon="15.3698917"><ele>487.5</ele><time>2026-04-25T09:44:29.858Z</time></trkpt><trkpt lat="40.64166" lon="15.369995"><ele>489.0</ele><time>2026-04-25T09:44:30.857Z</time></trkpt><trkpt lat="40.6415417" lon="15.370105"><ele>490.5</ele><time>2026-04-25T09:44:31.857Z</time></trkpt><trkpt lat="40.6414217" lon="15.37022"><ele>492.0</ele><time>2026-04-25T09:44:32.858Z</time></trkpt><trkpt lat="40.6413083" lon="15.3703483"><ele>492.0</ele><time>2026-04-25T09:44:33.858Z</time></trkpt><trkpt lat="40.6412083" lon="15.3705"><ele>492.0</ele><time>2026-04-25T09:44:34.858Z</time></trkpt><trkpt lat="40.6411117" lon="15.3706533"><ele>492.0</ele><time>2026-04-25T09:44:35.858Z</time></trkpt><trkpt lat="40.641015" lon="15.37082"><ele>494.33333333333337</ele><time>2026-04-25T09:44:36.858Z</time></trkpt><trkpt lat="40.640905" lon="15.3709783"><ele>496.6666666666667</ele><time>2026-04-25T09:44:37.858Z</time></trkpt><trkpt lat="40.640775" lon="15.371125"><ele>499.0</ele><time>2026-04-25T09:44:38.857Z</time></trkpt><trkpt lat="40.6406333" lon="15.371275"><ele>499.33333333333337</ele><time>2026-04-25T09:44:39.858Z</time></trkpt><trkpt lat="40.64048" lon="15.3714183"><ele>499.66666666666663</ele><time>2026-04-25T09:44:40.857Z</time></trkpt><trkpt lat="40.6403167" lon="15.3715583"><ele>500.0</ele><time>2026-04-25T09:44:41.858Z</time></trkpt><trkpt lat="40.64015" lon="15.3717033"><ele>501.66666666666663</ele><time>2026-04-25T09:44:42.857Z</time></trkpt><trkpt lat="40.6399783" lon="15.3718367"><ele>503.33333333333337</ele><time>2026-04-25T09:44:43.858Z</time></trkpt><trkpt lat="40.63981" lon="15.37198"><ele>505.0</ele><time>2026-04-25T09:44:44.857Z</time></trkpt><trkpt lat="40.6396383" lon="15.372115"><ele>505.33333333333337</ele><time>2026-04-25T09:44:45.857Z</time></trkpt><trkpt lat="40.639475" lon="15.37225"><ele>505.66666666666663</ele><time>2026-04-25T09:44:46.857Z</time></trkpt><trkpt lat="40.63931" lon="15.3723883"><ele>506.0</ele><time>2026-04-25T09:44:47.858Z</time></trkpt><trkpt lat="40.6391483" lon="15.3725267"><ele>509.0</ele><time>2026-04-25T09:44:48.857Z</time></trkpt><trkpt lat="40.638985" lon="15.3726483"><ele>512.0</ele><time>2026-04-25T09:44:49.858Z</time></trkpt><trkpt lat="40.6388083" lon="15.3727533"><ele>515.0</ele><time>2026-04-25T09:44:50.857Z</time></trkpt><trkpt lat="40.638635" lon="15.3728133"><ele>518.0</ele><time>2026-04-25T09:44:51.857Z</time></trkpt><trkpt lat="40.63845" lon="15.37283"><ele>521.0</ele><time>2026-04-25T09:44:52.858Z</time></trkpt><trkpt lat="40.6382617" lon="15.37284"><ele>524.0</ele><time>2026-04-25T09:44:53.857Z</time></trkpt><trkpt lat="40.6380883" lon="15.372845"><ele>524.0</ele><time>2026-04-25T09:44:54.858Z</time></trkpt><trkpt lat="40.63794" lon="15.3728533"><ele>524.0</ele><time>2026-04-25T09:44:55.857Z</time></trkpt><trkpt lat="40.6378117" lon="15.372875"><ele>524.0</ele><time>2026-04-25T09:44:56.858Z</time></trkpt><trkpt lat="40.637705" lon="15.372925"><ele>524.0</ele><time>2026-04-25T09:44:57.857Z</time></trkpt><trkpt lat="40.6376017" lon="15.3730133"><ele>527.5</ele><time>2026-04-25T09:44:58.857Z</time></trkpt><trkpt lat="40.6375117" lon="15.3731283"><ele>531.0</ele><time>2026-04-25T09:44:59.858Z</time></trkpt><trkpt lat="40.6374317" lon="15.37325"><ele>534.5</ele><time>2026-04-25T09:45:00.858Z</time></trkpt><trkpt lat="40.6373633" lon="15.3733917"><ele>538.0</ele><time>2026-04-25T09:45:01.858Z</time></trkpt><trkpt lat="40.637315" lon="15.3735533"><ele>538.0</ele><time>2026-04-25T09:45:02.858Z</time></trkpt><trkpt lat="40.637275" lon="15.373735"><ele>538.0</ele><time>2026-04-25T09:45:03.858Z</time></trkpt><trkpt lat="40.6372383" lon="15.3739283"><ele>538.0</ele><time>2026-04-25T09:45:04.858Z</time></trkpt><trkpt lat="40.6371967" lon="15.3741267"><ele>537.0</ele><time>2026-04-25T09:45:05.857Z</time></trkpt><trkpt lat="40.6371583" lon="15.37433"><ele>536.0</ele><time>2026-04-25T09:45:06.857Z</time></trkpt><trkpt lat="40.6371183" lon="15.3745267"><ele>535.0</ele><time>2026-04-25T09:45:07.857Z</time></trkpt><trkpt lat="40.63709" lon="15.3747233"><ele>534.6666666666667</ele><time>2026-04-25T09:45:08.858Z</time></trkpt><trkpt lat="40.6370567" lon="15.37492"><ele>534.3333333333334</ele><time>2026-04-25T09:45:09.857Z</time></trkpt><trkpt lat="40.63702" lon="15.3751117"><ele>534.0</ele><time>2026-04-25T09:45:10.857Z</time></trkpt><trkpt lat="40.636975" lon="15.3753017"><ele>537.25</ele><time>2026-04-25T09:45:11.858Z</time></trkpt><trkpt lat="40.636925" lon="15.3754867"><ele>540.5</ele><time>2026-04-25T09:45:12.857Z</time></trkpt><trkpt lat="40.6368683" lon="15.3756667"><ele>543.75</ele><time>2026-04-25T09:45:13.858Z</time></trkpt><trkpt lat="40.63681" lon="15.3758517"><ele>547.0</ele><time>2026-04-25T09:45:14.858Z</time></trkpt><trkpt lat="40.6367533" lon="15.376025"><ele>548.5</ele><time>2026-04-25T09:45:15.857Z</time></trkpt><trkpt lat="40.6366983" lon="15.3761783"><ele>550.0</ele><time>2026-04-25T09:45:16.857Z</time></trkpt><trkpt lat="40.6366567" lon="15.3763233"><ele>551.5</ele><time>2026-04-25T09:45:17.858Z</time></trkpt><trkpt lat="40.6365933" lon="15.3764533"><ele>553.0</ele><time>2026-04-25T09:45:18.857Z</time></trkpt><trkpt lat="40.6365267" lon="15.376575"><ele>553.5</ele><time>2026-04-25T09:45:19.858Z</time></trkpt><trkpt lat="40.6364383" lon="15.376685"><ele>554.0</ele><time>2026-04-25T09:45:20.858Z</time></trkpt><trkpt lat="40.6363483" lon="15.3767867"><ele>554.5</ele><time>2026-04-25T09:45:21.857Z</time></trkpt><trkpt lat="40.636245" lon="15.3768817"><ele>555.0</ele><time>2026-04-25T09:45:22.857Z</time></trkpt><trkpt lat="40.6361367" lon="15.376975"><ele>557.5</ele><time>2026-04-25T09:45:23.858Z</time></trkpt><trkpt lat="40.6360233" lon="15.377065"><ele>560.0</ele><time>2026-04-25T09:45:24.858Z</time></trkpt><trkpt lat="40.6359067" lon="15.377155"><ele>562.5</ele><time>2026-04-25T09:45:25.857Z</time></trkpt><trkpt lat="40.635805" lon="15.3772383"><ele>565.0</ele><time>2026-04-25T09:45:26.858Z</time></trkpt><trkpt lat="40.6357333" lon="15.3773183"><ele>565.4</ele><time>2026-04-25T09:45:27.857Z</time></trkpt><trkpt lat="40.6356767" lon="15.37741"><ele>565.8</ele><time>2026-04-25T09:45:28.858Z</time></trkpt><trkpt lat="40.635645" lon="15.377515"><ele>566.2</ele><time>2026-04-25T09:45:29.857Z</time></trkpt><trkpt lat="40.63563" lon="15.3776333"><ele>566.6</ele><time>2026-04-25T09:45:30.858Z</time></trkpt><trkpt lat="40.635615" lon="15.37777"><ele>567.0</ele><time>2026-04-25T09:45:31.857Z</time></trkpt><trkpt lat="40.6355967" lon="15.37791"><ele>567.6</ele><time>2026-04-25T09:45:32.858Z</time></trkpt><trkpt lat="40.6355783" lon="15.3780517"><ele>568.2</ele><time>2026-04-25T09:45:33.858Z</time></trkpt><trkpt lat="40.6355517" lon="15.378185"><ele>568.8</ele><time>2026-04-25T09:45:34.857Z</time></trkpt><trkpt lat="40.6355183" lon="15.378315"><ele>569.4</ele><time>2026-04-25T09:45:35.857Z</time></trkpt><trkpt lat="40.6354733" lon="15.3784483"><ele>570.0</ele><time>2026-04-25T09:45:36.858Z</time></trkpt><trkpt lat="40.6354217" lon="15.3785867"><ele>570.0</ele><time>2026-04-25T09:45:37.857Z</time></trkpt><trkpt lat="40.63538" lon="15.3786983"><ele>570.0</ele><time>2026-04-25T09:45:38.857Z</time></trkpt><trkpt lat="40.6353317" lon="15.3788"><ele>570.0</ele><time>2026-04-25T09:45:39.857Z</time></trkpt><trkpt lat="40.63529" lon="15.3789017"><ele>570.0</ele><time>2026-04-25T09:45:40.857Z</time></trkpt><trkpt lat="40.6352383" lon="15.379"><ele>570.0</ele><time>2026-04-25T09:45:41.858Z</time></trkpt><trkpt lat="40.635195" lon="15.379105"><ele>572.3333333333334</ele><time>2026-04-25T09:45:42.858Z</time></trkpt><trkpt lat="40.6351583" lon="15.3792117"><ele>574.6666666666666</ele><time>2026-04-25T09:45:43.857Z</time></trkpt><trkpt lat="40.635135" lon="15.3793033"><ele>577.0</ele><time>2026-04-25T09:45:44.858Z</time></trkpt><trkpt lat="40.6350933" lon="15.3793883"><ele>579.3333333333333</ele><time>2026-04-25T09:45:46.858Z</time></trkpt><trkpt lat="40.6350617" lon="15.379495"><ele>581.6666666666666</ele><time>2026-04-25T09:45:50.857Z</time></trkpt><trkpt lat="40.6350167" lon="15.379595"><ele>584.0</ele><time>2026-04-25T09:45:52.858Z</time></trkpt><trkpt lat="40.6349183" lon="15.37969"><ele>584.3333333333333</ele><time>2026-04-25T09:45:54.857Z</time></trkpt><trkpt lat="40.6348683" lon="15.3797417"><ele>584.6666666666666</ele><time>2026-04-25T09:45:55.858Z</time></trkpt><trkpt lat="40.634815" lon="15.379795"><ele>585.0</ele><time>2026-04-25T09:45:56.857Z</time></trkpt><trkpt lat="40.6347633" lon="15.3798433"><ele>585.3333333333334</ele><time>2026-04-25T09:45:57.857Z</time></trkpt><trkpt lat="40.6346667" lon="15.3799383"><ele>585.6666666666667</ele><time>2026-04-25T09:45:59.858Z</time></trkpt><trkpt lat="40.6345833" lon="15.3800183"><ele>586.0</ele><time>2026-04-25T09:46:01.857Z</time></trkpt><trkpt lat="40.6344767" lon="15.3800933"><ele>587.0</ele><time>2026-04-25T09:46:03.857Z</time></trkpt><trkpt lat="40.6343933" lon="15.3801667"><ele>588.0</ele><time>2026-04-25T09:46:05.858Z</time></trkpt><trkpt lat="40.6343083" lon="15.38024"><ele>589.0</ele><time>2026-04-25T09:46:08.858Z</time></trkpt><trkpt lat="40.634245" lon="15.3803217"><ele>590.0</ele><time>2026-04-25T09:46:10.858Z</time></trkpt><trkpt lat="40.634195" lon="15.38045"><ele>591.0</ele><time>2026-04-25T09:46:16.857Z</time></trkpt><trkpt lat="40.6341067" lon="15.380575"><ele>592.0</ele><time>2026-04-25T09:46:18.857Z</time></trkpt><trkpt lat="40.63405" lon="15.3806383"><ele>593.0</ele><time>2026-04-25T09:46:19.857Z</time></trkpt><trkpt lat="40.633995" lon="15.3807033"><ele>594.0</ele><time>2026-04-25T09:46:20.857Z</time></trkpt><trkpt lat="40.6339383" lon="15.380765"><ele>595.0</ele><time>2026-04-25T09:46:21.858Z</time></trkpt><trkpt lat="40.6338833" lon="15.3808133"><ele>596.0</ele><time>2026-04-25T09:46:22.858Z</time></trkpt><trkpt lat="40.6338067" lon="15.38086"><ele>597.0</ele><time>2026-04-25T09:46:23.858Z</time></trkpt><trkpt lat="40.63372" lon="15.3808983"><ele>596.4</ele><time>2026-04-25T09:46:24.858Z</time></trkpt><trkpt lat="40.6336167" lon="15.3809367"><ele>595.8000000000001</ele><time>2026-04-25T09:46:25.857Z</time></trkpt><trkpt lat="40.6335117" lon="15.3809733"><ele>595.2</ele><time>2026-04-25T09:46:26.858Z</time></trkpt><trkpt lat="40.6334133" lon="15.3810167"><ele>594.6</ele><time>2026-04-25T09:46:27.857Z</time></trkpt><trkpt lat="40.6332967" lon="15.3810517"><ele>594.0</ele><time>2026-04-25T09:46:28.858Z</time></trkpt><trkpt lat="40.63319" lon="15.3810883"><ele>594.0</ele><time>2026-04-25T09:46:29.857Z</time></trkpt><trkpt lat="40.6330867" lon="15.3811167"><ele>594.0</ele><time>2026-04-25T09:46:30.857Z</time></trkpt><trkpt lat="40.6329917" lon="15.38116"><ele>594.0</ele><time>2026-04-25T09:46:31.857Z</time></trkpt><trkpt lat="40.63292" lon="15.3812017"><ele>594.0</ele><time>2026-04-25T09:46:32.857Z</time></trkpt><trkpt lat="40.6328583" lon="15.3812267"><ele>594.0</ele><time>2026-04-25T09:46:33.857Z</time></trkpt><trkpt lat="40.632765" lon="15.3812133"><ele>594.0</ele><time>2026-04-25T09:46:35.858Z</time></trkpt><trkpt lat="40.6327017" lon="15.381165"><ele>594.0</ele><time>2026-04-25T09:46:38.857Z</time></trkpt><trkpt lat="40.6327033" lon="15.381295"><ele>594.0</ele><time>2026-04-25T09:46:41.858Z</time></trkpt><trkpt lat="40.6326783" lon="15.3814267"><ele>594.0</ele><time>2026-04-25T09:46:43.857Z</time></trkpt><trkpt lat="40.6326433" lon="15.3815033"><ele>594.0</ele><time>2026-04-25T09:46:44.858Z</time></trkpt><trkpt lat="40.6326033" lon="15.381585"><ele>594.0</ele><time>2026-04-25T09:46:45.858Z</time></trkpt><trkpt lat="40.63257" lon="15.3816767"><ele>594.0</ele><time>2026-04-25T09:46:46.858Z</time></trkpt><trkpt lat="40.6325333" lon="15.3817717"><ele>594.0</ele><time>2026-04-25T09:46:47.857Z</time></trkpt><trkpt lat="40.6324983" lon="15.3818717"><ele>594.0</ele><time>2026-04-25T09:46:48.857Z</time></trkpt><trkpt lat="40.6324683" lon="15.3819783"><ele>594.0</ele><time>2026-04-25T09:46:49.858Z</time></trkpt><trkpt lat="40.6324417" lon="15.3820867"><ele>594.0</ele><time>2026-04-25T09:46:50.857Z</time></trkpt><trkpt lat="40.63242" lon="15.382205"><ele>594.0</ele><time>2026-04-25T09:46:51.857Z</time></trkpt><trkpt lat="40.632395" lon="15.3823233"><ele>594.0</ele><time>2026-04-25T09:46:52.857Z</time></trkpt><trkpt lat="40.6323733" lon="15.3824467"><ele>595.1666666666666</ele><time>2026-04-25T09:46:53.857Z</time></trkpt><trkpt lat="40.63235" lon="15.38257"><ele>596.3333333333334</ele><time>2026-04-25T09:46:54.857Z</time></trkpt><trkpt lat="40.63233" lon="15.382695"><ele>597.5</ele><time>2026-04-25T09:46:55.858Z</time></trkpt><trkpt lat="40.632315" lon="15.3828167"><ele>598.6666666666667</ele><time>2026-04-25T09:46:56.858Z</time></trkpt><trkpt lat="40.632295" lon="15.3829183"><ele>599.8333333333334</ele><time>2026-04-25T09:46:57.857Z</time></trkpt><trkpt lat="40.6322767" lon="15.38302"><ele>601.0</ele><time>2026-04-25T09:46:58.858Z</time></trkpt><trkpt lat="40.6322617" lon="15.3831083"><ele>601.4</ele><time>2026-04-25T09:46:59.857Z</time></trkpt><trkpt lat="40.632235" lon="15.3832067"><ele>601.8</ele><time>2026-04-25T09:47:01.857Z</time></trkpt><trkpt lat="40.6321783" lon="15.3833"><ele>602.1999999999999</ele><time>2026-04-25T09:47:03.858Z</time></trkpt><trkpt lat="40.63214" lon="15.383465"><ele>602.6</ele><time>2026-04-25T09:47:05.858Z</time></trkpt><trkpt lat="40.6321067" lon="15.383585"><ele>603.0</ele><time>2026-04-25T09:47:06.857Z</time></trkpt><trkpt lat="40.63206" lon="15.3837167"><ele>604.25</ele><time>2026-04-25T09:47:07.858Z</time></trkpt><trkpt lat="40.6320033" lon="15.3838517"><ele>605.5</ele><time>2026-04-25T09:47:08.857Z</time></trkpt><trkpt lat="40.6319483" lon="15.3839833"><ele>606.75</ele><time>2026-04-25T09:47:09.858Z</time></trkpt><trkpt lat="40.6318933" lon="15.38411"><ele>608.0</ele><time>2026-04-25T09:47:10.858Z</time></trkpt><trkpt lat="40.6318383" lon="15.3842417"><ele>603.5</ele><time>2026-04-25T09:47:11.857Z</time></trkpt><trkpt lat="40.631785" lon="15.384395"><ele>599.0</ele><time>2026-04-25T09:47:12.857Z</time></trkpt><trkpt lat="40.63174" lon="15.3845733"><ele>594.5</ele><time>2026-04-25T09:47:13.857Z</time></trkpt><trkpt lat="40.6316917" lon="15.384755"><ele>590.0</ele><time>2026-04-25T09:47:14.858Z</time></trkpt><trkpt lat="40.631645" lon="15.3849333"><ele>590.0</ele><time>2026-04-25T09:47:15.857Z</time></trkpt><trkpt lat="40.6316117" lon="15.385105"><ele>590.0</ele><time>2026-04-25T09:47:16.857Z</time></trkpt><trkpt lat="40.6315783" lon="15.3852733"><ele>590.0</ele><time>2026-04-25T09:47:17.858Z</time></trkpt><trkpt lat="40.6315433" lon="15.385435"><ele>590.0</ele><time>2026-04-25T09:47:18.857Z</time></trkpt><trkpt lat="40.631505" lon="15.38559"><ele>590.0</ele><time>2026-04-25T09:47:19.857Z</time></trkpt><trkpt lat="40.631465" lon="15.3857517"><ele>590.0</ele><time>2026-04-25T09:47:20.857Z</time></trkpt><trkpt lat="40.6314283" lon="15.3859167"><ele>590.0</ele><time>2026-04-25T09:47:21.857Z</time></trkpt><trkpt lat="40.6314033" lon="15.386085"><ele>590.0</ele><time>2026-04-25T09:47:22.858Z</time></trkpt><trkpt lat="40.6313733" lon="15.3862467"><ele>591.0</ele><time>2026-04-25T09:47:23.858Z</time></trkpt><trkpt lat="40.63134" lon="15.3863967"><ele>592.0</ele><time>2026-04-25T09:47:24.858Z</time></trkpt><trkpt lat="40.6313" lon="15.3865467"><ele>593.0</ele><time>2026-04-25T09:47:25.857Z</time></trkpt><trkpt lat="40.6312583" lon="15.38669"><ele>594.0</ele><time>2026-04-25T09:47:26.857Z</time></trkpt><trkpt lat="40.631205" lon="15.3868233"><ele>594.0</ele><time>2026-04-25T09:47:27.857Z</time></trkpt><trkpt lat="40.6311467" lon="15.386955"><ele>594.0</ele><time>2026-04-25T09:47:28.858Z</time></trkpt><trkpt lat="40.6310817" lon="15.3870917"><ele>594.0</ele><time>2026-04-25T09:47:29.857Z</time></trkpt><trkpt lat="40.6310217" lon="15.38726"><ele>594.0</ele><time>2026-04-25T09:47:30.858Z</time></trkpt><trkpt lat="40.6309683" lon="15.3874383"><ele>588.25</ele><time>2026-04-25T09:47:31.857Z</time></trkpt><trkpt lat="40.6309267" lon="15.3876333"><ele>582.5</ele><time>2026-04-25T09:47:32.858Z</time></trkpt><trkpt lat="40.6308883" lon="15.3878133"><ele>576.75</ele><time>2026-04-25T09:47:33.857Z</time></trkpt><trkpt lat="40.6308417" lon="15.38797"><ele>571.0</ele><time>2026-04-25T09:47:34.858Z</time></trkpt><trkpt lat="40.6308017" lon="15.3881217"><ele>571.0</ele><time>2026-04-25T09:47:35.857Z</time></trkpt><trkpt lat="40.6307783" lon="15.3882567"><ele>571.0</ele><time>2026-04-25T09:47:36.857Z</time></trkpt><trkpt lat="40.6307717" lon="15.3884033"><ele>571.0</ele><time>2026-04-25T09:47:37.857Z</time></trkpt><trkpt lat="40.6307783" lon="15.388565"><ele>571.0</ele><time>2026-04-25T09:47:38.858Z</time></trkpt><trkpt lat="40.6307933" lon="15.3887333"><ele>573.0</ele><time>2026-04-25T09:47:39.857Z</time></trkpt><trkpt lat="40.6307967" lon="15.3888917"><ele>575.0</ele><time>2026-04-25T09:47:40.858Z</time></trkpt><trkpt lat="40.6307867" lon="15.38905"><ele>577.0</ele><time>2026-04-25T09:47:41.857Z</time></trkpt><trkpt lat="40.6307667" lon="15.3891883"><ele>579.0</ele><time>2026-04-25T09:47:42.858Z</time></trkpt><trkpt lat="40.6307317" lon="15.3893317"><ele>579.0</ele><time>2026-04-25T09:47:43.857Z</time></trkpt><trkpt lat="40.63069" lon="15.3894817"><ele>579.0</ele><time>2026-04-25T09:47:44.857Z</time></trkpt><trkpt lat="40.6306383" lon="15.3896317"><ele>579.0</ele><time>2026-04-25T09:47:45.858Z</time></trkpt><trkpt lat="40.6305783" lon="15.3897617"><ele>579.0</ele><time>2026-04-25T09:47:46.857Z</time></trkpt><trkpt lat="40.6305117" lon="15.389865"><ele>578.1666666666666</ele><time>2026-04-25T09:47:47.857Z</time></trkpt><trkpt lat="40.6304317" lon="15.3899583"><ele>577.3333333333334</ele><time>2026-04-25T09:47:48.857Z</time></trkpt><trkpt lat="40.6303483" lon="15.3900217"><ele>576.5</ele><time>2026-04-25T09:47:49.857Z</time></trkpt><trkpt lat="40.6302683" lon="15.3900683"><ele>575.6666666666667</ele><time>2026-04-25T09:47:50.858Z</time></trkpt><trkpt lat="40.6302017" lon="15.39011"><ele>574.8333333333334</ele><time>2026-04-25T09:47:51.858Z</time></trkpt><trkpt lat="40.6301433" lon="15.3901717"><ele>574.0</ele><time>2026-04-25T09:47:52.857Z</time></trkpt><trkpt lat="40.6301" lon="15.390245"><ele>574.0</ele><time>2026-04-25T09:47:53.857Z</time></trkpt><trkpt lat="40.6300517" lon="15.3903317"><ele>574.0</ele><time>2026-04-25T09:47:54.858Z</time></trkpt><trkpt lat="40.630005" lon="15.3904317"><ele>574.0</ele><time>2026-04-25T09:47:55.857Z</time></trkpt><trkpt lat="40.6299533" lon="15.3905317"><ele>574.0</ele><time>2026-04-25T09:47:56.858Z</time></trkpt><trkpt lat="40.6299067" lon="15.39063"><ele>574.0</ele><time>2026-04-25T09:47:57.858Z</time></trkpt><trkpt lat="40.6298683" lon="15.390735"><ele>574.0</ele><time>2026-04-25T09:47:58.858Z</time></trkpt><trkpt lat="40.6298367" lon="15.3908433"><ele>575.0</ele><time>2026-04-25T09:47:59.858Z</time></trkpt><trkpt lat="40.6298083" lon="15.390955"><ele>576.0</ele><time>2026-04-25T09:48:00.858Z</time></trkpt><trkpt lat="40.6297867" lon="15.3910667"><ele>577.0</ele><time>2026-04-25T09:48:01.858Z</time></trkpt><trkpt lat="40.62976" lon="15.39118"><ele>578.0</ele><time>2026-04-25T09:48:02.857Z</time></trkpt><trkpt lat="40.6297317" lon="15.3913017"><ele>579.0</ele><time>2026-04-25T09:48:03.857Z</time></trkpt><trkpt lat="40.6297033" lon="15.3914317"><ele>580.0</ele><time>2026-04-25T09:48:04.857Z</time></trkpt><trkpt lat="40.6296833" lon="15.391575"><ele>581.0</ele><time>2026-04-25T09:48:05.857Z</time></trkpt><trkpt lat="40.6296667" lon="15.3917217"><ele>582.0</ele><time>2026-04-25T09:48:06.858Z</time></trkpt><trkpt lat="40.6296483" lon="15.39187"><ele>583.0</ele><time>2026-04-25T09:48:07.857Z</time></trkpt><trkpt lat="40.6296283" lon="15.392025"><ele>582.75</ele><time>2026-04-25T09:48:08.857Z</time></trkpt><trkpt lat="40.629605" lon="15.392175"><ele>582.5</ele><time>2026-04-25T09:48:09.858Z</time></trkpt><trkpt lat="40.62958" lon="15.3923217"><ele>582.25</ele><time>2026-04-25T09:48:10.857Z</time></trkpt><trkpt lat="40.6295567" lon="15.39246"><ele>582.0</ele><time>2026-04-25T09:48:11.858Z</time></trkpt><trkpt lat="40.6295283" lon="15.392605"><ele>582.0</ele><time>2026-04-25T09:48:12.857Z</time></trkpt><trkpt lat="40.6295" lon="15.39275"><ele>582.0</ele><time>2026-04-25T09:48:13.858Z</time></trkpt><trkpt lat="40.6294717" lon="15.39289"><ele>582.0</ele><time>2026-04-25T09:48:14.857Z</time></trkpt><trkpt lat="40.6294433" lon="15.3930267"><ele>582.0</ele><time>2026-04-25T09:48:15.857Z</time></trkpt><trkpt lat="40.6294067" lon="15.3931617"><ele>582.0</ele><time>2026-04-25T09:48:16.857Z</time></trkpt><trkpt lat="40.6293683" lon="15.3933067"><ele>573.75</ele><time>2026-04-25T09:48:17.858Z</time></trkpt><trkpt lat="40.62933" lon="15.3934583"><ele>565.5</ele><time>2026-04-25T09:48:18.857Z</time></trkpt><trkpt lat="40.6292967" lon="15.3936083"><ele>557.25</ele><time>2026-04-25T09:48:19.858Z</time></trkpt><trkpt lat="40.6292633" lon="15.393765"><ele>549.0</ele><time>2026-04-25T09:48:20.858Z</time></trkpt><trkpt lat="40.6292317" lon="15.39392"><ele>548.2</ele><time>2026-04-25T09:48:21.857Z</time></trkpt><trkpt lat="40.6292183" lon="15.3940817"><ele>547.4</ele><time>2026-04-25T09:48:22.858Z</time></trkpt><trkpt lat="40.6292033" lon="15.3942467"><ele>546.6</ele><time>2026-04-25T09:48:23.858Z</time></trkpt><trkpt lat="40.6291967" lon="15.39439"><ele>545.8</ele><time>2026-04-25T09:48:24.858Z</time></trkpt><trkpt lat="40.6291917" lon="15.3945033"><ele>545.0</ele><time>2026-04-25T09:48:25.857Z</time></trkpt><trkpt lat="40.6291917" lon="15.3945967"><ele>544.3333333333333</ele><time>2026-04-25T09:48:26.858Z</time></trkpt><trkpt lat="40.6291883" lon="15.39471"><ele>543.6666666666666</ele><time>2026-04-25T09:48:28.858Z</time></trkpt><trkpt lat="40.6291883" lon="15.3948433"><ele>543.0</ele><time>2026-04-25T09:48:31.858Z</time></trkpt><trkpt lat="40.6291867" lon="15.3949267"><ele>542.3333333333334</ele><time>2026-04-25T09:48:32.857Z</time></trkpt><trkpt lat="40.6291833" lon="15.395025"><ele>541.6666666666667</ele><time>2026-04-25T09:48:33.857Z</time></trkpt><trkpt lat="40.629155" lon="15.395135"><ele>541.0</ele><time>2026-04-25T09:48:34.858Z</time></trkpt><trkpt lat="40.6291067" lon="15.3952433"><ele>541.0</ele><time>2026-04-25T09:48:35.858Z</time></trkpt><trkpt lat="40.6290433" lon="15.3953483"><ele>541.0</ele><time>2026-04-25T09:48:36.858Z</time></trkpt><trkpt lat="40.6289683" lon="15.39545"><ele>541.0</ele><time>2026-04-25T09:48:37.857Z</time></trkpt><trkpt lat="40.6288833" lon="15.3955517"><ele>541.0</ele><time>2026-04-25T09:48:38.856Z</time></trkpt><trkpt lat="40.6287933" lon="15.3956483"><ele>541.0</ele><time>2026-04-25T09:48:39.857Z</time></trkpt><trkpt lat="40.6286983" lon="15.395745"><ele>534.75</ele><time>2026-04-25T09:48:40.856Z</time></trkpt><trkpt lat="40.6286033" lon="15.3958567"><ele>528.5</ele><time>2026-04-25T09:48:41.857Z</time></trkpt><trkpt lat="40.6285133" lon="15.3959817"><ele>522.25</ele><time>2026-04-25T09:48:42.856Z</time></trkpt><trkpt lat="40.6284267" lon="15.3960917"><ele>516.0</ele><time>2026-04-25T09:48:43.856Z</time></trkpt><trkpt lat="40.628335" lon="15.3962017"><ele>516.0</ele><time>2026-04-25T09:48:44.857Z</time></trkpt><trkpt lat="40.628245" lon="15.3963117"><ele>516.0</ele><time>2026-04-25T09:48:45.857Z</time></trkpt><trkpt lat="40.6281433" lon="15.3964017"><ele>516.0</ele><time>2026-04-25T09:48:46.856Z</time></trkpt><trkpt lat="40.6280483" lon="15.3964933"><ele>516.0</ele><time>2026-04-25T09:48:47.857Z</time></trkpt><trkpt lat="40.6279733" lon="15.3965967"><ele>516.8</ele><time>2026-04-25T09:48:48.857Z</time></trkpt><trkpt lat="40.6279133" lon="15.3967083"><ele>517.6</ele><time>2026-04-25T09:48:49.856Z</time></trkpt><trkpt lat="40.6278583" lon="15.396815"><ele>518.4</ele><time>2026-04-25T09:48:50.856Z</time></trkpt><trkpt lat="40.6278133" lon="15.39692"><ele>519.2</ele><time>2026-04-25T09:48:51.856Z</time></trkpt><trkpt lat="40.6277617" lon="15.39702"><ele>520.0</ele><time>2026-04-25T09:48:52.857Z</time></trkpt><trkpt lat="40.6277067" lon="15.3971167"><ele>518.3333333333334</ele><time>2026-04-25T09:48:53.856Z</time></trkpt><trkpt lat="40.62764" lon="15.3971967"><ele>516.6666666666667</ele><time>2026-04-25T09:48:54.856Z</time></trkpt><trkpt lat="40.6275667" lon="15.3972683"><ele>515.0</ele><time>2026-04-25T09:48:55.857Z</time></trkpt><trkpt lat="40.6274917" lon="15.3973217"><ele>513.3333333333334</ele><time>2026-04-25T09:48:56.856Z</time></trkpt><trkpt lat="40.62741" lon="15.3973683"><ele>511.6666666666667</ele><time>2026-04-25T09:48:57.857Z</time></trkpt><trkpt lat="40.6273217" lon="15.3973783"><ele>510.0</ele><time>2026-04-25T09:48:58.857Z</time></trkpt><trkpt lat="40.6272233" lon="15.3973617"><ele>510.0</ele><time>2026-04-25T09:48:59.856Z</time></trkpt><trkpt lat="40.6271283" lon="15.3973433"><ele>510.0</ele><time>2026-04-25T09:49:00.857Z</time></trkpt><trkpt lat="40.62704" lon="15.3973417"><ele>510.0</ele><time>2026-04-25T09:49:01.856Z</time></trkpt><trkpt lat="40.626945" lon="15.3973567"><ele>510.0</ele><time>2026-04-25T09:49:02.856Z</time></trkpt><trkpt lat="40.626855" lon="15.3973783"><ele>510.0</ele><time>2026-04-25T09:49:03.857Z</time></trkpt><trkpt lat="40.62678" lon="15.3974067"><ele>507.8</ele><time>2026-04-25T09:49:04.857Z</time></trkpt><trkpt lat="40.6266817" lon="15.397475"><ele>505.6</ele><time>2026-04-25T09:49:06.857Z</time></trkpt><trkpt lat="40.62664" lon="15.3975817"><ele>503.4</ele><time>2026-04-25T09:49:08.857Z</time></trkpt><trkpt lat="40.6266283" lon="15.3977217"><ele>501.2</ele><time>2026-04-25T09:49:10.857Z</time></trkpt><trkpt lat="40.6265567" lon="15.3978533"><ele>499.0</ele><time>2026-04-25T09:49:12.856Z</time></trkpt><trkpt lat="40.6264833" lon="15.3978517"><ele>499.0</ele><time>2026-04-25T09:49:13.856Z</time></trkpt><trkpt lat="40.6263917" lon="15.3978267"><ele>499.0</ele><time>2026-04-25T09:49:14.857Z</time></trkpt><trkpt lat="40.6263" lon="15.3977883"><ele>499.0</ele><time>2026-04-25T09:49:15.857Z</time></trkpt><trkpt lat="40.6261983" lon="15.3977433"><ele>499.0</ele><time>2026-04-25T09:49:16.856Z</time></trkpt><trkpt lat="40.626095" lon="15.39769"><ele>499.0</ele><time>2026-04-25T09:49:17.857Z</time></trkpt><trkpt lat="40.6259933" lon="15.3976367"><ele>499.4</ele><time>2026-04-25T09:49:18.857Z</time></trkpt><trkpt lat="40.625905" lon="15.397585"><ele>499.79999999999995</ele><time>2026-04-25T09:49:19.856Z</time></trkpt><trkpt lat="40.62583" lon="15.3975283"><ele>500.20000000000005</ele><time>2026-04-25T09:49:20.857Z</time></trkpt><trkpt lat="40.625775" lon="15.39747"><ele>500.6</ele><time>2026-04-25T09:49:21.856Z</time></trkpt><trkpt lat="40.625705" lon="15.3973517"><ele>501.0</ele><time>2026-04-25T09:49:23.857Z</time></trkpt><trkpt lat="40.6256433" lon="15.39723"><ele>498.20000000000005</ele><time>2026-04-25T09:49:25.856Z</time></trkpt><trkpt lat="40.625605" lon="15.3971483"><ele>495.40000000000003</ele><time>2026-04-25T09:49:26.856Z</time></trkpt><trkpt lat="40.6255617" lon="15.3970533"><ele>492.6</ele><time>2026-04-25T09:49:27.856Z</time></trkpt><trkpt lat="40.6255133" lon="15.3969483"><ele>489.8</ele><time>2026-04-25T09:49:28.857Z</time></trkpt><trkpt lat="40.6254583" lon="15.3968383"><ele>487.0</ele><time>2026-04-25T09:49:29.857Z</time></trkpt><trkpt lat="40.6253933" lon="15.3967367"><ele>487.0</ele><time>2026-04-25T09:49:30.856Z</time></trkpt><trkpt lat="40.625325" lon="15.3966367"><ele>487.00000000000006</ele><time>2026-04-25T09:49:31.856Z</time></trkpt><trkpt lat="40.62524" lon="15.396535"><ele>487.00000000000006</ele><time>2026-04-25T09:49:32.856Z</time></trkpt><trkpt lat="40.62515" lon="15.39644"><ele>487.0</ele><time>2026-04-25T09:49:33.856Z</time></trkpt><trkpt lat="40.6250583" lon="15.3963483"><ele>487.0</ele><time>2026-04-25T09:49:34.857Z</time></trkpt><trkpt lat="40.6249733" lon="15.3962617"><ele>485.0</ele><time>2026-04-25T09:49:35.857Z</time></trkpt><trkpt lat="40.624895" lon="15.3961783"><ele>483.00000000000006</ele><time>2026-04-25T09:49:36.856Z</time></trkpt><trkpt lat="40.624815" lon="15.3961"><ele>481.00000000000006</ele><time>2026-04-25T09:49:37.857Z</time></trkpt><trkpt lat="40.6247317" lon="15.3960233"><ele>479.0</ele><time>2026-04-25T09:49:38.856Z</time></trkpt><trkpt lat="40.624645" lon="15.3959683"><ele>477.0</ele><time>2026-04-25T09:49:39.856Z</time></trkpt><trkpt lat="40.624555" lon="15.39591"><ele>478.8333333333333</ele><time>2026-04-25T09:49:40.857Z</time></trkpt><trkpt lat="40.6244733" lon="15.395855"><ele>480.66666666666663</ele><time>2026-04-25T09:49:41.857Z</time></trkpt><trkpt lat="40.6244067" lon="15.395785"><ele>482.5</ele><time>2026-04-25T09:49:42.857Z</time></trkpt><trkpt lat="40.624345" lon="15.395715"><ele>484.3333333333333</ele><time>2026-04-25T09:49:43.856Z</time></trkpt><trkpt lat="40.6242967" lon="15.3956417"><ele>486.16666666666663</ele><time>2026-04-25T09:49:44.857Z</time></trkpt><trkpt lat="40.6242917" lon="15.395495"><ele>488.0</ele><time>2026-04-25T09:49:46.856Z</time></trkpt><trkpt lat="40.6243483" lon="15.3954333"><ele>482.5</ele><time>2026-04-25T09:49:47.856Z</time></trkpt><trkpt lat="40.624435" lon="15.3953667"><ele>477.0</ele><time>2026-04-25T09:49:48.856Z</time></trkpt><trkpt lat="40.6245233" lon="15.395295"><ele>471.5</ele><time>2026-04-25T09:49:49.856Z</time></trkpt><trkpt lat="40.6246217" lon="15.3951983"><ele>466.0</ele><time>2026-04-25T09:49:50.856Z</time></trkpt><trkpt lat="40.624715" lon="15.3950833"><ele>465.75</ele><time>2026-04-25T09:49:51.856Z</time></trkpt><trkpt lat="40.624815" lon="15.3949633"><ele>465.5</ele><time>2026-04-25T09:49:52.857Z</time></trkpt><trkpt lat="40.6249033" lon="15.3948367"><ele>465.25</ele><time>2026-04-25T09:49:53.856Z</time></trkpt><trkpt lat="40.6249917" lon="15.394725"><ele>465.0</ele><time>2026-04-25T09:49:54.857Z</time></trkpt><trkpt lat="40.6250767" lon="15.3946183"><ele>464.8</ele><time>2026-04-25T09:49:55.857Z</time></trkpt><trkpt lat="40.6251583" lon="15.3945333"><ele>464.6</ele><time>2026-04-25T09:49:56.857Z</time></trkpt><trkpt lat="40.62524" lon="15.3944767"><ele>464.4</ele><time>2026-04-25T09:49:57.857Z</time></trkpt><trkpt lat="40.6253333" lon="15.3944383"><ele>464.2</ele><time>2026-04-25T09:49:58.857Z</time></trkpt><trkpt lat="40.6254283" lon="15.3944033"><ele>464.0</ele><time>2026-04-25T09:49:59.857Z</time></trkpt><trkpt lat="40.6255117" lon="15.3943733"><ele>463.99999999999994</ele><time>2026-04-25T09:50:00.856Z</time></trkpt><trkpt lat="40.6255783" lon="15.3943383"><ele>464.0</ele><time>2026-04-25T09:50:01.857Z</time></trkpt><trkpt lat="40.62566" lon="15.3942533"><ele>464.0</ele><time>2026-04-25T09:50:03.857Z</time></trkpt><trkpt lat="40.625685" lon="15.3941733"><ele>464.0</ele><time>2026-04-25T09:50:04.856Z</time></trkpt><trkpt lat="40.6256967" lon="15.3940683"><ele>463.99999999999994</ele><time>2026-04-25T09:50:05.857Z</time></trkpt><trkpt lat="40.6257117" lon="15.3939433"><ele>464.0</ele><time>2026-04-25T09:50:06.856Z</time></trkpt><trkpt lat="40.6257333" lon="15.3938067"><ele>463.79999999999995</ele><time>2026-04-25T09:50:07.857Z</time></trkpt><trkpt lat="40.6257583" lon="15.393665"><ele>463.59999999999997</ele><time>2026-04-25T09:50:08.856Z</time></trkpt><trkpt lat="40.62579" lon="15.3935267"><ele>463.4</ele><time>2026-04-25T09:50:09.857Z</time></trkpt><trkpt lat="40.6258233" lon="15.3933983"><ele>463.2</ele><time>2026-04-25T09:50:10.857Z</time></trkpt><trkpt lat="40.6258583" lon="15.3932783"><ele>463.0</ele><time>2026-04-25T09:50:11.856Z</time></trkpt><trkpt lat="40.625895" lon="15.393165"><ele>463.00000000000006</ele><time>2026-04-25T09:50:12.856Z</time></trkpt><trkpt lat="40.6259417" lon="15.39306"><ele>463.0</ele><time>2026-04-25T09:50:13.857Z</time></trkpt><trkpt lat="40.6259883" lon="15.3929683"><ele>463.0</ele><time>2026-04-25T09:50:14.857Z</time></trkpt><trkpt lat="40.6260483" lon="15.3928867"><ele>463.0</ele><time>2026-04-25T09:50:15.857Z</time></trkpt><trkpt lat="40.6261167" lon="15.3928083"><ele>463.00000000000006</ele><time>2026-04-25T09:50:16.857Z</time></trkpt><trkpt lat="40.62618" lon="15.3927383"><ele>463.0</ele><time>2026-04-25T09:50:17.856Z</time></trkpt><trkpt lat="40.626235" lon="15.3926617"><ele>463.50000000000006</ele><time>2026-04-25T09:50:18.857Z</time></trkpt><trkpt lat="40.6262667" lon="15.3925783"><ele>464.0</ele><time>2026-04-25T09:50:19.856Z</time></trkpt><trkpt lat="40.6262917" lon="15.3924867"><ele>464.5</ele><time>2026-04-25T09:50:20.857Z</time></trkpt><trkpt lat="40.6263083" lon="15.3923817"><ele>465.0</ele><time>2026-04-25T09:50:21.857Z</time></trkpt><trkpt lat="40.6263217" lon="15.3922717"><ele>465.50000000000006</ele><time>2026-04-25T09:50:22.857Z</time></trkpt><trkpt lat="40.626335" lon="15.3921617"><ele>466.0</ele><time>2026-04-25T09:50:23.857Z</time></trkpt><trkpt lat="40.6263567" lon="15.3920633"><ele>466.00000000000006</ele><time>2026-04-25T09:50:24.857Z</time></trkpt><trkpt lat="40.62638" lon="15.39197"><ele>466.0</ele><time>2026-04-25T09:50:25.857Z</time></trkpt><trkpt lat="40.6264017" lon="15.39188"><ele>466.0</ele><time>2026-04-25T09:50:26.857Z</time></trkpt><trkpt lat="40.62643" lon="15.3917933"><ele>466.0</ele><time>2026-04-25T09:50:27.856Z</time></trkpt><trkpt lat="40.626455" lon="15.3917117"><ele>466.00000000000006</ele><time>2026-04-25T09:50:28.857Z</time></trkpt><trkpt lat="40.6264967" lon="15.3915533"><ele>466.0</ele><time>2026-04-25T09:50:30.856Z</time></trkpt><trkpt lat="40.6265083" lon="15.39147"><ele>466.00000000000006</ele><time>2026-04-25T09:50:31.857Z</time></trkpt><trkpt lat="40.6265217" lon="15.391375"><ele>466.0</ele><time>2026-04-25T09:50:32.856Z</time></trkpt><trkpt lat="40.6265233" lon="15.3912717"><ele>466.0</ele><time>2026-04-25T09:50:33.857Z</time></trkpt><trkpt lat="40.6265183" lon="15.3911517"><ele>466.0</ele><time>2026-04-25T09:50:34.856Z</time></trkpt><trkpt lat="40.62652" lon="15.391025"><ele>466.00000000000006</ele><time>2026-04-25T09:50:35.856Z</time></trkpt><trkpt lat="40.626525" lon="15.39089"><ele>466.0</ele><time>2026-04-25T09:50:36.856Z</time></trkpt><trkpt lat="40.62652" lon="15.390755"><ele>466.00000000000006</ele><time>2026-04-25T09:50:37.856Z</time></trkpt><trkpt lat="40.626525" lon="15.390635"><ele>466.0</ele><time>2026-04-25T09:50:38.856Z</time></trkpt><trkpt lat="40.6265367" lon="15.3905283"><ele>466.0</ele><time>2026-04-25T09:50:39.857Z</time></trkpt><trkpt lat="40.62656" lon="15.3904283"><ele>466.0</ele><time>2026-04-25T09:50:40.856Z</time></trkpt><trkpt lat="40.6266033" lon="15.3903367"><ele>466.00000000000006</ele><time>2026-04-25T09:50:41.857Z</time></trkpt><trkpt lat="40.6266433" lon="15.3902517"><ele>466.0</ele><time>2026-04-25T09:50:42.856Z</time></trkpt><trkpt lat="40.6266817" lon="15.39016"><ele>466.00000000000006</ele><time>2026-04-25T09:50:43.856Z</time></trkpt><trkpt lat="40.6267133" lon="15.39006"><ele>466.0</ele><time>2026-04-25T09:50:44.856Z</time></trkpt><trkpt lat="40.6267367" lon="15.3899567"><ele>466.0</ele><time>2026-04-25T09:50:45.856Z</time></trkpt><trkpt lat="40.6267517" lon="15.3898583"><ele>466.0</ele><time>2026-04-25T09:50:46.857Z</time></trkpt><trkpt lat="40.62676" lon="15.3897467"><ele>466.00000000000006</ele><time>2026-04-25T09:50:47.857Z</time></trkpt><trkpt lat="40.62677" lon="15.3896233"><ele>466.0</ele><time>2026-04-25T09:50:48.857Z</time></trkpt><trkpt lat="40.6267883" lon="15.3894867"><ele>466.0</ele><time>2026-04-25T09:50:49.857Z</time></trkpt><trkpt lat="40.62682" lon="15.3893317"><ele>466.0</ele><time>2026-04-25T09:50:50.857Z</time></trkpt><trkpt lat="40.6268533" lon="15.3891883"><ele>466.0</ele><time>2026-04-25T09:50:51.856Z</time></trkpt><trkpt lat="40.626875" lon="15.3890717"><ele>466.0</ele><time>2026-04-25T09:50:52.857Z</time></trkpt><trkpt lat="40.6268967" lon="15.3889783"><ele>466.0</ele><time>2026-04-25T09:50:53.857Z</time></trkpt><trkpt lat="40.6269167" lon="15.3888983"><ele>465.20000000000005</ele><time>2026-04-25T09:50:54.857Z</time></trkpt><trkpt lat="40.62693" lon="15.3888133"><ele>464.40000000000003</ele><time>2026-04-25T09:50:55.857Z</time></trkpt><trkpt lat="40.6269483" lon="15.388715"><ele>463.6</ele><time>2026-04-25T09:50:56.857Z</time></trkpt><trkpt lat="40.626955" lon="15.3885967"><ele>462.8</ele><time>2026-04-25T09:50:57.857Z</time></trkpt><trkpt lat="40.6269483" lon="15.3884517"><ele>462.0</ele><time>2026-04-25T09:50:58.856Z</time></trkpt><trkpt lat="40.6269267" lon="15.3882967"><ele>462.0</ele><time>2026-04-25T09:50:59.856Z</time></trkpt><trkpt lat="40.6269117" lon="15.38814"><ele>462.00000000000006</ele><time>2026-04-25T09:51:00.857Z</time></trkpt><trkpt lat="40.6269017" lon="15.387995"><ele>462.00000000000006</ele><time>2026-04-25T09:51:01.856Z</time></trkpt><trkpt lat="40.6269033" lon="15.3878633"><ele>462.0</ele><time>2026-04-25T09:51:02.856Z</time></trkpt><trkpt lat="40.6269133" lon="15.3877183"><ele>462.0</ele><time>2026-04-25T09:51:03.856Z</time></trkpt><trkpt lat="40.6269383" lon="15.3875733"><ele>461.5</ele><time>2026-04-25T09:51:04.856Z</time></trkpt><trkpt lat="40.6269683" lon="15.3874083"><ele>461.0</ele><time>2026-04-25T09:51:05.857Z</time></trkpt><trkpt lat="40.6270117" lon="15.38723"><ele>460.5</ele><time>2026-04-25T09:51:06.857Z</time></trkpt><trkpt lat="40.627055" lon="15.38704"><ele>460.0</ele><time>2026-04-25T09:51:07.857Z</time></trkpt><trkpt lat="40.6271017" lon="15.3868417"><ele>462.6666666666667</ele><time>2026-04-25T09:51:08.856Z</time></trkpt><trkpt lat="40.627145" lon="15.3866367"><ele>465.33333333333337</ele><time>2026-04-25T09:51:09.857Z</time></trkpt><trkpt lat="40.62719" lon="15.386435"><ele>468.0</ele><time>2026-04-25T09:51:10.857Z</time></trkpt><trkpt lat="40.62723" lon="15.386225"><ele>468.0</ele><time>2026-04-25T09:51:11.856Z</time></trkpt><trkpt lat="40.62727" lon="15.3860067"><ele>468.0</ele><time>2026-04-25T09:51:12.857Z</time></trkpt><trkpt lat="40.6273133" lon="15.38579"><ele>468.0</ele><time>2026-04-25T09:51:13.856Z</time></trkpt><trkpt lat="40.6273533" lon="15.3855833"><ele>468.25</ele><time>2026-04-25T09:51:14.857Z</time></trkpt><trkpt lat="40.6273833" lon="15.3853933"><ele>468.5</ele><time>2026-04-25T09:51:15.857Z</time></trkpt><trkpt lat="40.627405" lon="15.3852317"><ele>468.75</ele><time>2026-04-25T09:51:16.857Z</time></trkpt><trkpt lat="40.62743" lon="15.38508"><ele>469.0</ele><time>2026-04-25T09:51:17.857Z</time></trkpt><trkpt lat="40.6274633" lon="15.3849483"><ele>469.0</ele><time>2026-04-25T09:51:18.857Z</time></trkpt><trkpt lat="40.6274917" lon="15.3848233"><ele>469.0</ele><time>2026-04-25T09:51:19.857Z</time></trkpt><trkpt lat="40.6275133" lon="15.3846817"><ele>469.0</ele><time>2026-04-25T09:51:20.857Z</time></trkpt><trkpt lat="40.6275283" lon="15.3845383"><ele>469.0</ele><time>2026-04-25T09:51:21.857Z</time></trkpt><trkpt lat="40.6275517" lon="15.3843867"><ele>469.0</ele><time>2026-04-25T09:51:22.856Z</time></trkpt><trkpt lat="40.6275833" lon="15.3842267"><ele>468.75</ele><time>2026-04-25T09:51:23.856Z</time></trkpt><trkpt lat="40.627625" lon="15.3840583"><ele>468.5</ele><time>2026-04-25T09:51:24.857Z</time></trkpt><trkpt lat="40.6276717" lon="15.3838867"><ele>468.25</ele><time>2026-04-25T09:51:25.856Z</time></trkpt><trkpt lat="40.6277133" lon="15.3837283"><ele>468.0</ele><time>2026-04-25T09:51:26.856Z</time></trkpt><trkpt lat="40.62775" lon="15.38358"><ele>467.4</ele><time>2026-04-25T09:51:27.857Z</time></trkpt><trkpt lat="40.6277867" lon="15.383445"><ele>466.79999999999995</ele><time>2026-04-25T09:51:28.857Z</time></trkpt><trkpt lat="40.6278133" lon="15.3833233"><ele>466.2</ele><time>2026-04-25T09:51:29.856Z</time></trkpt><trkpt lat="40.62784" lon="15.3832133"><ele>465.6</ele><time>2026-04-25T09:51:30.857Z</time></trkpt><trkpt lat="40.6278583" lon="15.3831017"><ele>465.0</ele><time>2026-04-25T09:51:31.856Z</time></trkpt><trkpt lat="40.627885" lon="15.3829917"><ele>466.4</ele><time>2026-04-25T09:51:32.856Z</time></trkpt><trkpt lat="40.6279233" lon="15.3828817"><ele>467.8</ele><time>2026-04-25T09:51:33.856Z</time></trkpt><trkpt lat="40.6279817" lon="15.3827767"><ele>469.20000000000005</ele><time>2026-04-25T09:51:34.856Z</time></trkpt><trkpt lat="40.62803" lon="15.3826667"><ele>470.6</ele><time>2026-04-25T09:51:35.856Z</time></trkpt><trkpt lat="40.628075" lon="15.382545"><ele>472.0</ele><time>2026-04-25T09:51:36.856Z</time></trkpt><trkpt lat="40.6281133" lon="15.382415"><ele>472.00000000000006</ele><time>2026-04-25T09:51:37.856Z</time></trkpt><trkpt lat="40.62816" lon="15.38229"><ele>472.0</ele><time>2026-04-25T09:51:38.857Z</time></trkpt><trkpt lat="40.6281983" lon="15.3821833"><ele>472.0</ele><time>2026-04-25T09:51:39.856Z</time></trkpt><trkpt lat="40.62823" lon="15.382095"><ele>472.0</ele><time>2026-04-25T09:51:40.856Z</time></trkpt><trkpt lat="40.6282533" lon="15.3819967"><ele>472.00000000000006</ele><time>2026-04-25T09:51:41.856Z</time></trkpt><trkpt lat="40.6282733" lon="15.38189"><ele>472.0</ele><time>2026-04-25T09:51:42.856Z</time></trkpt><trkpt lat="40.6282917" lon="15.381785"><ele>472.1666666666667</ele><time>2026-04-25T09:51:43.857Z</time></trkpt><trkpt lat="40.6283083" lon="15.3816967"><ele>472.33333333333337</ele><time>2026-04-25T09:51:44.857Z</time></trkpt><trkpt lat="40.6283383" lon="15.3815867"><ele>472.5</ele><time>2026-04-25T09:51:46.856Z</time></trkpt><trkpt lat="40.6283933" lon="15.3814917"><ele>472.66666666666663</ele><time>2026-04-25T09:51:48.857Z</time></trkpt><trkpt lat="40.6284383" lon="15.3814333"><ele>472.8333333333333</ele><time>2026-04-25T09:51:49.856Z</time></trkpt><trkpt lat="40.62854" lon="15.3813283"><ele>473.0</ele><time>2026-04-25T09:51:51.856Z</time></trkpt><trkpt lat="40.6285933" lon="15.38126"><ele>474.99999999999994</ele><time>2026-04-25T09:51:52.856Z</time></trkpt><trkpt lat="40.628645" lon="15.3811833"><ele>477.0</ele><time>2026-04-25T09:51:53.856Z</time></trkpt><trkpt lat="40.6286817" lon="15.38109"><ele>479.0</ele><time>2026-04-25T09:51:54.856Z</time></trkpt><trkpt lat="40.62871" lon="15.380985"><ele>481.0</ele><time>2026-04-25T09:51:55.856Z</time></trkpt><trkpt lat="40.6287183" lon="15.38087"><ele>482.99999999999994</ele><time>2026-04-25T09:51:56.857Z</time></trkpt><trkpt lat="40.62871" lon="15.3807517"><ele>485.0</ele><time>2026-04-25T09:51:57.856Z</time></trkpt><trkpt lat="40.6286983" lon="15.38062"><ele>486.6</ele><time>2026-04-25T09:51:58.857Z</time></trkpt><trkpt lat="40.628695" lon="15.3804833"><ele>488.2</ele><time>2026-04-25T09:51:59.857Z</time></trkpt><trkpt lat="40.6287033" lon="15.3803367"><ele>489.79999999999995</ele><time>2026-04-25T09:52:00.857Z</time></trkpt><trkpt lat="40.6287233" lon="15.3801917"><ele>491.4</ele><time>2026-04-25T09:52:01.857Z</time></trkpt><trkpt lat="40.6287567" lon="15.3800617"><ele>493.0</ele><time>2026-04-25T09:52:02.856Z</time></trkpt><trkpt lat="40.6287867" lon="15.3799333"><ele>493.0</ele><time>2026-04-25T09:52:03.856Z</time></trkpt><trkpt lat="40.628815" lon="15.3798117"><ele>492.99999999999994</ele><time>2026-04-25T09:52:04.857Z</time></trkpt><trkpt lat="40.6288417" lon="15.3797"><ele>492.99999999999994</ele><time>2026-04-25T09:52:05.857Z</time></trkpt><trkpt lat="40.628865" lon="15.3795767"><ele>493.0</ele><time>2026-04-25T09:52:06.857Z</time></trkpt><trkpt lat="40.6288717" lon="15.3794417"><ele>493.0</ele><time>2026-04-25T09:52:07.857Z</time></trkpt><trkpt lat="40.6288567" lon="15.3793183"><ele>494.33333333333337</ele><time>2026-04-25T09:52:08.857Z</time></trkpt><trkpt lat="40.6288383" lon="15.3792167"><ele>495.6666666666667</ele><time>2026-04-25T09:52:09.856Z</time></trkpt><trkpt lat="40.6288283" lon="15.3791217"><ele>497.0</ele><time>2026-04-25T09:52:10.857Z</time></trkpt><trkpt lat="40.628835" lon="15.3790317"><ele>498.33333333333337</ele><time>2026-04-25T09:52:11.857Z</time></trkpt><trkpt lat="40.6288667" lon="15.37894"><ele>499.6666666666667</ele><time>2026-04-25T09:52:12.857Z</time></trkpt><trkpt lat="40.628905" lon="15.3788367"><ele>501.0</ele><time>2026-04-25T09:52:13.856Z</time></trkpt><trkpt lat="40.6289467" lon="15.3787183"><ele>501.8333333333333</ele><time>2026-04-25T09:52:14.856Z</time></trkpt><trkpt lat="40.628985" lon="15.3786133"><ele>502.66666666666663</ele><time>2026-04-25T09:52:15.857Z</time></trkpt><trkpt lat="40.6290267" lon="15.3785333"><ele>503.5</ele><time>2026-04-25T09:52:16.856Z</time></trkpt><trkpt lat="40.6290617" lon="15.37844"><ele>504.3333333333333</ele><time>2026-04-25T09:52:18.857Z</time></trkpt><trkpt lat="40.6290367" lon="15.37835"><ele>505.16666666666663</ele><time>2026-04-25T09:52:20.856Z</time></trkpt><trkpt lat="40.6289633" lon="15.378265"><ele>506.0</ele><time>2026-04-25T09:52:22.856Z</time></trkpt><trkpt lat="40.6288417" lon="15.3782117"><ele>506.0</ele><time>2026-04-25T09:52:24.856Z</time></trkpt><trkpt lat="40.6287517" lon="15.3782033"><ele>506.0</ele><time>2026-04-25T09:52:25.857Z</time></trkpt><trkpt lat="40.6286533" lon="15.3782117"><ele>506.0</ele><time>2026-04-25T09:52:26.857Z</time></trkpt><trkpt lat="40.62855" lon="15.378225"><ele>506.0</ele><time>2026-04-25T09:52:27.856Z</time></trkpt><trkpt lat="40.6284283" lon="15.3782367"><ele>506.0</ele><time>2026-04-25T09:52:28.857Z</time></trkpt><trkpt lat="40.62829" lon="15.3782433"><ele>504.66666666666663</ele><time>2026-04-25T09:52:29.856Z</time></trkpt><trkpt lat="40.6281367" lon="15.3782417"><ele>503.33333333333337</ele><time>2026-04-25T09:52:30.857Z</time></trkpt><trkpt lat="40.62797" lon="15.3782417"><ele>502.0</ele><time>2026-04-25T09:52:31.856Z</time></trkpt><trkpt lat="40.627795" lon="15.3782483"><ele>499.0</ele><time>2026-04-25T09:52:32.857Z</time></trkpt><trkpt lat="40.627625" lon="15.378255"><ele>496.0</ele><time>2026-04-25T09:52:33.856Z</time></trkpt><trkpt lat="40.6274617" lon="15.3782683"><ele>493.0</ele><time>2026-04-25T09:52:34.856Z</time></trkpt><trkpt lat="40.6273117" lon="15.378285"><ele>493.0</ele><time>2026-04-25T09:52:35.856Z</time></trkpt><trkpt lat="40.6271583" lon="15.37831"><ele>493.0</ele><time>2026-04-25T09:52:36.856Z</time></trkpt><trkpt lat="40.6270183" lon="15.378345"><ele>493.0</ele><time>2026-04-25T09:52:37.857Z</time></trkpt><trkpt lat="40.6268883" lon="15.3783767"><ele>493.0</ele><time>2026-04-25T09:52:38.856Z</time></trkpt><trkpt lat="40.6267617" lon="15.3783933"><ele>491.75</ele><time>2026-04-25T09:52:39.856Z</time></trkpt><trkpt lat="40.6266317" lon="15.3783867"><ele>490.5</ele><time>2026-04-25T09:52:40.857Z</time></trkpt><trkpt lat="40.6264967" lon="15.3783683"><ele>489.25</ele><time>2026-04-25T09:52:41.857Z</time></trkpt><trkpt lat="40.62635" lon="15.37835"><ele>488.0</ele><time>2026-04-25T09:52:42.857Z</time></trkpt><trkpt lat="40.6262067" lon="15.3783233"><ele>485.0</ele><time>2026-04-25T09:52:43.857Z</time></trkpt><trkpt lat="40.62606" lon="15.3782983"><ele>482.0</ele><time>2026-04-25T09:52:44.856Z</time></trkpt><trkpt lat="40.6259217" lon="15.3782683"><ele>479.0</ele><time>2026-04-25T09:52:45.857Z</time></trkpt><trkpt lat="40.6257817" lon="15.378235"><ele>476.0</ele><time>2026-04-25T09:52:46.857Z</time></trkpt><trkpt lat="40.625655" lon="15.3782033"><ele>476.0</ele><time>2026-04-25T09:52:47.857Z</time></trkpt><trkpt lat="40.6255367" lon="15.3781767"><ele>476.0</ele><time>2026-04-25T09:52:48.856Z</time></trkpt><trkpt lat="40.6254133" lon="15.378145"><ele>476.0</ele><time>2026-04-25T09:52:49.856Z</time></trkpt><trkpt lat="40.6253" lon="15.378135"><ele>476.0</ele><time>2026-04-25T09:52:50.856Z</time></trkpt><trkpt lat="40.62519" lon="15.3781317"><ele>473.25</ele><time>2026-04-25T09:52:51.857Z</time></trkpt><trkpt lat="40.62508" lon="15.3781333"><ele>470.5</ele><time>2026-04-25T09:52:52.856Z</time></trkpt><trkpt lat="40.6249683" lon="15.3781417"><ele>467.75</ele><time>2026-04-25T09:52:53.856Z</time></trkpt><trkpt lat="40.6248517" lon="15.3781483"><ele>465.0</ele><time>2026-04-25T09:52:54.857Z</time></trkpt><trkpt lat="40.62473" lon="15.378165"><ele>465.0</ele><time>2026-04-25T09:52:55.857Z</time></trkpt><trkpt lat="40.6246183" lon="15.3781917"><ele>465.0</ele><time>2026-04-25T09:52:56.857Z</time></trkpt><trkpt lat="40.62452" lon="15.37822"><ele>465.0</ele><time>2026-04-25T09:52:57.857Z</time></trkpt><trkpt lat="40.6244367" lon="15.3782417"><ele>465.0</ele><time>2026-04-25T09:52:58.856Z</time></trkpt><trkpt lat="40.6243733" lon="15.3782483"><ele>465.0</ele><time>2026-04-25T09:52:59.857Z</time></trkpt><trkpt lat="40.624275" lon="15.3782117"><ele>464.4</ele><time>2026-04-25T09:53:01.857Z</time></trkpt><trkpt lat="40.6241783" lon="15.3781483"><ele>463.8</ele><time>2026-04-25T09:53:03.857Z</time></trkpt><trkpt lat="40.62408" lon="15.3780767"><ele>463.20000000000005</ele><time>2026-04-25T09:53:05.857Z</time></trkpt><trkpt lat="40.6239733" lon="15.37799"><ele>462.6</ele><time>2026-04-25T09:53:07.857Z</time></trkpt><trkpt lat="40.623915" lon="15.3779417"><ele>462.0</ele><time>2026-04-25T09:53:08.857Z</time></trkpt><trkpt lat="40.6238583" lon="15.3778917"><ele>461.1666666666667</ele><time>2026-04-25T09:53:09.856Z</time></trkpt><trkpt lat="40.6237983" lon="15.3778317"><ele>460.33333333333337</ele><time>2026-04-25T09:53:10.856Z</time></trkpt><trkpt lat="40.6237367" lon="15.3777667"><ele>459.5</ele><time>2026-04-25T09:53:11.856Z</time></trkpt><trkpt lat="40.6236717" lon="15.3776983"><ele>458.6666666666667</ele><time>2026-04-25T09:53:12.857Z</time></trkpt><trkpt lat="40.6235983" lon="15.377635"><ele>457.83333333333337</ele><time>2026-04-25T09:53:13.856Z</time></trkpt><trkpt lat="40.6235067" lon="15.377585"><ele>457.0</ele><time>2026-04-25T09:53:14.857Z</time></trkpt><trkpt lat="40.6234017" lon="15.3775417"><ele>457.0</ele><time>2026-04-25T09:53:15.857Z</time></trkpt><trkpt lat="40.6232833" lon="15.377505"><ele>457.0</ele><time>2026-04-25T09:53:16.857Z</time></trkpt><trkpt lat="40.62315" lon="15.3774817"><ele>457.0</ele><time>2026-04-25T09:53:17.856Z</time></trkpt><trkpt lat="40.6230217" lon="15.3774733"><ele>457.0</ele><time>2026-04-25T09:53:18.857Z</time></trkpt><trkpt lat="40.6228833" lon="15.3774833"><ele>455.0</ele><time>2026-04-25T09:53:19.856Z</time></trkpt><trkpt lat="40.6227533" lon="15.3775067"><ele>453.0</ele><time>2026-04-25T09:53:20.856Z</time></trkpt><trkpt lat="40.6226233" lon="15.3775433"><ele>451.0</ele><time>2026-04-25T09:53:21.857Z</time></trkpt><trkpt lat="40.6224767" lon="15.377595"><ele>449.0</ele><time>2026-04-25T09:53:22.856Z</time></trkpt><trkpt lat="40.6223133" lon="15.3776583"><ele>449.0</ele><time>2026-04-25T09:53:23.856Z</time></trkpt><trkpt lat="40.6221467" lon="15.377735"><ele>449.0</ele><time>2026-04-25T09:53:24.857Z</time></trkpt><trkpt lat="40.6219717" lon="15.37782"><ele>449.0</ele><time>2026-04-25T09:53:25.857Z</time></trkpt><trkpt lat="40.6217867" lon="15.3779017"><ele>449.0</ele><time>2026-04-25T09:53:26.856Z</time></trkpt><trkpt lat="40.6216133" lon="15.3779783"><ele>449.0</ele><time>2026-04-25T09:53:27.857Z</time></trkpt><trkpt lat="40.621465" lon="15.3780533"><ele>449.0</ele><time>2026-04-25T09:53:28.856Z</time></trkpt><trkpt lat="40.62132" lon="15.378115"><ele>447.79999999999995</ele><time>2026-04-25T09:53:29.857Z</time></trkpt><trkpt lat="40.6212033" lon="15.37818"><ele>446.59999999999997</ele><time>2026-04-25T09:53:30.857Z</time></trkpt><trkpt lat="40.6211133" lon="15.3782483"><ele>445.4</ele><time>2026-04-25T09:53:31.856Z</time></trkpt><trkpt lat="40.6210567" lon="15.3783183"><ele>444.2</ele><time>2026-04-25T09:53:32.857Z</time></trkpt><trkpt lat="40.6210217" lon="15.3783917"><ele>443.0</ele><time>2026-04-25T09:53:33.857Z</time></trkpt><trkpt lat="40.621" lon="15.37856"><ele>444.59999999999997</ele><time>2026-04-25T09:53:35.856Z</time></trkpt><trkpt lat="40.6209883" lon="15.3786717"><ele>446.19999999999993</ele><time>2026-04-25T09:53:36.856Z</time></trkpt><trkpt lat="40.6209717" lon="15.3788017"><ele>447.8</ele><time>2026-04-25T09:53:37.856Z</time></trkpt><trkpt lat="40.6209367" lon="15.3789433"><ele>449.4</ele><time>2026-04-25T09:53:38.857Z</time></trkpt><trkpt lat="40.6208867" lon="15.3790783"><ele>451.0</ele><time>2026-04-25T09:53:39.856Z</time></trkpt><trkpt lat="40.6208067" lon="15.3791883"><ele>451.0</ele><time>2026-04-25T09:53:40.856Z</time></trkpt><trkpt lat="40.6207" lon="15.3792783"><ele>451.0</ele><time>2026-04-25T09:53:41.857Z</time></trkpt><trkpt lat="40.6205717" lon="15.3793317"><ele>451.0</ele><time>2026-04-25T09:53:42.857Z</time></trkpt><trkpt lat="40.6204367" lon="15.379355"><ele>451.0</ele><time>2026-04-25T09:53:43.857Z</time></trkpt><trkpt lat="40.6203067" lon="15.3793883"><ele>449.4</ele><time>2026-04-25T09:53:44.857Z</time></trkpt><trkpt lat="40.62019" lon="15.3794133"><ele>447.8</ele><time>2026-04-25T09:53:45.857Z</time></trkpt><trkpt lat="40.6200983" lon="15.3794583"><ele>446.19999999999993</ele><time>2026-04-25T09:53:46.857Z</time></trkpt><trkpt lat="40.6200167" lon="15.379515"><ele>444.59999999999997</ele><time>2026-04-25T09:53:47.856Z</time></trkpt><trkpt lat="40.6199583" lon="15.3796033"><ele>443.0</ele><time>2026-04-25T09:53:48.856Z</time></trkpt><trkpt lat="40.619935" lon="15.3797217"><ele>440.25</ele><time>2026-04-25T09:53:49.856Z</time></trkpt><trkpt lat="40.6199383" lon="15.3798633"><ele>437.5</ele><time>2026-04-25T09:53:50.856Z</time></trkpt><trkpt lat="40.619955" lon="15.38002"><ele>434.75</ele><time>2026-04-25T09:53:51.857Z</time></trkpt><trkpt lat="40.6199683" lon="15.3801867"><ele>432.0</ele><time>2026-04-25T09:53:52.856Z</time></trkpt><trkpt lat="40.6199733" lon="15.38036"><ele>430.20000000000005</ele><time>2026-04-25T09:53:53.856Z</time></trkpt><trkpt lat="40.6199733" lon="15.3805267"><ele>428.40000000000003</ele><time>2026-04-25T09:53:54.856Z</time></trkpt><trkpt lat="40.6199733" lon="15.380675"><ele>426.6</ele><time>2026-04-25T09:53:55.856Z</time></trkpt><trkpt lat="40.61997" lon="15.380795"><ele>424.79999999999995</ele><time>2026-04-25T09:53:56.856Z</time></trkpt><trkpt lat="40.6199583" lon="15.3808933"><ele>423.0</ele><time>2026-04-25T09:53:57.857Z</time></trkpt><trkpt lat="40.6199267" lon="15.3809733"><ele>423.0</ele><time>2026-04-25T09:53:58.857Z</time></trkpt><trkpt lat="40.619875" lon="15.3810383"><ele>423.0</ele><time>2026-04-25T09:53:59.857Z</time></trkpt><trkpt lat="40.6198" lon="15.3810283"><ele>423.0</ele><time>2026-04-25T09:54:00.856Z</time></trkpt><trkpt lat="40.6197" lon="15.380985"><ele>423.0</ele><time>2026-04-25T09:54:01.857Z</time></trkpt><trkpt lat="40.6195933" lon="15.3809333"><ele>423.0</ele><time>2026-04-25T09:54:02.857Z</time></trkpt><trkpt lat="40.619485" lon="15.3809167"><ele>417.0</ele><time>2026-04-25T09:54:03.856Z</time></trkpt><trkpt lat="40.619365" lon="15.3809417"><ele>411.0</ele><time>2026-04-25T09:54:04.856Z</time></trkpt><trkpt lat="40.6192383" lon="15.3810233"><ele>405.0</ele><time>2026-04-25T09:54:05.857Z</time></trkpt><trkpt lat="40.6190983" lon="15.38114"><ele>399.0</ele><time>2026-04-25T09:54:06.856Z</time></trkpt><trkpt lat="40.6189433" lon="15.381255"><ele>398.0</ele><time>2026-04-25T09:54:07.856Z</time></trkpt><trkpt lat="40.6187783" lon="15.3813583"><ele>397.0</ele><time>2026-04-25T09:54:08.856Z</time></trkpt><trkpt lat="40.61861" lon="15.381445"><ele>396.0</ele><time>2026-04-25T09:54:09.857Z</time></trkpt><trkpt lat="40.6184217" lon="15.3815233"><ele>391.0</ele><time>2026-04-25T09:54:10.857Z</time></trkpt><trkpt lat="40.6182283" lon="15.38159"><ele>386.0</ele><time>2026-04-25T09:54:11.857Z</time></trkpt><trkpt lat="40.6180417" lon="15.3816567"><ele>381.0</ele><time>2026-04-25T09:54:12.857Z</time></trkpt><trkpt lat="40.61786" lon="15.3817133"><ele>377.6666666666667</ele><time>2026-04-25T09:54:13.856Z</time></trkpt><trkpt lat="40.6176833" lon="15.3817733"><ele>374.33333333333337</ele><time>2026-04-25T09:54:14.857Z</time></trkpt><trkpt lat="40.6175167" lon="15.381835"><ele>371.0</ele><time>2026-04-25T09:54:15.856Z</time></trkpt><trkpt lat="40.6173633" lon="15.381895"><ele>371.0</ele><time>2026-04-25T09:54:16.857Z</time></trkpt><trkpt lat="40.6172233" lon="15.3819617"><ele>371.0</ele><time>2026-04-25T09:54:17.856Z</time></trkpt><trkpt lat="40.6170967" lon="15.38203"><ele>371.0</ele><time>2026-04-25T09:54:18.856Z</time></trkpt><trkpt lat="40.6169683" lon="15.3820983"><ele>371.0</ele><time>2026-04-25T09:54:19.857Z</time></trkpt><trkpt lat="40.6168433" lon="15.38218"><ele>366.0</ele><time>2026-04-25T09:54:20.857Z</time></trkpt><trkpt lat="40.6167233" lon="15.3822533"><ele>361.0</ele><time>2026-04-25T09:54:21.857Z</time></trkpt><trkpt lat="40.616615" lon="15.3823317"><ele>356.0</ele><time>2026-04-25T09:54:22.856Z</time></trkpt><trkpt lat="40.61651" lon="15.382415"><ele>351.0</ele><time>2026-04-25T09:54:23.856Z</time></trkpt><trkpt lat="40.616405" lon="15.382495"><ele>351.0</ele><time>2026-04-25T09:54:24.857Z</time></trkpt><trkpt lat="40.6163067" lon="15.3825717"><ele>351.0</ele><time>2026-04-25T09:54:25.856Z</time></trkpt><trkpt lat="40.616215" lon="15.3826567"><ele>351.0</ele><time>2026-04-25T09:54:26.857Z</time></trkpt><trkpt lat="40.616125" lon="15.38273"><ele>351.0</ele><time>2026-04-25T09:54:27.857Z</time></trkpt><trkpt lat="40.6160417" lon="15.3827983"><ele>351.0</ele><time>2026-04-25T09:54:28.857Z</time></trkpt><trkpt lat="40.6159633" lon="15.3828633"><ele>348.5</ele><time>2026-04-25T09:54:29.857Z</time></trkpt><trkpt lat="40.6158867" lon="15.3829233"><ele>346.0</ele><time>2026-04-25T09:54:30.857Z</time></trkpt><trkpt lat="40.6158183" lon="15.3829783"><ele>343.5</ele><time>2026-04-25T09:54:31.856Z</time></trkpt><trkpt lat="40.6157533" lon="15.3830367"><ele>341.0</ele><time>2026-04-25T09:54:32.857Z</time></trkpt><trkpt lat="40.6156367" lon="15.3830267"><ele>338.5</ele><time>2026-04-25T09:54:34.856Z</time></trkpt><trkpt lat="40.6155783" lon="15.3829683"><ele>336.0</ele><time>2026-04-25T09:54:35.856Z</time></trkpt><trkpt lat="40.6155267" lon="15.3828733"><ele>335.6</ele><time>2026-04-25T09:54:36.857Z</time></trkpt><trkpt lat="40.6154817" lon="15.3827767"><ele>335.20000000000005</ele><time>2026-04-25T09:54:37.856Z</time></trkpt><trkpt lat="40.6154333" lon="15.3826767"><ele>334.79999999999995</ele><time>2026-04-25T09:54:38.856Z</time></trkpt><trkpt lat="40.6153833" lon="15.3825733"><ele>334.4</ele><time>2026-04-25T09:54:39.856Z</time></trkpt><trkpt lat="40.6153283" lon="15.382465"><ele>334.0</ele><time>2026-04-25T09:54:40.856Z</time></trkpt><trkpt lat="40.6152767" lon="15.382355"><ele>329.59999999999997</ele><time>2026-04-25T09:54:41.857Z</time></trkpt><trkpt lat="40.61523" lon="15.38224"><ele>325.2</ele><time>2026-04-25T09:54:42.856Z</time></trkpt><trkpt lat="40.6151717" lon="15.3821217"><ele>320.79999999999995</ele><time>2026-04-25T09:54:43.856Z</time></trkpt><trkpt lat="40.6151183" lon="15.3820083"><ele>316.4</ele><time>2026-04-25T09:54:44.857Z</time></trkpt><trkpt lat="40.61506" lon="15.38189"><ele>312.0</ele><time>2026-04-25T09:54:45.856Z</time></trkpt><trkpt lat="40.6150017" lon="15.3817667"><ele>312.0</ele><time>2026-04-25T09:54:46.856Z</time></trkpt><trkpt lat="40.614945" lon="15.3816367"><ele>312.0</ele><time>2026-04-25T09:54:47.857Z</time></trkpt><trkpt lat="40.6148983" lon="15.3815183"><ele>312.0</ele><time>2026-04-25T09:54:48.857Z</time></trkpt><trkpt lat="40.6148483" lon="15.3814117"><ele>312.0</ele><time>2026-04-25T09:54:49.857Z</time></trkpt><trkpt lat="40.6147967" lon="15.38132"><ele>312.0</ele><time>2026-04-25T09:54:50.857Z</time></trkpt><trkpt lat="40.61473" lon="15.3812683"><ele>311.6</ele><time>2026-04-25T09:54:51.856Z</time></trkpt><trkpt lat="40.6146567" lon="15.3812467"><ele>311.2</ele><time>2026-04-25T09:54:52.857Z</time></trkpt><trkpt lat="40.6145783" lon="15.381275"><ele>310.8</ele><time>2026-04-25T09:54:53.856Z</time></trkpt><trkpt lat="40.6144983" lon="15.3813467"><ele>310.4</ele><time>2026-04-25T09:54:54.857Z</time></trkpt><trkpt lat="40.6144183" lon="15.3814383"><ele>310.0</ele><time>2026-04-25T09:54:55.857Z</time></trkpt><trkpt lat="40.6143367" lon="15.3815383"><ele>305.0</ele><time>2026-04-25T09:54:56.856Z</time></trkpt><trkpt lat="40.6142467" lon="15.3816383"><ele>300.0</ele><time>2026-04-25T09:54:57.857Z</time></trkpt><trkpt lat="40.61415" lon="15.3817367"><ele>295.0</ele><time>2026-04-25T09:54:58.856Z</time></trkpt><trkpt lat="40.614045" lon="15.3818283"><ele>290.0</ele><time>2026-04-25T09:54:59.857Z</time></trkpt><trkpt lat="40.6139283" lon="15.3819083"><ele>290.0</ele><time>2026-04-25T09:55:00.857Z</time></trkpt><trkpt lat="40.613805" lon="15.38198"><ele>290.0</ele><time>2026-04-25T09:55:01.856Z</time></trkpt><trkpt lat="40.6136817" lon="15.38205"><ele>290.0</ele><time>2026-04-25T09:55:02.856Z</time></trkpt><trkpt lat="40.6135567" lon="15.3821183"><ele>290.0</ele><time>2026-04-25T09:55:03.856Z</time></trkpt><trkpt lat="40.61343" lon="15.3821883"><ele>285.75</ele><time>2026-04-25T09:55:04.857Z</time></trkpt><trkpt lat="40.6132983" lon="15.382255"><ele>281.5</ele><time>2026-04-25T09:55:05.856Z</time></trkpt><trkpt lat="40.6131667" lon="15.3823217"><ele>277.25</ele><time>2026-04-25T09:55:06.857Z</time></trkpt><trkpt lat="40.6130467" lon="15.38238"><ele>273.0</ele><time>2026-04-25T09:55:07.857Z</time></trkpt><trkpt lat="40.6129167" lon="15.3824367"><ele>269.5</ele><time>2026-04-25T09:55:08.856Z</time></trkpt><trkpt lat="40.6127883" lon="15.382495"><ele>266.0</ele><time>2026-04-25T09:55:09.856Z</time></trkpt><trkpt lat="40.612665" lon="15.38255"><ele>262.5</ele><time>2026-04-25T09:55:10.856Z</time></trkpt><trkpt lat="40.6125417" lon="15.3826"><ele>259.0</ele><time>2026-04-25T09:55:11.857Z</time></trkpt><trkpt lat="40.61242" lon="15.3826483"><ele>259.0</ele><time>2026-04-25T09:55:12.856Z</time></trkpt><trkpt lat="40.6123067" lon="15.3827"><ele>259.0</ele><time>2026-04-25T09:55:13.856Z</time></trkpt><trkpt lat="40.6121917" lon="15.3827567"><ele>259.0</ele><time>2026-04-25T09:55:14.857Z</time></trkpt><trkpt lat="40.6120733" lon="15.3828117"><ele>259.0</ele><time>2026-04-25T09:55:15.856Z</time></trkpt><trkpt lat="40.6119533" lon="15.3828617"><ele>256.2</ele><time>2026-04-25T09:55:16.857Z</time></trkpt><trkpt lat="40.6118417" lon="15.3828767"><ele>253.39999999999998</ele><time>2026-04-25T09:55:17.857Z</time></trkpt><trkpt lat="40.6117417" lon="15.3828717"><ele>250.6</ele><time>2026-04-25T09:55:18.857Z</time></trkpt><trkpt lat="40.61166" lon="15.38282"><ele>247.8</ele><time>2026-04-25T09:55:19.856Z</time></trkpt><trkpt lat="40.6115883" lon="15.3827417"><ele>245.0</ele><time>2026-04-25T09:55:20.857Z</time></trkpt><trkpt lat="40.611515" lon="15.3826617"><ele>245.00000000000003</ele><time>2026-04-25T09:55:21.857Z</time></trkpt><trkpt lat="40.611445" lon="15.3825817"><ele>245.0</ele><time>2026-04-25T09:55:22.856Z</time></trkpt><trkpt lat="40.6113833" lon="15.3824983"><ele>245.0</ele><time>2026-04-25T09:55:23.857Z</time></trkpt><trkpt lat="40.6113283" lon="15.3824217"><ele>245.0</ele><time>2026-04-25T09:55:24.857Z</time></trkpt><trkpt lat="40.611285" lon="15.382355"><ele>245.00000000000003</ele><time>2026-04-25T09:55:25.856Z</time></trkpt><trkpt lat="40.6112117" lon="15.382285"><ele>245.0</ele><time>2026-04-25T09:55:27.857Z</time></trkpt><trkpt lat="40.611135" lon="15.38225"><ele>243.33333333333334</ele><time>2026-04-25T10:07:19.854Z</time></trkpt><trkpt lat="40.6110633" lon="15.382235"><ele>241.66666666666669</ele><time>2026-04-25T10:07:20.854Z</time></trkpt><trkpt lat="40.61097" lon="15.3822117"><ele>240.0</ele><time>2026-04-25T10:07:21.853Z</time></trkpt><trkpt lat="40.61088" lon="15.38218"><ele>238.33333333333331</ele><time>2026-04-25T10:07:22.854Z</time></trkpt><trkpt lat="40.6108033" lon="15.3821667"><ele>236.66666666666666</ele><time>2026-04-25T10:07:23.854Z</time></trkpt><trkpt lat="40.610735" lon="15.3821517"><ele>235.0</ele><time>2026-04-25T10:07:24.854Z</time></trkpt><trkpt lat="40.6106683" lon="15.382135"><ele>235.0</ele><time>2026-04-25T10:07:25.853Z</time></trkpt><trkpt lat="40.6106033" lon="15.3821167"><ele>234.99999999999997</ele><time>2026-04-25T10:07:26.853Z</time></trkpt><trkpt lat="40.61053" lon="15.3821033"><ele>235.0</ele><time>2026-04-25T10:07:27.853Z</time></trkpt><trkpt lat="40.6104633" lon="15.3820817"><ele>235.0</ele><time>2026-04-25T10:07:28.854Z</time></trkpt><trkpt lat="40.6104" lon="15.382055"><ele>234.99999999999997</ele><time>2026-04-25T10:07:29.853Z</time></trkpt><trkpt lat="40.6103333" lon="15.38204"><ele>235.0</ele><time>2026-04-25T10:07:30.853Z</time></trkpt><trkpt lat="40.610265" lon="15.3820283"><ele>235.0</ele><time>2026-04-25T10:07:31.854Z</time></trkpt><trkpt lat="40.6101933" lon="15.382015"><ele>232.0</ele><time>2026-04-25T10:07:32.854Z</time></trkpt><trkpt lat="40.6101183" lon="15.3820233"><ele>229.0</ele><time>2026-04-25T10:07:33.854Z</time></trkpt><trkpt lat="40.610025" lon="15.382035"><ele>226.0</ele><time>2026-04-25T10:07:34.853Z</time></trkpt><trkpt lat="40.6099133" lon="15.3820467"><ele>223.0</ele><time>2026-04-25T10:07:35.853Z</time></trkpt><trkpt lat="40.6097967" lon="15.3820617"><ele>220.0</ele><time>2026-04-25T10:07:36.854Z</time></trkpt><trkpt lat="40.6096817" lon="15.38206"><ele>220.0</ele><time>2026-04-25T10:07:37.854Z</time></trkpt><trkpt lat="40.6095717" lon="15.3820533"><ele>220.0</ele><time>2026-04-25T10:07:38.853Z</time></trkpt><trkpt lat="40.6094733" lon="15.382035"><ele>220.0</ele><time>2026-04-25T10:07:39.853Z</time></trkpt><trkpt lat="40.609395" lon="15.3819833"><ele>220.0</ele><time>2026-04-25T10:07:40.853Z</time></trkpt><trkpt lat="40.6093417" lon="15.3819083"><ele>220.0</ele><time>2026-04-25T10:07:41.854Z</time></trkpt><trkpt lat="40.6093117" lon="15.3818033"><ele>217.99999999999997</ele><time>2026-04-25T10:07:42.853Z</time></trkpt><trkpt lat="40.609315" lon="15.381685"><ele>216.0</ele><time>2026-04-25T10:07:43.853Z</time></trkpt><trkpt lat="40.6093367" lon="15.381575"><ele>214.0</ele><time>2026-04-25T10:07:44.854Z</time></trkpt><trkpt lat="40.609355" lon="15.3814817"><ele>212.0</ele><time>2026-04-25T10:07:45.854Z</time></trkpt><trkpt lat="40.609345" lon="15.38136"><ele>209.99999999999997</ele><time>2026-04-25T10:07:47.854Z</time></trkpt><trkpt lat="40.6092617" lon="15.3813467"><ele>208.0</ele><time>2026-04-25T10:07:49.853Z</time></trkpt><trkpt lat="40.6092" lon="15.3813867"><ele>208.0</ele><time>2026-04-25T10:07:50.853Z</time></trkpt><trkpt lat="40.6091217" lon="15.3814517"><ele>208.0</ele><time>2026-04-25T10:07:51.853Z</time></trkpt><trkpt lat="40.6090233" lon="15.3815233"><ele>208.0</ele><time>2026-04-25T10:07:52.853Z</time></trkpt><trkpt lat="40.6089183" lon="15.3815967"><ele>208.0</ele><time>2026-04-25T10:07:53.853Z</time></trkpt><trkpt lat="40.6088067" lon="15.3816567"><ele>208.0</ele><time>2026-04-25T10:07:54.853Z</time></trkpt><trkpt lat="40.6087033" lon="15.3817517"><ele>206.60000000000002</ele><time>2026-04-25T10:07:55.854Z</time></trkpt><trkpt lat="40.6085917" lon="15.3818517"><ele>205.20000000000002</ele><time>2026-04-25T10:07:56.853Z</time></trkpt><trkpt lat="40.6084967" lon="15.3819267"><ele>203.8</ele><time>2026-04-25T10:07:57.854Z</time></trkpt><trkpt lat="40.6084217" lon="15.381995"><ele>202.4</ele><time>2026-04-25T10:07:58.853Z</time></trkpt><trkpt lat="40.6083617" lon="15.38206"><ele>201.0</ele><time>2026-04-25T10:07:59.853Z</time></trkpt><trkpt lat="40.60831" lon="15.3821417"><ele>200.8</ele><time>2026-04-25T10:08:01.853Z</time></trkpt><trkpt lat="40.6083133" lon="15.38227"><ele>200.60000000000002</ele><time>2026-04-25T10:08:04.854Z</time></trkpt><trkpt lat="40.6083417" lon="15.3823533"><ele>200.4</ele><time>2026-04-25T10:08:05.853Z</time></trkpt><trkpt lat="40.6083917" lon="15.3824533"><ele>200.2</ele><time>2026-04-25T10:08:06.854Z</time></trkpt><trkpt lat="40.6084533" lon="15.38257"><ele>200.0</ele><time>2026-04-25T10:08:07.853Z</time></trkpt><trkpt lat="40.608525" lon="15.3826983"><ele>200.0</ele><time>2026-04-25T10:08:08.853Z</time></trkpt><trkpt lat="40.6086083" lon="15.3828333"><ele>200.0</ele><time>2026-04-25T10:08:09.853Z</time></trkpt><trkpt lat="40.608695" lon="15.3829883"><ele>200.0</ele><time>2026-04-25T10:08:10.853Z</time></trkpt><trkpt lat="40.6087833" lon="15.3831467"><ele>200.0</ele><time>2026-04-25T10:08:11.853Z</time></trkpt><trkpt lat="40.6088717" lon="15.38331"><ele>202.0</ele><time>2026-04-25T10:08:12.854Z</time></trkpt><trkpt lat="40.6089633" lon="15.3834817"><ele>204.0</ele><time>2026-04-25T10:08:13.854Z</time></trkpt><trkpt lat="40.609055" lon="15.3836633"><ele>206.0</ele><time>2026-04-25T10:08:14.854Z</time></trkpt><trkpt lat="40.6091483" lon="15.3838583"><ele>206.0</ele><time>2026-04-25T10:08:15.854Z</time></trkpt><trkpt lat="40.6092467" lon="15.3840583"><ele>206.0</ele><time>2026-04-25T10:08:16.853Z</time></trkpt><trkpt lat="40.6093533" lon="15.3842483"><ele>206.0</ele><time>2026-04-25T10:08:17.853Z</time></trkpt><trkpt lat="40.6094533" lon="15.3844533"><ele>208.33333333333334</ele><time>2026-04-25T10:08:18.853Z</time></trkpt><trkpt lat="40.6095517" lon="15.3846617"><ele>210.66666666666669</ele><time>2026-04-25T10:08:19.853Z</time></trkpt><trkpt lat="40.60965" lon="15.3848617"><ele>213.0</ele><time>2026-04-25T10:08:20.854Z</time></trkpt><trkpt lat="40.6097483" lon="15.385045"><ele>213.0</ele><time>2026-04-25T10:08:21.854Z</time></trkpt><trkpt lat="40.6098383" lon="15.385215"><ele>213.0</ele><time>2026-04-25T10:08:22.854Z</time></trkpt><trkpt lat="40.609925" lon="15.3853867"><ele>213.0</ele><time>2026-04-25T10:08:23.854Z</time></trkpt><trkpt lat="40.610015" lon="15.3855583"><ele>213.5</ele><time>2026-04-25T10:08:24.853Z</time></trkpt><trkpt lat="40.6100983" lon="15.3857217"><ele>214.0</ele><time>2026-04-25T10:08:25.853Z</time></trkpt><trkpt lat="40.61019" lon="15.38588"><ele>214.5</ele><time>2026-04-25T10:08:26.854Z</time></trkpt><trkpt lat="40.6102733" lon="15.3860283"><ele>215.0</ele><time>2026-04-25T10:08:27.854Z</time></trkpt><trkpt lat="40.6103483" lon="15.3861833"><ele>215.0</ele><time>2026-04-25T10:08:28.854Z</time></trkpt><trkpt lat="40.6104283" lon="15.386335"><ele>215.0</ele><time>2026-04-25T10:08:29.853Z</time></trkpt><trkpt lat="40.6105067" lon="15.3864783"><ele>215.0</ele><time>2026-04-25T10:08:30.854Z</time></trkpt><trkpt lat="40.610575" lon="15.3866233"><ele>215.0</ele><time>2026-04-25T10:08:31.854Z</time></trkpt><trkpt lat="40.6106433" lon="15.38677"><ele>213.8</ele><time>2026-04-25T10:08:32.854Z</time></trkpt><trkpt lat="40.6107083" lon="15.3869083"><ele>212.6</ele><time>2026-04-25T10:08:33.853Z</time></trkpt><trkpt lat="40.6107683" lon="15.3870367"><ele>211.39999999999998</ele><time>2026-04-25T10:08:34.854Z</time></trkpt><trkpt lat="40.610825" lon="15.3871567"><ele>210.2</ele><time>2026-04-25T10:08:35.854Z</time></trkpt><trkpt lat="40.610875" lon="15.387265"><ele>209.0</ele><time>2026-04-25T10:08:36.854Z</time></trkpt><trkpt lat="40.6109167" lon="15.3873583"><ele>208.39999999999998</ele><time>2026-04-25T10:08:37.854Z</time></trkpt><trkpt lat="40.6109583" lon="15.3874367"><ele>207.8</ele><time>2026-04-25T10:08:38.854Z</time></trkpt><trkpt lat="40.6110117" lon="15.387495"><ele>207.2</ele><time>2026-04-25T10:08:39.853Z</time></trkpt><trkpt lat="40.6111317" lon="15.3875233"><ele>206.60000000000002</ele><time>2026-04-25T10:08:41.854Z</time></trkpt><trkpt lat="40.6112217" lon="15.387465"><ele>206.0</ele><time>2026-04-25T10:08:43.853Z</time></trkpt><trkpt lat="40.6112683" lon="15.38733"><ele>212.0</ele><time>2026-04-25T10:08:45.854Z</time></trkpt><trkpt lat="40.6112833" lon="15.387235"><ele>218.0</ele><time>2026-04-25T10:08:46.854Z</time></trkpt><trkpt lat="40.6112967" lon="15.3871233"><ele>224.00000000000003</ele><time>2026-04-25T10:08:47.853Z</time></trkpt><trkpt lat="40.6113167" lon="15.386995"><ele>230.0</ele><time>2026-04-25T10:08:48.854Z</time></trkpt><trkpt lat="40.61133" lon="15.3868583"><ele>236.0</ele><time>2026-04-25T10:08:49.854Z</time></trkpt><trkpt lat="40.6113483" lon="15.3867033"><ele>236.0</ele><time>2026-04-25T10:08:50.853Z</time></trkpt><trkpt lat="40.6113667" lon="15.38654"><ele>236.0</ele><time>2026-04-25T10:08:51.854Z</time></trkpt><trkpt lat="40.61139" lon="15.3863683"><ele>236.0</ele><time>2026-04-25T10:08:52.854Z</time></trkpt><trkpt lat="40.6114117" lon="15.386195"><ele>236.0</ele><time>2026-04-25T10:08:53.853Z</time></trkpt><trkpt lat="40.6114433" lon="15.386015"><ele>233.66666666666669</ele><time>2026-04-25T10:08:54.854Z</time></trkpt><trkpt lat="40.6114583" lon="15.3858267"><ele>231.33333333333331</ele><time>2026-04-25T10:08:55.853Z</time></trkpt><trkpt lat="40.6114667" lon="15.3856283"><ele>229.0</ele><time>2026-04-25T10:08:56.854Z</time></trkpt><trkpt lat="40.6114667" lon="15.3854167"><ele>228.0</ele><time>2026-04-25T10:08:57.854Z</time></trkpt><trkpt lat="40.6114667" lon="15.3852067"><ele>227.0</ele><time>2026-04-25T10:08:58.854Z</time></trkpt><trkpt lat="40.61147" lon="15.3849917"><ele>226.0</ele><time>2026-04-25T10:08:59.854Z</time></trkpt><trkpt lat="40.6114733" lon="15.38478"><ele>227.33333333333331</ele><time>2026-04-25T10:09:00.854Z</time></trkpt><trkpt lat="40.6113917" lon="15.38463"><ele>228.66666666666669</ele><time>2026-04-25T10:09:01.853Z</time></trkpt><trkpt lat="40.6113217" lon="15.3844283"><ele>230.0</ele><time>2026-04-25T10:09:02.853Z</time></trkpt><trkpt lat="40.611285" lon="15.3842083"><ele>230.0</ele><time>2026-04-25T10:09:03.854Z</time></trkpt><trkpt lat="40.61125" lon="15.3839967"><ele>230.0</ele><time>2026-04-25T10:09:04.854Z</time></trkpt><trkpt lat="40.611215" lon="15.3837833"><ele>230.0</ele><time>2026-04-25T10:09:05.853Z</time></trkpt><trkpt lat="40.6111733" lon="15.3835667"><ele>226.5</ele><time>2026-04-25T10:09:06.854Z</time></trkpt><trkpt lat="40.6108633" lon="15.3834117"><ele>223.0</ele><time>2026-04-25T10:09:07.854Z</time></trkpt><trkpt lat="40.6105683" lon="15.3833133"><ele>223.0</ele><time>2026-04-25T10:09:08.854Z</time></trkpt><trkpt lat="40.6103867" lon="15.3832133"><ele>223.0</ele><time>2026-04-25T10:09:09.853Z</time></trkpt><trkpt lat="40.6102167" lon="15.383145"><ele>223.0</ele><time>2026-04-25T10:09:10.853Z</time></trkpt><trkpt lat="40.610055" lon="15.383085"><ele>221.0</ele><time>2026-04-25T10:09:11.854Z</time></trkpt><trkpt lat="40.6099067" lon="15.3829967"><ele>219.0</ele><time>2026-04-25T10:09:12.854Z</time></trkpt><trkpt lat="40.6097683" lon="15.3828717"><ele>217.0</ele><time>2026-04-25T10:09:13.854Z</time></trkpt><trkpt lat="40.6096433" lon="15.3827183"><ele>217.0</ele><time>2026-04-25T10:09:14.854Z</time></trkpt><trkpt lat="40.60951" lon="15.3825417"><ele>217.0</ele><time>2026-04-25T10:09:15.853Z</time></trkpt><trkpt lat="40.6093767" lon="15.3823583"><ele>217.0</ele><time>2026-04-25T10:09:16.854Z</time></trkpt><trkpt lat="40.60924" lon="15.3821767"><ele>214.0</ele><time>2026-04-25T10:09:17.854Z</time></trkpt><trkpt lat="40.6091067" lon="15.3819833"><ele>211.0</ele><time>2026-04-25T10:09:18.854Z</time></trkpt><trkpt lat="40.608975" lon="15.381785"><ele>208.0</ele><time>2026-04-25T10:09:19.853Z</time></trkpt><trkpt lat="40.608845" lon="15.3815783"><ele>208.0</ele><time>2026-04-25T10:09:20.854Z</time></trkpt><trkpt lat="40.608715" lon="15.381355"><ele>208.0</ele><time>2026-04-25T10:09:21.854Z</time></trkpt><trkpt lat="40.6085817" lon="15.381125"><ele>208.0</ele><time>2026-04-25T10:09:22.854Z</time></trkpt><trkpt lat="40.608445" lon="15.38089"><ele>207.0</ele><time>2026-04-25T10:09:23.853Z</time></trkpt><trkpt lat="40.6083083" lon="15.3806517"><ele>206.0</ele><time>2026-04-25T10:09:24.853Z</time></trkpt><trkpt lat="40.6081683" lon="15.380415"><ele>206.0</ele><time>2026-04-25T10:09:25.854Z</time></trkpt><trkpt lat="40.60803" lon="15.3801733"><ele>206.0</ele><time>2026-04-25T10:09:26.853Z</time></trkpt><trkpt lat="40.60789" lon="15.3799317"><ele>205.0</ele><time>2026-04-25T10:09:27.853Z</time></trkpt><trkpt lat="40.60775" lon="15.379685"><ele>204.0</ele><time>2026-04-25T10:09:28.853Z</time></trkpt><trkpt lat="40.6076017" lon="15.37944"><ele>204.0</ele><time>2026-04-25T10:09:29.853Z</time></trkpt><trkpt lat="40.6074567" lon="15.3791983"><ele>204.0</ele><time>2026-04-25T10:09:30.853Z</time></trkpt><trkpt lat="40.6073083" lon="15.3789483"><ele>207.5</ele><time>2026-04-25T10:09:31.854Z</time></trkpt><trkpt lat="40.6071667" lon="15.3786933"><ele>211.0</ele><time>2026-04-25T10:09:32.854Z</time></trkpt><trkpt lat="40.6070233" lon="15.3784433"><ele>208.5</ele><time>2026-04-25T10:09:33.854Z</time></trkpt><trkpt lat="40.6068717" lon="15.378205"><ele>206.0</ele><time>2026-04-25T10:09:34.853Z</time></trkpt><trkpt lat="40.6067283" lon="15.377955"><ele>206.0</ele><time>2026-04-25T10:09:35.853Z</time></trkpt><trkpt lat="40.6065883" lon="15.3777067"><ele>206.0</ele><time>2026-04-25T10:09:36.853Z</time></trkpt><trkpt lat="40.60644" lon="15.377465"><ele>206.0</ele><time>2026-04-25T10:09:37.854Z</time></trkpt><trkpt lat="40.6062933" lon="15.3772133"><ele>206.0</ele><time>2026-04-25T10:09:38.854Z</time></trkpt><trkpt lat="40.6061517" lon="15.3769617"><ele>203.5</ele><time>2026-04-25T10:09:39.854Z</time></trkpt><trkpt lat="40.6060083" lon="15.37671"><ele>201.0</ele><time>2026-04-25T10:09:40.854Z</time></trkpt><trkpt lat="40.6058667" lon="15.376465"><ele>205.0</ele><time>2026-04-25T10:09:41.853Z</time></trkpt><trkpt lat="40.6057233" lon="15.37622"><ele>209.0</ele><time>2026-04-25T10:09:42.853Z</time></trkpt><trkpt lat="40.60558" lon="15.3759783"><ele>209.0</ele><time>2026-04-25T10:09:43.853Z</time></trkpt><trkpt lat="40.6054333" lon="15.3757383"><ele>209.0</ele><time>2026-04-25T10:09:44.853Z</time></trkpt><trkpt lat="40.60528" lon="15.3754833"><ele>205.5</ele><time>2026-04-25T10:09:45.854Z</time></trkpt><trkpt lat="40.6051267" lon="15.3752267"><ele>202.0</ele><time>2026-04-25T10:09:46.854Z</time></trkpt><trkpt lat="40.6049683" lon="15.374965"><ele>202.0</ele><time>2026-04-25T10:09:47.854Z</time></trkpt><trkpt lat="40.60481" lon="15.3746967"><ele>202.0</ele><time>2026-04-25T10:09:48.854Z</time></trkpt><trkpt lat="40.604645" lon="15.3744333"><ele>199.0</ele><time>2026-04-25T10:09:49.853Z</time></trkpt><trkpt lat="40.604485" lon="15.374165"><ele>196.0</ele><time>2026-04-25T10:09:50.853Z</time></trkpt><trkpt lat="40.6043233" lon="15.3738933"><ele>197.0</ele><time>2026-04-25T10:09:51.853Z</time></trkpt><trkpt lat="40.6041583" lon="15.3736117"><ele>198.0</ele><time>2026-04-25T10:09:52.854Z</time></trkpt><trkpt lat="40.604" lon="15.373335"><ele>198.0</ele><time>2026-04-25T10:09:53.854Z</time></trkpt><trkpt lat="40.60384" lon="15.3730517"><ele>198.0</ele><time>2026-04-25T10:09:54.854Z</time></trkpt><trkpt lat="40.6036767" lon="15.3727683"><ele>197.0</ele><time>2026-04-25T10:09:55.854Z</time></trkpt><trkpt lat="40.6035183" lon="15.37248"><ele>196.0</ele><time>2026-04-25T10:09:56.854Z</time></trkpt><trkpt lat="40.6033583" lon="15.37219"><ele>200.0</ele><time>2026-04-25T10:09:57.854Z</time></trkpt><trkpt lat="40.6031967" lon="15.3719033"><ele>204.0</ele><time>2026-04-25T10:09:58.853Z</time></trkpt><trkpt lat="40.6030333" lon="15.37162"><ele>204.5</ele><time>2026-04-25T10:09:59.854Z</time></trkpt><trkpt lat="40.60287" lon="15.37134"><ele>205.0</ele><time>2026-04-25T10:10:00.854Z</time></trkpt><trkpt lat="40.602705" lon="15.37106"><ele>205.0</ele><time>2026-04-25T10:10:01.853Z</time></trkpt><trkpt lat="40.6025383" lon="15.37078"><ele>205.0</ele><time>2026-04-25T10:10:02.853Z</time></trkpt><trkpt lat="40.6023767" lon="15.3704983"><ele>206.5</ele><time>2026-04-25T10:10:03.853Z</time></trkpt><trkpt lat="40.60221" lon="15.370215"><ele>208.0</ele><time>2026-04-25T10:10:04.853Z</time></trkpt><trkpt lat="40.6020417" lon="15.36993"><ele>207.0</ele><time>2026-04-25T10:10:05.853Z</time></trkpt><trkpt lat="40.6018683" lon="15.3696433"><ele>206.0</ele><time>2026-04-25T10:10:06.853Z</time></trkpt><trkpt lat="40.6017067" lon="15.3693533"><ele>206.0</ele><time>2026-04-25T10:10:07.854Z</time></trkpt><trkpt lat="40.6015433" lon="15.3690717"><ele>206.0</ele><time>2026-04-25T10:10:08.854Z</time></trkpt><trkpt lat="40.6013733" lon="15.3687933"><ele>207.5</ele><time>2026-04-25T10:10:09.854Z</time></trkpt><trkpt lat="40.6012067" lon="15.3685067"><ele>209.0</ele><time>2026-04-25T10:10:10.854Z</time></trkpt><trkpt lat="40.60104" lon="15.36822"><ele>199.0</ele><time>2026-04-25T10:10:11.854Z</time></trkpt><trkpt lat="40.60088" lon="15.367925"><ele>189.0</ele><time>2026-04-25T10:10:12.854Z</time></trkpt><trkpt lat="40.6007167" lon="15.3676317"><ele>189.0</ele><time>2026-04-25T10:10:13.853Z</time></trkpt><trkpt lat="40.6005583" lon="15.3673283"><ele>189.0</ele><time>2026-04-25T10:10:14.853Z</time></trkpt><trkpt lat="40.6004033" lon="15.3670167"><ele>190.5</ele><time>2026-04-25T10:10:15.853Z</time></trkpt><trkpt lat="40.6002533" lon="15.3667033"><ele>192.0</ele><time>2026-04-25T10:10:16.853Z</time></trkpt><trkpt lat="40.600115" lon="15.3663867"><ele>194.5</ele><time>2026-04-25T10:10:17.854Z</time></trkpt><trkpt lat="40.5999817" lon="15.3660633"><ele>197.0</ele><time>2026-04-25T10:10:18.853Z</time></trkpt><trkpt lat="40.5998517" lon="15.3657383"><ele>199.0</ele><time>2026-04-25T10:10:19.853Z</time></trkpt><trkpt lat="40.599725" lon="15.3654133"><ele>201.0</ele><time>2026-04-25T10:10:20.853Z</time></trkpt><trkpt lat="40.5996" lon="15.365085"><ele>196.0</ele><time>2026-04-25T10:10:21.854Z</time></trkpt><trkpt lat="40.5994817" lon="15.3647583"><ele>191.0</ele><time>2026-04-25T10:10:22.853Z</time></trkpt><trkpt lat="40.5993733" lon="15.3644217"><ele>191.0</ele><time>2026-04-25T10:10:23.854Z</time></trkpt><trkpt lat="40.5992683" lon="15.3640833"><ele>191.0</ele><time>2026-04-25T10:10:24.853Z</time></trkpt><trkpt lat="40.599175" lon="15.3637383"><ele>192.0</ele><time>2026-04-25T10:10:25.853Z</time></trkpt><trkpt lat="40.59908" lon="15.3633933"><ele>193.0</ele><time>2026-04-25T10:10:26.853Z</time></trkpt><trkpt lat="40.598995" lon="15.3630517"><ele>195.0</ele><time>2026-04-25T10:10:27.853Z</time></trkpt><trkpt lat="40.59892" lon="15.3627083"><ele>197.0</ele><time>2026-04-25T10:10:28.853Z</time></trkpt><trkpt lat="40.5988433" lon="15.3623633"><ele>197.0</ele><time>2026-04-25T10:10:29.853Z</time></trkpt><trkpt lat="40.5987717" lon="15.3620167"><ele>197.0</ele><time>2026-04-25T10:10:30.853Z</time></trkpt><trkpt lat="40.5987067" lon="15.3616683"><ele>188.5</ele><time>2026-04-25T10:10:31.854Z</time></trkpt><trkpt lat="40.5986467" lon="15.36132"><ele>180.0</ele><time>2026-04-25T10:10:32.854Z</time></trkpt><trkpt lat="40.5985967" lon="15.3609733"><ele>180.0</ele><time>2026-04-25T10:10:33.853Z</time></trkpt><trkpt lat="40.598545" lon="15.36063"><ele>180.0</ele><time>2026-04-25T10:10:34.853Z</time></trkpt><trkpt lat="40.598505" lon="15.3602833"><ele>179.5</ele><time>2026-04-25T10:10:35.854Z</time></trkpt><trkpt lat="40.598465" lon="15.3599383"><ele>179.0</ele><time>2026-04-25T10:10:36.853Z</time></trkpt><trkpt lat="40.5984333" lon="15.3595933"><ele>178.5</ele><time>2026-04-25T10:10:37.854Z</time></trkpt><trkpt lat="40.59841" lon="15.3592417"><ele>178.0</ele><time>2026-04-25T10:10:38.853Z</time></trkpt><trkpt lat="40.5983867" lon="15.3588917"><ele>178.5</ele><time>2026-04-25T10:10:39.854Z</time></trkpt><trkpt lat="40.59837" lon="15.3585367"><ele>179.0</ele><time>2026-04-25T10:10:40.854Z</time></trkpt><trkpt lat="40.5983567" lon="15.35818"><ele>177.5</ele><time>2026-04-25T10:10:41.853Z</time></trkpt><trkpt lat="40.5983483" lon="15.357825"><ele>176.0</ele><time>2026-04-25T10:10:42.853Z</time></trkpt><trkpt lat="40.598335" lon="15.3574683"><ele>176.0</ele><time>2026-04-25T10:10:43.853Z</time></trkpt><trkpt lat="40.5983167" lon="15.3571133"><ele>176.0</ele><time>2026-04-25T10:10:44.854Z</time></trkpt><trkpt lat="40.598285" lon="15.356755"><ele>176.0</ele><time>2026-04-25T10:10:45.854Z</time></trkpt><trkpt lat="40.5982483" lon="15.3563933"><ele>176.0</ele><time>2026-04-25T10:10:46.854Z</time></trkpt><trkpt lat="40.5982033" lon="15.356035"><ele>177.5</ele><time>2026-04-25T10:10:47.854Z</time></trkpt><trkpt lat="40.5981533" lon="15.3556817"><ele>179.0</ele><time>2026-04-25T10:10:48.853Z</time></trkpt><trkpt lat="40.5980883" lon="15.355335"><ele>179.5</ele><time>2026-04-25T10:10:49.854Z</time></trkpt><trkpt lat="40.5980167" lon="15.3549917"><ele>180.0</ele><time>2026-04-25T10:10:50.854Z</time></trkpt><trkpt lat="40.5979333" lon="15.3546583"><ele>180.0</ele><time>2026-04-25T10:10:51.854Z</time></trkpt><trkpt lat="40.5978367" lon="15.35433"><ele>180.0</ele><time>2026-04-25T10:10:52.854Z</time></trkpt><trkpt lat="40.59773" lon="15.35401"><ele>170.5</ele><time>2026-04-25T10:10:53.853Z</time></trkpt><trkpt lat="40.5976133" lon="15.3536933"><ele>161.0</ele><time>2026-04-25T10:10:54.853Z</time></trkpt><trkpt lat="40.59749" lon="15.35338"><ele>161.0</ele><time>2026-04-25T10:10:55.854Z</time></trkpt><trkpt lat="40.59736" lon="15.35307"><ele>161.0</ele><time>2026-04-25T10:10:56.854Z</time></trkpt><trkpt lat="40.5972183" lon="15.3527683"><ele>161.0</ele><time>2026-04-25T10:10:57.854Z</time></trkpt><trkpt lat="40.5970733" lon="15.352475"><ele>161.0</ele><time>2026-04-25T10:10:58.853Z</time></trkpt><trkpt lat="40.5969167" lon="15.3521917"><ele>157.0</ele><time>2026-04-25T10:10:59.854Z</time></trkpt><trkpt lat="40.5967633" lon="15.35191"><ele>153.0</ele><time>2026-04-25T10:11:00.854Z</time></trkpt><trkpt lat="40.5966133" lon="15.35162"><ele>152.5</ele><time>2026-04-25T10:11:01.854Z</time></trkpt><trkpt lat="40.5964667" lon="15.3513283"><ele>152.0</ele><time>2026-04-25T10:11:02.853Z</time></trkpt><trkpt lat="40.5963283" lon="15.3510283"><ele>152.0</ele><time>2026-04-25T10:11:03.854Z</time></trkpt><trkpt lat="40.5962" lon="15.3507233"><ele>152.0</ele><time>2026-04-25T10:11:04.853Z</time></trkpt><trkpt lat="40.59608" lon="15.3504083"><ele>151.5</ele><time>2026-04-25T10:11:05.854Z</time></trkpt><trkpt lat="40.5959733" lon="15.350085"><ele>151.0</ele><time>2026-04-25T10:11:06.854Z</time></trkpt><trkpt lat="40.5958733" lon="15.34976"><ele>154.0</ele><time>2026-04-25T10:11:07.854Z</time></trkpt><trkpt lat="40.59579" lon="15.34943"><ele>157.0</ele><time>2026-04-25T10:11:08.853Z</time></trkpt><trkpt lat="40.59572" lon="15.34909"><ele>159.5</ele><time>2026-04-25T10:11:09.853Z</time></trkpt><trkpt lat="40.595665" lon="15.3487533"><ele>162.0</ele><time>2026-04-25T10:11:10.853Z</time></trkpt><trkpt lat="40.595625" lon="15.34841"><ele>162.0</ele><time>2026-04-25T10:11:11.853Z</time></trkpt><trkpt lat="40.5955933" lon="15.3480667"><ele>162.0</ele><time>2026-04-25T10:11:12.854Z</time></trkpt><trkpt lat="40.5955733" lon="15.3477233"><ele>161.5</ele><time>2026-04-25T10:11:13.853Z</time></trkpt><trkpt lat="40.595565" lon="15.347375"><ele>161.0</ele><time>2026-04-25T10:11:14.854Z</time></trkpt><trkpt lat="40.595575" lon="15.3470233"><ele>161.0</ele><time>2026-04-25T10:11:15.854Z</time></trkpt><trkpt lat="40.595585" lon="15.3466683"><ele>161.0</ele><time>2026-04-25T10:11:16.854Z</time></trkpt><trkpt lat="40.5956017" lon="15.3463117"><ele>163.0</ele><time>2026-04-25T10:11:17.853Z</time></trkpt><trkpt lat="40.5956133" lon="15.3459517"><ele>165.0</ele><time>2026-04-25T10:11:18.854Z</time></trkpt><trkpt lat="40.5956217" lon="15.3456033"><ele>164.5</ele><time>2026-04-25T10:11:19.853Z</time></trkpt><trkpt lat="40.5956283" lon="15.3452567"><ele>164.0</ele><time>2026-04-25T10:11:20.853Z</time></trkpt><trkpt lat="40.5956383" lon="15.3449033"><ele>162.5</ele><time>2026-04-25T10:11:21.854Z</time></trkpt><trkpt lat="40.5956433" lon="15.344555"><ele>161.0</ele><time>2026-04-25T10:11:22.854Z</time></trkpt><trkpt lat="40.59565" lon="15.344215"><ele>161.5</ele><time>2026-04-25T10:11:23.854Z</time></trkpt><trkpt lat="40.5956617" lon="15.3438717"><ele>162.0</ele><time>2026-04-25T10:11:24.853Z</time></trkpt><trkpt lat="40.5956733" lon="15.343525"><ele>162.0</ele><time>2026-04-25T10:11:25.853Z</time></trkpt><trkpt lat="40.5956867" lon="15.34318"><ele>162.0</ele><time>2026-04-25T10:11:26.854Z</time></trkpt><trkpt lat="40.595695" lon="15.34284"><ele>161.5</ele><time>2026-04-25T10:11:27.854Z</time></trkpt><trkpt lat="40.5957033" lon="15.342495"><ele>161.0</ele><time>2026-04-25T10:11:28.853Z</time></trkpt><trkpt lat="40.59571" lon="15.34216"><ele>159.0</ele><time>2026-04-25T10:11:29.854Z</time></trkpt><trkpt lat="40.59573" lon="15.3418283"><ele>157.0</ele><time>2026-04-25T10:11:30.854Z</time></trkpt><trkpt lat="40.5957567" lon="15.3414867"><ele>154.5</ele><time>2026-04-25T10:11:31.854Z</time></trkpt><trkpt lat="40.595815" lon="15.3411483"><ele>152.0</ele><time>2026-04-25T10:11:32.854Z</time></trkpt><trkpt lat="40.5958767" lon="15.3408167"><ele>149.5</ele><time>2026-04-25T10:11:33.854Z</time></trkpt><trkpt lat="40.5959517" lon="15.340485"><ele>147.0</ele><time>2026-04-25T10:11:34.853Z</time></trkpt><trkpt lat="40.5960367" lon="15.340165"><ele>147.0</ele><time>2026-04-25T10:11:35.853Z</time></trkpt><trkpt lat="40.5961233" lon="15.3398383"><ele>147.0</ele><time>2026-04-25T10:11:36.854Z</time></trkpt><trkpt lat="40.596225" lon="15.33951"><ele>147.0</ele><time>2026-04-25T10:11:37.853Z</time></trkpt><trkpt lat="40.596335" lon="15.33919"><ele>147.0</ele><time>2026-04-25T10:11:38.853Z</time></trkpt><trkpt lat="40.596465" lon="15.3388767"><ele>147.0</ele><time>2026-04-25T10:11:39.854Z</time></trkpt><trkpt lat="40.5966017" lon="15.33858"><ele>147.0</ele><time>2026-04-25T10:11:40.853Z</time></trkpt><trkpt lat="40.59675" lon="15.3382867"><ele>149.5</ele><time>2026-04-25T10:11:41.853Z</time></trkpt><trkpt lat="40.5969133" lon="15.3380033"><ele>152.0</ele><time>2026-04-25T10:11:42.853Z</time></trkpt><trkpt lat="40.5970983" lon="15.3377267"><ele>152.0</ele><time>2026-04-25T10:11:43.852Z</time></trkpt><trkpt lat="40.5972867" lon="15.337455"><ele>152.0</ele><time>2026-04-25T10:11:44.853Z</time></trkpt><trkpt lat="40.5974733" lon="15.337185"><ele>153.0</ele><time>2026-04-25T10:11:45.853Z</time></trkpt><trkpt lat="40.5976583" lon="15.33691"><ele>154.0</ele><time>2026-04-25T10:11:46.852Z</time></trkpt><trkpt lat="40.59784" lon="15.3366467"><ele>150.5</ele><time>2026-04-25T10:11:47.852Z</time></trkpt><trkpt lat="40.5980133" lon="15.3363783"><ele>147.0</ele><time>2026-04-25T10:11:48.852Z</time></trkpt><trkpt lat="40.5981933" lon="15.3361183"><ele>147.0</ele><time>2026-04-25T10:11:49.853Z</time></trkpt><trkpt lat="40.5983683" lon="15.3358583"><ele>147.0</ele><time>2026-04-25T10:11:50.852Z</time></trkpt><trkpt lat="40.5985433" lon="15.3356067"><ele>150.0</ele><time>2026-04-25T10:11:51.853Z</time></trkpt><trkpt lat="40.5987217" lon="15.3353483"><ele>153.0</ele><time>2026-04-25T10:11:52.853Z</time></trkpt><trkpt lat="40.598895" lon="15.3350867"><ele>153.0</ele><time>2026-04-25T10:11:53.852Z</time></trkpt><trkpt lat="40.5990767" lon="15.3348233"><ele>153.0</ele><time>2026-04-25T10:11:54.852Z</time></trkpt><trkpt lat="40.59926" lon="15.334555"><ele>154.0</ele><time>2026-04-25T10:11:55.852Z</time></trkpt><trkpt lat="40.5994483" lon="15.3342833"><ele>155.0</ele><time>2026-04-25T10:11:56.853Z</time></trkpt><trkpt lat="40.5996267" lon="15.33401"><ele>148.5</ele><time>2026-04-25T10:11:57.852Z</time></trkpt><trkpt lat="40.5998033" lon="15.3337483"><ele>142.0</ele><time>2026-04-25T10:11:58.852Z</time></trkpt><trkpt lat="40.5999833" lon="15.3334817"><ele>142.0</ele><time>2026-04-25T10:11:59.853Z</time></trkpt><trkpt lat="40.6001533" lon="15.333225"><ele>142.0</ele><time>2026-04-25T10:12:00.852Z</time></trkpt><trkpt lat="40.6003317" lon="15.332965"><ele>145.0</ele><time>2026-04-25T10:12:01.853Z</time></trkpt><trkpt lat="40.6005083" lon="15.3327033"><ele>148.0</ele><time>2026-04-25T10:12:02.853Z</time></trkpt><trkpt lat="40.6006883" lon="15.332435"><ele>143.0</ele><time>2026-04-25T10:12:03.852Z</time></trkpt><trkpt lat="40.6008683" lon="15.3321717"><ele>138.0</ele><time>2026-04-25T10:12:04.853Z</time></trkpt><trkpt lat="40.6010483" lon="15.3319"><ele>140.5</ele><time>2026-04-25T10:12:05.853Z</time></trkpt><trkpt lat="40.601225" lon="15.3316333"><ele>143.0</ele><time>2026-04-25T10:12:06.853Z</time></trkpt><trkpt lat="40.6013983" lon="15.3313617"><ele>143.0</ele><time>2026-04-25T10:12:07.853Z</time></trkpt><trkpt lat="40.60156" lon="15.3310867"><ele>143.0</ele><time>2026-04-25T10:12:08.852Z</time></trkpt><trkpt lat="40.6017117" lon="15.3308067"><ele>139.0</ele><time>2026-04-25T10:12:09.853Z</time></trkpt><trkpt lat="40.6018517" lon="15.3305067"><ele>135.0</ele><time>2026-04-25T10:12:10.852Z</time></trkpt><trkpt lat="40.60197" lon="15.3302"><ele>140.5</ele><time>2026-04-25T10:12:11.853Z</time></trkpt><trkpt lat="40.6020733" lon="15.32988"><ele>146.0</ele><time>2026-04-25T10:12:12.852Z</time></trkpt><trkpt lat="40.602165" lon="15.3295567"><ele>146.0</ele><time>2026-04-25T10:12:13.853Z</time></trkpt><trkpt lat="40.602245" lon="15.3292133"><ele>146.0</ele><time>2026-04-25T10:12:14.852Z</time></trkpt><trkpt lat="40.6023133" lon="15.3288733"><ele>145.5</ele><time>2026-04-25T10:12:15.853Z</time></trkpt><trkpt lat="40.6023667" lon="15.3285283"><ele>145.0</ele><time>2026-04-25T10:12:16.853Z</time></trkpt><trkpt lat="40.6024067" lon="15.32818"><ele>145.5</ele><time>2026-04-25T10:12:17.853Z</time></trkpt><trkpt lat="40.6024383" lon="15.3278333"><ele>146.0</ele><time>2026-04-25T10:12:18.852Z</time></trkpt><trkpt lat="40.6024633" lon="15.3274817"><ele>144.5</ele><time>2026-04-25T10:12:19.852Z</time></trkpt><trkpt lat="40.602485" lon="15.3271283"><ele>143.0</ele><time>2026-04-25T10:12:20.852Z</time></trkpt><trkpt lat="40.6025083" lon="15.32677"><ele>143.0</ele><time>2026-04-25T10:12:21.853Z</time></trkpt><trkpt lat="40.60254" lon="15.326415"><ele>143.0</ele><time>2026-04-25T10:12:22.853Z</time></trkpt><trkpt lat="40.6025833" lon="15.3260617"><ele>143.0</ele><time>2026-04-25T10:12:23.853Z</time></trkpt><trkpt lat="40.6026383" lon="15.3257183"><ele>143.0</ele><time>2026-04-25T10:12:24.853Z</time></trkpt><trkpt lat="40.6027133" lon="15.325385"><ele>142.0</ele><time>2026-04-25T10:12:25.852Z</time></trkpt><trkpt lat="40.6027967" lon="15.325065"><ele>141.0</ele><time>2026-04-25T10:12:26.852Z</time></trkpt><trkpt lat="40.6028917" lon="15.3247517"><ele>142.0</ele><time>2026-04-25T10:12:27.852Z</time></trkpt><trkpt lat="40.6030033" lon="15.3244467"><ele>143.0</ele><time>2026-04-25T10:12:28.852Z</time></trkpt><trkpt lat="40.60313" lon="15.3241483"><ele>140.5</ele><time>2026-04-25T10:12:29.853Z</time></trkpt><trkpt lat="40.6032717" lon="15.323855"><ele>138.0</ele><time>2026-04-25T10:12:30.852Z</time></trkpt><trkpt lat="40.603425" lon="15.323575"><ele>138.0</ele><time>2026-04-25T10:12:31.852Z</time></trkpt><trkpt lat="40.603585" lon="15.32329"><ele>138.0</ele><time>2026-04-25T10:12:32.853Z</time></trkpt><trkpt lat="40.6037483" lon="15.3230033"><ele>141.5</ele><time>2026-04-25T10:12:33.852Z</time></trkpt><trkpt lat="40.6039133" lon="15.32272"><ele>145.0</ele><time>2026-04-25T10:12:34.853Z</time></trkpt><trkpt lat="40.604075" lon="15.322445"><ele>142.5</ele><time>2026-04-25T10:12:35.853Z</time></trkpt><trkpt lat="40.6042333" lon="15.3221683"><ele>140.0</ele><time>2026-04-25T10:12:36.853Z</time></trkpt><trkpt lat="40.6043867" lon="15.3218867"><ele>141.0</ele><time>2026-04-25T10:12:37.852Z</time></trkpt><trkpt lat="40.6045383" lon="15.3216017"><ele>142.0</ele><time>2026-04-25T10:12:38.852Z</time></trkpt><trkpt lat="40.6046783" lon="15.32132"><ele>142.0</ele><time>2026-04-25T10:12:39.853Z</time></trkpt><trkpt lat="40.60481" lon="15.3210267"><ele>142.0</ele><time>2026-04-25T10:12:40.853Z</time></trkpt><trkpt lat="40.604935" lon="15.32072"><ele>141.0</ele><time>2026-04-25T10:12:41.853Z</time></trkpt><trkpt lat="40.6050467" lon="15.3204067"><ele>140.0</ele><time>2026-04-25T10:12:42.853Z</time></trkpt><trkpt lat="40.6051533" lon="15.320085"><ele>140.0</ele><time>2026-04-25T10:12:43.853Z</time></trkpt><trkpt lat="40.6052567" lon="15.3197567"><ele>140.0</ele><time>2026-04-25T10:12:44.853Z</time></trkpt><trkpt lat="40.60536" lon="15.31943"><ele>143.0</ele><time>2026-04-25T10:12:45.852Z</time></trkpt><trkpt lat="40.6054667" lon="15.3191067"><ele>146.0</ele><time>2026-04-25T10:12:46.852Z</time></trkpt><trkpt lat="40.6055783" lon="15.3187833"><ele>146.0</ele><time>2026-04-25T10:12:47.853Z</time></trkpt><trkpt lat="40.605685" lon="15.3184683"><ele>146.0</ele><time>2026-04-25T10:12:48.853Z</time></trkpt><trkpt lat="40.605795" lon="15.31815"><ele>144.5</ele><time>2026-04-25T10:12:49.852Z</time></trkpt><trkpt lat="40.6059117" lon="15.3178367"><ele>143.0</ele><time>2026-04-25T10:12:50.853Z</time></trkpt><trkpt lat="40.60603" lon="15.317525"><ele>145.5</ele><time>2026-04-25T10:12:51.853Z</time></trkpt><trkpt lat="40.6061467" lon="15.3172083"><ele>148.0</ele><time>2026-04-25T10:12:52.853Z</time></trkpt><trkpt lat="40.60627" lon="15.3168917"><ele>148.0</ele><time>2026-04-25T10:12:53.853Z</time></trkpt><trkpt lat="40.60639" lon="15.3165717"><ele>148.0</ele><time>2026-04-25T10:12:54.853Z</time></trkpt><trkpt lat="40.6065067" lon="15.3162517"><ele>145.0</ele><time>2026-04-25T10:12:55.853Z</time></trkpt><trkpt lat="40.6066267" lon="15.3159317"><ele>142.0</ele><time>2026-04-25T10:12:56.853Z</time></trkpt><trkpt lat="40.6067417" lon="15.3156133"><ele>141.0</ele><time>2026-04-25T10:12:57.853Z</time></trkpt><trkpt lat="40.6068583" lon="15.315295"><ele>140.0</ele><time>2026-04-25T10:12:58.853Z</time></trkpt><trkpt lat="40.6069783" lon="15.3149733"><ele>142.5</ele><time>2026-04-25T10:12:59.852Z</time></trkpt><trkpt lat="40.6071" lon="15.314645"><ele>145.0</ele><time>2026-04-25T10:13:00.853Z</time></trkpt><trkpt lat="40.60722" lon="15.3143217"><ele>145.0</ele><time>2026-04-25T10:13:01.853Z</time></trkpt><trkpt lat="40.60734" lon="15.3139983"><ele>145.0</ele><time>2026-04-25T10:13:02.852Z</time></trkpt><trkpt lat="40.6074617" lon="15.3136767"><ele>142.5</ele><time>2026-04-25T10:13:03.853Z</time></trkpt><trkpt lat="40.607585" lon="15.3133567"><ele>140.0</ele><time>2026-04-25T10:13:04.853Z</time></trkpt><trkpt lat="40.6077017" lon="15.3130383"><ele>139.5</ele><time>2026-04-25T10:13:05.853Z</time></trkpt><trkpt lat="40.6078217" lon="15.312715"><ele>139.0</ele><time>2026-04-25T10:13:06.852Z</time></trkpt><trkpt lat="40.6079383" lon="15.3123917"><ele>140.5</ele><time>2026-04-25T10:13:07.852Z</time></trkpt><trkpt lat="40.6080567" lon="15.31207"><ele>142.0</ele><time>2026-04-25T10:13:08.853Z</time></trkpt><trkpt lat="40.6081733" lon="15.311745"><ele>142.0</ele><time>2026-04-25T10:13:09.853Z</time></trkpt><trkpt lat="40.6082767" lon="15.3114167"><ele>142.0</ele><time>2026-04-25T10:13:10.852Z</time></trkpt><trkpt lat="40.60838" lon="15.311085"><ele>139.5</ele><time>2026-04-25T10:13:11.853Z</time></trkpt><trkpt lat="40.6084767" lon="15.31075"><ele>137.0</ele><time>2026-04-25T10:13:12.853Z</time></trkpt><trkpt lat="40.60857" lon="15.3104117"><ele>137.5</ele><time>2026-04-25T10:13:13.853Z</time></trkpt><trkpt lat="40.6086617" lon="15.3100717"><ele>138.0</ele><time>2026-04-25T10:13:14.853Z</time></trkpt><trkpt lat="40.60875" lon="15.30973"><ele>138.0</ele><time>2026-04-25T10:13:15.852Z</time></trkpt><trkpt lat="40.60884" lon="15.3093917"><ele>138.0</ele><time>2026-04-25T10:13:16.852Z</time></trkpt><trkpt lat="40.60893" lon="15.3090467"><ele>140.0</ele><time>2026-04-25T10:13:17.853Z</time></trkpt><trkpt lat="40.609025" lon="15.3087033"><ele>142.0</ele><time>2026-04-25T10:13:18.853Z</time></trkpt><trkpt lat="40.6091167" lon="15.30836"><ele>144.5</ele><time>2026-04-25T10:13:19.853Z</time></trkpt><trkpt lat="40.6092067" lon="15.30802"><ele>147.0</ele><time>2026-04-25T10:13:20.853Z</time></trkpt><trkpt lat="40.609295" lon="15.3076767"><ele>147.0</ele><time>2026-04-25T10:13:21.853Z</time></trkpt><trkpt lat="40.6093783" lon="15.307335"><ele>147.0</ele><time>2026-04-25T10:13:22.852Z</time></trkpt><trkpt lat="40.60946" lon="15.30699"><ele>151.0</ele><time>2026-04-25T10:13:23.852Z</time></trkpt><trkpt lat="40.6095383" lon="15.30665"><ele>155.0</ele><time>2026-04-25T10:13:24.852Z</time></trkpt><trkpt lat="40.6096067" lon="15.3063083"><ele>155.5</ele><time>2026-04-25T10:13:25.852Z</time></trkpt><trkpt lat="40.6096683" lon="15.30597"><ele>156.0</ele><time>2026-04-25T10:13:26.853Z</time></trkpt><trkpt lat="40.6097283" lon="15.3056367"><ele>159.5</ele><time>2026-04-25T10:13:27.852Z</time></trkpt><trkpt lat="40.6097867" lon="15.305295"><ele>163.0</ele><time>2026-04-25T10:13:28.852Z</time></trkpt><trkpt lat="40.6098333" lon="15.30496"><ele>166.0</ele><time>2026-04-25T10:13:29.852Z</time></trkpt><trkpt lat="40.609875" lon="15.304635"><ele>169.0</ele><time>2026-04-25T10:13:30.853Z</time></trkpt><trkpt lat="40.60991" lon="15.3043083"><ele>169.0</ele><time>2026-04-25T10:13:31.853Z</time></trkpt><trkpt lat="40.609935" lon="15.30398"><ele>169.0</ele><time>2026-04-25T10:13:32.853Z</time></trkpt><trkpt lat="40.6099583" lon="15.303665"><ele>169.0</ele><time>2026-04-25T10:13:33.853Z</time></trkpt><trkpt lat="40.6099733" lon="15.30335"><ele>169.0</ele><time>2026-04-25T10:13:34.853Z</time></trkpt><trkpt lat="40.6099767" lon="15.303035"><ele>168.5</ele><time>2026-04-25T10:13:35.852Z</time></trkpt><trkpt lat="40.6099783" lon="15.302705"><ele>168.0</ele><time>2026-04-25T10:13:36.852Z</time></trkpt><trkpt lat="40.6099783" lon="15.3023667"><ele>168.5</ele><time>2026-04-25T10:13:37.852Z</time></trkpt><trkpt lat="40.60997" lon="15.3020267"><ele>169.0</ele><time>2026-04-25T10:13:38.853Z</time></trkpt><trkpt lat="40.609965" lon="15.3016783"><ele>170.0</ele><time>2026-04-25T10:13:39.852Z</time></trkpt><trkpt lat="40.609955" lon="15.3013317"><ele>171.0</ele><time>2026-04-25T10:13:40.853Z</time></trkpt><trkpt lat="40.609945" lon="15.300985"><ele>171.0</ele><time>2026-04-25T10:13:41.853Z</time></trkpt><trkpt lat="40.60994" lon="15.3006333"><ele>171.0</ele><time>2026-04-25T10:13:42.852Z</time></trkpt><trkpt lat="40.6099383" lon="15.300285"><ele>173.5</ele><time>2026-04-25T10:13:43.852Z</time></trkpt><trkpt lat="40.6099517" lon="15.2999417"><ele>176.0</ele><time>2026-04-25T10:13:44.852Z</time></trkpt><trkpt lat="40.609985" lon="15.2995983"><ele>176.5</ele><time>2026-04-25T10:13:45.853Z</time></trkpt><trkpt lat="40.6100333" lon="15.299265"><ele>177.0</ele><time>2026-04-25T10:13:46.853Z</time></trkpt><trkpt lat="40.6100933" lon="15.2989417"><ele>179.0</ele><time>2026-04-25T10:13:47.853Z</time></trkpt><trkpt lat="40.6101583" lon="15.298625"><ele>181.0</ele><time>2026-04-25T10:13:48.852Z</time></trkpt><trkpt lat="40.6102333" lon="15.2983217"><ele>180.5</ele><time>2026-04-25T10:13:49.852Z</time></trkpt><trkpt lat="40.6103133" lon="15.2980267"><ele>180.0</ele><time>2026-04-25T10:13:50.852Z</time></trkpt><trkpt lat="40.6104033" lon="15.29773"><ele>180.0</ele><time>2026-04-25T10:13:51.853Z</time></trkpt><trkpt lat="40.6104983" lon="15.2974367"><ele>180.0</ele><time>2026-04-25T10:13:52.852Z</time></trkpt><trkpt lat="40.610595" lon="15.2971483"><ele>180.0</ele><time>2026-04-25T10:13:53.852Z</time></trkpt><trkpt lat="40.6106867" lon="15.2968733"><ele>180.0</ele><time>2026-04-25T10:13:54.853Z</time></trkpt><trkpt lat="40.6107717" lon="15.296605"><ele>180.0</ele><time>2026-04-25T10:13:55.852Z</time></trkpt><trkpt lat="40.6108467" lon="15.296355"><ele>179.0</ele><time>2026-04-25T10:13:56.853Z</time></trkpt><trkpt lat="40.610915" lon="15.296115"><ele>178.0</ele><time>2026-04-25T10:13:57.853Z</time></trkpt><trkpt lat="40.6109767" lon="15.2958833"><ele>177.0</ele><time>2026-04-25T10:13:58.852Z</time></trkpt><trkpt lat="40.6110333" lon="15.2956667"><ele>176.0</ele><time>2026-04-25T10:13:59.852Z</time></trkpt><trkpt lat="40.6110683" lon="15.2954567"><ele>175.0</ele><time>2026-04-25T10:14:00.852Z</time></trkpt><trkpt lat="40.61108" lon="15.2952567"><ele>174.0</ele><time>2026-04-25T10:14:01.852Z</time></trkpt><trkpt lat="40.6110583" lon="15.295065"><ele>174.0</ele><time>2026-04-25T10:14:02.852Z</time></trkpt><trkpt lat="40.6110217" lon="15.29487"><ele>174.0</ele><time>2026-04-25T10:14:03.853Z</time></trkpt><trkpt lat="40.6109717" lon="15.29469"><ele>174.0</ele><time>2026-04-25T10:14:04.853Z</time></trkpt><trkpt lat="40.6109133" lon="15.2945117"><ele>174.0</ele><time>2026-04-25T10:14:05.852Z</time></trkpt><trkpt lat="40.610855" lon="15.2943317"><ele>173.66666666666666</ele><time>2026-04-25T10:14:06.853Z</time></trkpt><trkpt lat="40.6107967" lon="15.294155"><ele>173.33333333333331</ele><time>2026-04-25T10:14:07.853Z</time></trkpt><trkpt lat="40.610735" lon="15.2939767"><ele>173.0</ele><time>2026-04-25T10:14:08.853Z</time></trkpt><trkpt lat="40.6106717" lon="15.29379"><ele>171.66666666666666</ele><time>2026-04-25T10:14:09.852Z</time></trkpt><trkpt lat="40.61061" lon="15.2935933"><ele>170.33333333333334</ele><time>2026-04-25T10:14:10.853Z</time></trkpt><trkpt lat="40.610545" lon="15.2933933"><ele>169.0</ele><time>2026-04-25T10:14:11.852Z</time></trkpt><trkpt lat="40.6104767" lon="15.2931833"><ele>170.0</ele><time>2026-04-25T10:14:12.852Z</time></trkpt><trkpt lat="40.6104067" lon="15.2929533"><ele>171.0</ele><time>2026-04-25T10:14:13.852Z</time></trkpt><trkpt lat="40.610345" lon="15.2927133"><ele>172.0</ele><time>2026-04-25T10:14:14.853Z</time></trkpt><trkpt lat="40.610285" lon="15.2924683"><ele>171.66666666666669</ele><time>2026-04-25T10:14:15.853Z</time></trkpt><trkpt lat="40.6102383" lon="15.29221"><ele>171.33333333333334</ele><time>2026-04-25T10:14:16.852Z</time></trkpt><trkpt lat="40.6102033" lon="15.2919333"><ele>171.0</ele><time>2026-04-25T10:14:17.852Z</time></trkpt><trkpt lat="40.61017" lon="15.2916383"><ele>170.0</ele><time>2026-04-25T10:14:18.853Z</time></trkpt><trkpt lat="40.6101533" lon="15.2913267"><ele>169.0</ele><time>2026-04-25T10:14:19.853Z</time></trkpt><trkpt lat="40.61014" lon="15.291"><ele>169.0</ele><time>2026-04-25T10:14:20.853Z</time></trkpt><trkpt lat="40.6101383" lon="15.2906617"><ele>169.0</ele><time>2026-04-25T10:14:21.852Z</time></trkpt><trkpt lat="40.6101467" lon="15.2903183"><ele>168.0</ele><time>2026-04-25T10:14:22.852Z</time></trkpt><trkpt lat="40.6101583" lon="15.2899717"><ele>167.0</ele><time>2026-04-25T10:14:23.853Z</time></trkpt><trkpt lat="40.610175" lon="15.289615"><ele>165.5</ele><time>2026-04-25T10:14:24.853Z</time></trkpt><trkpt lat="40.6101883" lon="15.2892533"><ele>164.0</ele><time>2026-04-25T10:14:25.853Z</time></trkpt><trkpt lat="40.61021" lon="15.288895"><ele>163.0</ele><time>2026-04-25T10:14:26.852Z</time></trkpt><trkpt lat="40.6102417" lon="15.2885383"><ele>162.0</ele><time>2026-04-25T10:14:27.852Z</time></trkpt><trkpt lat="40.6102867" lon="15.2881883"><ele>154.5</ele><time>2026-04-25T10:14:28.852Z</time></trkpt><trkpt lat="40.6103383" lon="15.2878333"><ele>147.0</ele><time>2026-04-25T10:14:29.853Z</time></trkpt><trkpt lat="40.6104" lon="15.2874883"><ele>148.0</ele><time>2026-04-25T10:14:30.852Z</time></trkpt><trkpt lat="40.6104733" lon="15.2871417"><ele>149.0</ele><time>2026-04-25T10:14:31.853Z</time></trkpt><trkpt lat="40.61055" lon="15.286805"><ele>149.0</ele><time>2026-04-25T10:14:32.853Z</time></trkpt><trkpt lat="40.61064" lon="15.2864683"><ele>149.0</ele><time>2026-04-25T10:14:33.853Z</time></trkpt><trkpt lat="40.61073" lon="15.2861283"><ele>146.5</ele><time>2026-04-25T10:14:34.852Z</time></trkpt><trkpt lat="40.6108317" lon="15.2858"><ele>144.0</ele><time>2026-04-25T10:14:35.852Z</time></trkpt><trkpt lat="40.6109383" lon="15.2854667"><ele>143.5</ele><time>2026-04-25T10:14:36.853Z</time></trkpt><trkpt lat="40.611045" lon="15.2851317"><ele>143.0</ele><time>2026-04-25T10:14:37.853Z</time></trkpt><trkpt lat="40.6111667" lon="15.2848017"><ele>152.5</ele><time>2026-04-25T10:14:38.853Z</time></trkpt><trkpt lat="40.6113017" lon="15.2844767"><ele>162.0</ele><time>2026-04-25T10:14:39.852Z</time></trkpt><trkpt lat="40.61145" lon="15.2841483"><ele>161.5</ele><time>2026-04-25T10:14:40.852Z</time></trkpt><trkpt lat="40.6116067" lon="15.2838233"><ele>161.0</ele><time>2026-04-25T10:14:41.852Z</time></trkpt><trkpt lat="40.611765" lon="15.2834967"><ele>161.0</ele><time>2026-04-25T10:14:42.853Z</time></trkpt><trkpt lat="40.6119267" lon="15.2831683"><ele>161.0</ele><time>2026-04-25T10:14:43.852Z</time></trkpt><trkpt lat="40.612085" lon="15.2828417"><ele>162.0</ele><time>2026-04-25T10:14:44.852Z</time></trkpt><trkpt lat="40.612245" lon="15.2825117"><ele>163.0</ele><time>2026-04-25T10:14:45.852Z</time></trkpt><trkpt lat="40.612405" lon="15.2821817"><ele>163.0</ele><time>2026-04-25T10:14:46.853Z</time></trkpt><trkpt lat="40.6125633" lon="15.2818533"><ele>163.0</ele><time>2026-04-25T10:14:47.852Z</time></trkpt><trkpt lat="40.61271" lon="15.2815167"><ele>166.0</ele><time>2026-04-25T10:14:48.852Z</time></trkpt><trkpt lat="40.6128583" lon="15.28118"><ele>169.0</ele><time>2026-04-25T10:14:49.852Z</time></trkpt><trkpt lat="40.613005" lon="15.28084"><ele>168.0</ele><time>2026-04-25T10:14:50.852Z</time></trkpt><trkpt lat="40.6131533" lon="15.2805017"><ele>167.0</ele><time>2026-04-25T10:14:51.853Z</time></trkpt><trkpt lat="40.6133017" lon="15.2801517"><ele>167.0</ele><time>2026-04-25T10:14:52.852Z</time></trkpt><trkpt lat="40.6134417" lon="15.27979"><ele>167.0</ele><time>2026-04-25T10:14:53.852Z</time></trkpt><trkpt lat="40.6135767" lon="15.27943"><ele>168.5</ele><time>2026-04-25T10:14:54.852Z</time></trkpt><trkpt lat="40.613705" lon="15.2790583"><ele>170.0</ele><time>2026-04-25T10:14:55.852Z</time></trkpt><trkpt lat="40.61382" lon="15.2786917"><ele>170.0</ele><time>2026-04-25T10:14:56.852Z</time></trkpt><trkpt lat="40.6139283" lon="15.2783167"><ele>170.0</ele><time>2026-04-25T10:14:57.852Z</time></trkpt><trkpt lat="40.6140267" lon="15.2779383"><ele>168.0</ele><time>2026-04-25T10:14:58.853Z</time></trkpt><trkpt lat="40.614125" lon="15.277555"><ele>166.0</ele><time>2026-04-25T10:14:59.852Z</time></trkpt><trkpt lat="40.61421" lon="15.2771717"><ele>165.5</ele><time>2026-04-25T10:15:00.853Z</time></trkpt><trkpt lat="40.614295" lon="15.2767867"><ele>165.0</ele><time>2026-04-25T10:15:01.853Z</time></trkpt><trkpt lat="40.6143667" lon="15.2764017"><ele>166.0</ele><time>2026-04-25T10:15:02.853Z</time></trkpt><trkpt lat="40.6144317" lon="15.2760033"><ele>167.0</ele><time>2026-04-25T10:15:03.852Z</time></trkpt><trkpt lat="40.61449" lon="15.2756133"><ele>164.5</ele><time>2026-04-25T10:15:04.853Z</time></trkpt><trkpt lat="40.614535" lon="15.27522"><ele>162.0</ele><time>2026-04-25T10:15:05.852Z</time></trkpt><trkpt lat="40.6145783" lon="15.2748233"><ele>159.0</ele><time>2026-04-25T10:15:06.852Z</time></trkpt><trkpt lat="40.6146217" lon="15.2744233"><ele>156.0</ele><time>2026-04-25T10:15:07.852Z</time></trkpt><trkpt lat="40.6146533" lon="15.274025"><ele>153.0</ele><time>2026-04-25T10:15:08.853Z</time></trkpt><trkpt lat="40.61468" lon="15.2736233"><ele>150.0</ele><time>2026-04-25T10:15:09.853Z</time></trkpt><trkpt lat="40.6146933" lon="15.273225"><ele>150.5</ele><time>2026-04-25T10:15:10.853Z</time></trkpt><trkpt lat="40.6146967" lon="15.2728283"><ele>151.0</ele><time>2026-04-25T10:15:11.852Z</time></trkpt><trkpt lat="40.6146867" lon="15.2724317"><ele>151.5</ele><time>2026-04-25T10:15:12.853Z</time></trkpt><trkpt lat="40.6146733" lon="15.2720367"><ele>152.0</ele><time>2026-04-25T10:15:13.853Z</time></trkpt><trkpt lat="40.6146483" lon="15.2716317"><ele>155.5</ele><time>2026-04-25T10:15:14.853Z</time></trkpt><trkpt lat="40.6146167" lon="15.27123"><ele>159.0</ele><time>2026-04-25T10:15:15.853Z</time></trkpt><trkpt lat="40.6145833" lon="15.27082"><ele>164.0</ele><time>2026-04-25T10:15:16.853Z</time></trkpt><trkpt lat="40.614545" lon="15.2704217"><ele>169.0</ele><time>2026-04-25T10:15:17.853Z</time></trkpt><trkpt lat="40.6145" lon="15.2700233"><ele>168.5</ele><time>2026-04-25T10:15:18.853Z</time></trkpt><trkpt lat="40.61446" lon="15.269625"><ele>168.0</ele><time>2026-04-25T10:15:19.853Z</time></trkpt><trkpt lat="40.6144133" lon="15.269225"><ele>166.0</ele><time>2026-04-25T10:15:20.853Z</time></trkpt><trkpt lat="40.6143667" lon="15.2688267"><ele>164.0</ele><time>2026-04-25T10:15:21.852Z</time></trkpt><trkpt lat="40.6143017" lon="15.2684417"><ele>162.5</ele><time>2026-04-25T10:15:22.853Z</time></trkpt><trkpt lat="40.6142417" lon="15.26805"><ele>161.0</ele><time>2026-04-25T10:15:23.853Z</time></trkpt><trkpt lat="40.6141917" lon="15.2676517"><ele>160.5</ele><time>2026-04-25T10:15:24.853Z</time></trkpt><trkpt lat="40.6141367" lon="15.2672583"><ele>160.0</ele><time>2026-04-25T10:15:25.853Z</time></trkpt><trkpt lat="40.61408" lon="15.2668617"><ele>160.0</ele><time>2026-04-25T10:15:26.853Z</time></trkpt><trkpt lat="40.61403" lon="15.2664617"><ele>160.0</ele><time>2026-04-25T10:15:27.853Z</time></trkpt><trkpt lat="40.6139783" lon="15.2660617"><ele>159.0</ele><time>2026-04-25T10:15:28.853Z</time></trkpt><trkpt lat="40.6139283" lon="15.265665"><ele>158.0</ele><time>2026-04-25T10:15:29.852Z</time></trkpt><trkpt lat="40.613875" lon="15.265265"><ele>158.0</ele><time>2026-04-25T10:15:30.853Z</time></trkpt><trkpt lat="40.61382" lon="15.2648617"><ele>158.0</ele><time>2026-04-25T10:15:31.852Z</time></trkpt><trkpt lat="40.613765" lon="15.2644633"><ele>154.0</ele><time>2026-04-25T10:15:32.853Z</time></trkpt><trkpt lat="40.6137083" lon="15.2640617"><ele>150.0</ele><time>2026-04-25T10:15:33.852Z</time></trkpt><trkpt lat="40.6136483" lon="15.2636617"><ele>146.5</ele><time>2026-04-25T10:15:34.852Z</time></trkpt><trkpt lat="40.6135883" lon="15.2632567"><ele>143.0</ele><time>2026-04-25T10:15:35.852Z</time></trkpt><trkpt lat="40.613535" lon="15.262855"><ele>143.0</ele><time>2026-04-25T10:15:36.853Z</time></trkpt><trkpt lat="40.6134783" lon="15.26245"><ele>143.0</ele><time>2026-04-25T10:15:37.853Z</time></trkpt><trkpt lat="40.6134267" lon="15.26205"><ele>142.0</ele><time>2026-04-25T10:15:38.853Z</time></trkpt><trkpt lat="40.6133733" lon="15.2616467"><ele>141.0</ele><time>2026-04-25T10:15:39.853Z</time></trkpt><trkpt lat="40.61332" lon="15.261255"><ele>136.5</ele><time>2026-04-25T10:15:40.853Z</time></trkpt><trkpt lat="40.613265" lon="15.2608617"><ele>132.0</ele><time>2026-04-25T10:15:41.853Z</time></trkpt><trkpt lat="40.6132033" lon="15.2604633"><ele>123.0</ele><time>2026-04-25T10:15:42.852Z</time></trkpt><trkpt lat="40.61315" lon="15.2600617"><ele>114.0</ele><time>2026-04-25T10:15:43.853Z</time></trkpt><trkpt lat="40.6130983" lon="15.259665"><ele>106.5</ele><time>2026-04-25T10:15:44.852Z</time></trkpt><trkpt lat="40.613045" lon="15.2592667"><ele>99.0</ele><time>2026-04-25T10:15:45.853Z</time></trkpt><trkpt lat="40.6129967" lon="15.25887"><ele>97.0</ele><time>2026-04-25T10:15:46.852Z</time></trkpt><trkpt lat="40.6129467" lon="15.2584767"><ele>95.0</ele><time>2026-04-25T10:15:47.852Z</time></trkpt><trkpt lat="40.6128967" lon="15.2580817"><ele>95.0</ele><time>2026-04-25T10:15:48.852Z</time></trkpt><trkpt lat="40.6128517" lon="15.2576817"><ele>95.0</ele><time>2026-04-25T10:15:49.853Z</time></trkpt><trkpt lat="40.6128117" lon="15.2572833"><ele>96.5</ele><time>2026-04-25T10:15:50.852Z</time></trkpt><trkpt lat="40.61278" lon="15.2568867"><ele>98.0</ele><time>2026-04-25T10:15:51.852Z</time></trkpt><trkpt lat="40.61276" lon="15.256485"><ele>102.0</ele><time>2026-04-25T10:15:52.852Z</time></trkpt><trkpt lat="40.61275" lon="15.256085"><ele>106.0</ele><time>2026-04-25T10:15:53.853Z</time></trkpt><trkpt lat="40.612745" lon="15.2556783"><ele>108.5</ele><time>2026-04-25T10:15:54.853Z</time></trkpt><trkpt lat="40.612745" lon="15.255275"><ele>111.0</ele><time>2026-04-25T10:15:55.853Z</time></trkpt><trkpt lat="40.612755" lon="15.25487"><ele>113.0</ele><time>2026-04-25T10:15:56.852Z</time></trkpt><trkpt lat="40.6127733" lon="15.25447"><ele>115.0</ele><time>2026-04-25T10:15:57.852Z</time></trkpt><trkpt lat="40.6127967" lon="15.2540667"><ele>107.5</ele><time>2026-04-25T10:15:58.853Z</time></trkpt><trkpt lat="40.61284" lon="15.253665"><ele>100.0</ele><time>2026-04-25T10:15:59.852Z</time></trkpt><trkpt lat="40.6128917" lon="15.2532633"><ele>102.0</ele><time>2026-04-25T10:16:00.852Z</time></trkpt><trkpt lat="40.6129533" lon="15.2528683"><ele>104.0</ele><time>2026-04-25T10:16:01.853Z</time></trkpt><trkpt lat="40.6130283" lon="15.2524783"><ele>107.0</ele><time>2026-04-25T10:16:02.853Z</time></trkpt><trkpt lat="40.6131167" lon="15.2520817"><ele>110.0</ele><time>2026-04-25T10:16:03.853Z</time></trkpt><trkpt lat="40.6132083" lon="15.251695"><ele>116.5</ele><time>2026-04-25T10:16:04.852Z</time></trkpt><trkpt lat="40.6133117" lon="15.25131"><ele>123.0</ele><time>2026-04-25T10:16:05.852Z</time></trkpt><trkpt lat="40.6134317" lon="15.2509317"><ele>122.5</ele><time>2026-04-25T10:16:06.852Z</time></trkpt><trkpt lat="40.6135583" lon="15.25055"><ele>122.0</ele><time>2026-04-25T10:16:07.853Z</time></trkpt><trkpt lat="40.6136833" lon="15.2501567"><ele>134.5</ele><time>2026-04-25T10:16:08.853Z</time></trkpt><trkpt lat="40.613805" lon="15.24976"><ele>147.0</ele><time>2026-04-25T10:16:09.852Z</time></trkpt><trkpt lat="40.6139217" lon="15.2493633"><ele>147.0</ele><time>2026-04-25T10:16:10.852Z</time></trkpt><trkpt lat="40.6140317" lon="15.2489683"><ele>147.0</ele><time>2026-04-25T10:16:11.853Z</time></trkpt><trkpt lat="40.6141417" lon="15.2485967"><ele>114.0</ele><time>2026-04-25T10:16:12.853Z</time></trkpt><trkpt lat="40.6177004" lon="15.2450445"><ele>112.5</ele><time>2026-04-25T10:16:26.035Z</time></trkpt><trkpt lat="40.6180483" lon="15.244835"><ele>111.0</ele><time>2026-04-25T10:16:27.88Z</time></trkpt><trkpt lat="40.618325" lon="15.24463"><ele>111.0</ele><time>2026-04-25T10:16:28.881Z</time></trkpt><trkpt lat="40.6186" lon="15.2444417"><ele>111.0</ele><time>2026-04-25T10:16:29.88Z</time></trkpt><trkpt lat="40.61887" lon="15.24425"><ele>112.5</ele><time>2026-04-25T10:16:30.881Z</time></trkpt><trkpt lat="40.619145" lon="15.2440633"><ele>114.0</ele><time>2026-04-25T10:16:31.881Z</time></trkpt><trkpt lat="40.6194033" lon="15.243875"><ele>118.5</ele><time>2026-04-25T10:16:32.88Z</time></trkpt><trkpt lat="40.619665" lon="15.2436833"><ele>123.0</ele><time>2026-04-25T10:16:33.881Z</time></trkpt><trkpt lat="40.61993" lon="15.2434833"><ele>123.0</ele><time>2026-04-25T10:16:34.88Z</time></trkpt><trkpt lat="40.6202" lon="15.2432733"><ele>123.0</ele><time>2026-04-25T10:16:35.88Z</time></trkpt><trkpt lat="40.62048" lon="15.2430533"><ele>129.5</ele><time>2026-04-25T10:16:36.881Z</time></trkpt><trkpt lat="40.6207633" lon="15.24283"><ele>136.0</ele><time>2026-04-25T10:16:37.881Z</time></trkpt><trkpt lat="40.6210433" lon="15.2426083"><ele>113.0</ele><time>2026-04-25T10:16:38.881Z</time></trkpt><trkpt lat="40.6267267" lon="15.237385"><ele>117.5</ele><time>2026-04-25T10:17:00.88Z</time></trkpt><trkpt lat="40.6269317" lon="15.2370717"><ele>122.0</ele><time>2026-04-25T10:17:01.88Z</time></trkpt><trkpt lat="40.6271133" lon="15.236735"><ele>114.5</ele><time>2026-04-25T10:17:02.88Z</time></trkpt><trkpt lat="40.62728" lon="15.2363983"><ele>107.0</ele><time>2026-04-25T10:17:03.881Z</time></trkpt><trkpt lat="40.6274417" lon="15.23606"><ele>107.0</ele><time>2026-04-25T10:17:04.881Z</time></trkpt><trkpt lat="40.6275833" lon="15.235715"><ele>107.0</ele><time>2026-04-25T10:17:05.881Z</time></trkpt><trkpt lat="40.6277267" lon="15.2353617"><ele>106.5</ele><time>2026-04-25T10:17:06.88Z</time></trkpt><trkpt lat="40.6278583" lon="15.2350033"><ele>106.0</ele><time>2026-04-25T10:17:07.88Z</time></trkpt><trkpt lat="40.6279783" lon="15.2346433"><ele>106.0</ele><time>2026-04-25T10:17:08.88Z</time></trkpt><trkpt lat="40.62809" lon="15.2342683"><ele>106.0</ele><time>2026-04-25T10:17:09.88Z</time></trkpt><trkpt lat="40.62819" lon="15.233895"><ele>106.0</ele><time>2026-04-25T10:17:10.88Z</time></trkpt><trkpt lat="40.6282767" lon="15.233515"><ele>106.0</ele><time>2026-04-25T10:17:11.88Z</time></trkpt><trkpt lat="40.628355" lon="15.233125"><ele>106.0</ele><time>2026-04-25T10:17:12.88Z</time></trkpt><trkpt lat="40.62843" lon="15.23273"><ele>106.0</ele><time>2026-04-25T10:17:13.88Z</time></trkpt><trkpt lat="40.6284917" lon="15.232335"><ele>106.0</ele><time>2026-04-25T10:17:14.881Z</time></trkpt><trkpt lat="40.6285383" lon="15.2319433"><ele>106.0</ele><time>2026-04-25T10:17:15.88Z</time></trkpt><trkpt lat="40.6285817" lon="15.2315433"><ele>105.0</ele><time>2026-04-25T10:17:16.88Z</time></trkpt><trkpt lat="40.62862" lon="15.231145"><ele>104.0</ele><time>2026-04-25T10:17:17.88Z</time></trkpt><trkpt lat="40.6286433" lon="15.2307383"><ele>100.5</ele><time>2026-04-25T10:17:18.881Z</time></trkpt><trkpt lat="40.62866" lon="15.230335"><ele>97.0</ele><time>2026-04-25T10:17:19.881Z</time></trkpt><trkpt lat="40.6286817" lon="15.2299333"><ele>92.5</ele><time>2026-04-25T10:17:20.881Z</time></trkpt><trkpt lat="40.628695" lon="15.2295267"><ele>88.0</ele><time>2026-04-25T10:17:21.881Z</time></trkpt><trkpt lat="40.6287117" lon="15.2291217"><ele>83.0</ele><time>2026-04-25T10:17:22.88Z</time></trkpt><trkpt lat="40.628725" lon="15.2287167"><ele>78.0</ele><time>2026-04-25T10:17:23.88Z</time></trkpt><trkpt lat="40.6287383" lon="15.2283117"><ele>76.0</ele><time>2026-04-25T10:17:24.88Z</time></trkpt><trkpt lat="40.62875" lon="15.227905"><ele>74.0</ele><time>2026-04-25T10:17:25.881Z</time></trkpt><trkpt lat="40.6287583" lon="15.227495"><ele>73.5</ele><time>2026-04-25T10:17:26.881Z</time></trkpt><trkpt lat="40.6287667" lon="15.22709"><ele>73.0</ele><time>2026-04-25T10:17:27.88Z</time></trkpt><trkpt lat="40.6287783" lon="15.226685"><ele>72.5</ele><time>2026-04-25T10:17:28.88Z</time></trkpt><trkpt lat="40.6287833" lon="15.2262783"><ele>72.0</ele><time>2026-04-25T10:17:29.88Z</time></trkpt><trkpt lat="40.6287933" lon="15.2258667"><ele>73.0</ele><time>2026-04-25T10:17:30.88Z</time></trkpt><trkpt lat="40.628805" lon="15.2254617"><ele>74.0</ele><time>2026-04-25T10:17:31.881Z</time></trkpt><trkpt lat="40.6288167" lon="15.22505"><ele>72.5</ele><time>2026-04-25T10:17:32.881Z</time></trkpt><trkpt lat="40.62883" lon="15.224645"><ele>71.0</ele><time>2026-04-25T10:17:33.881Z</time></trkpt><trkpt lat="40.6288383" lon="15.2242417"><ele>74.0</ele><time>2026-04-25T10:17:34.88Z</time></trkpt><trkpt lat="40.6288467" lon="15.2238417"><ele>77.0</ele><time>2026-04-25T10:17:35.88Z</time></trkpt><trkpt lat="40.6288583" lon="15.223445"><ele>80.0</ele><time>2026-04-25T10:17:36.88Z</time></trkpt><trkpt lat="40.628865" lon="15.2230467"><ele>83.0</ele><time>2026-04-25T10:17:37.881Z</time></trkpt><trkpt lat="40.628875" lon="15.22265"><ele>88.5</ele><time>2026-04-25T10:17:38.881Z</time></trkpt><trkpt lat="40.62888" lon="15.2222517"><ele>94.0</ele><time>2026-04-25T10:17:39.88Z</time></trkpt><trkpt lat="40.6288867" lon="15.2218483"><ele>103.0</ele><time>2026-04-25T10:17:40.881Z</time></trkpt><trkpt lat="40.6288917" lon="15.2214367"><ele>112.0</ele><time>2026-04-25T10:17:41.881Z</time></trkpt><trkpt lat="40.6289" lon="15.2210183"><ele>119.5</ele><time>2026-04-25T10:17:42.881Z</time></trkpt><trkpt lat="40.628915" lon="15.2206117"><ele>127.0</ele><time>2026-04-25T10:17:43.881Z</time></trkpt><trkpt lat="40.6289283" lon="15.2202017"><ele>132.0</ele><time>2026-04-25T10:17:44.881Z</time></trkpt><trkpt lat="40.6289383" lon="15.2198017"><ele>137.0</ele><time>2026-04-25T10:17:45.88Z</time></trkpt><trkpt lat="40.62895" lon="15.2193983"><ele>137.0</ele><time>2026-04-25T10:17:46.881Z</time></trkpt><trkpt lat="40.6289617" lon="15.218995"><ele>137.0</ele><time>2026-04-25T10:17:47.881Z</time></trkpt><trkpt lat="40.627795" lon="15.2070517"><ele>110.5</ele><time>2026-04-25T10:18:16.879Z</time></trkpt><trkpt lat="40.62771" lon="15.2066483"><ele>84.0</ele><time>2026-04-25T10:18:17.878Z</time></trkpt><trkpt lat="40.627615" lon="15.2062467"><ele>84.0</ele><time>2026-04-25T10:18:18.879Z</time></trkpt><trkpt lat="40.62753" lon="15.2058567"><ele>84.0</ele><time>2026-04-25T10:18:19.879Z</time></trkpt><trkpt lat="40.6274417" lon="15.2054783"><ele>90.5</ele><time>2026-04-25T10:18:20.879Z</time></trkpt><trkpt lat="40.6273567" lon="15.205105"><ele>97.0</ele><time>2026-04-25T10:18:21.878Z</time></trkpt><trkpt lat="40.6272667" lon="15.2047267"><ele>102.5</ele><time>2026-04-25T10:18:22.879Z</time></trkpt><trkpt lat="40.627175" lon="15.2043517"><ele>108.0</ele><time>2026-04-25T10:18:23.879Z</time></trkpt><trkpt lat="40.6270833" lon="15.2039617"><ele>110.5</ele><time>2026-04-25T10:18:24.879Z</time></trkpt><trkpt lat="40.62701" lon="15.2035867"><ele>113.0</ele><time>2026-04-25T10:18:25.878Z</time></trkpt><trkpt lat="40.6269617" lon="15.20319"><ele>105.5</ele><time>2026-04-25T10:18:26.878Z</time></trkpt><trkpt lat="40.6268617" lon="15.20285"><ele>98.0</ele><time>2026-04-25T10:18:27.879Z</time></trkpt><trkpt lat="40.62628" lon="15.1981817"><ele>89.0</ele><time>2026-04-25T10:18:38.878Z</time></trkpt><trkpt lat="40.6262717" lon="15.1978817"><ele>80.0</ele><time>2026-04-25T10:18:39.877Z</time></trkpt><trkpt lat="40.6263267" lon="15.1975433"><ele>80.0</ele><time>2026-04-25T10:18:40.878Z</time></trkpt><trkpt lat="40.6263733" lon="15.1971933"><ele>80.0</ele><time>2026-04-25T10:18:41.878Z</time></trkpt><trkpt lat="40.62641" lon="15.1968133"><ele>79.0</ele><time>2026-04-25T10:18:42.878Z</time></trkpt><trkpt lat="40.626445" lon="15.1964217"><ele>78.0</ele><time>2026-04-25T10:18:43.878Z</time></trkpt><trkpt lat="40.62649" lon="15.1960317"><ele>76.0</ele><time>2026-04-25T10:18:44.877Z</time></trkpt><trkpt lat="40.6265367" lon="15.1956417"><ele>74.0</ele><time>2026-04-25T10:18:45.878Z</time></trkpt><trkpt lat="40.6265917" lon="15.1952517"><ele>74.0</ele><time>2026-04-25T10:18:46.878Z</time></trkpt><trkpt lat="40.6266517" lon="15.1948667"><ele>74.0</ele><time>2026-04-25T10:18:47.878Z</time></trkpt><trkpt lat="40.6267133" lon="15.1944783"><ele>73.0</ele><time>2026-04-25T10:18:48.877Z</time></trkpt><trkpt lat="40.6267733" lon="15.1940883"><ele>72.0</ele><time>2026-04-25T10:18:49.878Z</time></trkpt><trkpt lat="40.6268283" lon="15.1936983"><ele>70.5</ele><time>2026-04-25T10:18:50.878Z</time></trkpt><trkpt lat="40.6268883" lon="15.19331"><ele>69.0</ele><time>2026-04-25T10:18:51.877Z</time></trkpt><trkpt lat="40.6269483" lon="15.1929233"><ele>69.5</ele><time>2026-04-25T10:18:52.877Z</time></trkpt><trkpt lat="40.6270017" lon="15.192535"><ele>70.0</ele><time>2026-04-25T10:18:53.878Z</time></trkpt><trkpt lat="40.6270483" lon="15.19215"><ele>70.0</ele><time>2026-04-25T10:18:54.878Z</time></trkpt><trkpt lat="40.6270967" lon="15.191765"><ele>70.0</ele><time>2026-04-25T10:18:55.877Z</time></trkpt><trkpt lat="40.6271333" lon="15.1913867"><ele>69.5</ele><time>2026-04-25T10:18:56.878Z</time></trkpt><trkpt lat="40.62717" lon="15.191005"><ele>69.0</ele><time>2026-04-25T10:18:57.878Z</time></trkpt><trkpt lat="40.6271967" lon="15.1906267"><ele>68.5</ele><time>2026-04-25T10:18:58.877Z</time></trkpt><trkpt lat="40.6272233" lon="15.1902383"><ele>68.0</ele><time>2026-04-25T10:18:59.877Z</time></trkpt><trkpt lat="40.6272433" lon="15.18985"><ele>66.0</ele><time>2026-04-25T10:19:00.878Z</time></trkpt><trkpt lat="40.627255" lon="15.189465"><ele>64.0</ele><time>2026-04-25T10:19:01.878Z</time></trkpt><trkpt lat="40.62726" lon="15.1890767"><ele>64.0</ele><time>2026-04-25T10:19:02.877Z</time></trkpt><trkpt lat="40.6272533" lon="15.1886933"><ele>64.0</ele><time>2026-04-25T10:19:03.877Z</time></trkpt><trkpt lat="40.6272383" lon="15.1883117"><ele>64.5</ele><time>2026-04-25T10:19:04.878Z</time></trkpt><trkpt lat="40.627215" lon="15.18793"><ele>65.0</ele><time>2026-04-25T10:19:05.878Z</time></trkpt><trkpt lat="40.627185" lon="15.1875533"><ele>66.0</ele><time>2026-04-25T10:19:06.877Z</time></trkpt><trkpt lat="40.6271433" lon="15.1871767"><ele>67.0</ele><time>2026-04-25T10:19:07.877Z</time></trkpt><trkpt lat="40.6270933" lon="15.1868"><ele>67.0</ele><time>2026-04-25T10:19:08.878Z</time></trkpt><trkpt lat="40.6270433" lon="15.1864267"><ele>67.0</ele><time>2026-04-25T10:19:09.878Z</time></trkpt><trkpt lat="40.6269867" lon="15.1860533"><ele>66.0</ele><time>2026-04-25T10:19:10.878Z</time></trkpt><trkpt lat="40.6269217" lon="15.185675"><ele>65.0</ele><time>2026-04-25T10:19:11.877Z</time></trkpt><trkpt lat="40.62685" lon="15.185295"><ele>65.0</ele><time>2026-04-25T10:19:12.877Z</time></trkpt><trkpt lat="40.62677" lon="15.18491"><ele>65.0</ele><time>2026-04-25T10:19:13.877Z</time></trkpt><trkpt lat="40.6266833" lon="15.1845283"><ele>67.0</ele><time>2026-04-25T10:19:14.877Z</time></trkpt><trkpt lat="40.6265833" lon="15.1841583"><ele>69.0</ele><time>2026-04-25T10:19:15.878Z</time></trkpt><trkpt lat="40.6264817" lon="15.183785"><ele>70.0</ele><time>2026-04-25T10:19:16.878Z</time></trkpt><trkpt lat="40.626365" lon="15.1834183"><ele>71.0</ele><time>2026-04-25T10:19:17.878Z</time></trkpt><trkpt lat="40.626245" lon="15.18306"><ele>68.0</ele><time>2026-04-25T10:19:18.878Z</time></trkpt><trkpt lat="40.626115" lon="15.1827067"><ele>65.0</ele><time>2026-04-25T10:19:19.877Z</time></trkpt><trkpt lat="40.6259733" lon="15.182355"><ele>65.5</ele><time>2026-04-25T10:19:20.878Z</time></trkpt><trkpt lat="40.6258267" lon="15.1820167"><ele>66.0</ele><time>2026-04-25T10:19:21.877Z</time></trkpt><trkpt lat="40.62567" lon="15.181675"><ele>66.5</ele><time>2026-04-25T10:19:22.878Z</time></trkpt><trkpt lat="40.6255067" lon="15.1813333"><ele>67.0</ele><time>2026-04-25T10:19:23.877Z</time></trkpt><trkpt lat="40.6253383" lon="15.1809967"><ele>72.5</ele><time>2026-04-25T10:19:24.877Z</time></trkpt><trkpt lat="40.6251633" lon="15.1806617"><ele>78.0</ele><time>2026-04-25T10:19:25.878Z</time></trkpt><trkpt lat="40.6249767" lon="15.180325"><ele>78.0</ele><time>2026-04-25T10:19:26.877Z</time></trkpt><trkpt lat="40.6247933" lon="15.1799867"><ele>78.0</ele><time>2026-04-25T10:19:27.877Z</time></trkpt><trkpt lat="40.6246133" lon="15.17965"><ele>83.0</ele><time>2026-04-25T10:19:28.878Z</time></trkpt><trkpt lat="40.6244433" lon="15.17929"><ele>88.0</ele><time>2026-04-25T10:19:29.877Z</time></trkpt><trkpt lat="40.6242733" lon="15.1789417"><ele>94.0</ele><time>2026-04-25T10:19:30.878Z</time></trkpt><trkpt lat="40.62411" lon="15.1786017"><ele>100.0</ele><time>2026-04-25T10:19:31.877Z</time></trkpt><trkpt lat="40.6239583" lon="15.17825"><ele>57.0</ele><time>2026-04-25T10:19:32.878Z</time></trkpt><trkpt lat="40.6192317" lon="15.17064"><ele>57.0</ele><time>2026-04-25T10:19:56.879Z</time></trkpt><trkpt lat="40.6190992" lon="15.1702772"><ele>57.0</ele><time>2026-04-25T10:19:57.879Z</time></trkpt><trkpt lat="40.6189705" lon="15.1699181"><ele>56.5</ele><time>2026-04-25T10:19:58.88Z</time></trkpt><trkpt lat="40.6188469" lon="15.1695581"><ele>56.0</ele><time>2026-04-25T10:19:59.879Z</time></trkpt><trkpt lat="40.6187236" lon="15.1691948"><ele>53.5</ele><time>2026-04-25T10:20:00.879Z</time></trkpt><trkpt lat="40.6186038" lon="15.1688279"><ele>51.0</ele><time>2026-04-25T10:20:01.88Z</time></trkpt><trkpt lat="40.6184839" lon="15.1684547"><ele>51.0</ele><time>2026-04-25T10:20:02.879Z</time></trkpt><trkpt lat="40.6183654" lon="15.1680771"><ele>51.0</ele><time>2026-04-25T10:20:03.878Z</time></trkpt><trkpt lat="40.6182507" lon="15.1676958"><ele>51.5</ele><time>2026-04-25T10:20:04.879Z</time></trkpt><trkpt lat="40.6181371" lon="15.1673165"><ele>52.0</ele><time>2026-04-25T10:20:05.878Z</time></trkpt><trkpt lat="40.6180263" lon="15.1669349"><ele>52.0</ele><time>2026-04-25T10:20:06.879Z</time></trkpt><trkpt lat="40.6179135" lon="15.166555"><ele>52.0</ele><time>2026-04-25T10:20:07.878Z</time></trkpt><trkpt lat="40.6178076" lon="15.1661749"><ele>51.5</ele><time>2026-04-25T10:20:08.879Z</time></trkpt><trkpt lat="40.6176978" lon="15.1657901"><ele>51.0</ele><time>2026-04-25T10:20:09.879Z</time></trkpt><trkpt lat="40.6175996" lon="15.1653952"><ele>51.0</ele><time>2026-04-25T10:20:10.878Z</time></trkpt><trkpt lat="40.6175001" lon="15.1650043"><ele>51.0</ele><time>2026-04-25T10:20:11.878Z</time></trkpt><trkpt lat="40.6173935" lon="15.1646233"><ele>51.0</ele><time>2026-04-25T10:20:12.878Z</time></trkpt><trkpt lat="40.6172885" lon="15.1642378"><ele>51.0</ele><time>2026-04-25T10:20:13.878Z</time></trkpt><trkpt lat="40.6171902" lon="15.1638511"><ele>52.0</ele><time>2026-04-25T10:20:14.878Z</time></trkpt><trkpt lat="40.6170927" lon="15.1634619"><ele>53.0</ele><time>2026-04-25T10:20:15.879Z</time></trkpt><trkpt lat="40.61699" lon="15.1630803"><ele>53.0</ele><time>2026-04-25T10:20:16.879Z</time></trkpt><trkpt lat="40.6168858" lon="15.1626976"><ele>53.0</ele><time>2026-04-25T10:20:17.878Z</time></trkpt><trkpt lat="40.6167821" lon="15.1623121"><ele>52.5</ele><time>2026-04-25T10:20:18.878Z</time></trkpt><trkpt lat="40.6166752" lon="15.1619267"><ele>52.0</ele><time>2026-04-25T10:20:19.879Z</time></trkpt><trkpt lat="40.6165707" lon="15.1615438"><ele>52.5</ele><time>2026-04-25T10:20:20.878Z</time></trkpt><trkpt lat="40.6164694" lon="15.1611562"><ele>53.0</ele><time>2026-04-25T10:20:21.879Z</time></trkpt><trkpt lat="40.6163667" lon="15.1607729"><ele>52.5</ele><time>2026-04-25T10:20:22.879Z</time></trkpt><trkpt lat="40.6162602" lon="15.1603873"><ele>52.0</ele><time>2026-04-25T10:20:23.878Z</time></trkpt><trkpt lat="40.6161558" lon="15.160002"><ele>51.5</ele><time>2026-04-25T10:20:24.879Z</time></trkpt><trkpt lat="40.6160518" lon="15.159612"><ele>51.0</ele><time>2026-04-25T10:20:25.878Z</time></trkpt><trkpt lat="40.6159495" lon="15.1592146"><ele>50.5</ele><time>2026-04-25T10:20:26.878Z</time></trkpt><trkpt lat="40.6158475" lon="15.1588137"><ele>50.0</ele><time>2026-04-25T10:20:27.879Z</time></trkpt><trkpt lat="40.615748" lon="15.1584098"><ele>49.5</ele><time>2026-04-25T10:20:28.879Z</time></trkpt><trkpt lat="40.6156528" lon="15.1580098"><ele>49.0</ele><time>2026-04-25T10:20:29.879Z</time></trkpt><trkpt lat="40.6155579" lon="15.1576139"><ele>49.5</ele><time>2026-04-25T10:20:30.878Z</time></trkpt><trkpt lat="40.6154573" lon="15.1572213"><ele>50.0</ele><time>2026-04-25T10:20:31.879Z</time></trkpt><trkpt lat="40.6153582" lon="15.1568293"><ele>52.0</ele><time>2026-04-25T10:20:32.879Z</time></trkpt><trkpt lat="40.6152551" lon="15.15644"><ele>54.0</ele><time>2026-04-25T10:20:33.878Z</time></trkpt><trkpt lat="40.6151457" lon="15.1560508"><ele>53.0</ele><time>2026-04-25T10:20:34.878Z</time></trkpt><trkpt lat="40.6150426" lon="15.1556607"><ele>52.0</ele><time>2026-04-25T10:20:35.879Z</time></trkpt><trkpt lat="40.6149392" lon="15.1552658"><ele>52.0</ele><time>2026-04-25T10:20:36.878Z</time></trkpt><trkpt lat="40.614837" lon="15.1548742"><ele>52.0</ele><time>2026-04-25T10:20:37.879Z</time></trkpt><trkpt lat="40.6147329" lon="15.1544815"><ele>53.5</ele><time>2026-04-25T10:20:38.879Z</time></trkpt><trkpt lat="40.6146284" lon="15.1540889"><ele>55.0</ele><time>2026-04-25T10:20:39.879Z</time></trkpt><trkpt lat="40.6145223" lon="15.1536967"><ele>55.0</ele><time>2026-04-25T10:20:40.879Z</time></trkpt><trkpt lat="40.6144158" lon="15.1533037"><ele>55.0</ele><time>2026-04-25T10:20:41.878Z</time></trkpt><trkpt lat="40.6143113" lon="15.1529113"><ele>57.5</ele><time>2026-04-25T10:20:42.878Z</time></trkpt><trkpt lat="40.6142067" lon="15.1525167"><ele>60.0</ele><time>2026-04-25T10:20:43.878Z</time></trkpt><trkpt lat="40.614105" lon="15.152125"><ele>63.5</ele><time>2026-04-25T10:20:44.879Z</time></trkpt><trkpt lat="40.6140033" lon="15.15173"><ele>67.0</ele><time>2026-04-25T10:20:45.879Z</time></trkpt><trkpt lat="40.6139067" lon="15.1513317"><ele>71.0</ele><time>2026-04-25T10:20:46.878Z</time></trkpt><trkpt lat="40.6138183" lon="15.1509333"><ele>75.0</ele><time>2026-04-25T10:20:47.878Z</time></trkpt><trkpt lat="40.6137467" lon="15.1505317"><ele>75.0</ele><time>2026-04-25T10:20:48.878Z</time></trkpt><trkpt lat="40.6136817" lon="15.15013"><ele>75.0</ele><time>2026-04-25T10:20:49.878Z</time></trkpt><trkpt lat="40.6136283" lon="15.1497217"><ele>69.5</ele><time>2026-04-25T10:20:50.879Z</time></trkpt><trkpt lat="40.6135883" lon="15.1493083"><ele>64.0</ele><time>2026-04-25T10:20:51.878Z</time></trkpt><trkpt lat="40.6135617" lon="15.1488917"><ele>64.0</ele><time>2026-04-25T10:20:52.879Z</time></trkpt><trkpt lat="40.6135433" lon="15.148475"><ele>64.0</ele><time>2026-04-25T10:20:53.879Z</time></trkpt><trkpt lat="40.6135383" lon="15.1480583"><ele>63.0</ele><time>2026-04-25T10:20:54.879Z</time></trkpt><trkpt lat="40.6135433" lon="15.14764"><ele>62.0</ele><time>2026-04-25T10:20:55.879Z</time></trkpt><trkpt lat="40.6135583" lon="15.1472267"><ele>61.5</ele><time>2026-04-25T10:20:56.879Z</time></trkpt><trkpt lat="40.613575" lon="15.1468083"><ele>61.0</ele><time>2026-04-25T10:20:57.878Z</time></trkpt><trkpt lat="40.6135933" lon="15.1463917"><ele>60.0</ele><time>2026-04-25T10:20:58.878Z</time></trkpt><trkpt lat="40.6136067" lon="15.145975"><ele>59.0</ele><time>2026-04-25T10:20:59.879Z</time></trkpt><trkpt lat="40.6136183" lon="15.1455617"><ele>58.5</ele><time>2026-04-25T10:21:00.879Z</time></trkpt><trkpt lat="40.61362" lon="15.1451433"><ele>58.0</ele><time>2026-04-25T10:21:01.878Z</time></trkpt><trkpt lat="40.6136133" lon="15.144725"><ele>58.0</ele><time>2026-04-25T10:21:02.879Z</time></trkpt><trkpt lat="40.6135967" lon="15.14431"><ele>58.0</ele><time>2026-04-25T10:21:03.878Z</time></trkpt><trkpt lat="40.6135717" lon="15.1438983"><ele>58.5</ele><time>2026-04-25T10:21:04.878Z</time></trkpt><trkpt lat="40.6135367" lon="15.1434817"><ele>59.0</ele><time>2026-04-25T10:21:05.879Z</time></trkpt><trkpt lat="40.6134917" lon="15.1430667"><ele>60.5</ele><time>2026-04-25T10:21:06.878Z</time></trkpt><trkpt lat="40.6134383" lon="15.142655"><ele>62.0</ele><time>2026-04-25T10:21:07.879Z</time></trkpt><trkpt lat="40.613375" lon="15.1422467"><ele>65.0</ele><time>2026-04-25T10:21:08.879Z</time></trkpt><trkpt lat="40.613305" lon="15.14184"><ele>68.0</ele><time>2026-04-25T10:21:09.879Z</time></trkpt><trkpt lat="40.6132283" lon="15.1414367"><ele>71.5</ele><time>2026-04-25T10:21:10.879Z</time></trkpt><trkpt lat="40.6131383" lon="15.141035"><ele>75.0</ele><time>2026-04-25T10:21:11.878Z</time></trkpt><trkpt lat="40.613035" lon="15.140645"><ele>73.5</ele><time>2026-04-25T10:21:12.879Z</time></trkpt><trkpt lat="40.612915" lon="15.14026"><ele>72.0</ele><time>2026-04-25T10:21:13.878Z</time></trkpt><trkpt lat="40.6127883" lon="15.1398833"><ele>72.0</ele><time>2026-04-25T10:21:14.879Z</time></trkpt><trkpt lat="40.612655" lon="15.1395067"><ele>72.0</ele><time>2026-04-25T10:21:15.879Z</time></trkpt><trkpt lat="40.6125167" lon="15.1391333"><ele>74.0</ele><time>2026-04-25T10:21:16.879Z</time></trkpt><trkpt lat="40.6123667" lon="15.1387683"><ele>76.0</ele><time>2026-04-25T10:21:17.879Z</time></trkpt><trkpt lat="40.61221" lon="15.1384033"><ele>77.5</ele><time>2026-04-25T10:21:18.878Z</time></trkpt><trkpt lat="40.6120533" lon="15.1380367"><ele>79.0</ele><time>2026-04-25T10:21:19.878Z</time></trkpt><trkpt lat="40.6118983" lon="15.1376733"><ele>74.0</ele><time>2026-04-25T10:21:20.878Z</time></trkpt><trkpt lat="40.611745" lon="15.1373117"><ele>69.0</ele><time>2026-04-25T10:21:21.879Z</time></trkpt><trkpt lat="40.6115917" lon="15.136945"><ele>69.0</ele><time>2026-04-25T10:21:22.878Z</time></trkpt><trkpt lat="40.6114433" lon="15.1365783"><ele>69.0</ele><time>2026-04-25T10:21:23.879Z</time></trkpt><trkpt lat="40.6112917" lon="15.1362133"><ele>71.0</ele><time>2026-04-25T10:21:24.879Z</time></trkpt><trkpt lat="40.6111333" lon="15.135855"><ele>73.0</ele><time>2026-04-25T10:21:25.878Z</time></trkpt><trkpt lat="40.6109733" lon="15.1354917"><ele>78.0</ele><time>2026-04-25T10:21:26.879Z</time></trkpt><trkpt lat="40.6108167" lon="15.1351333"><ele>83.0</ele><time>2026-04-25T10:21:27.878Z</time></trkpt><trkpt lat="40.6106583" lon="15.1347783"><ele>88.5</ele><time>2026-04-25T10:21:28.878Z</time></trkpt><trkpt lat="40.6105067" lon="15.134425"><ele>94.0</ele><time>2026-04-25T10:21:29.879Z</time></trkpt><trkpt lat="40.61035" lon="15.13408"><ele>97.5</ele><time>2026-04-25T10:21:30.878Z</time></trkpt><trkpt lat="40.6102067" lon="15.1337283"><ele>101.0</ele><time>2026-04-25T10:21:31.878Z</time></trkpt><trkpt lat="40.6100517" lon="15.1333683"><ele>102.0</ele><time>2026-04-25T10:21:32.878Z</time></trkpt><trkpt lat="40.6099" lon="15.133"><ele>103.0</ele><time>2026-04-25T10:21:33.878Z</time></trkpt><trkpt lat="40.6097467" lon="15.1326433"><ele>102.5</ele><time>2026-04-25T10:21:34.878Z</time></trkpt><trkpt lat="40.6095967" lon="15.1322933"><ele>102.0</ele><time>2026-04-25T10:21:35.879Z</time></trkpt><trkpt lat="40.609445" lon="15.1319417"><ele>96.0</ele><time>2026-04-25T10:21:36.879Z</time></trkpt><trkpt lat="40.609265" lon="15.1315833"><ele>90.0</ele><time>2026-04-25T10:21:37.879Z</time></trkpt><trkpt lat="40.6091117" lon="15.1310883"><ele>81.5</ele><time>2026-04-25T10:21:38.879Z</time></trkpt><trkpt lat="40.608985" lon="15.1307567"><ele>73.0</ele><time>2026-04-25T10:21:39.878Z</time></trkpt><trkpt lat="40.6088433" lon="15.1303867"><ele>65.5</ele><time>2026-04-25T10:21:40.878Z</time></trkpt><trkpt lat="40.6087" lon="15.1300133"><ele>58.0</ele><time>2026-04-25T10:21:41.878Z</time></trkpt><trkpt lat="40.6085733" lon="15.1296383"><ele>58.0</ele><time>2026-04-25T10:21:42.879Z</time></trkpt><trkpt lat="40.6084517" lon="15.1292583"><ele>58.0</ele><time>2026-04-25T10:21:43.878Z</time></trkpt><trkpt lat="40.6083367" lon="15.128875"><ele>68.5</ele><time>2026-04-25T10:21:44.879Z</time></trkpt><trkpt lat="40.6082317" lon="15.1284817"><ele>79.0</ele><time>2026-04-25T10:21:45.878Z</time></trkpt><trkpt lat="40.6081333" lon="15.1280883"><ele>88.5</ele><time>2026-04-25T10:21:46.878Z</time></trkpt><trkpt lat="40.60804" lon="15.1276967"><ele>98.0</ele><time>2026-04-25T10:21:47.879Z</time></trkpt><trkpt lat="40.607955" lon="15.12729"><ele>99.0</ele><time>2026-04-25T10:21:48.878Z</time></trkpt><trkpt lat="40.607875" lon="15.1268867"><ele>100.0</ele><time>2026-04-25T10:21:49.879Z</time></trkpt><trkpt lat="40.6077967" lon="15.126475"><ele>100.0</ele><time>2026-04-25T10:21:50.879Z</time></trkpt><trkpt lat="40.6077267" lon="15.1260717"><ele>100.0</ele><time>2026-04-25T10:21:51.878Z</time></trkpt><trkpt lat="40.6076783" lon="15.12566"><ele>99.5</ele><time>2026-04-25T10:21:52.878Z</time></trkpt><trkpt lat="40.607635" lon="15.12525"><ele>99.0</ele><time>2026-04-25T10:21:53.878Z</time></trkpt><trkpt lat="40.607595" lon="15.1248367"><ele>99.0</ele><time>2026-04-25T10:21:54.879Z</time></trkpt><trkpt lat="40.6075533" lon="15.1244233"><ele>99.0</ele><time>2026-04-25T10:21:55.878Z</time></trkpt><trkpt lat="40.6075067" lon="15.12401"><ele>94.0</ele><time>2026-04-25T10:21:56.878Z</time></trkpt><trkpt lat="40.6074633" lon="15.123595"><ele>89.0</ele><time>2026-04-25T10:21:57.879Z</time></trkpt><trkpt lat="40.607375" lon="15.1227717"><ele>96.0</ele><time>2026-04-25T10:21:59.878Z</time></trkpt><trkpt lat="40.6073367" lon="15.1223583"><ele>103.0</ele><time>2026-04-25T10:22:00.878Z</time></trkpt><trkpt lat="40.607295" lon="15.121945"><ele>104.5</ele><time>2026-04-25T10:22:01.879Z</time></trkpt><trkpt lat="40.6072633" lon="15.1215317"><ele>106.0</ele><time>2026-04-25T10:22:02.879Z</time></trkpt><trkpt lat="40.607225" lon="15.1211183"><ele>107.5</ele><time>2026-04-25T10:22:03.878Z</time></trkpt><trkpt lat="40.6071883" lon="15.1207033"><ele>109.0</ele><time>2026-04-25T10:22:04.879Z</time></trkpt><trkpt lat="40.6071517" lon="15.12029"><ele>109.0</ele><time>2026-04-25T10:22:05.879Z</time></trkpt><trkpt lat="40.607115" lon="15.1198767"><ele>109.0</ele><time>2026-04-25T10:22:06.879Z</time></trkpt><trkpt lat="40.60708" lon="15.1194633"><ele>108.5</ele><time>2026-04-25T10:22:07.879Z</time></trkpt><trkpt lat="40.6070467" lon="15.1190483"><ele>108.0</ele><time>2026-04-25T10:22:08.879Z</time></trkpt><trkpt lat="40.607005" lon="15.1186333"><ele>108.0</ele><time>2026-04-25T10:22:09.879Z</time></trkpt><trkpt lat="40.60697" lon="15.1182167"><ele>108.0</ele><time>2026-04-25T10:22:10.878Z</time></trkpt><trkpt lat="40.60693" lon="15.1178"><ele>106.5</ele><time>2026-04-25T10:22:11.878Z</time></trkpt><trkpt lat="40.6068917" lon="15.117385"><ele>105.0</ele><time>2026-04-25T10:22:12.879Z</time></trkpt><trkpt lat="40.6068583" lon="15.1169683"><ele>105.0</ele><time>2026-04-25T10:22:13.878Z</time></trkpt><trkpt lat="40.6068283" lon="15.1165567"><ele>105.0</ele><time>2026-04-25T10:22:14.878Z</time></trkpt><trkpt lat="40.6068017" lon="15.1161417"><ele>106.5</ele><time>2026-04-25T10:22:15.879Z</time></trkpt><trkpt lat="40.60678" lon="15.115725"><ele>108.0</ele><time>2026-04-25T10:22:16.878Z</time></trkpt><trkpt lat="40.6067583" lon="15.1153133"><ele>107.5</ele><time>2026-04-25T10:22:17.879Z</time></trkpt><trkpt lat="40.60673" lon="15.114895"><ele>107.0</ele><time>2026-04-25T10:22:18.879Z</time></trkpt><trkpt lat="40.6067067" lon="15.1144833"><ele>107.0</ele><time>2026-04-25T10:22:19.878Z</time></trkpt><trkpt lat="40.6066833" lon="15.1140667"><ele>107.0</ele><time>2026-04-25T10:22:20.879Z</time></trkpt><trkpt lat="40.6066633" lon="15.113645"><ele>107.0</ele><time>2026-04-25T10:22:21.879Z</time></trkpt><trkpt lat="40.6066417" lon="15.1132267"><ele>107.0</ele><time>2026-04-25T10:22:22.879Z</time></trkpt><trkpt lat="40.606615" lon="15.1128083"><ele>106.0</ele><time>2026-04-25T10:22:23.879Z</time></trkpt><trkpt lat="40.6065917" lon="15.112395"><ele>105.0</ele><time>2026-04-25T10:22:24.879Z</time></trkpt><trkpt lat="40.606565" lon="15.11198"><ele>104.5</ele><time>2026-04-25T10:22:25.879Z</time></trkpt><trkpt lat="40.60654" lon="15.1115683"><ele>104.0</ele><time>2026-04-25T10:22:26.879Z</time></trkpt><trkpt lat="40.606515" lon="15.111155"><ele>104.0</ele><time>2026-04-25T10:22:27.878Z</time></trkpt><trkpt lat="40.6064867" lon="15.1107417"><ele>104.0</ele><time>2026-04-25T10:22:28.878Z</time></trkpt><trkpt lat="40.60646" lon="15.110325"><ele>104.0</ele><time>2026-04-25T10:22:29.879Z</time></trkpt><trkpt lat="40.6064367" lon="15.1099133"><ele>104.0</ele><time>2026-04-25T10:22:30.878Z</time></trkpt><trkpt lat="40.60641" lon="15.1094967"><ele>104.0</ele><time>2026-04-25T10:22:31.878Z</time></trkpt><trkpt lat="40.6063833" lon="15.10908"><ele>104.0</ele><time>2026-04-25T10:22:32.878Z</time></trkpt><trkpt lat="40.6063617" lon="15.1086633"><ele>102.0</ele><time>2026-04-25T10:22:33.878Z</time></trkpt><trkpt lat="40.6063383" lon="15.1082467"><ele>100.0</ele><time>2026-04-25T10:22:34.879Z</time></trkpt><trkpt lat="40.606315" lon="15.1078333"><ele>99.0</ele><time>2026-04-25T10:22:35.879Z</time></trkpt><trkpt lat="40.6062933" lon="15.1074233"><ele>98.0</ele><time>2026-04-25T10:22:36.879Z</time></trkpt><trkpt lat="40.6062683" lon="15.107005"><ele>98.0</ele><time>2026-04-25T10:22:37.878Z</time></trkpt><trkpt lat="40.606245" lon="15.1065917"><ele>98.0</ele><time>2026-04-25T10:22:38.879Z</time></trkpt><trkpt lat="40.60622" lon="15.1061717"><ele>99.5</ele><time>2026-04-25T10:22:39.879Z</time></trkpt><trkpt lat="40.6061967" lon="15.1057567"><ele>101.0</ele><time>2026-04-25T10:22:40.878Z</time></trkpt><trkpt lat="40.6061717" lon="15.1053433"><ele>100.5</ele><time>2026-04-25T10:22:41.878Z</time></trkpt><trkpt lat="40.6061533" lon="15.10492"><ele>100.0</ele><time>2026-04-25T10:22:42.879Z</time></trkpt><trkpt lat="40.6061417" lon="15.10451"><ele>99.5</ele><time>2026-04-25T10:22:43.879Z</time></trkpt><trkpt lat="40.6061417" lon="15.1040967"><ele>99.0</ele><time>2026-04-25T10:22:44.878Z</time></trkpt><trkpt lat="40.6061433" lon="15.10368"><ele>99.0</ele><time>2026-04-25T10:22:45.878Z</time></trkpt><trkpt lat="40.606165" lon="15.1032617"><ele>99.0</ele><time>2026-04-25T10:22:46.878Z</time></trkpt><trkpt lat="40.6061967" lon="15.1028467"><ele>97.0</ele><time>2026-04-25T10:22:47.878Z</time></trkpt><trkpt lat="40.60624" lon="15.1024333"><ele>95.0</ele><time>2026-04-25T10:22:48.879Z</time></trkpt><trkpt lat="40.6062917" lon="15.1020217"><ele>94.5</ele><time>2026-04-25T10:22:49.878Z</time></trkpt><trkpt lat="40.6063483" lon="15.1016117"><ele>94.0</ele><time>2026-04-25T10:22:50.878Z</time></trkpt><trkpt lat="40.6064117" lon="15.1012033"><ele>94.5</ele><time>2026-04-25T10:22:51.879Z</time></trkpt><trkpt lat="40.6064767" lon="15.100795"><ele>95.0</ele><time>2026-04-25T10:22:52.878Z</time></trkpt><trkpt lat="40.6065433" lon="15.10039"><ele>95.0</ele><time>2026-04-25T10:22:53.879Z</time></trkpt><trkpt lat="40.6066133" lon="15.09998"><ele>95.0</ele><time>2026-04-25T10:22:54.879Z</time></trkpt><trkpt lat="40.606685" lon="15.099575"><ele>95.5</ele><time>2026-04-25T10:22:55.878Z</time></trkpt><trkpt lat="40.60676" lon="15.09917"><ele>96.0</ele><time>2026-04-25T10:22:56.879Z</time></trkpt><trkpt lat="40.60684" lon="15.0987667"><ele>96.0</ele><time>2026-04-25T10:22:57.878Z</time></trkpt><trkpt lat="40.6069167" lon="15.0983617"><ele>96.0</ele><time>2026-04-25T10:22:58.879Z</time></trkpt><trkpt lat="40.6070083" lon="15.0979617"><ele>96.0</ele><time>2026-04-25T10:22:59.878Z</time></trkpt><trkpt lat="40.60711" lon="15.097565"><ele>96.0</ele><time>2026-04-25T10:23:00.878Z</time></trkpt><trkpt lat="40.60721" lon="15.0971683"><ele>96.0</ele><time>2026-04-25T10:23:01.878Z</time></trkpt><trkpt lat="40.6073167" lon="15.096775"><ele>96.0</ele><time>2026-04-25T10:23:02.879Z</time></trkpt><trkpt lat="40.6074267" lon="15.0963833"><ele>96.0</ele><time>2026-04-25T10:23:03.878Z</time></trkpt><trkpt lat="40.60754" lon="15.0959933"><ele>96.0</ele><time>2026-04-25T10:23:04.878Z</time></trkpt><trkpt lat="40.607655" lon="15.095605"><ele>96.0</ele><time>2026-04-25T10:23:05.879Z</time></trkpt><trkpt lat="40.607775" lon="15.095225"><ele>96.0</ele><time>2026-04-25T10:23:06.879Z</time></trkpt><trkpt lat="40.6078967" lon="15.0948367"><ele>96.0</ele><time>2026-04-25T10:23:07.878Z</time></trkpt><trkpt lat="40.6080217" lon="15.0944517"><ele>96.0</ele><time>2026-04-25T10:23:08.878Z</time></trkpt><trkpt lat="40.60815" lon="15.0940733"><ele>95.5</ele><time>2026-04-25T10:23:09.879Z</time></trkpt><trkpt lat="40.60828" lon="15.09369"><ele>95.0</ele><time>2026-04-25T10:23:10.878Z</time></trkpt><trkpt lat="40.6084108" lon="15.093309"><ele>94.5</ele><time>2026-04-25T10:23:11.878Z</time></trkpt><trkpt lat="40.6085423" lon="15.0929277"><ele>94.0</ele><time>2026-04-25T10:23:12.879Z</time></trkpt><trkpt lat="40.6086682" lon="15.0925473"><ele>96.0</ele><time>2026-04-25T10:23:13.879Z</time></trkpt><trkpt lat="40.6087919" lon="15.0921653"><ele>98.0</ele><time>2026-04-25T10:23:14.879Z</time></trkpt><trkpt lat="40.6089124" lon="15.0917783"><ele>97.0</ele><time>2026-04-25T10:23:15.879Z</time></trkpt><trkpt lat="40.6090264" lon="15.0913895"><ele>96.0</ele><time>2026-04-25T10:23:16.879Z</time></trkpt><trkpt lat="40.6091288" lon="15.0909974"><ele>96.0</ele><time>2026-04-25T10:23:17.878Z</time></trkpt><trkpt lat="40.6092232" lon="15.0906002"><ele>96.0</ele><time>2026-04-25T10:23:18.878Z</time></trkpt><trkpt lat="40.6093055" lon="15.0902011"><ele>95.0</ele><time>2026-04-25T10:23:19.879Z</time></trkpt><trkpt lat="40.6093784" lon="15.0897979"><ele>94.0</ele><time>2026-04-25T10:23:20.879Z</time></trkpt><trkpt lat="40.6094402" lon="15.0893924"><ele>94.0</ele><time>2026-04-25T10:23:21.879Z</time></trkpt><trkpt lat="40.6094907" lon="15.0889802"><ele>94.0</ele><time>2026-04-25T10:23:22.879Z</time></trkpt><trkpt lat="40.6095309" lon="15.088568"><ele>92.5</ele><time>2026-04-25T10:23:23.879Z</time></trkpt><trkpt lat="40.6095665" lon="15.088153"><ele>91.0</ele><time>2026-04-25T10:23:24.879Z</time></trkpt><trkpt lat="40.6095965" lon="15.0877355"><ele>89.0</ele><time>2026-04-25T10:23:25.879Z</time></trkpt><trkpt lat="40.6096226" lon="15.0873209"><ele>87.0</ele><time>2026-04-25T10:23:26.879Z</time></trkpt><trkpt lat="40.60965" lon="15.0869052"><ele>86.5</ele><time>2026-04-25T10:23:27.879Z</time></trkpt><trkpt lat="40.6096764" lon="15.0864879"><ele>86.0</ele><time>2026-04-25T10:23:28.879Z</time></trkpt><trkpt lat="40.6096995" lon="15.0860721"><ele>86.5</ele><time>2026-04-25T10:23:29.879Z</time></trkpt><trkpt lat="40.6097239" lon="15.0856586"><ele>87.0</ele><time>2026-04-25T10:23:30.878Z</time></trkpt><trkpt lat="40.6097448" lon="15.0852402"><ele>88.5</ele><time>2026-04-25T10:23:31.878Z</time></trkpt><trkpt lat="40.6097633" lon="15.0848219"><ele>90.0</ele><time>2026-04-25T10:23:32.878Z</time></trkpt><trkpt lat="40.6097834" lon="15.0844034"><ele>90.0</ele><time>2026-04-25T10:23:33.879Z</time></trkpt><trkpt lat="40.6098022" lon="15.0839863"><ele>90.0</ele><time>2026-04-25T10:23:34.879Z</time></trkpt><trkpt lat="40.6098168" lon="15.0835694"><ele>90.5</ele><time>2026-04-25T10:23:35.879Z</time></trkpt><trkpt lat="40.609827" lon="15.0831524"><ele>91.0</ele><time>2026-04-25T10:23:36.878Z</time></trkpt><trkpt lat="40.6098297" lon="15.0827356"><ele>91.0</ele><time>2026-04-25T10:23:37.878Z</time></trkpt><trkpt lat="40.6098299" lon="15.0823156"><ele>91.0</ele><time>2026-04-25T10:23:38.878Z</time></trkpt><trkpt lat="40.6098236" lon="15.0818982"><ele>90.5</ele><time>2026-04-25T10:23:39.879Z</time></trkpt><trkpt lat="40.6098096" lon="15.0814788"><ele>90.0</ele><time>2026-04-25T10:23:40.879Z</time></trkpt><trkpt lat="40.609791" lon="15.0810614"><ele>89.5</ele><time>2026-04-25T10:23:41.879Z</time></trkpt><trkpt lat="40.6097673" lon="15.0806468"><ele>89.0</ele><time>2026-04-25T10:23:42.879Z</time></trkpt><trkpt lat="40.6097326" lon="15.0802281"><ele>89.0</ele><time>2026-04-25T10:23:43.878Z</time></trkpt><trkpt lat="40.6096962" lon="15.0798148"><ele>89.0</ele><time>2026-04-25T10:23:44.879Z</time></trkpt><trkpt lat="40.6096506" lon="15.0794018"><ele>88.5</ele><time>2026-04-25T10:23:45.879Z</time></trkpt><trkpt lat="40.6095991" lon="15.0789856"><ele>88.0</ele><time>2026-04-25T10:23:46.878Z</time></trkpt><trkpt lat="40.6095434" lon="15.0785718"><ele>85.0</ele><time>2026-04-25T10:23:47.879Z</time></trkpt><trkpt lat="40.6094808" lon="15.0781598"><ele>82.0</ele><time>2026-04-25T10:23:48.878Z</time></trkpt><trkpt lat="40.6094114" lon="15.0777509"><ele>81.5</ele><time>2026-04-25T10:23:49.879Z</time></trkpt><trkpt lat="40.6093388" lon="15.077344"><ele>81.0</ele><time>2026-04-25T10:23:50.878Z</time></trkpt><trkpt lat="40.609264" lon="15.0769366"><ele>81.0</ele><time>2026-04-25T10:23:51.878Z</time></trkpt><trkpt lat="40.6091857" lon="15.0765338"><ele>81.0</ele><time>2026-04-25T10:23:52.878Z</time></trkpt><trkpt lat="40.6091063" lon="15.0761313"><ele>80.5</ele><time>2026-04-25T10:23:53.879Z</time></trkpt><trkpt lat="40.6090271" lon="15.0757284"><ele>80.0</ele><time>2026-04-25T10:23:54.878Z</time></trkpt><trkpt lat="40.6089531" lon="15.075324"><ele>80.0</ele><time>2026-04-25T10:23:55.879Z</time></trkpt><trkpt lat="40.6088856" lon="15.0749193"><ele>80.0</ele><time>2026-04-25T10:23:56.879Z</time></trkpt><trkpt lat="40.6088084" lon="15.0745133"><ele>80.0</ele><time>2026-04-25T10:23:57.878Z</time></trkpt><trkpt lat="40.6087282" lon="15.0741059"><ele>80.0</ele><time>2026-04-25T10:23:58.879Z</time></trkpt><trkpt lat="40.6086489" lon="15.0737033"><ele>78.0</ele><time>2026-04-25T10:23:59.878Z</time></trkpt><trkpt lat="40.6085703" lon="15.0733042"><ele>76.0</ele><time>2026-04-25T10:24:00.879Z</time></trkpt><trkpt lat="40.6084896" lon="15.0729044"><ele>76.0</ele><time>2026-04-25T10:24:01.879Z</time></trkpt><trkpt lat="40.6084126" lon="15.0725011"><ele>76.0</ele><time>2026-04-25T10:24:02.878Z</time></trkpt><trkpt lat="40.6083328" lon="15.0720922"><ele>76.0</ele><time>2026-04-25T10:24:03.878Z</time></trkpt><trkpt lat="40.6082586" lon="15.0716884"><ele>76.0</ele><time>2026-04-25T10:24:04.878Z</time></trkpt><trkpt lat="40.6081875" lon="15.0712828"><ele>74.5</ele><time>2026-04-25T10:24:05.878Z</time></trkpt><trkpt lat="40.608125" lon="15.0708723"><ele>73.0</ele><time>2026-04-25T10:24:06.879Z</time></trkpt><trkpt lat="40.6080705" lon="15.0704593"><ele>72.0</ele><time>2026-04-25T10:24:07.878Z</time></trkpt><trkpt lat="40.6080265" lon="15.0700477"><ele>71.0</ele><time>2026-04-25T10:24:08.878Z</time></trkpt><trkpt lat="40.6079886" lon="15.0696344"><ele>71.0</ele><time>2026-04-25T10:24:09.878Z</time></trkpt><trkpt lat="40.6079568" lon="15.0692222"><ele>71.0</ele><time>2026-04-25T10:24:10.878Z</time></trkpt><trkpt lat="40.6079313" lon="15.068804"><ele>71.0</ele><time>2026-04-25T10:24:11.879Z</time></trkpt><trkpt lat="40.607904" lon="15.0683868"><ele>71.0</ele><time>2026-04-25T10:24:12.878Z</time></trkpt><trkpt lat="40.60788" lon="15.0679687"><ele>71.5</ele><time>2026-04-25T10:24:13.879Z</time></trkpt><trkpt lat="40.6078662" lon="15.0675532"><ele>72.0</ele><time>2026-04-25T10:24:14.879Z</time></trkpt><trkpt lat="40.6078545" lon="15.0671394"><ele>72.5</ele><time>2026-04-25T10:24:15.879Z</time></trkpt><trkpt lat="40.6078491" lon="15.0667236"><ele>73.0</ele><time>2026-04-25T10:24:16.879Z</time></trkpt><trkpt lat="40.6078479" lon="15.066308"><ele>73.0</ele><time>2026-04-25T10:24:17.879Z</time></trkpt><trkpt lat="40.6078488" lon="15.0658939"><ele>73.0</ele><time>2026-04-25T10:24:18.878Z</time></trkpt><trkpt lat="40.6078507" lon="15.0654765"><ele>73.0</ele><time>2026-04-25T10:24:19.878Z</time></trkpt><trkpt lat="40.6078525" lon="15.0650593"><ele>73.0</ele><time>2026-04-25T10:24:20.878Z</time></trkpt><trkpt lat="40.6078565" lon="15.0646427"><ele>73.5</ele><time>2026-04-25T10:24:21.879Z</time></trkpt><trkpt lat="40.60786" lon="15.0642253"><ele>74.0</ele><time>2026-04-25T10:24:22.879Z</time></trkpt><trkpt lat="40.6078612" lon="15.0638084"><ele>75.0</ele><time>2026-04-25T10:24:23.879Z</time></trkpt><trkpt lat="40.6078626" lon="15.0633916"><ele>76.0</ele><time>2026-04-25T10:24:24.879Z</time></trkpt><trkpt lat="40.6078608" lon="15.0629744"><ele>76.5</ele><time>2026-04-25T10:24:25.879Z</time></trkpt><trkpt lat="40.6078563" lon="15.0625611"><ele>77.0</ele><time>2026-04-25T10:24:26.879Z</time></trkpt><trkpt lat="40.6078559" lon="15.0621444"><ele>77.5</ele><time>2026-04-25T10:24:27.878Z</time></trkpt><trkpt lat="40.6078547" lon="15.0617255"><ele>78.0</ele><time>2026-04-25T10:24:28.878Z</time></trkpt><trkpt lat="40.6078509" lon="15.061307"><ele>79.5</ele><time>2026-04-25T10:24:29.878Z</time></trkpt><trkpt lat="40.6078474" lon="15.0608957"><ele>81.0</ele><time>2026-04-25T10:24:30.878Z</time></trkpt><trkpt lat="40.607844" lon="15.0604838"><ele>81.5</ele><time>2026-04-25T10:24:31.879Z</time></trkpt><trkpt lat="40.6078395" lon="15.0600673"><ele>82.0</ele><time>2026-04-25T10:24:32.879Z</time></trkpt><trkpt lat="40.6078369" lon="15.0596484"><ele>82.0</ele><time>2026-04-25T10:24:33.878Z</time></trkpt><trkpt lat="40.6078338" lon="15.0592283"><ele>82.0</ele><time>2026-04-25T10:24:34.879Z</time></trkpt><trkpt lat="40.6078306" lon="15.0588105"><ele>82.5</ele><time>2026-04-25T10:24:35.879Z</time></trkpt><trkpt lat="40.6078284" lon="15.0583942"><ele>83.0</ele><time>2026-04-25T10:24:36.878Z</time></trkpt><trkpt lat="40.6078277" lon="15.0579789"><ele>80.5</ele><time>2026-04-25T10:24:37.878Z</time></trkpt><trkpt lat="40.6078253" lon="15.0575653"><ele>78.0</ele><time>2026-04-25T10:24:38.878Z</time></trkpt><trkpt lat="40.6078262" lon="15.0571497"><ele>78.0</ele><time>2026-04-25T10:24:39.878Z</time></trkpt><trkpt lat="40.607826" lon="15.0567437"><ele>78.0</ele><time>2026-04-25T10:24:40.879Z</time></trkpt><trkpt lat="40.6078287" lon="15.0563457"><ele>80.5</ele><time>2026-04-25T10:24:41.878Z</time></trkpt><trkpt lat="40.6078296" lon="15.0559534"><ele>83.0</ele><time>2026-04-25T10:24:42.879Z</time></trkpt><trkpt lat="40.6078333" lon="15.0555619"><ele>83.0</ele><time>2026-04-25T10:24:43.879Z</time></trkpt><trkpt lat="40.607831" lon="15.0551769"><ele>83.0</ele><time>2026-04-25T10:24:44.879Z</time></trkpt><trkpt lat="40.6078278" lon="15.0547885"><ele>83.0</ele><time>2026-04-25T10:24:45.878Z</time></trkpt><trkpt lat="40.6078292" lon="15.0544006"><ele>83.0</ele><time>2026-04-25T10:24:46.878Z</time></trkpt><trkpt lat="40.6078274" lon="15.0540148"><ele>81.5</ele><time>2026-04-25T10:24:47.879Z</time></trkpt><trkpt lat="40.6078267" lon="15.05363"><ele>80.0</ele><time>2026-04-25T10:24:48.879Z</time></trkpt><trkpt lat="40.607825" lon="15.053245"><ele>81.0</ele><time>2026-04-25T10:24:49.878Z</time></trkpt><trkpt lat="40.60783" lon="15.0528633"><ele>82.0</ele><time>2026-04-25T10:24:50.878Z</time></trkpt><trkpt lat="40.6078317" lon="15.052485"><ele>81.5</ele><time>2026-04-25T10:24:51.879Z</time></trkpt><trkpt lat="40.6078367" lon="15.0521067"><ele>81.0</ele><time>2026-04-25T10:24:52.878Z</time></trkpt><trkpt lat="40.6078383" lon="15.0517367"><ele>80.0</ele><time>2026-04-25T10:24:53.879Z</time></trkpt><trkpt lat="40.60784" lon="15.0513633"><ele>79.0</ele><time>2026-04-25T10:24:54.878Z</time></trkpt><trkpt lat="40.6078383" lon="15.0509867"><ele>79.0</ele><time>2026-04-25T10:24:55.878Z</time></trkpt><trkpt lat="40.6078283" lon="15.0506"><ele>79.0</ele><time>2026-04-25T10:24:56.878Z</time></trkpt><trkpt lat="40.6078183" lon="15.0502033"><ele>78.5</ele><time>2026-04-25T10:24:57.878Z</time></trkpt><trkpt lat="40.6078017" lon="15.0498"><ele>78.0</ele><time>2026-04-25T10:24:58.878Z</time></trkpt><trkpt lat="40.60778" lon="15.0493883"><ele>77.5</ele><time>2026-04-25T10:24:59.879Z</time></trkpt><trkpt lat="40.60775" lon="15.0489733"><ele>77.0</ele><time>2026-04-25T10:25:00.879Z</time></trkpt><trkpt lat="40.607705" lon="15.048555"><ele>77.0</ele><time>2026-04-25T10:25:01.878Z</time></trkpt><trkpt lat="40.6076567" lon="15.0481417"><ele>77.0</ele><time>2026-04-25T10:25:02.879Z</time></trkpt><trkpt lat="40.607605" lon="15.0477283"><ele>77.0</ele><time>2026-04-25T10:25:03.879Z</time></trkpt><trkpt lat="40.6075517" lon="15.0473167"><ele>77.0</ele><time>2026-04-25T10:25:04.878Z</time></trkpt><trkpt lat="40.607495" lon="15.0469067"><ele>77.5</ele><time>2026-04-25T10:25:05.878Z</time></trkpt><trkpt lat="40.6074383" lon="15.0465017"><ele>78.0</ele><time>2026-04-25T10:25:06.879Z</time></trkpt><trkpt lat="40.6073783" lon="15.046095"><ele>78.5</ele><time>2026-04-25T10:25:07.879Z</time></trkpt><trkpt lat="40.6073183" lon="15.0456883"><ele>79.0</ele><time>2026-04-25T10:25:08.879Z</time></trkpt><trkpt lat="40.6072583" lon="15.0452867"><ele>82.5</ele><time>2026-04-25T10:25:09.879Z</time></trkpt><trkpt lat="40.6071983" lon="15.044875"><ele>86.0</ele><time>2026-04-25T10:25:10.878Z</time></trkpt><trkpt lat="40.607135" lon="15.044465"><ele>92.0</ele><time>2026-04-25T10:25:11.879Z</time></trkpt><trkpt lat="40.6070717" lon="15.044055"><ele>98.0</ele><time>2026-04-25T10:25:12.878Z</time></trkpt><trkpt lat="40.60701" lon="15.0436467"><ele>91.5</ele><time>2026-04-25T10:25:13.879Z</time></trkpt><trkpt lat="40.6069517" lon="15.0432367"><ele>85.0</ele><time>2026-04-25T10:25:14.878Z</time></trkpt><trkpt lat="40.6068917" lon="15.04283"><ele>90.5</ele><time>2026-04-25T10:25:15.879Z</time></trkpt><trkpt lat="40.606825" lon="15.042425"><ele>96.0</ele><time>2026-04-25T10:25:16.879Z</time></trkpt><trkpt lat="40.6067517" lon="15.042025"><ele>102.0</ele><time>2026-04-25T10:25:17.879Z</time></trkpt><trkpt lat="40.606665" lon="15.0416267"><ele>108.0</ele><time>2026-04-25T10:25:18.878Z</time></trkpt><trkpt lat="40.60657" lon="15.0412267"><ele>108.0</ele><time>2026-04-25T10:25:19.878Z</time></trkpt><trkpt lat="40.6064667" lon="15.0408367"><ele>108.0</ele><time>2026-04-25T10:25:20.878Z</time></trkpt><trkpt lat="40.6063583" lon="15.040445"><ele>104.0</ele><time>2026-04-25T10:25:21.878Z</time></trkpt><trkpt lat="40.60623" lon="15.0400667"><ele>100.0</ele><time>2026-04-25T10:25:22.879Z</time></trkpt><trkpt lat="40.6060967" lon="15.0396917"><ele>100.0</ele><time>2026-04-25T10:25:23.879Z</time></trkpt><trkpt lat="40.60596" lon="15.03932"><ele>100.0</ele><time>2026-04-25T10:25:24.878Z</time></trkpt><trkpt lat="40.6058183" lon="15.0389483"><ele>103.5</ele><time>2026-04-25T10:25:25.878Z</time></trkpt><trkpt lat="40.6056783" lon="15.038575"><ele>107.0</ele><time>2026-04-25T10:25:26.878Z</time></trkpt><trkpt lat="40.605535" lon="15.038205"><ele>111.0</ele><time>2026-04-25T10:25:27.879Z</time></trkpt><trkpt lat="40.6053983" lon="15.037825"><ele>115.0</ele><time>2026-04-25T10:25:28.878Z</time></trkpt><trkpt lat="40.6052633" lon="15.0374483"><ele>105.0</ele><time>2026-04-25T10:25:29.878Z</time></trkpt><trkpt lat="40.6051233" lon="15.03707"><ele>95.0</ele><time>2026-04-25T10:25:30.878Z</time></trkpt><trkpt lat="40.604985" lon="15.036695"><ele>100.0</ele><time>2026-04-25T10:25:31.878Z</time></trkpt><trkpt lat="40.604845" lon="15.03632"><ele>105.0</ele><time>2026-04-25T10:25:32.878Z</time></trkpt><trkpt lat="40.6047067" lon="15.035945"><ele>111.0</ele><time>2026-04-25T10:25:33.878Z</time></trkpt><trkpt lat="40.604575" lon="15.0355633"><ele>117.0</ele><time>2026-04-25T10:25:34.879Z</time></trkpt><trkpt lat="40.6044433" lon="15.0351817"><ele>106.5</ele><time>2026-04-25T10:25:35.878Z</time></trkpt><trkpt lat="40.6043117" lon="15.0347983"><ele>96.0</ele><time>2026-04-25T10:25:36.878Z</time></trkpt><trkpt lat="40.6041817" lon="15.0344183"><ele>100.5</ele><time>2026-04-25T10:25:37.879Z</time></trkpt><trkpt lat="40.6040567" lon="15.0340383"><ele>105.0</ele><time>2026-04-25T10:25:38.879Z</time></trkpt><trkpt lat="40.60394" lon="15.033655"><ele>108.0</ele><time>2026-04-25T10:25:39.879Z</time></trkpt><trkpt lat="40.6038333" lon="15.0332683"><ele>111.0</ele><time>2026-04-25T10:25:40.878Z</time></trkpt><trkpt lat="40.603735" lon="15.0328717"><ele>104.5</ele><time>2026-04-25T10:25:41.878Z</time></trkpt><trkpt lat="40.6036467" lon="15.032475"><ele>98.0</ele><time>2026-04-25T10:25:42.878Z</time></trkpt><trkpt lat="40.603565" lon="15.0320733"><ele>98.0</ele><time>2026-04-25T10:25:43.878Z</time></trkpt><trkpt lat="40.6035017" lon="15.0316667"><ele>98.0</ele><time>2026-04-25T10:25:44.879Z</time></trkpt><trkpt lat="40.6034483" lon="15.0312583"><ele>99.5</ele><time>2026-04-25T10:25:45.878Z</time></trkpt><trkpt lat="40.6034067" lon="15.0308467"><ele>101.0</ele><time>2026-04-25T10:25:46.878Z</time></trkpt><trkpt lat="40.603375" lon="15.0304333"><ele>101.5</ele><time>2026-04-25T10:25:47.879Z</time></trkpt><trkpt lat="40.6033517" lon="15.03002"><ele>102.0</ele><time>2026-04-25T10:25:48.878Z</time></trkpt><trkpt lat="40.6033283" lon="15.0295983"><ele>100.0</ele><time>2026-04-25T10:25:49.879Z</time></trkpt><trkpt lat="40.6033067" lon="15.0291833"><ele>98.0</ele><time>2026-04-25T10:25:50.878Z</time></trkpt><trkpt lat="40.6032867" lon="15.0287667"><ele>98.0</ele><time>2026-04-25T10:25:51.878Z</time></trkpt><trkpt lat="40.6032617" lon="15.0283517"><ele>98.0</ele><time>2026-04-25T10:25:52.878Z</time></trkpt><trkpt lat="40.60324" lon="15.0279367"><ele>97.0</ele><time>2026-04-25T10:25:53.879Z</time></trkpt><trkpt lat="40.603215" lon="15.0275183"><ele>96.0</ele><time>2026-04-25T10:25:54.879Z</time></trkpt><trkpt lat="40.603185" lon="15.0271067"><ele>94.5</ele><time>2026-04-25T10:25:55.878Z</time></trkpt><trkpt lat="40.6031517" lon="15.02669"><ele>93.0</ele><time>2026-04-25T10:25:56.878Z</time></trkpt><trkpt lat="40.6031183" lon="15.0262733"><ele>92.5</ele><time>2026-04-25T10:25:57.879Z</time></trkpt><trkpt lat="40.6030833" lon="15.025855"><ele>92.0</ele><time>2026-04-25T10:25:58.879Z</time></trkpt><trkpt lat="40.603035" lon="15.0254417"><ele>92.0</ele><time>2026-04-25T10:25:59.878Z</time></trkpt><trkpt lat="40.6029767" lon="15.0250333"><ele>92.0</ele><time>2026-04-25T10:26:00.878Z</time></trkpt><trkpt lat="40.6029133" lon="15.024625"><ele>95.0</ele><time>2026-04-25T10:26:01.878Z</time></trkpt><trkpt lat="40.6028433" lon="15.0242133"><ele>98.0</ele><time>2026-04-25T10:26:02.878Z</time></trkpt><trkpt lat="40.6027733" lon="15.0238083"><ele>92.0</ele><time>2026-04-25T10:26:03.878Z</time></trkpt><trkpt lat="40.6027083" lon="15.0234"><ele>86.0</ele><time>2026-04-25T10:26:04.878Z</time></trkpt><trkpt lat="40.6026433" lon="15.022995"><ele>86.0</ele><time>2026-04-25T10:26:05.878Z</time></trkpt><trkpt lat="40.6025833" lon="15.0225883"><ele>86.0</ele><time>2026-04-25T10:26:06.879Z</time></trkpt><trkpt lat="40.6025183" lon="15.0221833"><ele>88.0</ele><time>2026-04-25T10:26:07.879Z</time></trkpt><trkpt lat="40.6024533" lon="15.021775"><ele>90.0</ele><time>2026-04-25T10:26:08.879Z</time></trkpt><trkpt lat="40.6023917" lon="15.021365"><ele>94.5</ele><time>2026-04-25T10:26:09.878Z</time></trkpt><trkpt lat="40.6023317" lon="15.0209583"><ele>99.0</ele><time>2026-04-25T10:26:10.879Z</time></trkpt><trkpt lat="40.6022733" lon="15.020545"><ele>103.0</ele><time>2026-04-25T10:26:11.878Z</time></trkpt><trkpt lat="40.60221" lon="15.0201333"><ele>107.0</ele><time>2026-04-25T10:26:12.879Z</time></trkpt><trkpt lat="40.6021467" lon="15.019725"><ele>110.5</ele><time>2026-04-25T10:26:13.879Z</time></trkpt><trkpt lat="40.6020833" lon="15.0193167"><ele>114.0</ele><time>2026-04-25T10:26:14.878Z</time></trkpt><trkpt lat="40.6020217" lon="15.018905"><ele>101.5</ele><time>2026-04-25T10:26:15.879Z</time></trkpt><trkpt lat="40.601955" lon="15.0184967"><ele>89.0</ele><time>2026-04-25T10:26:16.879Z</time></trkpt><trkpt lat="40.6018883" lon="15.0180933"><ele>89.0</ele><time>2026-04-25T10:26:17.879Z</time></trkpt><trkpt lat="40.601825" lon="15.0176833"><ele>89.0</ele><time>2026-04-25T10:26:18.879Z</time></trkpt><trkpt lat="40.6017617" lon="15.0172783"><ele>90.5</ele><time>2026-04-25T10:26:19.878Z</time></trkpt><trkpt lat="40.6016933" lon="15.0168767"><ele>92.0</ele><time>2026-04-25T10:26:20.879Z</time></trkpt><trkpt lat="40.6016283" lon="15.0164683"><ele>93.0</ele><time>2026-04-25T10:26:21.879Z</time></trkpt><trkpt lat="40.6015617" lon="15.01606"><ele>94.0</ele><time>2026-04-25T10:26:22.878Z</time></trkpt><trkpt lat="40.6014983" lon="15.0156517"><ele>96.0</ele><time>2026-04-25T10:26:23.879Z</time></trkpt><trkpt lat="40.6014333" lon="15.01524"><ele>98.0</ele><time>2026-04-25T10:26:24.879Z</time></trkpt><trkpt lat="40.6013667" lon="15.0148367"><ele>98.0</ele><time>2026-04-25T10:26:25.878Z</time></trkpt><trkpt lat="40.6013017" lon="15.01443"><ele>98.0</ele><time>2026-04-25T10:26:26.879Z</time></trkpt><trkpt lat="40.6012384" lon="15.01402"><ele>98.5</ele><time>2026-04-25T10:26:27.878Z</time></trkpt><trkpt lat="40.601185" lon="15.0136099"><ele>99.0</ele><time>2026-04-25T10:26:28.878Z</time></trkpt><trkpt lat="40.6011442" lon="15.0131979"><ele>92.5</ele><time>2026-04-25T10:26:29.879Z</time></trkpt><trkpt lat="40.6011074" lon="15.012781"><ele>86.0</ele><time>2026-04-25T10:26:30.878Z</time></trkpt><trkpt lat="40.6010793" lon="15.0123664"><ele>86.0</ele><time>2026-04-25T10:26:31.879Z</time></trkpt><trkpt lat="40.6010551" lon="15.0119515"><ele>86.0</ele><time>2026-04-25T10:26:32.878Z</time></trkpt><trkpt lat="40.6010304" lon="15.0115388"><ele>84.0</ele><time>2026-04-25T10:26:33.878Z</time></trkpt><trkpt lat="40.6010054" lon="15.0111233"><ele>82.0</ele><time>2026-04-25T10:26:34.879Z</time></trkpt><trkpt lat="40.6009741" lon="15.0107055"><ele>82.0</ele><time>2026-04-25T10:26:35.879Z</time></trkpt><trkpt lat="40.600946" lon="15.0102907"><ele>82.0</ele><time>2026-04-25T10:26:36.879Z</time></trkpt><trkpt lat="40.6009263" lon="15.0098766"><ele>82.0</ele><time>2026-04-25T10:26:37.879Z</time></trkpt><trkpt lat="40.6009202" lon="15.0094626"><ele>82.0</ele><time>2026-04-25T10:26:38.879Z</time></trkpt><trkpt lat="40.6009264" lon="15.0090492"><ele>81.5</ele><time>2026-04-25T10:26:39.879Z</time></trkpt><trkpt lat="40.6009494" lon="15.0086406"><ele>81.0</ele><time>2026-04-25T10:26:40.879Z</time></trkpt><trkpt lat="40.6009868" lon="15.0082348"><ele>79.5</ele><time>2026-04-25T10:26:41.878Z</time></trkpt><trkpt lat="40.6010399" lon="15.0078269"><ele>78.0</ele><time>2026-04-25T10:26:42.878Z</time></trkpt><trkpt lat="40.6011086" lon="15.0074189"><ele>81.5</ele><time>2026-04-25T10:26:43.878Z</time></trkpt><trkpt lat="40.6011902" lon="15.0070152"><ele>85.0</ele><time>2026-04-25T10:26:44.879Z</time></trkpt><trkpt lat="40.6012833" lon="15.0066184"><ele>85.0</ele><time>2026-04-25T10:26:45.878Z</time></trkpt><trkpt lat="40.6013929" lon="15.006225"><ele>85.0</ele><time>2026-04-25T10:26:46.879Z</time></trkpt><trkpt lat="40.6015203" lon="15.0058408"><ele>80.5</ele><time>2026-04-25T10:26:47.878Z</time></trkpt><trkpt lat="40.6016599" lon="15.0054657"><ele>76.0</ele><time>2026-04-25T10:26:48.879Z</time></trkpt><trkpt lat="40.6018157" lon="15.0051007"><ele>77.0</ele><time>2026-04-25T10:26:49.879Z</time></trkpt><trkpt lat="40.6019799" lon="15.0047438"><ele>78.0</ele><time>2026-04-25T10:26:50.878Z</time></trkpt><trkpt lat="40.6021596" lon="15.0044003"><ele>77.0</ele><time>2026-04-25T10:26:51.878Z</time></trkpt><trkpt lat="40.6023541" lon="15.004071"><ele>76.0</ele><time>2026-04-25T10:26:52.878Z</time></trkpt><trkpt lat="40.6025599" lon="15.0037557"><ele>76.0</ele><time>2026-04-25T10:26:53.878Z</time></trkpt><trkpt lat="40.6027769" lon="15.0034522"><ele>76.0</ele><time>2026-04-25T10:26:54.878Z</time></trkpt><trkpt lat="40.6030053" lon="15.0031671"><ele>76.5</ele><time>2026-04-25T10:26:55.878Z</time></trkpt><trkpt lat="40.6032397" lon="15.0028934"><ele>77.0</ele><time>2026-04-25T10:26:56.878Z</time></trkpt><trkpt lat="40.6034779" lon="15.0026231"><ele>78.0</ele><time>2026-04-25T10:26:57.879Z</time></trkpt><trkpt lat="40.6037203" lon="15.0023479"><ele>79.0</ele><time>2026-04-25T10:26:58.878Z</time></trkpt><trkpt lat="40.6039608" lon="15.0020744"><ele>79.0</ele><time>2026-04-25T10:26:59.879Z</time></trkpt><trkpt lat="40.6042023" lon="15.0018045"><ele>79.0</ele><time>2026-04-25T10:27:00.878Z</time></trkpt><trkpt lat="40.6044475" lon="15.0015381"><ele>79.0</ele><time>2026-04-25T10:27:01.878Z</time></trkpt><trkpt lat="40.6046912" lon="15.0012721"><ele>79.0</ele><time>2026-04-25T10:27:02.879Z</time></trkpt><trkpt lat="40.6049344" lon="15.0010048"><ele>79.0</ele><time>2026-04-25T10:27:03.878Z</time></trkpt><trkpt lat="40.6051745" lon="15.0007362"><ele>79.0</ele><time>2026-04-25T10:27:04.879Z</time></trkpt><trkpt lat="40.6054147" lon="15.0004652"><ele>80.5</ele><time>2026-04-25T10:27:05.879Z</time></trkpt><trkpt lat="40.6056568" lon="15.0001951"><ele>82.0</ele><time>2026-04-25T10:27:06.879Z</time></trkpt><trkpt lat="40.605899" lon="14.9999223"><ele>82.0</ele><time>2026-04-25T10:27:07.878Z</time></trkpt><trkpt lat="40.6061431" lon="14.9996527"><ele>82.0</ele><time>2026-04-25T10:27:08.879Z</time></trkpt><trkpt lat="40.6063853" lon="14.9993818"><ele>81.5</ele><time>2026-04-25T10:27:09.879Z</time></trkpt><trkpt lat="40.6066272" lon="14.9991116"><ele>81.0</ele><time>2026-04-25T10:27:10.879Z</time></trkpt><trkpt lat="40.6068713" lon="14.9988464"><ele>81.0</ele><time>2026-04-25T10:27:11.878Z</time></trkpt><trkpt lat="40.6071197" lon="14.9985838"><ele>81.0</ele><time>2026-04-25T10:27:12.879Z</time></trkpt><trkpt lat="40.6073782" lon="14.9983334"><ele>80.5</ele><time>2026-04-25T10:27:13.878Z</time></trkpt><trkpt lat="40.6076464" lon="14.9981059"><ele>80.0</ele><time>2026-04-25T10:27:14.878Z</time></trkpt><trkpt lat="40.6079197" lon="14.9978949"><ele>81.5</ele><time>2026-04-25T10:27:15.878Z</time></trkpt><trkpt lat="40.6082017" lon="14.997705"><ele>83.0</ele><time>2026-04-25T10:27:16.879Z</time></trkpt><trkpt lat="40.608485" lon="14.9975167"><ele>82.5</ele><time>2026-04-25T10:27:17.879Z</time></trkpt><trkpt lat="40.6087667" lon="14.9973267"><ele>82.0</ele><time>2026-04-25T10:27:18.879Z</time></trkpt><trkpt lat="40.60905" lon="14.99714"><ele>82.0</ele><time>2026-04-25T10:27:19.879Z</time></trkpt><trkpt lat="40.6093333" lon="14.9969517"><ele>82.0</ele><time>2026-04-25T10:27:20.879Z</time></trkpt><trkpt lat="40.6096117" lon="14.9967683"><ele>82.0</ele><time>2026-04-25T10:27:21.879Z</time></trkpt><trkpt lat="40.6098883" lon="14.9965867"><ele>82.0</ele><time>2026-04-25T10:27:22.878Z</time></trkpt><trkpt lat="40.6101667" lon="14.9963933"><ele>87.0</ele><time>2026-04-25T10:27:23.878Z</time></trkpt><trkpt lat="40.6104467" lon="14.9961967"><ele>92.0</ele><time>2026-04-25T10:27:24.878Z</time></trkpt><trkpt lat="40.610725" lon="14.9959867"><ele>89.0</ele><time>2026-04-25T10:27:25.878Z</time></trkpt><trkpt lat="40.6109933" lon="14.9957633"><ele>86.0</ele><time>2026-04-25T10:27:26.878Z</time></trkpt><trkpt lat="40.6112467" lon="14.9955267"><ele>93.5</ele><time>2026-04-25T10:27:27.878Z</time></trkpt><trkpt lat="40.6114967" lon="14.9952717"><ele>101.0</ele><time>2026-04-25T10:27:28.878Z</time></trkpt><trkpt lat="40.61174" lon="14.9950083"><ele>104.5</ele><time>2026-04-25T10:27:29.879Z</time></trkpt><trkpt lat="40.611985" lon="14.9947433"><ele>108.0</ele><time>2026-04-25T10:27:30.879Z</time></trkpt><trkpt lat="40.6122283" lon="14.9944717"><ele>108.0</ele><time>2026-04-25T10:27:31.879Z</time></trkpt><trkpt lat="40.6124683" lon="14.9941983"><ele>108.0</ele><time>2026-04-25T10:27:32.878Z</time></trkpt><trkpt lat="40.6127117" lon="14.9939283"><ele>108.5</ele><time>2026-04-25T10:27:33.879Z</time></trkpt><trkpt lat="40.6129533" lon="14.9936617"><ele>109.0</ele><time>2026-04-25T10:27:34.879Z</time></trkpt><trkpt lat="40.613195" lon="14.9933883"><ele>103.5</ele><time>2026-04-25T10:27:35.879Z</time></trkpt><trkpt lat="40.6134333" lon="14.9931217"><ele>98.0</ele><time>2026-04-25T10:27:36.878Z</time></trkpt><trkpt lat="40.61367" lon="14.9928467"><ele>100.5</ele><time>2026-04-25T10:27:37.879Z</time></trkpt><trkpt lat="40.6139017" lon="14.992565"><ele>103.0</ele><time>2026-04-25T10:27:38.878Z</time></trkpt><trkpt lat="40.6141233" lon="14.9922633"><ele>103.0</ele><time>2026-04-25T10:27:39.879Z</time></trkpt><trkpt lat="40.6143367" lon="14.9919567"><ele>103.0</ele><time>2026-04-25T10:27:40.878Z</time></trkpt><trkpt lat="40.6145433" lon="14.9916383"><ele>105.5</ele><time>2026-04-25T10:27:41.878Z</time></trkpt><trkpt lat="40.6147417" lon="14.9913133"><ele>108.0</ele><time>2026-04-25T10:27:42.878Z</time></trkpt><trkpt lat="40.6149333" lon="14.9909833"><ele>99.5</ele><time>2026-04-25T10:27:43.878Z</time></trkpt><trkpt lat="40.61512" lon="14.990645"><ele>91.0</ele><time>2026-04-25T10:27:44.878Z</time></trkpt><trkpt lat="40.6153083" lon="14.9903033"><ele>92.0</ele><time>2026-04-25T10:27:45.879Z</time></trkpt><trkpt lat="40.6154917" lon="14.9899667"><ele>93.0</ele><time>2026-04-25T10:27:46.878Z</time></trkpt><trkpt lat="40.615685" lon="14.9896317"><ele>93.0</ele><time>2026-04-25T10:27:47.878Z</time></trkpt><trkpt lat="40.6158733" lon="14.989295"><ele>93.0</ele><time>2026-04-25T10:27:48.878Z</time></trkpt><trkpt lat="40.616055" lon="14.988955"><ele>90.5</ele><time>2026-04-25T10:27:49.878Z</time></trkpt><trkpt lat="40.6162317" lon="14.9886117"><ele>88.0</ele><time>2026-04-25T10:27:50.879Z</time></trkpt><trkpt lat="40.6164067" lon="14.9882617"><ele>84.0</ele><time>2026-04-25T10:27:51.879Z</time></trkpt><trkpt lat="40.6165717" lon="14.9879033"><ele>80.0</ele><time>2026-04-25T10:27:52.879Z</time></trkpt><trkpt lat="40.616725" lon="14.9875367"><ele>77.0</ele><time>2026-04-25T10:27:53.879Z</time></trkpt><trkpt lat="40.616865" lon="14.9871567"><ele>74.0</ele><time>2026-04-25T10:27:54.879Z</time></trkpt><trkpt lat="40.6169883" lon="14.986775"><ele>71.5</ele><time>2026-04-25T10:27:55.879Z</time></trkpt><trkpt lat="40.6171" lon="14.9863867"><ele>69.0</ele><time>2026-04-25T10:27:56.878Z</time></trkpt><trkpt lat="40.6171933" lon="14.985995"><ele>67.5</ele><time>2026-04-25T10:27:57.879Z</time></trkpt><trkpt lat="40.6172733" lon="14.9855917"><ele>66.0</ele><time>2026-04-25T10:27:58.879Z</time></trkpt><trkpt lat="40.617345" lon="14.9851917"><ele>67.5</ele><time>2026-04-25T10:27:59.878Z</time></trkpt><trkpt lat="40.617405" lon="14.9847833"><ele>69.0</ele><time>2026-04-25T10:28:00.879Z</time></trkpt><trkpt lat="40.6174567" lon="14.9843733"><ele>69.5</ele><time>2026-04-25T10:28:01.878Z</time></trkpt><trkpt lat="40.6175017" lon="14.9839617"><ele>70.0</ele><time>2026-04-25T10:28:02.878Z</time></trkpt><trkpt lat="40.61755" lon="14.98355"><ele>71.5</ele><time>2026-04-25T10:28:03.879Z</time></trkpt><trkpt lat="40.6176033" lon="14.9831433"><ele>73.0</ele><time>2026-04-25T10:28:04.878Z</time></trkpt><trkpt lat="40.6176583" lon="14.9827283"><ele>72.5</ele><time>2026-04-25T10:28:05.878Z</time></trkpt><trkpt lat="40.6177189" lon="14.9823178"><ele>72.0</ele><time>2026-04-25T10:28:06.879Z</time></trkpt><trkpt lat="40.6177929" lon="14.9819108"><ele>72.5</ele><time>2026-04-25T10:28:07.879Z</time></trkpt><trkpt lat="40.6178791" lon="14.981511"><ele>73.0</ele><time>2026-04-25T10:28:08.878Z</time></trkpt><trkpt lat="40.6179855" lon="14.9811187"><ele>71.5</ele><time>2026-04-25T10:28:09.878Z</time></trkpt><trkpt lat="40.6181013" lon="14.9807342"><ele>70.0</ele><time>2026-04-25T10:28:10.878Z</time></trkpt><trkpt lat="40.6182345" lon="14.9803602"><ele>70.5</ele><time>2026-04-25T10:28:11.878Z</time></trkpt><trkpt lat="40.6183798" lon="14.9799914"><ele>71.0</ele><time>2026-04-25T10:28:12.878Z</time></trkpt><trkpt lat="40.6185384" lon="14.979626"><ele>71.0</ele><time>2026-04-25T10:28:13.879Z</time></trkpt><trkpt lat="40.6187035" lon="14.9792652"><ele>71.0</ele><time>2026-04-25T10:28:14.879Z</time></trkpt><trkpt lat="40.6188702" lon="14.9789069"><ele>71.0</ele><time>2026-04-25T10:28:15.879Z</time></trkpt><trkpt lat="40.619037" lon="14.9785488"><ele>71.0</ele><time>2026-04-25T10:28:16.878Z</time></trkpt><trkpt lat="40.6192035" lon="14.9781922"><ele>71.0</ele><time>2026-04-25T10:28:17.879Z</time></trkpt><trkpt lat="40.6193631" lon="14.977831"><ele>71.0</ele><time>2026-04-25T10:28:18.879Z</time></trkpt><trkpt lat="40.6195143" lon="14.9774667"><ele>71.0</ele><time>2026-04-25T10:28:19.878Z</time></trkpt><trkpt lat="40.6196584" lon="14.9770961"><ele>71.0</ele><time>2026-04-25T10:28:20.878Z</time></trkpt><trkpt lat="40.6197897" lon="14.9767148"><ele>71.0</ele><time>2026-04-25T10:28:21.878Z</time></trkpt><trkpt lat="40.6199077" lon="14.9763256"><ele>71.0</ele><time>2026-04-25T10:28:22.879Z</time></trkpt><trkpt lat="40.6200183" lon="14.975934"><ele>71.0</ele><time>2026-04-25T10:28:23.878Z</time></trkpt><trkpt lat="40.6201268" lon="14.9755377"><ele>71.0</ele><time>2026-04-25T10:28:24.878Z</time></trkpt><trkpt lat="40.6202228" lon="14.9751396"><ele>69.5</ele><time>2026-04-25T10:28:25.879Z</time></trkpt><trkpt lat="40.6203079" lon="14.974738"><ele>68.0</ele><time>2026-04-25T10:28:26.879Z</time></trkpt><trkpt lat="40.6203781" lon="14.9743353"><ele>68.5</ele><time>2026-04-25T10:28:27.879Z</time></trkpt><trkpt lat="40.6204379" lon="14.9739267"><ele>69.0</ele><time>2026-04-25T10:28:28.878Z</time></trkpt><trkpt lat="40.6204898" lon="14.9735175"><ele>69.0</ele><time>2026-04-25T10:28:29.878Z</time></trkpt><trkpt lat="40.6205301" lon="14.9730957"><ele>69.0</ele><time>2026-04-25T10:28:30.878Z</time></trkpt><trkpt lat="40.6205649" lon="14.972685"><ele>67.0</ele><time>2026-04-25T10:28:31.879Z</time></trkpt><trkpt lat="40.6205874" lon="14.9722717"><ele>65.0</ele><time>2026-04-25T10:28:32.879Z</time></trkpt><trkpt lat="40.6206025" lon="14.9718568"><ele>64.5</ele><time>2026-04-25T10:28:33.878Z</time></trkpt><trkpt lat="40.6206123" lon="14.9714417"><ele>64.0</ele><time>2026-04-25T10:28:34.879Z</time></trkpt><trkpt lat="40.620624" lon="14.9710227"><ele>66.0</ele><time>2026-04-25T10:28:35.878Z</time></trkpt><trkpt lat="40.6206384" lon="14.9706066"><ele>68.0</ele><time>2026-04-25T10:28:36.878Z</time></trkpt><trkpt lat="40.6206533" lon="14.9701917"><ele>67.5</ele><time>2026-04-25T10:28:37.878Z</time></trkpt><trkpt lat="40.6206699" lon="14.969773"><ele>67.0</ele><time>2026-04-25T10:28:38.879Z</time></trkpt><trkpt lat="40.6206792" lon="14.9693552"><ele>65.5</ele><time>2026-04-25T10:28:39.878Z</time></trkpt><trkpt lat="40.6206872" lon="14.9689346"><ele>64.0</ele><time>2026-04-25T10:28:40.878Z</time></trkpt><trkpt lat="40.6206966" lon="14.9685152"><ele>65.0</ele><time>2026-04-25T10:28:41.879Z</time></trkpt><trkpt lat="40.6207115" lon="14.9681012"><ele>66.0</ele><time>2026-04-25T10:28:42.878Z</time></trkpt><trkpt lat="40.6207311" lon="14.9676859"><ele>65.0</ele><time>2026-04-25T10:28:43.879Z</time></trkpt><trkpt lat="40.6207561" lon="14.9672682"><ele>64.0</ele><time>2026-04-25T10:28:44.878Z</time></trkpt><trkpt lat="40.6207829" lon="14.9668524"><ele>63.5</ele><time>2026-04-25T10:28:45.878Z</time></trkpt><trkpt lat="40.6208182" lon="14.9664373"><ele>63.0</ele><time>2026-04-25T10:28:46.879Z</time></trkpt><trkpt lat="40.6208636" lon="14.9660223"><ele>62.0</ele><time>2026-04-25T10:28:47.878Z</time></trkpt><trkpt lat="40.6209185" lon="14.965609"><ele>61.0</ele><time>2026-04-25T10:28:48.878Z</time></trkpt><trkpt lat="40.6209836" lon="14.9651989"><ele>60.0</ele><time>2026-04-25T10:28:49.879Z</time></trkpt><trkpt lat="40.621059" lon="14.9647905"><ele>59.0</ele><time>2026-04-25T10:28:50.878Z</time></trkpt><trkpt lat="40.6211383" lon="14.9643874"><ele>60.0</ele><time>2026-04-25T10:28:51.878Z</time></trkpt><trkpt lat="40.6212247" lon="14.9639877"><ele>61.0</ele><time>2026-04-25T10:28:52.878Z</time></trkpt><trkpt lat="40.6213187" lon="14.9635896"><ele>60.0</ele><time>2026-04-25T10:28:53.878Z</time></trkpt><trkpt lat="40.6214178" lon="14.9631934"><ele>59.0</ele><time>2026-04-25T10:28:54.879Z</time></trkpt><trkpt lat="40.6215211" lon="14.9627985"><ele>58.0</ele><time>2026-04-25T10:28:55.878Z</time></trkpt><trkpt lat="40.6216246" lon="14.9624024"><ele>57.0</ele><time>2026-04-25T10:28:56.878Z</time></trkpt><trkpt lat="40.6217268" lon="14.9620083"><ele>57.5</ele><time>2026-04-25T10:28:57.878Z</time></trkpt><trkpt lat="40.6218324" lon="14.961615"><ele>58.0</ele><time>2026-04-25T10:28:58.879Z</time></trkpt><trkpt lat="40.6219374" lon="14.9612198"><ele>59.0</ele><time>2026-04-25T10:28:59.878Z</time></trkpt><trkpt lat="40.6220425" lon="14.9608286"><ele>60.0</ele><time>2026-04-25T10:29:00.878Z</time></trkpt><trkpt lat="40.6221451" lon="14.9604373"><ele>60.0</ele><time>2026-04-25T10:29:01.879Z</time></trkpt><trkpt lat="40.6222507" lon="14.9600457"><ele>60.0</ele><time>2026-04-25T10:29:02.879Z</time></trkpt><trkpt lat="40.6223571" lon="14.9596513"><ele>60.5</ele><time>2026-04-25T10:29:03.879Z</time></trkpt><trkpt lat="40.6224625" lon="14.95926"><ele>61.0</ele><time>2026-04-25T10:29:04.878Z</time></trkpt><trkpt lat="40.6225653" lon="14.9588661"><ele>61.0</ele><time>2026-04-25T10:29:05.878Z</time></trkpt><trkpt lat="40.6226709" lon="14.9584773"><ele>61.0</ele><time>2026-04-25T10:29:06.879Z</time></trkpt><trkpt lat="40.6227798" lon="14.9580842"><ele>62.0</ele><time>2026-04-25T10:29:07.879Z</time></trkpt><trkpt lat="40.6228918" lon="14.9576949"><ele>63.0</ele><time>2026-04-25T10:29:08.879Z</time></trkpt><trkpt lat="40.6230075" lon="14.9573028"><ele>64.0</ele><time>2026-04-25T10:29:09.878Z</time></trkpt><trkpt lat="40.6231264" lon="14.956914"><ele>65.0</ele><time>2026-04-25T10:29:10.879Z</time></trkpt><trkpt lat="40.6232462" lon="14.9565297"><ele>65.0</ele><time>2026-04-25T10:29:11.878Z</time></trkpt><trkpt lat="40.6233689" lon="14.9561416"><ele>65.0</ele><time>2026-04-25T10:29:12.878Z</time></trkpt><trkpt lat="40.6234955" lon="14.9557564"><ele>65.0</ele><time>2026-04-25T10:29:13.878Z</time></trkpt><trkpt lat="40.6236285" lon="14.9553753"><ele>65.0</ele><time>2026-04-25T10:29:14.878Z</time></trkpt><trkpt lat="40.6237603" lon="14.9549946"><ele>67.0</ele><time>2026-04-25T10:29:15.879Z</time></trkpt><trkpt lat="40.6239001" lon="14.9546208"><ele>69.0</ele><time>2026-04-25T10:29:16.878Z</time></trkpt><trkpt lat="40.6240406" lon="14.9542463"><ele>67.5</ele><time>2026-04-25T10:29:17.878Z</time></trkpt><trkpt lat="40.6241837" lon="14.953873"><ele>66.0</ele><time>2026-04-25T10:29:18.878Z</time></trkpt><trkpt lat="40.6243293" lon="14.9535029"><ele>66.0</ele><time>2026-04-25T10:29:19.879Z</time></trkpt><trkpt lat="40.6244755" lon="14.9531323"><ele>66.0</ele><time>2026-04-25T10:29:20.879Z</time></trkpt><trkpt lat="40.6246198" lon="14.95276"><ele>66.0</ele><time>2026-04-25T10:29:21.879Z</time></trkpt><trkpt lat="40.624767" lon="14.9523863"><ele>66.0</ele><time>2026-04-25T10:29:22.879Z</time></trkpt><trkpt lat="40.6249106" lon="14.9520123"><ele>64.0</ele><time>2026-04-25T10:29:23.879Z</time></trkpt><trkpt lat="40.6250549" lon="14.9516364"><ele>62.0</ele><time>2026-04-25T10:29:24.879Z</time></trkpt><trkpt lat="40.6251985" lon="14.9512587"><ele>62.5</ele><time>2026-04-25T10:29:25.878Z</time></trkpt><trkpt lat="40.6253406" lon="14.9508855"><ele>63.0</ele><time>2026-04-25T10:29:26.879Z</time></trkpt><trkpt lat="40.6254814" lon="14.950516"><ele>61.5</ele><time>2026-04-25T10:29:27.879Z</time></trkpt><trkpt lat="40.6256248" lon="14.9501496"><ele>60.0</ele><time>2026-04-25T10:29:28.878Z</time></trkpt><trkpt lat="40.6257729" lon="14.9497859"><ele>60.0</ele><time>2026-04-25T10:29:29.878Z</time></trkpt><trkpt lat="40.6259201" lon="14.9494176"><ele>60.0</ele><time>2026-04-25T10:29:30.878Z</time></trkpt><trkpt lat="40.6260634" lon="14.9490467"><ele>60.5</ele><time>2026-04-25T10:29:31.879Z</time></trkpt><trkpt lat="40.6262117" lon="14.9486771"><ele>61.0</ele><time>2026-04-25T10:29:32.878Z</time></trkpt><trkpt lat="40.6263588" lon="14.9483062"><ele>61.0</ele><time>2026-04-25T10:29:33.878Z</time></trkpt><trkpt lat="40.6265068" lon="14.9479358"><ele>61.0</ele><time>2026-04-25T10:29:34.879Z</time></trkpt><trkpt lat="40.6266537" lon="14.9475642"><ele>61.0</ele><time>2026-04-25T10:29:35.878Z</time></trkpt><trkpt lat="40.6267946" lon="14.9471896"><ele>61.0</ele><time>2026-04-25T10:29:36.878Z</time></trkpt><trkpt lat="40.6269346" lon="14.9468131"><ele>62.0</ele><time>2026-04-25T10:29:37.879Z</time></trkpt><trkpt lat="40.6270673" lon="14.9464358"><ele>63.0</ele><time>2026-04-25T10:29:38.878Z</time></trkpt><trkpt lat="40.6271967" lon="14.9460546"><ele>62.5</ele><time>2026-04-25T10:29:39.879Z</time></trkpt><trkpt lat="40.6273204" lon="14.9456738"><ele>62.0</ele><time>2026-04-25T10:29:40.879Z</time></trkpt><trkpt lat="40.6274433" lon="14.9452885"><ele>62.5</ele><time>2026-04-25T10:29:41.879Z</time></trkpt><trkpt lat="40.6275534" lon="14.9448976"><ele>63.0</ele><time>2026-04-25T10:29:42.879Z</time></trkpt><trkpt lat="40.6276633" lon="14.9445167"><ele>63.0</ele><time>2026-04-25T10:29:43.879Z</time></trkpt><trkpt lat="40.627765" lon="14.94412"><ele>63.0</ele><time>2026-04-25T10:29:44.879Z</time></trkpt><trkpt lat="40.6278617" lon="14.94372"><ele>64.0</ele><time>2026-04-25T10:29:45.879Z</time></trkpt><trkpt lat="40.6279467" lon="14.943315"><ele>65.0</ele><time>2026-04-25T10:29:46.878Z</time></trkpt><trkpt lat="40.6280233" lon="14.94291"><ele>65.0</ele><time>2026-04-25T10:29:47.878Z</time></trkpt><trkpt lat="40.6280917" lon="14.942505"><ele>65.0</ele><time>2026-04-25T10:29:48.878Z</time></trkpt><trkpt lat="40.62815" lon="14.9420933"><ele>65.0</ele><time>2026-04-25T10:29:49.879Z</time></trkpt><trkpt lat="40.6281983" lon="14.9416867"><ele>65.0</ele><time>2026-04-25T10:29:50.879Z</time></trkpt><trkpt lat="40.6282367" lon="14.941275"><ele>64.5</ele><time>2026-04-25T10:29:51.878Z</time></trkpt><trkpt lat="40.6282683" lon="14.9408583"><ele>64.0</ele><time>2026-04-25T10:29:52.878Z</time></trkpt><trkpt lat="40.628295" lon="14.940445"><ele>64.0</ele><time>2026-04-25T10:29:53.879Z</time></trkpt><trkpt lat="40.6283167" lon="14.9400283"><ele>64.0</ele><time>2026-04-25T10:29:54.879Z</time></trkpt><trkpt lat="40.62834" lon="14.9396067"><ele>64.0</ele><time>2026-04-25T10:29:55.878Z</time></trkpt><trkpt lat="40.6283583" lon="14.93919"><ele>64.0</ele><time>2026-04-25T10:29:56.878Z</time></trkpt><trkpt lat="40.6283783" lon="14.9387733"><ele>63.5</ele><time>2026-04-25T10:29:57.879Z</time></trkpt><trkpt lat="40.628395" lon="14.938355"><ele>63.0</ele><time>2026-04-25T10:29:58.878Z</time></trkpt><trkpt lat="40.628415" lon="14.9379367"><ele>61.5</ele><time>2026-04-25T10:29:59.878Z</time></trkpt><trkpt lat="40.6284417" lon="14.9375217"><ele>60.0</ele><time>2026-04-25T10:30:00.878Z</time></trkpt><trkpt lat="40.6284667" lon="14.9371067"><ele>60.0</ele><time>2026-04-25T10:30:01.878Z</time></trkpt><trkpt lat="40.62849" lon="14.936695"><ele>60.0</ele><time>2026-04-25T10:30:02.879Z</time></trkpt><trkpt lat="40.6285217" lon="14.9362817"><ele>59.0</ele><time>2026-04-25T10:30:03.878Z</time></trkpt><trkpt lat="40.6285567" lon="14.93587"><ele>58.0</ele><time>2026-04-25T10:30:04.879Z</time></trkpt><trkpt lat="40.6286017" lon="14.935455"><ele>58.5</ele><time>2026-04-25T10:30:05.879Z</time></trkpt><trkpt lat="40.6286583" lon="14.9350433"><ele>59.0</ele><time>2026-04-25T10:30:06.879Z</time></trkpt><trkpt lat="40.6287133" lon="14.9346317"><ele>59.0</ele><time>2026-04-25T10:30:07.879Z</time></trkpt><trkpt lat="40.6287767" lon="14.9342233"><ele>59.0</ele><time>2026-04-25T10:30:08.878Z</time></trkpt><trkpt lat="40.6288517" lon="14.9338167"><ele>58.5</ele><time>2026-04-25T10:30:09.879Z</time></trkpt><trkpt lat="40.6289333" lon="14.9334117"><ele>58.0</ele><time>2026-04-25T10:30:10.878Z</time></trkpt><trkpt lat="40.6290233" lon="14.9330083"><ele>58.0</ele><time>2026-04-25T10:30:11.878Z</time></trkpt><trkpt lat="40.6291217" lon="14.93261"><ele>58.0</ele><time>2026-04-25T10:30:12.878Z</time></trkpt><trkpt lat="40.6292283" lon="14.93222"><ele>58.5</ele><time>2026-04-25T10:30:13.879Z</time></trkpt><trkpt lat="40.62934" lon="14.9318267"><ele>59.0</ele><time>2026-04-25T10:30:14.878Z</time></trkpt><trkpt lat="40.6294567" lon="14.931435"><ele>59.0</ele><time>2026-04-25T10:30:15.878Z</time></trkpt><trkpt lat="40.6295817" lon="14.9310467"><ele>59.0</ele><time>2026-04-25T10:30:16.878Z</time></trkpt><trkpt lat="40.6297" lon="14.9306633"><ele>59.0</ele><time>2026-04-25T10:30:17.879Z</time></trkpt><trkpt lat="40.629825" lon="14.9302783"><ele>59.0</ele><time>2026-04-25T10:30:18.878Z</time></trkpt><trkpt lat="40.6299517" lon="14.929895"><ele>59.0</ele><time>2026-04-25T10:30:19.879Z</time></trkpt><trkpt lat="40.6300767" lon="14.92951"><ele>59.0</ele><time>2026-04-25T10:30:20.879Z</time></trkpt><trkpt lat="40.6302033" lon="14.929125"><ele>59.5</ele><time>2026-04-25T10:30:21.879Z</time></trkpt><trkpt lat="40.6303283" lon="14.9287433"><ele>60.0</ele><time>2026-04-25T10:30:22.878Z</time></trkpt><trkpt lat="40.6304567" lon="14.92836"><ele>58.0</ele><time>2026-04-25T10:30:23.878Z</time></trkpt><trkpt lat="40.6305817" lon="14.9279783"><ele>56.0</ele><time>2026-04-25T10:30:24.878Z</time></trkpt><trkpt lat="40.6307133" lon="14.9275967"><ele>55.5</ele><time>2026-04-25T10:30:25.879Z</time></trkpt><trkpt lat="40.6308417" lon="14.9272133"><ele>55.0</ele><time>2026-04-25T10:30:26.878Z</time></trkpt><trkpt lat="40.6309667" lon="14.9268333"><ele>55.0</ele><time>2026-04-25T10:30:27.879Z</time></trkpt><trkpt lat="40.6310933" lon="14.92645"><ele>55.0</ele><time>2026-04-25T10:30:28.878Z</time></trkpt><trkpt lat="40.6312233" lon="14.9260683"><ele>54.0</ele><time>2026-04-25T10:30:29.879Z</time></trkpt><trkpt lat="40.6313483" lon="14.9256867"><ele>53.0</ele><time>2026-04-25T10:30:30.879Z</time></trkpt><trkpt lat="40.6314733" lon="14.9253067"><ele>52.0</ele><time>2026-04-25T10:30:31.879Z</time></trkpt><trkpt lat="40.6316017" lon="14.924925"><ele>51.0</ele><time>2026-04-25T10:30:32.879Z</time></trkpt><trkpt lat="40.6317283" lon="14.9245383"><ele>50.5</ele><time>2026-04-25T10:30:33.879Z</time></trkpt><trkpt lat="40.6318583" lon="14.924155"><ele>50.0</ele><time>2026-04-25T10:30:34.878Z</time></trkpt><trkpt lat="40.6319867" lon="14.9237717"><ele>51.0</ele><time>2026-04-25T10:30:35.879Z</time></trkpt><trkpt lat="40.6321167" lon="14.9233933"><ele>52.0</ele><time>2026-04-25T10:30:36.878Z</time></trkpt><trkpt lat="40.6322433" lon="14.92301"><ele>52.0</ele><time>2026-04-25T10:30:37.878Z</time></trkpt><trkpt lat="40.6323717" lon="14.9226267"><ele>52.0</ele><time>2026-04-25T10:30:38.879Z</time></trkpt><trkpt lat="40.6324967" lon="14.922245"><ele>51.0</ele><time>2026-04-25T10:30:39.879Z</time></trkpt><trkpt lat="40.6326233" lon="14.921865"><ele>50.0</ele><time>2026-04-25T10:30:40.879Z</time></trkpt><trkpt lat="40.6327483" lon="14.92148"><ele>50.5</ele><time>2026-04-25T10:30:41.878Z</time></trkpt><trkpt lat="40.6328733" lon="14.921095"><ele>51.0</ele><time>2026-04-25T10:30:42.879Z</time></trkpt><trkpt lat="40.6330017" lon="14.920715"><ele>50.0</ele><time>2026-04-25T10:30:43.879Z</time></trkpt><trkpt lat="40.63313" lon="14.9203317"><ele>49.0</ele><time>2026-04-25T10:30:44.879Z</time></trkpt><trkpt lat="40.6332567" lon="14.9199483"><ele>48.5</ele><time>2026-04-25T10:30:45.878Z</time></trkpt><trkpt lat="40.6333833" lon="14.9195667"><ele>48.0</ele><time>2026-04-25T10:30:46.879Z</time></trkpt><trkpt lat="40.6335117" lon="14.91919"><ele>47.5</ele><time>2026-04-25T10:30:47.879Z</time></trkpt><trkpt lat="40.6336433" lon="14.9188083"><ele>47.0</ele><time>2026-04-25T10:30:48.878Z</time></trkpt><trkpt lat="40.6337733" lon="14.9184267"><ele>46.0</ele><time>2026-04-25T10:30:49.878Z</time></trkpt><trkpt lat="40.6339" lon="14.9180417"><ele>45.0</ele><time>2026-04-25T10:30:50.879Z</time></trkpt><trkpt lat="40.63403" lon="14.9176567"><ele>44.5</ele><time>2026-04-25T10:30:51.879Z</time></trkpt><trkpt lat="40.6341583" lon="14.9172717"><ele>44.0</ele><time>2026-04-25T10:30:52.879Z</time></trkpt><trkpt lat="40.6342867" lon="14.9168867"><ele>43.0</ele><time>2026-04-25T10:30:53.878Z</time></trkpt><trkpt lat="40.6344133" lon="14.916505"><ele>42.0</ele><time>2026-04-25T10:30:54.878Z</time></trkpt><trkpt lat="40.6345417" lon="14.9161233"><ele>42.0</ele><time>2026-04-25T10:30:55.878Z</time></trkpt><trkpt lat="40.634665" lon="14.9157383"><ele>42.0</ele><time>2026-04-25T10:30:56.879Z</time></trkpt><trkpt lat="40.6347883" lon="14.915355"><ele>42.0</ele><time>2026-04-25T10:30:57.878Z</time></trkpt><trkpt lat="40.63491" lon="14.9149667"><ele>42.0</ele><time>2026-04-25T10:30:58.878Z</time></trkpt><trkpt lat="40.6350433" lon="14.9145883"><ele>41.0</ele><time>2026-04-25T10:30:59.879Z</time></trkpt><trkpt lat="40.6351733" lon="14.914205"><ele>40.0</ele><time>2026-04-25T10:31:00.878Z</time></trkpt><trkpt lat="40.6353017" lon="14.91382"><ele>39.0</ele><time>2026-04-25T10:31:01.879Z</time></trkpt><trkpt lat="40.6354267" lon="14.9134383"><ele>38.0</ele><time>2026-04-25T10:31:02.878Z</time></trkpt><trkpt lat="40.6355517" lon="14.9130583"><ele>38.0</ele><time>2026-04-25T10:31:03.878Z</time></trkpt><trkpt lat="40.6356783" lon="14.9126783"><ele>38.0</ele><time>2026-04-25T10:31:04.879Z</time></trkpt><trkpt lat="40.635805" lon="14.9122933"><ele>38.5</ele><time>2026-04-25T10:31:05.878Z</time></trkpt><trkpt lat="40.6359267" lon="14.911915"><ele>39.0</ele><time>2026-04-25T10:31:06.879Z</time></trkpt><trkpt lat="40.6360567" lon="14.911535"><ele>39.0</ele><time>2026-04-25T10:31:07.879Z</time></trkpt><trkpt lat="40.63618" lon="14.9111517"><ele>39.0</ele><time>2026-04-25T10:31:08.879Z</time></trkpt><trkpt lat="40.636315" lon="14.910775"><ele>38.0</ele><time>2026-04-25T10:31:09.879Z</time></trkpt><trkpt lat="40.6364467" lon="14.910395"><ele>37.0</ele><time>2026-04-25T10:31:10.879Z</time></trkpt><trkpt lat="40.6365767" lon="14.9100117"><ele>36.5</ele><time>2026-04-25T10:31:11.879Z</time></trkpt><trkpt lat="40.63671" lon="14.9096283"><ele>36.0</ele><time>2026-04-25T10:31:12.879Z</time></trkpt><trkpt lat="40.6368367" lon="14.9092467"><ele>37.0</ele><time>2026-04-25T10:31:13.878Z</time></trkpt><trkpt lat="40.6369667" lon="14.9088667"><ele>38.0</ele><time>2026-04-25T10:31:14.878Z</time></trkpt><trkpt lat="40.6371" lon="14.908485"><ele>39.0</ele><time>2026-04-25T10:31:15.879Z</time></trkpt><trkpt lat="40.6372367" lon="14.908105"><ele>40.0</ele><time>2026-04-25T10:31:16.878Z</time></trkpt><trkpt lat="40.637375" lon="14.90773"><ele>40.0</ele><time>2026-04-25T10:31:17.878Z</time></trkpt><trkpt lat="40.6375217" lon="14.9073567"><ele>40.0</ele><time>2026-04-25T10:31:18.878Z</time></trkpt><trkpt lat="40.6376733" lon="14.9069883"><ele>40.0</ele><time>2026-04-25T10:31:19.879Z</time></trkpt><trkpt lat="40.6378317" lon="14.9066217"><ele>40.0</ele><time>2026-04-25T10:31:20.878Z</time></trkpt><trkpt lat="40.6379917" lon="14.9062633"><ele>39.5</ele><time>2026-04-25T10:31:21.878Z</time></trkpt><trkpt lat="40.6381517" lon="14.9059067"><ele>39.0</ele><time>2026-04-25T10:31:22.879Z</time></trkpt><trkpt lat="40.6383167" lon="14.9055483"><ele>39.0</ele><time>2026-04-25T10:31:23.879Z</time></trkpt><trkpt lat="40.63848" lon="14.905195"><ele>39.0</ele><time>2026-04-25T10:31:24.879Z</time></trkpt><trkpt lat="40.6386417" lon="14.9048367"><ele>39.0</ele><time>2026-04-25T10:31:25.879Z</time></trkpt><trkpt lat="40.6388033" lon="14.9044767"><ele>39.0</ele><time>2026-04-25T10:31:26.879Z</time></trkpt><trkpt lat="40.6389633" lon="14.9041167"><ele>39.0</ele><time>2026-04-25T10:31:27.878Z</time></trkpt><trkpt lat="40.6391267" lon="14.9037567"><ele>39.0</ele><time>2026-04-25T10:31:28.879Z</time></trkpt><trkpt lat="40.6392883" lon="14.9033967"><ele>39.5</ele><time>2026-04-25T10:31:29.879Z</time></trkpt><trkpt lat="40.6394533" lon="14.9030417"><ele>40.0</ele><time>2026-04-25T10:31:30.878Z</time></trkpt><trkpt lat="40.6396183" lon="14.9026817"><ele>40.0</ele><time>2026-04-25T10:31:31.878Z</time></trkpt><trkpt lat="40.6397833" lon="14.902325"><ele>40.0</ele><time>2026-04-25T10:31:32.879Z</time></trkpt><trkpt lat="40.6399483" lon="14.901965"><ele>39.5</ele><time>2026-04-25T10:31:33.879Z</time></trkpt><trkpt lat="40.6401133" lon="14.901605"><ele>39.0</ele><time>2026-04-25T10:31:34.878Z</time></trkpt><trkpt lat="40.6402733" lon="14.9012467"><ele>39.5</ele><time>2026-04-25T10:31:35.879Z</time></trkpt><trkpt lat="40.640435" lon="14.9008833"><ele>40.0</ele><time>2026-04-25T10:31:36.878Z</time></trkpt><trkpt lat="40.6405967" lon="14.9005267"><ele>40.0</ele><time>2026-04-25T10:31:37.879Z</time></trkpt><trkpt lat="40.640755" lon="14.9001633"><ele>40.0</ele><time>2026-04-25T10:31:38.878Z</time></trkpt><trkpt lat="40.640915" lon="14.8998067"><ele>39.5</ele><time>2026-04-25T10:31:39.878Z</time></trkpt><trkpt lat="40.641075" lon="14.899445"><ele>39.0</ele><time>2026-04-25T10:31:40.878Z</time></trkpt><trkpt lat="40.641235" lon="14.8990867"><ele>38.5</ele><time>2026-04-25T10:31:41.878Z</time></trkpt><trkpt lat="40.6413967" lon="14.8987267"><ele>38.0</ele><time>2026-04-25T10:31:42.879Z</time></trkpt><trkpt lat="40.64156" lon="14.8983633"><ele>37.5</ele><time>2026-04-25T10:31:43.879Z</time></trkpt><trkpt lat="40.6417267" lon="14.898"><ele>37.0</ele><time>2026-04-25T10:31:44.878Z</time></trkpt><trkpt lat="40.6418883" lon="14.89764"><ele>38.0</ele><time>2026-04-25T10:31:45.878Z</time></trkpt><trkpt lat="40.6420517" lon="14.897285"><ele>39.0</ele><time>2026-04-25T10:31:46.879Z</time></trkpt><trkpt lat="40.6422117" lon="14.89693"><ele>39.0</ele><time>2026-04-25T10:31:47.878Z</time></trkpt><trkpt lat="40.6423783" lon="14.896575"><ele>39.0</ele><time>2026-04-25T10:31:48.879Z</time></trkpt><trkpt lat="40.64254" lon="14.8962233"><ele>39.5</ele><time>2026-04-25T10:31:49.879Z</time></trkpt><trkpt lat="40.642705" lon="14.8958633"><ele>40.0</ele><time>2026-04-25T10:31:50.879Z</time></trkpt><trkpt lat="40.642875" lon="14.8955117"><ele>40.5</ele><time>2026-04-25T10:31:51.878Z</time></trkpt><trkpt lat="40.6430383" lon="14.8951517"><ele>41.0</ele><time>2026-04-25T10:31:52.879Z</time></trkpt><trkpt lat="40.6431967" lon="14.8947967"><ele>41.0</ele><time>2026-04-25T10:31:53.878Z</time></trkpt><trkpt lat="40.6433633" lon="14.894435"><ele>41.0</ele><time>2026-04-25T10:31:54.879Z</time></trkpt><trkpt lat="40.643525" lon="14.8940783"><ele>42.0</ele><time>2026-04-25T10:31:55.878Z</time></trkpt><trkpt lat="40.6436867" lon="14.8937217"><ele>43.0</ele><time>2026-04-25T10:31:56.878Z</time></trkpt><trkpt lat="40.64385" lon="14.8933633"><ele>43.0</ele><time>2026-04-25T10:31:57.878Z</time></trkpt><trkpt lat="40.6440117" lon="14.8930067"><ele>43.0</ele><time>2026-04-25T10:31:58.878Z</time></trkpt><trkpt lat="40.644175" lon="14.8926483"><ele>43.5</ele><time>2026-04-25T10:31:59.878Z</time></trkpt><trkpt lat="40.644335" lon="14.8922867"><ele>44.0</ele><time>2026-04-25T10:32:00.879Z</time></trkpt><trkpt lat="40.644495" lon="14.8919233"><ele>45.0</ele><time>2026-04-25T10:32:01.879Z</time></trkpt><trkpt lat="40.644655" lon="14.8915667"><ele>46.0</ele><time>2026-04-25T10:32:02.879Z</time></trkpt><trkpt lat="40.6448167" lon="14.8912067"><ele>45.0</ele><time>2026-04-25T10:32:03.879Z</time></trkpt><trkpt lat="40.6449767" lon="14.890845"><ele>44.0</ele><time>2026-04-25T10:32:04.879Z</time></trkpt><trkpt lat="40.6451333" lon="14.8904867"><ele>44.0</ele><time>2026-04-25T10:32:05.879Z</time></trkpt><trkpt lat="40.6452917" lon="14.890125"><ele>44.0</ele><time>2026-04-25T10:32:06.878Z</time></trkpt><trkpt lat="40.6454517" lon="14.8897633"><ele>45.0</ele><time>2026-04-25T10:32:07.879Z</time></trkpt><trkpt lat="40.6456117" lon="14.8893983"><ele>46.0</ele><time>2026-04-25T10:32:08.879Z</time></trkpt><trkpt lat="40.6457733" lon="14.8890333"><ele>46.0</ele><time>2026-04-25T10:32:09.879Z</time></trkpt><trkpt lat="40.6459317" lon="14.888675"><ele>46.0</ele><time>2026-04-25T10:32:10.878Z</time></trkpt><trkpt lat="40.6460897" lon="14.8883124"><ele>45.5</ele><time>2026-04-25T10:32:11.879Z</time></trkpt><trkpt lat="40.6462448" lon="14.8879498"><ele>45.0</ele><time>2026-04-25T10:32:12.879Z</time></trkpt><trkpt lat="40.6464043" lon="14.8875918"><ele>44.0</ele><time>2026-04-25T10:32:13.878Z</time></trkpt><trkpt lat="40.6465619" lon="14.8872314"><ele>43.0</ele><time>2026-04-25T10:32:14.878Z</time></trkpt><trkpt lat="40.6467201" lon="14.8868711"><ele>43.0</ele><time>2026-04-25T10:32:15.878Z</time></trkpt><trkpt lat="40.646883" lon="14.8865084"><ele>43.0</ele><time>2026-04-25T10:32:16.878Z</time></trkpt><trkpt lat="40.6470452" lon="14.8861476"><ele>43.5</ele><time>2026-04-25T10:32:17.879Z</time></trkpt><trkpt lat="40.6472059" lon="14.885787"><ele>44.0</ele><time>2026-04-25T10:32:18.879Z</time></trkpt><trkpt lat="40.6473639" lon="14.8854233"><ele>43.0</ele><time>2026-04-25T10:32:19.879Z</time></trkpt><trkpt lat="40.6475218" lon="14.8850602"><ele>42.0</ele><time>2026-04-25T10:32:20.878Z</time></trkpt><trkpt lat="40.6476871" lon="14.8846978"><ele>42.0</ele><time>2026-04-25T10:32:21.879Z</time></trkpt><trkpt lat="40.6478497" lon="14.8843399"><ele>42.0</ele><time>2026-04-25T10:32:22.878Z</time></trkpt><trkpt lat="40.6480117" lon="14.8839806"><ele>42.0</ele><time>2026-04-25T10:32:23.878Z</time></trkpt><trkpt lat="40.6481725" lon="14.8836181"><ele>42.0</ele><time>2026-04-25T10:32:24.879Z</time></trkpt><trkpt lat="40.648335" lon="14.8832598"><ele>41.5</ele><time>2026-04-25T10:32:25.878Z</time></trkpt><trkpt lat="40.6484926" lon="14.8828948"><ele>41.0</ele><time>2026-04-25T10:32:26.879Z</time></trkpt><trkpt lat="40.648647" lon="14.8825291"><ele>41.0</ele><time>2026-04-25T10:32:27.879Z</time></trkpt><trkpt lat="40.6488028" lon="14.8821626"><ele>41.0</ele><time>2026-04-25T10:32:28.878Z</time></trkpt><trkpt lat="40.6489603" lon="14.881795"><ele>40.5</ele><time>2026-04-25T10:32:29.878Z</time></trkpt><trkpt lat="40.6491207" lon="14.8814328"><ele>40.0</ele><time>2026-04-25T10:32:30.878Z</time></trkpt><trkpt lat="40.6492797" lon="14.8810724"><ele>40.0</ele><time>2026-04-25T10:32:31.879Z</time></trkpt><trkpt lat="40.6494383" lon="14.8807147"><ele>40.0</ele><time>2026-04-25T10:32:32.878Z</time></trkpt><trkpt lat="40.6495976" lon="14.880357"><ele>39.0</ele><time>2026-04-25T10:32:33.879Z</time></trkpt><trkpt lat="40.6497613" lon="14.8799922"><ele>38.0</ele><time>2026-04-25T10:32:34.878Z</time></trkpt><trkpt lat="40.6499237" lon="14.8796282"><ele>38.0</ele><time>2026-04-25T10:32:35.879Z</time></trkpt><trkpt lat="40.6500882" lon="14.8792628"><ele>38.0</ele><time>2026-04-25T10:32:36.878Z</time></trkpt><trkpt lat="40.6502494" lon="14.8788993"><ele>38.5</ele><time>2026-04-25T10:32:37.878Z</time></trkpt><trkpt lat="40.6504097" lon="14.8785337"><ele>39.0</ele><time>2026-04-25T10:32:38.877Z</time></trkpt><trkpt lat="40.6505697" lon="14.8781757"><ele>37.5</ele><time>2026-04-25T10:32:39.877Z</time></trkpt><trkpt lat="40.6507274" lon="14.8778154"><ele>36.0</ele><time>2026-04-25T10:32:40.878Z</time></trkpt><trkpt lat="40.650885" lon="14.8774585"><ele>36.0</ele><time>2026-04-25T10:32:41.877Z</time></trkpt><trkpt lat="40.6510443" lon="14.8770994"><ele>36.0</ele><time>2026-04-25T10:32:42.878Z</time></trkpt><trkpt lat="40.6512054" lon="14.8767372"><ele>36.0</ele><time>2026-04-25T10:32:43.877Z</time></trkpt><trkpt lat="40.6513611" lon="14.8763717"><ele>36.0</ele><time>2026-04-25T10:32:44.878Z</time></trkpt><trkpt lat="40.6515246" lon="14.876011"><ele>36.0</ele><time>2026-04-25T10:32:45.877Z</time></trkpt><trkpt lat="40.6516868" lon="14.8756549"><ele>36.0</ele><time>2026-04-25T10:32:46.878Z</time></trkpt><trkpt lat="40.6518486" lon="14.8752976"><ele>35.0</ele><time>2026-04-25T10:32:47.878Z</time></trkpt><trkpt lat="40.6520104" lon="14.8749396"><ele>34.0</ele><time>2026-04-25T10:32:48.878Z</time></trkpt><trkpt lat="40.6521695" lon="14.874583"><ele>32.5</ele><time>2026-04-25T10:32:49.878Z</time></trkpt><trkpt lat="40.6523304" lon="14.8742229"><ele>31.0</ele><time>2026-04-25T10:32:50.878Z</time></trkpt><trkpt lat="40.6524919" lon="14.8738626"><ele>31.0</ele><time>2026-04-25T10:32:51.878Z</time></trkpt><trkpt lat="40.65265" lon="14.8735015"><ele>31.0</ele><time>2026-04-25T10:32:52.877Z</time></trkpt><trkpt lat="40.6528057" lon="14.8731413"><ele>31.0</ele><time>2026-04-25T10:32:53.877Z</time></trkpt><trkpt lat="40.6529594" lon="14.8727805"><ele>31.0</ele><time>2026-04-25T10:32:54.878Z</time></trkpt><trkpt lat="40.6531104" lon="14.8724146"><ele>31.0</ele><time>2026-04-25T10:32:55.877Z</time></trkpt><trkpt lat="40.6532609" lon="14.8720475"><ele>31.0</ele><time>2026-04-25T10:32:56.878Z</time></trkpt><trkpt lat="40.6534099" lon="14.8716796"><ele>31.5</ele><time>2026-04-25T10:32:57.878Z</time></trkpt><trkpt lat="40.6535585" lon="14.8713124"><ele>32.0</ele><time>2026-04-25T10:32:58.878Z</time></trkpt><trkpt lat="40.6537105" lon="14.8709446"><ele>34.5</ele><time>2026-04-25T10:32:59.877Z</time></trkpt><trkpt lat="40.6538622" lon="14.8705764"><ele>37.0</ele><time>2026-04-25T10:33:00.878Z</time></trkpt><trkpt lat="40.6540115" lon="14.8702069"><ele>38.5</ele><time>2026-04-25T10:33:01.878Z</time></trkpt><trkpt lat="40.6541612" lon="14.8698409"><ele>40.0</ele><time>2026-04-25T10:33:02.878Z</time></trkpt><trkpt lat="40.6543122" lon="14.8694746"><ele>41.5</ele><time>2026-04-25T10:33:03.878Z</time></trkpt><trkpt lat="40.6544625" lon="14.8691105"><ele>43.0</ele><time>2026-04-25T10:33:04.877Z</time></trkpt><trkpt lat="40.6546139" lon="14.8687455"><ele>43.0</ele><time>2026-04-25T10:33:05.878Z</time></trkpt><trkpt lat="40.6547631" lon="14.8683803"><ele>43.0</ele><time>2026-04-25T10:33:06.877Z</time></trkpt><trkpt lat="40.6549142" lon="14.8680163"><ele>43.0</ele><time>2026-04-25T10:33:07.878Z</time></trkpt><trkpt lat="40.6550643" lon="14.8676531"><ele>43.0</ele><time>2026-04-25T10:33:08.877Z</time></trkpt><trkpt lat="40.655218" lon="14.8672874"><ele>45.0</ele><time>2026-04-25T10:33:09.878Z</time></trkpt><trkpt lat="40.6553691" lon="14.866922"><ele>47.0</ele><time>2026-04-25T10:33:10.877Z</time></trkpt><trkpt lat="40.6555194" lon="14.8665568"><ele>47.5</ele><time>2026-04-25T10:33:11.877Z</time></trkpt><trkpt lat="40.6556719" lon="14.8661893"><ele>48.0</ele><time>2026-04-25T10:33:12.878Z</time></trkpt><trkpt lat="40.6558277" lon="14.8658249"><ele>47.0</ele><time>2026-04-25T10:33:13.877Z</time></trkpt><trkpt lat="40.6559902" lon="14.8654649"><ele>46.0</ele><time>2026-04-25T10:33:14.877Z</time></trkpt><trkpt lat="40.6561617" lon="14.8651169"><ele>46.5</ele><time>2026-04-25T10:33:15.878Z</time></trkpt><trkpt lat="40.6563465" lon="14.8647827"><ele>47.0</ele><time>2026-04-25T10:33:16.877Z</time></trkpt><trkpt lat="40.6565457" lon="14.8644569"><ele>47.5</ele><time>2026-04-25T10:33:17.878Z</time></trkpt><trkpt lat="40.6567543" lon="14.8641438"><ele>48.0</ele><time>2026-04-25T10:33:18.877Z</time></trkpt><trkpt lat="40.6569723" lon="14.8638418"><ele>48.5</ele><time>2026-04-25T10:33:19.877Z</time></trkpt><trkpt lat="40.6571975" lon="14.8635477"><ele>49.0</ele><time>2026-04-25T10:33:20.877Z</time></trkpt><trkpt lat="40.6574284" lon="14.8632631"><ele>49.0</ele><time>2026-04-25T10:33:21.877Z</time></trkpt><trkpt lat="40.6576644" lon="14.8629919"><ele>49.0</ele><time>2026-04-25T10:33:22.877Z</time></trkpt><trkpt lat="40.6579078" lon="14.8627244"><ele>50.5</ele><time>2026-04-25T10:33:23.878Z</time></trkpt><trkpt lat="40.6581603" lon="14.8624701"><ele>52.0</ele><time>2026-04-25T10:33:24.878Z</time></trkpt><trkpt lat="40.6584216" lon="14.8622321"><ele>54.5</ele><time>2026-04-25T10:33:25.878Z</time></trkpt><trkpt lat="40.6586889" lon="14.862009"><ele>57.0</ele><time>2026-04-25T10:33:26.878Z</time></trkpt><trkpt lat="40.6589586" lon="14.861795"><ele>57.0</ele><time>2026-04-25T10:33:27.878Z</time></trkpt><trkpt lat="40.6592333" lon="14.8615867"><ele>57.0</ele><time>2026-04-25T10:33:28.877Z</time></trkpt><trkpt lat="40.6595051" lon="14.8613774"><ele>62.5</ele><time>2026-04-25T10:33:29.878Z</time></trkpt><trkpt lat="40.6597756" lon="14.8611677"><ele>68.0</ele><time>2026-04-25T10:33:30.878Z</time></trkpt><trkpt lat="40.6600467" lon="14.8609581"><ele>69.0</ele><time>2026-04-25T10:33:31.877Z</time></trkpt><trkpt lat="40.6603207" lon="14.8607504"><ele>70.0</ele><time>2026-04-25T10:33:32.878Z</time></trkpt><trkpt lat="40.6605958" lon="14.8605413"><ele>70.0</ele><time>2026-04-25T10:33:33.878Z</time></trkpt><trkpt lat="40.6608727" lon="14.8603377"><ele>70.0</ele><time>2026-04-25T10:33:34.878Z</time></trkpt><trkpt lat="40.6611551" lon="14.8601436"><ele>70.0</ele><time>2026-04-25T10:33:35.878Z</time></trkpt><trkpt lat="40.661443" lon="14.8599629"><ele>70.0</ele><time>2026-04-25T10:33:36.878Z</time></trkpt><trkpt lat="40.6617322" lon="14.8597949"><ele>74.5</ele><time>2026-04-25T10:33:37.877Z</time></trkpt><trkpt lat="40.6620255" lon="14.8596462"><ele>79.0</ele><time>2026-04-25T10:33:38.878Z</time></trkpt><trkpt lat="40.6623246" lon="14.8595064"><ele>79.0</ele><time>2026-04-25T10:33:39.878Z</time></trkpt><trkpt lat="40.6626267" lon="14.859385"><ele>79.0</ele><time>2026-04-25T10:33:40.877Z</time></trkpt><trkpt lat="40.6629333" lon="14.8592717"><ele>86.0</ele><time>2026-04-25T10:33:41.877Z</time></trkpt><trkpt lat="40.6632317" lon="14.8591817"><ele>93.0</ele><time>2026-04-25T10:33:42.877Z</time></trkpt><trkpt lat="40.663535" lon="14.8590917"><ele>112.0</ele><time>2026-04-25T10:33:43.877Z</time></trkpt><trkpt lat="40.6638317" lon="14.8590033"><ele>131.0</ele><time>2026-04-25T10:33:44.877Z</time></trkpt><trkpt lat="40.6641233" lon="14.858925"><ele>131.0</ele><time>2026-04-25T10:33:45.877Z</time></trkpt><trkpt lat="40.664415" lon="14.8588333"><ele>131.0</ele><time>2026-04-25T10:33:46.878Z</time></trkpt><trkpt lat="40.6647133" lon="14.858745"><ele>117.0</ele><time>2026-04-25T10:33:47.877Z</time></trkpt><trkpt lat="40.6783367" lon="14.85756"><ele>115.5</ele><time>2026-04-25T10:34:30.88Z</time></trkpt><trkpt lat="40.6786617" lon="14.8575117"><ele>114.0</ele><time>2026-04-25T10:34:31.879Z</time></trkpt><trkpt lat="40.6789833" lon="14.85746"><ele>114.0</ele><time>2026-04-25T10:34:32.879Z</time></trkpt><trkpt lat="40.6792983" lon="14.8574083"><ele>114.0</ele><time>2026-04-25T10:34:33.88Z</time></trkpt><trkpt lat="40.6796133" lon="14.8573467"><ele>114.0</ele><time>2026-04-25T10:34:34.879Z</time></trkpt><trkpt lat="40.6799267" lon="14.8572733"><ele>114.0</ele><time>2026-04-25T10:34:35.88Z</time></trkpt><trkpt lat="40.6802433" lon="14.8571917"><ele>114.0</ele><time>2026-04-25T10:34:36.88Z</time></trkpt><trkpt lat="40.680555" lon="14.8570917"><ele>114.0</ele><time>2026-04-25T10:34:37.879Z</time></trkpt><trkpt lat="40.6808633" lon="14.8569783"><ele>114.5</ele><time>2026-04-25T10:34:38.879Z</time></trkpt><trkpt lat="40.6811667" lon="14.8568467"><ele>115.0</ele><time>2026-04-25T10:34:39.879Z</time></trkpt><trkpt lat="40.68146" lon="14.8567017"><ele>115.0</ele><time>2026-04-25T10:34:40.879Z</time></trkpt><trkpt lat="40.6817517" lon="14.85654"><ele>115.0</ele><time>2026-04-25T10:34:41.879Z</time></trkpt><trkpt lat="40.6820383" lon="14.8563617"><ele>115.5</ele><time>2026-04-25T10:34:42.879Z</time></trkpt><trkpt lat="40.6823183" lon="14.8561717"><ele>116.0</ele><time>2026-04-25T10:34:43.88Z</time></trkpt><trkpt lat="40.682595" lon="14.8559667"><ele>114.5</ele><time>2026-04-25T10:34:44.88Z</time></trkpt><trkpt lat="40.6828633" lon="14.8557483"><ele>113.0</ele><time>2026-04-25T10:34:45.88Z</time></trkpt><trkpt lat="40.6831267" lon="14.85551"><ele>113.0</ele><time>2026-04-25T10:34:46.88Z</time></trkpt><trkpt lat="40.6833783" lon="14.8552583"><ele>113.0</ele><time>2026-04-25T10:34:47.88Z</time></trkpt><trkpt lat="40.6836183" lon="14.854995"><ele>113.0</ele><time>2026-04-25T10:34:48.88Z</time></trkpt><trkpt lat="40.6838533" lon="14.854715"><ele>113.0</ele><time>2026-04-25T10:34:49.879Z</time></trkpt><trkpt lat="40.6840783" lon="14.8544267"><ele>113.0</ele><time>2026-04-25T10:34:50.88Z</time></trkpt><trkpt lat="40.6842917" lon="14.8541217"><ele>113.0</ele><time>2026-04-25T10:34:51.88Z</time></trkpt><trkpt lat="40.6845017" lon="14.8538067"><ele>114.0</ele><time>2026-04-25T10:34:52.879Z</time></trkpt><trkpt lat="40.6846983" lon="14.8534883"><ele>115.0</ele><time>2026-04-25T10:34:53.879Z</time></trkpt><trkpt lat="40.6848883" lon="14.8531517"><ele>115.0</ele><time>2026-04-25T10:34:54.879Z</time></trkpt><trkpt lat="40.6850633" lon="14.852805"><ele>115.0</ele><time>2026-04-25T10:34:55.88Z</time></trkpt><trkpt lat="40.68523" lon="14.8524517"><ele>115.5</ele><time>2026-04-25T10:34:56.88Z</time></trkpt><trkpt lat="40.685385" lon="14.8520883"><ele>116.0</ele><time>2026-04-25T10:34:57.88Z</time></trkpt><trkpt lat="40.68553" lon="14.851715"><ele>114.0</ele><time>2026-04-25T10:34:58.879Z</time></trkpt><trkpt lat="40.6856667" lon="14.8513383"><ele>112.0</ele><time>2026-04-25T10:34:59.88Z</time></trkpt><trkpt lat="40.6857917" lon="14.850955"><ele>110.5</ele><time>2026-04-25T10:35:00.879Z</time></trkpt><trkpt lat="40.685915" lon="14.8505683"><ele>109.0</ele><time>2026-04-25T10:35:01.879Z</time></trkpt><trkpt lat="40.6860317" lon="14.8501817"><ele>110.5</ele><time>2026-04-25T10:35:02.88Z</time></trkpt><trkpt lat="40.686145" lon="14.8497867"><ele>112.0</ele><time>2026-04-25T10:35:03.879Z</time></trkpt><trkpt lat="40.6862533" lon="14.849395"><ele>111.5</ele><time>2026-04-25T10:35:04.88Z</time></trkpt><trkpt lat="40.68636" lon="14.8489983"><ele>111.0</ele><time>2026-04-25T10:35:05.879Z</time></trkpt><trkpt lat="40.6864633" lon="14.848605"><ele>111.5</ele><time>2026-04-25T10:35:06.879Z</time></trkpt><trkpt lat="40.686565" lon="14.8482117"><ele>112.0</ele><time>2026-04-25T10:35:07.88Z</time></trkpt><trkpt lat="40.6866683" lon="14.8478217"><ele>115.5</ele><time>2026-04-25T10:35:08.879Z</time></trkpt><trkpt lat="40.6867717" lon="14.8474317"><ele>119.0</ele><time>2026-04-25T10:35:09.88Z</time></trkpt><trkpt lat="40.6868733" lon="14.84704"><ele>120.5</ele><time>2026-04-25T10:35:10.88Z</time></trkpt><trkpt lat="40.6869733" lon="14.8466417"><ele>122.0</ele><time>2026-04-25T10:35:11.879Z</time></trkpt><trkpt lat="40.687075" lon="14.846245"><ele>123.0</ele><time>2026-04-25T10:35:12.879Z</time></trkpt><trkpt lat="40.6871717" lon="14.8458517"><ele>124.0</ele><time>2026-04-25T10:35:13.88Z</time></trkpt><trkpt lat="40.6872733" lon="14.845455"><ele>125.0</ele><time>2026-04-25T10:35:14.879Z</time></trkpt><trkpt lat="40.6873783" lon="14.84506"><ele>126.0</ele><time>2026-04-25T10:35:15.879Z</time></trkpt><trkpt lat="40.68748" lon="14.8446683"><ele>126.5</ele><time>2026-04-25T10:35:16.88Z</time></trkpt><trkpt lat="40.68759" lon="14.844275"><ele>127.0</ele><time>2026-04-25T10:35:17.88Z</time></trkpt><trkpt lat="40.6877017" lon="14.8438867"><ele>127.5</ele><time>2026-04-25T10:35:18.88Z</time></trkpt><trkpt lat="40.6878167" lon="14.8435017"><ele>128.0</ele><time>2026-04-25T10:35:19.88Z</time></trkpt><trkpt lat="40.6879383" lon="14.8431183"><ele>128.5</ele><time>2026-04-25T10:35:20.88Z</time></trkpt><trkpt lat="40.6880617" lon="14.842735"><ele>129.0</ele><time>2026-04-25T10:35:21.88Z</time></trkpt><trkpt lat="40.6881883" lon="14.8423517"><ele>129.5</ele><time>2026-04-25T10:35:22.879Z</time></trkpt><trkpt lat="40.688325" lon="14.8419767"><ele>130.0</ele><time>2026-04-25T10:35:23.88Z</time></trkpt><trkpt lat="40.688465" lon="14.841605"><ele>133.0</ele><time>2026-04-25T10:35:24.879Z</time></trkpt><trkpt lat="40.688615" lon="14.841235"><ele>136.0</ele><time>2026-04-25T10:35:25.879Z</time></trkpt><trkpt lat="40.68877" lon="14.84087"><ele>136.5</ele><time>2026-04-25T10:35:26.88Z</time></trkpt><trkpt lat="40.68893" lon="14.8405083"><ele>137.0</ele><time>2026-04-25T10:35:27.879Z</time></trkpt><trkpt lat="40.6890967" lon="14.8401567"><ele>137.5</ele><time>2026-04-25T10:35:28.879Z</time></trkpt><trkpt lat="40.6892683" lon="14.839805"><ele>138.0</ele><time>2026-04-25T10:35:29.879Z</time></trkpt><trkpt lat="40.689445" lon="14.8394567"><ele>140.0</ele><time>2026-04-25T10:35:30.879Z</time></trkpt><trkpt lat="40.6896267" lon="14.8391167"><ele>142.0</ele><time>2026-04-25T10:35:31.879Z</time></trkpt><trkpt lat="40.68981" lon="14.838785"><ele>142.5</ele><time>2026-04-25T10:35:32.879Z</time></trkpt><trkpt lat="40.6900017" lon="14.8384483"><ele>143.0</ele><time>2026-04-25T10:35:33.88Z</time></trkpt><trkpt lat="40.6902" lon="14.8381167"><ele>145.0</ele><time>2026-04-25T10:35:34.879Z</time></trkpt><trkpt lat="40.6903967" lon="14.8377917"><ele>147.0</ele><time>2026-04-25T10:35:35.879Z</time></trkpt><trkpt lat="40.6905983" lon="14.8374783"><ele>148.5</ele><time>2026-04-25T10:35:36.879Z</time></trkpt><trkpt lat="40.69081" lon="14.8371667"><ele>150.0</ele><time>2026-04-25T10:35:37.879Z</time></trkpt><trkpt lat="40.6910267" lon="14.83686"><ele>150.5</ele><time>2026-04-25T10:35:38.879Z</time></trkpt><trkpt lat="40.691245" lon="14.83656"><ele>151.0</ele><time>2026-04-25T10:35:39.879Z</time></trkpt><trkpt lat="40.691465" lon="14.8362617"><ele>151.5</ele><time>2026-04-25T10:35:40.879Z</time></trkpt><trkpt lat="40.6916867" lon="14.8359617"><ele>152.0</ele><time>2026-04-25T10:35:41.88Z</time></trkpt><trkpt lat="40.69191" lon="14.8356633"><ele>153.5</ele><time>2026-04-25T10:35:42.879Z</time></trkpt><trkpt lat="40.6921333" lon="14.83537"><ele>155.0</ele><time>2026-04-25T10:35:43.88Z</time></trkpt><trkpt lat="40.6923583" lon="14.8350783"><ele>155.5</ele><time>2026-04-25T10:35:44.879Z</time></trkpt><trkpt lat="40.692585" lon="14.834785"><ele>156.0</ele><time>2026-04-25T10:35:45.88Z</time></trkpt><trkpt lat="40.6928067" lon="14.8344933"><ele>157.0</ele><time>2026-04-25T10:35:46.88Z</time></trkpt><trkpt lat="40.69303" lon="14.8342017"><ele>158.0</ele><time>2026-04-25T10:35:47.88Z</time></trkpt><trkpt lat="40.6932567" lon="14.8339083"><ele>158.0</ele><time>2026-04-25T10:35:48.88Z</time></trkpt><trkpt lat="40.6934817" lon="14.833615"><ele>158.0</ele><time>2026-04-25T10:35:49.879Z</time></trkpt><trkpt lat="40.6937067" lon="14.833315"><ele>161.0</ele><time>2026-04-25T10:35:50.88Z</time></trkpt><trkpt lat="40.6939367" lon="14.8330133"><ele>164.0</ele><time>2026-04-25T10:35:51.88Z</time></trkpt><trkpt lat="40.6941517" lon="14.8327183"><ele>165.0</ele><time>2026-04-25T10:35:52.88Z</time></trkpt><trkpt lat="40.6943683" lon="14.83242"><ele>166.0</ele><time>2026-04-25T10:35:53.88Z</time></trkpt><trkpt lat="40.6945867" lon="14.8321183"><ele>166.0</ele><time>2026-04-25T10:35:54.88Z</time></trkpt><trkpt lat="40.6948017" lon="14.8318133"><ele>166.0</ele><time>2026-04-25T10:35:55.879Z</time></trkpt><trkpt lat="40.6950167" lon="14.8315033"><ele>166.0</ele><time>2026-04-25T10:35:56.88Z</time></trkpt><trkpt lat="40.6952267" lon="14.8311917"><ele>166.0</ele><time>2026-04-25T10:35:57.879Z</time></trkpt><trkpt lat="40.69543" lon="14.8308717"><ele>170.0</ele><time>2026-04-25T10:35:58.879Z</time></trkpt><trkpt lat="40.695625" lon="14.8305467"><ele>174.0</ele><time>2026-04-25T10:35:59.88Z</time></trkpt><trkpt lat="40.6958167" lon="14.8302167"><ele>174.5</ele><time>2026-04-25T10:36:00.88Z</time></trkpt><trkpt lat="40.6960033" lon="14.8298833"><ele>175.0</ele><time>2026-04-25T10:36:01.879Z</time></trkpt><trkpt lat="40.6961833" lon="14.8295433"><ele>177.0</ele><time>2026-04-25T10:36:02.88Z</time></trkpt><trkpt lat="40.6963617" lon="14.829195"><ele>179.0</ele><time>2026-04-25T10:36:03.879Z</time></trkpt><trkpt lat="40.6965333" lon="14.82885"><ele>179.0</ele><time>2026-04-25T10:36:04.879Z</time></trkpt><trkpt lat="40.6967067" lon="14.8284967"><ele>179.0</ele><time>2026-04-25T10:36:05.88Z</time></trkpt><trkpt lat="40.6968717" lon="14.8281433"><ele>179.0</ele><time>2026-04-25T10:36:06.88Z</time></trkpt><trkpt lat="40.6970317" lon="14.82778"><ele>179.0</ele><time>2026-04-25T10:36:07.879Z</time></trkpt><trkpt lat="40.69718" lon="14.8274067"><ele>179.0</ele><time>2026-04-25T10:36:08.879Z</time></trkpt><trkpt lat="40.69732" lon="14.827035"><ele>179.0</ele><time>2026-04-25T10:36:09.879Z</time></trkpt><trkpt lat="40.6974567" lon="14.8266617"><ele>177.5</ele><time>2026-04-25T10:36:10.879Z</time></trkpt><trkpt lat="40.6975867" lon="14.8262783"><ele>176.0</ele><time>2026-04-25T10:36:11.88Z</time></trkpt><trkpt lat="40.6977083" lon="14.8258933"><ele>175.5</ele><time>2026-04-25T10:36:12.879Z</time></trkpt><trkpt lat="40.6978233" lon="14.8255017"><ele>175.0</ele><time>2026-04-25T10:36:13.88Z</time></trkpt><trkpt lat="40.6979267" lon="14.82511"><ele>175.0</ele><time>2026-04-25T10:36:14.88Z</time></trkpt><trkpt lat="40.6980267" lon="14.824715"><ele>175.0</ele><time>2026-04-25T10:36:15.879Z</time></trkpt><trkpt lat="40.6981183" lon="14.8243217"><ele>175.0</ele><time>2026-04-25T10:36:16.88Z</time></trkpt><trkpt lat="40.6982083" lon="14.82392"><ele>175.0</ele><time>2026-04-25T10:36:17.88Z</time></trkpt><trkpt lat="40.6982917" lon="14.8235167"><ele>175.5</ele><time>2026-04-25T10:36:18.879Z</time></trkpt><trkpt lat="40.6983683" lon="14.82311"><ele>176.0</ele><time>2026-04-25T10:36:19.88Z</time></trkpt><trkpt lat="40.6984433" lon="14.8227067"><ele>176.5</ele><time>2026-04-25T10:36:20.879Z</time></trkpt><trkpt lat="40.6985067" lon="14.8222967"><ele>177.0</ele><time>2026-04-25T10:36:21.879Z</time></trkpt><trkpt lat="40.698565" lon="14.8218867"><ele>177.5</ele><time>2026-04-25T10:36:22.88Z</time></trkpt><trkpt lat="40.6986183" lon="14.8214733"><ele>178.0</ele><time>2026-04-25T10:36:23.88Z</time></trkpt><trkpt lat="40.6986667" lon="14.82106"><ele>179.0</ele><time>2026-04-25T10:36:24.879Z</time></trkpt><trkpt lat="40.6987083" lon="14.8206483"><ele>180.0</ele><time>2026-04-25T10:36:25.88Z</time></trkpt><trkpt lat="40.6987517" lon="14.8202317"><ele>180.5</ele><time>2026-04-25T10:36:26.879Z</time></trkpt><trkpt lat="40.698795" lon="14.819815"><ele>181.0</ele><time>2026-04-25T10:36:27.879Z</time></trkpt><trkpt lat="40.6988383" lon="14.8193967"><ele>182.0</ele><time>2026-04-25T10:36:28.88Z</time></trkpt><trkpt lat="40.6988883" lon="14.8189667"><ele>183.0</ele><time>2026-04-25T10:36:29.88Z</time></trkpt><trkpt lat="40.6989217" lon="14.8185433"><ele>184.5</ele><time>2026-04-25T10:36:30.879Z</time></trkpt><trkpt lat="40.6989483" lon="14.81812"><ele>186.0</ele><time>2026-04-25T10:36:31.88Z</time></trkpt><trkpt lat="40.69898" lon="14.8176917"><ele>187.0</ele><time>2026-04-25T10:36:32.88Z</time></trkpt><trkpt lat="40.6990167" lon="14.81727"><ele>188.0</ele><time>2026-04-25T10:36:33.879Z</time></trkpt><trkpt lat="40.6990433" lon="14.81685"><ele>189.5</ele><time>2026-04-25T10:36:34.88Z</time></trkpt><trkpt lat="40.699075" lon="14.81643"><ele>191.0</ele><time>2026-04-25T10:36:35.88Z</time></trkpt><trkpt lat="40.6991117" lon="14.8160033"><ele>192.5</ele><time>2026-04-25T10:36:36.879Z</time></trkpt><trkpt lat="40.6991483" lon="14.8155783"><ele>194.0</ele><time>2026-04-25T10:36:37.88Z</time></trkpt><trkpt lat="40.69959" lon="14.8110683"><ele>185.0</ele><time>2026-04-25T10:36:48.88Z</time></trkpt><trkpt lat="40.6995583" lon="14.8106367"><ele>176.0</ele><time>2026-04-25T10:36:49.879Z</time></trkpt><trkpt lat="40.699535" lon="14.8102233"><ele>177.0</ele><time>2026-04-25T10:36:50.879Z</time></trkpt><trkpt lat="40.699505" lon="14.8098183"><ele>178.0</ele><time>2026-04-25T10:36:51.879Z</time></trkpt><trkpt lat="40.6994667" lon="14.8094083"><ele>177.0</ele><time>2026-04-25T10:36:52.88Z</time></trkpt><trkpt lat="40.69943" lon="14.8089967"><ele>176.0</ele><time>2026-04-25T10:36:53.879Z</time></trkpt><trkpt lat="40.6993867" lon="14.8085833"><ele>168.0</ele><time>2026-04-25T10:36:54.88Z</time></trkpt><trkpt lat="40.6993383" lon="14.8081767"><ele>160.0</ele><time>2026-04-25T10:36:55.88Z</time></trkpt><trkpt lat="40.6992767" lon="14.8077683"><ele>156.5</ele><time>2026-04-25T10:36:56.879Z</time></trkpt><trkpt lat="40.6992067" lon="14.80736"><ele>153.0</ele><time>2026-04-25T10:36:57.879Z</time></trkpt><trkpt lat="40.6991333" lon="14.80695"><ele>154.0</ele><time>2026-04-25T10:36:58.88Z</time></trkpt><trkpt lat="40.6990517" lon="14.8065467"><ele>155.0</ele><time>2026-04-25T10:36:59.88Z</time></trkpt><trkpt lat="40.6989617" lon="14.8061467"><ele>156.0</ele><time>2026-04-25T10:37:00.879Z</time></trkpt><trkpt lat="40.698865" lon="14.8057433"><ele>157.0</ele><time>2026-04-25T10:37:01.879Z</time></trkpt><trkpt lat="40.69877" lon="14.8053467"><ele>153.5</ele><time>2026-04-25T10:37:02.879Z</time></trkpt><trkpt lat="40.6986767" lon="14.8049483"><ele>150.0</ele><time>2026-04-25T10:37:03.88Z</time></trkpt><trkpt lat="40.698585" lon="14.8045483"><ele>144.0</ele><time>2026-04-25T10:37:04.88Z</time></trkpt><trkpt lat="40.6984933" lon="14.80415"><ele>138.0</ele><time>2026-04-25T10:37:05.879Z</time></trkpt><trkpt lat="40.6984" lon="14.8037483"><ele>139.5</ele><time>2026-04-25T10:37:06.88Z</time></trkpt><trkpt lat="40.6983117" lon="14.80335"><ele>141.0</ele><time>2026-04-25T10:37:07.879Z</time></trkpt><trkpt lat="40.6982167" lon="14.8029433"><ele>142.5</ele><time>2026-04-25T10:37:08.88Z</time></trkpt><trkpt lat="40.6981233" lon="14.8025467"><ele>144.0</ele><time>2026-04-25T10:37:09.88Z</time></trkpt><trkpt lat="40.69803" lon="14.80215"><ele>143.5</ele><time>2026-04-25T10:37:10.879Z</time></trkpt><trkpt lat="40.6979367" lon="14.8017567"><ele>143.0</ele><time>2026-04-25T10:37:11.88Z</time></trkpt><trkpt lat="40.6978433" lon="14.8013517"><ele>134.0</ele><time>2026-04-25T10:37:12.88Z</time></trkpt><trkpt lat="40.6977517" lon="14.8009483"><ele>125.0</ele><time>2026-04-25T10:37:13.88Z</time></trkpt><trkpt lat="40.697665" lon="14.8005433"><ele>125.0</ele><time>2026-04-25T10:37:14.879Z</time></trkpt><trkpt lat="40.6975817" lon="14.80014"><ele>125.0</ele><time>2026-04-25T10:37:15.88Z</time></trkpt><trkpt lat="40.6975033" lon="14.799735"><ele>125.0</ele><time>2026-04-25T10:37:16.879Z</time></trkpt><trkpt lat="40.6974367" lon="14.7993283"><ele>125.0</ele><time>2026-04-25T10:37:17.879Z</time></trkpt><trkpt lat="40.69738" lon="14.7989167"><ele>125.0</ele><time>2026-04-25T10:37:18.88Z</time></trkpt><trkpt lat="40.697325" lon="14.7985067"><ele>125.0</ele><time>2026-04-25T10:37:19.88Z</time></trkpt><trkpt lat="40.6972733" lon="14.7980967"><ele>122.5</ele><time>2026-04-25T10:37:20.879Z</time></trkpt><trkpt lat="40.6972317" lon="14.7976833"><ele>120.0</ele><time>2026-04-25T10:37:21.879Z</time></trkpt><trkpt lat="40.6971967" lon="14.797265"><ele>118.0</ele><time>2026-04-25T10:37:22.88Z</time></trkpt><trkpt lat="40.6971683" lon="14.7968467"><ele>116.0</ele><time>2026-04-25T10:37:23.879Z</time></trkpt><trkpt lat="40.6971483" lon="14.7964333"><ele>114.0</ele><time>2026-04-25T10:37:24.879Z</time></trkpt><trkpt lat="40.69713" lon="14.7960183"><ele>112.0</ele><time>2026-04-25T10:37:25.879Z</time></trkpt><trkpt lat="40.6971283" lon="14.7956017"><ele>112.5</ele><time>2026-04-25T10:37:26.88Z</time></trkpt><trkpt lat="40.69713" lon="14.7951817"><ele>113.0</ele><time>2026-04-25T10:37:27.88Z</time></trkpt><trkpt lat="40.69714" lon="14.7947633"><ele>113.0</ele><time>2026-04-25T10:37:28.88Z</time></trkpt><trkpt lat="40.697155" lon="14.794345"><ele>113.0</ele><time>2026-04-25T10:37:29.879Z</time></trkpt><trkpt lat="40.6971767" lon="14.793925"><ele>114.0</ele><time>2026-04-25T10:37:30.88Z</time></trkpt><trkpt lat="40.697205" lon="14.793505"><ele>115.0</ele><time>2026-04-25T10:37:31.879Z</time></trkpt><trkpt lat="40.69724" lon="14.793085"><ele>112.5</ele><time>2026-04-25T10:37:32.879Z</time></trkpt><trkpt lat="40.697275" lon="14.7926683"><ele>110.0</ele><time>2026-04-25T10:37:33.879Z</time></trkpt><trkpt lat="40.6973133" lon="14.7922533"><ele>110.0</ele><time>2026-04-25T10:37:34.879Z</time></trkpt><trkpt lat="40.697355" lon="14.7918417"><ele>110.0</ele><time>2026-04-25T10:37:35.879Z</time></trkpt><trkpt lat="40.6973933" lon="14.7914317"><ele>107.5</ele><time>2026-04-25T10:37:36.879Z</time></trkpt><trkpt lat="40.6974217" lon="14.7910183"><ele>105.0</ele><time>2026-04-25T10:37:37.879Z</time></trkpt><trkpt lat="40.697445" lon="14.7905983"><ele>103.0</ele><time>2026-04-25T10:37:38.88Z</time></trkpt><trkpt lat="40.6974533" lon="14.79019"><ele>101.0</ele><time>2026-04-25T10:37:39.88Z</time></trkpt><trkpt lat="40.697455" lon="14.7897983"><ele>99.0</ele><time>2026-04-25T10:37:40.879Z</time></trkpt><trkpt lat="40.6974467" lon="14.7894167"><ele>97.0</ele><time>2026-04-25T10:37:41.879Z</time></trkpt><trkpt lat="40.697425" lon="14.789045"><ele>96.5</ele><time>2026-04-25T10:37:42.879Z</time></trkpt><trkpt lat="40.697395" lon="14.7886867"><ele>96.0</ele><time>2026-04-25T10:37:43.88Z</time></trkpt><trkpt lat="40.6973583" lon="14.7883283"><ele>93.0</ele><time>2026-04-25T10:37:44.879Z</time></trkpt><trkpt lat="40.6973083" lon="14.7879683"><ele>90.0</ele><time>2026-04-25T10:37:45.88Z</time></trkpt><trkpt lat="40.697255" lon="14.7876017"><ele>87.5</ele><time>2026-04-25T10:37:46.88Z</time></trkpt><trkpt lat="40.6971983" lon="14.7872217"><ele>85.0</ele><time>2026-04-25T10:37:47.88Z</time></trkpt><trkpt lat="40.6971367" lon="14.7868217"><ele>85.0</ele><time>2026-04-25T10:37:48.88Z</time></trkpt><trkpt lat="40.69706" lon="14.7864267"><ele>85.0</ele><time>2026-04-25T10:37:49.88Z</time></trkpt><trkpt lat="40.6969833" lon="14.7860467"><ele>79.0</ele><time>2026-04-25T10:37:50.88Z</time></trkpt><trkpt lat="40.6969133" lon="14.78567"><ele>73.0</ele><time>2026-04-25T10:37:51.879Z</time></trkpt><trkpt lat="40.69684" lon="14.785295"><ele>72.0</ele><time>2026-04-25T10:37:52.879Z</time></trkpt><trkpt lat="40.6967733" lon="14.7849283"><ele>71.0</ele><time>2026-04-25T10:37:53.88Z</time></trkpt><trkpt lat="40.6967017" lon="14.784575"><ele>71.0</ele><time>2026-04-25T10:37:54.88Z</time></trkpt><trkpt lat="40.6966367" lon="14.784215"><ele>71.0</ele><time>2026-04-25T10:37:55.88Z</time></trkpt><trkpt lat="40.6965717" lon="14.7838433"><ele>72.0</ele><time>2026-04-25T10:37:56.879Z</time></trkpt><trkpt lat="40.6965067" lon="14.78347"><ele>73.0</ele><time>2026-04-25T10:37:57.879Z</time></trkpt><trkpt lat="40.6964583" lon="14.7831117"><ele>73.0</ele><time>2026-04-25T10:37:58.88Z</time></trkpt><trkpt lat="40.6964383" lon="14.7827583"><ele>73.0</ele><time>2026-04-25T10:37:59.879Z</time></trkpt><trkpt lat="40.696445" lon="14.78241"><ele>72.0</ele><time>2026-04-25T10:38:00.88Z</time></trkpt><trkpt lat="40.6964817" lon="14.782075"><ele>71.0</ele><time>2026-04-25T10:38:01.879Z</time></trkpt><trkpt lat="40.6965583" lon="14.7817317"><ele>70.0</ele><time>2026-04-25T10:38:02.879Z</time></trkpt><trkpt lat="40.6966633" lon="14.7814"><ele>69.0</ele><time>2026-04-25T10:38:03.88Z</time></trkpt><trkpt lat="40.6968017" lon="14.78108"><ele>76.5</ele><time>2026-04-25T10:38:04.88Z</time></trkpt><trkpt lat="40.6969717" lon="14.78078"><ele>84.0</ele><time>2026-04-25T10:38:05.88Z</time></trkpt><trkpt lat="40.697175" lon="14.7805067"><ele>84.0</ele><time>2026-04-25T10:38:06.88Z</time></trkpt><trkpt lat="40.6973917" lon="14.7802583"><ele>84.0</ele><time>2026-04-25T10:38:07.88Z</time></trkpt><trkpt lat="40.697625" lon="14.78004"><ele>83.5</ele><time>2026-04-25T10:38:08.88Z</time></trkpt><trkpt lat="40.697875" lon="14.779835"><ele>83.0</ele><time>2026-04-25T10:38:09.879Z</time></trkpt><trkpt lat="40.6981333" lon="14.77965"><ele>83.0</ele><time>2026-04-25T10:38:10.879Z</time></trkpt><trkpt lat="40.6984067" lon="14.7794817"><ele>83.0</ele><time>2026-04-25T10:38:11.88Z</time></trkpt><trkpt lat="40.6987083" lon="14.779345"><ele>76.0</ele><time>2026-04-25T10:38:12.88Z</time></trkpt><trkpt lat="40.699015" lon="14.7792217"><ele>69.0</ele><time>2026-04-25T10:38:13.88Z</time></trkpt><trkpt lat="40.6993317" lon="14.779115"><ele>68.5</ele><time>2026-04-25T10:38:14.879Z</time></trkpt><trkpt lat="40.69966" lon="14.7790367"><ele>68.0</ele><time>2026-04-25T10:38:15.879Z</time></trkpt><trkpt lat="40.70001" lon="14.7789767"><ele>70.5</ele><time>2026-04-25T10:38:16.88Z</time></trkpt><trkpt lat="40.7003617" lon="14.7789183"><ele>73.0</ele><time>2026-04-25T10:38:17.88Z</time></trkpt><trkpt lat="40.7007167" lon="14.7788633"><ele>73.0</ele><time>2026-04-25T10:38:18.879Z</time></trkpt><trkpt lat="40.701075" lon="14.77882"><ele>73.0</ele><time>2026-04-25T10:38:19.879Z</time></trkpt><trkpt lat="40.7014333" lon="14.778775"><ele>76.0</ele><time>2026-04-25T10:38:20.88Z</time></trkpt><trkpt lat="40.7017917" lon="14.7787333"><ele>79.0</ele><time>2026-04-25T10:38:21.88Z</time></trkpt><trkpt lat="40.70216" lon="14.778695"><ele>81.5</ele><time>2026-04-25T10:38:22.88Z</time></trkpt><trkpt lat="40.7025317" lon="14.7786567"><ele>84.0</ele><time>2026-04-25T10:38:23.88Z</time></trkpt><trkpt lat="40.7028933" lon="14.7786183"><ele>86.0</ele><time>2026-04-25T10:38:24.879Z</time></trkpt><trkpt lat="40.7032533" lon="14.7785783"><ele>88.0</ele><time>2026-04-25T10:38:25.879Z</time></trkpt><trkpt lat="40.703605" lon="14.7785433"><ele>84.5</ele><time>2026-04-25T10:38:26.88Z</time></trkpt><trkpt lat="40.7039567" lon="14.7785133"><ele>81.0</ele><time>2026-04-25T10:38:27.879Z</time></trkpt><trkpt lat="40.7042967" lon="14.7784883"><ele>83.0</ele><time>2026-04-25T10:38:28.88Z</time></trkpt><trkpt lat="40.7046217" lon="14.77848"><ele>85.0</ele><time>2026-04-25T10:38:29.88Z</time></trkpt><trkpt lat="40.7049417" lon="14.778495"><ele>87.5</ele><time>2026-04-25T10:38:30.88Z</time></trkpt><trkpt lat="40.7052567" lon="14.778545"><ele>90.0</ele><time>2026-04-25T10:38:31.88Z</time></trkpt><trkpt lat="40.7055633" lon="14.7786267"><ele>90.0</ele><time>2026-04-25T10:38:32.879Z</time></trkpt><trkpt lat="40.70586" lon="14.77874"><ele>90.0</ele><time>2026-04-25T10:38:33.879Z</time></trkpt><trkpt lat="40.7061533" lon="14.77888"><ele>91.0</ele><time>2026-04-25T10:38:34.879Z</time></trkpt><trkpt lat="40.706455" lon="14.7790333"><ele>92.0</ele><time>2026-04-25T10:38:35.879Z</time></trkpt><trkpt lat="40.7067617" lon="14.779195"><ele>98.0</ele><time>2026-04-25T10:38:36.88Z</time></trkpt><trkpt lat="40.7070617" lon="14.779355"><ele>104.0</ele><time>2026-04-25T10:38:37.879Z</time></trkpt><trkpt lat="40.7073417" lon="14.77951"><ele>104.0</ele><time>2026-04-25T10:38:38.88Z</time></trkpt><trkpt lat="40.70762" lon="14.77966"><ele>104.0</ele><time>2026-04-25T10:38:39.88Z</time></trkpt><trkpt lat="40.7078817" lon="14.7797983"><ele>104.0</ele><time>2026-04-25T10:38:40.88Z</time></trkpt><trkpt lat="40.7081417" lon="14.7799367"><ele>104.0</ele><time>2026-04-25T10:38:41.879Z</time></trkpt><trkpt lat="40.7084017" lon="14.780055"><ele>101.5</ele><time>2026-04-25T10:38:42.88Z</time></trkpt><trkpt lat="40.7086733" lon="14.7801533"><ele>99.0</ele><time>2026-04-25T10:38:43.88Z</time></trkpt><trkpt lat="40.708945" lon="14.7802217"><ele>110.0</ele><time>2026-04-25T10:38:44.879Z</time></trkpt><trkpt lat="40.70922" lon="14.7802683"><ele>121.0</ele><time>2026-04-25T10:38:45.879Z</time></trkpt><trkpt lat="40.7094883" lon="14.7802817"><ele>122.0</ele><time>2026-04-25T10:38:46.88Z</time></trkpt><trkpt lat="40.7097717" lon="14.780275"><ele>123.0</ele><time>2026-04-25T10:38:47.879Z</time></trkpt><trkpt lat="40.71005" lon="14.7802617"><ele>126.0</ele><time>2026-04-25T10:38:48.879Z</time></trkpt><trkpt lat="40.7103483" lon="14.78022"><ele>129.0</ele><time>2026-04-25T10:38:49.879Z</time></trkpt><trkpt lat="40.7106567" lon="14.780145"><ele>121.5</ele><time>2026-04-25T10:38:50.88Z</time></trkpt><trkpt lat="40.710975" lon="14.7800333"><ele>114.0</ele><time>2026-04-25T10:38:51.88Z</time></trkpt><trkpt lat="40.7112833" lon="14.7798933"><ele>114.0</ele><time>2026-04-25T10:38:52.879Z</time></trkpt><trkpt lat="40.711585" lon="14.77975"><ele>114.0</ele><time>2026-04-25T10:38:53.879Z</time></trkpt><trkpt lat="40.7118717" lon="14.7796183"><ele>118.0</ele><time>2026-04-25T10:38:54.879Z</time></trkpt><trkpt lat="40.71215" lon="14.7794983"><ele>122.0</ele><time>2026-04-25T10:38:55.88Z</time></trkpt><trkpt lat="40.7124267" lon="14.7793967"><ele>120.5</ele><time>2026-04-25T10:38:56.879Z</time></trkpt><trkpt lat="40.7127133" lon="14.7792983"><ele>119.0</ele><time>2026-04-25T10:38:57.88Z</time></trkpt><trkpt lat="40.7130017" lon="14.7792217"><ele>119.0</ele><time>2026-04-25T10:38:58.879Z</time></trkpt><trkpt lat="40.7133" lon="14.7791533"><ele>119.0</ele><time>2026-04-25T10:38:59.88Z</time></trkpt><trkpt lat="40.713615" lon="14.7790983"><ele>118.0</ele><time>2026-04-25T10:39:00.88Z</time></trkpt><trkpt lat="40.713945" lon="14.7790417"><ele>117.0</ele><time>2026-04-25T10:39:01.88Z</time></trkpt><trkpt lat="40.7142767" lon="14.778985"><ele>123.0</ele><time>2026-04-25T10:39:02.88Z</time></trkpt><trkpt lat="40.7146033" lon="14.7789283"><ele>129.0</ele><time>2026-04-25T10:39:03.88Z</time></trkpt><trkpt lat="40.71492" lon="14.7788683"><ele>129.0</ele><time>2026-04-25T10:39:04.88Z</time></trkpt><trkpt lat="40.715225" lon="14.77881"><ele>129.0</ele><time>2026-04-25T10:39:05.88Z</time></trkpt><trkpt lat="40.7155183" lon="14.7787617"><ele>134.5</ele><time>2026-04-25T10:39:06.88Z</time></trkpt><trkpt lat="40.715805" lon="14.77871"><ele>140.0</ele><time>2026-04-25T10:39:07.879Z</time></trkpt><trkpt lat="40.7160883" lon="14.778655"><ele>148.5</ele><time>2026-04-25T10:39:08.879Z</time></trkpt><trkpt lat="40.7163633" lon="14.7786033"><ele>157.0</ele><time>2026-04-25T10:39:09.879Z</time></trkpt><trkpt lat="40.7166283" lon="14.7785567"><ele>157.0</ele><time>2026-04-25T10:39:10.88Z</time></trkpt><trkpt lat="40.7168967" lon="14.7785217"><ele>157.0</ele><time>2026-04-25T10:39:11.88Z</time></trkpt><trkpt lat="40.7171617" lon="14.7784833"><ele>147.5</ele><time>2026-04-25T10:39:12.88Z</time></trkpt><trkpt lat="40.71743" lon="14.7784417"><ele>138.0</ele><time>2026-04-25T10:39:13.879Z</time></trkpt><trkpt lat="40.7177017" lon="14.7784"><ele>138.5</ele><time>2026-04-25T10:39:14.88Z</time></trkpt><trkpt lat="40.717985" lon="14.7783567"><ele>139.0</ele><time>2026-04-25T10:39:15.879Z</time></trkpt><trkpt lat="40.7182533" lon="14.7783083"><ele>139.0</ele><time>2026-04-25T10:39:16.879Z</time></trkpt><trkpt lat="40.71852" lon="14.7782567"><ele>139.0</ele><time>2026-04-25T10:39:17.88Z</time></trkpt><trkpt lat="40.7187817" lon="14.7782167"><ele>138.0</ele><time>2026-04-25T10:39:18.879Z</time></trkpt><trkpt lat="40.7190367" lon="14.7781633"><ele>137.0</ele><time>2026-04-25T10:39:19.88Z</time></trkpt><trkpt lat="40.719285" lon="14.77812"><ele>139.0</ele><time>2026-04-25T10:39:20.879Z</time></trkpt><trkpt lat="40.7195317" lon="14.778075"><ele>141.0</ele><time>2026-04-25T10:39:21.88Z</time></trkpt><trkpt lat="40.7197883" lon="14.778025"><ele>141.0</ele><time>2026-04-25T10:39:22.879Z</time></trkpt><trkpt lat="40.72006" lon="14.7779733"><ele>141.0</ele><time>2026-04-25T10:39:23.879Z</time></trkpt><trkpt lat="40.7203533" lon="14.77791"><ele>142.0</ele><time>2026-04-25T10:39:24.88Z</time></trkpt><trkpt lat="40.7206517" lon="14.7778267"><ele>143.0</ele><time>2026-04-25T10:39:25.88Z</time></trkpt><trkpt lat="40.7209617" lon="14.77771"><ele>145.0</ele><time>2026-04-25T10:39:26.879Z</time></trkpt><trkpt lat="40.7212783" lon="14.7775483"><ele>147.0</ele><time>2026-04-25T10:39:27.879Z</time></trkpt><trkpt lat="40.7215983" lon="14.777365"><ele>161.0</ele><time>2026-04-25T10:39:28.879Z</time></trkpt><trkpt lat="40.72192" lon="14.777175"><ele>175.0</ele><time>2026-04-25T10:39:29.88Z</time></trkpt><trkpt lat="40.7222417" lon="14.776985"><ele>169.0</ele><time>2026-04-25T10:39:30.88Z</time></trkpt><trkpt lat="40.722565" lon="14.77679"><ele>163.0</ele><time>2026-04-25T10:39:31.88Z</time></trkpt><trkpt lat="40.7228933" lon="14.7765967"><ele>162.5</ele><time>2026-04-25T10:39:32.88Z</time></trkpt><trkpt lat="40.7232233" lon="14.7764617"><ele>162.0</ele><time>2026-04-25T10:39:33.879Z</time></trkpt><trkpt lat="40.72354" lon="14.776245"><ele>158.0</ele><time>2026-04-25T10:39:34.879Z</time></trkpt><trkpt lat="40.7238367" lon="14.7760933"><ele>154.0</ele><time>2026-04-25T10:39:35.879Z</time></trkpt><trkpt lat="40.7241217" lon="14.77598"><ele>151.5</ele><time>2026-04-25T10:39:36.88Z</time></trkpt><trkpt lat="40.724415" lon="14.7758933"><ele>149.0</ele><time>2026-04-25T10:39:37.879Z</time></trkpt><trkpt lat="40.724725" lon="14.7758283"><ele>149.0</ele><time>2026-04-25T10:39:38.879Z</time></trkpt><trkpt lat="40.725045" lon="14.7757833"><ele>149.0</ele><time>2026-04-25T10:39:39.88Z</time></trkpt><trkpt lat="40.7253717" lon="14.7757583"><ele>152.0</ele><time>2026-04-25T10:39:40.879Z</time></trkpt><trkpt lat="40.7257167" lon="14.7757367"><ele>155.0</ele><time>2026-04-25T10:39:41.88Z</time></trkpt><trkpt lat="40.72607" lon="14.7757117"><ele>156.0</ele><time>2026-04-25T10:39:42.879Z</time></trkpt><trkpt lat="40.7264267" lon="14.7756817"><ele>157.0</ele><time>2026-04-25T10:39:43.879Z</time></trkpt><trkpt lat="40.7267767" lon="14.7756567"><ele>159.0</ele><time>2026-04-25T10:39:44.879Z</time></trkpt><trkpt lat="40.7271117" lon="14.7756317"><ele>161.0</ele><time>2026-04-25T10:39:45.879Z</time></trkpt><trkpt lat="40.727435" lon="14.7756117"><ele>162.0</ele><time>2026-04-25T10:39:46.879Z</time></trkpt><trkpt lat="40.7277417" lon="14.775585"><ele>163.0</ele><time>2026-04-25T10:39:47.879Z</time></trkpt><trkpt lat="40.7280383" lon="14.7755633"><ele>163.0</ele><time>2026-04-25T10:39:48.88Z</time></trkpt><trkpt lat="40.7283217" lon="14.7755483"><ele>163.0</ele><time>2026-04-25T10:39:49.88Z</time></trkpt><trkpt lat="40.7285983" lon="14.7755333"><ele>165.0</ele><time>2026-04-25T10:39:50.88Z</time></trkpt><trkpt lat="40.7288717" lon="14.7755167"><ele>167.0</ele><time>2026-04-25T10:39:51.879Z</time></trkpt><trkpt lat="40.7291383" lon="14.7754983"><ele>169.5</ele><time>2026-04-25T10:39:52.879Z</time></trkpt><trkpt lat="40.729395" lon="14.7754817"><ele>172.0</ele><time>2026-04-25T10:39:53.879Z</time></trkpt><trkpt lat="40.7296467" lon="14.7754633"><ele>172.0</ele><time>2026-04-25T10:39:54.88Z</time></trkpt><trkpt lat="40.729895" lon="14.775445"><ele>172.0</ele><time>2026-04-25T10:39:55.879Z</time></trkpt><trkpt lat="40.7301433" lon="14.77543"><ele>172.5</ele><time>2026-04-25T10:39:56.88Z</time></trkpt><trkpt lat="40.73039" lon="14.7754133"><ele>173.0</ele><time>2026-04-25T10:39:57.879Z</time></trkpt><trkpt lat="40.7306367" lon="14.7754017"><ele>173.0</ele><time>2026-04-25T10:39:58.88Z</time></trkpt><trkpt lat="40.7308867" lon="14.7753867"><ele>173.0</ele><time>2026-04-25T10:39:59.88Z</time></trkpt><trkpt lat="40.7311417" lon="14.77537"><ele>171.0</ele><time>2026-04-25T10:40:00.879Z</time></trkpt><trkpt lat="40.7314033" lon="14.77536"><ele>169.0</ele><time>2026-04-25T10:40:01.879Z</time></trkpt><trkpt lat="40.7316767" lon="14.77536"><ele>168.5</ele><time>2026-04-25T10:40:02.88Z</time></trkpt><trkpt lat="40.73196" lon="14.7753733"><ele>168.0</ele><time>2026-04-25T10:40:03.88Z</time></trkpt><trkpt lat="40.73225" lon="14.7754067"><ele>168.0</ele><time>2026-04-25T10:40:04.879Z</time></trkpt><trkpt lat="40.7325483" lon="14.7754483"><ele>168.0</ele><time>2026-04-25T10:40:05.88Z</time></trkpt><trkpt lat="40.7328667" lon="14.7755"><ele>170.0</ele><time>2026-04-25T10:40:06.879Z</time></trkpt><trkpt lat="40.7332017" lon="14.7755667"><ele>172.0</ele><time>2026-04-25T10:40:07.879Z</time></trkpt><trkpt lat="40.733545" lon="14.7756567"><ele>171.5</ele><time>2026-04-25T10:40:08.879Z</time></trkpt><trkpt lat="40.733895" lon="14.7757733"><ele>171.0</ele><time>2026-04-25T10:40:09.88Z</time></trkpt><trkpt lat="40.734255" lon="14.7759167"><ele>173.5</ele><time>2026-04-25T10:40:10.879Z</time></trkpt><trkpt lat="40.7346083" lon="14.7760733"><ele>176.0</ele><time>2026-04-25T10:40:11.88Z</time></trkpt><trkpt lat="40.7349567" lon="14.7762467"><ele>175.5</ele><time>2026-04-25T10:40:12.879Z</time></trkpt><trkpt lat="40.73529" lon="14.7764283"><ele>175.0</ele><time>2026-04-25T10:40:13.879Z</time></trkpt><trkpt lat="40.7356" lon="14.77663"><ele>175.0</ele><time>2026-04-25T10:40:14.88Z</time></trkpt><trkpt lat="40.735895" lon="14.776845"><ele>175.0</ele><time>2026-04-25T10:40:15.879Z</time></trkpt><trkpt lat="40.736175" lon="14.777075"><ele>178.0</ele><time>2026-04-25T10:40:16.88Z</time></trkpt><trkpt lat="40.7364517" lon="14.7773117"><ele>181.0</ele><time>2026-04-25T10:40:17.879Z</time></trkpt><trkpt lat="40.7367233" lon="14.777565"><ele>184.0</ele><time>2026-04-25T10:40:18.88Z</time></trkpt><trkpt lat="40.737" lon="14.7778383"><ele>187.0</ele><time>2026-04-25T10:40:19.88Z</time></trkpt><trkpt lat="40.73728" lon="14.7781267"><ele>187.0</ele><time>2026-04-25T10:40:20.88Z</time></trkpt><trkpt lat="40.7375633" lon="14.77843"><ele>187.0</ele><time>2026-04-25T10:40:21.879Z</time></trkpt><trkpt lat="40.737855" lon="14.77875"><ele>189.5</ele><time>2026-04-25T10:40:22.88Z</time></trkpt><trkpt lat="40.73815" lon="14.7790783"><ele>192.0</ele><time>2026-04-25T10:40:23.88Z</time></trkpt><trkpt lat="40.7384317" lon="14.7793883"><ele>195.0</ele><time>2026-04-25T10:40:24.88Z</time></trkpt><trkpt lat="40.73869" lon="14.7796817"><ele>198.0</ele><time>2026-04-25T10:40:25.879Z</time></trkpt><trkpt lat="40.7389383" lon="14.7799617"><ele>201.0</ele><time>2026-04-25T10:40:26.88Z</time></trkpt><trkpt lat="40.7391917" lon="14.7802417"><ele>204.0</ele><time>2026-04-25T10:40:27.88Z</time></trkpt><trkpt lat="40.7394517" lon="14.780545"><ele>206.0</ele><time>2026-04-25T10:40:28.879Z</time></trkpt><trkpt lat="40.7397233" lon="14.7808567"><ele>208.0</ele><time>2026-04-25T10:40:29.88Z</time></trkpt><trkpt lat="40.739995" lon="14.7811767"><ele>209.0</ele><time>2026-04-25T10:40:30.88Z</time></trkpt><trkpt lat="40.7402733" lon="14.78149"><ele>210.0</ele><time>2026-04-25T10:40:31.879Z</time></trkpt><trkpt lat="40.74056" lon="14.7817917"><ele>211.0</ele><time>2026-04-25T10:40:32.88Z</time></trkpt><trkpt lat="40.7408533" lon="14.7820983"><ele>212.0</ele><time>2026-04-25T10:40:33.88Z</time></trkpt><trkpt lat="40.741155" lon="14.7823983"><ele>216.5</ele><time>2026-04-25T10:40:34.879Z</time></trkpt><trkpt lat="40.741465" lon="14.78269"><ele>221.0</ele><time>2026-04-25T10:40:35.88Z</time></trkpt><trkpt lat="40.7417733" lon="14.78296"><ele>221.5</ele><time>2026-04-25T10:40:36.88Z</time></trkpt><trkpt lat="40.7420817" lon="14.7832167"><ele>222.0</ele><time>2026-04-25T10:40:37.879Z</time></trkpt><trkpt lat="40.74239" lon="14.78346"><ele>220.5</ele><time>2026-04-25T10:40:38.879Z</time></trkpt><trkpt lat="40.7427" lon="14.7836967"><ele>219.0</ele><time>2026-04-25T10:40:39.88Z</time></trkpt><trkpt lat="40.74301" lon="14.783915"><ele>219.0</ele><time>2026-04-25T10:40:40.879Z</time></trkpt><trkpt lat="40.7433183" lon="14.7841217"><ele>219.0</ele><time>2026-04-25T10:40:41.88Z</time></trkpt><trkpt lat="40.7436283" lon="14.784315"><ele>221.0</ele><time>2026-04-25T10:40:42.879Z</time></trkpt><trkpt lat="40.7439383" lon="14.7844983"><ele>223.0</ele><time>2026-04-25T10:40:43.88Z</time></trkpt><trkpt lat="40.7442533" lon="14.7846667"><ele>221.5</ele><time>2026-04-25T10:40:44.88Z</time></trkpt><trkpt lat="40.7445767" lon="14.784825"><ele>220.0</ele><time>2026-04-25T10:40:45.88Z</time></trkpt><trkpt lat="40.74491" lon="14.7849817"><ele>220.5</ele><time>2026-04-25T10:40:46.879Z</time></trkpt><trkpt lat="40.745255" lon="14.7851283"><ele>221.0</ele><time>2026-04-25T10:40:47.88Z</time></trkpt><trkpt lat="40.7456167" lon="14.78527"><ele>224.0</ele><time>2026-04-25T10:40:48.879Z</time></trkpt><trkpt lat="40.7459917" lon="14.7853983"><ele>227.0</ele><time>2026-04-25T10:40:49.879Z</time></trkpt><trkpt lat="40.74637" lon="14.7855117"><ele>226.5</ele><time>2026-04-25T10:40:50.88Z</time></trkpt><trkpt lat="40.7467517" lon="14.7856117"><ele>226.0</ele><time>2026-04-25T10:40:51.879Z</time></trkpt><trkpt lat="40.747125" lon="14.785715"><ele>226.0</ele><time>2026-04-25T10:40:52.88Z</time></trkpt><trkpt lat="40.7474917" lon="14.785795"><ele>226.0</ele><time>2026-04-25T10:40:53.88Z</time></trkpt><trkpt lat="40.747845" lon="14.7858883"><ele>225.0</ele><time>2026-04-25T10:40:54.88Z</time></trkpt><trkpt lat="40.7481967" lon="14.7859683"><ele>224.0</ele><time>2026-04-25T10:40:55.88Z</time></trkpt><trkpt lat="40.748545" lon="14.78604"><ele>224.0</ele><time>2026-04-25T10:40:56.879Z</time></trkpt><trkpt lat="40.7488967" lon="14.7861083"><ele>224.0</ele><time>2026-04-25T10:40:57.88Z</time></trkpt><trkpt lat="40.7492533" lon="14.7861783"><ele>223.5</ele><time>2026-04-25T10:40:58.879Z</time></trkpt><trkpt lat="40.7496183" lon="14.7862433"><ele>223.0</ele><time>2026-04-25T10:40:59.879Z</time></trkpt><trkpt lat="40.7499917" lon="14.7863167"><ele>223.5</ele><time>2026-04-25T10:41:00.88Z</time></trkpt><trkpt lat="40.75037" lon="14.786395"><ele>224.0</ele><time>2026-04-25T10:41:01.88Z</time></trkpt><trkpt lat="40.7507567" lon="14.78647"><ele>223.5</ele><time>2026-04-25T10:41:02.879Z</time></trkpt><trkpt lat="40.7511467" lon="14.7865483"><ele>223.0</ele><time>2026-04-25T10:41:03.88Z</time></trkpt><trkpt lat="40.7515367" lon="14.7866267"><ele>222.5</ele><time>2026-04-25T10:41:04.88Z</time></trkpt><trkpt lat="40.75192" lon="14.7867033"><ele>222.0</ele><time>2026-04-25T10:41:05.88Z</time></trkpt><trkpt lat="40.752295" lon="14.7867767"><ele>223.5</ele><time>2026-04-25T10:41:06.879Z</time></trkpt><trkpt lat="40.752665" lon="14.786855"><ele>225.0</ele><time>2026-04-25T10:41:07.88Z</time></trkpt><trkpt lat="40.7530317" lon="14.7869383"><ele>225.0</ele><time>2026-04-25T10:41:08.879Z</time></trkpt><trkpt lat="40.7534033" lon="14.787025"><ele>225.0</ele><time>2026-04-25T10:41:09.88Z</time></trkpt><trkpt lat="40.7537617" lon="14.7871083"><ele>226.0</ele><time>2026-04-25T10:41:10.879Z</time></trkpt><trkpt lat="40.75409" lon="14.7871833"><ele>227.0</ele><time>2026-04-25T10:41:11.879Z</time></trkpt><trkpt lat="40.754405" lon="14.7872567"><ele>229.0</ele><time>2026-04-25T10:41:12.88Z</time></trkpt><trkpt lat="40.754715" lon="14.78732"><ele>231.0</ele><time>2026-04-25T10:41:13.88Z</time></trkpt><trkpt lat="40.7550167" lon="14.7873883"><ele>233.0</ele><time>2026-04-25T10:41:14.88Z</time></trkpt><trkpt lat="40.75532" lon="14.787455"><ele>235.0</ele><time>2026-04-25T10:41:15.88Z</time></trkpt><trkpt lat="40.7556383" lon="14.787515"><ele>235.0</ele><time>2026-04-25T10:41:16.88Z</time></trkpt><trkpt lat="40.755945" lon="14.7875767"><ele>235.0</ele><time>2026-04-25T10:41:17.88Z</time></trkpt><trkpt lat="40.75623" lon="14.7876367"><ele>236.5</ele><time>2026-04-25T10:41:18.88Z</time></trkpt><trkpt lat="40.7564967" lon="14.787695"><ele>238.0</ele><time>2026-04-25T10:41:19.88Z</time></trkpt><trkpt lat="40.7567333" lon="14.7877533"><ele>238.66666666666666</ele><time>2026-04-25T10:41:20.879Z</time></trkpt><trkpt lat="40.7569417" lon="14.7878017"><ele>239.33333333333331</ele><time>2026-04-25T10:41:21.879Z</time></trkpt><trkpt lat="40.7571233" lon="14.7878383"><ele>240.0</ele><time>2026-04-25T10:41:22.879Z</time></trkpt><trkpt lat="40.757265" lon="14.7878683"><ele>240.0</ele><time>2026-04-25T10:41:23.879Z</time></trkpt><trkpt lat="40.757365" lon="14.787905"><ele>240.0</ele><time>2026-04-25T10:41:24.879Z</time></trkpt><trkpt lat="40.7574417" lon="14.78796"><ele>240.0</ele><time>2026-04-25T10:41:25.879Z</time></trkpt><trkpt lat="40.7574817" lon="14.7880517"><ele>240.0</ele><time>2026-04-25T10:41:26.88Z</time></trkpt><trkpt lat="40.7574933" lon="14.7881633"><ele>240.0</ele><time>2026-04-25T10:41:27.88Z</time></trkpt><trkpt lat="40.7574483" lon="14.7882783"><ele>240.0</ele><time>2026-04-25T10:41:28.88Z</time></trkpt><trkpt lat="40.757375" lon="14.7883733"><ele>240.0</ele><time>2026-04-25T10:41:29.879Z</time></trkpt><trkpt lat="40.7572833" lon="14.788425"><ele>240.0</ele><time>2026-04-25T10:41:30.879Z</time></trkpt><trkpt lat="40.7571733" lon="14.7884183"><ele>240.0</ele><time>2026-04-25T10:41:31.879Z</time></trkpt><trkpt lat="40.757055" lon="14.7883733"><ele>240.0</ele><time>2026-04-25T10:41:32.879Z</time></trkpt><trkpt lat="40.7569333" lon="14.7883333"><ele>239.33333333333331</ele><time>2026-04-25T10:41:33.879Z</time></trkpt><trkpt lat="40.7567967" lon="14.788305"><ele>238.66666666666666</ele><time>2026-04-25T10:41:34.88Z</time></trkpt><trkpt lat="40.75662" lon="14.7882883"><ele>238.0</ele><time>2026-04-25T10:41:35.88Z</time></trkpt><trkpt lat="40.7564317" lon="14.7882717"><ele>238.0</ele><time>2026-04-25T10:41:36.88Z</time></trkpt><trkpt lat="40.7562683" lon="14.78826"><ele>238.0</ele><time>2026-04-25T10:41:37.88Z</time></trkpt><trkpt lat="40.7561233" lon="14.7882433"><ele>238.0</ele><time>2026-04-25T10:41:38.88Z</time></trkpt><trkpt lat="40.756" lon="14.7882117"><ele>238.0</ele><time>2026-04-25T10:41:39.879Z</time></trkpt><trkpt lat="40.7558933" lon="14.7881817"><ele>237.83333333333331</ele><time>2026-04-25T10:41:40.879Z</time></trkpt><trkpt lat="40.7558" lon="14.78816"><ele>237.66666666666666</ele><time>2026-04-25T10:41:41.88Z</time></trkpt><trkpt lat="40.7557217" lon="14.7881383"><ele>237.5</ele><time>2026-04-25T10:41:42.88Z</time></trkpt><trkpt lat="40.7556467" lon="14.788105"><ele>237.33333333333331</ele><time>2026-04-25T10:41:43.879Z</time></trkpt><trkpt lat="40.7555883" lon="14.7880533"><ele>237.16666666666666</ele><time>2026-04-25T10:41:44.88Z</time></trkpt><trkpt lat="40.7555233" lon="14.7879867"><ele>237.0</ele><time>2026-04-25T10:41:45.879Z</time></trkpt><trkpt lat="40.755465" lon="14.7878867"><ele>237.0</ele><time>2026-04-25T10:41:46.88Z</time></trkpt><trkpt lat="40.7554367" lon="14.78775"><ele>237.0</ele><time>2026-04-25T10:41:47.879Z</time></trkpt><trkpt lat="40.7554367" lon="14.7875767"><ele>237.0</ele><time>2026-04-25T10:41:48.88Z</time></trkpt><trkpt lat="40.7554467" lon="14.787385"><ele>237.0</ele><time>2026-04-25T10:41:49.88Z</time></trkpt><trkpt lat="40.7554733" lon="14.787155"><ele>236.33333333333331</ele><time>2026-04-25T10:41:50.879Z</time></trkpt><trkpt lat="40.755545" lon="14.7869067"><ele>235.66666666666666</ele><time>2026-04-25T10:41:51.88Z</time></trkpt><trkpt lat="40.7556133" lon="14.7866717"><ele>235.0</ele><time>2026-04-25T10:41:52.88Z</time></trkpt><trkpt lat="40.7556617" lon="14.78649"><ele>234.4</ele><time>2026-04-25T10:41:53.879Z</time></trkpt><trkpt lat="40.7556917" lon="14.7863383"><ele>233.8</ele><time>2026-04-25T10:41:54.88Z</time></trkpt><trkpt lat="40.7556967" lon="14.78621"><ele>233.2</ele><time>2026-04-25T10:41:55.88Z</time></trkpt><trkpt lat="40.7556833" lon="14.78609"><ele>232.6</ele><time>2026-04-25T10:41:56.88Z</time></trkpt><trkpt lat="40.75566" lon="14.7859917"><ele>232.0</ele><time>2026-04-25T10:41:57.88Z</time></trkpt><trkpt lat="40.7556333" lon="14.7858767"><ele>231.39999999999998</ele><time>2026-04-25T10:41:59.88Z</time></trkpt><trkpt lat="40.7556183" lon="14.785795"><ele>230.79999999999998</ele><time>2026-04-25T10:42:01.88Z</time></trkpt><trkpt lat="40.7555917" lon="14.7856717"><ele>230.2</ele><time>2026-04-25T10:42:03.88Z</time></trkpt><trkpt lat="40.75556" lon="14.7855883"><ele>229.6</ele><time>2026-04-25T10:42:04.879Z</time></trkpt><trkpt lat="40.7555017" lon="14.7854533"><ele>229.0</ele><time>2026-04-25T10:42:05.88Z</time></trkpt><trkpt lat="40.7554367" lon="14.7852717"><ele>228.25</ele><time>2026-04-25T10:42:06.879Z</time></trkpt><trkpt lat="40.7553783" lon="14.7851"><ele>227.5</ele><time>2026-04-25T10:42:07.879Z</time></trkpt><trkpt lat="40.755335" lon="14.78495"><ele>226.75</ele><time>2026-04-25T10:42:08.88Z</time></trkpt><trkpt lat="40.7552933" lon="14.7848167"><ele>226.0</ele><time>2026-04-25T10:42:09.88Z</time></trkpt><trkpt lat="40.7552533" lon="14.78469"><ele>226.0</ele><time>2026-04-25T10:42:10.88Z</time></trkpt><trkpt lat="40.7552133" lon="14.7845667"><ele>226.00000000000003</ele><time>2026-04-25T10:42:11.88Z</time></trkpt><trkpt lat="40.7551683" lon="14.78444"><ele>226.00000000000003</ele><time>2026-04-25T10:42:12.88Z</time></trkpt><trkpt lat="40.7551217" lon="14.784305"><ele>226.0</ele><time>2026-04-25T10:42:13.879Z</time></trkpt><trkpt lat="40.7550667" lon="14.7841583"><ele>226.0</ele><time>2026-04-25T10:42:14.88Z</time></trkpt><trkpt lat="40.7550017" lon="14.7840017"><ele>225.0</ele><time>2026-04-25T10:42:15.879Z</time></trkpt><trkpt lat="40.754915" lon="14.783805"><ele>224.0</ele><time>2026-04-25T10:42:16.88Z</time></trkpt><trkpt lat="40.7548283" lon="14.783585"><ele>223.0</ele><time>2026-04-25T10:42:17.88Z</time></trkpt><trkpt lat="40.7547467" lon="14.78338"><ele>222.25</ele><time>2026-04-25T10:42:18.879Z</time></trkpt><trkpt lat="40.7546767" lon="14.7832133"><ele>221.5</ele><time>2026-04-25T10:42:19.88Z</time></trkpt><trkpt lat="40.75463" lon="14.7830633"><ele>220.75</ele><time>2026-04-25T10:42:20.879Z</time></trkpt><trkpt lat="40.7546017" lon="14.7829067"><ele>220.0</ele><time>2026-04-25T10:42:21.88Z</time></trkpt><trkpt lat="40.7545683" lon="14.7827483"><ele>218.66666666666666</ele><time>2026-04-25T10:42:22.88Z</time></trkpt><trkpt lat="40.7544817" lon="14.7825967"><ele>217.33333333333331</ele><time>2026-04-25T10:42:23.88Z</time></trkpt><trkpt lat="40.754365" lon="14.7824367"><ele>216.0</ele><time>2026-04-25T10:42:24.879Z</time></trkpt><trkpt lat="40.7542517" lon="14.78225"><ele>215.66666666666669</ele><time>2026-04-25T10:42:25.88Z</time></trkpt><trkpt lat="40.7541433" lon="14.782015"><ele>215.33333333333334</ele><time>2026-04-25T10:42:26.879Z</time></trkpt><trkpt lat="40.7540433" lon="14.7817717"><ele>215.0</ele><time>2026-04-25T10:42:27.88Z</time></trkpt><trkpt lat="40.753955" lon="14.781545"><ele>214.5</ele><time>2026-04-25T10:42:28.88Z</time></trkpt><trkpt lat="40.75388" lon="14.781355"><ele>214.0</ele><time>2026-04-25T10:42:29.879Z</time></trkpt><trkpt lat="40.7538167" lon="14.7811917"><ele>213.5</ele><time>2026-04-25T10:42:30.879Z</time></trkpt><trkpt lat="40.75378" lon="14.78104"><ele>213.0</ele><time>2026-04-25T10:42:31.88Z</time></trkpt><trkpt lat="40.753765" lon="14.780895"><ele>212.66666666666666</ele><time>2026-04-25T10:42:32.88Z</time></trkpt><trkpt lat="40.7537567" lon="14.7807833"><ele>212.33333333333331</ele><time>2026-04-25T10:42:33.879Z</time></trkpt><trkpt lat="40.7537217" lon="14.780705"><ele>212.0</ele><time>2026-04-25T10:42:34.879Z</time></trkpt><trkpt lat="40.7536633" lon="14.7806533"><ele>211.66666666666666</ele><time>2026-04-25T10:42:35.88Z</time></trkpt><trkpt lat="40.7535717" lon="14.7806267"><ele>211.33333333333331</ele><time>2026-04-25T10:42:36.879Z</time></trkpt><trkpt lat="40.753465" lon="14.7805833"><ele>211.0</ele><time>2026-04-25T10:42:37.88Z</time></trkpt><trkpt lat="40.7533467" lon="14.78051"><ele>211.0</ele><time>2026-04-25T10:42:38.879Z</time></trkpt><trkpt lat="40.7532333" lon="14.7803967"><ele>211.0</ele><time>2026-04-25T10:42:39.88Z</time></trkpt><trkpt lat="40.7531333" lon="14.7802783"><ele>211.0</ele><time>2026-04-25T10:42:40.88Z</time></trkpt><trkpt lat="40.7530467" lon="14.7801733"><ele>211.0</ele><time>2026-04-25T10:42:41.879Z</time></trkpt><trkpt lat="40.752965" lon="14.780075"><ele>210.75</ele><time>2026-04-25T10:42:42.879Z</time></trkpt><trkpt lat="40.7528833" lon="14.7799767"><ele>210.5</ele><time>2026-04-25T10:42:43.879Z</time></trkpt><trkpt lat="40.7527967" lon="14.779865"><ele>210.25</ele><time>2026-04-25T10:42:44.88Z</time></trkpt><trkpt lat="40.7526983" lon="14.7797383"><ele>210.0</ele><time>2026-04-25T10:42:45.879Z</time></trkpt><trkpt lat="40.7525917" lon="14.7795983"><ele>209.25</ele><time>2026-04-25T10:42:46.879Z</time></trkpt><trkpt lat="40.7524833" lon="14.77945"><ele>208.5</ele><time>2026-04-25T10:42:47.879Z</time></trkpt><trkpt lat="40.752375" lon="14.7793117"><ele>207.75</ele><time>2026-04-25T10:42:48.879Z</time></trkpt><trkpt lat="40.7522767" lon="14.7791833"><ele>207.0</ele><time>2026-04-25T10:42:49.879Z</time></trkpt><trkpt lat="40.752185" lon="14.7790567"><ele>206.25</ele><time>2026-04-25T10:42:50.88Z</time></trkpt><trkpt lat="40.7520983" lon="14.77894"><ele>205.5</ele><time>2026-04-25T10:42:51.88Z</time></trkpt><trkpt lat="40.7520233" lon="14.7788317"><ele>204.75</ele><time>2026-04-25T10:42:52.88Z</time></trkpt><trkpt lat="40.7519633" lon="14.7787233"><ele>204.0</ele><time>2026-04-25T10:42:53.88Z</time></trkpt><trkpt lat="40.75189" lon="14.7785967"><ele>203.0</ele><time>2026-04-25T10:42:54.879Z</time></trkpt><trkpt lat="40.7518017" lon="14.7784333"><ele>202.0</ele><time>2026-04-25T10:42:55.879Z</time></trkpt><trkpt lat="40.7516917" lon="14.77824"><ele>201.0</ele><time>2026-04-25T10:42:56.879Z</time></trkpt><trkpt lat="40.751575" lon="14.7780383"><ele>201.0</ele><time>2026-04-25T10:42:57.88Z</time></trkpt><trkpt lat="40.7514733" lon="14.7778533"><ele>201.0</ele><time>2026-04-25T10:42:58.88Z</time></trkpt><trkpt lat="40.7513883" lon="14.777685"><ele>201.0</ele><time>2026-04-25T10:42:59.88Z</time></trkpt><trkpt lat="40.7513233" lon="14.7775083"><ele>200.5</ele><time>2026-04-25T10:43:00.88Z</time></trkpt><trkpt lat="40.7512683" lon="14.77733"><ele>200.0</ele><time>2026-04-25T10:43:01.879Z</time></trkpt><trkpt lat="40.7512233" lon="14.7771417"><ele>199.5</ele><time>2026-04-25T10:43:02.88Z</time></trkpt><trkpt lat="40.7511933" lon="14.7769667"><ele>199.0</ele><time>2026-04-25T10:43:03.879Z</time></trkpt><trkpt lat="40.7511783" lon="14.7767933"><ele>198.2</ele><time>2026-04-25T10:43:04.88Z</time></trkpt><trkpt lat="40.7511783" lon="14.7766283"><ele>197.39999999999998</ele><time>2026-04-25T10:43:05.879Z</time></trkpt><trkpt lat="40.7512017" lon="14.776495"><ele>196.6</ele><time>2026-04-25T10:43:06.88Z</time></trkpt><trkpt lat="40.75123" lon="14.776385"><ele>195.8</ele><time>2026-04-25T10:43:07.88Z</time></trkpt><trkpt lat="40.7512217" lon="14.77624"><ele>195.0</ele><time>2026-04-25T10:43:09.88Z</time></trkpt><trkpt lat="40.7510867" lon="14.7761717"><ele>195.0</ele><time>2026-04-25T10:43:11.88Z</time></trkpt><trkpt lat="40.7509783" lon="14.7761667"><ele>195.0</ele><time>2026-04-25T10:43:12.879Z</time></trkpt><trkpt lat="40.7508833" lon="14.7761383"><ele>195.0</ele><time>2026-04-25T10:43:13.88Z</time></trkpt><trkpt lat="40.750825" lon="14.7761017"><ele>195.0</ele><time>2026-04-25T10:43:14.88Z</time></trkpt><trkpt lat="40.75075" lon="14.7760417"><ele>195.0</ele><time>2026-04-25T10:43:16.88Z</time></trkpt><trkpt lat="40.7506567" lon="14.7759533"><ele>194.8</ele><time>2026-04-25T10:43:18.88Z</time></trkpt><trkpt lat="40.75061" lon="14.7758767"><ele>194.6</ele><time>2026-04-25T10:43:19.88Z</time></trkpt><trkpt lat="40.750555" lon="14.7758"><ele>194.39999999999998</ele><time>2026-04-25T10:43:20.88Z</time></trkpt><trkpt lat="40.7504767" lon="14.7757183"><ele>194.2</ele><time>2026-04-25T10:43:21.879Z</time></trkpt><trkpt lat="40.75037" lon="14.77564"><ele>194.0</ele><time>2026-04-25T10:43:22.879Z</time></trkpt><trkpt lat="40.750285" lon="14.775565"><ele>194.00000000000003</ele><time>2026-04-25T10:43:23.879Z</time></trkpt><trkpt lat="40.7502333" lon="14.7755083"><ele>194.0</ele><time>2026-04-25T10:43:24.88Z</time></trkpt><trkpt lat="40.7501683" lon="14.7754067"><ele>194.0</ele><time>2026-04-25T10:43:26.879Z</time></trkpt><trkpt lat="40.7501217" lon="14.7753433"><ele>194.0</ele><time>2026-04-25T10:43:27.88Z</time></trkpt><trkpt lat="40.75007" lon="14.7752817"><ele>194.00000000000003</ele><time>2026-04-25T10:43:28.88Z</time></trkpt><trkpt lat="40.7500217" lon="14.7752083"><ele>194.0</ele><time>2026-04-25T10:43:29.88Z</time></trkpt><trkpt lat="40.7499883" lon="14.77512"><ele>194.25</ele><time>2026-04-25T10:43:30.88Z</time></trkpt><trkpt lat="40.7499583" lon="14.7749883"><ele>194.5</ele><time>2026-04-25T10:43:31.879Z</time></trkpt><trkpt lat="40.7499517" lon="14.7748267"><ele>194.75</ele><time>2026-04-25T10:43:32.88Z</time></trkpt><trkpt lat="40.7499517" lon="14.7746433"><ele>195.0</ele><time>2026-04-25T10:43:33.88Z</time></trkpt><trkpt lat="40.7499617" lon="14.77447"><ele>194.66666666666669</ele><time>2026-04-25T10:43:34.879Z</time></trkpt><trkpt lat="40.7499633" lon="14.77429"><ele>194.33333333333334</ele><time>2026-04-25T10:43:35.879Z</time></trkpt><trkpt lat="40.7499583" lon="14.7740883"><ele>194.0</ele><time>2026-04-25T10:43:36.88Z</time></trkpt><trkpt lat="40.7499683" lon="14.7738683"><ele>194.0</ele><time>2026-04-25T10:43:37.879Z</time></trkpt><trkpt lat="40.7499733" lon="14.77365"><ele>194.0</ele><time>2026-04-25T10:43:38.88Z</time></trkpt><trkpt lat="40.7499783" lon="14.7734733"><ele>194.0</ele><time>2026-04-25T10:43:39.88Z</time></trkpt><trkpt lat="40.7499833" lon="14.773305"><ele>194.0</ele><time>2026-04-25T10:43:40.88Z</time></trkpt><trkpt lat="40.7499817" lon="14.7731317"><ele>195.25</ele><time>2026-04-25T10:43:41.879Z</time></trkpt><trkpt lat="40.7499783" lon="14.7729533"><ele>196.5</ele><time>2026-04-25T10:43:42.88Z</time></trkpt><trkpt lat="40.74998" lon="14.772775"><ele>197.75</ele><time>2026-04-25T10:43:43.879Z</time></trkpt><trkpt lat="40.7499983" lon="14.772605"><ele>199.0</ele><time>2026-04-25T10:43:44.879Z</time></trkpt><trkpt lat="40.749995" lon="14.7724883"><ele>199.0</ele><time>2026-04-25T10:43:45.879Z</time></trkpt><trkpt lat="40.7500017" lon="14.7723717"><ele>199.0</ele><time>2026-04-25T10:43:46.88Z</time></trkpt><trkpt lat="40.7500117" lon="14.7722533"><ele>199.0</ele><time>2026-04-25T10:43:47.88Z</time></trkpt><trkpt lat="40.7500167" lon="14.7721183"><ele>199.0</ele><time>2026-04-25T10:43:48.88Z</time></trkpt><trkpt lat="40.7500133" lon="14.77199"><ele>199.0</ele><time>2026-04-25T10:43:49.88Z</time></trkpt><trkpt lat="40.7500183" lon="14.7718667"><ele>198.66666666666666</ele><time>2026-04-25T10:43:50.88Z</time></trkpt><trkpt lat="40.7500267" lon="14.7717767"><ele>198.33333333333331</ele><time>2026-04-25T10:43:51.88Z</time></trkpt><trkpt lat="40.7500017" lon="14.7716667"><ele>198.0</ele><time>2026-04-25T10:43:54.88Z</time></trkpt><trkpt lat="40.7499217" lon="14.7715533"><ele>197.66666666666669</ele><time>2026-04-25T10:43:56.88Z</time></trkpt><trkpt lat="40.7498533" lon="14.7714817"><ele>197.33333333333334</ele><time>2026-04-25T10:43:57.88Z</time></trkpt><trkpt lat="40.7497917" lon="14.77142"><ele>197.0</ele><time>2026-04-25T10:43:58.879Z</time></trkpt><trkpt lat="40.749745" lon="14.7713483"><ele>197.0</ele><time>2026-04-25T10:43:59.88Z</time></trkpt><trkpt lat="40.7497183" lon="14.7712667"><ele>197.0</ele><time>2026-04-25T10:44:00.88Z</time></trkpt><trkpt lat="40.7497033" lon="14.771185"><ele>197.0</ele><time>2026-04-25T10:44:01.88Z</time></trkpt><trkpt lat="40.749695" lon="14.7710733"><ele>197.0</ele><time>2026-04-25T10:44:02.879Z</time></trkpt><trkpt lat="40.749715" lon="14.7709217"><ele>197.0</ele><time>2026-04-25T10:44:03.88Z</time></trkpt><trkpt lat="40.7497583" lon="14.770705"><ele>197.0</ele><time>2026-04-25T10:44:04.879Z</time></trkpt><trkpt lat="40.7497983" lon="14.7704717"><ele>197.0</ele><time>2026-04-25T10:44:05.879Z</time></trkpt><trkpt lat="40.7498317" lon="14.7702583"><ele>197.0</ele><time>2026-04-25T10:44:06.88Z</time></trkpt><trkpt lat="40.7498483" lon="14.770095"><ele>197.33333333333334</ele><time>2026-04-25T10:44:07.88Z</time></trkpt><trkpt lat="40.7498667" lon="14.7699817"><ele>197.66666666666669</ele><time>2026-04-25T10:44:08.879Z</time></trkpt><trkpt lat="40.7498917" lon="14.7698833"><ele>198.0</ele><time>2026-04-25T10:44:09.88Z</time></trkpt><trkpt lat="40.749905" lon="14.7697933"><ele>198.33333333333331</ele><time>2026-04-25T10:44:10.879Z</time></trkpt><trkpt lat="40.7498267" lon="14.7697117"><ele>198.66666666666666</ele><time>2026-04-25T10:44:12.88Z</time></trkpt><trkpt lat="40.749765" lon="14.7697533"><ele>199.0</ele><time>2026-04-25T10:44:13.879Z</time></trkpt><trkpt lat="40.7496933" lon="14.769815"><ele>199.0</ele><time>2026-04-25T10:44:14.879Z</time></trkpt><trkpt lat="40.7496133" lon="14.76986"><ele>199.0</ele><time>2026-04-25T10:44:15.879Z</time></trkpt><trkpt lat="40.7495183" lon="14.7698383"><ele>199.0</ele><time>2026-04-25T10:44:16.879Z</time></trkpt><trkpt lat="40.7494133" lon="14.7697833"><ele>199.0</ele><time>2026-04-25T10:44:17.879Z</time></trkpt><trkpt lat="40.749295" lon="14.7697317"><ele>199.0</ele><time>2026-04-25T10:44:18.879Z</time></trkpt><trkpt lat="40.74919" lon="14.76969"><ele>198.49999999999997</ele><time>2026-04-25T10:44:19.88Z</time></trkpt><trkpt lat="40.74911" lon="14.769655"><ele>198.0</ele><time>2026-04-25T10:44:20.879Z</time></trkpt><trkpt lat="40.7490167" lon="14.7696217"><ele>197.5</ele><time>2026-04-25T10:44:22.879Z</time></trkpt><trkpt lat="40.7489717" lon="14.7696933"><ele>197.0</ele><time>2026-04-25T10:44:25.879Z</time></trkpt><trkpt lat="40.749005" lon="14.7697817"><ele>196.49999999999997</ele><time>2026-04-25T10:44:27.88Z</time></trkpt><trkpt lat="40.7490617" lon="14.7698267"><ele>196.0</ele><time>2026-04-25T10:44:28.879Z</time></trkpt><trkpt lat="40.7491433" lon="14.76986"><ele>196.0</ele><time>2026-04-25T10:44:29.88Z</time></trkpt><trkpt lat="40.7492567" lon="14.7698783"><ele>196.0</ele><time>2026-04-25T10:44:30.879Z</time></trkpt><trkpt lat="40.7493983" lon="14.769905"><ele>196.0</ele><time>2026-04-25T10:44:31.879Z</time></trkpt><trkpt lat="40.749545" lon="14.7699233"><ele>196.0</ele><time>2026-04-25T10:44:32.879Z</time></trkpt><trkpt lat="40.7496717" lon="14.76993"><ele>196.49999999999997</ele><time>2026-04-25T10:44:33.879Z</time></trkpt><trkpt lat="40.7497667" lon="14.7699317"><ele>197.0</ele><time>2026-04-25T10:44:34.88Z</time></trkpt><trkpt lat="40.7498517" lon="14.7699117"><ele>197.5</ele><time>2026-04-25T10:44:35.88Z</time></trkpt><trkpt lat="40.7499133" lon="14.769865"><ele>198.0</ele><time>2026-04-25T10:44:36.879Z</time></trkpt><trkpt lat="40.749955" lon="14.7697883"><ele>198.49999999999997</ele><time>2026-04-25T10:44:37.879Z</time></trkpt><trkpt lat="40.75" lon="14.769695"><ele>199.0</ele><time>2026-04-25T10:44:38.879Z</time></trkpt><trkpt lat="40.750065" lon="14.7696133"><ele>199.0</ele><time>2026-04-25T10:44:39.88Z</time></trkpt><trkpt lat="40.7501817" lon="14.7695333"><ele>199.0</ele><time>2026-04-25T10:44:40.879Z</time></trkpt><trkpt lat="40.7503167" lon="14.7694517"><ele>199.0</ele><time>2026-04-25T10:44:41.88Z</time></trkpt><trkpt lat="40.7504467" lon="14.7693767"><ele>199.0</ele><time>2026-04-25T10:44:42.88Z</time></trkpt><trkpt lat="40.750585" lon="14.76933"><ele>198.33333333333331</ele><time>2026-04-25T10:44:43.879Z</time></trkpt><trkpt lat="40.7507317" lon="14.7693283"><ele>197.66666666666669</ele><time>2026-04-25T10:44:44.88Z</time></trkpt><trkpt lat="40.7508917" lon="14.769365"><ele>197.0</ele><time>2026-04-25T10:44:45.879Z</time></trkpt><trkpt lat="40.751065" lon="14.76942"><ele>196.33333333333334</ele><time>2026-04-25T10:44:46.88Z</time></trkpt><trkpt lat="40.7512417" lon="14.76947"><ele>195.66666666666669</ele><time>2026-04-25T10:44:47.879Z</time></trkpt><trkpt lat="40.7514117" lon="14.76951"><ele>195.0</ele><time>2026-04-25T10:44:48.879Z</time></trkpt><trkpt lat="40.7515717" lon="14.7695467"><ele>195.0</ele><time>2026-04-25T10:44:49.879Z</time></trkpt><trkpt lat="40.7517367" lon="14.7695783"><ele>195.0</ele><time>2026-04-25T10:44:50.879Z</time></trkpt><trkpt lat="40.7518933" lon="14.7696233"><ele>195.0</ele><time>2026-04-25T10:44:51.88Z</time></trkpt><trkpt lat="40.752035" lon="14.7696667"><ele>194.6</ele><time>2026-04-25T10:44:52.879Z</time></trkpt><trkpt lat="40.752165" lon="14.7697067"><ele>194.2</ele><time>2026-04-25T10:44:53.879Z</time></trkpt><trkpt lat="40.752275" lon="14.7697433"><ele>193.8</ele><time>2026-04-25T10:44:54.88Z</time></trkpt><trkpt lat="40.7523683" lon="14.7697783"><ele>193.4</ele><time>2026-04-25T10:44:55.879Z</time></trkpt><trkpt lat="40.7524533" lon="14.7698117"><ele>193.0</ele><time>2026-04-25T10:44:56.879Z</time></trkpt><trkpt lat="40.7525433" lon="14.76985"><ele>193.0</ele><time>2026-04-25T10:44:57.88Z</time></trkpt><trkpt lat="40.7526467" lon="14.7698983"><ele>193.0</ele><time>2026-04-25T10:44:58.88Z</time></trkpt><trkpt lat="40.7527667" lon="14.76996"><ele>193.0</ele><time>2026-04-25T10:44:59.88Z</time></trkpt><trkpt lat="40.7528933" lon="14.7700233"><ele>193.0</ele><time>2026-04-25T10:45:00.88Z</time></trkpt><trkpt lat="40.7530267" lon="14.77009"><ele>193.0</ele><time>2026-04-25T10:45:01.879Z</time></trkpt><trkpt lat="40.75316" lon="14.7701417"><ele>193.0</ele><time>2026-04-25T10:45:02.88Z</time></trkpt><trkpt lat="40.7532817" lon="14.770195"><ele>193.0</ele><time>2026-04-25T10:45:03.879Z</time></trkpt><trkpt lat="40.7534067" lon="14.7702533"><ele>193.0</ele><time>2026-04-25T10:45:04.879Z</time></trkpt><trkpt lat="40.75354" lon="14.7703333"><ele>194.0</ele><time>2026-04-25T10:45:05.88Z</time></trkpt><trkpt lat="40.7536717" lon="14.7704333"><ele>195.0</ele><time>2026-04-25T10:45:06.88Z</time></trkpt><trkpt lat="40.75382" lon="14.7705367"><ele>196.0</ele><time>2026-04-25T10:45:07.88Z</time></trkpt><trkpt lat="40.7539717" lon="14.7706717"><ele>196.0</ele><time>2026-04-25T10:45:08.879Z</time></trkpt><trkpt lat="40.75412" lon="14.770795"><ele>196.0</ele><time>2026-04-25T10:45:09.879Z</time></trkpt><trkpt lat="40.7542567" lon="14.7709033"><ele>196.0</ele><time>2026-04-25T10:45:10.879Z</time></trkpt><trkpt lat="40.75438" lon="14.7710133"><ele>197.0</ele><time>2026-04-25T10:45:11.88Z</time></trkpt><trkpt lat="40.7545067" lon="14.771125"><ele>198.0</ele><time>2026-04-25T10:45:12.879Z</time></trkpt><trkpt lat="40.7546417" lon="14.7712417"><ele>199.0</ele><time>2026-04-25T10:45:13.88Z</time></trkpt><trkpt lat="40.7547917" lon="14.7713533"><ele>199.0</ele><time>2026-04-25T10:45:14.879Z</time></trkpt><trkpt lat="40.7549483" lon="14.77144"><ele>199.0</ele><time>2026-04-25T10:45:15.879Z</time></trkpt><trkpt lat="40.7551117" lon="14.7715"><ele>199.0</ele><time>2026-04-25T10:45:16.879Z</time></trkpt><trkpt lat="40.7552833" lon="14.7715467"><ele>199.0</ele><time>2026-04-25T10:45:17.879Z</time></trkpt><trkpt lat="40.7554583" lon="14.7715833"><ele>199.0</ele><time>2026-04-25T10:45:18.88Z</time></trkpt><trkpt lat="40.7556183" lon="14.7716017"><ele>199.0</ele><time>2026-04-25T10:45:19.879Z</time></trkpt><trkpt lat="40.7557483" lon="14.7716267"><ele>199.0</ele><time>2026-04-25T10:45:20.879Z</time></trkpt><trkpt lat="40.755835" lon="14.7716667"><ele>199.0</ele><time>2026-04-25T10:45:21.88Z</time></trkpt><trkpt lat="40.7558933" lon="14.7717233"><ele>199.0</ele><time>2026-04-25T10:45:22.88Z</time></trkpt><trkpt lat="40.7559217" lon="14.7718167"><ele>199.0</ele><time>2026-04-25T10:45:23.879Z</time></trkpt><trkpt lat="40.755925" lon="14.7719567"><ele>199.0</ele><time>2026-04-25T10:45:24.879Z</time></trkpt><trkpt lat="40.7559167" lon="14.7721283"><ele>198.33333333333331</ele><time>2026-04-25T10:45:25.88Z</time></trkpt><trkpt lat="40.7559" lon="14.7723333"><ele>197.66666666666669</ele><time>2026-04-25T10:45:26.879Z</time></trkpt><trkpt lat="40.75589" lon="14.7725417"><ele>197.0</ele><time>2026-04-25T10:45:27.88Z</time></trkpt><trkpt lat="40.75587" lon="14.7727283"><ele>197.0</ele><time>2026-04-25T10:45:28.879Z</time></trkpt><trkpt lat="40.7558433" lon="14.772895"><ele>197.0</ele><time>2026-04-25T10:45:29.879Z</time></trkpt><trkpt lat="40.755815" lon="14.7730383"><ele>197.0</ele><time>2026-04-25T10:45:30.88Z</time></trkpt><trkpt lat="40.7557867" lon="14.773155"><ele>197.0</ele><time>2026-04-25T10:45:31.88Z</time></trkpt><trkpt lat="40.7557433" lon="14.7732417"><ele>197.0</ele><time>2026-04-25T10:45:32.879Z</time></trkpt><trkpt lat="40.7556783" lon="14.7732867"><ele>197.0</ele><time>2026-04-25T10:45:33.879Z</time></trkpt><trkpt lat="40.7555883" lon="14.7732817"><ele>197.0</ele><time>2026-04-25T10:45:34.88Z</time></trkpt><trkpt lat="40.7554667" lon="14.7732417"><ele>197.0</ele><time>2026-04-25T10:45:35.879Z</time></trkpt><trkpt lat="40.7553467" lon="14.7732133"><ele>197.0</ele><time>2026-04-25T10:45:36.879Z</time></trkpt><trkpt lat="40.7552583" lon="14.7732283"><ele>197.0</ele><time>2026-04-25T10:45:37.88Z</time></trkpt><trkpt lat="40.7552033" lon="14.7732783"><ele>197.0</ele><time>2026-04-25T10:45:38.879Z</time></trkpt><trkpt lat="40.75518" lon="14.7733633"><ele>197.0</ele><time>2026-04-25T10:45:40.879Z</time></trkpt><trkpt lat="40.75524" lon="14.7734283"><ele>197.0</ele><time>2026-04-25T10:45:42.88Z</time></trkpt><trkpt lat="40.75531" lon="14.7734567"><ele>197.0</ele><time>2026-04-25T10:45:43.88Z</time></trkpt><trkpt lat="40.7554183" lon="14.7734733"><ele>197.0</ele><time>2026-04-25T10:45:44.88Z</time></trkpt><trkpt lat="40.75554" lon="14.7734833"><ele>197.00000000000003</ele><time>2026-04-25T10:45:45.879Z</time></trkpt><trkpt lat="40.7556333" lon="14.7734983"><ele>197.0</ele><time>2026-04-25T10:45:46.879Z</time></trkpt><trkpt lat="40.7557167" lon="14.7735033"><ele>197.0</ele><time>2026-04-25T10:45:48.88Z</time></trkpt><trkpt lat="40.75577" lon="14.7734333"><ele>197.0</ele><time>2026-04-25T10:45:50.879Z</time></trkpt><trkpt lat="40.7557833" lon="14.7733333"><ele>197.00000000000003</ele><time>2026-04-25T10:45:52.879Z</time></trkpt><trkpt lat="40.755795" lon="14.7731917"><ele>197.0</ele><time>2026-04-25T10:46:22.88Z</time></trkpt><trkpt lat="40.7558183" lon="14.77301"><ele>197.0</ele><time>2026-04-25T10:46:23.88Z</time></trkpt><trkpt lat="40.7558567" lon="14.7727317"><ele>197.0</ele><time>2026-04-25T10:46:24.88Z</time></trkpt><trkpt lat="40.7558983" lon="14.7724517"><ele>197.0</ele><time>2026-04-25T10:46:25.879Z</time></trkpt><trkpt lat="40.7559367" lon="14.77221"><ele>197.0</ele><time>2026-04-25T10:46:26.88Z</time></trkpt><trkpt lat="40.7559533" lon="14.77201"><ele>197.0</ele><time>2026-04-25T10:46:27.879Z</time></trkpt><trkpt lat="40.7559533" lon="14.7718533"><ele>197.0</ele><time>2026-04-25T10:46:28.88Z</time></trkpt><trkpt lat="40.7559417" lon="14.77174"><ele>197.0</ele><time>2026-04-25T10:46:29.879Z</time></trkpt><trkpt lat="40.7558817" lon="14.77162"><ele>197.5</ele><time>2026-04-25T10:46:31.88Z</time></trkpt><trkpt lat="40.7557367" lon="14.7715867"><ele>198.0</ele><time>2026-04-25T10:46:33.879Z</time></trkpt><trkpt lat="40.75562" lon="14.7715717"><ele>198.5</ele><time>2026-04-25T10:46:34.879Z</time></trkpt><trkpt lat="40.75548" lon="14.7715467"><ele>199.0</ele><time>2026-04-25T10:46:35.879Z</time></trkpt><trkpt lat="40.7553333" lon="14.771535"><ele>199.0</ele><time>2026-04-25T10:46:36.88Z</time></trkpt><trkpt lat="40.7552067" lon="14.7715183"><ele>199.0</ele><time>2026-04-25T10:46:37.88Z</time></trkpt><trkpt lat="40.755085" lon="14.7714867"><ele>199.0</ele><time>2026-04-25T10:46:38.88Z</time></trkpt><trkpt lat="40.7549583" lon="14.7714367"><ele>199.0</ele><time>2026-04-25T10:46:39.879Z</time></trkpt><trkpt lat="40.7548383" lon="14.771375"><ele>199.0</ele><time>2026-04-25T10:46:40.879Z</time></trkpt><trkpt lat="40.7547333" lon="14.7713317"><ele>199.0</ele><time>2026-04-25T10:46:41.879Z</time></trkpt><trkpt lat="40.7546467" lon="14.7712783"><ele>199.0</ele><time>2026-04-25T10:46:42.88Z</time></trkpt><trkpt lat="40.7545633" lon="14.77121"><ele>199.0</ele><time>2026-04-25T10:46:43.879Z</time></trkpt><trkpt lat="40.7544717" lon="14.7711133"><ele>199.0</ele><time>2026-04-25T10:46:44.88Z</time></trkpt><trkpt lat="40.754385" lon="14.7710083"><ele>198.25</ele><time>2026-04-25T10:46:45.879Z</time></trkpt><trkpt lat="40.7542817" lon="14.7709033"><ele>197.5</ele><time>2026-04-25T10:46:46.88Z</time></trkpt><trkpt lat="40.75417" lon="14.7708117"><ele>196.75</ele><time>2026-04-25T10:46:47.88Z</time></trkpt><trkpt lat="40.7540683" lon="14.7707167"><ele>196.0</ele><time>2026-04-25T10:46:48.88Z</time></trkpt><trkpt lat="40.7539633" lon="14.77063"><ele>196.0</ele><time>2026-04-25T10:46:49.88Z</time></trkpt><trkpt lat="40.7538583" lon="14.7705483"><ele>196.0</ele><time>2026-04-25T10:46:50.879Z</time></trkpt><trkpt lat="40.7537633" lon="14.7704733"><ele>196.0</ele><time>2026-04-25T10:46:51.88Z</time></trkpt><trkpt lat="40.7536717" lon="14.770405"><ele>196.0</ele><time>2026-04-25T10:46:52.879Z</time></trkpt><trkpt lat="40.7535833" lon="14.77034"><ele>196.0</ele><time>2026-04-25T10:46:53.88Z</time></trkpt><trkpt lat="40.75349" lon="14.77028"><ele>195.83333333333331</ele><time>2026-04-25T10:46:54.88Z</time></trkpt><trkpt lat="40.7533983" lon="14.770225"><ele>195.66666666666666</ele><time>2026-04-25T10:46:55.879Z</time></trkpt><trkpt lat="40.7533133" lon="14.7701733"><ele>195.5</ele><time>2026-04-25T10:46:56.88Z</time></trkpt><trkpt lat="40.7532383" lon="14.770125"><ele>195.33333333333331</ele><time>2026-04-25T10:46:57.88Z</time></trkpt><trkpt lat="40.7531683" lon="14.7700833"><ele>195.16666666666666</ele><time>2026-04-25T10:46:58.879Z</time></trkpt><trkpt lat="40.7531017" lon="14.7700483"><ele>195.0</ele><time>2026-04-25T10:46:59.88Z</time></trkpt><trkpt lat="40.7530367" lon="14.770015"><ele>195.0</ele><time>2026-04-25T10:47:00.88Z</time></trkpt><trkpt lat="40.75297" lon="14.76999"><ele>195.0</ele><time>2026-04-25T10:47:01.879Z</time></trkpt><trkpt lat="40.7529083" lon="14.76996"><ele>195.0</ele><time>2026-04-25T10:47:02.88Z</time></trkpt><trkpt lat="40.7528283" lon="14.7699217"><ele>195.0</ele><time>2026-04-25T10:47:04.88Z</time></trkpt><trkpt lat="40.75273" lon="14.7698967"><ele>195.0</ele><time>2026-04-25T10:49:35.879Z</time></trkpt><trkpt lat="40.752665" lon="14.7698767"><ele>195.0</ele><time>2026-04-25T10:49:36.88Z</time></trkpt><trkpt lat="40.7526" lon="14.769845"><ele>194.6</ele><time>2026-04-25T10:49:37.88Z</time></trkpt><trkpt lat="40.7525267" lon="14.7698"><ele>194.2</ele><time>2026-04-25T10:49:38.879Z</time></trkpt><trkpt lat="40.75244" lon="14.769765"><ele>193.8</ele><time>2026-04-25T10:49:39.88Z</time></trkpt><trkpt lat="40.75234" lon="14.7697383"><ele>193.4</ele><time>2026-04-25T10:49:40.88Z</time></trkpt><trkpt lat="40.752235" lon="14.7697017"><ele>193.0</ele><time>2026-04-25T10:49:41.88Z</time></trkpt><trkpt lat="40.7521167" lon="14.7696633"><ele>193.0</ele><time>2026-04-25T10:49:42.88Z</time></trkpt><trkpt lat="40.752005" lon="14.7696233"><ele>193.0</ele><time>2026-04-25T10:49:43.88Z</time></trkpt><trkpt lat="40.7519067" lon="14.7695833"><ele>193.0</ele><time>2026-04-25T10:49:44.879Z</time></trkpt><trkpt lat="40.7518117" lon="14.7695533"><ele>193.0</ele><time>2026-04-25T10:49:45.88Z</time></trkpt><trkpt lat="40.7517183" lon="14.7695333"><ele>193.0</ele><time>2026-04-25T10:49:46.88Z</time></trkpt><trkpt lat="40.75162" lon="14.7695183"><ele>193.5</ele><time>2026-04-25T10:49:47.88Z</time></trkpt><trkpt lat="40.751515" lon="14.7695"><ele>194.0</ele><time>2026-04-25T10:49:48.879Z</time></trkpt><trkpt lat="40.7513967" lon="14.76947"><ele>194.5</ele><time>2026-04-25T10:49:49.879Z</time></trkpt><trkpt lat="40.7512783" lon="14.7694333"><ele>195.0</ele><time>2026-04-25T10:49:50.879Z</time></trkpt><trkpt lat="40.7511567" lon="14.7693967"><ele>195.0</ele><time>2026-04-25T10:49:51.88Z</time></trkpt><trkpt lat="40.75104" lon="14.7693617"><ele>195.0</ele><time>2026-04-25T10:49:52.88Z</time></trkpt><trkpt lat="40.7509333" lon="14.7693367"><ele>195.0</ele><time>2026-04-25T10:49:53.88Z</time></trkpt><trkpt lat="40.75084" lon="14.7693167"><ele>195.0</ele><time>2026-04-25T10:49:54.879Z</time></trkpt><trkpt lat="40.7507617" lon="14.7692967"><ele>195.0</ele><time>2026-04-25T10:49:55.879Z</time></trkpt><trkpt lat="40.7506967" lon="14.7692783"><ele>195.0</ele><time>2026-04-25T10:49:56.879Z</time></trkpt><trkpt lat="40.75059" lon="14.7692767"><ele>195.0</ele><time>2026-04-25T10:49:58.88Z</time></trkpt><trkpt lat="40.7504717" lon="14.76934"><ele>195.0</ele><time>2026-04-25T10:50:00.88Z</time></trkpt><trkpt lat="40.7504033" lon="14.7693783"><ele>195.0</ele><time>2026-04-25T10:50:01.879Z</time></trkpt><trkpt lat="40.75033" lon="14.7694167"><ele>195.0</ele><time>2026-04-25T10:50:02.88Z</time></trkpt><trkpt lat="40.7502517" lon="14.7694633"><ele>195.66666666666666</ele><time>2026-04-25T10:50:03.88Z</time></trkpt><trkpt lat="40.7501717" lon="14.76952"><ele>196.33333333333331</ele><time>2026-04-25T10:50:04.879Z</time></trkpt><trkpt lat="40.750095" lon="14.7695683"><ele>197.0</ele><time>2026-04-25T10:50:05.88Z</time></trkpt><trkpt lat="40.75003" lon="14.7696183"><ele>197.66666666666666</ele><time>2026-04-25T10:50:06.88Z</time></trkpt><trkpt lat="40.749965" lon="14.76966"><ele>198.33333333333331</ele><time>2026-04-25T10:50:07.879Z</time></trkpt><trkpt lat="40.749905" lon="14.7696917"><ele>199.0</ele><time>2026-04-25T10:50:08.88Z</time></trkpt><trkpt lat="40.7498433" lon="14.7697133"><ele>198.99999999999997</ele><time>2026-04-25T10:50:09.88Z</time></trkpt><trkpt lat="40.7497833" lon="14.7697483"><ele>199.0</ele><time>2026-04-25T10:50:10.879Z</time></trkpt><trkpt lat="40.7497267" lon="14.7698017"><ele>199.0</ele><time>2026-04-25T10:50:11.88Z</time></trkpt><trkpt lat="40.7496633" lon="14.7698533"><ele>199.0</ele><time>2026-04-25T10:50:12.879Z</time></trkpt><trkpt lat="40.7495967" lon="14.7698717"><ele>199.0</ele><time>2026-04-25T10:50:13.88Z</time></trkpt><trkpt lat="40.7495267" lon="14.7698517"><ele>198.99999999999997</ele><time>2026-04-25T10:50:14.879Z</time></trkpt><trkpt lat="40.749455" lon="14.7698067"><ele>199.0</ele><time>2026-04-25T10:50:15.879Z</time></trkpt><trkpt lat="40.7493883" lon="14.7697617"><ele>198.49999999999997</ele><time>2026-04-25T10:50:16.88Z</time></trkpt><trkpt lat="40.7493217" lon="14.76973"><ele>198.0</ele><time>2026-04-25T10:50:17.88Z</time></trkpt><trkpt lat="40.7492517" lon="14.7696983"><ele>197.5</ele><time>2026-04-25T10:50:18.88Z</time></trkpt><trkpt lat="40.7491767" lon="14.769675"><ele>197.0</ele><time>2026-04-25T10:50:19.879Z</time></trkpt><trkpt lat="40.749105" lon="14.7696583"><ele>196.49999999999997</ele><time>2026-04-25T10:50:20.88Z</time></trkpt><trkpt lat="40.7490417" lon="14.76965"><ele>196.0</ele><time>2026-04-25T10:50:21.879Z</time></trkpt><trkpt lat="40.7489367" lon="14.7696367"><ele>195.99999999999997</ele><time>2026-04-25T10:50:23.88Z</time></trkpt><trkpt lat="40.7488733" lon="14.7696133"><ele>196.0</ele><time>2026-04-25T10:50:25.879Z</time></trkpt><trkpt lat="40.748845" lon="14.76951"><ele>196.0</ele><time>2026-04-25T10:50:29.88Z</time></trkpt><trkpt lat="40.74888" lon="14.76942"><ele>196.0</ele><time>2026-04-25T10:50:31.88Z</time></trkpt><trkpt lat="40.7489133" lon="14.76932"><ele>195.99999999999997</ele><time>2026-04-25T10:50:34.879Z</time></trkpt><trkpt lat="40.7489467" lon="14.7692483"><ele>196.0</ele><time>2026-04-25T10:50:36.879Z</time></trkpt><trkpt lat="40.7487647" lon="14.7691488"><ele>196.66666666666666</ele><time>2026-04-25T10:53:40.701Z</time></trkpt><trkpt lat="40.7486535" lon="14.7692414"><ele>197.33333333333331</ele><time>2026-04-25T10:54:03.75Z</time></trkpt><trkpt lat="40.7488057" lon="14.7691067"><ele>198.0</ele><time>2026-04-25T10:54:23.837Z</time></trkpt><trkpt lat="40.7484433" lon="14.76817"><ele>199.4</ele><time>2026-04-25T11:00:02.882Z</time></trkpt><trkpt lat="40.7484783" lon="14.7683683"><ele>200.8</ele><time>2026-04-25T11:00:06.881Z</time></trkpt><trkpt lat="40.7485267" lon="14.7684233"><ele>202.2</ele><time>2026-04-25T11:00:11.881Z</time></trkpt><trkpt lat="40.7484667" lon="14.7683733"><ele>203.6</ele><time>2026-04-25T11:00:33.881Z</time></trkpt><trkpt lat="40.748555" lon="14.768425"><ele>205.0</ele><time>2026-04-25T11:03:36.882Z</time></trkpt><trkpt lat="40.7486133" lon="14.7684733"><ele>205.0</ele><time>2026-04-25T11:06:49.882Z</time></trkpt><trkpt lat="40.7485983" lon="14.7686"><ele>205.0</ele><time>2026-04-25T11:07:32.881Z</time></trkpt><trkpt lat="40.748555" lon="14.7685117"><ele>205.0</ele><time>2026-04-25T11:09:04.881Z</time></trkpt><trkpt lat="40.7484717" lon="14.7684583"><ele>205.0</ele><time>2026-04-25T11:13:06.881Z</time></trkpt><trkpt lat="40.7486367" lon="14.76864"><ele>198.0</ele><time>2026-04-25T11:18:46.881Z</time></trkpt></trkseg><trkseg><trkpt lat="40.6698867" lon="14.857955"><ele>119.0</ele><time>2026-04-26T07:01:53.801Z</time></trkpt><trkpt lat="40.6692617" lon="14.858105"><ele>119.0</ele><time>2026-04-26T07:01:55.853Z</time></trkpt><trkpt lat="40.66896" lon="14.858145"><ele>119.0</ele><time>2026-04-26T07:01:56.852Z</time></trkpt><trkpt lat="40.6686467" lon="14.858195"><ele>119.0</ele><time>2026-04-26T07:01:57.852Z</time></trkpt></trkseg><trkseg><trkpt lat="40.6624717" lon="14.859145"><ele>74.0</ele><time>2026-04-26T07:02:18.886Z</time></trkpt><trkpt lat="40.66219" lon="14.8592583"><ele>74.0</ele><time>2026-04-26T07:02:19.885Z</time></trkpt><trkpt lat="40.66191" lon="14.8593933"><ele>72.0</ele><time>2026-04-26T07:02:20.885Z</time></trkpt><trkpt lat="40.6616367" lon="14.8595467"><ele>70.0</ele><time>2026-04-26T07:02:21.886Z</time></trkpt><trkpt lat="40.66138" lon="14.8597117"><ele>70.0</ele><time>2026-04-26T07:02:22.879Z</time></trkpt><trkpt lat="40.6611267" lon="14.8598917"><ele>70.0</ele><time>2026-04-26T07:02:23.879Z</time></trkpt><trkpt lat="40.6608817" lon="14.8600833"><ele>61.0</ele><time>2026-04-26T07:02:24.877Z</time></trkpt></trkseg></trk></gpx>